<?xml version='1.0' encoding='UTF-8'?><gpx version="1.1" creator="JPX - https://github.com/jenetics/jpx" xmlns="http://www.topografix.com/GPX/1/1"><trk><trkseg><trkpt lat="39.439247500020166" lon="9.541469610955128"><ele>15.0</ele><time>2026-05-01T07:03:25.541Z</time></trkpt><trkpt lat="39.43925141810093" lon="9.541336512559328"><ele>15.0</ele><time>2026-05-01T07:03:26.797Z</time></trkpt><trkpt lat="39.43924619757869" lon="9.5412104045744"><ele>15.0</ele><time>2026-05-01T07:03:27.997Z</time></trkpt><trkpt lat="39.43924815732138" lon="9.541083459629382"><ele>15.0</ele><time>2026-05-01T07:03:29.498Z</time></trkpt><trkpt lat="39.43933030210243" lon="9.541018331252396"><ele>15.0</ele><time>2026-05-01T07:03:33.498Z</time></trkpt><trkpt lat="39.43940629408306" lon="9.541025190162534"><ele>15.0</ele><time>2026-05-01T07:03:34.998Z</time></trkpt><trkpt lat="39.439518760847854" lon="9.541032172699325"><ele>15.0</ele><time>2026-05-01T07:03:36.999Z</time></trkpt><trkpt lat="39.439601137285706" lon="9.541032340566218"><ele>15.0</ele><time>2026-05-01T07:03:38.499Z</time></trkpt><trkpt lat="39.43971003414438" lon="9.541032651188122"><ele>15.0</ele><time>2026-05-01T07:03:40.499Z</time></trkpt><trkpt lat="39.439816455525076" lon="9.541029943630804"><ele>15.0</ele><time>2026-05-01T07:03:42.499Z</time></trkpt><trkpt lat="39.43988950949209" lon="9.541052346664628"><ele>15.0</ele><time>2026-05-01T07:03:43.999Z</time></trkpt><trkpt lat="39.439992600618766" lon="9.541093632987632"><ele>15.0</ele><time>2026-05-01T07:03:47.499Z</time></trkpt><trkpt lat="39.44006551021014" lon="9.541130271791738"><ele>15.0</ele><time>2026-05-01T07:03:49Z</time></trkpt><trkpt lat="39.44016913627008" lon="9.54118111762607"><ele>15.0</ele><time>2026-05-01T07:03:51Z</time></trkpt><trkpt lat="39.4402723486787" lon="9.541209440446615"><ele>15.0</ele><time>2026-05-01T07:03:53Z</time></trkpt><trkpt lat="39.44036875220358" lon="9.541254863837402"><ele>15.0</ele><time>2026-05-01T07:03:55Z</time></trkpt><trkpt lat="39.44046587790034" lon="9.541301427289847"><ele>15.0</ele><time>2026-05-01T07:03:57Z</time></trkpt><trkpt lat="39.4405519406013" lon="9.541372645308265"><ele>15.0</ele><time>2026-05-01T07:03:59Z</time></trkpt><trkpt lat="39.44063596175433" lon="9.541421520979956"><ele>15.0</ele><time>2026-05-01T07:04:01Z</time></trkpt><trkpt lat="39.44069715595783" lon="9.541466741860306"><ele>15.0</ele><time>2026-05-01T07:04:05Z</time></trkpt><trkpt lat="39.44066459764959" lon="9.541573714198222"><ele>15.0</ele><time>2026-05-01T07:04:07Z</time></trkpt><trkpt lat="39.44059573785556" lon="9.541598897967177"><ele>15.0</ele><time>2026-05-01T07:04:08Z</time></trkpt><trkpt lat="39.440534728939255" lon="9.541673472412867"><ele>15.0</ele><time>2026-05-01T07:04:09Z</time></trkpt><trkpt lat="39.44047056873079" lon="9.541729665416856"><ele>15.0</ele><time>2026-05-01T07:04:10Z</time></trkpt><trkpt lat="39.44041694608533" lon="9.541776516387612"><ele>15.0</ele><time>2026-05-01T07:04:11Z</time></trkpt><trkpt lat="39.44033728389608" lon="9.54185634539201"><ele>15.0</ele><time>2026-05-01T07:04:13Z</time></trkpt><trkpt lat="39.440304946221545" lon="9.541942294045988"><ele>15.0</ele><time>2026-05-01T07:04:15Z</time></trkpt><trkpt lat="39.44029780758687" lon="9.542044374451217"><ele>15.0</ele><time>2026-05-01T07:04:18Z</time></trkpt><trkpt lat="39.440279184675596" lon="9.542138352290928"><ele>15.0</ele><time>2026-05-01T07:04:21Z</time></trkpt><trkpt lat="39.440253184953306" lon="9.542235315741861"><ele>15.0</ele><time>2026-05-01T07:04:29Z</time></trkpt><trkpt lat="39.44025567082998" lon="9.542328991970194"><ele>15.0</ele><time>2026-05-01T07:04:31Z</time></trkpt><trkpt lat="39.44032721759474" lon="9.542354768176304"><ele>15.0</ele><time>2026-05-01T07:04:32Z</time></trkpt><trkpt lat="39.44043479042095" lon="9.542398932821712"><ele>15.0</ele><time>2026-05-01T07:04:34Z</time></trkpt><trkpt lat="39.44050267551073" lon="9.542425564307495"><ele>15.0</ele><time>2026-05-01T07:04:35Z</time></trkpt><trkpt lat="39.440565091684654" lon="9.54245454139274"><ele>15.0</ele><time>2026-05-01T07:04:36Z</time></trkpt><trkpt lat="39.44063680435862" lon="9.542489528424019"><ele>15.0</ele><time>2026-05-01T07:04:37Z</time></trkpt><trkpt lat="39.440703965372315" lon="9.542524584473659"><ele>15.0</ele><time>2026-05-01T07:04:38Z</time></trkpt><trkpt lat="39.440770424778094" lon="9.542561500514214"><ele>15.0</ele><time>2026-05-01T07:04:39Z</time></trkpt><trkpt lat="39.440832778819804" lon="9.542599831115252"><ele>15.0</ele><time>2026-05-01T07:04:40Z</time></trkpt><trkpt lat="39.4408949877183" lon="9.542636406243265"><ele>15.0</ele><time>2026-05-01T07:04:41Z</time></trkpt><trkpt lat="39.440961802949154" lon="9.542675116425528"><ele>15.0</ele><time>2026-05-01T07:04:42Z</time></trkpt><trkpt lat="39.441020143896246" lon="9.542708811165546"><ele>15.0</ele><time>2026-05-01T07:04:43Z</time></trkpt><trkpt lat="39.441091217964356" lon="9.542747741595262"><ele>15.0</ele><time>2026-05-01T07:04:44Z</time></trkpt><trkpt lat="39.44115959178962" lon="9.542781469901032"><ele>15.0</ele><time>2026-05-01T07:04:45Z</time></trkpt><trkpt lat="39.441228140220936" lon="9.542815215572546"><ele>15.0</ele><time>2026-05-01T07:04:46Z</time></trkpt><trkpt lat="39.441300205911276" lon="9.542851570669594"><ele>15.0</ele><time>2026-05-01T07:04:47Z</time></trkpt><trkpt lat="39.441367956821466" lon="9.542889518399894"><ele>14.833333333333334</ele><time>2026-05-01T07:04:48Z</time></trkpt><trkpt lat="39.4414330303706" lon="9.542928043050187"><ele>14.666666666666668</ele><time>2026-05-01T07:04:49Z</time></trkpt><trkpt lat="39.44149404633444" lon="9.542957653164335"><ele>14.5</ele><time>2026-05-01T07:04:50Z</time></trkpt><trkpt lat="39.44155979402685" lon="9.542967364019328"><ele>14.333333333333334</ele><time>2026-05-01T07:04:51Z</time></trkpt><trkpt lat="39.44167282913541" lon="9.542946809807866"><ele>14.166666666666668</ele><time>2026-05-01T07:04:53Z</time></trkpt><trkpt lat="39.44178235688039" lon="9.542872901634311"><ele>14.0</ele><time>2026-05-01T07:04:55Z</time></trkpt><trkpt lat="39.441887987334425" lon="9.542807408323256"><ele>14.5</ele><time>2026-05-01T07:04:57Z</time></trkpt><trkpt lat="39.44199605987179" lon="9.54274079554897"><ele>15.0</ele><time>2026-05-01T07:04:59Z</time></trkpt><trkpt lat="39.44210024903211" lon="9.542665331838345"><ele>15.5</ele><time>2026-05-01T07:05:01Z</time></trkpt><trkpt lat="39.44218895371487" lon="9.542562188835623"><ele>16.0</ele><time>2026-05-01T07:05:03Z</time></trkpt><trkpt lat="39.4422656243234" lon="9.54245296250323"><ele>16.2</ele><time>2026-05-01T07:05:05Z</time></trkpt><trkpt lat="39.44234137717452" lon="9.54236775721051"><ele>16.400000000000002</ele><time>2026-05-01T07:05:07Z</time></trkpt><trkpt lat="39.44244885365971" lon="9.54231469572597"><ele>16.6</ele><time>2026-05-01T07:05:09Z</time></trkpt><trkpt lat="39.442559361171675" lon="9.542249444115118"><ele>16.8</ele><time>2026-05-01T07:05:11Z</time></trkpt><trkpt lat="39.44262031627207" lon="9.542209608104137"><ele>17.0</ele><time>2026-05-01T07:05:12Z</time></trkpt><trkpt lat="39.442731664709044" lon="9.542140505904856"><ele>17.0</ele><time>2026-05-01T07:05:14Z</time></trkpt><trkpt lat="39.44284029536721" lon="9.54205647333088"><ele>17.0</ele><time>2026-05-01T07:05:16Z</time></trkpt><trkpt lat="39.44295371139846" lon="9.541981886610694"><ele>17.0</ele><time>2026-05-01T07:05:18Z</time></trkpt><trkpt lat="39.443007340138365" lon="9.541935088182512"><ele>17.0</ele><time>2026-05-01T07:05:19Z</time></trkpt><trkpt lat="39.443064365429144" lon="9.541893802522832"><ele>17.0</ele><time>2026-05-01T07:05:20Z</time></trkpt><trkpt lat="39.443135834604" lon="9.541849257759138"><ele>17.166666666666668</ele><time>2026-05-01T07:05:21Z</time></trkpt><trkpt lat="39.443197963572146" lon="9.54180851940786"><ele>17.333333333333336</ele><time>2026-05-01T07:05:22Z</time></trkpt><trkpt lat="39.44326454606592" lon="9.541774199845579"><ele>17.5</ele><time>2026-05-01T07:05:23Z</time></trkpt><trkpt lat="39.443338893412104" lon="9.541748105277307"><ele>17.666666666666668</ele><time>2026-05-01T07:05:24Z</time></trkpt><trkpt lat="39.44341104438751" lon="9.541712508885842"><ele>17.833333333333332</ele><time>2026-05-01T07:05:25Z</time></trkpt><trkpt lat="39.44348543308659" lon="9.541681027285291"><ele>18.0</ele><time>2026-05-01T07:05:26Z</time></trkpt><trkpt lat="39.44355965835784" lon="9.541646335648016"><ele>18.0</ele><time>2026-05-01T07:05:27Z</time></trkpt><trkpt lat="39.44363854962121" lon="9.541597543342215"><ele>18.0</ele><time>2026-05-01T07:05:28Z</time></trkpt><trkpt lat="39.44372101474144" lon="9.541555597524393"><ele>18.0</ele><time>2026-05-01T07:05:29Z</time></trkpt><trkpt lat="39.443803641217556" lon="9.541512678468411"><ele>18.0</ele><time>2026-05-01T07:05:30Z</time></trkpt><trkpt lat="39.443888559492855" lon="9.541451428499942"><ele>18.0</ele><time>2026-05-01T07:05:31Z</time></trkpt><trkpt lat="39.44397124413604" lon="9.54138943800081"><ele>17.5</ele><time>2026-05-01T07:05:32Z</time></trkpt><trkpt lat="39.444062237121" lon="9.541332842984358"><ele>17.0</ele><time>2026-05-01T07:05:33Z</time></trkpt><trkpt lat="39.44414772258958" lon="9.541283148534502"><ele>16.5</ele><time>2026-05-01T07:05:34Z</time></trkpt><trkpt lat="39.44422361669732" lon="9.541228851302733"><ele>16.0</ele><time>2026-05-01T07:05:35Z</time></trkpt><trkpt lat="39.44428505797782" lon="9.54116434549823"><ele>15.5</ele><time>2026-05-01T07:05:36Z</time></trkpt><trkpt lat="39.44433895463379" lon="9.541092400657616"><ele>15.0</ele><time>2026-05-01T07:05:37Z</time></trkpt><trkpt lat="39.44436985256687" lon="9.541004048706185"><ele>15.0</ele><time>2026-05-01T07:05:38Z</time></trkpt><trkpt lat="39.44439760440581" lon="9.540928073665572"><ele>15.0</ele><time>2026-05-01T07:05:39Z</time></trkpt><trkpt lat="39.44442823242469" lon="9.54084899356252"><ele>15.0</ele><time>2026-05-01T07:05:40Z</time></trkpt><trkpt lat="39.444467061492965" lon="9.540762203578035"><ele>15.0</ele><time>2026-05-01T07:05:41Z</time></trkpt><trkpt lat="39.444513058234435" lon="9.540681610072031"><ele>15.0</ele><time>2026-05-01T07:05:42Z</time></trkpt><trkpt lat="39.4445626121329" lon="9.54060457428496"><ele>15.0</ele><time>2026-05-01T07:05:43Z</time></trkpt><trkpt lat="39.44461870096456" lon="9.540529472993382"><ele>15.0</ele><time>2026-05-01T07:05:44Z</time></trkpt><trkpt lat="39.44468160666548" lon="9.540471168760563"><ele>15.0</ele><time>2026-05-01T07:05:45Z</time></trkpt><trkpt lat="39.4447340438697" lon="9.540404544063852"><ele>15.0</ele><time>2026-05-01T07:05:46Z</time></trkpt><trkpt lat="39.444780215361966" lon="9.54034732129777"><ele>15.0</ele><time>2026-05-01T07:05:47Z</time></trkpt><trkpt lat="39.44485090489262" lon="9.540267565695832"><ele>15.0</ele><time>2026-05-01T07:05:49Z</time></trkpt><trkpt lat="39.444940436863966" lon="9.540208120336263"><ele>15.0</ele><time>2026-05-01T07:05:51Z</time></trkpt><trkpt lat="39.44504647809577" lon="9.540216634815655"><ele>15.0</ele><time>2026-05-01T07:05:53Z</time></trkpt><trkpt lat="39.44514435163668" lon="9.540232869703857"><ele>15.5</ele><time>2026-05-01T07:05:55Z</time></trkpt><trkpt lat="39.44523290380546" lon="9.540243000107063"><ele>16.0</ele><time>2026-05-01T07:05:57Z</time></trkpt><trkpt lat="39.445299007426996" lon="9.540275964268819"><ele>16.5</ele><time>2026-05-01T07:05:59Z</time></trkpt><trkpt lat="39.44536210210498" lon="9.540287725600903"><ele>17.0</ele><time>2026-05-01T07:06:01Z</time></trkpt><trkpt lat="39.44544918261878" lon="9.540282903302472"><ele>17.5</ele><time>2026-05-01T07:06:03Z</time></trkpt><trkpt lat="39.44556834340007" lon="9.540324411688628"><ele>18.0</ele><time>2026-05-01T07:06:05Z</time></trkpt><trkpt lat="39.44564929078451" lon="9.540317451558636"><ele>18.0</ele><time>2026-05-01T07:06:06Z</time></trkpt><trkpt lat="39.44572349640835" lon="9.540321171974513"><ele>18.0</ele><time>2026-05-01T07:06:07Z</time></trkpt><trkpt lat="39.445795838503166" lon="9.540340580874586"><ele>18.0</ele><time>2026-05-01T07:06:08Z</time></trkpt><trkpt lat="39.445881499877025" lon="9.540360022882178"><ele>18.0</ele><time>2026-05-01T07:06:09Z</time></trkpt><trkpt lat="39.44597104318204" lon="9.540386904565944"><ele>18.0</ele><time>2026-05-01T07:06:10Z</time></trkpt><trkpt lat="39.44606843525187" lon="9.540445804469064"><ele>18.0</ele><time>2026-05-01T07:06:11Z</time></trkpt><trkpt lat="39.44618320309024" lon="9.540473070731046"><ele>17.0</ele><time>2026-05-01T07:06:12Z</time></trkpt><trkpt lat="39.446295276599386" lon="9.540517442226985"><ele>16.0</ele><time>2026-05-01T07:06:13Z</time></trkpt><trkpt lat="39.44639990803838" lon="9.540571986048306"><ele>15.0</ele><time>2026-05-01T07:06:14Z</time></trkpt><trkpt lat="39.44652143285169" lon="9.540612620056189"><ele>14.0</ele><time>2026-05-01T07:06:15Z</time></trkpt><trkpt lat="39.44664553029752" lon="9.54063411572033"><ele>14.0</ele><time>2026-05-01T07:06:16Z</time></trkpt><trkpt lat="39.44678331242428" lon="9.540625728279098"><ele>14.0</ele><time>2026-05-01T07:06:17Z</time></trkpt><trkpt lat="39.44692245232533" lon="9.540630818598087"><ele>14.0</ele><time>2026-05-01T07:06:18Z</time></trkpt><trkpt lat="39.44705728140609" lon="9.540628662126023"><ele>14.0</ele><time>2026-05-01T07:06:19Z</time></trkpt><trkpt lat="39.44719345516033" lon="9.540618585969595"><ele>14.5</ele><time>2026-05-01T07:06:20Z</time></trkpt><trkpt lat="39.44732948171313" lon="9.540619278245195"><ele>15.0</ele><time>2026-05-01T07:06:21Z</time></trkpt><trkpt lat="39.44746734653299" lon="9.54062578735551"><ele>15.5</ele><time>2026-05-01T07:06:22Z</time></trkpt><trkpt lat="39.447603376597776" lon="9.540640386023108"><ele>16.0</ele><time>2026-05-01T07:06:23Z</time></trkpt><trkpt lat="39.447731797458324" lon="9.540672268230686"><ele>16.0</ele><time>2026-05-01T07:06:24Z</time></trkpt><trkpt lat="39.4478608230245" lon="9.5407022362585"><ele>16.0</ele><time>2026-05-01T07:06:25Z</time></trkpt><trkpt lat="39.447987466663925" lon="9.540728422138816"><ele>16.0</ele><time>2026-05-01T07:06:26Z</time></trkpt><trkpt lat="39.448112945205715" lon="9.54075608484641"><ele>16.0</ele><time>2026-05-01T07:06:27Z</time></trkpt><trkpt lat="39.44824024691192" lon="9.540782671670865"><ele>16.75</ele><time>2026-05-01T07:06:28Z</time></trkpt><trkpt lat="39.44836880415461" lon="9.540808225046497"><ele>17.5</ele><time>2026-05-01T07:06:29Z</time></trkpt><trkpt lat="39.44850327178192" lon="9.540816428935981"><ele>18.25</ele><time>2026-05-01T07:06:30Z</time></trkpt><trkpt lat="39.448646586241274" lon="9.540807142535773"><ele>19.0</ele><time>2026-05-01T07:06:31Z</time></trkpt><trkpt lat="39.44879206774035" lon="9.540798177998932"><ele>19.0</ele><time>2026-05-01T07:06:32Z</time></trkpt><trkpt lat="39.44894131393822" lon="9.540783301136198"><ele>19.0</ele><time>2026-05-01T07:06:33Z</time></trkpt><trkpt lat="39.44909527911568" lon="9.540774313066976"><ele>19.0</ele><time>2026-05-01T07:06:34Z</time></trkpt><trkpt lat="39.44924310736372" lon="9.540767227320602"><ele>19.0</ele><time>2026-05-01T07:06:35Z</time></trkpt><trkpt lat="39.449383616148154" lon="9.54075594449301"><ele>19.0</ele><time>2026-05-01T07:06:36Z</time></trkpt><trkpt lat="39.449520085842074" lon="9.54074640753294"><ele>19.0</ele><time>2026-05-01T07:06:37Z</time></trkpt><trkpt lat="39.44965854325055" lon="9.540738199729471"><ele>19.0</ele><time>2026-05-01T07:06:38Z</time></trkpt><trkpt lat="39.44979748875319" lon="9.540744211024501"><ele>18.5</ele><time>2026-05-01T07:06:39Z</time></trkpt><trkpt lat="39.44994271571582" lon="9.540745506141166"><ele>18.0</ele><time>2026-05-01T07:06:40Z</time></trkpt><trkpt lat="39.45008431303252" lon="9.540757019036482"><ele>17.5</ele><time>2026-05-01T07:06:41Z</time></trkpt><trkpt lat="39.450228217136946" lon="9.540773924047068"><ele>17.0</ele><time>2026-05-01T07:06:42Z</time></trkpt><trkpt lat="39.45036782263007" lon="9.540787952801576"><ele>16.75</ele><time>2026-05-01T07:06:43Z</time></trkpt><trkpt lat="39.45050424892183" lon="9.54082522730306"><ele>16.5</ele><time>2026-05-01T07:06:44Z</time></trkpt><trkpt lat="39.45063712713511" lon="9.540850948991254"><ele>16.25</ele><time>2026-05-01T07:06:45Z</time></trkpt><trkpt lat="39.450765010918964" lon="9.540860125730905"><ele>16.0</ele><time>2026-05-01T07:06:46Z</time></trkpt><trkpt lat="39.45088550261667" lon="9.540891852712234"><ele>16.0</ele><time>2026-05-01T07:06:47Z</time></trkpt><trkpt lat="39.45099899069734" lon="9.540918376833222"><ele>16.0</ele><time>2026-05-01T07:06:48Z</time></trkpt><trkpt lat="39.451106044745686" lon="9.540941786110677"><ele>16.0</ele><time>2026-05-01T07:06:49Z</time></trkpt><trkpt lat="39.451217569448715" lon="9.540938013871681"><ele>16.0</ele><time>2026-05-01T07:06:50Z</time></trkpt><trkpt lat="39.45133524493805" lon="9.540879491532815"><ele>16.0</ele><time>2026-05-01T07:06:51Z</time></trkpt><trkpt lat="39.45145646984844" lon="9.540791869563046"><ele>16.0</ele><time>2026-05-01T07:06:52Z</time></trkpt><trkpt lat="39.451584262992206" lon="9.540740416328124"><ele>16.0</ele><time>2026-05-01T07:06:53Z</time></trkpt><trkpt lat="39.451718164355725" lon="9.540683935882805"><ele>16.0</ele><time>2026-05-01T07:06:54Z</time></trkpt><trkpt lat="39.451855077419886" lon="9.540622832744948"><ele>16.0</ele><time>2026-05-01T07:06:55Z</time></trkpt><trkpt lat="39.45199618101874" lon="9.540564123131622"><ele>16.0</ele><time>2026-05-01T07:06:56Z</time></trkpt><trkpt lat="39.45214184894089" lon="9.540512866758824"><ele>16.0</ele><time>2026-05-01T07:06:57Z</time></trkpt><trkpt lat="39.452297334517276" lon="9.540482207940025"><ele>15.0</ele><time>2026-05-01T07:06:58Z</time></trkpt><trkpt lat="39.45245673758651" lon="9.54047181905037"><ele>14.0</ele><time>2026-05-01T07:06:59Z</time></trkpt><trkpt lat="39.45261609922975" lon="9.540470931013727"><ele>13.0</ele><time>2026-05-01T07:07:00Z</time></trkpt><trkpt lat="39.452778030225005" lon="9.540478669003635"><ele>13.0</ele><time>2026-05-01T07:07:01Z</time></trkpt><trkpt lat="39.45294261923824" lon="9.540489613625631"><ele>13.0</ele><time>2026-05-01T07:07:02Z</time></trkpt><trkpt lat="39.45310514918412" lon="9.54049895479075"><ele>13.0</ele><time>2026-05-01T07:07:03Z</time></trkpt><trkpt lat="39.45327039397018" lon="9.540504614432946"><ele>14.0</ele><time>2026-05-01T07:07:04Z</time></trkpt><trkpt lat="39.45343319484136" lon="9.54050913141489"><ele>15.0</ele><time>2026-05-01T07:07:05Z</time></trkpt><trkpt lat="39.45359687578661" lon="9.540513828592923"><ele>16.0</ele><time>2026-05-01T07:07:06Z</time></trkpt><trkpt lat="39.453753968008925" lon="9.540519505609241"><ele>17.0</ele><time>2026-05-01T07:07:07Z</time></trkpt><trkpt lat="39.45390918442422" lon="9.540526689707391"><ele>18.0</ele><time>2026-05-01T07:07:08Z</time></trkpt><trkpt lat="39.454063404472954" lon="9.540531333096759"><ele>19.0</ele><time>2026-05-01T07:07:09Z</time></trkpt><trkpt lat="39.45421500746901" lon="9.540534040463541"><ele>19.0</ele><time>2026-05-01T07:07:10Z</time></trkpt><trkpt lat="39.45436615221378" lon="9.54053549720964"><ele>19.0</ele><time>2026-05-01T07:07:11Z</time></trkpt><trkpt lat="39.45451396774976" lon="9.54054189283398"><ele>19.0</ele><time>2026-05-01T07:07:12Z</time></trkpt><trkpt lat="39.45466051524642" lon="9.54055189085612"><ele>19.0</ele><time>2026-05-01T07:07:13Z</time></trkpt><trkpt lat="39.45480542495167" lon="9.540569931831714"><ele>19.25</ele><time>2026-05-01T07:07:14Z</time></trkpt><trkpt lat="39.45494574915279" lon="9.540607867378418"><ele>19.5</ele><time>2026-05-01T07:07:15Z</time></trkpt><trkpt lat="39.455084657649294" lon="9.54067188547499"><ele>19.75</ele><time>2026-05-01T07:07:16Z</time></trkpt><trkpt lat="39.45521788942529" lon="9.540758681954063"><ele>20.0</ele><time>2026-05-01T07:07:17Z</time></trkpt><trkpt lat="39.455350222795616" lon="9.54085569538337"><ele>20.333333333333336</ele><time>2026-05-01T07:07:18Z</time></trkpt><trkpt lat="39.45547835305623" lon="9.540957676968036"><ele>20.666666666666668</ele><time>2026-05-01T07:07:19Z</time></trkpt><trkpt lat="39.45559644967624" lon="9.541083285024175"><ele>21.0</ele><time>2026-05-01T07:07:20Z</time></trkpt><trkpt lat="39.45571410157291" lon="9.541216256102828"><ele>21.0</ele><time>2026-05-01T07:07:21Z</time></trkpt><trkpt lat="39.455836952049175" lon="9.541344613708475"><ele>21.0</ele><time>2026-05-01T07:07:22Z</time></trkpt><trkpt lat="39.4559625893686" lon="9.541475137674993"><ele>21.0</ele><time>2026-05-01T07:07:23Z</time></trkpt><trkpt lat="39.45609069688135" lon="9.541609704372675"><ele>21.0</ele><time>2026-05-01T07:07:24Z</time></trkpt><trkpt lat="39.45622369493443" lon="9.541735713402426"><ele>21.0</ele><time>2026-05-01T07:07:25Z</time></trkpt><trkpt lat="39.456371821888595" lon="9.541840370982431"><ele>21.0</ele><time>2026-05-01T07:07:26Z</time></trkpt><trkpt lat="39.45653096717596" lon="9.541919882213229"><ele>24.0</ele><time>2026-05-01T07:07:27Z</time></trkpt><trkpt lat="39.45669952851804" lon="9.541969967917074"><ele>27.0</ele><time>2026-05-01T07:07:28Z</time></trkpt><trkpt lat="39.45687182668722" lon="9.54199791139613"><ele>30.0</ele><time>2026-05-01T07:07:29Z</time></trkpt><trkpt lat="39.457050632229034" lon="9.542003577788265"><ele>32.666666666666664</ele><time>2026-05-01T07:07:30Z</time></trkpt><trkpt lat="39.45723241135253" lon="9.541988688270685"><ele>35.33333333333333</ele><time>2026-05-01T07:07:31Z</time></trkpt><trkpt lat="39.457413500299836" lon="9.541963975294756"><ele>38.0</ele><time>2026-05-01T07:07:32Z</time></trkpt><trkpt lat="39.457595020501" lon="9.541940472184463"><ele>38.0</ele><time>2026-05-01T07:07:33Z</time></trkpt><trkpt lat="39.45777975852605" lon="9.541928296429264"><ele>38.0</ele><time>2026-05-01T07:07:34Z</time></trkpt><trkpt lat="39.45796238173481" lon="9.541933168774712"><ele>38.0</ele><time>2026-05-01T07:07:35Z</time></trkpt><trkpt lat="39.45814450532222" lon="9.541948550748257"><ele>39.666666666666664</ele><time>2026-05-01T07:07:36Z</time></trkpt><trkpt lat="39.45832438613109" lon="9.541968267098873"><ele>41.333333333333336</ele><time>2026-05-01T07:07:37Z</time></trkpt><trkpt lat="39.458504504530126" lon="9.541986214219367"><ele>43.0</ele><time>2026-05-01T07:07:38Z</time></trkpt><trkpt lat="39.458686003207475" lon="9.541999455225387"><ele>45.0</ele><time>2026-05-01T07:07:39Z</time></trkpt><trkpt lat="39.45886595035144" lon="9.542007764994235"><ele>47.0</ele><time>2026-05-01T07:07:40Z</time></trkpt><trkpt lat="39.45904482500705" lon="9.542010801420107"><ele>49.0</ele><time>2026-05-01T07:07:41Z</time></trkpt><trkpt lat="39.459224175852285" lon="9.542009740703053"><ele>49.0</ele><time>2026-05-01T07:07:42Z</time></trkpt><trkpt lat="39.45940157458688" lon="9.54200884101425"><ele>49.0</ele><time>2026-05-01T07:07:43Z</time></trkpt><trkpt lat="39.45957739036248" lon="9.542005922834287"><ele>49.0</ele><time>2026-05-01T07:07:44Z</time></trkpt><trkpt lat="39.459753748063356" lon="9.54199239560868"><ele>45.666666666666664</ele><time>2026-05-01T07:07:45Z</time></trkpt><trkpt lat="39.4599340764926" lon="9.541958074751802"><ele>42.33333333333333</ele><time>2026-05-01T07:07:46Z</time></trkpt><trkpt lat="39.46011441987962" lon="9.54190605908694"><ele>39.0</ele><time>2026-05-01T07:07:47Z</time></trkpt><trkpt lat="39.46029583157165" lon="9.5418458807578"><ele>34.333333333333336</ele><time>2026-05-01T07:07:48Z</time></trkpt><trkpt lat="39.46047530136171" lon="9.541776326679486"><ele>29.666666666666668</ele><time>2026-05-01T07:07:49Z</time></trkpt><trkpt lat="39.46065508433225" lon="9.541693930506094"><ele>25.0</ele><time>2026-05-01T07:07:50Z</time></trkpt><trkpt lat="39.4608330038915" lon="9.54160473561461"><ele>25.0</ele><time>2026-05-01T07:07:51Z</time></trkpt><trkpt lat="39.46100954960109" lon="9.541510988269275"><ele>25.0</ele><time>2026-05-01T07:07:52Z</time></trkpt><trkpt lat="39.46118218616262" lon="9.541405621352743"><ele>25.0</ele><time>2026-05-01T07:07:53Z</time></trkpt><trkpt lat="39.46134931938381" lon="9.541283166243334"><ele>28.0</ele><time>2026-05-01T07:07:54Z</time></trkpt><trkpt lat="39.46151005670487" lon="9.541151591383342"><ele>31.0</ele><time>2026-05-01T07:07:55Z</time></trkpt><trkpt lat="39.46166617428268" lon="9.541009971107508"><ele>34.0</ele><time>2026-05-01T07:07:56Z</time></trkpt><trkpt lat="39.46181268984864" lon="9.540850271728354"><ele>34.0</ele><time>2026-05-01T07:07:57Z</time></trkpt><trkpt lat="39.461942946010524" lon="9.54066541666936"><ele>34.0</ele><time>2026-05-01T07:07:58Z</time></trkpt><trkpt lat="39.462066328427326" lon="9.540481424630368"><ele>34.0</ele><time>2026-05-01T07:07:59Z</time></trkpt><trkpt lat="39.46218740216808" lon="9.540292518158136"><ele>33.333333333333336</ele><time>2026-05-01T07:08:00Z</time></trkpt><trkpt lat="39.462319227355714" lon="9.540118651234286"><ele>32.666666666666664</ele><time>2026-05-01T07:08:01Z</time></trkpt><trkpt lat="39.46245449722069" lon="9.53994998613925"><ele>32.0</ele><time>2026-05-01T07:08:02Z</time></trkpt><trkpt lat="39.46258756352499" lon="9.539779871880063"><ele>32.0</ele><time>2026-05-01T07:08:03Z</time></trkpt><trkpt lat="39.46272241180752" lon="9.539614847123369"><ele>32.0</ele><time>2026-05-01T07:08:04Z</time></trkpt><trkpt lat="39.46286147568711" lon="9.539458189993532"><ele>32.0</ele><time>2026-05-01T07:08:05Z</time></trkpt><trkpt lat="39.46301227227159" lon="9.53931701978477"><ele>32.33333333333333</ele><time>2026-05-01T07:08:06Z</time></trkpt><trkpt lat="39.46318195686131" lon="9.539201887415043"><ele>32.666666666666664</ele><time>2026-05-01T07:08:07Z</time></trkpt><trkpt lat="39.463370678999816" lon="9.539125603910968"><ele>33.0</ele><time>2026-05-01T07:08:08Z</time></trkpt><trkpt lat="39.46356607884325" lon="9.539117537004097"><ele>33.0</ele><time>2026-05-01T07:08:09Z</time></trkpt><trkpt lat="39.463724665201525" lon="9.539118113671611"><ele>33.0</ele><time>2026-05-01T07:08:10Z</time></trkpt><trkpt lat="39.463924070541616" lon="9.539104861474087"><ele>33.0</ele><time>2026-05-01T07:08:11Z</time></trkpt><trkpt lat="39.464120531155" lon="9.539123194440279"><ele>34.333333333333336</ele><time>2026-05-01T07:08:12Z</time></trkpt><trkpt lat="39.464320028368114" lon="9.539137595595637"><ele>35.66666666666667</ele><time>2026-05-01T07:08:13Z</time></trkpt><trkpt lat="39.464522274246924" lon="9.539146189177307"><ele>37.0</ele><time>2026-05-01T07:08:14Z</time></trkpt><trkpt lat="39.46472489940493" lon="9.539151473932268"><ele>37.0</ele><time>2026-05-01T07:08:15Z</time></trkpt><trkpt lat="39.46492817546002" lon="9.539147505706474"><ele>37.0</ele><time>2026-05-01T07:08:16Z</time></trkpt><trkpt lat="39.465133624212015" lon="9.5391415290256"><ele>37.0</ele><time>2026-05-01T07:08:17Z</time></trkpt><trkpt lat="39.465342071588346" lon="9.539133419027317"><ele>36.66666666666667</ele><time>2026-05-01T07:08:18Z</time></trkpt><trkpt lat="39.46555115770319" lon="9.539128445973393"><ele>36.333333333333336</ele><time>2026-05-01T07:08:19Z</time></trkpt><trkpt lat="39.46576120979787" lon="9.53912795140121"><ele>36.0</ele><time>2026-05-01T07:08:20Z</time></trkpt><trkpt lat="39.46597353904377" lon="9.53912783095301"><ele>36.0</ele><time>2026-05-01T07:08:21Z</time></trkpt><trkpt lat="39.46618957472623" lon="9.539141773894462"><ele>36.0</ele><time>2026-05-01T07:08:22Z</time></trkpt><trkpt lat="39.466399004048014" lon="9.53917088680775"><ele>36.0</ele><time>2026-05-01T07:08:23Z</time></trkpt><trkpt lat="39.46659929630254" lon="9.539212012677291"><ele>36.666666666666664</ele><time>2026-05-01T07:08:24Z</time></trkpt><trkpt lat="39.46679261914602" lon="9.539255508266425"><ele>37.33333333333333</ele><time>2026-05-01T07:08:25Z</time></trkpt><trkpt lat="39.46698075004643" lon="9.539293109715697"><ele>38.0</ele><time>2026-05-01T07:08:26Z</time></trkpt><trkpt lat="39.46716750119084" lon="9.539322255299421"><ele>38.0</ele><time>2026-05-01T07:08:27Z</time></trkpt><trkpt lat="39.46735475288544" lon="9.53933029859797"><ele>38.0</ele><time>2026-05-01T07:08:28Z</time></trkpt><trkpt lat="39.46754278418348" lon="9.539305279579338"><ele>38.0</ele><time>2026-05-01T07:08:29Z</time></trkpt><trkpt lat="39.467728515416134" lon="9.539239079455932"><ele>38.0</ele><time>2026-05-01T07:08:30Z</time></trkpt><trkpt lat="39.467915339150814" lon="9.539161853257465"><ele>38.0</ele><time>2026-05-01T07:08:31Z</time></trkpt><trkpt lat="39.46804303093677" lon="9.539093938388199"><ele>38.0</ele><time>2026-05-01T07:08:32Z</time></trkpt><trkpt lat="39.468197920182945" lon="9.53903842489615"><ele>33.0</ele><time>2026-05-01T07:08:33Z</time></trkpt><trkpt lat="39.468494659792974" lon="9.538949762194"><ele>28.0</ele><time>2026-05-01T07:08:34Z</time></trkpt><trkpt lat="39.46869147417098" lon="9.538884565840199"><ele>26.0</ele><time>2026-05-01T07:08:35Z</time></trkpt><trkpt lat="39.468888244461304" lon="9.538815896935574"><ele>24.0</ele><time>2026-05-01T07:08:36Z</time></trkpt><trkpt lat="39.46908638413585" lon="9.53876425425359"><ele>22.0</ele><time>2026-05-01T07:08:37Z</time></trkpt><trkpt lat="39.46928195320842" lon="9.538732128050395"><ele>27.666666666666664</ele><time>2026-05-01T07:08:38Z</time></trkpt><trkpt lat="39.46947592826289" lon="9.538694958076503"><ele>33.333333333333336</ele><time>2026-05-01T07:08:39Z</time></trkpt><trkpt lat="39.46966739698678" lon="9.538638548020765"><ele>39.0</ele><time>2026-05-01T07:08:40Z</time></trkpt><trkpt lat="39.469854860938064" lon="9.53856268736621"><ele>39.0</ele><time>2026-05-01T07:08:41Z</time></trkpt><trkpt lat="39.47003948714189" lon="9.53848528795432"><ele>39.0</ele><time>2026-05-01T07:08:42Z</time></trkpt><trkpt lat="39.47021972945549" lon="9.538410786899835"><ele>39.0</ele><time>2026-05-01T07:08:43Z</time></trkpt><trkpt lat="39.470397843876334" lon="9.538344674558765"><ele>38.333333333333336</ele><time>2026-05-01T07:08:44Z</time></trkpt><trkpt lat="39.47058190830492" lon="9.53830020690074"><ele>37.66666666666667</ele><time>2026-05-01T07:08:45Z</time></trkpt><trkpt lat="39.470768757807384" lon="9.538328244770765"><ele>37.0</ele><time>2026-05-01T07:08:46Z</time></trkpt><trkpt lat="39.47096182837172" lon="9.538344754895894"><ele>37.0</ele><time>2026-05-01T07:08:47Z</time></trkpt><trkpt lat="39.47115647617721" lon="9.538318511763663"><ele>37.0</ele><time>2026-05-01T07:08:48Z</time></trkpt><trkpt lat="39.47135332606087" lon="9.538294850320812"><ele>37.0</ele><time>2026-05-01T07:08:49Z</time></trkpt><trkpt lat="39.47154909028046" lon="9.538253124484969"><ele>36.0</ele><time>2026-05-01T07:08:50Z</time></trkpt><trkpt lat="39.47174586372594" lon="9.538257365806722"><ele>35.0</ele><time>2026-05-01T07:08:51Z</time></trkpt><trkpt lat="39.47193961378508" lon="9.538291839575573"><ele>34.0</ele><time>2026-05-01T07:08:52Z</time></trkpt><trkpt lat="39.47212863327566" lon="9.538353354231239"><ele>36.333333333333336</ele><time>2026-05-01T07:08:53Z</time></trkpt><trkpt lat="39.47232190831927" lon="9.538414369510168"><ele>38.666666666666664</ele><time>2026-05-01T07:08:54Z</time></trkpt><trkpt lat="39.472519287523895" lon="9.538441139942982"><ele>41.0</ele><time>2026-05-01T07:08:55Z</time></trkpt><trkpt lat="39.47271940751928" lon="9.538483965384444"><ele>41.0</ele><time>2026-05-01T07:08:56Z</time></trkpt><trkpt lat="39.472919093705826" lon="9.53853023382411"><ele>41.0</ele><time>2026-05-01T07:08:57Z</time></trkpt><trkpt lat="39.47311596499658" lon="9.538578805895286"><ele>41.0</ele><time>2026-05-01T07:08:58Z</time></trkpt><trkpt lat="39.473312187420404" lon="9.538627730428429"><ele>40.0</ele><time>2026-05-01T07:08:59Z</time></trkpt><trkpt lat="39.47350848237318" lon="9.538686281981953"><ele>39.0</ele><time>2026-05-01T07:09:00Z</time></trkpt><trkpt lat="39.47369722730918" lon="9.538786171632701"><ele>38.0</ele><time>2026-05-01T07:09:01Z</time></trkpt><trkpt lat="39.47388830418413" lon="9.538871449676204"><ele>38.0</ele><time>2026-05-01T07:09:02Z</time></trkpt><trkpt lat="39.474089823707075" lon="9.53893972190949"><ele>38.0</ele><time>2026-05-01T07:09:03Z</time></trkpt><trkpt lat="39.474280719990155" lon="9.539026844483708"><ele>38.0</ele><time>2026-05-01T07:09:04Z</time></trkpt><trkpt lat="39.474468022598394" lon="9.539114037520234"><ele>43.666666666666664</ele><time>2026-05-01T07:09:05Z</time></trkpt><trkpt lat="39.47465348268814" lon="9.539207738912198"><ele>49.33333333333333</ele><time>2026-05-01T07:09:06Z</time></trkpt><trkpt lat="39.47481650977725" lon="9.539321463373383"><ele>55.0</ele><time>2026-05-01T07:09:07Z</time></trkpt><trkpt lat="39.47495815061507" lon="9.53945295776588"><ele>46.33333333333333</ele><time>2026-05-01T07:09:08Z</time></trkpt><trkpt lat="39.475089573984675" lon="9.53958045225719"><ele>37.666666666666664</ele><time>2026-05-01T07:09:09Z</time></trkpt><trkpt lat="39.475221283148464" lon="9.539688871823616"><ele>29.0</ele><time>2026-05-01T07:09:10Z</time></trkpt><trkpt lat="39.47535968523949" lon="9.539769848463285"><ele>32.25</ele><time>2026-05-01T07:09:11Z</time></trkpt><trkpt lat="39.47549866171024" lon="9.539820111892135"><ele>35.5</ele><time>2026-05-01T07:09:12Z</time></trkpt><trkpt lat="39.47563595742524" lon="9.539837165887935"><ele>38.75</ele><time>2026-05-01T07:09:13Z</time></trkpt><trkpt lat="39.47576610979707" lon="9.539805501982483"><ele>42.0</ele><time>2026-05-01T07:09:14Z</time></trkpt><trkpt lat="39.47587773448232" lon="9.539721485705368"><ele>42.0</ele><time>2026-05-01T07:09:15Z</time></trkpt><trkpt lat="39.47594955044961" lon="9.539578291450464"><ele>42.0</ele><time>2026-05-01T07:09:16Z</time></trkpt><trkpt lat="39.47597970789075" lon="9.539410938612018"><ele>42.0</ele><time>2026-05-01T07:09:17Z</time></trkpt><trkpt lat="39.475954393214366" lon="9.539214498481224"><ele>42.0</ele><time>2026-05-01T07:09:18Z</time></trkpt><trkpt lat="39.4759221828724" lon="9.539010417436257"><ele>42.333333333333336</ele><time>2026-05-01T07:09:19Z</time></trkpt><trkpt lat="39.47589351033909" lon="9.538795508237412"><ele>42.66666666666667</ele><time>2026-05-01T07:09:20Z</time></trkpt><trkpt lat="39.47583947533748" lon="9.538569706193615"><ele>43.0</ele><time>2026-05-01T07:09:21Z</time></trkpt><trkpt lat="39.47576543816704" lon="9.538343799579524"><ele>40.66666666666667</ele><time>2026-05-01T07:09:22Z</time></trkpt><trkpt lat="39.475688158187126" lon="9.538108230800958"><ele>38.333333333333336</ele><time>2026-05-01T07:09:23Z</time></trkpt><trkpt lat="39.47560909615692" lon="9.53786612295867"><ele>36.0</ele><time>2026-05-01T07:09:24Z</time></trkpt><trkpt lat="39.47552978413251" lon="9.537634683224613"><ele>39.666666666666664</ele><time>2026-05-01T07:09:25Z</time></trkpt><trkpt lat="39.47544027540937" lon="9.537411149114147"><ele>43.33333333333333</ele><time>2026-05-01T07:09:26Z</time></trkpt><trkpt lat="39.47533791504513" lon="9.537196158360652"><ele>47.0</ele><time>2026-05-01T07:09:27Z</time></trkpt><trkpt lat="39.475241513332286" lon="9.536972847270441"><ele>47.0</ele><time>2026-05-01T07:09:28Z</time></trkpt><trkpt lat="39.47516460438928" lon="9.53673589437229"><ele>47.0</ele><time>2026-05-01T07:09:29Z</time></trkpt><trkpt lat="39.475132342296355" lon="9.536480685778049"><ele>47.0</ele><time>2026-05-01T07:09:30Z</time></trkpt><trkpt lat="39.47509733445024" lon="9.536228506102749"><ele>46.0</ele><time>2026-05-01T07:09:31Z</time></trkpt><trkpt lat="39.47509298663139" lon="9.535967964407863"><ele>45.0</ele><time>2026-05-01T07:09:32Z</time></trkpt><trkpt lat="39.47509686979378" lon="9.53570647220586"><ele>44.0</ele><time>2026-05-01T07:09:33Z</time></trkpt><trkpt lat="39.475123132616005" lon="9.535449474572495"><ele>44.33333333333333</ele><time>2026-05-01T07:09:34Z</time></trkpt><trkpt lat="39.47516639164468" lon="9.53519581831043"><ele>44.666666666666664</ele><time>2026-05-01T07:09:35Z</time></trkpt><trkpt lat="39.4752248487621" lon="9.53494486556148"><ele>45.0</ele><time>2026-05-01T07:09:36Z</time></trkpt><trkpt lat="39.475296994948934" lon="9.534698737249675"><ele>47.0</ele><time>2026-05-01T07:09:37Z</time></trkpt><trkpt lat="39.47538286478585" lon="9.534458927310661"><ele>49.0</ele><time>2026-05-01T07:09:38Z</time></trkpt><trkpt lat="39.47547381855959" lon="9.534220044149208"><ele>51.0</ele><time>2026-05-01T07:09:39Z</time></trkpt><trkpt lat="39.47556244748774" lon="9.533974619842713"><ele>45.333333333333336</ele><time>2026-05-01T07:09:40Z</time></trkpt><trkpt lat="39.47564772983788" lon="9.53372362313545"><ele>39.66666666666667</ele><time>2026-05-01T07:09:41Z</time></trkpt><trkpt lat="39.47573275459491" lon="9.533474702792196"><ele>34.0</ele><time>2026-05-01T07:09:42Z</time></trkpt><trkpt lat="39.47581970067007" lon="9.533224238344355"><ele>34.0</ele><time>2026-05-01T07:09:43Z</time></trkpt><trkpt lat="39.47590599128183" lon="9.532974576551773"><ele>34.0</ele><time>2026-05-01T07:09:44Z</time></trkpt><trkpt lat="39.47599296115148" lon="9.532726440327565"><ele>34.0</ele><time>2026-05-01T07:09:45Z</time></trkpt><trkpt lat="39.476079806398545" lon="9.53248058838756"><ele>36.333333333333336</ele><time>2026-05-01T07:09:46Z</time></trkpt><trkpt lat="39.476165251713375" lon="9.532236189542559"><ele>38.666666666666664</ele><time>2026-05-01T07:09:47Z</time></trkpt><trkpt lat="39.476250194292405" lon="9.531991271224015"><ele>41.0</ele><time>2026-05-01T07:09:48Z</time></trkpt><trkpt lat="39.476335066515055" lon="9.531744729408453"><ele>36.0</ele><time>2026-05-01T07:09:49Z</time></trkpt><trkpt lat="39.476417672698844" lon="9.53149701966406"><ele>31.0</ele><time>2026-05-01T07:09:50Z</time></trkpt><trkpt lat="39.47649185002344" lon="9.5312436353034"><ele>26.0</ele><time>2026-05-01T07:09:51Z</time></trkpt><trkpt lat="39.47655238775348" lon="9.530980531978248"><ele>26.0</ele><time>2026-05-01T07:09:52Z</time></trkpt><trkpt lat="39.47660118885423" lon="9.530708041883573"><ele>26.0</ele><time>2026-05-01T07:09:53Z</time></trkpt><trkpt lat="39.4766418206107" lon="9.530434123182248"><ele>26.0</ele><time>2026-05-01T07:09:54Z</time></trkpt><trkpt lat="39.47667609970946" lon="9.530158450292197"><ele>27.333333333333332</ele><time>2026-05-01T07:09:55Z</time></trkpt><trkpt lat="39.47670965095751" lon="9.529891069842291"><ele>28.666666666666664</ele><time>2026-05-01T07:09:56Z</time></trkpt><trkpt lat="39.47674560028574" lon="9.529620467849949"><ele>30.0</ele><time>2026-05-01T07:09:57Z</time></trkpt><trkpt lat="39.4767802143311" lon="9.529355010465125"><ele>34.0</ele><time>2026-05-01T07:09:58Z</time></trkpt><trkpt lat="39.476809275710416" lon="9.529087330055008"><ele>38.0</ele><time>2026-05-01T07:09:59Z</time></trkpt><trkpt lat="39.47683300314364" lon="9.528820047275511"><ele>42.0</ele><time>2026-05-01T07:10:00Z</time></trkpt><trkpt lat="39.4768533022397" lon="9.528552679239718"><ele>45.0</ele><time>2026-05-01T07:10:01Z</time></trkpt><trkpt lat="39.47688236328532" lon="9.528286981204136"><ele>48.0</ele><time>2026-05-01T07:10:02Z</time></trkpt><trkpt lat="39.476923763622146" lon="9.528022232292745"><ele>51.0</ele><time>2026-05-01T07:10:03Z</time></trkpt><trkpt lat="39.47697500353171" lon="9.527756715036116"><ele>53.33333333333333</ele><time>2026-05-01T07:10:04Z</time></trkpt><trkpt lat="39.47702406592638" lon="9.52749231578906"><ele>55.666666666666664</ele><time>2026-05-01T07:10:05Z</time></trkpt><trkpt lat="39.477049314991895" lon="9.527213052864905"><ele>58.0</ele><time>2026-05-01T07:10:06Z</time></trkpt><trkpt lat="39.477048958993606" lon="9.526937957428538"><ele>58.33333333333333</ele><time>2026-05-01T07:10:07Z</time></trkpt><trkpt lat="39.47704119248686" lon="9.526661310132358"><ele>58.66666666666667</ele><time>2026-05-01T07:10:08Z</time></trkpt><trkpt lat="39.47704961172776" lon="9.52638857040468"><ele>59.0</ele><time>2026-05-01T07:10:09Z</time></trkpt><trkpt lat="39.47706667794824" lon="9.52611570294192"><ele>57.333333333333336</ele><time>2026-05-01T07:10:10Z</time></trkpt><trkpt lat="39.47708584568249" lon="9.525843005865035"><ele>55.66666666666667</ele><time>2026-05-01T07:10:11Z</time></trkpt><trkpt lat="39.477109708416485" lon="9.525577443164085"><ele>54.0</ele><time>2026-05-01T07:10:12Z</time></trkpt><trkpt lat="39.47715117102445" lon="9.52531869177252"><ele>45.0</ele><time>2026-05-01T07:10:13Z</time></trkpt><trkpt lat="39.47722099603173" lon="9.525067309314558"><ele>36.0</ele><time>2026-05-01T07:10:14Z</time></trkpt><trkpt lat="39.47730867593834" lon="9.52482721064372"><ele>27.0</ele><time>2026-05-01T07:10:15Z</time></trkpt><trkpt lat="39.47739444040519" lon="9.524589624045701"><ele>32.666666666666664</ele><time>2026-05-01T07:10:16Z</time></trkpt><trkpt lat="39.47747420173839" lon="9.524351214354768"><ele>38.33333333333333</ele><time>2026-05-01T07:10:17Z</time></trkpt><trkpt lat="39.477550664347554" lon="9.524109482343066"><ele>44.0</ele><time>2026-05-01T07:10:18Z</time></trkpt><trkpt lat="39.47762517594338" lon="9.52387004862166"><ele>50.33333333333333</ele><time>2026-05-01T07:10:19Z</time></trkpt><trkpt lat="39.47769889165016" lon="9.523629601485004"><ele>56.666666666666664</ele><time>2026-05-01T07:10:20Z</time></trkpt><trkpt lat="39.47776590464883" lon="9.523386824330748"><ele>63.0</ele><time>2026-05-01T07:10:21Z</time></trkpt><trkpt lat="39.47782565019162" lon="9.523140810336853"><ele>67.33333333333333</ele><time>2026-05-01T07:10:22Z</time></trkpt><trkpt lat="39.477884009209596" lon="9.522892630167114"><ele>71.66666666666666</ele><time>2026-05-01T07:10:23Z</time></trkpt><trkpt lat="39.47794573599764" lon="9.522645809487672"><ele>76.0</ele><time>2026-05-01T07:10:24Z</time></trkpt><trkpt lat="39.478014749137884" lon="9.522401857499066"><ele>62.33333333333333</ele><time>2026-05-01T07:10:25Z</time></trkpt><trkpt lat="39.478090255135314" lon="9.522159345157412"><ele>48.666666666666664</ele><time>2026-05-01T07:10:26Z</time></trkpt><trkpt lat="39.47816633924464" lon="9.521916017141814"><ele>35.0</ele><time>2026-05-01T07:10:27Z</time></trkpt><trkpt lat="39.478235426148935" lon="9.521665864100758"><ele>35.0</ele><time>2026-05-01T07:10:28Z</time></trkpt><trkpt lat="39.47829946923976" lon="9.521412463256981"><ele>35.0</ele><time>2026-05-01T07:10:29Z</time></trkpt><trkpt lat="39.47837804071635" lon="9.52116654584054"><ele>35.0</ele><time>2026-05-01T07:10:30Z</time></trkpt><trkpt lat="39.47848798995207" lon="9.520943055728532"><ele>33.33333333333333</ele><time>2026-05-01T07:10:31Z</time></trkpt><trkpt lat="39.478625054678055" lon="9.520745355537242"><ele>31.666666666666664</ele><time>2026-05-01T07:10:32Z</time></trkpt><trkpt lat="39.478773421750766" lon="9.520560735776975"><ele>30.0</ele><time>2026-05-01T07:10:33Z</time></trkpt><trkpt lat="39.47890727489023" lon="9.52036419444491"><ele>30.0</ele><time>2026-05-01T07:10:34Z</time></trkpt><trkpt lat="39.47902394011735" lon="9.520141257864084"><ele>30.0</ele><time>2026-05-01T07:10:35Z</time></trkpt><trkpt lat="39.47912292424469" lon="9.519899286324925"><ele>30.0</ele><time>2026-05-01T07:10:36Z</time></trkpt><trkpt lat="39.47920581457083" lon="9.519639531843126"><ele>29.333333333333336</ele><time>2026-05-01T07:10:37Z</time></trkpt><trkpt lat="39.47927321816494" lon="9.51936952482427"><ele>28.666666666666668</ele><time>2026-05-01T07:10:38Z</time></trkpt><trkpt lat="39.479332923797735" lon="9.51909482936398"><ele>28.0</ele><time>2026-05-01T07:10:39Z</time></trkpt><trkpt lat="39.47939554967383" lon="9.518823662680433"><ele>28.0</ele><time>2026-05-01T07:10:40Z</time></trkpt><trkpt lat="39.47946039567218" lon="9.518561988219314"><ele>28.0</ele><time>2026-05-01T07:10:41Z</time></trkpt><trkpt lat="39.479525909861515" lon="9.518301028524414"><ele>28.0</ele><time>2026-05-01T07:10:42Z</time></trkpt><trkpt lat="39.47959045335235" lon="9.518041198092465"><ele>26.666666666666668</ele><time>2026-05-01T07:10:43Z</time></trkpt><trkpt lat="39.47965675298247" lon="9.51777951870078"><ele>25.333333333333336</ele><time>2026-05-01T07:10:44Z</time></trkpt><trkpt lat="39.479730941117104" lon="9.51752548196252"><ele>24.0</ele><time>2026-05-01T07:10:45Z</time></trkpt><trkpt lat="39.47981828643135" lon="9.517278878383399"><ele>27.333333333333336</ele><time>2026-05-01T07:10:46Z</time></trkpt><trkpt lat="39.47991635033745" lon="9.517038754632482"><ele>30.666666666666668</ele><time>2026-05-01T07:10:47Z</time></trkpt><trkpt lat="39.480016943408614" lon="9.516801345238955"><ele>34.0</ele><time>2026-05-01T07:10:48Z</time></trkpt><trkpt lat="39.480116023786465" lon="9.516562937071443"><ele>34.0</ele><time>2026-05-01T07:10:49Z</time></trkpt><trkpt lat="39.480213761499854" lon="9.51632398450785"><ele>34.0</ele><time>2026-05-01T07:10:50Z</time></trkpt><trkpt lat="39.48030431861189" lon="9.516082223551821"><ele>34.0</ele><time>2026-05-01T07:10:51Z</time></trkpt><trkpt lat="39.480376420616444" lon="9.515830334723596"><ele>37.0</ele><time>2026-05-01T07:10:52Z</time></trkpt><trkpt lat="39.48041750164615" lon="9.515565709913748"><ele>40.0</ele><time>2026-05-01T07:10:53Z</time></trkpt><trkpt lat="39.48043933305138" lon="9.515296293635155"><ele>43.0</ele><time>2026-05-01T07:10:54Z</time></trkpt><trkpt lat="39.48046051035152" lon="9.515031981389768"><ele>37.66666666666667</ele><time>2026-05-01T07:10:55Z</time></trkpt><trkpt lat="39.48048495625912" lon="9.514768457192172"><ele>32.333333333333336</ele><time>2026-05-01T07:10:56Z</time></trkpt><trkpt lat="39.48050385478335" lon="9.514506884546277"><ele>27.0</ele><time>2026-05-01T07:10:57Z</time></trkpt><trkpt lat="39.480509695738945" lon="9.514242783541633"><ele>27.0</ele><time>2026-05-01T07:10:58Z</time></trkpt><trkpt lat="39.48050095044158" lon="9.513981267444132"><ele>27.0</ele><time>2026-05-01T07:10:59Z</time></trkpt><trkpt lat="39.48048232910173" lon="9.513719030263568"><ele>27.0</ele><time>2026-05-01T07:11:00Z</time></trkpt><trkpt lat="39.480460227381776" lon="9.513460004212437"><ele>27.0</ele><time>2026-05-01T07:11:01Z</time></trkpt><trkpt lat="39.48044067096542" lon="9.513203808875334"><ele>27.0</ele><time>2026-05-01T07:11:02Z</time></trkpt><trkpt lat="39.48042224576406" lon="9.512947772212225"><ele>27.0</ele><time>2026-05-01T07:11:03Z</time></trkpt><trkpt lat="39.480406847484815" lon="9.512695575010945"><ele>34.33333333333333</ele><time>2026-05-01T07:11:04Z</time></trkpt><trkpt lat="39.480390894983124" lon="9.512442492945505"><ele>41.666666666666664</ele><time>2026-05-01T07:11:05Z</time></trkpt><trkpt lat="39.48037098661775" lon="9.512192828035852"><ele>49.0</ele><time>2026-05-01T07:11:06Z</time></trkpt><trkpt lat="39.480335136038825" lon="9.511946434076998"><ele>49.0</ele><time>2026-05-01T07:11:07Z</time></trkpt><trkpt lat="39.48026864000613" lon="9.511707527493387"><ele>49.0</ele><time>2026-05-01T07:11:08Z</time></trkpt><trkpt lat="39.48017791683653" lon="9.511478210513527"><ele>49.0</ele><time>2026-05-01T07:11:09Z</time></trkpt><trkpt lat="39.48008087880889" lon="9.511253880744011"><ele>43.0</ele><time>2026-05-01T07:11:10Z</time></trkpt><trkpt lat="39.47999347785329" lon="9.51102652127573"><ele>37.0</ele><time>2026-05-01T07:11:11Z</time></trkpt><trkpt lat="39.47990435267574" lon="9.510798225362576"><ele>31.0</ele><time>2026-05-01T07:11:12Z</time></trkpt><trkpt lat="39.47980740526794" lon="9.510571496838416"><ele>27.666666666666668</ele><time>2026-05-01T07:11:13Z</time></trkpt><trkpt lat="39.479703988499416" lon="9.510350978228681"><ele>24.333333333333336</ele><time>2026-05-01T07:11:14Z</time></trkpt><trkpt lat="39.479608971222575" lon="9.510121810152127"><ele>21.0</ele><time>2026-05-01T07:11:15Z</time></trkpt><trkpt lat="39.47952747612624" lon="9.509886589764166"><ele>24.0</ele><time>2026-05-01T07:11:16Z</time></trkpt><trkpt lat="39.479452759503886" lon="9.50963904566264"><ele>27.0</ele><time>2026-05-01T07:11:17Z</time></trkpt><trkpt lat="39.47938749816068" lon="9.50938514565714"><ele>30.0</ele><time>2026-05-01T07:11:18Z</time></trkpt><trkpt lat="39.4793338360528" lon="9.509122631228207"><ele>30.0</ele><time>2026-05-01T07:11:19Z</time></trkpt><trkpt lat="39.47928735274562" lon="9.508855292824322"><ele>30.0</ele><time>2026-05-01T07:11:20Z</time></trkpt><trkpt lat="39.47924137472034" lon="9.508589040152705"><ele>30.0</ele><time>2026-05-01T07:11:21Z</time></trkpt><trkpt lat="39.479195768621715" lon="9.508320717502416"><ele>32.0</ele><time>2026-05-01T07:11:22Z</time></trkpt><trkpt lat="39.47915232782366" lon="9.508057982455462"><ele>34.0</ele><time>2026-05-01T07:11:23Z</time></trkpt><trkpt lat="39.47911045212546" lon="9.507795321412527"><ele>36.0</ele><time>2026-05-01T07:11:24Z</time></trkpt><trkpt lat="39.479069070931075" lon="9.507534701708101"><ele>36.666666666666664</ele><time>2026-05-01T07:11:25Z</time></trkpt><trkpt lat="39.47902802972145" lon="9.507277194452453"><ele>37.33333333333333</ele><time>2026-05-01T07:11:26Z</time></trkpt><trkpt lat="39.478986160914694" lon="9.507022393523691"><ele>38.0</ele><time>2026-05-01T07:11:27Z</time></trkpt><trkpt lat="39.478947892695565" lon="9.506767202530641"><ele>39.0</ele><time>2026-05-01T07:11:28Z</time></trkpt><trkpt lat="39.47891766232368" lon="9.50651233607671"><ele>40.0</ele><time>2026-05-01T07:11:29Z</time></trkpt><trkpt lat="39.47889808737616" lon="9.50625759320335"><ele>41.0</ele><time>2026-05-01T07:11:30Z</time></trkpt><trkpt lat="39.478885567552844" lon="9.505999434586478"><ele>41.666666666666664</ele><time>2026-05-01T07:11:31Z</time></trkpt><trkpt lat="39.47887345345699" lon="9.505739831023373"><ele>42.333333333333336</ele><time>2026-05-01T07:11:32Z</time></trkpt><trkpt lat="39.47885851096381" lon="9.505479690024924"><ele>43.0</ele><time>2026-05-01T07:11:33Z</time></trkpt><trkpt lat="39.478839850752074" lon="9.505219575472557"><ele>41.66666666666667</ele><time>2026-05-01T07:11:34Z</time></trkpt><trkpt lat="39.47881874724688" lon="9.504958662805127"><ele>40.333333333333336</ele><time>2026-05-01T07:11:35Z</time></trkpt><trkpt lat="39.47879907574363" lon="9.504695644979217"><ele>39.0</ele><time>2026-05-01T07:11:36Z</time></trkpt><trkpt lat="39.478781701561985" lon="9.504430564422915"><ele>44.66666666666667</ele><time>2026-05-01T07:11:37Z</time></trkpt><trkpt lat="39.47876584746882" lon="9.504161303474234"><ele>50.333333333333336</ele><time>2026-05-01T07:11:38Z</time></trkpt><trkpt lat="39.478750621086235" lon="9.503891372204759"><ele>56.0</ele><time>2026-05-01T07:11:39Z</time></trkpt><trkpt lat="39.47873933827708" lon="9.503618522971871"><ele>56.0</ele><time>2026-05-01T07:11:40Z</time></trkpt><trkpt lat="39.478739826040396" lon="9.503341972860206"><ele>56.0</ele><time>2026-05-01T07:11:41Z</time></trkpt><trkpt lat="39.4787600242685" lon="9.50306516419144"><ele>56.0</ele><time>2026-05-01T07:11:42Z</time></trkpt><trkpt lat="39.47880323975329" lon="9.502790616045003"><ele>50.333333333333336</ele><time>2026-05-01T07:11:43Z</time></trkpt><trkpt lat="39.47887119172025" lon="9.502524444093288"><ele>44.66666666666667</ele><time>2026-05-01T07:11:44Z</time></trkpt><trkpt lat="39.47895940373549" lon="9.502266545885526"><ele>39.0</ele><time>2026-05-01T07:11:45Z</time></trkpt><trkpt lat="39.4790540728926" lon="9.502014945246115"><ele>39.0</ele><time>2026-05-01T07:11:46Z</time></trkpt><trkpt lat="39.47914652430258" lon="9.501757097164955"><ele>39.0</ele><time>2026-05-01T07:11:47Z</time></trkpt><trkpt lat="39.47923963190972" lon="9.501499297430646"><ele>39.0</ele><time>2026-05-01T07:11:48Z</time></trkpt><trkpt lat="39.47933316557924" lon="9.501243368397084"><ele>40.333333333333336</ele><time>2026-05-01T07:11:49Z</time></trkpt><trkpt lat="39.4794290586291" lon="9.500986829053833"><ele>41.66666666666667</ele><time>2026-05-01T07:11:50Z</time></trkpt><trkpt lat="39.47952535938793" lon="9.500730048064575"><ele>43.0</ele><time>2026-05-01T07:11:51Z</time></trkpt><trkpt lat="39.47961299916849" lon="9.500470588977134"><ele>40.0</ele><time>2026-05-01T07:11:52Z</time></trkpt><trkpt lat="39.47968012918672" lon="9.500201646885595"><ele>37.0</ele><time>2026-05-01T07:11:53Z</time></trkpt><trkpt lat="39.479722235917905" lon="9.499921619415156"><ele>34.0</ele><time>2026-05-01T07:11:54Z</time></trkpt><trkpt lat="39.47974148207394" lon="9.49963811683754"><ele>35.0</ele><time>2026-05-01T07:11:55Z</time></trkpt><trkpt lat="39.47973365828262" lon="9.499354120219873"><ele>36.0</ele><time>2026-05-01T07:11:56Z</time></trkpt><trkpt lat="39.47971518031575" lon="9.499077298558644"><ele>37.0</ele><time>2026-05-01T07:11:57Z</time></trkpt><trkpt lat="39.47969298061881" lon="9.498799400780065"><ele>36.66666666666667</ele><time>2026-05-01T07:11:58Z</time></trkpt><trkpt lat="39.47966857370024" lon="9.498523246351063"><ele>36.333333333333336</ele><time>2026-05-01T07:11:59Z</time></trkpt><trkpt lat="39.479650636655606" lon="9.49825124799038"><ele>36.0</ele><time>2026-05-01T07:12:00Z</time></trkpt><trkpt lat="39.47964418498901" lon="9.497983215675362"><ele>36.333333333333336</ele><time>2026-05-01T07:12:01Z</time></trkpt><trkpt lat="39.479651779597894" lon="9.497709490943636"><ele>36.66666666666667</ele><time>2026-05-01T07:12:02Z</time></trkpt><trkpt lat="39.479666145658" lon="9.497441797441583"><ele>37.0</ele><time>2026-05-01T07:12:03Z</time></trkpt><trkpt lat="39.47968600549916" lon="9.497178992911136"><ele>37.66666666666667</ele><time>2026-05-01T07:12:04Z</time></trkpt><trkpt lat="39.47970944627937" lon="9.496918716595967"><ele>38.333333333333336</ele><time>2026-05-01T07:12:05Z</time></trkpt><trkpt lat="39.47973131487217" lon="9.496658614986474"><ele>39.0</ele><time>2026-05-01T07:12:06Z</time></trkpt><trkpt lat="39.479751948392156" lon="9.496400565336716"><ele>40.333333333333336</ele><time>2026-05-01T07:12:07Z</time></trkpt><trkpt lat="39.479769886248846" lon="9.496141460902908"><ele>41.66666666666667</ele><time>2026-05-01T07:12:08Z</time></trkpt><trkpt lat="39.47979068677161" lon="9.495884816875712"><ele>43.0</ele><time>2026-05-01T07:12:09Z</time></trkpt><trkpt lat="39.47981423425443" lon="9.495626976400732"><ele>43.66666666666667</ele><time>2026-05-01T07:12:10Z</time></trkpt><trkpt lat="39.47983812627809" lon="9.49537008776672"><ele>44.333333333333336</ele><time>2026-05-01T07:12:11Z</time></trkpt><trkpt lat="39.47986090934968" lon="9.49511147108969"><ele>45.0</ele><time>2026-05-01T07:12:12Z</time></trkpt><trkpt lat="39.47988286356101" lon="9.49485360847583"><ele>45.0</ele><time>2026-05-01T07:12:13Z</time></trkpt><trkpt lat="39.47990438351911" lon="9.4945984421271"><ele>45.0</ele><time>2026-05-01T07:12:14Z</time></trkpt><trkpt lat="39.4799268474981" lon="9.494340454976022"><ele>45.0</ele><time>2026-05-01T07:12:15Z</time></trkpt><trkpt lat="39.47994858578927" lon="9.494085207579591"><ele>45.666666666666664</ele><time>2026-05-01T07:12:16Z</time></trkpt><trkpt lat="39.47996520326923" lon="9.493825934309069"><ele>46.33333333333333</ele><time>2026-05-01T07:12:17Z</time></trkpt><trkpt lat="39.47997187224863" lon="9.493568839021234"><ele>47.0</ele><time>2026-05-01T07:12:18Z</time></trkpt><trkpt lat="39.47995968010055" lon="9.49331157238489"><ele>48.0</ele><time>2026-05-01T07:12:19Z</time></trkpt><trkpt lat="39.479929105217174" lon="9.493054909162492"><ele>49.0</ele><time>2026-05-01T07:12:20Z</time></trkpt><trkpt lat="39.47987567268088" lon="9.49279759754593"><ele>50.0</ele><time>2026-05-01T07:12:21Z</time></trkpt><trkpt lat="39.479814219354274" lon="9.492547194940443"><ele>50.0</ele><time>2026-05-01T07:12:22Z</time></trkpt><trkpt lat="39.47974728399698" lon="9.492299740048718"><ele>50.0</ele><time>2026-05-01T07:12:23Z</time></trkpt><trkpt lat="39.47967791278963" lon="9.492052997377323"><ele>50.0</ele><time>2026-05-01T07:12:24Z</time></trkpt><trkpt lat="39.4796104232802" lon="9.491809799694536"><ele>51.0</ele><time>2026-05-01T07:12:25Z</time></trkpt><trkpt lat="39.479551364075384" lon="9.491562396708177"><ele>52.0</ele><time>2026-05-01T07:12:26Z</time></trkpt><trkpt lat="39.479508543664" lon="9.491310399569404"><ele>53.0</ele><time>2026-05-01T07:12:27Z</time></trkpt><trkpt lat="39.479482267027045" lon="9.491054164758246"><ele>52.0</ele><time>2026-05-01T07:12:28Z</time></trkpt><trkpt lat="39.47947184370878" lon="9.490794652930248"><ele>51.0</ele><time>2026-05-01T07:12:29Z</time></trkpt><trkpt lat="39.479484803692785" lon="9.490533939039638"><ele>50.0</ele><time>2026-05-01T07:12:30Z</time></trkpt><trkpt lat="39.47952674256225" lon="9.490278277669333"><ele>50.0</ele><time>2026-05-01T07:12:31Z</time></trkpt><trkpt lat="39.47958985613165" lon="9.49002624066722"><ele>50.0</ele><time>2026-05-01T07:12:32Z</time></trkpt><trkpt lat="39.479670199810805" lon="9.489781084881027"><ele>50.0</ele><time>2026-05-01T07:12:33Z</time></trkpt><trkpt lat="39.47977354581859" lon="9.489547509887345"><ele>52.333333333333336</ele><time>2026-05-01T07:12:34Z</time></trkpt><trkpt lat="39.47989837526973" lon="9.489330336429058"><ele>54.66666666666667</ele><time>2026-05-01T07:12:35Z</time></trkpt><trkpt lat="39.48003478063672" lon="9.489118676646616"><ele>57.0</ele><time>2026-05-01T07:12:36Z</time></trkpt><trkpt lat="39.48017307216564" lon="9.488909545614806"><ele>54.0</ele><time>2026-05-01T07:12:37Z</time></trkpt><trkpt lat="39.4803105864636" lon="9.488697817162034"><ele>51.0</ele><time>2026-05-01T07:12:38Z</time></trkpt><trkpt lat="39.480440694986136" lon="9.488488451362928"><ele>48.0</ele><time>2026-05-01T07:12:39Z</time></trkpt><trkpt lat="39.480571415500414" lon="9.488259745303008"><ele>48.0</ele><time>2026-05-01T07:12:40Z</time></trkpt><trkpt lat="39.480683408701616" lon="9.48802088337155"><ele>48.0</ele><time>2026-05-01T07:12:41Z</time></trkpt><trkpt lat="39.48077693188912" lon="9.487770463387154"><ele>48.0</ele><time>2026-05-01T07:12:42Z</time></trkpt><trkpt lat="39.48086082507311" lon="9.487501526693476"><ele>50.33333333333333</ele><time>2026-05-01T07:12:43Z</time></trkpt><trkpt lat="39.480925847328066" lon="9.48725155739403"><ele>52.666666666666664</ele><time>2026-05-01T07:12:44Z</time></trkpt><trkpt lat="39.480981012296446" lon="9.48698199042855"><ele>55.0</ele><time>2026-05-01T07:12:45Z</time></trkpt><trkpt lat="39.48101886423493" lon="9.48671430706372"><ele>58.33333333333333</ele><time>2026-05-01T07:12:46Z</time></trkpt><trkpt lat="39.48105363826918" lon="9.486448180599696"><ele>61.66666666666667</ele><time>2026-05-01T07:12:47Z</time></trkpt><trkpt lat="39.48109653062906" lon="9.486186774359506"><ele>65.0</ele><time>2026-05-01T07:12:48Z</time></trkpt><trkpt lat="39.48115735158751" lon="9.48593468873377"><ele>67.33333333333334</ele><time>2026-05-01T07:12:49Z</time></trkpt><trkpt lat="39.48123509572668" lon="9.485690119326966"><ele>69.66666666666667</ele><time>2026-05-01T07:12:50Z</time></trkpt><trkpt lat="39.481325509963064" lon="9.485455554607977"><ele>72.0</ele><time>2026-05-01T07:12:51Z</time></trkpt><trkpt lat="39.48142341797617" lon="9.485228063874368"><ele>67.33333333333333</ele><time>2026-05-01T07:12:52Z</time></trkpt><trkpt lat="39.48153260494365" lon="9.485008808224563"><ele>62.666666666666664</ele><time>2026-05-01T07:12:53Z</time></trkpt><trkpt lat="39.48165875066862" lon="9.484801278303093"><ele>58.0</ele><time>2026-05-01T07:12:54Z</time></trkpt><trkpt lat="39.4817983047647" lon="9.484608541221805"><ele>57.33333333333333</ele><time>2026-05-01T07:12:55Z</time></trkpt><trkpt lat="39.48194918456151" lon="9.484427919601751"><ele>56.66666666666667</ele><time>2026-05-01T07:12:56Z</time></trkpt><trkpt lat="39.482112667731016" lon="9.484261394576276"><ele>56.0</ele><time>2026-05-01T07:12:57Z</time></trkpt><trkpt lat="39.48228974956525" lon="9.484114617464709"><ele>56.0</ele><time>2026-05-01T07:12:58Z</time></trkpt><trkpt lat="39.482471121807954" lon="9.483976579711335"><ele>56.0</ele><time>2026-05-01T07:12:59Z</time></trkpt><trkpt lat="39.48265499640477" lon="9.48384318061404"><ele>56.0</ele><time>2026-05-01T07:13:00Z</time></trkpt><trkpt lat="39.48283799767753" lon="9.48370821808037"><ele>58.66666666666667</ele><time>2026-05-01T07:13:01Z</time></trkpt><trkpt lat="39.48301883818114" lon="9.483567486912454"><ele>61.33333333333333</ele><time>2026-05-01T07:13:02Z</time></trkpt><trkpt lat="39.483192749552416" lon="9.483419005619963"><ele>64.0</ele><time>2026-05-01T07:13:03Z</time></trkpt><trkpt lat="39.48335669648395" lon="9.483254976008004"><ele>64.0</ele><time>2026-05-01T07:13:04Z</time></trkpt><trkpt lat="39.4835119295944" lon="9.483069089771005"><ele>64.0</ele><time>2026-05-01T07:13:05Z</time></trkpt><trkpt lat="39.48365884145008" lon="9.482860118873155"><ele>64.0</ele><time>2026-05-01T07:13:06Z</time></trkpt><trkpt lat="39.483794294160006" lon="9.482626366273172"><ele>58.0</ele><time>2026-05-01T07:13:07Z</time></trkpt><trkpt lat="39.483912837977726" lon="9.482372466946718"><ele>52.0</ele><time>2026-05-01T07:13:08Z</time></trkpt><trkpt lat="39.48401141489591" lon="9.482105254487761"><ele>58.33333333333333</ele><time>2026-05-01T07:13:09Z</time></trkpt><trkpt lat="39.484081249773425" lon="9.481829397650436"><ele>64.66666666666667</ele><time>2026-05-01T07:13:10Z</time></trkpt><trkpt lat="39.48412591135543" lon="9.481556994819087"><ele>71.0</ele><time>2026-05-01T07:13:11Z</time></trkpt><trkpt lat="39.48418136383246" lon="9.481272207104702"><ele>74.0</ele><time>2026-05-01T07:13:12Z</time></trkpt><trkpt lat="39.484209847944165" lon="9.481012056763541"><ele>77.0</ele><time>2026-05-01T07:13:13Z</time></trkpt><trkpt lat="39.48424045594757" lon="9.480816790968861"><ele>80.0</ele><time>2026-05-01T07:13:14Z</time></trkpt><trkpt lat="39.484215646642404" lon="9.48058063243398"><ele>79.33333333333334</ele><time>2026-05-01T07:13:15Z</time></trkpt><trkpt lat="39.48414682413402" lon="9.480334328335013"><ele>78.66666666666667</ele><time>2026-05-01T07:13:16Z</time></trkpt><trkpt lat="39.48408048686758" lon="9.480080570792492"><ele>78.0</ele><time>2026-05-01T07:13:17Z</time></trkpt><trkpt lat="39.48400878736778" lon="9.479823596172176"><ele>76.0</ele><time>2026-05-01T07:13:18Z</time></trkpt><trkpt lat="39.48393217905594" lon="9.479586650977717"><ele>74.0</ele><time>2026-05-01T07:13:19Z</time></trkpt><trkpt lat="39.48387675820487" lon="9.479325951655081"><ele>72.0</ele><time>2026-05-01T07:13:20Z</time></trkpt><trkpt lat="39.48382014885663" lon="9.479082377556399"><ele>72.0</ele><time>2026-05-01T07:13:21Z</time></trkpt><trkpt lat="39.48376589136505" lon="9.478833371333057"><ele>72.0</ele><time>2026-05-01T07:13:22Z</time></trkpt><trkpt lat="39.48372381408109" lon="9.47857955536381"><ele>72.0</ele><time>2026-05-01T07:13:23Z</time></trkpt><trkpt lat="39.48369786251582" lon="9.478320822628314"><ele>75.66666666666667</ele><time>2026-05-01T07:13:24Z</time></trkpt><trkpt lat="39.48369216997648" lon="9.478061857971522"><ele>79.33333333333334</ele><time>2026-05-01T07:13:25Z</time></trkpt><trkpt lat="39.48370985486363" lon="9.477801939210293"><ele>83.0</ele><time>2026-05-01T07:13:26Z</time></trkpt><trkpt lat="39.48374938874465" lon="9.477545441075218"><ele>81.66666666666667</ele><time>2026-05-01T07:13:27Z</time></trkpt><trkpt lat="39.48381352977003" lon="9.477295110653438"><ele>80.33333333333333</ele><time>2026-05-01T07:13:28Z</time></trkpt><trkpt lat="39.4838980893775" lon="9.477052937224153"><ele>79.0</ele><time>2026-05-01T07:13:29Z</time></trkpt><trkpt lat="39.48400391947994" lon="9.476825447345066"><ele>85.33333333333333</ele><time>2026-05-01T07:13:30Z</time></trkpt><trkpt lat="39.484124901156214" lon="9.476606590359701"><ele>91.66666666666666</ele><time>2026-05-01T07:13:31Z</time></trkpt><trkpt lat="39.484253478055706" lon="9.476394541703069"><ele>98.0</ele><time>2026-05-01T07:13:32Z</time></trkpt><trkpt lat="39.48438334347036" lon="9.476183637123384"><ele>93.66666666666666</ele><time>2026-05-01T07:13:33Z</time></trkpt><trkpt lat="39.48451572213357" lon="9.475972126543779"><ele>89.33333333333333</ele><time>2026-05-01T07:13:34Z</time></trkpt><trkpt lat="39.484647930776354" lon="9.475762756036627"><ele>85.0</ele><time>2026-05-01T07:13:35Z</time></trkpt><trkpt lat="39.48478058618385" lon="9.475554316416881"><ele>92.33333333333333</ele><time>2026-05-01T07:13:36Z</time></trkpt><trkpt lat="39.484914793255534" lon="9.475347085550569"><ele>99.66666666666666</ele><time>2026-05-01T07:13:37Z</time></trkpt><trkpt lat="39.48505008862428" lon="9.475138619899562"><ele>107.0</ele><time>2026-05-01T07:13:38Z</time></trkpt><trkpt lat="39.48518368633465" lon="9.47493067049167"><ele>107.0</ele><time>2026-05-01T07:13:39Z</time></trkpt><trkpt lat="39.48531567837396" lon="9.474723345134782"><ele>107.0</ele><time>2026-05-01T07:13:40Z</time></trkpt><trkpt lat="39.485440523189" lon="9.474514936817396"><ele>107.0</ele><time>2026-05-01T07:13:41Z</time></trkpt><trkpt lat="39.485546359102045" lon="9.474297858980755"><ele>107.33333333333333</ele><time>2026-05-01T07:13:42Z</time></trkpt><trkpt lat="39.48561688319523" lon="9.47406207570878"><ele>107.66666666666666</ele><time>2026-05-01T07:13:43Z</time></trkpt><trkpt lat="39.48565426988651" lon="9.473806781460858"><ele>108.0</ele><time>2026-05-01T07:13:44Z</time></trkpt><trkpt lat="39.48565999115839" lon="9.473550706384543"><ele>108.0</ele><time>2026-05-01T07:13:45Z</time></trkpt><trkpt lat="39.48563040963292" lon="9.473296724101909"><ele>108.0</ele><time>2026-05-01T07:13:46Z</time></trkpt><trkpt lat="39.485562824648284" lon="9.473058685251042"><ele>108.0</ele><time>2026-05-01T07:13:47Z</time></trkpt><trkpt lat="39.4854771525508" lon="9.472832782406272"><ele>105.33333333333334</ele><time>2026-05-01T07:13:48Z</time></trkpt><trkpt lat="39.48535335413501" lon="9.47264438575414"><ele>102.66666666666667</ele><time>2026-05-01T07:13:49Z</time></trkpt><trkpt lat="39.4852114606488" lon="9.47248827690789"><ele>100.0</ele><time>2026-05-01T07:13:50Z</time></trkpt><trkpt lat="39.485072110335594" lon="9.472361322487089"><ele>100.0</ele><time>2026-05-01T07:13:51Z</time></trkpt><trkpt lat="39.484962877734944" lon="9.472197590454806"><ele>100.0</ele><time>2026-05-01T07:13:52Z</time></trkpt><trkpt lat="39.48488531508308" lon="9.472000214556138"><ele>100.0</ele><time>2026-05-01T07:13:53Z</time></trkpt><trkpt lat="39.48483408070639" lon="9.471796249702182"><ele>96.33333333333334</ele><time>2026-05-01T07:13:54Z</time></trkpt><trkpt lat="39.48482387166447" lon="9.471583074444032"><ele>92.66666666666667</ele><time>2026-05-01T07:13:55Z</time></trkpt><trkpt lat="39.48483812460569" lon="9.471368291985847"><ele>89.0</ele><time>2026-05-01T07:13:56Z</time></trkpt><trkpt lat="39.4848918747858" lon="9.4711556745212"><ele>88.0</ele><time>2026-05-01T07:13:57Z</time></trkpt><trkpt lat="39.484963919730184" lon="9.470955038436626"><ele>87.0</ele><time>2026-05-01T07:13:58Z</time></trkpt><trkpt lat="39.48503951510439" lon="9.47076274228463"><ele>86.0</ele><time>2026-05-01T07:13:59Z</time></trkpt><trkpt lat="39.48511137090675" lon="9.470572844332132"><ele>87.0</ele><time>2026-05-01T07:14:00Z</time></trkpt><trkpt lat="39.48518083295348" lon="9.470381688332564"><ele>88.0</ele><time>2026-05-01T07:14:01Z</time></trkpt><trkpt lat="39.48524547821368" lon="9.470192939299604"><ele>89.0</ele><time>2026-05-01T07:14:02Z</time></trkpt><trkpt lat="39.48530109768231" lon="9.46999051031127"><ele>89.0</ele><time>2026-05-01T07:14:03Z</time></trkpt><trkpt lat="39.48534201858178" lon="9.469775546559626"><ele>89.0</ele><time>2026-05-01T07:14:04Z</time></trkpt><trkpt lat="39.485373795872235" lon="9.469549414458438"><ele>89.0</ele><time>2026-05-01T07:14:05Z</time></trkpt><trkpt lat="39.48540136868429" lon="9.469321518906545"><ele>90.66666666666667</ele><time>2026-05-01T07:14:06Z</time></trkpt><trkpt lat="39.48541952938169" lon="9.469095846109727"><ele>92.33333333333333</ele><time>2026-05-01T07:14:07Z</time></trkpt><trkpt lat="39.485430111018594" lon="9.468874132406405"><ele>94.0</ele><time>2026-05-01T07:14:08Z</time></trkpt><trkpt lat="39.48543659463488" lon="9.468656896181566"><ele>85.0</ele><time>2026-05-01T07:14:09Z</time></trkpt><trkpt lat="39.485440291392926" lon="9.468440906459486"><ele>76.0</ele><time>2026-05-01T07:14:10Z</time></trkpt><trkpt lat="39.48544450161315" lon="9.46822141010389"><ele>67.0</ele><time>2026-05-01T07:14:11Z</time></trkpt><trkpt lat="39.48545004031916" lon="9.467997633078815"><ele>67.0</ele><time>2026-05-01T07:14:12Z</time></trkpt><trkpt lat="39.48545544594669" lon="9.467772887121074"><ele>67.0</ele><time>2026-05-01T07:14:13Z</time></trkpt><trkpt lat="39.48545533311551" lon="9.467545857481435"><ele>67.0</ele><time>2026-05-01T07:14:14Z</time></trkpt><trkpt lat="39.48544513174707" lon="9.467311177850936"><ele>70.66666666666666</ele><time>2026-05-01T07:14:15Z</time></trkpt><trkpt lat="39.48541596480335" lon="9.467057667861942"><ele>74.33333333333333</ele><time>2026-05-01T07:14:16Z</time></trkpt><trkpt lat="39.485390550830786" lon="9.466793825774014"><ele>78.0</ele><time>2026-05-01T07:14:17Z</time></trkpt><trkpt lat="39.48534829012498" lon="9.466519785069723"><ele>70.5</ele><time>2026-05-01T07:14:18Z</time></trkpt><trkpt lat="39.4852995624435" lon="9.466231698635003"><ele>63.0</ele><time>2026-05-01T07:14:19Z</time></trkpt><trkpt lat="39.48524847016065" lon="9.465936318816782"><ele>63.0</ele><time>2026-05-01T07:14:20Z</time></trkpt><trkpt lat="39.48519525865798" lon="9.465636365133845"><ele>63.0</ele><time>2026-05-01T07:14:21Z</time></trkpt><trkpt lat="39.485143823563185" lon="9.46533976841644"><ele>59.0</ele><time>2026-05-01T07:14:22Z</time></trkpt><trkpt lat="39.48509288274285" lon="9.465048125028833"><ele>55.0</ele><time>2026-05-01T07:14:23Z</time></trkpt><trkpt lat="39.485029531521924" lon="9.464767276713994"><ele>53.33333333333333</ele><time>2026-05-01T07:14:24Z</time></trkpt><trkpt lat="39.484989269160934" lon="9.464488895816114"><ele>51.66666666666667</ele><time>2026-05-01T07:14:25Z</time></trkpt><trkpt lat="39.4849441713793" lon="9.464217408663846"><ele>50.0</ele><time>2026-05-01T07:14:26Z</time></trkpt><trkpt lat="39.484897562723816" lon="9.4639493144563"><ele>48.333333333333336</ele><time>2026-05-01T07:14:27Z</time></trkpt><trkpt lat="39.48486233201043" lon="9.463681250002908"><ele>46.66666666666667</ele><time>2026-05-01T07:14:28Z</time></trkpt><trkpt lat="39.48484945511249" lon="9.463414583694023"><ele>45.0</ele><time>2026-05-01T07:14:29Z</time></trkpt><trkpt lat="39.4848508546247" lon="9.463141869202321"><ele>44.333333333333336</ele><time>2026-05-01T07:14:30Z</time></trkpt><trkpt lat="39.484859759230254" lon="9.462867018315189"><ele>43.66666666666667</ele><time>2026-05-01T07:14:31Z</time></trkpt><trkpt lat="39.48487501212017" lon="9.462593699721332"><ele>43.0</ele><time>2026-05-01T07:14:32Z</time></trkpt><trkpt lat="39.48489189725364" lon="9.462321437677623"><ele>44.333333333333336</ele><time>2026-05-01T07:14:33Z</time></trkpt><trkpt lat="39.48490661822954" lon="9.462051404030136"><ele>45.666666666666664</ele><time>2026-05-01T07:14:34Z</time></trkpt><trkpt lat="39.48491754485585" lon="9.461790205810988"><ele>47.0</ele><time>2026-05-01T07:14:35Z</time></trkpt><trkpt lat="39.48493023711405" lon="9.46153544948923"><ele>46.33333333333333</ele><time>2026-05-01T07:14:36Z</time></trkpt><trkpt lat="39.48494546164056" lon="9.461280624923864"><ele>45.666666666666664</ele><time>2026-05-01T07:14:37Z</time></trkpt><trkpt lat="39.484957151056626" lon="9.461024083864926"><ele>45.0</ele><time>2026-05-01T07:14:38Z</time></trkpt><trkpt lat="39.48497273019055" lon="9.460768434392666"><ele>45.0</ele><time>2026-05-01T07:14:39Z</time></trkpt><trkpt lat="39.485003677233315" lon="9.46051316677065"><ele>45.0</ele><time>2026-05-01T07:14:40Z</time></trkpt><trkpt lat="39.48505533365233" lon="9.460261064681173"><ele>45.0</ele><time>2026-05-01T07:14:41Z</time></trkpt><trkpt lat="39.485121188443635" lon="9.460013591601813"><ele>46.33333333333333</ele><time>2026-05-01T07:14:42Z</time></trkpt><trkpt lat="39.48519728689988" lon="9.459767125509627"><ele>47.666666666666664</ele><time>2026-05-01T07:14:43Z</time></trkpt><trkpt lat="39.48528045883514" lon="9.459524905830225"><ele>49.0</ele><time>2026-05-01T07:14:44Z</time></trkpt><trkpt lat="39.48536742246401" lon="9.459286288962367"><ele>49.33333333333333</ele><time>2026-05-01T07:14:45Z</time></trkpt><trkpt lat="39.48545435277703" lon="9.45904213466534"><ele>49.66666666666667</ele><time>2026-05-01T07:14:46Z</time></trkpt><trkpt lat="39.485539409784884" lon="9.458797735212183"><ele>50.0</ele><time>2026-05-01T07:14:47Z</time></trkpt><trkpt lat="39.48562447832571" lon="9.458554593239485"><ele>50.0</ele><time>2026-05-01T07:14:48Z</time></trkpt><trkpt lat="39.4857090289309" lon="9.458309231759742"><ele>50.0</ele><time>2026-05-01T07:14:49Z</time></trkpt><trkpt lat="39.485793637179576" lon="9.458063618228802"><ele>50.0</ele><time>2026-05-01T07:14:50Z</time></trkpt><trkpt lat="39.485872452185085" lon="9.457818058556995"><ele>49.0</ele><time>2026-05-01T07:14:51Z</time></trkpt><trkpt lat="39.48593355629575" lon="9.457564163442527"><ele>48.0</ele><time>2026-05-01T07:14:52Z</time></trkpt><trkpt lat="39.4859695845942" lon="9.457302218933332"><ele>47.0</ele><time>2026-05-01T07:14:53Z</time></trkpt><trkpt lat="39.485985852714386" lon="9.457035059244221"><ele>47.0</ele><time>2026-05-01T07:14:54Z</time></trkpt><trkpt lat="39.48598584906484" lon="9.456766163735315"><ele>47.0</ele><time>2026-05-01T07:14:55Z</time></trkpt><trkpt lat="39.48597877305496" lon="9.456496593158029"><ele>47.0</ele><time>2026-05-01T07:14:56Z</time></trkpt><trkpt lat="39.485972470273516" lon="9.456224675558097"><ele>45.33333333333333</ele><time>2026-05-01T07:14:57Z</time></trkpt><trkpt lat="39.48596844961805" lon="9.455957371412774"><ele>43.666666666666664</ele><time>2026-05-01T07:14:58Z</time></trkpt><trkpt lat="39.4859667094174" lon="9.45568809203342"><ele>42.0</ele><time>2026-05-01T07:14:59Z</time></trkpt><trkpt lat="39.48596608845143" lon="9.455419145578617"><ele>42.0</ele><time>2026-05-01T07:15:00Z</time></trkpt><trkpt lat="39.485963682306675" lon="9.455151057069603"><ele>42.0</ele><time>2026-05-01T07:15:01Z</time></trkpt><trkpt lat="39.4859582432566" lon="9.454881620833286"><ele>42.0</ele><time>2026-05-01T07:15:02Z</time></trkpt><trkpt lat="39.485953576858776" lon="9.454608221616544"><ele>41.666666666666664</ele><time>2026-05-01T07:15:03Z</time></trkpt><trkpt lat="39.48596132558275" lon="9.454338940646677"><ele>41.33333333333333</ele><time>2026-05-01T07:15:04Z</time></trkpt><trkpt lat="39.48599761092264" lon="9.454071649820838"><ele>41.0</ele><time>2026-05-01T07:15:05Z</time></trkpt><trkpt lat="39.48606684183918" lon="9.453816362779506"><ele>41.0</ele><time>2026-05-01T07:15:06Z</time></trkpt><trkpt lat="39.48616521632126" lon="9.453584979412804"><ele>41.0</ele><time>2026-05-01T07:15:07Z</time></trkpt><trkpt lat="39.486287089561024" lon="9.453381264716025"><ele>41.0</ele><time>2026-05-01T07:15:08Z</time></trkpt><trkpt lat="39.48643248098148" lon="9.453199241701425"><ele>41.0</ele><time>2026-05-01T07:15:09Z</time></trkpt><trkpt lat="39.4865999520751" lon="9.45304585513683"><ele>41.0</ele><time>2026-05-01T07:15:10Z</time></trkpt><trkpt lat="39.48678100868802" lon="9.452919167369185"><ele>41.0</ele><time>2026-05-01T07:15:11Z</time></trkpt><trkpt lat="39.48697388011231" lon="9.452826168157655"><ele>44.0</ele><time>2026-05-01T07:15:12Z</time></trkpt><trkpt lat="39.487176714517396" lon="9.452779945793505"><ele>47.0</ele><time>2026-05-01T07:15:13Z</time></trkpt><trkpt lat="39.487382232385016" lon="9.452777528798316"><ele>50.0</ele><time>2026-05-01T07:15:14Z</time></trkpt><trkpt lat="39.48758753070334" lon="9.452808214733697"><ele>50.0</ele><time>2026-05-01T07:15:15Z</time></trkpt><trkpt lat="39.48778933656233" lon="9.452836496706434"><ele>50.0</ele><time>2026-05-01T07:15:16Z</time></trkpt><trkpt lat="39.48799682395782" lon="9.452862043605428"><ele>50.0</ele><time>2026-05-01T07:15:17Z</time></trkpt><trkpt lat="39.48820410763349" lon="9.45288426481824"><ele>50.333333333333336</ele><time>2026-05-01T07:15:18Z</time></trkpt><trkpt lat="39.488411633774945" lon="9.452906559165458"><ele>50.66666666666667</ele><time>2026-05-01T07:15:19Z</time></trkpt><trkpt lat="39.488616191624985" lon="9.452929809502173"><ele>51.0</ele><time>2026-05-01T07:15:20Z</time></trkpt><trkpt lat="39.4888217757854" lon="9.45294805400905"><ele>51.0</ele><time>2026-05-01T07:15:21Z</time></trkpt><trkpt lat="39.489026189464674" lon="9.452951714357788"><ele>51.0</ele><time>2026-05-01T07:15:22Z</time></trkpt><trkpt lat="39.489230138724714" lon="9.452932078470141"><ele>51.0</ele><time>2026-05-01T07:15:23Z</time></trkpt><trkpt lat="39.489435395621406" lon="9.45289186401251"><ele>50.66666666666667</ele><time>2026-05-01T07:15:24Z</time></trkpt><trkpt lat="39.489638511036325" lon="9.452834275329254"><ele>50.333333333333336</ele><time>2026-05-01T07:15:25Z</time></trkpt><trkpt lat="39.48984007601124" lon="9.452762803087424"><ele>50.0</ele><time>2026-05-01T07:15:26Z</time></trkpt><trkpt lat="39.49004363473904" lon="9.45268579177897"><ele>50.0</ele><time>2026-05-01T07:15:27Z</time></trkpt><trkpt lat="39.49024732420135" lon="9.452608483166454"><ele>50.0</ele><time>2026-05-01T07:15:28Z</time></trkpt><trkpt lat="39.49045009480939" lon="9.452533914228825"><ele>50.0</ele><time>2026-05-01T07:15:29Z</time></trkpt><trkpt lat="39.490652566613655" lon="9.452459988184257"><ele>48.0</ele><time>2026-05-01T07:15:30Z</time></trkpt><trkpt lat="39.490855679203314" lon="9.45238697313884"><ele>46.0</ele><time>2026-05-01T07:15:31Z</time></trkpt><trkpt lat="39.49105805785831" lon="9.452317301921756"><ele>44.0</ele><time>2026-05-01T07:15:32Z</time></trkpt><trkpt lat="39.491260777476086" lon="9.452256730908264"><ele>43.0</ele><time>2026-05-01T07:15:33Z</time></trkpt><trkpt lat="39.49146526736306" lon="9.45221145244843"><ele>42.0</ele><time>2026-05-01T07:15:34Z</time></trkpt><trkpt lat="39.49167066691509" lon="9.45218304929567"><ele>41.0</ele><time>2026-05-01T07:15:35Z</time></trkpt><trkpt lat="39.49187683358615" lon="9.452163198568998"><ele>41.0</ele><time>2026-05-01T07:15:36Z</time></trkpt><trkpt lat="39.49208503843121" lon="9.45214071843063"><ele>41.0</ele><time>2026-05-01T07:15:37Z</time></trkpt><trkpt lat="39.492294699054256" lon="9.452113931164925"><ele>41.0</ele><time>2026-05-01T07:15:38Z</time></trkpt><trkpt lat="39.492503231375984" lon="9.45208719396186"><ele>44.666666666666664</ele><time>2026-05-01T07:15:39Z</time></trkpt><trkpt lat="39.49271349378362" lon="9.4520601091694"><ele>48.33333333333333</ele><time>2026-05-01T07:15:40Z</time></trkpt><trkpt lat="39.49292405080555" lon="9.452027555550448"><ele>52.0</ele><time>2026-05-01T07:15:41Z</time></trkpt><trkpt lat="39.49313558115014" lon="9.451987493590137"><ele>52.0</ele><time>2026-05-01T07:15:42Z</time></trkpt><trkpt lat="39.493345535169304" lon="9.451937395650422"><ele>52.0</ele><time>2026-05-01T07:15:43Z</time></trkpt><trkpt lat="39.493555652845494" lon="9.451873432649592"><ele>52.0</ele><time>2026-05-01T07:15:44Z</time></trkpt><trkpt lat="39.493763548312685" lon="9.451801026465247"><ele>48.666666666666664</ele><time>2026-05-01T07:15:45Z</time></trkpt><trkpt lat="39.493970659974394" lon="9.45172849686523"><ele>45.33333333333333</ele><time>2026-05-01T07:15:46Z</time></trkpt><trkpt lat="39.49418122706834" lon="9.451659824603023"><ele>42.0</ele><time>2026-05-01T07:15:47Z</time></trkpt><trkpt lat="39.49439244159321" lon="9.451615184535934"><ele>44.0</ele><time>2026-05-01T07:15:48Z</time></trkpt><trkpt lat="39.49460492903682" lon="9.451587089878686"><ele>46.0</ele><time>2026-05-01T07:15:49Z</time></trkpt><trkpt lat="39.49481410149174" lon="9.451584518524363"><ele>48.0</ele><time>2026-05-01T07:15:50Z</time></trkpt><trkpt lat="39.49502454867775" lon="9.451587844254302"><ele>48.0</ele><time>2026-05-01T07:15:51Z</time></trkpt><trkpt lat="39.495231584669" lon="9.45159983753598"><ele>48.0</ele><time>2026-05-01T07:15:52Z</time></trkpt><trkpt lat="39.49543698541782" lon="9.451622031593079"><ele>48.0</ele><time>2026-05-01T07:15:53Z</time></trkpt><trkpt lat="39.49563883053978" lon="9.45165508298151"><ele>48.33333333333333</ele><time>2026-05-01T07:15:54Z</time></trkpt><trkpt lat="39.495838232537324" lon="9.451704992326201"><ele>48.666666666666664</ele><time>2026-05-01T07:15:55Z</time></trkpt><trkpt lat="39.496035236502486" lon="9.451767331781916"><ele>49.0</ele><time>2026-05-01T07:15:56Z</time></trkpt><trkpt lat="39.49622949692235" lon="9.451836418199344"><ele>52.0</ele><time>2026-05-01T07:15:57Z</time></trkpt><trkpt lat="39.49642433296214" lon="9.451900975213164"><ele>55.0</ele><time>2026-05-01T07:15:58Z</time></trkpt><trkpt lat="39.49662007513088" lon="9.451959335489708"><ele>58.0</ele><time>2026-05-01T07:15:59Z</time></trkpt><trkpt lat="39.496815454973" lon="9.45201091748563"><ele>58.0</ele><time>2026-05-01T07:16:00Z</time></trkpt><trkpt lat="39.497012540929624" lon="9.452059310585186"><ele>58.0</ele><time>2026-05-01T07:16:01Z</time></trkpt><trkpt lat="39.49721110222012" lon="9.452099976057735"><ele>58.0</ele><time>2026-05-01T07:16:02Z</time></trkpt><trkpt lat="39.497410095072894" lon="9.452130054228977"><ele>56.0</ele><time>2026-05-01T07:16:03Z</time></trkpt><trkpt lat="39.49761122572856" lon="9.452152210670219"><ele>54.0</ele><time>2026-05-01T07:16:04Z</time></trkpt><trkpt lat="39.49781320412396" lon="9.452167604567864"><ele>52.0</ele><time>2026-05-01T07:16:05Z</time></trkpt><trkpt lat="39.4980160434062" lon="9.452177660282935"><ele>52.0</ele><time>2026-05-01T07:16:06Z</time></trkpt><trkpt lat="39.49821986134625" lon="9.452183062171251"><ele>52.0</ele><time>2026-05-01T07:16:07Z</time></trkpt><trkpt lat="39.4984239662713" lon="9.452180061294603"><ele>52.0</ele><time>2026-05-01T07:16:08Z</time></trkpt><trkpt lat="39.498627931814426" lon="9.45217351990315"><ele>53.666666666666664</ele><time>2026-05-01T07:16:09Z</time></trkpt><trkpt lat="39.498830029998864" lon="9.452166084891186"><ele>55.33333333333333</ele><time>2026-05-01T07:16:10Z</time></trkpt><trkpt lat="39.49903108537548" lon="9.45214814619242"><ele>57.0</ele><time>2026-05-01T07:16:11Z</time></trkpt><trkpt lat="39.49922846177926" lon="9.45210635121201"><ele>60.66666666666667</ele><time>2026-05-01T07:16:12Z</time></trkpt><trkpt lat="39.499427530798734" lon="9.452049938089779"><ele>64.33333333333334</ele><time>2026-05-01T07:16:13Z</time></trkpt><trkpt lat="39.4996180656898" lon="9.451966318445322"><ele>68.0</ele><time>2026-05-01T07:16:14Z</time></trkpt><trkpt lat="39.49980916801306" lon="9.451874721496825"><ele>68.0</ele><time>2026-05-01T07:16:15Z</time></trkpt><trkpt lat="39.49999631431724" lon="9.451770113446635"><ele>68.0</ele><time>2026-05-01T07:16:16Z</time></trkpt><trkpt lat="39.50017761555189" lon="9.45164947929799"><ele>68.0</ele><time>2026-05-01T07:16:17Z</time></trkpt><trkpt lat="39.50034881587761" lon="9.451508083203645"><ele>70.0</ele><time>2026-05-01T07:16:18Z</time></trkpt><trkpt lat="39.50051437555581" lon="9.451354162093411"><ele>72.0</ele><time>2026-05-01T07:16:19Z</time></trkpt><trkpt lat="39.50067548770948" lon="9.451192251453358"><ele>74.0</ele><time>2026-05-01T07:16:20Z</time></trkpt><trkpt lat="39.50083017851672" lon="9.451019769027075"><ele>74.0</ele><time>2026-05-01T07:16:21Z</time></trkpt><trkpt lat="39.50097355020072" lon="9.450832495679665"><ele>74.0</ele><time>2026-05-01T07:16:22Z</time></trkpt><trkpt lat="39.5011034038565" lon="9.450629868992522"><ele>74.0</ele><time>2026-05-01T07:16:23Z</time></trkpt><trkpt lat="39.501220185624796" lon="9.450413892577544"><ele>70.33333333333334</ele><time>2026-05-01T07:16:24Z</time></trkpt><trkpt lat="39.50133132871911" lon="9.450189606296664"><ele>66.66666666666667</ele><time>2026-05-01T07:16:25Z</time></trkpt><trkpt lat="39.501435299799816" lon="9.449957664319404"><ele>63.0</ele><time>2026-05-01T07:16:26Z</time></trkpt><trkpt lat="39.50152717174725" lon="9.449719388638634"><ele>66.33333333333333</ele><time>2026-05-01T07:16:27Z</time></trkpt><trkpt lat="39.50160218036377" lon="9.449469064051442"><ele>69.66666666666666</ele><time>2026-05-01T07:16:28Z</time></trkpt><trkpt lat="39.50166370725972" lon="9.44921285015759"><ele>73.0</ele><time>2026-05-01T07:16:29Z</time></trkpt><trkpt lat="39.50171126071753" lon="9.448951145309229"><ele>77.33333333333333</ele><time>2026-05-01T07:16:30Z</time></trkpt><trkpt lat="39.50174528479234" lon="9.448685254627177"><ele>81.66666666666667</ele><time>2026-05-01T07:16:31Z</time></trkpt><trkpt lat="39.50177617568069" lon="9.44841639230019"><ele>86.0</ele><time>2026-05-01T07:16:32Z</time></trkpt><trkpt lat="39.501806625559176" lon="9.448146562295957"><ele>87.0</ele><time>2026-05-01T07:16:33Z</time></trkpt><trkpt lat="39.50183924467312" lon="9.447878182870573"><ele>88.0</ele><time>2026-05-01T07:16:34Z</time></trkpt><trkpt lat="39.50187258526154" lon="9.447610569627665"><ele>89.0</ele><time>2026-05-01T07:16:35Z</time></trkpt><trkpt lat="39.50190609792145" lon="9.44734284006754"><ele>91.0</ele><time>2026-05-01T07:16:36Z</time></trkpt><trkpt lat="39.50193848930589" lon="9.447073553674727"><ele>93.0</ele><time>2026-05-01T07:16:37Z</time></trkpt><trkpt lat="39.501970473612765" lon="9.446805492461467"><ele>95.0</ele><time>2026-05-01T07:16:38Z</time></trkpt><trkpt lat="39.50200090808647" lon="9.446535982319517"><ele>95.66666666666667</ele><time>2026-05-01T07:16:39Z</time></trkpt><trkpt lat="39.50202967522596" lon="9.446266147408991"><ele>96.33333333333334</ele><time>2026-05-01T07:16:40Z</time></trkpt><trkpt lat="39.5020588900155" lon="9.445993011831122"><ele>97.0</ele><time>2026-05-01T07:16:41Z</time></trkpt><trkpt lat="39.502089051922084" lon="9.44572055602607"><ele>89.66666666666667</ele><time>2026-05-01T07:16:42Z</time></trkpt><trkpt lat="39.50211965401022" lon="9.445445727118596"><ele>82.33333333333334</ele><time>2026-05-01T07:16:43Z</time></trkpt><trkpt lat="39.50215107995132" lon="9.44516675214186"><ele>75.0</ele><time>2026-05-01T07:16:44Z</time></trkpt><trkpt lat="39.50218357670392" lon="9.444881265397202"><ele>77.33333333333333</ele><time>2026-05-01T07:16:45Z</time></trkpt><trkpt lat="39.50221622469403" lon="9.444594697533212"><ele>79.66666666666666</ele><time>2026-05-01T07:16:46Z</time></trkpt><trkpt lat="39.502248980527725" lon="9.444309749424097"><ele>82.0</ele><time>2026-05-01T07:16:47Z</time></trkpt><trkpt lat="39.50227683151185" lon="9.444060744539685"><ele>82.66666666666666</ele><time>2026-05-01T07:16:48Z</time></trkpt><trkpt lat="39.50230834082897" lon="9.443787103105382"><ele>83.33333333333333</ele><time>2026-05-01T07:16:49Z</time></trkpt><trkpt lat="39.50234061363002" lon="9.443515041971859"><ele>84.0</ele><time>2026-05-01T07:16:50Z</time></trkpt><trkpt lat="39.502371607931515" lon="9.443243207008981"><ele>84.0</ele><time>2026-05-01T07:16:51Z</time></trkpt><trkpt lat="39.50240115634833" lon="9.442970005030045"><ele>84.0</ele><time>2026-05-01T07:16:52Z</time></trkpt><trkpt lat="39.502430798915285" lon="9.442696189989988"><ele>84.0</ele><time>2026-05-01T07:16:53Z</time></trkpt><trkpt lat="39.50246226613336" lon="9.442424537619422"><ele>84.66666666666667</ele><time>2026-05-01T07:16:54Z</time></trkpt><trkpt lat="39.502494778239296" lon="9.442152999349924"><ele>85.33333333333334</ele><time>2026-05-01T07:16:55Z</time></trkpt><trkpt lat="39.50252693894348" lon="9.441882237793882"><ele>86.0</ele><time>2026-05-01T07:16:56Z</time></trkpt><trkpt lat="39.50255781889796" lon="9.441611811667967"><ele>88.33333333333334</ele><time>2026-05-01T07:16:57Z</time></trkpt><trkpt lat="39.50258610476758" lon="9.44134342813509"><ele>90.66666666666667</ele><time>2026-05-01T07:16:58Z</time></trkpt><trkpt lat="39.50261728552652" lon="9.441073322782856"><ele>93.0</ele><time>2026-05-01T07:16:59Z</time></trkpt><trkpt lat="39.50265009342308" lon="9.440801825467641"><ele>93.33333333333333</ele><time>2026-05-01T07:17:00Z</time></trkpt><trkpt lat="39.50269089206327" lon="9.440531004718563"><ele>93.66666666666666</ele><time>2026-05-01T07:17:01Z</time></trkpt><trkpt lat="39.50273467447057" lon="9.440262361832904"><ele>94.0</ele><time>2026-05-01T07:17:02Z</time></trkpt><trkpt lat="39.50278124920712" lon="9.43998894665893"><ele>94.0</ele><time>2026-05-01T07:17:03Z</time></trkpt><trkpt lat="39.50282861437543" lon="9.439719865305369"><ele>94.0</ele><time>2026-05-01T07:17:04Z</time></trkpt><trkpt lat="39.50287957381969" lon="9.439455441928773"><ele>94.0</ele><time>2026-05-01T07:17:05Z</time></trkpt><trkpt lat="39.502933849480485" lon="9.439199852106166"><ele>96.66666666666666</ele><time>2026-05-01T07:17:06Z</time></trkpt><trkpt lat="39.50299025816237" lon="9.438956747634448"><ele>99.33333333333333</ele><time>2026-05-01T07:17:07Z</time></trkpt><trkpt lat="39.50304908969026" lon="9.438724287266215"><ele>102.0</ele><time>2026-05-01T07:17:08Z</time></trkpt><trkpt lat="39.5031168807285" lon="9.43849805690214"><ele>102.0</ele><time>2026-05-01T07:17:09Z</time></trkpt><trkpt lat="39.50317882241582" lon="9.438276373076917"><ele>102.0</ele><time>2026-05-01T07:17:10Z</time></trkpt><trkpt lat="39.5032382994764" lon="9.438067861131106"><ele>102.0</ele><time>2026-05-01T07:17:11Z</time></trkpt><trkpt lat="39.50328898624536" lon="9.437871064259786"><ele>104.25</ele><time>2026-05-01T07:17:12Z</time></trkpt><trkpt lat="39.503322816380674" lon="9.437682479227194"><ele>106.5</ele><time>2026-05-01T07:17:13Z</time></trkpt><trkpt lat="39.50333681606605" lon="9.437504119804997"><ele>108.75</ele><time>2026-05-01T07:17:14Z</time></trkpt><trkpt lat="39.50331232212686" lon="9.437342994914173"><ele>111.0</ele><time>2026-05-01T07:17:15Z</time></trkpt><trkpt lat="39.50329710218793" lon="9.437153426364056"><ele>102.0</ele><time>2026-05-01T07:17:16Z</time></trkpt><trkpt lat="39.50321650779918" lon="9.436620039142941"><ele>93.0</ele><time>2026-05-01T07:17:17Z</time></trkpt><trkpt lat="39.5031463702224" lon="9.436369564183103"><ele>85.0</ele><time>2026-05-01T07:17:18Z</time></trkpt><trkpt lat="39.50308335790398" lon="9.4361121095449"><ele>77.0</ele><time>2026-05-01T07:17:19Z</time></trkpt><trkpt lat="39.50307980415665" lon="9.435409400573626"><ele>77.0</ele><time>2026-05-01T07:17:20Z</time></trkpt><trkpt lat="39.50305919583437" lon="9.435129535997579"><ele>77.0</ele><time>2026-05-01T07:17:21Z</time></trkpt><trkpt lat="39.503069950763496" lon="9.434839737619797"><ele>77.0</ele><time>2026-05-01T07:17:22Z</time></trkpt><trkpt lat="39.50310033145208" lon="9.434551317564276"><ele>77.0</ele><time>2026-05-01T07:17:23Z</time></trkpt><trkpt lat="39.50315546412879" lon="9.434264483413846"><ele>77.0</ele><time>2026-05-01T07:17:24Z</time></trkpt><trkpt lat="39.50323766114763" lon="9.433992221938587"><ele>80.33333333333334</ele><time>2026-05-01T07:17:25Z</time></trkpt><trkpt lat="39.503331333510275" lon="9.433725697904023"><ele>83.66666666666667</ele><time>2026-05-01T07:17:26Z</time></trkpt><trkpt lat="39.5034203922643" lon="9.433460439385266"><ele>87.0</ele><time>2026-05-01T07:17:27Z</time></trkpt><trkpt lat="39.503503941451335" lon="9.433194211087473"><ele>89.66666666666667</ele><time>2026-05-01T07:17:28Z</time></trkpt><trkpt lat="39.50358123652812" lon="9.432925909971992"><ele>92.33333333333334</ele><time>2026-05-01T07:17:29Z</time></trkpt><trkpt lat="39.5036475918924" lon="9.432652622314865"><ele>95.0</ele><time>2026-05-01T07:17:30Z</time></trkpt><trkpt lat="39.503699440824796" lon="9.432378568757992"><ele>93.33333333333334</ele><time>2026-05-01T07:17:31Z</time></trkpt><trkpt lat="39.50372410405948" lon="9.432098808169833"><ele>91.66666666666667</ele><time>2026-05-01T07:17:32Z</time></trkpt><trkpt lat="39.50371840266432" lon="9.431809308152076"><ele>90.0</ele><time>2026-05-01T07:17:33Z</time></trkpt><trkpt lat="39.503689988215065" lon="9.431519672001341"><ele>84.0</ele><time>2026-05-01T07:17:34Z</time></trkpt><trkpt lat="39.50365674919982" lon="9.431227684184158"><ele>78.0</ele><time>2026-05-01T07:17:35Z</time></trkpt><trkpt lat="39.50363049115756" lon="9.43093660735401"><ele>78.0</ele><time>2026-05-01T07:17:36Z</time></trkpt><trkpt lat="39.50360713823254" lon="9.430650310098313"><ele>78.0</ele><time>2026-05-01T07:17:37Z</time></trkpt><trkpt lat="39.50358557425171" lon="9.430362091268796"><ele>78.0</ele><time>2026-05-01T07:17:38Z</time></trkpt><trkpt lat="39.50356140930109" lon="9.430075586554906"><ele>78.66666666666667</ele><time>2026-05-01T07:17:39Z</time></trkpt><trkpt lat="39.503535427701316" lon="9.429789968957511"><ele>79.33333333333334</ele><time>2026-05-01T07:17:40Z</time></trkpt><trkpt lat="39.503511647853536" lon="9.429500334036115"><ele>80.0</ele><time>2026-05-01T07:17:41Z</time></trkpt><trkpt lat="39.503484085841606" lon="9.429209012423875"><ele>80.0</ele><time>2026-05-01T07:17:42Z</time></trkpt><trkpt lat="39.50346142273901" lon="9.428921276759104"><ele>80.0</ele><time>2026-05-01T07:17:43Z</time></trkpt><trkpt lat="39.5034440350116" lon="9.42863325270193"><ele>80.0</ele><time>2026-05-01T07:17:44Z</time></trkpt><trkpt lat="39.50343776449389" lon="9.428347058548514"><ele>82.33333333333334</ele><time>2026-05-01T07:17:45Z</time></trkpt><trkpt lat="39.50345089452267" lon="9.428063694383868"><ele>84.66666666666667</ele><time>2026-05-01T07:17:46Z</time></trkpt><trkpt lat="39.50348421915165" lon="9.427782388034549"><ele>87.0</ele><time>2026-05-01T07:17:47Z</time></trkpt><trkpt lat="39.50353575620352" lon="9.427505611352471"><ele>87.33333333333333</ele><time>2026-05-01T07:17:48Z</time></trkpt><trkpt lat="39.5036014304927" lon="9.427235985198704"><ele>87.66666666666666</ele><time>2026-05-01T07:17:49Z</time></trkpt><trkpt lat="39.50368045382387" lon="9.426970650157198"><ele>88.0</ele><time>2026-05-01T07:17:50Z</time></trkpt><trkpt lat="39.503774625595355" lon="9.426717439782193"><ele>80.66666666666666</ele><time>2026-05-01T07:17:51Z</time></trkpt><trkpt lat="39.503879623934296" lon="9.426466559846903"><ele>73.33333333333333</ele><time>2026-05-01T07:17:52Z</time></trkpt><trkpt lat="39.50399010063163" lon="9.426219917121204"><ele>66.0</ele><time>2026-05-01T07:17:53Z</time></trkpt><trkpt lat="39.504100381963376" lon="9.425969286155706"><ele>65.33333333333333</ele><time>2026-05-01T07:17:54Z</time></trkpt><trkpt lat="39.5042077054775" lon="9.425718497435598"><ele>64.66666666666666</ele><time>2026-05-01T07:17:55Z</time></trkpt><trkpt lat="39.50431386624298" lon="9.425466720850347"><ele>64.0</ele><time>2026-05-01T07:17:56Z</time></trkpt><trkpt lat="39.50442390784915" lon="9.425209812243537"><ele>63.33333333333333</ele><time>2026-05-01T07:17:57Z</time></trkpt><trkpt lat="39.504531680349984" lon="9.424960699969338"><ele>62.66666666666667</ele><time>2026-05-01T07:17:58Z</time></trkpt><trkpt lat="39.50464077566495" lon="9.424711497361784"><ele>62.0</ele><time>2026-05-01T07:17:59Z</time></trkpt><trkpt lat="39.50474945939849" lon="9.424461017751472"><ele>68.0</ele><time>2026-05-01T07:18:00Z</time></trkpt><trkpt lat="39.50485830273965" lon="9.424208332269735"><ele>74.0</ele><time>2026-05-01T07:18:01Z</time></trkpt><trkpt lat="39.50496734347793" lon="9.423955312976506"><ele>80.0</ele><time>2026-05-01T07:18:02Z</time></trkpt><trkpt lat="39.50507509663887" lon="9.423700954796976"><ele>85.33333333333334</ele><time>2026-05-01T07:18:03Z</time></trkpt><trkpt lat="39.50517959523597" lon="9.423449000228503"><ele>90.66666666666667</ele><time>2026-05-01T07:18:04Z</time></trkpt><trkpt lat="39.50528147497438" lon="9.423194851391976"><ele>96.0</ele><time>2026-05-01T07:18:05Z</time></trkpt><trkpt lat="39.50538436814954" lon="9.422943895600303"><ele>87.66666666666667</ele><time>2026-05-01T07:18:06Z</time></trkpt><trkpt lat="39.50548877503015" lon="9.422686857257371"><ele>79.33333333333334</ele><time>2026-05-01T07:18:07Z</time></trkpt><trkpt lat="39.50558695596051" lon="9.422440485569481"><ele>71.0</ele><time>2026-05-01T07:18:08Z</time></trkpt><trkpt lat="39.50567960810659" lon="9.422197742608885"><ele>72.33333333333334</ele><time>2026-05-01T07:18:09Z</time></trkpt><trkpt lat="39.505739864184825" lon="9.421924670068007"><ele>73.66666666666667</ele><time>2026-05-01T07:18:10Z</time></trkpt><trkpt lat="39.505814934646715" lon="9.421657869114505"><ele>75.0</ele><time>2026-05-01T07:18:11Z</time></trkpt><trkpt lat="39.50590837510147" lon="9.42140333066487"><ele>82.0</ele><time>2026-05-01T07:18:12Z</time></trkpt><trkpt lat="39.50599569582878" lon="9.421139569173361"><ele>89.0</ele><time>2026-05-01T07:18:13Z</time></trkpt><trkpt lat="39.506087600101516" lon="9.420884546308804"><ele>96.0</ele><time>2026-05-01T07:18:14Z</time></trkpt><trkpt lat="39.506179328922784" lon="9.420626363211463"><ele>87.66666666666667</ele><time>2026-05-01T07:18:15Z</time></trkpt><trkpt lat="39.506283619830754" lon="9.42037280972647"><ele>79.33333333333334</ele><time>2026-05-01T07:18:16Z</time></trkpt><trkpt lat="39.506387186609665" lon="9.420120884163065"><ele>71.0</ele><time>2026-05-01T07:18:17Z</time></trkpt><trkpt lat="39.50649855191579" lon="9.419875740633945"><ele>76.33333333333334</ele><time>2026-05-01T07:18:18Z</time></trkpt><trkpt lat="39.506615080874916" lon="9.419632114723738"><ele>81.66666666666667</ele><time>2026-05-01T07:18:19Z</time></trkpt><trkpt lat="39.50673732150329" lon="9.419394606800632"><ele>87.0</ele><time>2026-05-01T07:18:20Z</time></trkpt><trkpt lat="39.506864294754294" lon="9.419161340695387"><ele>87.0</ele><time>2026-05-01T07:18:21Z</time></trkpt><trkpt lat="39.506996141415165" lon="9.418931172746339"><ele>87.0</ele><time>2026-05-01T07:18:22Z</time></trkpt><trkpt lat="39.50715139062679" lon="9.418734754575853"><ele>87.0</ele><time>2026-05-01T07:18:23Z</time></trkpt><trkpt lat="39.50732924877223" lon="9.418572423707369"><ele>84.33333333333333</ele><time>2026-05-01T07:18:24Z</time></trkpt><trkpt lat="39.507521247097436" lon="9.418440651637905"><ele>81.66666666666666</ele><time>2026-05-01T07:18:25Z</time></trkpt><trkpt lat="39.50772371013465" lon="9.418335232024479"><ele>79.0</ele><time>2026-05-01T07:18:26Z</time></trkpt><trkpt lat="39.507930821443914" lon="9.418258002144908"><ele>77.33333333333333</ele><time>2026-05-01T07:18:27Z</time></trkpt><trkpt lat="39.508138227807926" lon="9.418190460209384"><ele>75.66666666666667</ele><time>2026-05-01T07:18:28Z</time></trkpt><trkpt lat="39.50834375987172" lon="9.418113794006063"><ele>74.0</ele><time>2026-05-01T07:18:29Z</time></trkpt><trkpt lat="39.50854080792742" lon="9.418013513915563"><ele>86.0</ele><time>2026-05-01T07:18:30Z</time></trkpt><trkpt lat="39.50873340309258" lon="9.417893962521948"><ele>98.0</ele><time>2026-05-01T07:18:31Z</time></trkpt><trkpt lat="39.5089125741413" lon="9.417747973855109"><ele>110.0</ele><time>2026-05-01T07:18:32Z</time></trkpt><trkpt lat="39.50907419287201" lon="9.417592381680468"><ele>110.33333333333333</ele><time>2026-05-01T07:18:33Z</time></trkpt><trkpt lat="39.50921953800044" lon="9.417436218384092"><ele>110.66666666666666</ele><time>2026-05-01T07:18:34Z</time></trkpt><trkpt lat="39.50935299070198" lon="9.417301693323983"><ele>111.0</ele><time>2026-05-01T07:18:35Z</time></trkpt><trkpt lat="39.50949274750882" lon="9.417153262945032"><ele>128.0</ele><time>2026-05-01T07:18:36Z</time></trkpt><trkpt lat="39.50963451701717" lon="9.417003373441249"><ele>145.0</ele><time>2026-05-01T07:18:37Z</time></trkpt><trkpt lat="39.5097651079312" lon="9.41685277648513"><ele>162.0</ele><time>2026-05-01T07:18:38Z</time></trkpt><trkpt lat="39.50989081178803" lon="9.416698192767418"><ele>162.0</ele><time>2026-05-01T07:18:39.026Z</time></trkpt><trkpt lat="39.5100173770115" lon="9.41654658023874"><ele>162.0</ele><time>2026-05-01T07:18:40.026Z</time></trkpt><trkpt lat="39.51015197754003" lon="9.416395209685815"><ele>162.0</ele><time>2026-05-01T07:18:41.028Z</time></trkpt><trkpt lat="39.51063928165786" lon="9.415000625511311"><ele>81.0</ele><time>2026-05-01T07:18:47.9Z</time></trkpt><trkpt lat="39.510664974123394" lon="9.41400217580497"><ele>82.66666666666667</ele><time>2026-05-01T07:18:48.85Z</time></trkpt><trkpt lat="39.51071865565226" lon="9.413766596753103"><ele>84.33333333333334</ele><time>2026-05-01T07:18:49.8Z</time></trkpt><trkpt lat="39.51079042706718" lon="9.413536043367772"><ele>86.0</ele><time>2026-05-01T07:18:50.75Z</time></trkpt><trkpt lat="39.510852807662914" lon="9.413303962034602"><ele>86.0</ele><time>2026-05-01T07:18:51.7Z</time></trkpt><trkpt lat="39.510910670448794" lon="9.413067290510208"><ele>86.0</ele><time>2026-05-01T07:18:52.65Z</time></trkpt><trkpt lat="39.51096371209976" lon="9.412827100276674"><ele>86.0</ele><time>2026-05-01T07:18:53.6Z</time></trkpt><trkpt lat="39.51100959105316" lon="9.41258431422526"><ele>88.0</ele><time>2026-05-01T07:18:54.55Z</time></trkpt><trkpt lat="39.51105213773086" lon="9.412338344804185"><ele>90.0</ele><time>2026-05-01T07:18:55.5Z</time></trkpt><trkpt lat="39.511094794468" lon="9.412090583596832"><ele>92.0</ele><time>2026-05-01T07:18:56.45Z</time></trkpt><trkpt lat="39.511135779677446" lon="9.411841174244849"><ele>92.66666666666667</ele><time>2026-05-01T07:18:57.4Z</time></trkpt><trkpt lat="39.51117718122067" lon="9.411591207761967"><ele>93.33333333333333</ele><time>2026-05-01T07:18:58.35Z</time></trkpt><trkpt lat="39.511221324622596" lon="9.411343735396661"><ele>94.0</ele><time>2026-05-01T07:18:59.3Z</time></trkpt><trkpt lat="39.51126716898764" lon="9.41109500072126"><ele>90.66666666666666</ele><time>2026-05-01T07:19:00.25Z</time></trkpt><trkpt lat="39.51131866111848" lon="9.410851044099736"><ele>87.33333333333333</ele><time>2026-05-01T07:19:01.2Z</time></trkpt><trkpt lat="39.51138437411915" lon="9.410614055211063"><ele>84.0</ele><time>2026-05-01T07:19:02.15Z</time></trkpt><trkpt lat="39.51146615755407" lon="9.410386646541838"><ele>84.0</ele><time>2026-05-01T07:19:03.1Z</time></trkpt><trkpt lat="39.511579134980124" lon="9.410180197940127"><ele>84.0</ele><time>2026-05-01T07:19:04.05Z</time></trkpt><trkpt lat="39.51169953179131" lon="9.409983141158897"><ele>84.0</ele><time>2026-05-01T07:19:05Z</time></trkpt><trkpt lat="39.51183476419524" lon="9.4097878576431"><ele>86.66666666666667</ele><time>2026-05-01T07:19:06Z</time></trkpt><trkpt lat="39.511998618407844" lon="9.409625156389565"><ele>89.33333333333334</ele><time>2026-05-01T07:19:07Z</time></trkpt><trkpt lat="39.51217599124634" lon="9.409479208587475"><ele>92.0</ele><time>2026-05-01T07:19:08Z</time></trkpt><trkpt lat="39.51236110529198" lon="9.409354650344218"><ele>92.0</ele><time>2026-05-01T07:19:09Z</time></trkpt><trkpt lat="39.51254924614846" lon="9.40924603845829"><ele>92.0</ele><time>2026-05-01T07:19:10Z</time></trkpt><trkpt lat="39.5127406253625" lon="9.409143040757193"><ele>92.0</ele><time>2026-05-01T07:19:11Z</time></trkpt><trkpt lat="39.51293315217078" lon="9.409037743062498"><ele>93.33333333333334</ele><time>2026-05-01T07:19:12Z</time></trkpt><trkpt lat="39.51312289075085" lon="9.408922587933452"><ele>94.66666666666667</ele><time>2026-05-01T07:19:13Z</time></trkpt><trkpt lat="39.513308029854635" lon="9.408790154294634"><ele>96.0</ele><time>2026-05-01T07:19:14Z</time></trkpt><trkpt lat="39.51348633429879" lon="9.408637958762188"><ele>96.0</ele><time>2026-05-01T07:19:15Z</time></trkpt><trkpt lat="39.5136561997726" lon="9.40847273793765"><ele>96.0</ele><time>2026-05-01T07:19:16Z</time></trkpt><trkpt lat="39.51382132105901" lon="9.40829238963593"><ele>96.0</ele><time>2026-05-01T07:19:17Z</time></trkpt><trkpt lat="39.513979395965066" lon="9.408099905915257"><ele>95.66666666666667</ele><time>2026-05-01T07:19:18Z</time></trkpt><trkpt lat="39.51413532090787" lon="9.40790291518307"><ele>95.33333333333334</ele><time>2026-05-01T07:19:19Z</time></trkpt><trkpt lat="39.51429285319233" lon="9.407709919762606"><ele>95.0</ele><time>2026-05-01T07:19:20Z</time></trkpt><trkpt lat="39.51445748246487" lon="9.40752776266315"><ele>95.66666666666667</ele><time>2026-05-01T07:19:21Z</time></trkpt><trkpt lat="39.51462828098744" lon="9.40736079288141"><ele>96.33333333333334</ele><time>2026-05-01T07:19:22Z</time></trkpt><trkpt lat="39.514806856237286" lon="9.407206807594251"><ele>97.0</ele><time>2026-05-01T07:19:23Z</time></trkpt><trkpt lat="39.51499167833161" lon="9.407055161558704"><ele>97.0</ele><time>2026-05-01T07:19:24Z</time></trkpt><trkpt lat="39.51517445890218" lon="9.406912008948991"><ele>97.0</ele><time>2026-05-01T07:19:25Z</time></trkpt><trkpt lat="39.51535960634544" lon="9.406768733192463"><ele>97.0</ele><time>2026-05-01T07:19:26Z</time></trkpt><trkpt lat="39.51554558277917" lon="9.406626189258427"><ele>103.0</ele><time>2026-05-01T07:19:27Z</time></trkpt><trkpt lat="39.51573170486629" lon="9.406486525937074"><ele>109.0</ele><time>2026-05-01T07:19:28Z</time></trkpt><trkpt lat="39.51591775159924" lon="9.40634661718777"><ele>115.0</ele><time>2026-05-01T07:19:29Z</time></trkpt><trkpt lat="39.51610209139369" lon="9.406209874403508"><ele>122.33333333333334</ele><time>2026-05-01T07:19:30Z</time></trkpt><trkpt lat="39.51628830059932" lon="9.40606803549946"><ele>129.66666666666666</ele><time>2026-05-01T07:19:31Z</time></trkpt><trkpt lat="39.51647837216215" lon="9.405923618889835"><ele>137.0</ele><time>2026-05-01T07:19:32.025Z</time></trkpt><trkpt lat="39.516663990309354" lon="9.405780790528935"><ele>137.0</ele><time>2026-05-01T07:19:33.026Z</time></trkpt><trkpt lat="39.516849548047524" lon="9.405639234184662"><ele>137.0</ele><time>2026-05-01T07:19:34.025Z</time></trkpt><trkpt lat="39.517991815364354" lon="9.40480377104441"><ele>118.66666666666666</ele><time>2026-05-01T07:19:39.6Z</time></trkpt><trkpt lat="39.51817615137996" lon="9.40468031491984"><ele>100.33333333333333</ele><time>2026-05-01T07:19:40.55Z</time></trkpt><trkpt lat="39.518370977077176" lon="9.404556482721011"><ele>82.0</ele><time>2026-05-01T07:19:41.5Z</time></trkpt><trkpt lat="39.51856468108195" lon="9.404441704131308"><ele>76.33333333333333</ele><time>2026-05-01T07:19:42.45Z</time></trkpt><trkpt lat="39.51876620380838" lon="9.404338333755224"><ele>70.66666666666667</ele><time>2026-05-01T07:19:43.4Z</time></trkpt><trkpt lat="39.51897040757109" lon="9.404244348277894"><ele>65.0</ele><time>2026-05-01T07:19:44.35Z</time></trkpt><trkpt lat="39.51917595596185" lon="9.404157429078223"><ele>65.0</ele><time>2026-05-01T07:19:45.3Z</time></trkpt><trkpt lat="39.519385371445" lon="9.40407660542715"><ele>65.0</ele><time>2026-05-01T07:19:46.25Z</time></trkpt><trkpt lat="39.51959755764274" lon="9.40400349672616"><ele>65.0</ele><time>2026-05-01T07:19:47.2Z</time></trkpt><trkpt lat="39.519811738831365" lon="9.40393714321098"><ele>65.0</ele><time>2026-05-01T07:19:48.15Z</time></trkpt><trkpt lat="39.52002980936027" lon="9.403877380096223"><ele>65.0</ele><time>2026-05-01T07:19:49.1Z</time></trkpt><trkpt lat="39.52024883024838" lon="9.403825781764837"><ele>65.0</ele><time>2026-05-01T07:19:50.05Z</time></trkpt><trkpt lat="39.52046590783646" lon="9.403786100014498"><ele>69.5</ele><time>2026-05-01T07:19:51Z</time></trkpt><trkpt lat="39.520697230686814" lon="9.403748929388"><ele>74.0</ele><time>2026-05-01T07:19:52Z</time></trkpt><trkpt lat="39.52092628004555" lon="9.403710904792824"><ele>74.0</ele><time>2026-05-01T07:19:53Z</time></trkpt><trkpt lat="39.52115562701445" lon="9.403667574359446"><ele>74.0</ele><time>2026-05-01T07:19:54Z</time></trkpt><trkpt lat="39.521386324137936" lon="9.403620611370359"><ele>77.0</ele><time>2026-05-01T07:19:55Z</time></trkpt><trkpt lat="39.52161287874397" lon="9.40358202413726"><ele>80.0</ele><time>2026-05-01T07:19:56Z</time></trkpt><trkpt lat="39.52183859965317" lon="9.403544602908799"><ele>77.5</ele><time>2026-05-01T07:19:57Z</time></trkpt><trkpt lat="39.52206537373297" lon="9.403503259771956"><ele>75.0</ele><time>2026-05-01T07:19:58Z</time></trkpt><trkpt lat="39.52228846968632" lon="9.403462317186863"><ele>75.0</ele><time>2026-05-01T07:19:59Z</time></trkpt><trkpt lat="39.522512279423005" lon="9.403425153841138"><ele>75.0</ele><time>2026-05-01T07:20:00Z</time></trkpt><trkpt lat="39.52273556461036" lon="9.403387445177263"><ele>73.66666666666667</ele><time>2026-05-01T07:20:01Z</time></trkpt><trkpt lat="39.522957586469836" lon="9.403350856875226"><ele>72.33333333333334</ele><time>2026-05-01T07:20:02Z</time></trkpt><trkpt lat="39.52317833777092" lon="9.403317160076833"><ele>71.0</ele><time>2026-05-01T07:20:03Z</time></trkpt><trkpt lat="39.52339888342249" lon="9.403280013885736"><ele>71.0</ele><time>2026-05-01T07:20:04Z</time></trkpt><trkpt lat="39.5236156622351" lon="9.403240594990976"><ele>71.0</ele><time>2026-05-01T07:20:05Z</time></trkpt><trkpt lat="39.52383328029894" lon="9.403203814264554"><ele>71.0</ele><time>2026-05-01T07:20:06Z</time></trkpt><trkpt lat="39.52405083179414" lon="9.4031797106179"><ele>72.0</ele><time>2026-05-01T07:20:07Z</time></trkpt><trkpt lat="39.524269459499344" lon="9.403166646556818"><ele>73.0</ele><time>2026-05-01T07:20:08Z</time></trkpt><trkpt lat="39.52448651279285" lon="9.40316446210017"><ele>74.0</ele><time>2026-05-01T07:20:09Z</time></trkpt><trkpt lat="39.52470695386007" lon="9.403168294022963"><ele>75.66666666666667</ele><time>2026-05-01T07:20:10Z</time></trkpt><trkpt lat="39.524925520231356" lon="9.403178221030707"><ele>77.33333333333333</ele><time>2026-05-01T07:20:11Z</time></trkpt><trkpt lat="39.525143719315544" lon="9.403194710543179"><ele>79.0</ele><time>2026-05-01T07:20:12Z</time></trkpt><trkpt lat="39.525359687001135" lon="9.403220608485213"><ele>80.0</ele><time>2026-05-01T07:20:13Z</time></trkpt><trkpt lat="39.52557510877953" lon="9.40326119039672"><ele>81.0</ele><time>2026-05-01T07:20:14Z</time></trkpt><trkpt lat="39.52578834652034" lon="9.403313927044259"><ele>82.0</ele><time>2026-05-01T07:20:15Z</time></trkpt><trkpt lat="39.52599889449912" lon="9.40336428873855"><ele>82.0</ele><time>2026-05-01T07:20:16Z</time></trkpt><trkpt lat="39.52620793931539" lon="9.403407974181144"><ele>82.0</ele><time>2026-05-01T07:20:17Z</time></trkpt><trkpt lat="39.52641871308961" lon="9.403451571112234"><ele>82.0</ele><time>2026-05-01T07:20:18Z</time></trkpt><trkpt lat="39.52663164443784" lon="9.403496897824654"><ele>83.33333333333333</ele><time>2026-05-01T07:20:19Z</time></trkpt><trkpt lat="39.526844124209354" lon="9.403544360109178"><ele>84.66666666666667</ele><time>2026-05-01T07:20:20Z</time></trkpt><trkpt lat="39.527053103239474" lon="9.403594744085689"><ele>86.0</ele><time>2026-05-01T07:20:21Z</time></trkpt><trkpt lat="39.52726189943915" lon="9.403643375612667"><ele>86.66666666666667</ele><time>2026-05-01T07:20:22Z</time></trkpt><trkpt lat="39.52746353304706" lon="9.40368466614338"><ele>87.33333333333333</ele><time>2026-05-01T07:20:23Z</time></trkpt><trkpt lat="39.527662169227085" lon="9.403719167737586"><ele>88.0</ele><time>2026-05-01T07:20:24Z</time></trkpt><trkpt lat="39.52789439565427" lon="9.403754224832879"><ele>89.0</ele><time>2026-05-01T07:20:25Z</time></trkpt><trkpt lat="39.52810339585224" lon="9.403762821401356"><ele>90.0</ele><time>2026-05-01T07:20:26Z</time></trkpt><trkpt lat="39.52831125047027" lon="9.40376457212731"><ele>91.0</ele><time>2026-05-01T07:20:27Z</time></trkpt><trkpt lat="39.52852088435804" lon="9.403752960694504"><ele>93.33333333333333</ele><time>2026-05-01T07:20:28Z</time></trkpt><trkpt lat="39.528732732511806" lon="9.403732887357945"><ele>95.66666666666666</ele><time>2026-05-01T07:20:29Z</time></trkpt><trkpt lat="39.52894055292443" lon="9.403711247203919"><ele>98.0</ele><time>2026-05-01T07:20:30Z</time></trkpt><trkpt lat="39.5291455625286" lon="9.403679397865648"><ele>98.0</ele><time>2026-05-01T07:20:31Z</time></trkpt><trkpt lat="39.52935095665006" lon="9.403633758027636"><ele>98.0</ele><time>2026-05-01T07:20:32Z</time></trkpt><trkpt lat="39.52955221831846" lon="9.403576103210929"><ele>98.0</ele><time>2026-05-01T07:20:33Z</time></trkpt><trkpt lat="39.52975116803565" lon="9.403506091138372"><ele>95.0</ele><time>2026-05-01T07:20:34Z</time></trkpt><trkpt lat="39.52994815900286" lon="9.403436068535628"><ele>92.0</ele><time>2026-05-01T07:20:35Z</time></trkpt><trkpt lat="39.53013927830383" lon="9.403354012973567"><ele>89.0</ele><time>2026-05-01T07:20:36Z</time></trkpt><trkpt lat="39.530334248823486" lon="9.403267705663831"><ele>82.66666666666667</ele><time>2026-05-01T07:20:37Z</time></trkpt><trkpt lat="39.53052657459567" lon="9.403177508524143"><ele>76.33333333333333</ele><time>2026-05-01T07:20:38Z</time></trkpt><trkpt lat="39.5307126414333" lon="9.403060606322175"><ele>70.0</ele><time>2026-05-01T07:20:39Z</time></trkpt><trkpt lat="39.5308900187453" lon="9.40293243453677"><ele>70.0</ele><time>2026-05-01T07:20:40Z</time></trkpt><trkpt lat="39.53106587871715" lon="9.402794723411697"><ele>70.0</ele><time>2026-05-01T07:20:41Z</time></trkpt><trkpt lat="39.531242878441404" lon="9.402655583899845"><ele>70.0</ele><time>2026-05-01T07:20:42Z</time></trkpt><trkpt lat="39.53141950267373" lon="9.402509304276627"><ele>71.0</ele><time>2026-05-01T07:20:43Z</time></trkpt><trkpt lat="39.53159145294049" lon="9.402348608392773"><ele>72.0</ele><time>2026-05-01T07:20:44Z</time></trkpt><trkpt lat="39.531761007204956" lon="9.402170705261652"><ele>73.0</ele><time>2026-05-01T07:20:45Z</time></trkpt><trkpt lat="39.5319319708202" lon="9.401975042179325"><ele>77.0</ele><time>2026-05-01T07:20:46Z</time></trkpt><trkpt lat="39.53209512525251" lon="9.401745931685502"><ele>81.0</ele><time>2026-05-01T07:20:47Z</time></trkpt><trkpt lat="39.532260384327834" lon="9.4015288648222"><ele>80.0</ele><time>2026-05-01T07:20:48Z</time></trkpt><trkpt lat="39.53242350366766" lon="9.40130578912254"><ele>79.0</ele><time>2026-05-01T07:20:49Z</time></trkpt><trkpt lat="39.53258518432955" lon="9.40107573143282"><ele>79.0</ele><time>2026-05-01T07:20:50Z</time></trkpt><trkpt lat="39.53274862050914" lon="9.400839088588995"><ele>79.0</ele><time>2026-05-01T07:20:51Z</time></trkpt><trkpt lat="39.53290497495886" lon="9.400600127986053"><ele>81.5</ele><time>2026-05-01T07:20:52Z</time></trkpt><trkpt lat="39.53306207570711" lon="9.400362980670971"><ele>84.0</ele><time>2026-05-01T07:20:53Z</time></trkpt><trkpt lat="39.53322030439763" lon="9.400123988827431"><ele>84.0</ele><time>2026-05-01T07:20:54Z</time></trkpt><trkpt lat="39.53337881180267" lon="9.39988595968836"><ele>84.0</ele><time>2026-05-01T07:20:55Z</time></trkpt><trkpt lat="39.5335358297163" lon="9.399652060157372"><ele>80.5</ele><time>2026-05-01T07:20:56Z</time></trkpt><trkpt lat="39.53369693695095" lon="9.399411122766026"><ele>77.0</ele><time>2026-05-01T07:20:57Z</time></trkpt><trkpt lat="39.53385407962703" lon="9.399171241383158"><ele>77.0</ele><time>2026-05-01T07:20:58Z</time></trkpt><trkpt lat="39.53401127348569" lon="9.398927149469948"><ele>77.0</ele><time>2026-05-01T07:20:59Z</time></trkpt><trkpt lat="39.5341687821267" lon="9.398683195318137"><ele>72.5</ele><time>2026-05-01T07:21:00Z</time></trkpt><trkpt lat="39.53432492591465" lon="9.39844059085522"><ele>68.0</ele><time>2026-05-01T07:21:01Z</time></trkpt><trkpt lat="39.53448498963768" lon="9.398197971498591"><ele>68.0</ele><time>2026-05-01T07:21:02Z</time></trkpt><trkpt lat="39.534646615940964" lon="9.397952033087895"><ele>68.0</ele><time>2026-05-01T07:21:03Z</time></trkpt><trkpt lat="39.53480716184393" lon="9.39770536977186"><ele>68.0</ele><time>2026-05-01T07:21:04Z</time></trkpt><trkpt lat="39.53497003102818" lon="9.39745812800838"><ele>68.0</ele><time>2026-05-01T07:21:05Z</time></trkpt><trkpt lat="39.5351328167298" lon="9.397206864481708"><ele>73.0</ele><time>2026-05-01T07:21:06Z</time></trkpt><trkpt lat="39.53529434231434" lon="9.396956128851343"><ele>78.0</ele><time>2026-05-01T07:21:07Z</time></trkpt><trkpt lat="39.53545598835538" lon="9.39671098113179"><ele>79.0</ele><time>2026-05-01T07:21:08Z</time></trkpt><trkpt lat="39.53562546604622" lon="9.39646695060575"><ele>80.0</ele><time>2026-05-01T07:21:09Z</time></trkpt><trkpt lat="39.535767988932044" lon="9.396232630982684"><ele>89.5</ele><time>2026-05-01T07:21:10Z</time></trkpt><trkpt lat="39.53592472162173" lon="9.39599734804541"><ele>99.0</ele><time>2026-05-01T07:21:11Z</time></trkpt><trkpt lat="39.53607651534152" lon="9.395764792369697"><ele>97.5</ele><time>2026-05-01T07:21:12Z</time></trkpt><trkpt lat="39.536231301895604" lon="9.395535068816224"><ele>96.0</ele><time>2026-05-01T07:21:13Z</time></trkpt><trkpt lat="39.536391943958655" lon="9.395316403728526"><ele>107.5</ele><time>2026-05-01T07:21:14Z</time></trkpt><trkpt lat="39.53656685343219" lon="9.395126756482206"><ele>119.0</ele><time>2026-05-01T07:21:15Z</time></trkpt><trkpt lat="39.53676079633496" lon="9.394962589250772"><ele>119.0</ele><time>2026-05-01T07:21:16Z</time></trkpt><trkpt lat="39.5369567260701" lon="9.394816588498125"><ele>119.0</ele><time>2026-05-01T07:21:17Z</time></trkpt><trkpt lat="39.53715189507704" lon="9.39466164606292"><ele>120.33333333333333</ele><time>2026-05-01T07:21:18Z</time></trkpt><trkpt lat="39.53734119980847" lon="9.394504081728858"><ele>121.66666666666666</ele><time>2026-05-01T07:21:19Z</time></trkpt><trkpt lat="39.537528525371286" lon="9.394347042927416"><ele>123.0</ele><time>2026-05-01T07:21:20Z</time></trkpt><trkpt lat="39.537715340311784" lon="9.394190508986828"><ele>121.66666666666666</ele><time>2026-05-01T07:21:21Z</time></trkpt><trkpt lat="39.537901869720876" lon="9.39403180069611"><ele>120.33333333333333</ele><time>2026-05-01T07:21:22Z</time></trkpt><trkpt lat="39.53808523426671" lon="9.393874389629543"><ele>119.0</ele><time>2026-05-01T07:21:23Z</time></trkpt><trkpt lat="39.53826633356123" lon="9.393714020459175"><ele>125.0</ele><time>2026-05-01T07:21:24Z</time></trkpt><trkpt lat="39.53843780406801" lon="9.3935395734304"><ele>131.0</ele><time>2026-05-01T07:21:25Z</time></trkpt><trkpt lat="39.53858812554069" lon="9.393337432947229"><ele>137.0</ele><time>2026-05-01T07:21:26Z</time></trkpt><trkpt lat="39.53870929899774" lon="9.393104439232818"><ele>132.33333333333331</ele><time>2026-05-01T07:21:27Z</time></trkpt><trkpt lat="39.53879191447472" lon="9.392846714954974"><ele>127.66666666666666</ele><time>2026-05-01T07:21:28Z</time></trkpt><trkpt lat="39.53884175962447" lon="9.392565722315188"><ele>123.0</ele><time>2026-05-01T07:21:29Z</time></trkpt><trkpt lat="39.53887788033571" lon="9.392279515987228"><ele>123.66666666666666</ele><time>2026-05-01T07:21:30Z</time></trkpt><trkpt lat="39.53891860320347" lon="9.391993432834523"><ele>124.33333333333333</ele><time>2026-05-01T07:21:31Z</time></trkpt><trkpt lat="39.538967372306075" lon="9.391714447240904"><ele>125.0</ele><time>2026-05-01T07:21:32Z</time></trkpt><trkpt lat="39.53901566447719" lon="9.39143495298885"><ele>126.0</ele><time>2026-05-01T07:21:33Z</time></trkpt><trkpt lat="39.53906113839407" lon="9.391162461489143"><ele>127.0</ele><time>2026-05-01T07:21:34Z</time></trkpt><trkpt lat="39.539106430816126" lon="9.390890219385875"><ele>128.0</ele><time>2026-05-01T07:21:35Z</time></trkpt><trkpt lat="39.53915355912427" lon="9.39061645837893"><ele>130.0</ele><time>2026-05-01T07:21:36Z</time></trkpt><trkpt lat="39.539201163844005" lon="9.390348724715949"><ele>132.0</ele><time>2026-05-01T07:21:37Z</time></trkpt><trkpt lat="39.53925167392285" lon="9.390077879260371"><ele>134.0</ele><time>2026-05-01T07:21:38Z</time></trkpt><trkpt lat="39.53930023957319" lon="9.38980620752022"><ele>141.33333333333331</ele><time>2026-05-01T07:21:39Z</time></trkpt><trkpt lat="39.53934582306575" lon="9.389533356487883"><ele>148.66666666666666</ele><time>2026-05-01T07:21:40Z</time></trkpt><trkpt lat="39.5393890567162" lon="9.389259947967725"><ele>156.0</ele><time>2026-05-01T07:21:41Z</time></trkpt><trkpt lat="39.53942870286086" lon="9.38899099395341"><ele>160.0</ele><time>2026-05-01T07:21:42Z</time></trkpt><trkpt lat="39.5394521287607" lon="9.388727068175061"><ele>164.0</ele><time>2026-05-01T07:21:43Z</time></trkpt><trkpt lat="39.53945192005089" lon="9.388461715865171"><ele>168.0</ele><time>2026-05-01T07:21:44Z</time></trkpt><trkpt lat="39.5394386636472" lon="9.388193111646638"><ele>168.66666666666666</ele><time>2026-05-01T07:21:45Z</time></trkpt><trkpt lat="39.53944852663007" lon="9.387922485325467"><ele>169.33333333333331</ele><time>2026-05-01T07:21:46Z</time></trkpt><trkpt lat="39.53943482173477" lon="9.387642535613423"><ele>170.0</ele><time>2026-05-01T07:21:47Z</time></trkpt><trkpt lat="39.53943880195774" lon="9.38736270380667"><ele>172.0</ele><time>2026-05-01T07:21:48Z</time></trkpt><trkpt lat="39.53944235530925" lon="9.38708446107205"><ele>174.0</ele><time>2026-05-01T07:21:49Z</time></trkpt><trkpt lat="39.53944418387033" lon="9.386804405326695"><ele>176.0</ele><time>2026-05-01T07:21:50Z</time></trkpt><trkpt lat="39.53944438923272" lon="9.386521925661015"><ele>177.0</ele><time>2026-05-01T07:21:51Z</time></trkpt><trkpt lat="39.53945054357909" lon="9.386243549170224"><ele>178.0</ele><time>2026-05-01T07:21:52Z</time></trkpt><trkpt lat="39.539477470580266" lon="9.385970941985082"><ele>179.0</ele><time>2026-05-01T07:21:53Z</time></trkpt><trkpt lat="39.539558183962505" lon="9.385717035139523"><ele>170.66666666666666</ele><time>2026-05-01T07:21:54Z</time></trkpt><trkpt lat="39.5396546234183" lon="9.385473579406822"><ele>162.33333333333334</ele><time>2026-05-01T07:21:55Z</time></trkpt><trkpt lat="39.53975757693523" lon="9.385235375594936"><ele>154.0</ele><time>2026-05-01T07:21:56Z</time></trkpt><trkpt lat="39.539871055583355" lon="9.385008948811807"><ele>154.0</ele><time>2026-05-01T07:21:57Z</time></trkpt><trkpt lat="39.539975952080766" lon="9.384775656598347"><ele>154.0</ele><time>2026-05-01T07:21:58Z</time></trkpt><trkpt lat="39.54007560864569" lon="9.384540618089142"><ele>154.0</ele><time>2026-05-01T07:21:59Z</time></trkpt><trkpt lat="39.540174173684754" lon="9.384302297931663"><ele>160.0</ele><time>2026-05-01T07:22:00Z</time></trkpt><trkpt lat="39.54027249346824" lon="9.38406367288809"><ele>166.0</ele><time>2026-05-01T07:22:01Z</time></trkpt><trkpt lat="39.540330141105095" lon="9.383811549023449"><ele>172.0</ele><time>2026-05-01T07:22:02Z</time></trkpt><trkpt lat="39.54036226051391" lon="9.3835417999967"><ele>176.33333333333334</ele><time>2026-05-01T07:22:03Z</time></trkpt><trkpt lat="39.540362609962145" lon="9.383255859702889"><ele>180.66666666666666</ele><time>2026-05-01T07:22:04Z</time></trkpt><trkpt lat="39.54038811302564" lon="9.38296620780673"><ele>185.0</ele><time>2026-05-01T07:22:05Z</time></trkpt><trkpt lat="39.540402483989034" lon="9.38267615038058"><ele>171.0</ele><time>2026-05-01T07:22:06Z</time></trkpt><trkpt lat="39.54041681967369" lon="9.382388706086866"><ele>157.0</ele><time>2026-05-01T07:22:07Z</time></trkpt><trkpt lat="39.54042734182962" lon="9.38210898479755"><ele>143.0</ele><time>2026-05-01T07:22:08Z</time></trkpt><trkpt lat="39.540433393958104" lon="9.381830522335056"><ele>143.0</ele><time>2026-05-01T07:22:09Z</time></trkpt><trkpt lat="39.54044317573427" lon="9.381562081127349"><ele>143.0</ele><time>2026-05-01T07:22:10Z</time></trkpt><trkpt lat="39.54046771554373" lon="9.381295831137075"><ele>143.0</ele><time>2026-05-01T07:22:11Z</time></trkpt><trkpt lat="39.540515168312695" lon="9.381037608030804"><ele>146.66666666666666</ele><time>2026-05-01T07:22:12Z</time></trkpt><trkpt lat="39.54060154586371" lon="9.380793947303754"><ele>150.33333333333334</ele><time>2026-05-01T07:22:13Z</time></trkpt><trkpt lat="39.5407214475421" lon="9.380575859974241"><ele>154.0</ele><time>2026-05-01T07:22:14Z</time></trkpt><trkpt lat="39.54087129231991" lon="9.380390361016332"><ele>156.0</ele><time>2026-05-01T07:22:15Z</time></trkpt><trkpt lat="39.54103969581314" lon="9.380230223215394"><ele>158.0</ele><time>2026-05-01T07:22:16Z</time></trkpt><trkpt lat="39.54122933623402" lon="9.38009658671463"><ele>160.0</ele><time>2026-05-01T07:22:17Z</time></trkpt><trkpt lat="39.54141658524329" lon="9.379961021151555"><ele>160.0</ele><time>2026-05-01T07:22:18Z</time></trkpt><trkpt lat="39.54160442364067" lon="9.379834982766399"><ele>160.0</ele><time>2026-05-01T07:22:19Z</time></trkpt><trkpt lat="39.541784322820654" lon="9.379680582928799"><ele>160.0</ele><time>2026-05-01T07:22:20Z</time></trkpt><trkpt lat="39.541944152541255" lon="9.379495388685099"><ele>157.66666666666669</ele><time>2026-05-01T07:22:21Z</time></trkpt><trkpt lat="39.54208581276527" lon="9.379283494824984"><ele>155.33333333333334</ele><time>2026-05-01T07:22:22Z</time></trkpt><trkpt lat="39.54219500626883" lon="9.379036261395962"><ele>153.0</ele><time>2026-05-01T07:22:23Z</time></trkpt><trkpt lat="39.542272126202604" lon="9.378762093048536"><ele>152.66666666666666</ele><time>2026-05-01T07:22:24Z</time></trkpt><trkpt lat="39.54231057839274" lon="9.3784738086711"><ele>152.33333333333331</ele><time>2026-05-01T07:22:25Z</time></trkpt><trkpt lat="39.5423043515471" lon="9.378184308512996"><ele>152.0</ele><time>2026-05-01T07:22:26Z</time></trkpt><trkpt lat="39.54225881866346" lon="9.377902632168361"><ele>153.0</ele><time>2026-05-01T07:22:27Z</time></trkpt><trkpt lat="39.54218106930892" lon="9.377632877383757"><ele>154.0</ele><time>2026-05-01T07:22:28Z</time></trkpt><trkpt lat="39.542073740984065" lon="9.37738535611925"><ele>155.0</ele><time>2026-05-01T07:22:29Z</time></trkpt><trkpt lat="39.54193558045347" lon="9.377166243807634"><ele>155.0</ele><time>2026-05-01T07:22:30Z</time></trkpt><trkpt lat="39.541771308450045" lon="9.37698346596749"><ele>155.0</ele><time>2026-05-01T07:22:31Z</time></trkpt><trkpt lat="39.541585090585315" lon="9.376838418150099"><ele>155.0</ele><time>2026-05-01T07:22:32Z</time></trkpt><trkpt lat="39.54139099248395" lon="9.376728559858938"><ele>162.33333333333331</ele><time>2026-05-01T07:22:33Z</time></trkpt><trkpt lat="39.541196371848834" lon="9.37662817937344"><ele>169.66666666666666</ele><time>2026-05-01T07:22:34Z</time></trkpt><trkpt lat="39.541011658747976" lon="9.376516109914679"><ele>177.0</ele><time>2026-05-01T07:22:35Z</time></trkpt><trkpt lat="39.540852955646244" lon="9.376355554273143"><ele>172.0</ele><time>2026-05-01T07:22:36Z</time></trkpt><trkpt lat="39.540705205193255" lon="9.376181745664883"><ele>167.0</ele><time>2026-05-01T07:22:37Z</time></trkpt><trkpt lat="39.540594016039115" lon="9.375972257875512"><ele>162.0</ele><time>2026-05-01T07:22:38Z</time></trkpt><trkpt lat="39.54050771814264" lon="9.375739874012252"><ele>159.33333333333334</ele><time>2026-05-01T07:22:39Z</time></trkpt><trkpt lat="39.540449965403454" lon="9.375475915686163"><ele>156.66666666666669</ele><time>2026-05-01T07:22:40Z</time></trkpt><trkpt lat="39.540435200370716" lon="9.375223654059214"><ele>154.0</ele><time>2026-05-01T07:22:41Z</time></trkpt><trkpt lat="39.54045739391743" lon="9.374958872536515"><ele>154.0</ele><time>2026-05-01T07:22:42Z</time></trkpt><trkpt lat="39.54051412546641" lon="9.374701685807546"><ele>154.0</ele><time>2026-05-01T07:22:43Z</time></trkpt><trkpt lat="39.54059311495676" lon="9.374445548274071"><ele>154.0</ele><time>2026-05-01T07:22:44Z</time></trkpt><trkpt lat="39.540674211579784" lon="9.37418870698466"><ele>156.66666666666669</ele><time>2026-05-01T07:22:45Z</time></trkpt><trkpt lat="39.540745129667854" lon="9.373926310722746"><ele>159.33333333333334</ele><time>2026-05-01T07:22:46Z</time></trkpt><trkpt lat="39.54078754692084" lon="9.373654374439186"><ele>162.0</ele><time>2026-05-01T07:22:47Z</time></trkpt><trkpt lat="39.540787270843346" lon="9.373375259776926"><ele>163.0</ele><time>2026-05-01T07:22:48Z</time></trkpt><trkpt lat="39.54075549437387" lon="9.373094485028266"><ele>164.0</ele><time>2026-05-01T07:22:49Z</time></trkpt><trkpt lat="39.54069882593819" lon="9.3728182197979"><ele>165.0</ele><time>2026-05-01T07:22:50Z</time></trkpt><trkpt lat="39.540629996329145" lon="9.37254630372334"><ele>163.0</ele><time>2026-05-01T07:22:51Z</time></trkpt><trkpt lat="39.54057123603702" lon="9.372274766529072"><ele>161.0</ele><time>2026-05-01T07:22:52Z</time></trkpt><trkpt lat="39.540519666903016" lon="9.372004577738865"><ele>159.0</ele><time>2026-05-01T07:22:53Z</time></trkpt><trkpt lat="39.540469763617" lon="9.371735440018961"><ele>159.0</ele><time>2026-05-01T07:22:54Z</time></trkpt><trkpt lat="39.54041896888441" lon="9.371473421308037"><ele>159.0</ele><time>2026-05-01T07:22:55Z</time></trkpt><trkpt lat="39.540367259089116" lon="9.371218971572528"><ele>159.0</ele><time>2026-05-01T07:22:56Z</time></trkpt><trkpt lat="39.54031204380539" lon="9.370965821705187"><ele>168.0</ele><time>2026-05-01T07:22:57Z</time></trkpt><trkpt lat="39.54025738032345" lon="9.37071679299552"><ele>177.0</ele><time>2026-05-01T07:22:58Z</time></trkpt><trkpt lat="39.54021112127207" lon="9.370465828946006"><ele>186.0</ele><time>2026-05-01T07:22:59Z</time></trkpt><trkpt lat="39.540180229142265" lon="9.370211771229446"><ele>186.0</ele><time>2026-05-01T07:23:00Z</time></trkpt><trkpt lat="39.540181432762395" lon="9.369953707014107"><ele>186.0</ele><time>2026-05-01T07:23:01Z</time></trkpt><trkpt lat="39.54021838885527" lon="9.369699227935058"><ele>186.0</ele><time>2026-05-01T07:23:02Z</time></trkpt><trkpt lat="39.54029219582574" lon="9.369454735823357"><ele>178.66666666666666</ele><time>2026-05-01T07:23:03Z</time></trkpt><trkpt lat="39.540396996210504" lon="9.369228030606466"><ele>171.33333333333331</ele><time>2026-05-01T07:23:04Z</time></trkpt><trkpt lat="39.540539108542525" lon="9.369031330727722"><ele>164.0</ele><time>2026-05-01T07:23:05Z</time></trkpt><trkpt lat="39.54071021907631" lon="9.368869522487564"><ele>165.66666666666666</ele><time>2026-05-01T07:23:06Z</time></trkpt><trkpt lat="39.540905387525115" lon="9.36875113931477"><ele>167.33333333333334</ele><time>2026-05-01T07:23:07Z</time></trkpt><trkpt lat="39.54111255552893" lon="9.368674714821807"><ele>169.0</ele><time>2026-05-01T07:23:08Z</time></trkpt><trkpt lat="39.541319454994586" lon="9.368628695804937"><ele>169.0</ele><time>2026-05-01T07:23:09Z</time></trkpt><trkpt lat="39.541540428548835" lon="9.36857643705795"><ele>169.0</ele><time>2026-05-01T07:23:10Z</time></trkpt><trkpt lat="39.54175580855105" lon="9.368524154987158"><ele>169.0</ele><time>2026-05-01T07:23:11Z</time></trkpt><trkpt lat="39.5419258362006" lon="9.368452388015674"><ele>165.66666666666669</ele><time>2026-05-01T07:23:12Z</time></trkpt><trkpt lat="39.542128151101274" lon="9.368373217479439"><ele>162.33333333333334</ele><time>2026-05-01T07:23:13Z</time></trkpt><trkpt lat="39.54232100645883" lon="9.368271891339672"><ele>159.0</ele><time>2026-05-01T07:23:14Z</time></trkpt><trkpt lat="39.54249256948145" lon="9.368119411657828"><ele>162.66666666666666</ele><time>2026-05-01T07:23:15Z</time></trkpt><trkpt lat="39.542653860118165" lon="9.36794258361481"><ele>166.33333333333331</ele><time>2026-05-01T07:23:16Z</time></trkpt><trkpt lat="39.54278921554146" lon="9.367733574014332"><ele>170.0</ele><time>2026-05-01T07:23:17Z</time></trkpt><trkpt lat="39.54289263952339" lon="9.367492399587142"><ele>165.66666666666666</ele><time>2026-05-01T07:23:18Z</time></trkpt><trkpt lat="39.54296281044158" lon="9.367231460035804"><ele>161.33333333333334</ele><time>2026-05-01T07:23:19Z</time></trkpt><trkpt lat="39.54300507635905" lon="9.366957007483846"><ele>157.0</ele><time>2026-05-01T07:23:20Z</time></trkpt><trkpt lat="39.54303840943349" lon="9.366674284525299"><ele>157.0</ele><time>2026-05-01T07:23:21Z</time></trkpt><trkpt lat="39.543071754022485" lon="9.366393685109944"><ele>157.0</ele><time>2026-05-01T07:23:22Z</time></trkpt><trkpt lat="39.54311278700842" lon="9.366111876985853"><ele>157.0</ele><time>2026-05-01T07:23:23Z</time></trkpt><trkpt lat="39.543157021101344" lon="9.365833497106335"><ele>156.66666666666669</ele><time>2026-05-01T07:23:24Z</time></trkpt><trkpt lat="39.54319889667599" lon="9.365564782251916"><ele>156.33333333333334</ele><time>2026-05-01T07:23:25Z</time></trkpt><trkpt lat="39.54323711297847" lon="9.365306037095113"><ele>156.0</ele><time>2026-05-01T07:23:26Z</time></trkpt><trkpt lat="39.543276794078615" lon="9.365056510088992"><ele>157.33333333333334</ele><time>2026-05-01T07:23:27Z</time></trkpt><trkpt lat="39.54333853524295" lon="9.364815783973615"><ele>158.66666666666669</ele><time>2026-05-01T07:23:28Z</time></trkpt><trkpt lat="39.54343844045507" lon="9.364604703702433"><ele>160.0</ele><time>2026-05-01T07:23:29Z</time></trkpt><trkpt lat="39.54356684244705" lon="9.364425663253796"><ele>157.66666666666669</ele><time>2026-05-01T07:23:30Z</time></trkpt><trkpt lat="39.54371474734695" lon="9.364278420818012"><ele>155.33333333333334</ele><time>2026-05-01T07:23:31Z</time></trkpt><trkpt lat="39.543880453330644" lon="9.364166999381261"><ele>153.0</ele><time>2026-05-01T07:23:32Z</time></trkpt><trkpt lat="39.544062980709846" lon="9.364090389641643"><ele>153.0</ele><time>2026-05-01T07:23:33Z</time></trkpt><trkpt lat="39.54426146366589" lon="9.364048617933479"><ele>153.0</ele><time>2026-05-01T07:23:34Z</time></trkpt><trkpt lat="39.54450727389071" lon="9.364057881316535"><ele>153.0</ele><time>2026-05-01T07:23:35Z</time></trkpt><trkpt lat="39.54468814387154" lon="9.36409202690621"><ele>152.0</ele><time>2026-05-01T07:23:36Z</time></trkpt><trkpt lat="39.54486503979769" lon="9.364218631102657"><ele>151.0</ele><time>2026-05-01T07:23:37Z</time></trkpt><trkpt lat="39.545050208438624" lon="9.364307338616669"><ele>150.0</ele><time>2026-05-01T07:23:38Z</time></trkpt><trkpt lat="39.545238755360515" lon="9.364371384093728"><ele>145.0</ele><time>2026-05-01T07:23:39Z</time></trkpt><trkpt lat="39.54542577284068" lon="9.364391047096401"><ele>140.0</ele><time>2026-05-01T07:23:40Z</time></trkpt><trkpt lat="39.54561633983202" lon="9.364350681907002"><ele>135.0</ele><time>2026-05-01T07:23:41Z</time></trkpt><trkpt lat="39.54579798672696" lon="9.364272466514862"><ele>135.0</ele><time>2026-05-01T07:23:42Z</time></trkpt><trkpt lat="39.54596199902017" lon="9.364162354484726"><ele>135.0</ele><time>2026-05-01T07:23:43Z</time></trkpt><trkpt lat="39.54611369529923" lon="9.364037576500811"><ele>135.0</ele><time>2026-05-01T07:23:44Z</time></trkpt><trkpt lat="39.546260008155976" lon="9.363922053899499"><ele>133.0</ele><time>2026-05-01T07:23:45Z</time></trkpt><trkpt lat="39.54640725522639" lon="9.36382025093141"><ele>131.0</ele><time>2026-05-01T07:23:46Z</time></trkpt><trkpt lat="39.546554925737844" lon="9.36373016333582"><ele>129.0</ele><time>2026-05-01T07:23:47Z</time></trkpt><trkpt lat="39.54669370437781" lon="9.36364075994564"><ele>129.0</ele><time>2026-05-01T07:23:48Z</time></trkpt><trkpt lat="39.546812419894046" lon="9.363560855860827"><ele>129.0</ele><time>2026-05-01T07:23:49Z</time></trkpt><trkpt lat="39.54691807117707" lon="9.36348356227766"><ele>129.0</ele><time>2026-05-01T07:23:50Z</time></trkpt><trkpt lat="39.54700270741199" lon="9.36338994995435"><ele>129.0</ele><time>2026-05-01T07:23:51Z</time></trkpt><trkpt lat="39.5470629114835" lon="9.363266103092787"><ele>124.75</ele><time>2026-05-01T07:23:52Z</time></trkpt><trkpt lat="39.54711955715436" lon="9.363125040527635"><ele>120.5</ele><time>2026-05-01T07:23:53Z</time></trkpt><trkpt lat="39.54716347535117" lon="9.362952555743922"><ele>116.25</ele><time>2026-05-01T07:23:54Z</time></trkpt><trkpt lat="39.5471715922428" lon="9.362834479542737"><ele>112.0</ele><time>2026-05-01T07:23:55Z</time></trkpt><trkpt lat="39.5472011724902" lon="9.362697345647357"><ele>112.0</ele><time>2026-05-01T07:23:56Z</time></trkpt><trkpt lat="39.547232351951884" lon="9.362561728240562"><ele>111.99999999999999</ele><time>2026-05-01T07:23:57Z</time></trkpt><trkpt lat="39.54725746948774" lon="9.362426518969487"><ele>111.99999999999999</ele><time>2026-05-01T07:23:58Z</time></trkpt><trkpt lat="39.54727483650193" lon="9.362294800852842"><ele>112.0</ele><time>2026-05-01T07:23:59Z</time></trkpt><trkpt lat="39.54728661564455" lon="9.362167750595944"><ele>112.0</ele><time>2026-05-01T07:24:00Z</time></trkpt><trkpt lat="39.54731204281095" lon="9.362042455891121"><ele>113.8</ele><time>2026-05-01T07:24:01Z</time></trkpt><trkpt lat="39.54737372840171" lon="9.361945279898316"><ele>115.6</ele><time>2026-05-01T07:24:02Z</time></trkpt><trkpt lat="39.547465748404626" lon="9.361881145011274"><ele>117.39999999999999</ele><time>2026-05-01T07:24:03Z</time></trkpt><trkpt lat="39.54756711524235" lon="9.36186197070442"><ele>119.19999999999999</ele><time>2026-05-01T07:24:04Z</time></trkpt><trkpt lat="39.547670371694565" lon="9.36186771639302"><ele>121.0</ele><time>2026-05-01T07:24:05Z</time></trkpt><trkpt lat="39.54777655481502" lon="9.361878936127434"><ele>118.75</ele><time>2026-05-01T07:24:06Z</time></trkpt><trkpt lat="39.54788844204349" lon="9.36189877744258"><ele>116.5</ele><time>2026-05-01T07:24:07Z</time></trkpt><trkpt lat="39.54800333102041" lon="9.3619373010164"><ele>114.25</ele><time>2026-05-01T07:24:08Z</time></trkpt><trkpt lat="39.54811560149157" lon="9.36198192137985"><ele>112.0</ele><time>2026-05-01T07:24:09Z</time></trkpt><trkpt lat="39.548227895651536" lon="9.362012467566295"><ele>112.0</ele><time>2026-05-01T07:24:10Z</time></trkpt><trkpt lat="39.54834105169934" lon="9.362011126834652"><ele>112.0</ele><time>2026-05-01T07:24:11Z</time></trkpt><trkpt lat="39.54844746926108" lon="9.361964124787068"><ele>112.0</ele><time>2026-05-01T07:24:12Z</time></trkpt><trkpt lat="39.54853886286129" lon="9.361877291380464"><ele>112.0</ele><time>2026-05-01T07:24:13Z</time></trkpt><trkpt lat="39.54860985326828" lon="9.361766123575828"><ele>112.0</ele><time>2026-05-01T07:24:14Z</time></trkpt><trkpt lat="39.548674308783326" lon="9.361652802244215"><ele>111.99999999999999</ele><time>2026-05-01T07:24:15Z</time></trkpt><trkpt lat="39.548729497481105" lon="9.361537513718627"><ele>111.99999999999999</ele><time>2026-05-01T07:24:16Z</time></trkpt><trkpt lat="39.54877085836695" lon="9.361409031126746"><ele>112.0</ele><time>2026-05-01T07:24:17Z</time></trkpt><trkpt lat="39.54880225955528" lon="9.361271236942107"><ele>112.0</ele><time>2026-05-01T07:24:18Z</time></trkpt><trkpt lat="39.54882815748733" lon="9.361129031370961"><ele>107.75</ele><time>2026-05-01T07:24:19Z</time></trkpt><trkpt lat="39.548852327380644" lon="9.360986720879522"><ele>103.5</ele><time>2026-05-01T07:24:20Z</time></trkpt><trkpt lat="39.548863753392205" lon="9.360842691086772"><ele>99.25</ele><time>2026-05-01T07:24:21Z</time></trkpt><trkpt lat="39.548840726314516" lon="9.360697682037271"><ele>95.0</ele><time>2026-05-01T07:24:22Z</time></trkpt><trkpt lat="39.548777808269804" lon="9.360570940269898"><ele>94.6</ele><time>2026-05-01T07:24:23Z</time></trkpt><trkpt lat="39.54871137459561" lon="9.360456690643298"><ele>94.2</ele><time>2026-05-01T07:24:24Z</time></trkpt><trkpt lat="39.5486467816507" lon="9.360348189193617"><ele>93.80000000000001</ele><time>2026-05-01T07:24:25Z</time></trkpt><trkpt lat="39.5485621701609" lon="9.360265845305772"><ele>93.4</ele><time>2026-05-01T07:24:26Z</time></trkpt><trkpt lat="39.54845554473011" lon="9.360236336648814"><ele>93.0</ele><time>2026-05-01T07:24:27Z</time></trkpt><trkpt lat="39.5483535498976" lon="9.360229747847011"><ele>93.80000000000001</ele><time>2026-05-01T07:24:28Z</time></trkpt><trkpt lat="39.548259255708345" lon="9.36019873902779"><ele>94.6</ele><time>2026-05-01T07:24:29Z</time></trkpt><trkpt lat="39.54816696959185" lon="9.360189808754667"><ele>95.4</ele><time>2026-05-01T07:24:30Z</time></trkpt><trkpt lat="39.548093528763935" lon="9.36009363784563"><ele>96.19999999999999</ele><time>2026-05-01T07:24:31Z</time></trkpt><trkpt lat="39.548029956830014" lon="9.360020317623137"><ele>97.0</ele><time>2026-05-01T07:24:32Z</time></trkpt><trkpt lat="39.547961517293714" lon="9.359944072741843"><ele>97.0</ele><time>2026-05-01T07:24:33Z</time></trkpt><trkpt lat="39.547924382848436" lon="9.35983928401938"><ele>97.0</ele><time>2026-05-01T07:24:34Z</time></trkpt><trkpt lat="39.54791878486376" lon="9.359728923745514"><ele>97.0</ele><time>2026-05-01T07:24:35Z</time></trkpt><trkpt lat="39.547983456870384" lon="9.3596366600199"><ele>97.0</ele><time>2026-05-01T07:24:36Z</time></trkpt><trkpt lat="39.548066193336346" lon="9.359530509989725"><ele>97.0</ele><time>2026-05-01T07:24:38Z</time></trkpt><trkpt lat="39.54815469762636" lon="9.359501408738783"><ele>97.0</ele><time>2026-05-01T07:24:40Z</time></trkpt><trkpt lat="39.54823597964267" lon="9.35959429369861"><ele>97.0</ele><time>2026-05-01T07:24:41Z</time></trkpt><trkpt lat="39.54829187059066" lon="9.359671916088512"><ele>97.0</ele><time>2026-05-01T07:24:42Z</time></trkpt><trkpt lat="39.548351928966206" lon="9.359756122758881"><ele>97.0</ele><time>2026-05-01T07:24:43Z</time></trkpt><trkpt lat="39.548418658499635" lon="9.359839747051463"><ele>97.0</ele><time>2026-05-01T07:24:44Z</time></trkpt><trkpt lat="39.548480784338174" lon="9.359916287532444"><ele>97.00000000000001</ele><time>2026-05-01T07:24:45Z</time></trkpt><trkpt lat="39.548541924166" lon="9.359987644933097"><ele>97.0</ele><time>2026-05-01T07:24:46Z</time></trkpt><trkpt lat="39.54860358823849" lon="9.360056937224424"><ele>97.0</ele><time>2026-05-01T07:24:47Z</time></trkpt><trkpt lat="39.548672365198826" lon="9.3601291764047"><ele>97.0</ele><time>2026-05-01T07:24:48Z</time></trkpt><trkpt lat="39.54874419373433" lon="9.360211048256447"><ele>97.00000000000001</ele><time>2026-05-01T07:24:49Z</time></trkpt><trkpt lat="39.548817748198864" lon="9.360295202068366"><ele>97.0</ele><time>2026-05-01T07:24:50Z</time></trkpt><trkpt lat="39.5488953489497" lon="9.360383285018274"><ele>96.6</ele><time>2026-05-01T07:24:51Z</time></trkpt><trkpt lat="39.54897666356264" lon="9.360473183861842"><ele>96.19999999999999</ele><time>2026-05-01T07:24:52Z</time></trkpt><trkpt lat="39.54905450890107" lon="9.360563961716332"><ele>95.8</ele><time>2026-05-01T07:24:53Z</time></trkpt><trkpt lat="39.54913000320893" lon="9.360656304564653"><ele>95.4</ele><time>2026-05-01T07:24:54Z</time></trkpt><trkpt lat="39.549200504839284" lon="9.360746204673699"><ele>95.0</ele><time>2026-05-01T07:24:55Z</time></trkpt><trkpt lat="39.5492546239065" lon="9.360843799869283"><ele>95.0</ele><time>2026-05-01T07:24:56Z</time></trkpt><trkpt lat="39.54928720869207" lon="9.36095840074414"><ele>95.0</ele><time>2026-05-01T07:24:57Z</time></trkpt><trkpt lat="39.5493004720326" lon="9.361079981389475"><ele>95.0</ele><time>2026-05-01T07:24:58Z</time></trkpt><trkpt lat="39.54930874361881" lon="9.361203012651158"><ele>95.0</ele><time>2026-05-01T07:24:59Z</time></trkpt><trkpt lat="39.54932675462095" lon="9.361321406969203"><ele>95.0</ele><time>2026-05-01T07:25:00Z</time></trkpt><trkpt lat="39.549348365752145" lon="9.361437604493132"><ele>95.16666666666667</ele><time>2026-05-01T07:25:01Z</time></trkpt><trkpt lat="39.5493655759177" lon="9.361549399271375"><ele>95.33333333333334</ele><time>2026-05-01T07:25:02Z</time></trkpt><trkpt lat="39.54937714077498" lon="9.361653045906875"><ele>95.5</ele><time>2026-05-01T07:25:03Z</time></trkpt><trkpt lat="39.54938824054542" lon="9.361760294314644"><ele>95.66666666666667</ele><time>2026-05-01T07:25:04Z</time></trkpt><trkpt lat="39.54939381796992" lon="9.361863390050676"><ele>95.83333333333333</ele><time>2026-05-01T07:25:05Z</time></trkpt><trkpt lat="39.54939653016017" lon="9.361973544513571"><ele>96.0</ele><time>2026-05-01T07:25:06Z</time></trkpt><trkpt lat="39.54937191916312" lon="9.362085647694332"><ele>96.0</ele><time>2026-05-01T07:25:07Z</time></trkpt><trkpt lat="39.54937059455906" lon="9.362193308191204"><ele>96.0</ele><time>2026-05-01T07:25:08Z</time></trkpt><trkpt lat="39.54935165434633" lon="9.362285454019617"><ele>96.0</ele><time>2026-05-01T07:25:09Z</time></trkpt><trkpt lat="39.5493202436633" lon="9.36240352762827"><ele>96.0</ele><time>2026-05-01T07:25:11Z</time></trkpt><trkpt lat="39.54951987468749" lon="9.362432627752534"><ele>95.0</ele><time>2026-05-01T07:25:13Z</time></trkpt><trkpt lat="39.54960502172267" lon="9.362388987325959"><ele>94.0</ele><time>2026-05-01T07:25:14Z</time></trkpt><trkpt lat="39.549703615039114" lon="9.362342920537623"><ele>93.0</ele><time>2026-05-01T07:25:15Z</time></trkpt><trkpt lat="39.54980836580076" lon="9.36229931082337"><ele>92.0</ele><time>2026-05-01T07:25:16Z</time></trkpt><trkpt lat="39.54991133962429" lon="9.362258041339231"><ele>91.0</ele><time>2026-05-01T07:25:17Z</time></trkpt><trkpt lat="39.550017651291185" lon="9.36221423342154"><ele>90.75</ele><time>2026-05-01T07:25:18Z</time></trkpt><trkpt lat="39.550129948211904" lon="9.362164147639046"><ele>90.5</ele><time>2026-05-01T07:25:19Z</time></trkpt><trkpt lat="39.55024741429102" lon="9.362106877662429"><ele>90.25</ele><time>2026-05-01T07:25:20Z</time></trkpt><trkpt lat="39.5503671287307" lon="9.362045978560415"><ele>90.0</ele><time>2026-05-01T07:25:21Z</time></trkpt><trkpt lat="39.55048197009472" lon="9.361981252381552"><ele>89.25</ele><time>2026-05-01T07:25:22Z</time></trkpt><trkpt lat="39.5505842976487" lon="9.361894475799785"><ele>88.5</ele><time>2026-05-01T07:25:23Z</time></trkpt><trkpt lat="39.550672013562426" lon="9.361777118213896"><ele>87.75</ele><time>2026-05-01T07:25:24Z</time></trkpt><trkpt lat="39.550753665089104" lon="9.361647999852366"><ele>87.0</ele><time>2026-05-01T07:25:25Z</time></trkpt><trkpt lat="39.55083595893962" lon="9.3615249194801"><ele>87.0</ele><time>2026-05-01T07:25:26Z</time></trkpt><trkpt lat="39.55091466678534" lon="9.361405715497936"><ele>87.0</ele><time>2026-05-01T07:25:27Z</time></trkpt><trkpt lat="39.55099073332712" lon="9.361286675361399"><ele>87.0</ele><time>2026-05-01T07:25:28Z</time></trkpt><trkpt lat="39.55106606370781" lon="9.361168725828074"><ele>87.0</ele><time>2026-05-01T07:25:29Z</time></trkpt><trkpt lat="39.55114112006855" lon="9.361051896450817"><ele>86.75</ele><time>2026-05-01T07:25:30Z</time></trkpt><trkpt lat="39.55121118952775" lon="9.360930439638565"><ele>86.5</ele><time>2026-05-01T07:25:31Z</time></trkpt><trkpt lat="39.55128060732652" lon="9.360807167390623"><ele>86.25</ele><time>2026-05-01T07:25:32Z</time></trkpt><trkpt lat="39.55135218569097" lon="9.360682397009274"><ele>86.0</ele><time>2026-05-01T07:25:33Z</time></trkpt><trkpt lat="39.55141926513173" lon="9.360550908301775"><ele>86.0</ele><time>2026-05-01T07:25:34Z</time></trkpt><trkpt lat="39.55147536157586" lon="9.360413618508847"><ele>86.0</ele><time>2026-05-01T07:25:35Z</time></trkpt><trkpt lat="39.55152091741385" lon="9.360272393339299"><ele>86.0</ele><time>2026-05-01T07:25:36Z</time></trkpt><trkpt lat="39.55156344546335" lon="9.360130567350058"><ele>86.0</ele><time>2026-05-01T07:25:37Z</time></trkpt><trkpt lat="39.55160771094972" lon="9.359987449839489"><ele>86.0</ele><time>2026-05-01T07:25:38Z</time></trkpt><trkpt lat="39.55165315017146" lon="9.359838465568018"><ele>86.0</ele><time>2026-05-01T07:25:39Z</time></trkpt><trkpt lat="39.55169896226972" lon="9.359681714049595"><ele>86.0</ele><time>2026-05-01T07:25:40Z</time></trkpt><trkpt lat="39.55174897148001" lon="9.359516706648682"><ele>86.0</ele><time>2026-05-01T07:25:41Z</time></trkpt><trkpt lat="39.55180431610004" lon="9.359346066160771"><ele>86.0</ele><time>2026-05-01T07:25:42Z</time></trkpt><trkpt lat="39.55185809069843" lon="9.35916975852443"><ele>86.0</ele><time>2026-05-01T07:25:43Z</time></trkpt><trkpt lat="39.5519222062368" lon="9.358997588749979"><ele>86.0</ele><time>2026-05-01T07:25:44Z</time></trkpt><trkpt lat="39.55198430349914" lon="9.358813976846768"><ele>86.0</ele><time>2026-05-01T07:25:45Z</time></trkpt><trkpt lat="39.55204405081386" lon="9.358621794829613"><ele>85.66666666666667</ele><time>2026-05-01T07:25:46Z</time></trkpt><trkpt lat="39.55210884731325" lon="9.358417616535142"><ele>85.33333333333333</ele><time>2026-05-01T07:25:47Z</time></trkpt><trkpt lat="39.55217343240909" lon="9.358202689476613"><ele>85.0</ele><time>2026-05-01T07:25:48Z</time></trkpt><trkpt lat="39.55224295529107" lon="9.357984874079483"><ele>85.0</ele><time>2026-05-01T07:25:49Z</time></trkpt><trkpt lat="39.552316396837774" lon="9.357761762034196"><ele>85.0</ele><time>2026-05-01T07:25:50Z</time></trkpt><trkpt lat="39.552392108010984" lon="9.357535282697857"><ele>85.0</ele><time>2026-05-01T07:25:51Z</time></trkpt><trkpt lat="39.55246846181995" lon="9.357307643084601"><ele>84.66666666666666</ele><time>2026-05-01T07:25:52Z</time></trkpt><trkpt lat="39.55254359317959" lon="9.35707106975476"><ele>84.33333333333333</ele><time>2026-05-01T07:25:53Z</time></trkpt><trkpt lat="39.55261907185722" lon="9.356830535877902"><ele>84.0</ele><time>2026-05-01T07:25:54Z</time></trkpt><trkpt lat="39.552694810764294" lon="9.356587989151574"><ele>84.33333333333333</ele><time>2026-05-01T07:25:55Z</time></trkpt><trkpt lat="39.55277138977822" lon="9.356346581743836"><ele>84.66666666666666</ele><time>2026-05-01T07:25:56Z</time></trkpt><trkpt lat="39.55284905411644" lon="9.356107723007048"><ele>85.0</ele><time>2026-05-01T07:25:57Z</time></trkpt><trkpt lat="39.55292603229732" lon="9.355871034506531"><ele>85.33333333333333</ele><time>2026-05-01T07:25:58Z</time></trkpt><trkpt lat="39.55300360409928" lon="9.355628847219172"><ele>85.66666666666667</ele><time>2026-05-01T07:25:59Z</time></trkpt><trkpt lat="39.55308079834318" lon="9.3553892825066"><ele>86.0</ele><time>2026-05-01T07:26:00Z</time></trkpt><trkpt lat="39.55316170653224" lon="9.355148712004652"><ele>86.0</ele><time>2026-05-01T07:26:01Z</time></trkpt><trkpt lat="39.55324139939713" lon="9.354905194142784"><ele>86.0</ele><time>2026-05-01T07:26:02Z</time></trkpt><trkpt lat="39.55332343213025" lon="9.354662939834613"><ele>86.0</ele><time>2026-05-01T07:26:03Z</time></trkpt><trkpt lat="39.55340049054834" lon="9.354423627267455"><ele>86.0</ele><time>2026-05-01T07:26:04Z</time></trkpt><trkpt lat="39.55346867222382" lon="9.354196256372548"><ele>86.0</ele><time>2026-05-01T07:26:05Z</time></trkpt><trkpt lat="39.55352930155021" lon="9.35398460492239"><ele>86.0</ele><time>2026-05-01T07:26:06Z</time></trkpt><trkpt lat="39.55359021209917" lon="9.35378936739937"><ele>85.75</ele><time>2026-05-01T07:26:07Z</time></trkpt><trkpt lat="39.55364650486626" lon="9.35361979903339"><ele>85.5</ele><time>2026-05-01T07:26:08Z</time></trkpt><trkpt lat="39.55371842923624" lon="9.353490834154693"><ele>85.25</ele><time>2026-05-01T07:26:09Z</time></trkpt><trkpt lat="39.55383498623274" lon="9.353452975418879"><ele>85.0</ele><time>2026-05-01T07:26:10Z</time></trkpt><trkpt lat="39.55394232754096" lon="9.353427564539409"><ele>85.0</ele><time>2026-05-01T07:26:11Z</time></trkpt><trkpt lat="39.55404195559816" lon="9.353483728090348"><ele>85.0</ele><time>2026-05-01T07:26:12Z</time></trkpt><trkpt lat="39.55417313816535" lon="9.353544093870138"><ele>85.0</ele><time>2026-05-01T07:26:13Z</time></trkpt><trkpt lat="39.55432475826468" lon="9.353600072311664"><ele>85.0</ele><time>2026-05-01T07:26:14Z</time></trkpt><trkpt lat="39.55448884454773" lon="9.35367523407018"><ele>84.66666666666666</ele><time>2026-05-01T07:26:15Z</time></trkpt><trkpt lat="39.554656690965885" lon="9.3537516470356"><ele>84.33333333333333</ele><time>2026-05-01T07:26:16Z</time></trkpt><trkpt lat="39.55481937110873" lon="9.35382787703817"><ele>84.0</ele><time>2026-05-01T07:26:17Z</time></trkpt><trkpt lat="39.55497933631909" lon="9.353898833402718"><ele>83.66666666666667</ele><time>2026-05-01T07:26:18Z</time></trkpt><trkpt lat="39.555131837624884" lon="9.3539687610885"><ele>83.33333333333334</ele><time>2026-05-01T07:26:19Z</time></trkpt><trkpt lat="39.55528076419494" lon="9.354036039693487"><ele>83.0</ele><time>2026-05-01T07:26:20Z</time></trkpt><trkpt lat="39.55543040223077" lon="9.354090639579725"><ele>84.33333333333334</ele><time>2026-05-01T07:26:21Z</time></trkpt><trkpt lat="39.55558889033792" lon="9.354111121530474"><ele>85.66666666666667</ele><time>2026-05-01T07:26:22Z</time></trkpt><trkpt lat="39.555753781947104" lon="9.354071968032322"><ele>87.0</ele><time>2026-05-01T07:26:23Z</time></trkpt><trkpt lat="39.55590014829354" lon="9.353971223923137"><ele>86.33333333333333</ele><time>2026-05-01T07:26:24Z</time></trkpt><trkpt lat="39.55602112096702" lon="9.353816157018883"><ele>85.66666666666666</ele><time>2026-05-01T07:26:25Z</time></trkpt><trkpt lat="39.556111951968255" lon="9.353610440769776"><ele>85.0</ele><time>2026-05-01T07:26:26Z</time></trkpt><trkpt lat="39.55618724806724" lon="9.353386981501863"><ele>86.0</ele><time>2026-05-01T07:26:27Z</time></trkpt><trkpt lat="39.55627183260685" lon="9.353169713448809"><ele>87.0</ele><time>2026-05-01T07:26:28Z</time></trkpt><trkpt lat="39.55638281616615" lon="9.352969511951471"><ele>88.0</ele><time>2026-05-01T07:26:29Z</time></trkpt><trkpt lat="39.55651536011949" lon="9.35279758364287"><ele>88.0</ele><time>2026-05-01T07:26:30Z</time></trkpt><trkpt lat="39.55668717333402" lon="9.35267927217642"><ele>88.0</ele><time>2026-05-01T07:26:31Z</time></trkpt><trkpt lat="39.556865560097755" lon="9.352560596086724"><ele>88.0</ele><time>2026-05-01T07:26:32Z</time></trkpt><trkpt lat="39.55704676046335" lon="9.352441925095787"><ele>88.0</ele><time>2026-05-01T07:26:33Z</time></trkpt><trkpt lat="39.55723306958208" lon="9.352311743359888"><ele>88.0</ele><time>2026-05-01T07:26:34Z</time></trkpt><trkpt lat="39.557440106759984" lon="9.35219466802067"><ele>88.0</ele><time>2026-05-01T07:26:35Z</time></trkpt><trkpt lat="39.557634603342834" lon="9.352064223557836"><ele>88.0</ele><time>2026-05-01T07:26:36Z</time></trkpt><trkpt lat="39.55783249716176" lon="9.351931377067265"><ele>88.0</ele><time>2026-05-01T07:26:37Z</time></trkpt><trkpt lat="39.55803421749829" lon="9.351797091288399"><ele>88.5</ele><time>2026-05-01T07:26:38Z</time></trkpt><trkpt lat="39.55823954045679" lon="9.351661771415188"><ele>89.0</ele><time>2026-05-01T07:26:39Z</time></trkpt><trkpt lat="39.55844789351293" lon="9.351525371051753"><ele>89.0</ele><time>2026-05-01T07:26:40Z</time></trkpt><trkpt lat="39.55865988652395" lon="9.351388963279218"><ele>89.0</ele><time>2026-05-01T07:26:41Z</time></trkpt><trkpt lat="39.55887630274974" lon="9.35124830552077"><ele>89.5</ele><time>2026-05-01T07:26:42Z</time></trkpt><trkpt lat="39.55908788486087" lon="9.351108247061445"><ele>90.0</ele><time>2026-05-01T07:26:43Z</time></trkpt><trkpt lat="39.559298906031074" lon="9.350969176221845"><ele>90.0</ele><time>2026-05-01T07:26:44Z</time></trkpt><trkpt lat="39.55951021689265" lon="9.350828630721317"><ele>90.0</ele><time>2026-05-01T07:26:45Z</time></trkpt><trkpt lat="39.55972456598399" lon="9.350684819150644"><ele>89.5</ele><time>2026-05-01T07:26:46Z</time></trkpt><trkpt lat="39.55994302724522" lon="9.350543340444354"><ele>89.0</ele><time>2026-05-01T07:26:47Z</time></trkpt><trkpt lat="39.56015618816604" lon="9.350407037338703"><ele>89.0</ele><time>2026-05-01T07:26:48Z</time></trkpt><trkpt lat="39.56036198668249" lon="9.350274696136704"><ele>89.0</ele><time>2026-05-01T07:26:49Z</time></trkpt><trkpt lat="39.56055878780146" lon="9.350144100416687"><ele>89.0</ele><time>2026-05-01T07:26:50Z</time></trkpt><trkpt lat="39.560753760800395" lon="9.350018732682042"><ele>89.0</ele><time>2026-05-01T07:26:51Z</time></trkpt><trkpt lat="39.560953416552024" lon="9.349913041507365"><ele>89.0</ele><time>2026-05-01T07:26:52Z</time></trkpt><trkpt lat="39.56116216333628" lon="9.349887888256522"><ele>89.0</ele><time>2026-05-01T07:26:53Z</time></trkpt><trkpt lat="39.561372628116615" lon="9.349886374250053"><ele>89.0</ele><time>2026-05-01T07:26:54Z</time></trkpt><trkpt lat="39.561589777936256" lon="9.34989200681826"><ele>89.0</ele><time>2026-05-01T07:26:55Z</time></trkpt><trkpt lat="39.5618096889944" lon="9.349914762498253"><ele>90.33333333333334</ele><time>2026-05-01T07:26:56Z</time></trkpt><trkpt lat="39.56203343708091" lon="9.349921185364813"><ele>91.66666666666667</ele><time>2026-05-01T07:26:57Z</time></trkpt><trkpt lat="39.56225708513056" lon="9.349922274532231"><ele>93.0</ele><time>2026-05-01T07:26:58Z</time></trkpt><trkpt lat="39.562481724495406" lon="9.349927484877934"><ele>93.0</ele><time>2026-05-01T07:26:59Z</time></trkpt><trkpt lat="39.56270634629942" lon="9.349936969504732"><ele>93.0</ele><time>2026-05-01T07:27:00Z</time></trkpt><trkpt lat="39.56292902196996" lon="9.349945563225354"><ele>93.0</ele><time>2026-05-01T07:27:01Z</time></trkpt><trkpt lat="39.56314918995985" lon="9.34995138207575"><ele>93.66666666666667</ele><time>2026-05-01T07:27:02Z</time></trkpt><trkpt lat="39.56336762648722" lon="9.349959249960511"><ele>94.33333333333334</ele><time>2026-05-01T07:27:03Z</time></trkpt><trkpt lat="39.56358108786935" lon="9.349969763451506"><ele>95.0</ele><time>2026-05-01T07:27:04Z</time></trkpt><trkpt lat="39.563793558783125" lon="9.349980431255206"><ele>95.66666666666667</ele><time>2026-05-01T07:27:05Z</time></trkpt><trkpt lat="39.564001985366495" lon="9.349987663416519"><ele>96.33333333333334</ele><time>2026-05-01T07:27:06Z</time></trkpt><trkpt lat="39.56420569943037" lon="9.349992202450567"><ele>97.0</ele><time>2026-05-01T07:27:07Z</time></trkpt><trkpt lat="39.56440654893354" lon="9.3499969910264"><ele>97.66666666666667</ele><time>2026-05-01T07:27:08Z</time></trkpt><trkpt lat="39.56460256932559" lon="9.350002399042188"><ele>98.33333333333334</ele><time>2026-05-01T07:27:09Z</time></trkpt><trkpt lat="39.5647971827921" lon="9.35000810371401"><ele>99.0</ele><time>2026-05-01T07:27:10Z</time></trkpt><trkpt lat="39.564988373614504" lon="9.35001627012656"><ele>99.0</ele><time>2026-05-01T07:27:11Z</time></trkpt><trkpt lat="39.56518060928138" lon="9.350025330119804"><ele>99.0</ele><time>2026-05-01T07:27:12Z</time></trkpt><trkpt lat="39.565371771674535" lon="9.350034408495553"><ele>99.0</ele><time>2026-05-01T07:27:13Z</time></trkpt><trkpt lat="39.56556304439376" lon="9.350041192992688"><ele>100.33333333333334</ele><time>2026-05-01T07:27:14Z</time></trkpt><trkpt lat="39.565753659377584" lon="9.350045963426004"><ele>101.66666666666667</ele><time>2026-05-01T07:27:15Z</time></trkpt><trkpt lat="39.565941993503856" lon="9.350049816100645"><ele>103.0</ele><time>2026-05-01T07:27:16Z</time></trkpt><trkpt lat="39.56613141700318" lon="9.350044942131388"><ele>104.0</ele><time>2026-05-01T07:27:17Z</time></trkpt><trkpt lat="39.56632587480393" lon="9.350016777654016"><ele>105.0</ele><time>2026-05-01T07:27:18Z</time></trkpt><trkpt lat="39.56652632697201" lon="9.349950322341957"><ele>106.0</ele><time>2026-05-01T07:27:19Z</time></trkpt><trkpt lat="39.5667317155748" lon="9.349850007789154"><ele>106.0</ele><time>2026-05-01T07:27:20Z</time></trkpt><trkpt lat="39.56693761444942" lon="9.349742700713668"><ele>106.0</ele><time>2026-05-01T07:27:21Z</time></trkpt><trkpt lat="39.56715568120328" lon="9.349639216260027"><ele>107.5</ele><time>2026-05-01T07:27:22Z</time></trkpt><trkpt lat="39.56737825250464" lon="9.349542786516094"><ele>109.0</ele><time>2026-05-01T07:27:23Z</time></trkpt><trkpt lat="39.56759212808889" lon="9.34944837900077"><ele>109.0</ele><time>2026-05-01T07:27:24Z</time></trkpt><trkpt lat="39.56778810498513" lon="9.349337987912842"><ele>109.0</ele><time>2026-05-01T07:27:25Z</time></trkpt><trkpt lat="39.56797855238879" lon="9.349213150832053"><ele>109.0</ele><time>2026-05-01T07:27:26Z</time></trkpt><trkpt lat="39.56816835154996" lon="9.349083193025512"><ele>111.66666666666667</ele><time>2026-05-01T07:27:27Z</time></trkpt><trkpt lat="39.56836329831493" lon="9.348967171605725"><ele>114.33333333333334</ele><time>2026-05-01T07:27:28Z</time></trkpt><trkpt lat="39.56856487907619" lon="9.34887327323933"><ele>117.0</ele><time>2026-05-01T07:27:29Z</time></trkpt><trkpt lat="39.568774284551665" lon="9.348802349511487"><ele>120.0</ele><time>2026-05-01T07:27:30Z</time></trkpt><trkpt lat="39.568997955274675" lon="9.348791145023059"><ele>123.0</ele><time>2026-05-01T07:27:31Z</time></trkpt><trkpt lat="39.56922631225631" lon="9.348768670139076"><ele>123.0</ele><time>2026-05-01T07:27:32Z</time></trkpt><trkpt lat="39.5694510602594" lon="9.34877969103544"><ele>123.0</ele><time>2026-05-01T07:27:33Z</time></trkpt><trkpt lat="39.56967638048881" lon="9.34880285934072"><ele>125.0</ele><time>2026-05-01T07:27:34Z</time></trkpt><trkpt lat="39.569905706984166" lon="9.34885003329513"><ele>127.0</ele><time>2026-05-01T07:27:35Z</time></trkpt><trkpt lat="39.57013849891894" lon="9.348916050257207"><ele>129.5</ele><time>2026-05-01T07:27:36Z</time></trkpt><trkpt lat="39.57037378725745" lon="9.348991449282751"><ele>132.0</ele><time>2026-05-01T07:27:37Z</time></trkpt><trkpt lat="39.570611692000995" lon="9.349057830107702"><ele>132.0</ele><time>2026-05-01T07:27:38Z</time></trkpt><trkpt lat="39.57084463109842" lon="9.349120226627269"><ele>132.0</ele><time>2026-05-01T07:27:39Z</time></trkpt><trkpt lat="39.57107404462257" lon="9.349184939525863"><ele>133.5</ele><time>2026-05-01T07:27:40Z</time></trkpt><trkpt lat="39.571296919730514" lon="9.349255454826917"><ele>135.0</ele><time>2026-05-01T07:27:41Z</time></trkpt><trkpt lat="39.57151633256862" lon="9.349335706369889"><ele>135.0</ele><time>2026-05-01T07:27:42Z</time></trkpt><trkpt lat="39.57172554721414" lon="9.349420693151991"><ele>135.0</ele><time>2026-05-01T07:27:43Z</time></trkpt><trkpt lat="39.571929247207926" lon="9.349507942449046"><ele>135.0</ele><time>2026-05-01T07:27:44Z</time></trkpt><trkpt lat="39.57212817784727" lon="9.34959346421063"><ele>138.0</ele><time>2026-05-01T07:27:45Z</time></trkpt><trkpt lat="39.5723193620996" lon="9.349678765208413"><ele>141.0</ele><time>2026-05-01T07:27:46Z</time></trkpt><trkpt lat="39.57250526575165" lon="9.349780896085628"><ele>144.0</ele><time>2026-05-01T07:27:47Z</time></trkpt><trkpt lat="39.572678664212006" lon="9.349927418543217"><ele>145.33333333333334</ele><time>2026-05-01T07:27:48Z</time></trkpt><trkpt lat="39.5728437834746" lon="9.350098137103858"><ele>146.66666666666669</ele><time>2026-05-01T07:27:49Z</time></trkpt><trkpt lat="39.5729952914875" lon="9.350277265440674"><ele>148.0</ele><time>2026-05-01T07:27:50Z</time></trkpt><trkpt lat="39.573116245790814" lon="9.350479742715262"><ele>150.0</ele><time>2026-05-01T07:27:51Z</time></trkpt><trkpt lat="39.573193320452944" lon="9.350711646674993"><ele>152.0</ele><time>2026-05-01T07:27:52Z</time></trkpt><trkpt lat="39.57323793477893" lon="9.350970799029705"><ele>154.0</ele><time>2026-05-01T07:27:53Z</time></trkpt><trkpt lat="39.573282499821886" lon="9.351235914187503"><ele>156.66666666666669</ele><time>2026-05-01T07:27:54Z</time></trkpt><trkpt lat="39.573349062914296" lon="9.351494994665902"><ele>159.33333333333334</ele><time>2026-05-01T07:27:55Z</time></trkpt><trkpt lat="39.57343853529696" lon="9.35173859456506"><ele>162.0</ele><time>2026-05-01T07:27:56Z</time></trkpt><trkpt lat="39.57356435432426" lon="9.351958557784036"><ele>161.66666666666666</ele><time>2026-05-01T07:27:57Z</time></trkpt><trkpt lat="39.57371023364381" lon="9.35216070829848"><ele>161.33333333333331</ele><time>2026-05-01T07:27:58Z</time></trkpt><trkpt lat="39.57386351175366" lon="9.352353940672478"><ele>161.0</ele><time>2026-05-01T07:27:59Z</time></trkpt><trkpt lat="39.57401135775665" lon="9.352544364572644"><ele>162.33333333333331</ele><time>2026-05-01T07:28:00Z</time></trkpt><trkpt lat="39.57415396932837" lon="9.352735587137666"><ele>163.66666666666666</ele><time>2026-05-01T07:28:01Z</time></trkpt><trkpt lat="39.57429774982616" lon="9.35292233472947"><ele>165.0</ele><time>2026-05-01T07:28:02Z</time></trkpt><trkpt lat="39.574446852473514" lon="9.353102347100885"><ele>165.33333333333334</ele><time>2026-05-01T07:28:03Z</time></trkpt><trkpt lat="39.574601445911796" lon="9.353270766450095"><ele>165.66666666666669</ele><time>2026-05-01T07:28:04Z</time></trkpt><trkpt lat="39.574766204908215" lon="9.35343017623664"><ele>166.0</ele><time>2026-05-01T07:28:05Z</time></trkpt><trkpt lat="39.57494250712632" lon="9.353575310631467"><ele>166.0</ele><time>2026-05-01T07:28:06Z</time></trkpt><trkpt lat="39.57512823519366" lon="9.353704799473372"><ele>166.0</ele><time>2026-05-01T07:28:07Z</time></trkpt><trkpt lat="39.575316993068824" lon="9.353828002797654"><ele>166.0</ele><time>2026-05-01T07:28:08Z</time></trkpt><trkpt lat="39.57550073944103" lon="9.353946850528402"><ele>168.33333333333334</ele><time>2026-05-01T07:28:09Z</time></trkpt><trkpt lat="39.57569127359909" lon="9.35404716242028"><ele>170.66666666666666</ele><time>2026-05-01T07:28:10Z</time></trkpt><trkpt lat="39.57589529924097" lon="9.3541145546183"><ele>173.0</ele><time>2026-05-01T07:28:11Z</time></trkpt><trkpt lat="39.576109718341186" lon="9.354141346183098"><ele>175.33333333333331</ele><time>2026-05-01T07:28:12Z</time></trkpt><trkpt lat="39.57633181959186" lon="9.35413884435362"><ele>177.66666666666666</ele><time>2026-05-01T07:28:13Z</time></trkpt><trkpt lat="39.5765540407431" lon="9.354129339247358"><ele>180.0</ele><time>2026-05-01T07:28:14Z</time></trkpt><trkpt lat="39.576777640893006" lon="9.354127053239836"><ele>180.0</ele><time>2026-05-01T07:28:15Z</time></trkpt><trkpt lat="39.57700087026458" lon="9.35413071777344"><ele>180.0</ele><time>2026-05-01T07:28:16Z</time></trkpt><trkpt lat="39.577224695125636" lon="9.354136360032163"><ele>180.0</ele><time>2026-05-01T07:28:17Z</time></trkpt><trkpt lat="39.57744656426957" lon="9.354143358444121"><ele>181.66666666666666</ele><time>2026-05-01T07:28:18Z</time></trkpt><trkpt lat="39.57766928995005" lon="9.354148229885714"><ele>183.33333333333331</ele><time>2026-05-01T07:28:19Z</time></trkpt><trkpt lat="39.5778892882719" lon="9.354149515455877"><ele>185.0</ele><time>2026-05-01T07:28:20Z</time></trkpt><trkpt lat="39.57811166665036" lon="9.354149322994736"><ele>186.0</ele><time>2026-05-01T07:28:21Z</time></trkpt><trkpt lat="39.57833315128636" lon="9.354155160430773"><ele>187.0</ele><time>2026-05-01T07:28:22Z</time></trkpt><trkpt lat="39.57855133481167" lon="9.354171660781507"><ele>188.0</ele><time>2026-05-01T07:28:23Z</time></trkpt><trkpt lat="39.57876572985869" lon="9.354183533280858"><ele>189.33333333333331</ele><time>2026-05-01T07:28:24Z</time></trkpt><trkpt lat="39.57897838118415" lon="9.354159116864404"><ele>190.66666666666666</ele><time>2026-05-01T07:28:25Z</time></trkpt><trkpt lat="39.57919415290246" lon="9.354100809722414"><ele>192.0</ele><time>2026-05-01T07:28:26Z</time></trkpt><trkpt lat="39.57940446886201" lon="9.354036125481953"><ele>193.33333333333331</ele><time>2026-05-01T07:28:27Z</time></trkpt><trkpt lat="39.57960856624951" lon="9.35399257039155"><ele>194.66666666666666</ele><time>2026-05-01T07:28:28Z</time></trkpt><trkpt lat="39.57980636253505" lon="9.353957568918476"><ele>196.0</ele><time>2026-05-01T07:28:29Z</time></trkpt><trkpt lat="39.579990113153" lon="9.353935879016465"><ele>196.0</ele><time>2026-05-01T07:28:30Z</time></trkpt><trkpt lat="39.58016720071195" lon="9.35394253047836"><ele>196.0</ele><time>2026-05-01T07:28:31Z</time></trkpt><trkpt lat="39.580346774901265" lon="9.353990029879084"><ele>196.0</ele><time>2026-05-01T07:28:32Z</time></trkpt><trkpt lat="39.58052637076151" lon="9.35406110568738"><ele>197.66666666666666</ele><time>2026-05-01T07:28:33Z</time></trkpt><trkpt lat="39.58067984241902" lon="9.354160925240208"><ele>199.33333333333331</ele><time>2026-05-01T07:28:34Z</time></trkpt><trkpt lat="39.580800256883826" lon="9.354299033414028"><ele>201.0</ele><time>2026-05-01T07:28:35Z</time></trkpt><trkpt lat="39.5808855503613" lon="9.354476498635043"><ele>201.0</ele><time>2026-05-01T07:28:36Z</time></trkpt><trkpt lat="39.58093337491365" lon="9.354675012946162"><ele>201.0</ele><time>2026-05-01T07:28:37Z</time></trkpt><trkpt lat="39.58096319067608" lon="9.354888122878378"><ele>201.0</ele><time>2026-05-01T07:28:38Z</time></trkpt><trkpt lat="39.5809905638447" lon="9.355098908773453"><ele>200.66666666666669</ele><time>2026-05-01T07:28:39Z</time></trkpt><trkpt lat="39.58101496801868" lon="9.35531899650485"><ele>200.33333333333334</ele><time>2026-05-01T07:28:40Z</time></trkpt><trkpt lat="39.58104288906337" lon="9.35554376448987"><ele>200.0</ele><time>2026-05-01T07:28:41Z</time></trkpt><trkpt lat="39.581074950462884" lon="9.355771660725425"><ele>200.0</ele><time>2026-05-01T07:28:42Z</time></trkpt><trkpt lat="39.58110708369139" lon="9.356002335827242"><ele>200.0</ele><time>2026-05-01T07:28:43Z</time></trkpt><trkpt lat="39.58113441824716" lon="9.356236416914754"><ele>200.0</ele><time>2026-05-01T07:28:44Z</time></trkpt><trkpt lat="39.58115224282918" lon="9.35647432068924"><ele>200.33333333333334</ele><time>2026-05-01T07:28:45Z</time></trkpt><trkpt lat="39.58116477438413" lon="9.356712145420476"><ele>200.66666666666669</ele><time>2026-05-01T07:28:46Z</time></trkpt><trkpt lat="39.581166365056106" lon="9.356949026820176"><ele>201.0</ele><time>2026-05-01T07:28:47Z</time></trkpt><trkpt lat="39.581142196508665" lon="9.357183813864832"><ele>205.0</ele><time>2026-05-01T07:28:48Z</time></trkpt><trkpt lat="39.581089638726894" lon="9.357414802355208"><ele>209.0</ele><time>2026-05-01T07:28:49Z</time></trkpt><trkpt lat="39.58101210809392" lon="9.357621140510357"><ele>213.0</ele><time>2026-05-01T07:28:50Z</time></trkpt><trkpt lat="39.5809086329073" lon="9.357805436552647"><ele>213.0</ele><time>2026-05-01T07:28:51Z</time></trkpt><trkpt lat="39.580792965079205" lon="9.357972545111414"><ele>213.0</ele><time>2026-05-01T07:28:52Z</time></trkpt><trkpt lat="39.58067779806524" lon="9.358151042733214"><ele>213.0</ele><time>2026-05-01T07:28:53Z</time></trkpt><trkpt lat="39.580571946570416" lon="9.358356481091393"><ele>217.0</ele><time>2026-05-01T07:28:54Z</time></trkpt><trkpt lat="39.580482445371786" lon="9.35856886173365"><ele>221.0</ele><time>2026-05-01T07:28:55Z</time></trkpt><trkpt lat="39.58042790244282" lon="9.358798574549256"><ele>225.0</ele><time>2026-05-01T07:28:56Z</time></trkpt><trkpt lat="39.58041989142016" lon="9.359036492876609"><ele>226.0</ele><time>2026-05-01T07:28:57Z</time></trkpt><trkpt lat="39.58044889536831" lon="9.359258755004918"><ele>227.0</ele><time>2026-05-01T07:28:58Z</time></trkpt><trkpt lat="39.580530324509276" lon="9.35945260969179"><ele>228.0</ele><time>2026-05-01T07:28:59Z</time></trkpt><trkpt lat="39.580609812571225" lon="9.359640132192885"><ele>225.0</ele><time>2026-05-01T07:29:00Z</time></trkpt><trkpt lat="39.580684480064875" lon="9.359845934537997"><ele>222.0</ele><time>2026-05-01T07:29:01Z</time></trkpt><trkpt lat="39.58076990973887" lon="9.360015012235786"><ele>219.0</ele><time>2026-05-01T07:29:02Z</time></trkpt><trkpt lat="39.5808841485806" lon="9.36014205060232"><ele>219.0</ele><time>2026-05-01T07:29:03Z</time></trkpt><trkpt lat="39.5810284852628" lon="9.360228965562065"><ele>219.0</ele><time>2026-05-01T07:29:04Z</time></trkpt><trkpt lat="39.581189892475614" lon="9.360278079279034"><ele>219.0</ele><time>2026-05-01T07:29:05Z</time></trkpt><trkpt lat="39.58135772967576" lon="9.360310918754982"><ele>225.0</ele><time>2026-05-01T07:29:06Z</time></trkpt><trkpt lat="39.58152432769058" lon="9.360332198689395"><ele>231.0</ele><time>2026-05-01T07:29:07Z</time></trkpt><trkpt lat="39.58168942045077" lon="9.36032732272992"><ele>237.0</ele><time>2026-05-01T07:29:08Z</time></trkpt><trkpt lat="39.58185289906299" lon="9.36028071155129"><ele>237.0</ele><time>2026-05-01T07:29:09Z</time></trkpt><trkpt lat="39.58200826123943" lon="9.360186231368859"><ele>237.0</ele><time>2026-05-01T07:29:10Z</time></trkpt><trkpt lat="39.58214151898551" lon="9.360045153075234"><ele>237.0</ele><time>2026-05-01T07:29:11Z</time></trkpt><trkpt lat="39.582256663480294" lon="9.359870463862142"><ele>242.66666666666669</ele><time>2026-05-01T07:29:12Z</time></trkpt><trkpt lat="39.58235580049289" lon="9.359676394918944"><ele>248.33333333333334</ele><time>2026-05-01T07:29:13Z</time></trkpt><trkpt lat="39.58245755295183" lon="9.359487517599232"><ele>254.0</ele><time>2026-05-01T07:29:14Z</time></trkpt><trkpt lat="39.582573704528706" lon="9.359308781105671"><ele>254.0</ele><time>2026-05-01T07:29:15Z</time></trkpt><trkpt lat="39.58270931857034" lon="9.359141421551065"><ele>254.0</ele><time>2026-05-01T07:29:16Z</time></trkpt><trkpt lat="39.58285098199419" lon="9.358982068344357"><ele>254.0</ele><time>2026-05-01T07:29:17Z</time></trkpt><trkpt lat="39.58299403798118" lon="9.358817573576339"><ele>253.33333333333334</ele><time>2026-05-01T07:29:18Z</time></trkpt><trkpt lat="39.583140089527056" lon="9.358649595762444"><ele>252.66666666666669</ele><time>2026-05-01T07:29:19Z</time></trkpt><trkpt lat="39.58328507121467" lon="9.358484495975432"><ele>252.0</ele><time>2026-05-01T07:29:20Z</time></trkpt><trkpt lat="39.58342787606087" lon="9.358321313366838"><ele>252.0</ele><time>2026-05-01T07:29:21Z</time></trkpt><trkpt lat="39.58356801905406" lon="9.358163529584624"><ele>252.0</ele><time>2026-05-01T07:29:22Z</time></trkpt><trkpt lat="39.58370063367145" lon="9.35801978118353"><ele>252.0</ele><time>2026-05-01T07:29:23Z</time></trkpt><trkpt lat="39.583831587606" lon="9.357901783722072"><ele>250.0</ele><time>2026-05-01T07:29:24Z</time></trkpt><trkpt lat="39.58397647684462" lon="9.35782637513898"><ele>248.0</ele><time>2026-05-01T07:29:25Z</time></trkpt><trkpt lat="39.58413920531892" lon="9.357793152392691"><ele>246.0</ele><time>2026-05-01T07:29:26Z</time></trkpt><trkpt lat="39.58432131382056" lon="9.357763368921272"><ele>246.0</ele><time>2026-05-01T07:29:27Z</time></trkpt><trkpt lat="39.58450352414326" lon="9.357721725113263"><ele>246.0</ele><time>2026-05-01T07:29:28Z</time></trkpt><trkpt lat="39.58468857481179" lon="9.357678193815284"><ele>246.0</ele><time>2026-05-01T07:29:29Z</time></trkpt><trkpt lat="39.584878642070954" lon="9.357635382662767"><ele>250.66666666666669</ele><time>2026-05-01T07:29:30Z</time></trkpt><trkpt lat="39.585068695345036" lon="9.357594832400322"><ele>255.33333333333334</ele><time>2026-05-01T07:29:31Z</time></trkpt><trkpt lat="39.58526157636339" lon="9.357554990357201"><ele>260.0</ele><time>2026-05-01T07:29:32Z</time></trkpt><trkpt lat="39.585453302626114" lon="9.357514816713943"><ele>263.6666666666667</ele><time>2026-05-01T07:29:33Z</time></trkpt><trkpt lat="39.585640901071365" lon="9.357468953960796"><ele>267.3333333333333</ele><time>2026-05-01T07:29:34Z</time></trkpt><trkpt lat="39.585825993568314" lon="9.357405770878117"><ele>271.0</ele><time>2026-05-01T07:29:35Z</time></trkpt><trkpt lat="39.586005388970015" lon="9.357327773252996"><ele>271.66666666666663</ele><time>2026-05-01T07:29:36Z</time></trkpt><trkpt lat="39.58618143355833" lon="9.357252247038556"><ele>272.3333333333333</ele><time>2026-05-01T07:29:37Z</time></trkpt><trkpt lat="39.586353551136774" lon="9.357188340640183"><ele>273.0</ele><time>2026-05-01T07:29:38Z</time></trkpt><trkpt lat="39.586514437074364" lon="9.357116440011186"><ele>273.0</ele><time>2026-05-01T07:29:39Z</time></trkpt><trkpt lat="39.58665321708146" lon="9.357009204116363"><ele>273.0</ele><time>2026-05-01T07:29:40Z</time></trkpt><trkpt lat="39.586753145537344" lon="9.35684484851464"><ele>273.0</ele><time>2026-05-01T07:29:41Z</time></trkpt><trkpt lat="39.586825769685966" lon="9.356646033376196"><ele>273.0</ele><time>2026-05-01T07:29:42Z</time></trkpt><trkpt lat="39.586875443334485" lon="9.356422402076074"><ele>273.0</ele><time>2026-05-01T07:29:43Z</time></trkpt><trkpt lat="39.586933925498265" lon="9.356215283951645"><ele>273.0</ele><time>2026-05-01T07:29:44Z</time></trkpt><trkpt lat="39.58700297638531" lon="9.356018309646766"><ele>275.5</ele><time>2026-05-01T07:29:45Z</time></trkpt><trkpt lat="39.58708915481408" lon="9.355856075861574"><ele>278.0</ele><time>2026-05-01T07:29:46Z</time></trkpt><trkpt lat="39.587206576704006" lon="9.355743928416082"><ele>280.5</ele><time>2026-05-01T07:29:47Z</time></trkpt><trkpt lat="39.58733765791804" lon="9.355727384125526"><ele>283.0</ele><time>2026-05-01T07:29:48Z</time></trkpt><trkpt lat="39.58747286356663" lon="9.355731929470393"><ele>283.0</ele><time>2026-05-01T07:29:49Z</time></trkpt><trkpt lat="39.58762294978877" lon="9.355778387060367"><ele>283.0</ele><time>2026-05-01T07:29:50Z</time></trkpt><trkpt lat="39.58777167239262" lon="9.355812264214103"><ele>283.0</ele><time>2026-05-01T07:29:51Z</time></trkpt><trkpt lat="39.58791283991181" lon="9.355777496662085"><ele>283.0</ele><time>2026-05-01T07:29:52Z</time></trkpt><trkpt lat="39.588053467889495" lon="9.355722754104539"><ele>282.66666666666663</ele><time>2026-05-01T07:29:53Z</time></trkpt><trkpt lat="39.58816665736446" lon="9.355563900205047"><ele>282.3333333333333</ele><time>2026-05-01T07:29:54Z</time></trkpt><trkpt lat="39.58825852115676" lon="9.355390674010279"><ele>282.0</ele><time>2026-05-01T07:29:55Z</time></trkpt><trkpt lat="39.58835980420012" lon="9.355213650938538"><ele>282.0</ele><time>2026-05-01T07:29:56Z</time></trkpt><trkpt lat="39.58846527405923" lon="9.355041830968418"><ele>282.0</ele><time>2026-05-01T07:29:57Z</time></trkpt><trkpt lat="39.58857304215746" lon="9.35487439180524"><ele>282.0</ele><time>2026-05-01T07:29:58Z</time></trkpt><trkpt lat="39.58869621761471" lon="9.354730555824593"><ele>280.3333333333333</ele><time>2026-05-01T07:29:59Z</time></trkpt><trkpt lat="39.58882208996588" lon="9.354609961773132"><ele>278.66666666666663</ele><time>2026-05-01T07:30:00Z</time></trkpt><trkpt lat="39.5889625094111" lon="9.35455143518134"><ele>277.0</ele><time>2026-05-01T07:30:01Z</time></trkpt><trkpt lat="39.58911991899179" lon="9.354553269239698"><ele>277.0</ele><time>2026-05-01T07:30:02Z</time></trkpt><trkpt lat="39.58928280363751" lon="9.354586701912927"><ele>277.0</ele><time>2026-05-01T07:30:03Z</time></trkpt><trkpt lat="39.589449319052164" lon="9.354615459224847"><ele>277.0</ele><time>2026-05-01T07:30:04Z</time></trkpt><trkpt lat="39.5895963195245" lon="9.354610070112951"><ele>284.0</ele><time>2026-05-01T07:30:05Z</time></trkpt><trkpt lat="39.58973431839449" lon="9.354570228452266"><ele>291.0</ele><time>2026-05-01T07:30:06Z</time></trkpt><trkpt lat="39.58985635216999" lon="9.354451730403381"><ele>298.0</ele><time>2026-05-01T07:30:07Z</time></trkpt><trkpt lat="39.589950458369586" lon="9.354272466600804"><ele>298.0</ele><time>2026-05-01T07:30:08Z</time></trkpt><trkpt lat="39.59000119303637" lon="9.354056113829243"><ele>298.0</ele><time>2026-05-01T07:30:09Z</time></trkpt><trkpt lat="39.590017894506694" lon="9.353825529359606"><ele>298.0</ele><time>2026-05-01T07:30:10Z</time></trkpt><trkpt lat="39.5900307558414" lon="9.353600130002198"><ele>295.66666666666663</ele><time>2026-05-01T07:30:11Z</time></trkpt><trkpt lat="39.59005801348569" lon="9.353393299270309"><ele>293.3333333333333</ele><time>2026-05-01T07:30:12Z</time></trkpt><trkpt lat="39.590155568781874" lon="9.353242360352434"><ele>291.0</ele><time>2026-05-01T07:30:13Z</time></trkpt><trkpt lat="39.59028614985888" lon="9.353135052073753"><ele>295.6666666666667</ele><time>2026-05-01T07:30:14Z</time></trkpt><trkpt lat="39.590413586965234" lon="9.35301612333191"><ele>300.33333333333337</ele><time>2026-05-01T07:30:15Z</time></trkpt><trkpt lat="39.590547157066474" lon="9.352891393859212"><ele>305.0</ele><time>2026-05-01T07:30:16Z</time></trkpt><trkpt lat="39.59067726340351" lon="9.352754216002696"><ele>305.0</ele><time>2026-05-01T07:30:17Z</time></trkpt><trkpt lat="39.590803506230635" lon="9.352619153707648"><ele>305.0</ele><time>2026-05-01T07:30:18Z</time></trkpt><trkpt lat="39.59093060217546" lon="9.35249101435002"><ele>305.0</ele><time>2026-05-01T07:30:19Z</time></trkpt><trkpt lat="39.5910506505038" lon="9.352365810523116"><ele>305.0</ele><time>2026-05-01T07:30:20Z</time></trkpt><trkpt lat="39.59114852538657" lon="9.352230395211024"><ele>305.0</ele><time>2026-05-01T07:30:21Z</time></trkpt><trkpt lat="39.59120756718088" lon="9.352064531822444"><ele>305.0</ele><time>2026-05-01T07:30:22Z</time></trkpt><trkpt lat="39.5912286562475" lon="9.351884114590488"><ele>305.0</ele><time>2026-05-01T07:30:23Z</time></trkpt><trkpt lat="39.59126509781864" lon="9.351715152719013"><ele>303.0</ele><time>2026-05-01T07:30:24Z</time></trkpt><trkpt lat="39.591352031242025" lon="9.35157816052682"><ele>301.0</ele><time>2026-05-01T07:30:25Z</time></trkpt><trkpt lat="39.591444451430625" lon="9.351446479120936"><ele>299.0</ele><time>2026-05-01T07:30:26Z</time></trkpt><trkpt lat="39.59158442192059" lon="9.351361000539328"><ele>297.0</ele><time>2026-05-01T07:30:27Z</time></trkpt><trkpt lat="39.591741223177415" lon="9.351355835558854"><ele>302.6666666666667</ele><time>2026-05-01T07:30:28Z</time></trkpt><trkpt lat="39.591904109032384" lon="9.35135443526362"><ele>308.33333333333337</ele><time>2026-05-01T07:30:29Z</time></trkpt><trkpt lat="39.59206837357382" lon="9.351355609089278"><ele>314.0</ele><time>2026-05-01T07:30:30Z</time></trkpt><trkpt lat="39.59223352556457" lon="9.351371084198105"><ele>305.33333333333337</ele><time>2026-05-01T07:30:31Z</time></trkpt><trkpt lat="39.59240128270944" lon="9.351377511271682"><ele>296.6666666666667</ele><time>2026-05-01T07:30:32Z</time></trkpt><trkpt lat="39.59256932519026" lon="9.35138114492867"><ele>288.0</ele><time>2026-05-01T07:30:33Z</time></trkpt><trkpt lat="39.59273789301699" lon="9.35137501040293"><ele>293.0</ele><time>2026-05-01T07:30:34Z</time></trkpt><trkpt lat="39.592904917528266" lon="9.351333914367547"><ele>298.0</ele><time>2026-05-01T07:30:35Z</time></trkpt><trkpt lat="39.593065844512246" lon="9.351260919708897"><ele>303.0</ele><time>2026-05-01T07:30:36Z</time></trkpt><trkpt lat="39.59322884968967" lon="9.351186379285899"><ele>303.0</ele><time>2026-05-01T07:30:37Z</time></trkpt><trkpt lat="39.59339412819395" lon="9.351122470242696"><ele>303.0</ele><time>2026-05-01T07:30:38Z</time></trkpt><trkpt lat="39.59356056047348" lon="9.351060699749702"><ele>303.0</ele><time>2026-05-01T07:30:39Z</time></trkpt><trkpt lat="39.59372516374614" lon="9.350992110112092"><ele>299.0</ele><time>2026-05-01T07:30:40Z</time></trkpt><trkpt lat="39.593883621440256" lon="9.350911267992004"><ele>295.0</ele><time>2026-05-01T07:30:41Z</time></trkpt><trkpt lat="39.59403503792008" lon="9.350815607672827"><ele>291.0</ele><time>2026-05-01T07:30:42Z</time></trkpt><trkpt lat="39.5941741645365" lon="9.350713215380383"><ele>291.0</ele><time>2026-05-01T07:30:43Z</time></trkpt><trkpt lat="39.594309726165974" lon="9.350618123925901"><ele>291.0</ele><time>2026-05-01T07:30:44Z</time></trkpt><trkpt lat="39.5944462999756" lon="9.350545432249357"><ele>291.0</ele><time>2026-05-01T07:30:45Z</time></trkpt><trkpt lat="39.59458804282314" lon="9.350507342040158"><ele>291.0</ele><time>2026-05-01T07:30:46Z</time></trkpt><trkpt lat="39.59472668133085" lon="9.350555378876212"><ele>291.0</ele><time>2026-05-01T07:30:47Z</time></trkpt><trkpt lat="39.594849890872545" lon="9.350636963808508"><ele>291.0</ele><time>2026-05-01T07:30:48Z</time></trkpt><trkpt lat="39.59493729191633" lon="9.350786970303092"><ele>291.0</ele><time>2026-05-01T07:30:49Z</time></trkpt><trkpt lat="39.59501622101815" lon="9.350956393651526"><ele>291.0</ele><time>2026-05-01T07:30:50Z</time></trkpt><trkpt lat="39.595100052411105" lon="9.351137148268135"><ele>291.0</ele><time>2026-05-01T07:30:51Z</time></trkpt><trkpt lat="39.595162344377336" lon="9.35132936330483"><ele>291.0</ele><time>2026-05-01T07:30:52Z</time></trkpt><trkpt lat="39.59525516119346" lon="9.351498114882776"><ele>291.0</ele><time>2026-05-01T07:30:53Z</time></trkpt><trkpt lat="39.595374778039385" lon="9.351640368889385"><ele>290.6666666666667</ele><time>2026-05-01T07:30:54Z</time></trkpt><trkpt lat="39.595506993862855" lon="9.351770461049224"><ele>290.33333333333337</ele><time>2026-05-01T07:30:55Z</time></trkpt><trkpt lat="39.59565307136028" lon="9.351875101729973"><ele>290.0</ele><time>2026-05-01T07:30:56Z</time></trkpt><trkpt lat="39.59581017947574" lon="9.351959939937464"><ele>290.0</ele><time>2026-05-01T07:30:57Z</time></trkpt><trkpt lat="39.5959762204991" lon="9.352025093234705"><ele>290.0</ele><time>2026-05-01T07:30:58Z</time></trkpt><trkpt lat="39.59615371740555" lon="9.352068030427722"><ele>290.0</ele><time>2026-05-01T07:30:59Z</time></trkpt><trkpt lat="39.59633629411145" lon="9.352105148552203"><ele>292.33333333333337</ele><time>2026-05-01T07:31:00Z</time></trkpt><trkpt lat="39.59652265071948" lon="9.352149077555653"><ele>294.6666666666667</ele><time>2026-05-01T07:31:01Z</time></trkpt><trkpt lat="39.5967121212347" lon="9.35219857869779"><ele>297.0</ele><time>2026-05-01T07:31:02Z</time></trkpt><trkpt lat="39.59690416356679" lon="9.352251344838116"><ele>291.3333333333333</ele><time>2026-05-01T07:31:03Z</time></trkpt><trkpt lat="39.59709481167061" lon="9.352302251030142"><ele>285.66666666666663</ele><time>2026-05-01T07:31:04Z</time></trkpt><trkpt lat="39.59728195063995" lon="9.352349825604088"><ele>280.0</ele><time>2026-05-01T07:31:05Z</time></trkpt><trkpt lat="39.59746907967497" lon="9.352397322316842"><ele>280.0</ele><time>2026-05-01T07:31:06Z</time></trkpt><trkpt lat="39.59765689578931" lon="9.35244779281302"><ele>280.0</ele><time>2026-05-01T07:31:07Z</time></trkpt><trkpt lat="39.59784364514771" lon="9.352506248747442"><ele>280.0</ele><time>2026-05-01T07:31:08Z</time></trkpt><trkpt lat="39.598025127049546" lon="9.352579531785066"><ele>283.0</ele><time>2026-05-01T07:31:09Z</time></trkpt><trkpt lat="39.598201268232465" lon="9.352664231968745"><ele>286.0</ele><time>2026-05-01T07:31:10Z</time></trkpt><trkpt lat="39.59837569660191" lon="9.352745725034548"><ele>289.0</ele><time>2026-05-01T07:31:11Z</time></trkpt><trkpt lat="39.59855153864101" lon="9.35281377636131"><ele>289.3333333333333</ele><time>2026-05-01T07:31:12Z</time></trkpt><trkpt lat="39.59872676198943" lon="9.352861054213557"><ele>289.6666666666667</ele><time>2026-05-01T07:31:13Z</time></trkpt><trkpt lat="39.59889975679734" lon="9.352890830871416"><ele>290.0</ele><time>2026-05-01T07:31:14Z</time></trkpt><trkpt lat="39.59906977434642" lon="9.35291862081136"><ele>290.0</ele><time>2026-05-01T07:31:15Z</time></trkpt><trkpt lat="39.5992278007401" lon="9.352959117615418"><ele>290.0</ele><time>2026-05-01T07:31:16Z</time></trkpt><trkpt lat="39.59935464056733" lon="9.35305863750856"><ele>290.0</ele><time>2026-05-01T07:31:17Z</time></trkpt><trkpt lat="39.59945510220525" lon="9.353181160796169"><ele>290.0</ele><time>2026-05-01T07:31:18Z</time></trkpt><trkpt lat="39.5995017857272" lon="9.353349124658836"><ele>284.0</ele><time>2026-05-01T07:31:19Z</time></trkpt><trkpt lat="39.599500336799274" lon="9.35352365166377"><ele>278.0</ele><time>2026-05-01T07:31:20Z</time></trkpt><trkpt lat="39.59947020117351" lon="9.353719664310182"><ele>272.0</ele><time>2026-05-01T07:31:21Z</time></trkpt><trkpt lat="39.59944059858178" lon="9.353940019970057"><ele>269.33333333333337</ele><time>2026-05-01T07:31:22Z</time></trkpt><trkpt lat="39.599391736445185" lon="9.354149205081546"><ele>266.6666666666667</ele><time>2026-05-01T07:31:23Z</time></trkpt><trkpt lat="39.599343049645995" lon="9.354365951133053"><ele>264.0</ele><time>2026-05-01T07:31:24Z</time></trkpt><trkpt lat="39.599253856710824" lon="9.354550069403757"><ele>265.0</ele><time>2026-05-01T07:31:25Z</time></trkpt><trkpt lat="39.59918543382457" lon="9.354741248085293"><ele>266.0</ele><time>2026-05-01T07:31:26Z</time></trkpt><trkpt lat="39.59911276273349" lon="9.35492132101284"><ele>267.0</ele><time>2026-05-01T07:31:27Z</time></trkpt><trkpt lat="39.599074785977166" lon="9.355123404991764"><ele>267.0</ele><time>2026-05-01T07:31:28Z</time></trkpt><trkpt lat="39.59907803635892" lon="9.355345456044775"><ele>267.0</ele><time>2026-05-01T07:31:29Z</time></trkpt><trkpt lat="39.59909692040152" lon="9.355575805357846"><ele>267.0</ele><time>2026-05-01T07:31:30Z</time></trkpt><trkpt lat="39.59911516571789" lon="9.35579695377432"><ele>265.6666666666667</ele><time>2026-05-01T07:31:31Z</time></trkpt><trkpt lat="39.59914479736327" lon="9.356000440733327"><ele>264.33333333333337</ele><time>2026-05-01T07:31:32Z</time></trkpt><trkpt lat="39.59921178179187" lon="9.356183964463549"><ele>263.0</ele><time>2026-05-01T07:31:33Z</time></trkpt><trkpt lat="39.59932241502446" lon="9.356345111779941"><ele>262.6666666666667</ele><time>2026-05-01T07:31:34Z</time></trkpt><trkpt lat="39.599460113028314" lon="9.356484771785158"><ele>262.3333333333333</ele><time>2026-05-01T07:31:35Z</time></trkpt><trkpt lat="39.59960218671664" lon="9.356624851377036"><ele>262.0</ele><time>2026-05-01T07:31:36Z</time></trkpt><trkpt lat="39.59973089201182" lon="9.35677970525979"><ele>262.0</ele><time>2026-05-01T07:31:37Z</time></trkpt><trkpt lat="39.59985950672056" lon="9.356927016540306"><ele>262.0</ele><time>2026-05-01T07:31:38Z</time></trkpt><trkpt lat="39.59999646777316" lon="9.357046781744973"><ele>262.0</ele><time>2026-05-01T07:31:39Z</time></trkpt><trkpt lat="39.6001487378751" lon="9.357116700381098"><ele>262.0</ele><time>2026-05-01T07:31:40Z</time></trkpt><trkpt lat="39.60031837317438" lon="9.357147479383642"><ele>262.0</ele><time>2026-05-01T07:31:41Z</time></trkpt><trkpt lat="39.600499061317095" lon="9.357122111744369"><ele>262.0</ele><time>2026-05-01T07:31:42Z</time></trkpt><trkpt lat="39.600672902112585" lon="9.357067371072501"><ele>259.0</ele><time>2026-05-01T07:31:43Z</time></trkpt><trkpt lat="39.60083948888327" lon="9.356967433702454"><ele>256.0</ele><time>2026-05-01T07:31:44Z</time></trkpt><trkpt lat="39.600992786470904" lon="9.35683981562387"><ele>253.0</ele><time>2026-05-01T07:31:45Z</time></trkpt><trkpt lat="39.60112382905916" lon="9.356676643211708"><ele>248.0</ele><time>2026-05-01T07:31:46Z</time></trkpt><trkpt lat="39.60122428805834" lon="9.356472164790866"><ele>243.0</ele><time>2026-05-01T07:31:47Z</time></trkpt><trkpt lat="39.60130770090021" lon="9.356248931364256"><ele>238.0</ele><time>2026-05-01T07:31:48Z</time></trkpt><trkpt lat="39.60139975148587" lon="9.35603778824133"><ele>238.0</ele><time>2026-05-01T07:31:49Z</time></trkpt><trkpt lat="39.60150368034961" lon="9.35583470010783"><ele>238.0</ele><time>2026-05-01T07:31:50Z</time></trkpt><trkpt lat="39.60160900385154" lon="9.355632648007132"><ele>238.0</ele><time>2026-05-01T07:31:51Z</time></trkpt><trkpt lat="39.60171020979669" lon="9.355429586759442"><ele>240.33333333333331</ele><time>2026-05-01T07:31:52Z</time></trkpt><trkpt lat="39.601801468964716" lon="9.355219413614662"><ele>242.66666666666669</ele><time>2026-05-01T07:31:53Z</time></trkpt><trkpt lat="39.60188067874094" lon="9.355002389853581"><ele>245.0</ele><time>2026-05-01T07:31:54Z</time></trkpt><trkpt lat="39.6019449093982" lon="9.354774977203407"><ele>237.33333333333334</ele><time>2026-05-01T07:31:55Z</time></trkpt><trkpt lat="39.60200356764822" lon="9.354547298655847"><ele>229.66666666666669</ele><time>2026-05-01T07:31:56Z</time></trkpt><trkpt lat="39.602065222488775" lon="9.354320830717148"><ele>222.0</ele><time>2026-05-01T07:31:57Z</time></trkpt><trkpt lat="39.60212788325316" lon="9.354093602283339"><ele>222.66666666666669</ele><time>2026-05-01T07:31:58Z</time></trkpt><trkpt lat="39.60217952228514" lon="9.353864605143162"><ele>223.33333333333334</ele><time>2026-05-01T07:31:59Z</time></trkpt><trkpt lat="39.60221007400775" lon="9.35362763871124"><ele>224.0</ele><time>2026-05-01T07:32:00Z</time></trkpt><trkpt lat="39.60223708044949" lon="9.35338635164492"><ele>224.0</ele><time>2026-05-01T07:32:01Z</time></trkpt><trkpt lat="39.60227554202036" lon="9.35314814148373"><ele>224.0</ele><time>2026-05-01T07:32:02Z</time></trkpt><trkpt lat="39.602339844841495" lon="9.352921775949174"><ele>224.0</ele><time>2026-05-01T07:32:03Z</time></trkpt><trkpt lat="39.602452434241194" lon="9.352737751501811"><ele>224.33333333333334</ele><time>2026-05-01T07:32:04Z</time></trkpt><trkpt lat="39.60257621299808" lon="9.352571945363636"><ele>224.66666666666669</ele><time>2026-05-01T07:32:05Z</time></trkpt><trkpt lat="39.602731408408644" lon="9.352435796256668"><ele>225.0</ele><time>2026-05-01T07:32:06Z</time></trkpt><trkpt lat="39.60291529804971" lon="9.352346414015637"><ele>221.33333333333331</ele><time>2026-05-01T07:32:07Z</time></trkpt><trkpt lat="39.60310775528177" lon="9.352270689016844"><ele>217.66666666666666</ele><time>2026-05-01T07:32:08Z</time></trkpt><trkpt lat="39.603305929289476" lon="9.352188921979428"><ele>214.0</ele><time>2026-05-01T07:32:09Z</time></trkpt><trkpt lat="39.60350132520876" lon="9.352099064463708"><ele>212.33333333333331</ele><time>2026-05-01T07:32:10Z</time></trkpt><trkpt lat="39.60369183366278" lon="9.352004506764677"><ele>210.66666666666669</ele><time>2026-05-01T07:32:11Z</time></trkpt><trkpt lat="39.603881429013995" lon="9.351912557231774"><ele>209.0</ele><time>2026-05-01T07:32:12Z</time></trkpt><trkpt lat="39.6040686245858" lon="9.351820767332251"><ele>209.0</ele><time>2026-05-01T07:32:13Z</time></trkpt><trkpt lat="39.604254357056035" lon="9.351727564254942"><ele>209.0</ele><time>2026-05-01T07:32:14Z</time></trkpt><trkpt lat="39.604438208366645" lon="9.351637977510551"><ele>209.0</ele><time>2026-05-01T07:32:15Z</time></trkpt><trkpt lat="39.60462222689231" lon="9.35155206214711"><ele>208.33333333333334</ele><time>2026-05-01T07:32:16Z</time></trkpt><trkpt lat="39.604807076673104" lon="9.351465817762604"><ele>207.66666666666669</ele><time>2026-05-01T07:32:17Z</time></trkpt><trkpt lat="39.60499415489658" lon="9.351377508694023"><ele>207.0</ele><time>2026-05-01T07:32:18Z</time></trkpt><trkpt lat="39.605181930230565" lon="9.351288724549857"><ele>205.33333333333331</ele><time>2026-05-01T07:32:19Z</time></trkpt><trkpt lat="39.60536781188689" lon="9.351201066780254"><ele>203.66666666666666</ele><time>2026-05-01T07:32:20Z</time></trkpt><trkpt lat="39.605556894396265" lon="9.351110015941194"><ele>202.0</ele><time>2026-05-01T07:32:21Z</time></trkpt><trkpt lat="39.60574540598557" lon="9.351015562499825"><ele>202.0</ele><time>2026-05-01T07:32:22Z</time></trkpt><trkpt lat="39.60593527231799" lon="9.35092449706529"><ele>202.0</ele><time>2026-05-01T07:32:23Z</time></trkpt><trkpt lat="39.606126018654145" lon="9.35083667442577"><ele>202.0</ele><time>2026-05-01T07:32:24Z</time></trkpt><trkpt lat="39.60631923153408" lon="9.350742142009636"><ele>202.0</ele><time>2026-05-01T07:32:25Z</time></trkpt><trkpt lat="39.60651542360942" lon="9.350647222294782"><ele>202.0</ele><time>2026-05-01T07:32:26Z</time></trkpt><trkpt lat="39.60671014974468" lon="9.35055372276536"><ele>202.0</ele><time>2026-05-01T07:32:27Z</time></trkpt><trkpt lat="39.6069081510252" lon="9.35045883233999"><ele>202.66666666666666</ele><time>2026-05-01T07:32:28Z</time></trkpt><trkpt lat="39.60710429905303" lon="9.35036455004139"><ele>203.33333333333331</ele><time>2026-05-01T07:32:29Z</time></trkpt><trkpt lat="39.607301834113855" lon="9.350267704276481"><ele>204.0</ele><time>2026-05-01T07:32:30Z</time></trkpt><trkpt lat="39.60749445332476" lon="9.350160917484795"><ele>204.0</ele><time>2026-05-01T07:32:31Z</time></trkpt><trkpt lat="39.607681415159405" lon="9.350035578631458"><ele>204.0</ele><time>2026-05-01T07:32:32Z</time></trkpt><trkpt lat="39.6078641218178" lon="9.34988670268146"><ele>204.0</ele><time>2026-05-01T07:32:33Z</time></trkpt><trkpt lat="39.60804121986056" lon="9.349724058205325"><ele>205.0</ele><time>2026-05-01T07:32:34Z</time></trkpt><trkpt lat="39.60821314625157" lon="9.349557605398513"><ele>206.0</ele><time>2026-05-01T07:32:35Z</time></trkpt><trkpt lat="39.60838796882544" lon="9.349390625783862"><ele>207.0</ele><time>2026-05-01T07:32:36Z</time></trkpt><trkpt lat="39.60855800945455" lon="9.34922638449764"><ele>206.66666666666669</ele><time>2026-05-01T07:32:37Z</time></trkpt><trkpt lat="39.60872357740315" lon="9.349066147964873"><ele>206.33333333333334</ele><time>2026-05-01T07:32:38Z</time></trkpt><trkpt lat="39.608880770241576" lon="9.348914992872945"><ele>206.0</ele><time>2026-05-01T07:32:39Z</time></trkpt><trkpt lat="39.609035495706934" lon="9.348768585951499"><ele>206.66666666666669</ele><time>2026-05-01T07:32:40Z</time></trkpt><trkpt lat="39.60918971029012" lon="9.348626909364157"><ele>207.33333333333331</ele><time>2026-05-01T07:32:41Z</time></trkpt><trkpt lat="39.60934221348336" lon="9.348474504644651"><ele>208.0</ele><time>2026-05-01T07:32:42Z</time></trkpt><trkpt lat="39.60947320477597" lon="9.348292855833458"><ele>208.33333333333331</ele><time>2026-05-01T07:32:43Z</time></trkpt><trkpt lat="39.609583000059786" lon="9.348082910894039"><ele>208.66666666666669</ele><time>2026-05-01T07:32:44Z</time></trkpt><trkpt lat="39.609667104682956" lon="9.347854909312632"><ele>209.0</ele><time>2026-05-01T07:32:45Z</time></trkpt><trkpt lat="39.60971413764952" lon="9.347606820087424"><ele>209.0</ele><time>2026-05-01T07:32:46Z</time></trkpt><trkpt lat="39.60974802875808" lon="9.347363996832208"><ele>209.0</ele><time>2026-05-01T07:32:47Z</time></trkpt><trkpt lat="39.609782113580394" lon="9.347144036411992"><ele>209.0</ele><time>2026-05-01T07:32:48Z</time></trkpt><trkpt lat="39.609828028655905" lon="9.346944433664065"><ele>209.0</ele><time>2026-05-01T07:32:49Z</time></trkpt><trkpt lat="39.60989199988576" lon="9.346763869096348"><ele>209.0</ele><time>2026-05-01T07:32:50Z</time></trkpt><trkpt lat="39.60998160816235" lon="9.34661472833583"><ele>209.0</ele><time>2026-05-01T07:32:51Z</time></trkpt><trkpt lat="39.61010193372434" lon="9.346497543745217"><ele>209.0</ele><time>2026-05-01T07:32:52Z</time></trkpt><trkpt lat="39.61024518200388" lon="9.346407635071708"><ele>211.0</ele><time>2026-05-01T07:32:53Z</time></trkpt><trkpt lat="39.61038261544233" lon="9.34631093606522"><ele>213.0</ele><time>2026-05-01T07:32:54Z</time></trkpt><trkpt lat="39.61051728318202" lon="9.3462163159823"><ele>215.0</ele><time>2026-05-01T07:32:55Z</time></trkpt><trkpt lat="39.61065690722015" lon="9.34612247203998"><ele>215.0</ele><time>2026-05-01T07:32:56Z</time></trkpt><trkpt lat="39.610799323459815" lon="9.346023858501994"><ele>215.0</ele><time>2026-05-01T07:32:57Z</time></trkpt><trkpt lat="39.61093861130017" lon="9.345913538286508"><ele>215.0</ele><time>2026-05-01T07:32:58Z</time></trkpt><trkpt lat="39.61107438341798" lon="9.34579162171275"><ele>215.66666666666669</ele><time>2026-05-01T07:32:59Z</time></trkpt><trkpt lat="39.61120918470144" lon="9.345664573010946"><ele>216.33333333333331</ele><time>2026-05-01T07:33:00Z</time></trkpt><trkpt lat="39.61134213795995" lon="9.34553479977243"><ele>217.0</ele><time>2026-05-01T07:33:01Z</time></trkpt><trkpt lat="39.611469422049986" lon="9.345404138770304"><ele>217.0</ele><time>2026-05-01T07:33:02Z</time></trkpt><trkpt lat="39.61159593749377" lon="9.345272637024385"><ele>217.0</ele><time>2026-05-01T07:33:03Z</time></trkpt><trkpt lat="39.611716755049514" lon="9.345150335910768"><ele>217.0</ele><time>2026-05-01T07:33:04Z</time></trkpt><trkpt lat="39.6118322139053" lon="9.345032628297082"><ele>217.0</ele><time>2026-05-01T07:33:05Z</time></trkpt><trkpt lat="39.61193888208904" lon="9.34491990335013"><ele>217.0</ele><time>2026-05-01T07:33:06Z</time></trkpt><trkpt lat="39.612035710623765" lon="9.344815965684626"><ele>217.0</ele><time>2026-05-01T07:33:07Z</time></trkpt><trkpt lat="39.612128627946724" lon="9.344723729597614"><ele>217.0</ele><time>2026-05-01T07:33:08Z</time></trkpt><trkpt lat="39.612219899860875" lon="9.34464516695054"><ele>216.6</ele><time>2026-05-01T07:33:09Z</time></trkpt><trkpt lat="39.61231329375505" lon="9.344586464162084"><ele>216.2</ele><time>2026-05-01T07:33:10Z</time></trkpt><trkpt lat="39.612410328373706" lon="9.344564506370164"><ele>215.8</ele><time>2026-05-01T07:33:11Z</time></trkpt><trkpt lat="39.612516479422666" lon="9.344578660666802"><ele>215.4</ele><time>2026-05-01T07:33:12Z</time></trkpt><trkpt lat="39.6126331526917" lon="9.344616646894488"><ele>215.0</ele><time>2026-05-01T07:33:13Z</time></trkpt><trkpt lat="39.61275889313981" lon="9.344634245962549"><ele>216.0</ele><time>2026-05-01T07:33:14Z</time></trkpt><trkpt lat="39.612884869418984" lon="9.344617148696699"><ele>217.0</ele><time>2026-05-01T07:33:15Z</time></trkpt><trkpt lat="39.613015749628815" lon="9.344554539830074"><ele>218.0</ele><time>2026-05-01T07:33:16Z</time></trkpt><trkpt lat="39.61314621747591" lon="9.344462823952968"><ele>219.0</ele><time>2026-05-01T07:33:17Z</time></trkpt><trkpt lat="39.613270943331855" lon="9.344351688281295"><ele>219.0</ele><time>2026-05-01T07:33:18Z</time></trkpt><trkpt lat="39.61339825149264" lon="9.344246263756842"><ele>219.0</ele><time>2026-05-01T07:33:19Z</time></trkpt><trkpt lat="39.61352707886198" lon="9.34416332507814"><ele>219.0</ele><time>2026-05-01T07:33:20Z</time></trkpt><trkpt lat="39.61366064131674" lon="9.344124708533279"><ele>219.0</ele><time>2026-05-01T07:33:21Z</time></trkpt><trkpt lat="39.61380620437657" lon="9.344116647761648"><ele>223.0</ele><time>2026-05-01T07:33:22Z</time></trkpt><trkpt lat="39.613958642518206" lon="9.344079077540473"><ele>227.0</ele><time>2026-05-01T07:33:23Z</time></trkpt><trkpt lat="39.61411274846672" lon="9.344005110400953"><ele>231.0</ele><time>2026-05-01T07:33:24Z</time></trkpt><trkpt lat="39.614254038860636" lon="9.3439229463359"><ele>231.0</ele><time>2026-05-01T07:33:25Z</time></trkpt><trkpt lat="39.61439363794481" lon="9.343854255012948"><ele>231.0</ele><time>2026-05-01T07:33:26Z</time></trkpt><trkpt lat="39.61453866646548" lon="9.343817136957966"><ele>231.0</ele><time>2026-05-01T07:33:27Z</time></trkpt><trkpt lat="39.6146798562853" lon="9.343839336758837"><ele>231.0</ele><time>2026-05-01T07:33:28Z</time></trkpt><trkpt lat="39.61481267920821" lon="9.343921294947945"><ele>231.0</ele><time>2026-05-01T07:33:29Z</time></trkpt><trkpt lat="39.614936665546786" lon="9.344053250097986"><ele>231.0</ele><time>2026-05-01T07:33:30Z</time></trkpt><trkpt lat="39.61506400753096" lon="9.344191352903259"><ele>231.0</ele><time>2026-05-01T07:33:31Z</time></trkpt><trkpt lat="39.61519986309067" lon="9.344326376369661"><ele>230.66666666666669</ele><time>2026-05-01T07:33:32Z</time></trkpt><trkpt lat="39.61534233672295" lon="9.344466349806769"><ele>230.33333333333334</ele><time>2026-05-01T07:33:33Z</time></trkpt><trkpt lat="39.615485708619694" lon="9.344606910870466"><ele>230.0</ele><time>2026-05-01T07:33:34Z</time></trkpt><trkpt lat="39.61562346619894" lon="9.344752594918209"><ele>233.66666666666669</ele><time>2026-05-01T07:33:35Z</time></trkpt><trkpt lat="39.61576432591823" lon="9.344891289849231"><ele>237.33333333333331</ele><time>2026-05-01T07:33:36Z</time></trkpt><trkpt lat="39.615917831882264" lon="9.34499287600475"><ele>241.0</ele><time>2026-05-01T07:33:37Z</time></trkpt><trkpt lat="39.61608942228374" lon="9.345050895046755"><ele>241.33333333333331</ele><time>2026-05-01T07:33:38Z</time></trkpt><trkpt lat="39.61626965056903" lon="9.345076930459246"><ele>241.66666666666669</ele><time>2026-05-01T07:33:39Z</time></trkpt><trkpt lat="39.616448925378094" lon="9.345084750224888"><ele>242.0</ele><time>2026-05-01T07:33:40Z</time></trkpt><trkpt lat="39.61663180497629" lon="9.345092948377374"><ele>242.0</ele><time>2026-05-01T07:33:41Z</time></trkpt><trkpt lat="39.616805234054674" lon="9.345125153183584"><ele>242.0</ele><time>2026-05-01T07:33:42Z</time></trkpt><trkpt lat="39.61696264092875" lon="9.345206762541126"><ele>242.0</ele><time>2026-05-01T07:33:43Z</time></trkpt><trkpt lat="39.61710419793776" lon="9.345336012258274"><ele>241.33333333333334</ele><time>2026-05-01T07:33:44Z</time></trkpt><trkpt lat="39.617234815891806" lon="9.345476736514536"><ele>240.66666666666669</ele><time>2026-05-01T07:33:45Z</time></trkpt><trkpt lat="39.617370142888234" lon="9.345622796977375"><ele>240.0</ele><time>2026-05-01T07:33:46Z</time></trkpt><trkpt lat="39.617507578775154" lon="9.345764902627879"><ele>243.66666666666669</ele><time>2026-05-01T07:33:47Z</time></trkpt><trkpt lat="39.61763792457903" lon="9.345903060230665"><ele>247.33333333333334</ele><time>2026-05-01T07:33:48Z</time></trkpt><trkpt lat="39.61774790820085" lon="9.346043112055622"><ele>251.0</ele><time>2026-05-01T07:33:49Z</time></trkpt><trkpt lat="39.61782660464057" lon="9.346212780226914"><ele>251.33333333333334</ele><time>2026-05-01T07:33:50Z</time></trkpt><trkpt lat="39.61786553296009" lon="9.346411509022964"><ele>251.66666666666669</ele><time>2026-05-01T07:33:51Z</time></trkpt><trkpt lat="39.61786905971694" lon="9.346620463331991"><ele>252.0</ele><time>2026-05-01T07:33:52Z</time></trkpt><trkpt lat="39.61781196443192" lon="9.346817411257968"><ele>255.33333333333331</ele><time>2026-05-01T07:33:53Z</time></trkpt><trkpt lat="39.61776509003151" lon="9.34703131447902"><ele>258.66666666666663</ele><time>2026-05-01T07:33:54Z</time></trkpt><trkpt lat="39.61769684649117" lon="9.34723666855413"><ele>262.0</ele><time>2026-05-01T07:33:55Z</time></trkpt><trkpt lat="39.61763913564582" lon="9.347453899704064"><ele>264.66666666666663</ele><time>2026-05-01T07:33:56Z</time></trkpt><trkpt lat="39.61758245060771" lon="9.347672496290258"><ele>267.3333333333333</ele><time>2026-05-01T07:33:57Z</time></trkpt><trkpt lat="39.61752496227556" lon="9.347888352864375"><ele>270.0</ele><time>2026-05-01T07:33:58Z</time></trkpt><trkpt lat="39.617467102396645" lon="9.348105350910426"><ele>271.3333333333333</ele><time>2026-05-01T07:33:59Z</time></trkpt><trkpt lat="39.61740872407419" lon="9.348319232710784"><ele>272.66666666666663</ele><time>2026-05-01T07:34:00Z</time></trkpt><trkpt lat="39.61735003539302" lon="9.34853010114604"><ele>274.0</ele><time>2026-05-01T07:34:01Z</time></trkpt><trkpt lat="39.617296220682626" lon="9.348742093666882"><ele>275.3333333333333</ele><time>2026-05-01T07:34:02Z</time></trkpt><trkpt lat="39.6172601128344" lon="9.34896079900747"><ele>276.6666666666667</ele><time>2026-05-01T07:34:03Z</time></trkpt><trkpt lat="39.6172480847776" lon="9.349181252322458"><ele>278.0</ele><time>2026-05-01T07:34:04Z</time></trkpt><trkpt lat="39.61726280970127" lon="9.349406476975954"><ele>278.0</ele><time>2026-05-01T07:34:05Z</time></trkpt><trkpt lat="39.6173194980902" lon="9.349622241503328"><ele>278.0</ele><time>2026-05-01T07:34:06Z</time></trkpt><trkpt lat="39.6173989150176" lon="9.349826942525139"><ele>278.0</ele><time>2026-05-01T07:34:07Z</time></trkpt><trkpt lat="39.617499954659664" lon="9.350015554448019"><ele>280.33333333333337</ele><time>2026-05-01T07:34:08Z</time></trkpt><trkpt lat="39.61762035859993" lon="9.350172051351112"><ele>282.6666666666667</ele><time>2026-05-01T07:34:09Z</time></trkpt><trkpt lat="39.61776420937348" lon="9.350289110277554"><ele>285.0</ele><time>2026-05-01T07:34:10Z</time></trkpt><trkpt lat="39.61792541095904" lon="9.350364535615924"><ele>285.0</ele><time>2026-05-01T07:34:11Z</time></trkpt><trkpt lat="39.618094687751196" lon="9.350416830797394"><ele>285.0</ele><time>2026-05-01T07:34:12Z</time></trkpt><trkpt lat="39.61826633317469" lon="9.350422682871855"><ele>285.0</ele><time>2026-05-01T07:34:13Z</time></trkpt><trkpt lat="39.61843397270101" lon="9.350383331988688"><ele>285.0</ele><time>2026-05-01T07:34:14Z</time></trkpt><trkpt lat="39.61858991702209" lon="9.35031328986192"><ele>285.0</ele><time>2026-05-01T07:34:15Z</time></trkpt><trkpt lat="39.618735651393806" lon="9.350242003103537"><ele>285.0</ele><time>2026-05-01T07:34:16Z</time></trkpt><trkpt lat="39.61887781910378" lon="9.350177293715344"><ele>287.25</ele><time>2026-05-01T07:34:17Z</time></trkpt><trkpt lat="39.619019294527625" lon="9.350112074442178"><ele>289.5</ele><time>2026-05-01T07:34:18Z</time></trkpt><trkpt lat="39.61914894782962" lon="9.3500558976827"><ele>291.75</ele><time>2026-05-01T07:34:19Z</time></trkpt><trkpt lat="39.61927897628734" lon="9.350020894633676"><ele>294.0</ele><time>2026-05-01T07:34:20Z</time></trkpt><trkpt lat="39.619411988937614" lon="9.350022379293486"><ele>292.75</ele><time>2026-05-01T07:34:21Z</time></trkpt><trkpt lat="39.61954192718504" lon="9.350073420055958"><ele>291.5</ele><time>2026-05-01T07:34:22Z</time></trkpt><trkpt lat="39.61966776557365" lon="9.35016721210614"><ele>290.25</ele><time>2026-05-01T07:34:23Z</time></trkpt><trkpt lat="39.61979172835611" lon="9.350264803129104"><ele>289.0</ele><time>2026-05-01T07:34:24Z</time></trkpt><trkpt lat="39.619925306469796" lon="9.350368409902462"><ele>289.0</ele><time>2026-05-01T07:34:25Z</time></trkpt><trkpt lat="39.62006035553176" lon="9.35047043894414"><ele>289.0</ele><time>2026-05-01T07:34:26Z</time></trkpt><trkpt lat="39.620196280127324" lon="9.35055264390109"><ele>289.0</ele><time>2026-05-01T07:34:27Z</time></trkpt><trkpt lat="39.62033605492981" lon="9.350574888960088"><ele>289.0</ele><time>2026-05-01T07:34:28Z</time></trkpt><trkpt lat="39.620480457737706" lon="9.35054589536169"><ele>292.25</ele><time>2026-05-01T07:34:29Z</time></trkpt><trkpt lat="39.620614758160045" lon="9.350480787261601"><ele>295.5</ele><time>2026-05-01T07:34:30Z</time></trkpt><trkpt lat="39.620734196011455" lon="9.35037715831789"><ele>298.75</ele><time>2026-05-01T07:34:31Z</time></trkpt><trkpt lat="39.620829573805" lon="9.350232189925938"><ele>302.0</ele><time>2026-05-01T07:34:32Z</time></trkpt><trkpt lat="39.620896322685525" lon="9.3500693268262"><ele>302.0</ele><time>2026-05-01T07:34:33Z</time></trkpt><trkpt lat="39.62093179852645" lon="9.349891670640933"><ele>302.0</ele><time>2026-05-01T07:34:34Z</time></trkpt><trkpt lat="39.62096942569999" lon="9.349725571404608"><ele>302.0</ele><time>2026-05-01T07:34:35Z</time></trkpt><trkpt lat="39.62104567877387" lon="9.34958627132926"><ele>302.0</ele><time>2026-05-01T07:34:36Z</time></trkpt><trkpt lat="39.621146630162976" lon="9.349470179046588"><ele>303.75</ele><time>2026-05-01T07:34:37Z</time></trkpt><trkpt lat="39.621262188091045" lon="9.349378209470233"><ele>305.5</ele><time>2026-05-01T07:34:38Z</time></trkpt><trkpt lat="39.62140303157122" lon="9.349322365919647"><ele>307.25</ele><time>2026-05-01T07:34:39Z</time></trkpt><trkpt lat="39.62154032390034" lon="9.34925560824486"><ele>309.0</ele><time>2026-05-01T07:34:40Z</time></trkpt><trkpt lat="39.62167350776795" lon="9.349185970307001"><ele>309.0</ele><time>2026-05-01T07:34:41Z</time></trkpt><trkpt lat="39.621793025228534" lon="9.349100050176656"><ele>309.0</ele><time>2026-05-01T07:34:42Z</time></trkpt><trkpt lat="39.621886077698974" lon="9.348978614424356"><ele>309.0</ele><time>2026-05-01T07:34:43Z</time></trkpt><trkpt lat="39.62194304288946" lon="9.348823060651654"><ele>309.0</ele><time>2026-05-01T07:34:44Z</time></trkpt><trkpt lat="39.62195589630301" lon="9.34863641129478"><ele>308.5</ele><time>2026-05-01T07:34:45Z</time></trkpt><trkpt lat="39.62193698845719" lon="9.348444900332192"><ele>308.0</ele><time>2026-05-01T07:34:46Z</time></trkpt><trkpt lat="39.62191729828127" lon="9.348257343217337"><ele>307.5</ele><time>2026-05-01T07:34:47Z</time></trkpt><trkpt lat="39.621894193285925" lon="9.348082966369601"><ele>307.0</ele><time>2026-05-01T07:34:48Z</time></trkpt><trkpt lat="39.621863311604024" lon="9.347911489079863"><ele>311.0</ele><time>2026-05-01T07:34:49Z</time></trkpt><trkpt lat="39.621811773551535" lon="9.347756600774888"><ele>315.0</ele><time>2026-05-01T07:34:50Z</time></trkpt><trkpt lat="39.621710209587484" lon="9.347640644174016"><ele>319.0</ele><time>2026-05-01T07:34:51Z</time></trkpt><trkpt lat="39.62160159128058" lon="9.347567647323372"><ele>323.0</ele><time>2026-05-01T07:34:52Z</time></trkpt><trkpt lat="39.62149871926757" lon="9.347484383159927"><ele>323.0</ele><time>2026-05-01T07:34:53Z</time></trkpt><trkpt lat="39.62140473682925" lon="9.347412343141611"><ele>323.0</ele><time>2026-05-01T07:34:54Z</time></trkpt><trkpt lat="39.62132511894078" lon="9.347320899734244"><ele>323.0</ele><time>2026-05-01T07:34:55Z</time></trkpt><trkpt lat="39.62122979456817" lon="9.347250025146108"><ele>323.0</ele><time>2026-05-01T07:34:56Z</time></trkpt><trkpt lat="39.62117636943832" lon="9.347127463030898"><ele>323.0</ele><time>2026-05-01T07:34:57Z</time></trkpt><trkpt lat="39.62112064921913" lon="9.347012542750551"><ele>323.0</ele><time>2026-05-01T07:34:58Z</time></trkpt><trkpt lat="39.62108090759554" lon="9.346896586063764"><ele>323.0</ele><time>2026-05-01T07:34:59Z</time></trkpt><trkpt lat="39.62105957192427" lon="9.346780096823705"><ele>323.0</ele><time>2026-05-01T07:35:00Z</time></trkpt><trkpt lat="39.62106291393524" lon="9.346673637725617"><ele>323.0</ele><time>2026-05-01T07:35:01Z</time></trkpt><trkpt lat="39.62112272005144" lon="9.346597061029245"><ele>323.0</ele><time>2026-05-01T07:35:02Z</time></trkpt><trkpt lat="39.62120581052851" lon="9.346557816960999"><ele>323.0</ele><time>2026-05-01T07:35:03Z</time></trkpt><trkpt lat="39.621299720366416" lon="9.346570457881612"><ele>323.0</ele><time>2026-05-01T07:35:04Z</time></trkpt><trkpt lat="39.62139396300777" lon="9.346647338190191"><ele>323.0</ele><time>2026-05-01T07:35:05Z</time></trkpt><trkpt lat="39.62146689144918" lon="9.346734017690876"><ele>323.0</ele><time>2026-05-01T07:35:06Z</time></trkpt><trkpt lat="39.62153809471695" lon="9.346828378765732"><ele>323.0</ele><time>2026-05-01T07:35:07Z</time></trkpt><trkpt lat="39.621610803582264" lon="9.346919399234629"><ele>323.0</ele><time>2026-05-01T07:35:08Z</time></trkpt><trkpt lat="39.62168571302276" lon="9.347008620704752"><ele>323.0</ele><time>2026-05-01T07:35:09Z</time></trkpt><trkpt lat="39.621763403885915" lon="9.34709695618903"><ele>323.0</ele><time>2026-05-01T07:35:10Z</time></trkpt><trkpt lat="39.62184070213528" lon="9.347187821514062"><ele>323.0</ele><time>2026-05-01T07:35:11Z</time></trkpt><trkpt lat="39.621917800869646" lon="9.347281011905356"><ele>323.0</ele><time>2026-05-01T07:35:12Z</time></trkpt><trkpt lat="39.621991285827065" lon="9.3473780766128"><ele>323.0</ele><time>2026-05-01T07:35:13Z</time></trkpt><trkpt lat="39.62206485892737" lon="9.347466652385803"><ele>324.79999999999995</ele><time>2026-05-01T07:35:14Z</time></trkpt><trkpt lat="39.62213177706568" lon="9.347545716452517"><ele>326.6</ele><time>2026-05-01T07:35:15Z</time></trkpt><trkpt lat="39.622199587419324" lon="9.347625595125788"><ele>328.4</ele><time>2026-05-01T07:35:16Z</time></trkpt><trkpt lat="39.62226711116011" lon="9.347707282385736"><ele>330.20000000000005</ele><time>2026-05-01T07:35:17Z</time></trkpt><trkpt lat="39.62233402433636" lon="9.34778972376229"><ele>332.0</ele><time>2026-05-01T07:35:18Z</time></trkpt><trkpt lat="39.62238659413589" lon="9.347888174038035"><ele>332.0</ele><time>2026-05-01T07:35:19Z</time></trkpt><trkpt lat="39.62241895981691" lon="9.347998886350268"><ele>332.0</ele><time>2026-05-01T07:35:20Z</time></trkpt><trkpt lat="39.62243362440022" lon="9.348120347991815"><ele>332.0</ele><time>2026-05-01T07:35:21Z</time></trkpt><trkpt lat="39.622429673355896" lon="9.348236406090004"><ele>332.0</ele><time>2026-05-01T07:35:22Z</time></trkpt><trkpt lat="39.62241589729094" lon="9.34834971668067"><ele>332.0</ele><time>2026-05-01T07:35:23Z</time></trkpt><trkpt lat="39.62240202844862" lon="9.348457186145314"><ele>332.0</ele><time>2026-05-01T07:35:24Z</time></trkpt><trkpt lat="39.62239605894665" lon="9.348570962145853"><ele>332.0</ele><time>2026-05-01T07:35:25Z</time></trkpt><trkpt lat="39.62240870998836" lon="9.34868125516303"><ele>332.0</ele><time>2026-05-01T07:35:26Z</time></trkpt><trkpt lat="39.6224366975684" lon="9.348788939356801"><ele>332.0</ele><time>2026-05-01T07:35:27Z</time></trkpt><trkpt lat="39.62248466869756" lon="9.348888924543239"><ele>332.0</ele><time>2026-05-01T07:35:28Z</time></trkpt><trkpt lat="39.62253547426591" lon="9.348981003552183"><ele>332.0</ele><time>2026-05-01T07:35:29Z</time></trkpt><trkpt lat="39.62258016221995" lon="9.349066157453073"><ele>332.0</ele><time>2026-05-01T07:35:30Z</time></trkpt><trkpt lat="39.62262594170548" lon="9.349157900918062"><ele>332.0</ele><time>2026-05-01T07:35:31Z</time></trkpt><trkpt lat="39.62265967094341" lon="9.349255772731196"><ele>332.0</ele><time>2026-05-01T07:35:32Z</time></trkpt><trkpt lat="39.62267213043139" lon="9.349365621909165"><ele>332.0</ele><time>2026-05-01T07:35:33Z</time></trkpt><trkpt lat="39.62267762998495" lon="9.349475293017974"><ele>332.0</ele><time>2026-05-01T07:35:34Z</time></trkpt><trkpt lat="39.62267929175279" lon="9.349587573219019"><ele>332.0</ele><time>2026-05-01T07:35:35Z</time></trkpt><trkpt lat="39.62267920845076" lon="9.349692745275117"><ele>332.0</ele><time>2026-05-01T07:35:36Z</time></trkpt><trkpt lat="39.6226858759399" lon="9.349794228075254"><ele>332.33333333333337</ele><time>2026-05-01T07:35:37Z</time></trkpt><trkpt lat="39.62269563553645" lon="9.349889268090237"><ele>332.6666666666667</ele><time>2026-05-01T07:35:38Z</time></trkpt><trkpt lat="39.62270065632671" lon="9.34998328348475"><ele>333.0</ele><time>2026-05-01T07:35:39Z</time></trkpt><trkpt lat="39.62269974625065" lon="9.350076951137233"><ele>333.3333333333333</ele><time>2026-05-01T07:35:40Z</time></trkpt><trkpt lat="39.62270163462699" lon="9.350178389958202"><ele>333.66666666666663</ele><time>2026-05-01T07:35:41Z</time></trkpt><trkpt lat="39.622697568057326" lon="9.350276354127175"><ele>334.0</ele><time>2026-05-01T07:35:42Z</time></trkpt><trkpt lat="39.622700478460104" lon="9.350386116476985"><ele>334.0</ele><time>2026-05-01T07:35:43Z</time></trkpt><trkpt lat="39.6226859032508" lon="9.350490960172628"><ele>334.0</ele><time>2026-05-01T07:35:44Z</time></trkpt><trkpt lat="39.62265917080993" lon="9.350594717622922"><ele>334.0</ele><time>2026-05-01T07:35:45Z</time></trkpt><trkpt lat="39.62263745263556" lon="9.350677491568428"><ele>334.0</ele><time>2026-05-01T07:35:46Z</time></trkpt><trkpt lat="39.62262801411748" lon="9.350779941454647"><ele>334.0</ele><time>2026-05-01T07:35:47Z</time></trkpt><trkpt lat="39.622658535586474" lon="9.35088273885404"><ele>334.0</ele><time>2026-05-01T07:35:48Z</time></trkpt><trkpt lat="39.62271109002466" lon="9.35095090353205"><ele>334.0</ele><time>2026-05-01T07:35:49Z</time></trkpt><trkpt lat="39.62277642751452" lon="9.351001275553273"><ele>334.0</ele><time>2026-05-01T07:35:50Z</time></trkpt><trkpt lat="39.622843496883526" lon="9.351063002008068"><ele>334.0</ele><time>2026-05-01T07:35:51Z</time></trkpt><trkpt lat="39.62291890093586" lon="9.351127215338181"><ele>334.0</ele><time>2026-05-01T07:35:52Z</time></trkpt><trkpt lat="39.62300081893464" lon="9.351171335155177"><ele>334.0</ele><time>2026-05-01T07:35:53Z</time></trkpt><trkpt lat="39.62309135517653" lon="9.35120173099443"><ele>334.0</ele><time>2026-05-01T07:35:54Z</time></trkpt><trkpt lat="39.623185617269336" lon="9.35122203777174"><ele>334.3333333333333</ele><time>2026-05-01T07:35:55Z</time></trkpt><trkpt lat="39.62327539427581" lon="9.351231415126241"><ele>334.66666666666663</ele><time>2026-05-01T07:35:56Z</time></trkpt><trkpt lat="39.62336311016412" lon="9.35125124241014"><ele>335.0</ele><time>2026-05-01T07:35:57Z</time></trkpt><trkpt lat="39.623447647839384" lon="9.351285905741703"><ele>335.3333333333333</ele><time>2026-05-01T07:35:58Z</time></trkpt><trkpt lat="39.62353094799192" lon="9.351319404275623"><ele>335.6666666666667</ele><time>2026-05-01T07:35:59Z</time></trkpt><trkpt lat="39.623609481351686" lon="9.35135413942063"><ele>336.0</ele><time>2026-05-01T07:36:00Z</time></trkpt><trkpt lat="39.623688085449224" lon="9.35137741526943"><ele>336.0</ele><time>2026-05-01T07:36:01Z</time></trkpt><trkpt lat="39.62376478519857" lon="9.351406193775027"><ele>336.0</ele><time>2026-05-01T07:36:02Z</time></trkpt><trkpt lat="39.623837361244405" lon="9.351434904408451"><ele>336.0</ele><time>2026-05-01T07:36:03Z</time></trkpt><trkpt lat="39.623908186424806" lon="9.351475817639926"><ele>336.0</ele><time>2026-05-01T07:36:04Z</time></trkpt><trkpt lat="39.62397105078461" lon="9.351535884335513"><ele>336.0</ele><time>2026-05-01T07:36:05Z</time></trkpt><trkpt lat="39.624019717529784" lon="9.351606557498473"><ele>336.0</ele><time>2026-05-01T07:36:06Z</time></trkpt><trkpt lat="39.62409943142412" lon="9.351741570743304"><ele>336.0</ele><time>2026-05-01T07:36:08Z</time></trkpt><trkpt lat="39.624144465322274" lon="9.351813798492651"><ele>336.0</ele><time>2026-05-01T07:36:09Z</time></trkpt><trkpt lat="39.624190302965424" lon="9.351893384686138"><ele>336.0</ele><time>2026-05-01T07:36:10Z</time></trkpt><trkpt lat="39.624234361854164" lon="9.351978837277626"><ele>336.0</ele><time>2026-05-01T07:36:11Z</time></trkpt><trkpt lat="39.62428064571568" lon="9.35206126301213"><ele>336.0</ele><time>2026-05-01T07:36:12Z</time></trkpt><trkpt lat="39.624321130232154" lon="9.352152558501244"><ele>336.0</ele><time>2026-05-01T07:36:13Z</time></trkpt><trkpt lat="39.62436150357697" lon="9.352241418154138"><ele>335.5</ele><time>2026-05-01T07:36:14Z</time></trkpt><trkpt lat="39.62440317780357" lon="9.352330059650182"><ele>335.0</ele><time>2026-05-01T07:36:15Z</time></trkpt><trkpt lat="39.624437588578786" lon="9.352425823456986"><ele>334.5</ele><time>2026-05-01T07:36:16Z</time></trkpt><trkpt lat="39.62446562504162" lon="9.352526419071095"><ele>334.0</ele><time>2026-05-01T07:36:17Z</time></trkpt><trkpt lat="39.62448163759626" lon="9.352619921069715"><ele>333.5</ele><time>2026-05-01T07:36:18Z</time></trkpt><trkpt lat="39.6244961663423" lon="9.352788443331578"><ele>333.0</ele><time>2026-05-01T07:36:20Z</time></trkpt><trkpt lat="39.62448992673187" lon="9.352882856149822"><ele>332.8333333333333</ele><time>2026-05-01T07:36:21Z</time></trkpt><trkpt lat="39.624477198740664" lon="9.352984752501268"><ele>332.6666666666667</ele><time>2026-05-01T07:36:22Z</time></trkpt><trkpt lat="39.62446369475166" lon="9.353089242036884"><ele>332.5</ele><time>2026-05-01T07:36:23Z</time></trkpt><trkpt lat="39.62445285846476" lon="9.353199373342237"><ele>332.33333333333337</ele><time>2026-05-01T07:36:24Z</time></trkpt><trkpt lat="39.62444317530657" lon="9.353307694802703"><ele>332.1666666666667</ele><time>2026-05-01T07:36:25Z</time></trkpt><trkpt lat="39.6244347390818" lon="9.353412186063085"><ele>332.0</ele><time>2026-05-01T07:36:26Z</time></trkpt><trkpt lat="39.62442971537082" lon="9.353514612770859"><ele>332.33333333333337</ele><time>2026-05-01T07:36:27Z</time></trkpt><trkpt lat="39.62442759886518" lon="9.353622092230948"><ele>332.6666666666667</ele><time>2026-05-01T07:36:28Z</time></trkpt><trkpt lat="39.62443934551499" lon="9.353727800848048"><ele>333.0</ele><time>2026-05-01T07:36:29Z</time></trkpt><trkpt lat="39.624460415980295" lon="9.353832646618526"><ele>333.3333333333333</ele><time>2026-05-01T07:36:30Z</time></trkpt><trkpt lat="39.624496850704844" lon="9.353935087089575"><ele>333.66666666666663</ele><time>2026-05-01T07:36:31Z</time></trkpt><trkpt lat="39.62454412681194" lon="9.354026066439621"><ele>334.0</ele><time>2026-05-01T07:36:32Z</time></trkpt><trkpt lat="39.624595145656784" lon="9.354109713791896"><ele>335.6</ele><time>2026-05-01T07:36:33Z</time></trkpt><trkpt lat="39.62465535246383" lon="9.354186906737976"><ele>337.2</ele><time>2026-05-01T07:36:34Z</time></trkpt><trkpt lat="39.62472420754439" lon="9.354255656812992"><ele>338.8</ele><time>2026-05-01T07:36:35Z</time></trkpt><trkpt lat="39.62479466403103" lon="9.35432570770848"><ele>340.40000000000003</ele><time>2026-05-01T07:36:36Z</time></trkpt><trkpt lat="39.624872028119974" lon="9.354395642270728"><ele>342.0</ele><time>2026-05-01T07:36:37Z</time></trkpt><trkpt lat="39.62495170980352" lon="9.354466959401703"><ele>342.0</ele><time>2026-05-01T07:36:38Z</time></trkpt><trkpt lat="39.62503254100292" lon="9.354544106621582"><ele>342.0</ele><time>2026-05-01T07:36:39Z</time></trkpt><trkpt lat="39.62511728968771" lon="9.35462185554317"><ele>342.0</ele><time>2026-05-01T07:36:40Z</time></trkpt><trkpt lat="39.62520290718361" lon="9.354707789913787"><ele>342.0</ele><time>2026-05-01T07:36:41Z</time></trkpt><trkpt lat="39.6252848865673" lon="9.354802251013673"><ele>342.0</ele><time>2026-05-01T07:36:42Z</time></trkpt><trkpt lat="39.62536280712385" lon="9.3549011618255"><ele>342.40000000000003</ele><time>2026-05-01T07:36:43Z</time></trkpt><trkpt lat="39.625437107492914" lon="9.354998130888289"><ele>342.8</ele><time>2026-05-01T07:36:44Z</time></trkpt><trkpt lat="39.62551217103433" lon="9.355090696026567"><ele>343.2</ele><time>2026-05-01T07:36:45Z</time></trkpt><trkpt lat="39.625586457911936" lon="9.355179875908725"><ele>343.6</ele><time>2026-05-01T07:36:46Z</time></trkpt><trkpt lat="39.625657173841525" lon="9.355267989121273"><ele>344.0</ele><time>2026-05-01T07:36:47Z</time></trkpt><trkpt lat="39.62572700476169" lon="9.355357213558857"><ele>344.0</ele><time>2026-05-01T07:36:48Z</time></trkpt><trkpt lat="39.625804295108765" lon="9.355425847240344"><ele>344.0</ele><time>2026-05-01T07:36:49Z</time></trkpt><trkpt lat="39.62588950773539" lon="9.355471487363545"><ele>344.0</ele><time>2026-05-01T07:36:50Z</time></trkpt><trkpt lat="39.625980705130516" lon="9.35549892631233"><ele>344.0</ele><time>2026-05-01T07:36:51Z</time></trkpt><trkpt lat="39.626074979304306" lon="9.3555108875315"><ele>344.0</ele><time>2026-05-01T07:36:52Z</time></trkpt><trkpt lat="39.62616466437413" lon="9.355509354939652"><ele>343.5714285714286</ele><time>2026-05-01T07:36:53Z</time></trkpt><trkpt lat="39.62624446896342" lon="9.355506863174606"><ele>343.14285714285717</ele><time>2026-05-01T07:36:54Z</time></trkpt><trkpt lat="39.626314555155275" lon="9.35549802081127"><ele>342.7142857142857</ele><time>2026-05-01T07:36:55Z</time></trkpt><trkpt lat="39.626377754578556" lon="9.355492433097695"><ele>342.28571428571433</ele><time>2026-05-01T07:36:56Z</time></trkpt><trkpt lat="39.626453616794514" lon="9.355495708184042"><ele>341.8571428571429</ele><time>2026-05-01T07:36:57Z</time></trkpt><trkpt lat="39.62652446446299" lon="9.355501523388934"><ele>341.42857142857144</ele><time>2026-05-01T07:36:58Z</time></trkpt><trkpt lat="39.62660235726708" lon="9.355507858156862"><ele>341.0</ele><time>2026-05-01T07:36:59Z</time></trkpt><trkpt lat="39.626685725725466" lon="9.355506534726896"><ele>341.0</ele><time>2026-05-01T07:37:00Z</time></trkpt><trkpt lat="39.626773839888415" lon="9.355503572410663"><ele>341.0</ele><time>2026-05-01T07:37:01Z</time></trkpt><trkpt lat="39.626863280830264" lon="9.35550967879475"><ele>341.0</ele><time>2026-05-01T07:37:02Z</time></trkpt><trkpt lat="39.62695129034607" lon="9.355529197286932"><ele>341.0</ele><time>2026-05-01T07:37:03Z</time></trkpt><trkpt lat="39.627040040317155" lon="9.35555297651834"><ele>341.0</ele><time>2026-05-01T07:37:04Z</time></trkpt><trkpt lat="39.6271291271724" lon="9.35557871705034"><ele>341.0</ele><time>2026-05-01T07:37:05Z</time></trkpt><trkpt lat="39.62721829781397" lon="9.355601571894336"><ele>340.8</ele><time>2026-05-01T07:37:06Z</time></trkpt><trkpt lat="39.62731218328582" lon="9.355626320385474"><ele>340.6</ele><time>2026-05-01T07:37:07Z</time></trkpt><trkpt lat="39.62740640280564" lon="9.355653453758704"><ele>340.4</ele><time>2026-05-01T07:37:08Z</time></trkpt><trkpt lat="39.62750167346663" lon="9.355680992913648"><ele>340.2</ele><time>2026-05-01T07:37:09Z</time></trkpt><trkpt lat="39.627600850246544" lon="9.355702302653455"><ele>340.0</ele><time>2026-05-01T07:37:10Z</time></trkpt><trkpt lat="39.62769896389747" lon="9.355742260743295"><ele>340.0</ele><time>2026-05-01T07:37:11Z</time></trkpt><trkpt lat="39.627799639599544" lon="9.355769632306869"><ele>340.0</ele><time>2026-05-01T07:37:12Z</time></trkpt><trkpt lat="39.627886316489885" lon="9.355780829859379"><ele>340.0</ele><time>2026-05-01T07:37:13Z</time></trkpt><trkpt lat="39.627981590387265" lon="9.355806139947724"><ele>340.0</ele><time>2026-05-01T07:37:14Z</time></trkpt><trkpt lat="39.62807591002987" lon="9.35583318032714"><ele>340.0</ele><time>2026-05-01T07:37:15Z</time></trkpt><trkpt lat="39.62817190328217" lon="9.355856859193645"><ele>340.8</ele><time>2026-05-01T07:37:16Z</time></trkpt><trkpt lat="39.628271492423124" lon="9.355885738608237"><ele>341.6</ele><time>2026-05-01T07:37:17Z</time></trkpt><trkpt lat="39.62837142993723" lon="9.355914283603433"><ele>342.4</ele><time>2026-05-01T07:37:18Z</time></trkpt><trkpt lat="39.628473037882834" lon="9.35594106448852"><ele>343.2</ele><time>2026-05-01T07:37:19Z</time></trkpt><trkpt lat="39.628577677337084" lon="9.355979107558268"><ele>344.0</ele><time>2026-05-01T07:37:20Z</time></trkpt><trkpt lat="39.62867967755123" lon="9.356037410119018"><ele>344.4</ele><time>2026-05-01T07:37:21Z</time></trkpt><trkpt lat="39.628779047053705" lon="9.35610016616847"><ele>344.79999999999995</ele><time>2026-05-01T07:37:22Z</time></trkpt><trkpt lat="39.62887813095189" lon="9.356165613040934"><ele>345.20000000000005</ele><time>2026-05-01T07:37:23Z</time></trkpt><trkpt lat="39.628976987469194" lon="9.356232588556383"><ele>345.6</ele><time>2026-05-01T07:37:24Z</time></trkpt><trkpt lat="39.62907462258004" lon="9.356302740417327"><ele>346.0</ele><time>2026-05-01T07:37:25Z</time></trkpt><trkpt lat="39.62917285743646" lon="9.356374551607717"><ele>346.75</ele><time>2026-05-01T07:37:26Z</time></trkpt><trkpt lat="39.62927147572803" lon="9.356446229873017"><ele>347.5</ele><time>2026-05-01T07:37:27Z</time></trkpt><trkpt lat="39.62937251080447" lon="9.356519080364858"><ele>348.25</ele><time>2026-05-01T07:37:28Z</time></trkpt><trkpt lat="39.62947323021253" lon="9.356591074376738"><ele>349.0</ele><time>2026-05-01T07:37:29Z</time></trkpt><trkpt lat="39.62957484456177" lon="9.356666202306938"><ele>347.5</ele><time>2026-05-01T07:37:30Z</time></trkpt><trkpt lat="39.62967622837823" lon="9.356740980324712"><ele>346.0</ele><time>2026-05-01T07:37:31Z</time></trkpt><trkpt lat="39.629773699148245" lon="9.356815233772192"><ele>344.5</ele><time>2026-05-01T07:37:32Z</time></trkpt><trkpt lat="39.629871105806735" lon="9.356889664186234"><ele>343.0</ele><time>2026-05-01T07:37:33Z</time></trkpt><trkpt lat="39.62996747016916" lon="9.356961329200711"><ele>343.0</ele><time>2026-05-01T07:37:34Z</time></trkpt><trkpt lat="39.63006262582502" lon="9.357034296698158"><ele>343.0</ele><time>2026-05-01T07:37:35Z</time></trkpt><trkpt lat="39.630153780889536" lon="9.357110525966366"><ele>343.0</ele><time>2026-05-01T07:37:36Z</time></trkpt><trkpt lat="39.63024513639433" lon="9.357186066368124"><ele>343.0</ele><time>2026-05-01T07:37:37Z</time></trkpt><trkpt lat="39.6303374394413" lon="9.357257012779328"><ele>343.0</ele><time>2026-05-01T07:37:38Z</time></trkpt><trkpt lat="39.6304284850637" lon="9.357326050781293"><ele>343.79999999999995</ele><time>2026-05-01T07:37:39Z</time></trkpt><trkpt lat="39.6305205758896" lon="9.357395304578365"><ele>344.6</ele><time>2026-05-01T07:37:40Z</time></trkpt><trkpt lat="39.63061622847546" lon="9.357469540360103"><ele>345.4</ele><time>2026-05-01T07:37:41Z</time></trkpt><trkpt lat="39.63071198256396" lon="9.357543856443996"><ele>346.20000000000005</ele><time>2026-05-01T07:37:42Z</time></trkpt><trkpt lat="39.63081218778078" lon="9.357622471306572"><ele>347.0</ele><time>2026-05-01T07:37:43Z</time></trkpt><trkpt lat="39.63091046081968" lon="9.35769810841505"><ele>347.0</ele><time>2026-05-01T07:37:44Z</time></trkpt><trkpt lat="39.63101221650295" lon="9.357775599024235"><ele>347.0</ele><time>2026-05-01T07:37:45Z</time></trkpt><trkpt lat="39.63111812187785" lon="9.357850468852142"><ele>347.0</ele><time>2026-05-01T07:37:46Z</time></trkpt><trkpt lat="39.63122561606252" lon="9.357924982926244"><ele>347.0</ele><time>2026-05-01T07:37:47Z</time></trkpt><trkpt lat="39.63133844540281" lon="9.357996511254088"><ele>349.25</ele><time>2026-05-01T07:37:48Z</time></trkpt><trkpt lat="39.63146082334349" lon="9.358051399647353"><ele>351.5</ele><time>2026-05-01T07:37:49Z</time></trkpt><trkpt lat="39.631594961436996" lon="9.358074196974524"><ele>353.75</ele><time>2026-05-01T07:37:50Z</time></trkpt><trkpt lat="39.63173090753654" lon="9.358076008030428"><ele>356.0</ele><time>2026-05-01T07:37:51Z</time></trkpt><trkpt lat="39.631866939641434" lon="9.358055020453028"><ele>357.5</ele><time>2026-05-01T07:37:52Z</time></trkpt><trkpt lat="39.632001800467194" lon="9.35801531618411"><ele>359.0</ele><time>2026-05-01T07:37:53Z</time></trkpt><trkpt lat="39.632136270510856" lon="9.35796191109165"><ele>360.5</ele><time>2026-05-01T07:37:54Z</time></trkpt><trkpt lat="39.632271722930895" lon="9.357904527805385"><ele>362.0</ele><time>2026-05-01T07:37:55Z</time></trkpt><trkpt lat="39.632407272733886" lon="9.357851051867701"><ele>362.0</ele><time>2026-05-01T07:37:56Z</time></trkpt><trkpt lat="39.63254266849386" lon="9.357794985944311"><ele>362.0</ele><time>2026-05-01T07:37:57Z</time></trkpt><trkpt lat="39.63267600019834" lon="9.357726770576228"><ele>362.0</ele><time>2026-05-01T07:37:58Z</time></trkpt><trkpt lat="39.632812978872785" lon="9.35765657590493"><ele>362.0</ele><time>2026-05-01T07:37:59Z</time></trkpt><trkpt lat="39.632953494109714" lon="9.3575920102619"><ele>361.0</ele><time>2026-05-01T07:38:00Z</time></trkpt><trkpt lat="39.633098450740725" lon="9.357527637658343"><ele>360.0</ele><time>2026-05-01T07:38:01Z</time></trkpt><trkpt lat="39.63324629052817" lon="9.357460243205406"><ele>359.0</ele><time>2026-05-01T07:38:02Z</time></trkpt><trkpt lat="39.633391582692646" lon="9.357393805849568"><ele>359.0</ele><time>2026-05-01T07:38:03Z</time></trkpt><trkpt lat="39.6335370480544" lon="9.357328065522713"><ele>359.0</ele><time>2026-05-01T07:38:04Z</time></trkpt><trkpt lat="39.63368250254728" lon="9.357261912616384"><ele>359.0</ele><time>2026-05-01T07:38:05Z</time></trkpt><trkpt lat="39.633830416640656" lon="9.357194172034308"><ele>358.0</ele><time>2026-05-01T07:38:06Z</time></trkpt><trkpt lat="39.63397767253572" lon="9.357128883102513"><ele>357.0</ele><time>2026-05-01T07:38:07Z</time></trkpt><trkpt lat="39.6341269744352" lon="9.35706308153322"><ele>356.0</ele><time>2026-05-01T07:38:08Z</time></trkpt><trkpt lat="39.63427373588341" lon="9.35699430355708"><ele>356.0</ele><time>2026-05-01T07:38:09Z</time></trkpt><trkpt lat="39.634420566211084" lon="9.356923072260317"><ele>356.0</ele><time>2026-05-01T07:38:10Z</time></trkpt><trkpt lat="39.634569965818095" lon="9.356857219270069"><ele>356.0</ele><time>2026-05-01T07:38:11Z</time></trkpt><trkpt lat="39.63472060112511" lon="9.356795587211653"><ele>357.0</ele><time>2026-05-01T07:38:12Z</time></trkpt><trkpt lat="39.63487465588001" lon="9.356729986288508"><ele>358.0</ele><time>2026-05-01T07:38:13Z</time></trkpt><trkpt lat="39.635029913438224" lon="9.35666302876423"><ele>359.0</ele><time>2026-05-01T07:38:14Z</time></trkpt><trkpt lat="39.635187310137816" lon="9.356592834837612"><ele>359.6666666666667</ele><time>2026-05-01T07:38:15Z</time></trkpt><trkpt lat="39.63534928908731" lon="9.356517214032737"><ele>360.3333333333333</ele><time>2026-05-01T07:38:16Z</time></trkpt><trkpt lat="39.63551441135385" lon="9.35644026016512"><ele>361.0</ele><time>2026-05-01T07:38:17Z</time></trkpt><trkpt lat="39.635686833618" lon="9.356364064292945"><ele>361.0</ele><time>2026-05-01T07:38:18Z</time></trkpt><trkpt lat="39.63586445922735" lon="9.35628620778776"><ele>361.0</ele><time>2026-05-01T07:38:19Z</time></trkpt><trkpt lat="39.636043046932684" lon="9.356209382199195"><ele>361.0</ele><time>2026-05-01T07:38:20Z</time></trkpt><trkpt lat="39.636228378492405" lon="9.356126625102807"><ele>360.0</ele><time>2026-05-01T07:38:21Z</time></trkpt><trkpt lat="39.63641977949704" lon="9.356040354067892"><ele>359.0</ele><time>2026-05-01T07:38:22Z</time></trkpt><trkpt lat="39.63661487295998" lon="9.355950605511028"><ele>358.0</ele><time>2026-05-01T07:38:23Z</time></trkpt><trkpt lat="39.63680875000914" lon="9.355858556619658"><ele>357.66666666666663</ele><time>2026-05-01T07:38:24Z</time></trkpt><trkpt lat="39.637004348112875" lon="9.35576754880149"><ele>357.3333333333333</ele><time>2026-05-01T07:38:25Z</time></trkpt><trkpt lat="39.63720587026695" lon="9.355670265961404"><ele>357.0</ele><time>2026-05-01T07:38:26Z</time></trkpt><trkpt lat="39.637415477810315" lon="9.355577680407247"><ele>356.6666666666667</ele><time>2026-05-01T07:38:27Z</time></trkpt><trkpt lat="39.637623286436714" lon="9.355484458513024"><ele>356.33333333333337</ele><time>2026-05-01T07:38:28Z</time></trkpt><trkpt lat="39.63783083255183" lon="9.355394569560131"><ele>356.0</ele><time>2026-05-01T07:38:29Z</time></trkpt><trkpt lat="39.63803903674548" lon="9.35530224705569"><ele>357.0</ele><time>2026-05-01T07:38:30Z</time></trkpt><trkpt lat="39.63824804479056" lon="9.355209953596177"><ele>358.0</ele><time>2026-05-01T07:38:31Z</time></trkpt><trkpt lat="39.63845513588491" lon="9.355119195518451"><ele>359.0</ele><time>2026-05-01T07:38:32Z</time></trkpt><trkpt lat="39.6386599620255" lon="9.355026335498835"><ele>359.33333333333337</ele><time>2026-05-01T07:38:33Z</time></trkpt><trkpt lat="39.638867476565075" lon="9.354936618910317"><ele>359.6666666666667</ele><time>2026-05-01T07:38:34Z</time></trkpt><trkpt lat="39.63907288548541" lon="9.354846748796323"><ele>360.0</ele><time>2026-05-01T07:38:35Z</time></trkpt><trkpt lat="39.63927715119131" lon="9.354755040353423"><ele>359.6666666666667</ele><time>2026-05-01T07:38:36Z</time></trkpt><trkpt lat="39.63948264462656" lon="9.354662189795597"><ele>359.33333333333337</ele><time>2026-05-01T07:38:37Z</time></trkpt><trkpt lat="39.63968482893599" lon="9.354570645253316"><ele>359.0</ele><time>2026-05-01T07:38:38Z</time></trkpt><trkpt lat="39.63988720938451" lon="9.354481029074039"><ele>359.0</ele><time>2026-05-01T07:38:39Z</time></trkpt><trkpt lat="39.640090578404674" lon="9.354391644707155"><ele>359.0</ele><time>2026-05-01T07:38:40Z</time></trkpt><trkpt lat="39.64029109900963" lon="9.354301653488863"><ele>359.0</ele><time>2026-05-01T07:38:41Z</time></trkpt><trkpt lat="39.640496850052216" lon="9.354210047357554"><ele>359.6666666666667</ele><time>2026-05-01T07:38:42Z</time></trkpt><trkpt lat="39.64070000725694" lon="9.354117788873918"><ele>360.3333333333333</ele><time>2026-05-01T07:38:43Z</time></trkpt><trkpt lat="39.64090077899774" lon="9.35402666509169"><ele>361.0</ele><time>2026-05-01T07:38:44Z</time></trkpt><trkpt lat="39.64110058706402" lon="9.353939474763333"><ele>362.66666666666663</ele><time>2026-05-01T07:38:45Z</time></trkpt><trkpt lat="39.64130070303841" lon="9.353876371196007"><ele>364.3333333333333</ele><time>2026-05-01T07:38:46Z</time></trkpt><trkpt lat="39.641506357077034" lon="9.353870984264562"><ele>366.0</ele><time>2026-05-01T07:38:47Z</time></trkpt><trkpt lat="39.641710697597254" lon="9.353882270249732"><ele>366.0</ele><time>2026-05-01T07:38:48Z</time></trkpt><trkpt lat="39.641910933865816" lon="9.353948530937744"><ele>366.0</ele><time>2026-05-01T07:38:49Z</time></trkpt><trkpt lat="39.642104076300384" lon="9.35405545671546"><ele>366.0</ele><time>2026-05-01T07:38:50Z</time></trkpt><trkpt lat="39.64229144267832" lon="9.354179396415658"><ele>367.6666666666667</ele><time>2026-05-01T07:38:51Z</time></trkpt><trkpt lat="39.64246813906948" lon="9.354324137812846"><ele>369.33333333333337</ele><time>2026-05-01T07:38:52Z</time></trkpt><trkpt lat="39.64264192234748" lon="9.35447318813373"><ele>371.0</ele><time>2026-05-01T07:38:53Z</time></trkpt><trkpt lat="39.64281469542236" lon="9.354619564907118"><ele>373.0</ele><time>2026-05-01T07:38:54Z</time></trkpt><trkpt lat="39.642985804982565" lon="9.354761011983163"><ele>375.0</ele><time>2026-05-01T07:38:55Z</time></trkpt><trkpt lat="39.643151979118386" lon="9.35489918936651"><ele>377.0</ele><time>2026-05-01T07:38:56Z</time></trkpt><trkpt lat="39.64331863601279" lon="9.355035788802402"><ele>377.0</ele><time>2026-05-01T07:38:57Z</time></trkpt><trkpt lat="39.64348801143291" lon="9.355158098343445"><ele>377.0</ele><time>2026-05-01T07:38:58Z</time></trkpt><trkpt lat="39.64366498560388" lon="9.355250462292657"><ele>377.0</ele><time>2026-05-01T07:38:59Z</time></trkpt><trkpt lat="39.64385271685964" lon="9.355288684531669"><ele>376.6666666666667</ele><time>2026-05-01T07:39:00Z</time></trkpt><trkpt lat="39.64404307391205" lon="9.355288587863807"><ele>376.3333333333333</ele><time>2026-05-01T07:39:01Z</time></trkpt><trkpt lat="39.6442242286255" lon="9.355275927415754"><ele>376.0</ele><time>2026-05-01T07:39:02Z</time></trkpt><trkpt lat="39.64438725739306" lon="9.355264138253384"><ele>376.75</ele><time>2026-05-01T07:39:03Z</time></trkpt><trkpt lat="39.64453929209636" lon="9.355256742275477"><ele>377.5</ele><time>2026-05-01T07:39:04Z</time></trkpt><trkpt lat="39.644675864657664" lon="9.355255870773645"><ele>378.25</ele><time>2026-05-01T07:39:05Z</time></trkpt><trkpt lat="39.644806094768924" lon="9.355263613766374"><ele>379.0</ele><time>2026-05-01T07:39:06Z</time></trkpt><trkpt lat="39.6449383263492" lon="9.355274323986153"><ele>379.0</ele><time>2026-05-01T07:39:07Z</time></trkpt><trkpt lat="39.64507629357342" lon="9.355277115039405"><ele>379.0</ele><time>2026-05-01T07:39:08Z</time></trkpt><trkpt lat="39.645211948878774" lon="9.355276177764427"><ele>379.0</ele><time>2026-05-01T07:39:09Z</time></trkpt><trkpt lat="39.64534762913471" lon="9.355283196580336"><ele>379.0</ele><time>2026-05-01T07:39:10Z</time></trkpt><trkpt lat="39.64548392480473" lon="9.355315108264291"><ele>378.5</ele><time>2026-05-01T07:39:11Z</time></trkpt><trkpt lat="39.64561787231137" lon="9.355376285724924"><ele>378.0</ele><time>2026-05-01T07:39:12Z</time></trkpt><trkpt lat="39.64574426696368" lon="9.355466921361382"><ele>377.5</ele><time>2026-05-01T07:39:13Z</time></trkpt><trkpt lat="39.645855769086324" lon="9.355595147147044"><ele>377.0</ele><time>2026-05-01T07:39:14Z</time></trkpt><trkpt lat="39.6459525650318" lon="9.355743791747392"><ele>379.25</ele><time>2026-05-01T07:39:15Z</time></trkpt><trkpt lat="39.64604014882768" lon="9.355902608126039"><ele>381.5</ele><time>2026-05-01T07:39:16Z</time></trkpt><trkpt lat="39.64612246383418" lon="9.356059547095885"><ele>383.75</ele><time>2026-05-01T07:39:17Z</time></trkpt><trkpt lat="39.646198121668505" lon="9.356204809494914"><ele>386.0</ele><time>2026-05-01T07:39:18Z</time></trkpt><trkpt lat="39.646271580161056" lon="9.356334367217547"><ele>387.5</ele><time>2026-05-01T07:39:19Z</time></trkpt><trkpt lat="39.646350581561826" lon="9.356460755991556"><ele>389.0</ele><time>2026-05-01T07:39:20Z</time></trkpt><trkpt lat="39.64643250348918" lon="9.356592174870336"><ele>390.5</ele><time>2026-05-01T07:39:21Z</time></trkpt><trkpt lat="39.6465123669384" lon="9.356732846120455"><ele>392.0</ele><time>2026-05-01T07:39:22Z</time></trkpt><trkpt lat="39.646590291783006" lon="9.356873624330296"><ele>392.0</ele><time>2026-05-01T07:39:23Z</time></trkpt><trkpt lat="39.64667100846419" lon="9.357008964587834"><ele>392.0</ele><time>2026-05-01T07:39:24Z</time></trkpt><trkpt lat="39.64676628363244" lon="9.35712899815882"><ele>392.0</ele><time>2026-05-01T07:39:25Z</time></trkpt><trkpt lat="39.646881964239185" lon="9.357214600392297"><ele>392.0</ele><time>2026-05-01T07:39:26Z</time></trkpt><trkpt lat="39.64698829379899" lon="9.357300504156633"><ele>393.0</ele><time>2026-05-01T07:39:27Z</time></trkpt><trkpt lat="39.647074019823776" lon="9.357382799453633"><ele>394.0</ele><time>2026-05-01T07:39:28Z</time></trkpt><trkpt lat="39.64724019958211" lon="9.357283551056392"><ele>395.0</ele><time>2026-05-01T07:39:29Z</time></trkpt><trkpt lat="39.64733591287195" lon="9.357276888101708"><ele>396.0</ele><time>2026-05-01T07:39:30Z</time></trkpt><trkpt lat="39.64742536796702" lon="9.357261842864032"><ele>396.0</ele><time>2026-05-01T07:39:31Z</time></trkpt><trkpt lat="39.647519455956605" lon="9.357242975732186"><ele>396.0</ele><time>2026-05-01T07:39:32Z</time></trkpt><trkpt lat="39.6476119548152" lon="9.357226733184412"><ele>396.0</ele><time>2026-05-01T07:39:33Z</time></trkpt><trkpt lat="39.64769602830506" lon="9.357221765053893"><ele>396.0</ele><time>2026-05-01T07:39:34Z</time></trkpt><trkpt lat="39.647776952510846" lon="9.357225649080886"><ele>396.0</ele><time>2026-05-01T07:39:35Z</time></trkpt><trkpt lat="39.64785760374324" lon="9.357240642687449"><ele>396.0</ele><time>2026-05-01T07:39:36Z</time></trkpt><trkpt lat="39.64793661516973" lon="9.357270796494173"><ele>397.20000000000005</ele><time>2026-05-01T07:39:37Z</time></trkpt><trkpt lat="39.64800601231874" lon="9.357319462855498"><ele>398.40000000000003</ele><time>2026-05-01T07:39:38Z</time></trkpt><trkpt lat="39.64807000925466" lon="9.357383572848692"><ele>399.6</ele><time>2026-05-01T07:39:39Z</time></trkpt><trkpt lat="39.648138987245346" lon="9.357455751116866"><ele>400.8</ele><time>2026-05-01T07:39:40Z</time></trkpt><trkpt lat="39.64821790533752" lon="9.357528757418043"><ele>402.0</ele><time>2026-05-01T07:39:41Z</time></trkpt><trkpt lat="39.64830676439746" lon="9.35760288618716"><ele>402.0</ele><time>2026-05-01T07:39:42Z</time></trkpt><trkpt lat="39.648407559118255" lon="9.35767040142757"><ele>402.0</ele><time>2026-05-01T07:39:43Z</time></trkpt><trkpt lat="39.648523325753764" lon="9.357724242660163"><ele>402.0</ele><time>2026-05-01T07:39:44Z</time></trkpt><trkpt lat="39.6486474660226" lon="9.357782192396085"><ele>402.0</ele><time>2026-05-01T07:39:45Z</time></trkpt><trkpt lat="39.648778682181714" lon="9.35784351507169"><ele>402.33333333333337</ele><time>2026-05-01T07:39:46Z</time></trkpt><trkpt lat="39.64892377378857" lon="9.357886637947948"><ele>402.6666666666667</ele><time>2026-05-01T07:39:47Z</time></trkpt><trkpt lat="39.64908179192203" lon="9.357891047830151"><ele>403.0</ele><time>2026-05-01T07:39:48Z</time></trkpt><trkpt lat="39.649235684997514" lon="9.357890365854773"><ele>403.0</ele><time>2026-05-01T07:39:49Z</time></trkpt><trkpt lat="39.649388266472315" lon="9.35791894939326"><ele>403.0</ele><time>2026-05-01T07:39:50Z</time></trkpt><trkpt lat="39.649529573589774" lon="9.35801804446564"><ele>403.0</ele><time>2026-05-01T07:39:51Z</time></trkpt><trkpt lat="39.64963875432237" lon="9.358166143997975"><ele>403.33333333333337</ele><time>2026-05-01T07:39:52Z</time></trkpt><trkpt lat="39.64970177250829" lon="9.358353963218365"><ele>403.66666666666663</ele><time>2026-05-01T07:39:53Z</time></trkpt><trkpt lat="39.649726407561154" lon="9.35855156936242"><ele>404.0</ele><time>2026-05-01T07:39:54Z</time></trkpt><trkpt lat="39.64974629250354" lon="9.358741506478006"><ele>404.25</ele><time>2026-05-01T07:39:55Z</time></trkpt><trkpt lat="39.64977916238594" lon="9.358927933207374"><ele>404.5</ele><time>2026-05-01T07:39:56Z</time></trkpt><trkpt lat="39.6498317332409" lon="9.35910713807588"><ele>404.75</ele><time>2026-05-01T07:39:57Z</time></trkpt><trkpt lat="39.64990873625423" lon="9.359264824685543"><ele>405.0</ele><time>2026-05-01T07:39:58Z</time></trkpt><trkpt lat="39.65000692547368" lon="9.359389970665042"><ele>405.0</ele><time>2026-05-01T07:39:59Z</time></trkpt><trkpt lat="39.65012946855342" lon="9.359458266635666"><ele>405.0</ele><time>2026-05-01T07:40:00Z</time></trkpt><trkpt lat="39.650266373676594" lon="9.359459802233761"><ele>405.0</ele><time>2026-05-01T07:40:01Z</time></trkpt><trkpt lat="39.65039932000313" lon="9.359392528853196"><ele>405.0</ele><time>2026-05-01T07:40:02Z</time></trkpt><trkpt lat="39.65053670762256" lon="9.359304509357314"><ele>404.25</ele><time>2026-05-01T07:40:03Z</time></trkpt><trkpt lat="39.6506749738033" lon="9.359233676040159"><ele>403.5</ele><time>2026-05-01T07:40:04Z</time></trkpt><trkpt lat="39.650814947598455" lon="9.359182489164738"><ele>402.75</ele><time>2026-05-01T07:40:05Z</time></trkpt><trkpt lat="39.65094977092003" lon="9.359173620762073"><ele>402.0</ele><time>2026-05-01T07:40:06Z</time></trkpt><trkpt lat="39.651080166195506" lon="9.359225435726888"><ele>402.25</ele><time>2026-05-01T07:40:07Z</time></trkpt><trkpt lat="39.651199535184624" lon="9.359349753351918"><ele>402.5</ele><time>2026-05-01T07:40:08Z</time></trkpt><trkpt lat="39.651263272468405" lon="9.359522678424462"><ele>402.75</ele><time>2026-05-01T07:40:09Z</time></trkpt><trkpt lat="39.65128422700938" lon="9.359712770981009"><ele>403.0</ele><time>2026-05-01T07:40:10Z</time></trkpt><trkpt lat="39.65131772568612" lon="9.359903148590298"><ele>401.5</ele><time>2026-05-01T07:40:11Z</time></trkpt><trkpt lat="39.65132564722898" lon="9.36009243725332"><ele>400.0</ele><time>2026-05-01T07:40:12Z</time></trkpt><trkpt lat="39.651392958623816" lon="9.360244691862007"><ele>398.5</ele><time>2026-05-01T07:40:13Z</time></trkpt><trkpt lat="39.651514733456" lon="9.360365416077908"><ele>397.0</ele><time>2026-05-01T07:40:14Z</time></trkpt><trkpt lat="39.65164457374536" lon="9.360437748086685"><ele>397.0</ele><time>2026-05-01T07:40:15Z</time></trkpt><trkpt lat="39.651800465512714" lon="9.360463060426582"><ele>397.0</ele><time>2026-05-01T07:40:16Z</time></trkpt><trkpt lat="39.65196216216274" lon="9.360441368881782"><ele>397.0</ele><time>2026-05-01T07:40:17Z</time></trkpt><trkpt lat="39.65212314795094" lon="9.360381867764604"><ele>395.0</ele><time>2026-05-01T07:40:18Z</time></trkpt><trkpt lat="39.65228467166493" lon="9.36029403420541"><ele>393.0</ele><time>2026-05-01T07:40:19Z</time></trkpt><trkpt lat="39.65243825182361" lon="9.360216848988646"><ele>391.0</ele><time>2026-05-01T07:40:20Z</time></trkpt><trkpt lat="39.652563263298134" lon="9.360116995615684"><ele>391.0</ele><time>2026-05-01T07:40:21Z</time></trkpt><trkpt lat="39.65269941054037" lon="9.360035011636752"><ele>391.0</ele><time>2026-05-01T07:40:22Z</time></trkpt><trkpt lat="39.652832987776115" lon="9.359950369542593"><ele>391.0</ele><time>2026-05-01T07:40:23Z</time></trkpt><trkpt lat="39.65296109991205" lon="9.359866131094439"><ele>391.0</ele><time>2026-05-01T07:40:24Z</time></trkpt><trkpt lat="39.653084948553555" lon="9.359787944777812"><ele>391.25</ele><time>2026-05-01T07:40:25Z</time></trkpt><trkpt lat="39.653203434429464" lon="9.359732793336496"><ele>391.5</ele><time>2026-05-01T07:40:26Z</time></trkpt><trkpt lat="39.65331802196247" lon="9.35968858089919"><ele>391.75</ele><time>2026-05-01T07:40:27Z</time></trkpt><trkpt lat="39.65343276073623" lon="9.359670529889227"><ele>392.0</ele><time>2026-05-01T07:40:28Z</time></trkpt><trkpt lat="39.65354725603872" lon="9.359684463625818"><ele>387.0</ele><time>2026-05-01T07:40:29Z</time></trkpt><trkpt lat="39.6536548088862" lon="9.359738906505797"><ele>382.0</ele><time>2026-05-01T07:40:30Z</time></trkpt><trkpt lat="39.65374613354147" lon="9.35983373846321"><ele>377.0</ele><time>2026-05-01T07:40:31Z</time></trkpt><trkpt lat="39.6538121061898" lon="9.35995646865537"><ele>372.0</ele><time>2026-05-01T07:40:32Z</time></trkpt><trkpt lat="39.6538569353146" lon="9.360091214322335"><ele>372.0</ele><time>2026-05-01T07:40:33Z</time></trkpt><trkpt lat="39.653861620583314" lon="9.360241257349477"><ele>372.0</ele><time>2026-05-01T07:40:34Z</time></trkpt><trkpt lat="39.65384858561332" lon="9.360389770238651"><ele>372.0</ele><time>2026-05-01T07:40:35Z</time></trkpt><trkpt lat="39.65382001782048" lon="9.360534421926491"><ele>372.0</ele><time>2026-05-01T07:40:36Z</time></trkpt><trkpt lat="39.653801985532596" lon="9.360675869277372"><ele>372.8</ele><time>2026-05-01T07:40:37Z</time></trkpt><trkpt lat="39.65378431683891" lon="9.360803843241916"><ele>373.6</ele><time>2026-05-01T07:40:38Z</time></trkpt><trkpt lat="39.65378446511859" lon="9.360935201928775"><ele>374.40000000000003</ele><time>2026-05-01T07:40:39Z</time></trkpt><trkpt lat="39.65380073571634" lon="9.361074618362842"><ele>375.20000000000005</ele><time>2026-05-01T07:40:40Z</time></trkpt><trkpt lat="39.65383413317942" lon="9.361208002833035"><ele>376.0</ele><time>2026-05-01T07:40:41Z</time></trkpt><trkpt lat="39.653901385493036" lon="9.361315082898201"><ele>375.75</ele><time>2026-05-01T07:40:42Z</time></trkpt><trkpt lat="39.65399007535345" lon="9.361395323992125"><ele>375.5</ele><time>2026-05-01T07:40:43Z</time></trkpt><trkpt lat="39.65409317718682" lon="9.36147694834561"><ele>375.25</ele><time>2026-05-01T07:40:44Z</time></trkpt><trkpt lat="39.65421740117547" lon="9.361578296800072"><ele>375.0</ele><time>2026-05-01T07:40:45Z</time></trkpt><trkpt lat="39.654356177846786" lon="9.3616861417121"><ele>375.3333333333333</ele><time>2026-05-01T07:40:46Z</time></trkpt><trkpt lat="39.654490424527516" lon="9.361827526978699"><ele>375.66666666666663</ele><time>2026-05-01T07:40:47Z</time></trkpt><trkpt lat="39.6546502187109" lon="9.361945715177894"><ele>376.0</ele><time>2026-05-01T07:40:48Z</time></trkpt><trkpt lat="39.6547969042014" lon="9.362090507337285"><ele>376.3333333333333</ele><time>2026-05-01T07:40:49Z</time></trkpt><trkpt lat="39.65495511053418" lon="9.36222424099348"><ele>376.6666666666667</ele><time>2026-05-01T07:40:50Z</time></trkpt><trkpt lat="39.65512387918441" lon="9.36235098476358"><ele>377.0</ele><time>2026-05-01T07:40:51Z</time></trkpt><trkpt lat="39.65529756289631" lon="9.36248088094799"><ele>377.0</ele><time>2026-05-01T07:40:52Z</time></trkpt><trkpt lat="39.65546988263103" lon="9.362611899337002"><ele>377.0</ele><time>2026-05-01T07:40:53Z</time></trkpt><trkpt lat="39.65563817779017" lon="9.362742261965982"><ele>377.0</ele><time>2026-05-01T07:40:54Z</time></trkpt><trkpt lat="39.65579722675617" lon="9.362869301176278"><ele>377.0</ele><time>2026-05-01T07:40:55Z</time></trkpt><trkpt lat="39.65594748261809" lon="9.362989498856113"><ele>377.0</ele><time>2026-05-01T07:40:56Z</time></trkpt><trkpt lat="39.656087467598674" lon="9.36310103017735"><ele>377.0</ele><time>2026-05-01T07:40:57Z</time></trkpt><trkpt lat="39.6562134571792" lon="9.363199399647694"><ele>376.75</ele><time>2026-05-01T07:40:58Z</time></trkpt><trkpt lat="39.65633709758345" lon="9.363337738718698"><ele>376.5</ele><time>2026-05-01T07:40:59Z</time></trkpt><trkpt lat="39.656428202362314" lon="9.363485453581564"><ele>376.25</ele><time>2026-05-01T07:41:00Z</time></trkpt><trkpt lat="39.65647444610875" lon="9.363642731175673"><ele>376.0</ele><time>2026-05-01T07:41:01Z</time></trkpt><trkpt lat="39.65647965293398" lon="9.363834533265182"><ele>377.66666666666663</ele><time>2026-05-01T07:41:02Z</time></trkpt><trkpt lat="39.65645726582856" lon="9.364034724684075"><ele>379.3333333333333</ele><time>2026-05-01T07:41:03Z</time></trkpt><trkpt lat="39.65641707586393" lon="9.36424396585473"><ele>381.0</ele><time>2026-05-01T07:41:04Z</time></trkpt><trkpt lat="39.65635237517519" lon="9.3644630485487"><ele>381.0</ele><time>2026-05-01T07:41:05Z</time></trkpt><trkpt lat="39.65628182239411" lon="9.364675570461923"><ele>381.0</ele><time>2026-05-01T07:41:06Z</time></trkpt><trkpt lat="39.656204448668376" lon="9.364888730346548"><ele>381.0</ele><time>2026-05-01T07:41:07Z</time></trkpt><trkpt lat="39.656121570259806" lon="9.365109599605882"><ele>381.0</ele><time>2026-05-01T07:41:08Z</time></trkpt><trkpt lat="39.65603796804243" lon="9.365339761433045"><ele>381.0</ele><time>2026-05-01T07:41:09Z</time></trkpt><trkpt lat="39.65595173823984" lon="9.365572558215522"><ele>381.0</ele><time>2026-05-01T07:41:10Z</time></trkpt><trkpt lat="39.65586631369477" lon="9.365811836051156"><ele>382.33333333333337</ele><time>2026-05-01T07:41:11Z</time></trkpt><trkpt lat="39.65578072387105" lon="9.366052645436964"><ele>383.6666666666667</ele><time>2026-05-01T07:41:12Z</time></trkpt><trkpt lat="39.65569829287865" lon="9.366290286827962"><ele>385.0</ele><time>2026-05-01T07:41:13Z</time></trkpt><trkpt lat="39.65561630405942" lon="9.366522691459547"><ele>385.6666666666667</ele><time>2026-05-01T07:41:14Z</time></trkpt><trkpt lat="39.65553238243032" lon="9.366747443822385"><ele>386.33333333333337</ele><time>2026-05-01T07:41:15Z</time></trkpt><trkpt lat="39.65544336601517" lon="9.366968616034793"><ele>387.0</ele><time>2026-05-01T07:41:16Z</time></trkpt><trkpt lat="39.65535066683215" lon="9.367180787188206"><ele>386.0</ele><time>2026-05-01T07:41:17Z</time></trkpt><trkpt lat="39.65525364119542" lon="9.367390888209512"><ele>385.0</ele><time>2026-05-01T07:41:18Z</time></trkpt><trkpt lat="39.65514938059292" lon="9.3675972375723"><ele>384.0</ele><time>2026-05-01T07:41:19Z</time></trkpt><trkpt lat="39.65504000773975" lon="9.367806906068394"><ele>384.0</ele><time>2026-05-01T07:41:20Z</time></trkpt><trkpt lat="39.654931121129955" lon="9.368018918035304"><ele>384.0</ele><time>2026-05-01T07:41:21Z</time></trkpt><trkpt lat="39.65481766184216" lon="9.368233485957058"><ele>384.0</ele><time>2026-05-01T07:41:22Z</time></trkpt><trkpt lat="39.654700322374644" lon="9.368446868689375"><ele>384.33333333333337</ele><time>2026-05-01T07:41:23Z</time></trkpt><trkpt lat="39.65458043643254" lon="9.368658966509683"><ele>384.6666666666667</ele><time>2026-05-01T07:41:24Z</time></trkpt><trkpt lat="39.6544578445942" lon="9.368868772750194"><ele>385.0</ele><time>2026-05-01T07:41:25Z</time></trkpt><trkpt lat="39.654340725279106" lon="9.369071247402248"><ele>385.0</ele><time>2026-05-01T07:41:26Z</time></trkpt><trkpt lat="39.65422281566698" lon="9.369279219992102"><ele>385.0</ele><time>2026-05-01T07:41:27Z</time></trkpt><trkpt lat="39.65410297770226" lon="9.36949141832151"><ele>385.0</ele><time>2026-05-01T07:41:28Z</time></trkpt><trkpt lat="39.6539831077875" lon="9.369702758553572"><ele>384.0</ele><time>2026-05-01T07:41:29Z</time></trkpt><trkpt lat="39.65386471337069" lon="9.369912495172617"><ele>383.0</ele><time>2026-05-01T07:41:30Z</time></trkpt><trkpt lat="39.65373078990613" lon="9.370107163561178"><ele>382.0</ele><time>2026-05-01T07:41:31Z</time></trkpt><trkpt lat="39.65359293861629" lon="9.370297229271825"><ele>381.66666666666663</ele><time>2026-05-01T07:41:32Z</time></trkpt><trkpt lat="39.65345348557595" lon="9.370486119105786"><ele>381.3333333333333</ele><time>2026-05-01T07:41:33Z</time></trkpt><trkpt lat="39.65328332396281" lon="9.370633380545472"><ele>381.0</ele><time>2026-05-01T07:41:34Z</time></trkpt><trkpt lat="39.65310029759442" lon="9.370767929891436"><ele>381.0</ele><time>2026-05-01T07:41:35Z</time></trkpt><trkpt lat="39.652896570117406" lon="9.370859926346402"><ele>381.0</ele><time>2026-05-01T07:41:36Z</time></trkpt><trkpt lat="39.652692949628495" lon="9.370956973213783"><ele>381.0</ele><time>2026-05-01T07:41:37Z</time></trkpt><trkpt lat="39.65247902353616" lon="9.371052122397485"><ele>379.5</ele><time>2026-05-01T07:41:38Z</time></trkpt><trkpt lat="39.65226750921822" lon="9.37116728926894"><ele>378.0</ele><time>2026-05-01T07:41:39Z</time></trkpt><trkpt lat="39.65204428408488" lon="9.371245026408774"><ele>377.5</ele><time>2026-05-01T07:41:40Z</time></trkpt><trkpt lat="39.65182956424052" lon="9.371343029014954"><ele>377.0</ele><time>2026-05-01T07:41:41Z</time></trkpt><trkpt lat="39.65161547692455" lon="9.371441057629553"><ele>380.5</ele><time>2026-05-01T07:41:42Z</time></trkpt><trkpt lat="39.6514019137529" lon="9.371537972126786"><ele>384.0</ele><time>2026-05-01T07:41:43Z</time></trkpt><trkpt lat="39.65119630313722" lon="9.371651824080176"><ele>383.0</ele><time>2026-05-01T07:41:44Z</time></trkpt><trkpt lat="39.650989137289066" lon="9.371737452770741"><ele>382.0</ele><time>2026-05-01T07:41:45Z</time></trkpt><trkpt lat="39.65079095097112" lon="9.371836312966265"><ele>381.0</ele><time>2026-05-01T07:41:46Z</time></trkpt><trkpt lat="39.65061681751646" lon="9.371970223715392"><ele>381.0</ele><time>2026-05-01T07:41:47Z</time></trkpt><trkpt lat="39.65046648863534" lon="9.372151061400212"><ele>381.0</ele><time>2026-05-01T07:41:48Z</time></trkpt><trkpt lat="39.65033932611594" lon="9.37235989090856"><ele>381.0</ele><time>2026-05-01T07:41:49Z</time></trkpt><trkpt lat="39.650222550251904" lon="9.372566810424717"><ele>379.3333333333333</ele><time>2026-05-01T07:41:50Z</time></trkpt><trkpt lat="39.65011489302425" lon="9.37277937663961"><ele>377.66666666666663</ele><time>2026-05-01T07:41:51Z</time></trkpt><trkpt lat="39.65000366791512" lon="9.372979867027468"><ele>376.0</ele><time>2026-05-01T07:41:52Z</time></trkpt><trkpt lat="39.64987994303423" lon="9.373166855515722"><ele>376.0</ele><time>2026-05-01T07:41:53Z</time></trkpt><trkpt lat="39.649753376472745" lon="9.373338763236012"><ele>376.0</ele><time>2026-05-01T07:41:54Z</time></trkpt><trkpt lat="39.64962210566976" lon="9.373496938894606"><ele>376.0</ele><time>2026-05-01T07:41:55Z</time></trkpt><trkpt lat="39.649475773948396" lon="9.37363052986511"><ele>371.3333333333333</ele><time>2026-05-01T07:41:56Z</time></trkpt><trkpt lat="39.649305040285036" lon="9.373706055124408"><ele>366.6666666666667</ele><time>2026-05-01T07:41:57Z</time></trkpt><trkpt lat="39.649129379741616" lon="9.373752700925934"><ele>362.0</ele><time>2026-05-01T07:41:58Z</time></trkpt><trkpt lat="39.64895881584456" lon="9.373728286004605"><ele>362.0</ele><time>2026-05-01T07:41:59Z</time></trkpt><trkpt lat="39.64881238242657" lon="9.373648347707388"><ele>362.0</ele><time>2026-05-01T07:42:00Z</time></trkpt><trkpt lat="39.648692955291196" lon="9.373515801097865"><ele>362.0</ele><time>2026-05-01T07:42:01Z</time></trkpt><trkpt lat="39.64858957653961" lon="9.373359096761249"><ele>361.33333333333337</ele><time>2026-05-01T07:42:02Z</time></trkpt><trkpt lat="39.64848017671821" lon="9.373196613338946"><ele>360.6666666666667</ele><time>2026-05-01T07:42:03Z</time></trkpt><trkpt lat="39.64837294557187" lon="9.373025306496803"><ele>360.0</ele><time>2026-05-01T07:42:04Z</time></trkpt><trkpt lat="39.648264246999226" lon="9.372855420192009"><ele>356.3333333333333</ele><time>2026-05-01T07:42:05Z</time></trkpt><trkpt lat="39.64816499260356" lon="9.3726852678099"><ele>352.66666666666663</ele><time>2026-05-01T07:42:06Z</time></trkpt><trkpt lat="39.64800642149012" lon="9.372592344157994"><ele>349.0</ele><time>2026-05-01T07:42:07Z</time></trkpt><trkpt lat="39.6478494641264" lon="9.372501399797471"><ele>348.66666666666663</ele><time>2026-05-01T07:42:08Z</time></trkpt><trkpt lat="39.64768830508571" lon="9.372421999988623"><ele>348.3333333333333</ele><time>2026-05-01T07:42:09Z</time></trkpt><trkpt lat="39.64747206966446" lon="9.372507025602518"><ele>348.0</ele><time>2026-05-01T07:42:10Z</time></trkpt><trkpt lat="39.64727546208242" lon="9.372501155089747"><ele>348.0</ele><time>2026-05-01T07:42:11Z</time></trkpt><trkpt lat="39.64707494682176" lon="9.372497621490295"><ele>348.0</ele><time>2026-05-01T07:42:12Z</time></trkpt><trkpt lat="39.646868645632885" lon="9.372501544765537"><ele>348.0</ele><time>2026-05-01T07:42:13Z</time></trkpt><trkpt lat="39.64665896379627" lon="9.372516000556837"><ele>346.0</ele><time>2026-05-01T07:42:14Z</time></trkpt><trkpt lat="39.646449849430354" lon="9.372538446409411"><ele>344.0</ele><time>2026-05-01T07:42:15Z</time></trkpt><trkpt lat="39.64624822814452" lon="9.372563167089183"><ele>342.0</ele><time>2026-05-01T07:42:16Z</time></trkpt><trkpt lat="39.64605140481214" lon="9.372577694717718"><ele>338.3333333333333</ele><time>2026-05-01T07:42:17Z</time></trkpt><trkpt lat="39.64585823333689" lon="9.37258550572545"><ele>334.66666666666663</ele><time>2026-05-01T07:42:18Z</time></trkpt><trkpt lat="39.645669486541635" lon="9.372603517761478"><ele>331.0</ele><time>2026-05-01T07:42:19Z</time></trkpt><trkpt lat="39.64548766913186" lon="9.372649850906202"><ele>331.0</ele><time>2026-05-01T07:42:20Z</time></trkpt><trkpt lat="39.64531907986503" lon="9.37273285969837"><ele>331.0</ele><time>2026-05-01T07:42:21Z</time></trkpt><trkpt lat="39.64517442508989" lon="9.372867429520792"><ele>331.0</ele><time>2026-05-01T07:42:22Z</time></trkpt><trkpt lat="39.645054036625545" lon="9.373052087681957"><ele>330.3333333333333</ele><time>2026-05-01T07:42:23Z</time></trkpt><trkpt lat="39.64494053378824" lon="9.373265047144685"><ele>329.6666666666667</ele><time>2026-05-01T07:42:24Z</time></trkpt><trkpt lat="39.64482771299274" lon="9.373466551275678"><ele>329.0</ele><time>2026-05-01T07:42:25Z</time></trkpt><trkpt lat="39.644728467287244" lon="9.373679999126667"><ele>329.0</ele><time>2026-05-01T07:42:26Z</time></trkpt><trkpt lat="39.64466813609126" lon="9.373913046989875"><ele>329.0</ele><time>2026-05-01T07:42:27Z</time></trkpt><trkpt lat="39.64463549904361" lon="9.374143938587737"><ele>329.0</ele><time>2026-05-01T07:42:28Z</time></trkpt><trkpt lat="39.644597620597395" lon="9.374339931323535"><ele>329.0</ele><time>2026-05-01T07:42:29Z</time></trkpt><trkpt lat="39.64453736421413" lon="9.374516297841561"><ele>329.0</ele><time>2026-05-01T07:42:30Z</time></trkpt><trkpt lat="39.64444639176973" lon="9.37467542513321"><ele>329.0</ele><time>2026-05-01T07:42:31Z</time></trkpt><trkpt lat="39.64432750825725" lon="9.374795019152712"><ele>321.6666666666667</ele><time>2026-05-01T07:42:32Z</time></trkpt><trkpt lat="39.64418134559152" lon="9.374845583503733"><ele>314.3333333333333</ele><time>2026-05-01T07:42:33Z</time></trkpt><trkpt lat="39.64402655835177" lon="9.374833073371942"><ele>307.0</ele><time>2026-05-01T07:42:34Z</time></trkpt><trkpt lat="39.643871087457" lon="9.37482202621056"><ele>307.0</ele><time>2026-05-01T07:42:35Z</time></trkpt><trkpt lat="39.643723384153546" lon="9.374833792196542"><ele>307.0</ele><time>2026-05-01T07:42:36Z</time></trkpt><trkpt lat="39.64360075386017" lon="9.374887302762044"><ele>307.0</ele><time>2026-05-01T07:42:37Z</time></trkpt><trkpt lat="39.64351867992751" lon="9.374992266363662"><ele>307.0</ele><time>2026-05-01T07:42:38Z</time></trkpt><trkpt lat="39.64347652131798" lon="9.375119958841193"><ele>306.0</ele><time>2026-05-01T07:42:39Z</time></trkpt><trkpt lat="39.64347448626722" lon="9.375247678230846"><ele>305.0</ele><time>2026-05-01T07:42:40Z</time></trkpt><trkpt lat="39.643509847646584" lon="9.37537049494543"><ele>304.0</ele><time>2026-05-01T07:42:41Z</time></trkpt><trkpt lat="39.643569677003036" lon="9.37547794367595"><ele>303.0</ele><time>2026-05-01T07:42:42Z</time></trkpt><trkpt lat="39.643664231693684" lon="9.375539064183817"><ele>302.0</ele><time>2026-05-01T07:42:43Z</time></trkpt><trkpt lat="39.64377451120649" lon="9.375558192358728"><ele>303.25</ele><time>2026-05-01T07:42:44Z</time></trkpt><trkpt lat="39.64388836255158" lon="9.375525543280318"><ele>304.5</ele><time>2026-05-01T07:42:45Z</time></trkpt><trkpt lat="39.64399193103157" lon="9.375440236674773"><ele>305.75</ele><time>2026-05-01T07:42:46Z</time></trkpt><trkpt lat="39.64408868885192" lon="9.37533750520635"><ele>307.0</ele><time>2026-05-01T07:42:47Z</time></trkpt><trkpt lat="39.64419694647677" lon="9.375244452299327"><ele>307.0</ele><time>2026-05-01T07:42:48Z</time></trkpt><trkpt lat="39.64432203096917" lon="9.375163862340722"><ele>307.0</ele><time>2026-05-01T07:42:49Z</time></trkpt><trkpt lat="39.64445404601187" lon="9.375087125798277"><ele>307.0</ele><time>2026-05-01T07:42:50Z</time></trkpt><trkpt lat="39.644592985301706" lon="9.375019678078907"><ele>307.0</ele><time>2026-05-01T07:42:51Z</time></trkpt><trkpt lat="39.64473575990557" lon="9.374949370052413"><ele>307.25</ele><time>2026-05-01T07:42:52Z</time></trkpt><trkpt lat="39.64487673479738" lon="9.374901361517963"><ele>307.5</ele><time>2026-05-01T07:42:53Z</time></trkpt><trkpt lat="39.64501846491354" lon="9.374900150393811"><ele>307.75</ele><time>2026-05-01T07:42:54Z</time></trkpt><trkpt lat="39.645153524919024" lon="9.374948394307296"><ele>308.0</ele><time>2026-05-01T07:42:55Z</time></trkpt><trkpt lat="39.64528642191283" lon="9.37500944385717"><ele>311.6666666666667</ele><time>2026-05-01T07:42:56Z</time></trkpt><trkpt lat="39.6454247757222" lon="9.375093737710394"><ele>315.3333333333333</ele><time>2026-05-01T07:42:57Z</time></trkpt><trkpt lat="39.645559531788706" lon="9.375201767271385"><ele>319.0</ele><time>2026-05-01T07:42:58Z</time></trkpt><trkpt lat="39.64567997449931" lon="9.375336413832054"><ele>319.0</ele><time>2026-05-01T07:42:59Z</time></trkpt><trkpt lat="39.64576532257711" lon="9.375505657231086"><ele>319.0</ele><time>2026-05-01T07:43:00Z</time></trkpt><trkpt lat="39.64582947295958" lon="9.375679326950136"><ele>319.0</ele><time>2026-05-01T07:43:01Z</time></trkpt><trkpt lat="39.64589940235251" lon="9.37583340822571"><ele>319.0</ele><time>2026-05-01T07:43:02Z</time></trkpt><trkpt lat="39.64599389507722" lon="9.375952132624661"><ele>315.25</ele><time>2026-05-01T07:43:03Z</time></trkpt><trkpt lat="39.646120011465264" lon="9.376014661058072"><ele>311.5</ele><time>2026-05-01T07:43:04Z</time></trkpt><trkpt lat="39.646260548667826" lon="9.376021505646648"><ele>307.75</ele><time>2026-05-01T07:43:05Z</time></trkpt><trkpt lat="39.64641116123705" lon="9.376005020566215"><ele>304.0</ele><time>2026-05-01T07:43:06Z</time></trkpt><trkpt lat="39.64656437528633" lon="9.37600705866827"><ele>304.0</ele><time>2026-05-01T07:43:07Z</time></trkpt><trkpt lat="39.646717852540974" lon="9.376023148859199"><ele>304.0</ele><time>2026-05-01T07:43:08Z</time></trkpt><trkpt lat="39.64686071999543" lon="9.376056981100401"><ele>304.0</ele><time>2026-05-01T07:43:09Z</time></trkpt><trkpt lat="39.646983647173954" lon="9.37613502051519"><ele>304.0</ele><time>2026-05-01T07:43:10Z</time></trkpt><trkpt lat="39.647066811853925" lon="9.376285466118691"><ele>301.5</ele><time>2026-05-01T07:43:11Z</time></trkpt><trkpt lat="39.647109222268284" lon="9.37646039031451"><ele>299.0</ele><time>2026-05-01T07:43:12Z</time></trkpt><trkpt lat="39.64712989661896" lon="9.376626553333649"><ele>296.5</ele><time>2026-05-01T07:43:13Z</time></trkpt><trkpt lat="39.64715870506964" lon="9.376789419874118"><ele>294.0</ele><time>2026-05-01T07:43:14Z</time></trkpt><trkpt lat="39.64721350192414" lon="9.376940100767355"><ele>294.0</ele><time>2026-05-01T07:43:15Z</time></trkpt><trkpt lat="39.64730329433273" lon="9.377062066119358"><ele>294.0</ele><time>2026-05-01T07:43:16Z</time></trkpt><trkpt lat="39.64741797081293" lon="9.377135313534554"><ele>294.0</ele><time>2026-05-01T07:43:17Z</time></trkpt><trkpt lat="39.64754742281342" lon="9.377146907152282"><ele>294.0</ele><time>2026-05-01T07:43:18Z</time></trkpt><trkpt lat="39.647675691436" lon="9.377115869466268"><ele>297.5</ele><time>2026-05-01T07:43:19Z</time></trkpt><trkpt lat="39.647814110991625" lon="9.377109977396264"><ele>301.0</ele><time>2026-05-01T07:43:20Z</time></trkpt><trkpt lat="39.64794578007538" lon="9.377176560939798"><ele>304.5</ele><time>2026-05-01T07:43:21Z</time></trkpt><trkpt lat="39.64807858312976" lon="9.37726917194844"><ele>308.0</ele><time>2026-05-01T07:43:22Z</time></trkpt><trkpt lat="39.64821879271579" lon="9.377348430885878"><ele>308.25</ele><time>2026-05-01T07:43:23Z</time></trkpt><trkpt lat="39.64836239136057" lon="9.377417433501902"><ele>308.5</ele><time>2026-05-01T07:43:24Z</time></trkpt><trkpt lat="39.64849226219042" lon="9.377517184537801"><ele>308.75</ele><time>2026-05-01T07:43:25Z</time></trkpt><trkpt lat="39.648594267672294" lon="9.377649736033993"><ele>309.0</ele><time>2026-05-01T07:43:26Z</time></trkpt><trkpt lat="39.648668818515965" lon="9.377816974274108"><ele>309.0</ele><time>2026-05-01T07:43:27Z</time></trkpt><trkpt lat="39.64870586082547" lon="9.37799621167333"><ele>309.0</ele><time>2026-05-01T07:43:28Z</time></trkpt><trkpt lat="39.64869461464607" lon="9.378196698104151"><ele>309.0</ele><time>2026-05-01T07:43:29Z</time></trkpt><trkpt lat="39.64866357054392" lon="9.378394126468852"><ele>306.0</ele><time>2026-05-01T07:43:30Z</time></trkpt><trkpt lat="39.64863772785125" lon="9.378592373015781"><ele>303.0</ele><time>2026-05-01T07:43:31Z</time></trkpt><trkpt lat="39.64863083781651" lon="9.378805744862419"><ele>300.0</ele><time>2026-05-01T07:43:32Z</time></trkpt><trkpt lat="39.64864682699196" lon="9.379024777539858"><ele>297.0</ele><time>2026-05-01T07:43:33Z</time></trkpt><trkpt lat="39.64867692355135" lon="9.379237440044442"><ele>294.0</ele><time>2026-05-01T07:43:34Z</time></trkpt><trkpt lat="39.648709293394234" lon="9.37944950739841"><ele>291.0</ele><time>2026-05-01T07:43:35Z</time></trkpt><trkpt lat="39.64871792954832" lon="9.379661685391948"><ele>287.6666666666667</ele><time>2026-05-01T07:43:36Z</time></trkpt><trkpt lat="39.648689399061965" lon="9.379877998282169"><ele>284.33333333333337</ele><time>2026-05-01T07:43:37Z</time></trkpt><trkpt lat="39.64866412842216" lon="9.380094336091268"><ele>281.0</ele><time>2026-05-01T07:43:38Z</time></trkpt><trkpt lat="39.64865453019505" lon="9.380311580684223"><ele>277.6666666666667</ele><time>2026-05-01T07:43:39Z</time></trkpt><trkpt lat="39.648686325254495" lon="9.380534449871197"><ele>274.3333333333333</ele><time>2026-05-01T07:43:40Z</time></trkpt><trkpt lat="39.648752778864676" lon="9.380750235439278"><ele>271.0</ele><time>2026-05-01T07:43:41Z</time></trkpt><trkpt lat="39.6488196268611" lon="9.380961056746697"><ele>271.0</ele><time>2026-05-01T07:43:42Z</time></trkpt><trkpt lat="39.648871396135306" lon="9.381177370228379"><ele>271.0</ele><time>2026-05-01T07:43:43Z</time></trkpt><trkpt lat="39.64886494215472" lon="9.381403865774221"><ele>271.0</ele><time>2026-05-01T07:43:44Z</time></trkpt><trkpt lat="39.64883151321924" lon="9.381636121208023"><ele>269.66666666666663</ele><time>2026-05-01T07:43:45Z</time></trkpt><trkpt lat="39.648788447488826" lon="9.381875086068485"><ele>268.3333333333333</ele><time>2026-05-01T07:43:46Z</time></trkpt><trkpt lat="39.64875867124084" lon="9.382114454262307"><ele>267.0</ele><time>2026-05-01T07:43:47Z</time></trkpt><trkpt lat="39.64871230381816" lon="9.382348498219852"><ele>266.3333333333333</ele><time>2026-05-01T07:43:48Z</time></trkpt><trkpt lat="39.64868341988975" lon="9.38258504297185"><ele>265.66666666666663</ele><time>2026-05-01T07:43:49Z</time></trkpt><trkpt lat="39.64867625255789" lon="9.382829023282113"><ele>265.0</ele><time>2026-05-01T07:43:50Z</time></trkpt><trkpt lat="39.6486773470945" lon="9.383070852466687"><ele>261.0</ele><time>2026-05-01T07:43:51Z</time></trkpt><trkpt lat="39.648671623125075" lon="9.383308967237923"><ele>257.0</ele><time>2026-05-01T07:43:52Z</time></trkpt><trkpt lat="39.648661427271485" lon="9.383533005712113"><ele>253.0</ele><time>2026-05-01T07:43:53Z</time></trkpt><trkpt lat="39.64865918530993" lon="9.383739535739052"><ele>249.5</ele><time>2026-05-01T07:43:54Z</time></trkpt><trkpt lat="39.648686098565925" lon="9.383925876209632"><ele>246.0</ele><time>2026-05-01T07:43:55Z</time></trkpt><trkpt lat="39.64874897636813" lon="9.384077130193626"><ele>242.5</ele><time>2026-05-01T07:43:56Z</time></trkpt><trkpt lat="39.64886048011728" lon="9.384151844760385"><ele>239.0</ele><time>2026-05-01T07:43:57Z</time></trkpt><trkpt lat="39.648993074259074" lon="9.384205039576928"><ele>239.0</ele><time>2026-05-01T07:43:58Z</time></trkpt><trkpt lat="39.64914586107499" lon="9.384156965092638"><ele>239.0</ele><time>2026-05-01T07:43:59Z</time></trkpt><trkpt lat="39.649285268850335" lon="9.384034263554474"><ele>239.0</ele><time>2026-05-01T07:44:00Z</time></trkpt><trkpt lat="39.649398631570705" lon="9.383847112094"><ele>235.0</ele><time>2026-05-01T07:44:01Z</time></trkpt><trkpt lat="39.64949608689796" lon="9.383611255981632"><ele>231.0</ele><time>2026-05-01T07:44:02Z</time></trkpt><trkpt lat="39.64959957507144" lon="9.383417747280939"><ele>227.0</ele><time>2026-05-01T07:44:03Z</time></trkpt><trkpt lat="39.64971445776053" lon="9.383226954769865"><ele>227.0</ele><time>2026-05-01T07:44:04Z</time></trkpt><trkpt lat="39.649824989718375" lon="9.383024212004798"><ele>227.0</ele><time>2026-05-01T07:44:05Z</time></trkpt><trkpt lat="39.64992926823549" lon="9.382807441471542"><ele>227.0</ele><time>2026-05-01T07:44:06Z</time></trkpt><trkpt lat="39.65003310549973" lon="9.38259721682757"><ele>230.66666666666669</ele><time>2026-05-01T07:44:07Z</time></trkpt><trkpt lat="39.65014387983393" lon="9.38239745421502"><ele>234.33333333333331</ele><time>2026-05-01T07:44:08Z</time></trkpt><trkpt lat="39.650252816377225" lon="9.382208798502116"><ele>238.0</ele><time>2026-05-01T07:44:09Z</time></trkpt><trkpt lat="39.65035583294871" lon="9.382021285863292"><ele>230.0</ele><time>2026-05-01T07:44:10Z</time></trkpt><trkpt lat="39.65044762615961" lon="9.381831741110847"><ele>222.0</ele><time>2026-05-01T07:44:11Z</time></trkpt><trkpt lat="39.65051768376868" lon="9.381631095869766"><ele>214.0</ele><time>2026-05-01T07:44:12Z</time></trkpt><trkpt lat="39.65054714628932" lon="9.381419901133004"><ele>215.75</ele><time>2026-05-01T07:44:13Z</time></trkpt><trkpt lat="39.65054620116516" lon="9.381215832924624"><ele>217.5</ele><time>2026-05-01T07:44:14Z</time></trkpt><trkpt lat="39.650561020835156" lon="9.381040434036873"><ele>219.25</ele><time>2026-05-01T07:44:15Z</time></trkpt><trkpt lat="39.65066466650939" lon="9.380919285844492"><ele>221.0</ele><time>2026-05-01T07:44:16Z</time></trkpt><trkpt lat="39.65078310925044" lon="9.380783763934593"><ele>221.0</ele><time>2026-05-01T07:44:17Z</time></trkpt><trkpt lat="39.650913018890904" lon="9.380647948851907"><ele>221.0</ele><time>2026-05-01T07:44:18Z</time></trkpt><trkpt lat="39.651040030660205" lon="9.380497635074686"><ele>221.0</ele><time>2026-05-01T07:44:19Z</time></trkpt><trkpt lat="39.65115133376686" lon="9.380350896053969"><ele>222.5</ele><time>2026-05-01T07:44:20Z</time></trkpt><trkpt lat="39.651267001533206" lon="9.380235899162553"><ele>224.0</ele><time>2026-05-01T07:44:21Z</time></trkpt><trkpt lat="39.65139772468611" lon="9.380178244718122"><ele>225.5</ele><time>2026-05-01T07:44:22Z</time></trkpt><trkpt lat="39.65152561617626" lon="9.38018656854743"><ele>227.0</ele><time>2026-05-01T07:44:23Z</time></trkpt><trkpt lat="39.65163755449419" lon="9.38030146228297"><ele>227.0</ele><time>2026-05-01T07:44:24Z</time></trkpt><trkpt lat="39.65171302484309" lon="9.38044250582722"><ele>227.0</ele><time>2026-05-01T07:44:25Z</time></trkpt><trkpt lat="39.65173475813156" lon="9.3806079235675"><ele>227.0</ele><time>2026-05-01T07:44:26Z</time></trkpt><trkpt lat="39.651768408998386" lon="9.380803990644894"><ele>227.0</ele><time>2026-05-01T07:44:27Z</time></trkpt><trkpt lat="39.651826679912205" lon="9.38097810632118"><ele>222.25</ele><time>2026-05-01T07:44:28Z</time></trkpt><trkpt lat="39.651924244641094" lon="9.381115037777148"><ele>217.5</ele><time>2026-05-01T07:44:29Z</time></trkpt><trkpt lat="39.65206176885114" lon="9.38118048629622"><ele>212.75</ele><time>2026-05-01T07:44:30Z</time></trkpt><trkpt lat="39.65221910565203" lon="9.381181455825853"><ele>208.0</ele><time>2026-05-01T07:44:31Z</time></trkpt><trkpt lat="39.65237581931506" lon="9.381134282876769"><ele>208.0</ele><time>2026-05-01T07:44:32Z</time></trkpt><trkpt lat="39.65252319939966" lon="9.381017629358086"><ele>208.0</ele><time>2026-05-01T07:44:33Z</time></trkpt><trkpt lat="39.65266390677119" lon="9.380878627191043"><ele>208.0</ele><time>2026-05-01T07:44:34Z</time></trkpt><trkpt lat="39.65280342891792" lon="9.380755845211088"><ele>201.66666666666666</ele><time>2026-05-01T07:44:35Z</time></trkpt><trkpt lat="39.65296247582478" lon="9.380667588322062"><ele>195.33333333333331</ele><time>2026-05-01T07:44:36Z</time></trkpt><trkpt lat="39.65313559877575" lon="9.380616844173877"><ele>189.0</ele><time>2026-05-01T07:44:37Z</time></trkpt><trkpt lat="39.65332683116331" lon="9.380587199560617"><ele>189.0</ele><time>2026-05-01T07:44:38Z</time></trkpt><trkpt lat="39.65352408242812" lon="9.380564201794733"><ele>189.0</ele><time>2026-05-01T07:44:39Z</time></trkpt><trkpt lat="39.6537273383723" lon="9.380535578869647"><ele>189.0</ele><time>2026-05-01T07:44:40Z</time></trkpt><trkpt lat="39.65393203650835" lon="9.380509222280505"><ele>187.66666666666666</ele><time>2026-05-01T07:44:41Z</time></trkpt><trkpt lat="39.65412685348448" lon="9.380551410688769"><ele>186.33333333333331</ele><time>2026-05-01T07:44:42Z</time></trkpt><trkpt lat="39.654329746821595" lon="9.380601033824902"><ele>185.0</ele><time>2026-05-01T07:44:43Z</time></trkpt><trkpt lat="39.65452477200914" lon="9.380705501511576"><ele>185.0</ele><time>2026-05-01T07:44:44Z</time></trkpt><trkpt lat="39.65472194025944" lon="9.380805816927934"><ele>185.0</ele><time>2026-05-01T07:44:45Z</time></trkpt><trkpt lat="39.65492734575951" lon="9.380898391555496"><ele>185.0</ele><time>2026-05-01T07:44:46Z</time></trkpt><trkpt lat="39.655130438999" lon="9.380984005321402"><ele>189.0</ele><time>2026-05-01T07:44:47Z</time></trkpt><trkpt lat="39.65533774815885" lon="9.381072032620922"><ele>193.0</ele><time>2026-05-01T07:44:48Z</time></trkpt><trkpt lat="39.65554536987441" lon="9.381163917216098"><ele>197.0</ele><time>2026-05-01T07:44:49Z</time></trkpt><trkpt lat="39.655748977014895" lon="9.381255702400559"><ele>197.0</ele><time>2026-05-01T07:44:50Z</time></trkpt><trkpt lat="39.655946040879584" lon="9.381346004224458"><ele>197.0</ele><time>2026-05-01T07:44:51Z</time></trkpt><trkpt lat="39.656136237602816" lon="9.381431257161795"><ele>197.0</ele><time>2026-05-01T07:44:52Z</time></trkpt><trkpt lat="39.656317785627046" lon="9.38150907385225"><ele>193.0</ele><time>2026-05-01T07:44:53Z</time></trkpt><trkpt lat="39.65648864900988" lon="9.381584792725386"><ele>189.0</ele><time>2026-05-01T07:44:54Z</time></trkpt><trkpt lat="39.65664973494647" lon="9.381678887487064"><ele>185.0</ele><time>2026-05-01T07:44:55Z</time></trkpt><trkpt lat="39.656797975583764" lon="9.38180704765813"><ele>185.0</ele><time>2026-05-01T07:44:56Z</time></trkpt><trkpt lat="39.656931110116844" lon="9.381972254280798"><ele>185.0</ele><time>2026-05-01T07:44:57Z</time></trkpt><trkpt lat="39.65703259388026" lon="9.38219424595841"><ele>185.0</ele><time>2026-05-01T07:44:58Z</time></trkpt><trkpt lat="39.65710604384792" lon="9.382442712905615"><ele>185.33333333333331</ele><time>2026-05-01T07:44:59Z</time></trkpt><trkpt lat="39.65715247986396" lon="9.382708796361506"><ele>185.66666666666666</ele><time>2026-05-01T07:45:00Z</time></trkpt><trkpt lat="39.65719406891895" lon="9.382984283495338"><ele>186.0</ele><time>2026-05-01T07:45:01Z</time></trkpt><trkpt lat="39.65724603623044" lon="9.38326250081281"><ele>186.0</ele><time>2026-05-01T07:45:02Z</time></trkpt><trkpt lat="39.657306467986764" lon="9.383541185307273"><ele>186.0</ele><time>2026-05-01T07:45:03Z</time></trkpt><trkpt lat="39.65736758125297" lon="9.383821309457646"><ele>186.0</ele><time>2026-05-01T07:45:04Z</time></trkpt><trkpt lat="39.65742726389552" lon="9.38410153527528"><ele>187.0</ele><time>2026-05-01T07:45:05Z</time></trkpt><trkpt lat="39.657487721004486" lon="9.38438843706782"><ele>188.0</ele><time>2026-05-01T07:45:06Z</time></trkpt><trkpt lat="39.657541376559884" lon="9.38467543222706"><ele>187.0</ele><time>2026-05-01T07:45:07Z</time></trkpt><trkpt lat="39.65760661843109" lon="9.384974083451377"><ele>186.0</ele><time>2026-05-01T07:45:08Z</time></trkpt><trkpt lat="39.657664176296194" lon="9.385256504021482"><ele>185.66666666666666</ele><time>2026-05-01T07:45:09Z</time></trkpt><trkpt lat="39.65771971774628" lon="9.385526611802847"><ele>185.33333333333331</ele><time>2026-05-01T07:45:10Z</time></trkpt><trkpt lat="39.657774709534735" lon="9.385792128275352"><ele>185.0</ele><time>2026-05-01T07:45:11Z</time></trkpt><trkpt lat="39.657829387680685" lon="9.386058533357682"><ele>186.0</ele><time>2026-05-01T07:45:12Z</time></trkpt><trkpt lat="39.65788410502068" lon="9.386322275342685"><ele>187.0</ele><time>2026-05-01T07:45:13Z</time></trkpt><trkpt lat="39.657937211893824" lon="9.386583742654212"><ele>188.0</ele><time>2026-05-01T07:45:14Z</time></trkpt><trkpt lat="39.65798961798597" lon="9.386831306716012"><ele>188.33333333333331</ele><time>2026-05-01T07:45:15Z</time></trkpt><trkpt lat="39.65803847472401" lon="9.387072010648113"><ele>188.66666666666666</ele><time>2026-05-01T07:45:16Z</time></trkpt><trkpt lat="39.658081960169234" lon="9.387314286187845"><ele>189.0</ele><time>2026-05-01T07:45:17Z</time></trkpt><trkpt lat="39.65809099913262" lon="9.3875586988683"><ele>189.0</ele><time>2026-05-01T07:45:18Z</time></trkpt><trkpt lat="39.658064565036334" lon="9.387804141112"><ele>189.0</ele><time>2026-05-01T07:45:19Z</time></trkpt><trkpt lat="39.658002284687214" lon="9.388048660126877"><ele>189.0</ele><time>2026-05-01T07:45:20Z</time></trkpt><trkpt lat="39.65793037405885" lon="9.3882957449762"><ele>188.33333333333334</ele><time>2026-05-01T07:45:21Z</time></trkpt><trkpt lat="39.657833192533445" lon="9.388540946935867"><ele>187.66666666666669</ele><time>2026-05-01T07:45:22Z</time></trkpt><trkpt lat="39.657735799660266" lon="9.388785671791062"><ele>187.0</ele><time>2026-05-01T07:45:23Z</time></trkpt><trkpt lat="39.65764372333495" lon="9.389032526574521"><ele>186.66666666666669</ele><time>2026-05-01T07:45:24Z</time></trkpt><trkpt lat="39.65755745670022" lon="9.38927972044515"><ele>186.33333333333334</ele><time>2026-05-01T07:45:25Z</time></trkpt><trkpt lat="39.657474380294225" lon="9.389535388866387"><ele>186.0</ele><time>2026-05-01T07:45:26Z</time></trkpt><trkpt lat="39.65739354067061" lon="9.389789632693754"><ele>186.0</ele><time>2026-05-01T07:45:27Z</time></trkpt><trkpt lat="39.65730991932982" lon="9.390037480666091"><ele>186.0</ele><time>2026-05-01T07:45:28Z</time></trkpt><trkpt lat="39.65722141490174" lon="9.390282377499847"><ele>186.0</ele><time>2026-05-01T07:45:29Z</time></trkpt><trkpt lat="39.65713266545934" lon="9.39052299873333"><ele>186.33333333333334</ele><time>2026-05-01T07:45:30Z</time></trkpt><trkpt lat="39.65704845228749" lon="9.390759849250351"><ele>186.66666666666669</ele><time>2026-05-01T07:45:31Z</time></trkpt><trkpt lat="39.65697468178803" lon="9.390996525554376"><ele>187.0</ele><time>2026-05-01T07:45:32Z</time></trkpt><trkpt lat="39.65691259497944" lon="9.39124016827694"><ele>195.33333333333334</ele><time>2026-05-01T07:45:33Z</time></trkpt><trkpt lat="39.65687512845811" lon="9.391486965202956"><ele>203.66666666666669</ele><time>2026-05-01T07:45:34Z</time></trkpt><trkpt lat="39.65686333973818" lon="9.391731316256202"><ele>212.0</ele><time>2026-05-01T07:45:35Z</time></trkpt><trkpt lat="39.656883361439384" lon="9.391972164137744"><ele>209.66666666666669</ele><time>2026-05-01T07:45:36Z</time></trkpt><trkpt lat="39.6569277146904" lon="9.392207154617024"><ele>207.33333333333331</ele><time>2026-05-01T07:45:37Z</time></trkpt><trkpt lat="39.657004889892136" lon="9.392433262590277"><ele>205.0</ele><time>2026-05-01T07:45:38Z</time></trkpt><trkpt lat="39.65710257527232" lon="9.392645755987404"><ele>203.33333333333331</ele><time>2026-05-01T07:45:39Z</time></trkpt><trkpt lat="39.657226181174764" lon="9.392848714210661"><ele>201.66666666666669</ele><time>2026-05-01T07:45:40Z</time></trkpt><trkpt lat="39.65737202843486" lon="9.393027424453852"><ele>200.0</ele><time>2026-05-01T07:45:41Z</time></trkpt><trkpt lat="39.65754082583394" lon="9.393176724073323"><ele>200.0</ele><time>2026-05-01T07:45:42Z</time></trkpt><trkpt lat="39.65772428069702" lon="9.39330179012775"><ele>200.0</ele><time>2026-05-01T07:45:43Z</time></trkpt><trkpt lat="39.65791391520087" lon="9.39341415603722"><ele>200.0</ele><time>2026-05-01T07:45:44Z</time></trkpt><trkpt lat="39.6581025463472" lon="9.39352720353846"><ele>201.0</ele><time>2026-05-01T07:45:45Z</time></trkpt><trkpt lat="39.65828949273279" lon="9.39364595356866"><ele>202.0</ele><time>2026-05-01T07:45:46Z</time></trkpt><trkpt lat="39.6584771998639" lon="9.393765438101552"><ele>203.0</ele><time>2026-05-01T07:45:47Z</time></trkpt><trkpt lat="39.65866326151813" lon="9.39388370750307"><ele>203.0</ele><time>2026-05-01T07:45:48Z</time></trkpt><trkpt lat="39.658847160402566" lon="9.394000395429329"><ele>203.0</ele><time>2026-05-01T07:45:49Z</time></trkpt><trkpt lat="39.6590274397269" lon="9.394116903033186"><ele>203.0</ele><time>2026-05-01T07:45:50Z</time></trkpt><trkpt lat="39.659208231398026" lon="9.394230880523624"><ele>203.0</ele><time>2026-05-01T07:45:51Z</time></trkpt><trkpt lat="39.659389147087104" lon="9.394343320931444"><ele>203.0</ele><time>2026-05-01T07:45:52Z</time></trkpt><trkpt lat="39.65957177562424" lon="9.394452930790811"><ele>203.0</ele><time>2026-05-01T07:45:53Z</time></trkpt><trkpt lat="39.659754372485814" lon="9.394563609847614"><ele>204.66666666666669</ele><time>2026-05-01T07:45:54Z</time></trkpt><trkpt lat="39.659934497871994" lon="9.394678090475539"><ele>206.33333333333331</ele><time>2026-05-01T07:45:55Z</time></trkpt><trkpt lat="39.66011612228456" lon="9.394796477804112"><ele>208.0</ele><time>2026-05-01T07:45:56Z</time></trkpt><trkpt lat="39.66030047418304" lon="9.39491640227022"><ele>208.0</ele><time>2026-05-01T07:45:57Z</time></trkpt><trkpt lat="39.6604883786048" lon="9.395034221632487"><ele>208.0</ele><time>2026-05-01T07:45:58Z</time></trkpt><trkpt lat="39.66067848998737" lon="9.39515120077976"><ele>208.0</ele><time>2026-05-01T07:45:59Z</time></trkpt><trkpt lat="39.660868531916535" lon="9.395267937819664"><ele>208.0</ele><time>2026-05-01T07:46:00Z</time></trkpt><trkpt lat="39.66106228356887" lon="9.39538608998983"><ele>208.0</ele><time>2026-05-01T07:46:01Z</time></trkpt><trkpt lat="39.66125612398541" lon="9.395507482094702"><ele>208.0</ele><time>2026-05-01T07:46:02Z</time></trkpt><trkpt lat="39.661449769641685" lon="9.395631391034863"><ele>206.33333333333331</ele><time>2026-05-01T07:46:03Z</time></trkpt><trkpt lat="39.661632429226835" lon="9.395749821781008"><ele>204.66666666666669</ele><time>2026-05-01T07:46:04Z</time></trkpt><trkpt lat="39.661804134398295" lon="9.395866519646335"><ele>203.0</ele><time>2026-05-01T07:46:05Z</time></trkpt><trkpt lat="39.66195337044242" lon="9.395987917280717"><ele>203.0</ele><time>2026-05-01T07:46:06Z</time></trkpt><trkpt lat="39.66207563883685" lon="9.396134600469361"><ele>203.0</ele><time>2026-05-01T07:46:07Z</time></trkpt><trkpt lat="39.662154206359524" lon="9.396316525206759"><ele>203.0</ele><time>2026-05-01T07:46:08Z</time></trkpt><trkpt lat="39.66219224212152" lon="9.396527127268941"><ele>206.33333333333334</ele><time>2026-05-01T07:46:09Z</time></trkpt><trkpt lat="39.66218727770102" lon="9.396747636245893"><ele>209.66666666666669</ele><time>2026-05-01T07:46:10Z</time></trkpt><trkpt lat="39.662138778569215" lon="9.396956624020618"><ele>213.0</ele><time>2026-05-01T07:46:11Z</time></trkpt><trkpt lat="39.66203537597634" lon="9.397156588190402"><ele>222.0</ele><time>2026-05-01T07:46:12Z</time></trkpt><trkpt lat="39.66191518095238" lon="9.397313892268722"><ele>231.0</ele><time>2026-05-01T07:46:13Z</time></trkpt><trkpt lat="39.66176337462764" lon="9.397445586084089"><ele>240.0</ele><time>2026-05-01T07:46:14Z</time></trkpt><trkpt lat="39.66161037685823" lon="9.397583997176508"><ele>240.0</ele><time>2026-05-01T07:46:15Z</time></trkpt><trkpt lat="39.66146163656424" lon="9.397726418079015"><ele>240.0</ele><time>2026-05-01T07:46:16Z</time></trkpt><trkpt lat="39.66131448899516" lon="9.397875435272994"><ele>240.0</ele><time>2026-05-01T07:46:17Z</time></trkpt><trkpt lat="39.661167521393786" lon="9.39802973046577"><ele>245.66666666666669</ele><time>2026-05-01T07:46:18Z</time></trkpt><trkpt lat="39.661026837816394" lon="9.398190748997074"><ele>251.33333333333334</ele><time>2026-05-01T07:46:19Z</time></trkpt><trkpt lat="39.660895374158834" lon="9.3983661490909"><ele>257.0</ele><time>2026-05-01T07:46:20Z</time></trkpt><trkpt lat="39.66077934771329" lon="9.39855815437199"><ele>257.0</ele><time>2026-05-01T07:46:21Z</time></trkpt><trkpt lat="39.66067180722558" lon="9.398755737055016"><ele>257.0</ele><time>2026-05-01T07:46:22Z</time></trkpt><trkpt lat="39.66055977920673" lon="9.398947792391722"><ele>257.0</ele><time>2026-05-01T07:46:23Z</time></trkpt><trkpt lat="39.6604482107462" lon="9.399131048093576"><ele>251.66666666666669</ele><time>2026-05-01T07:46:24Z</time></trkpt><trkpt lat="39.660331194692944" lon="9.399309830847669"><ele>246.33333333333331</ele><time>2026-05-01T07:46:25Z</time></trkpt><trkpt lat="39.660203810724646" lon="9.399470981553806"><ele>241.0</ele><time>2026-05-01T07:46:26Z</time></trkpt><trkpt lat="39.660063818081966" lon="9.399615352448414"><ele>245.66666666666666</ele><time>2026-05-01T07:46:27Z</time></trkpt><trkpt lat="39.65991638725713" lon="9.39974896237199"><ele>250.33333333333331</ele><time>2026-05-01T07:46:28Z</time></trkpt><trkpt lat="39.65976017569503" lon="9.399865969061528"><ele>255.0</ele><time>2026-05-01T07:46:29Z</time></trkpt><trkpt lat="39.659594498922296" lon="9.399961664408762"><ele>264.6666666666667</ele><time>2026-05-01T07:46:30Z</time></trkpt><trkpt lat="39.659425624307204" lon="9.400048927032728"><ele>274.33333333333337</ele><time>2026-05-01T07:46:31Z</time></trkpt><trkpt lat="39.659262229482565" lon="9.40013734211967"><ele>284.0</ele><time>2026-05-01T07:46:32Z</time></trkpt><trkpt lat="39.65910769269862" lon="9.400212953678725"><ele>284.0</ele><time>2026-05-01T07:46:33Z</time></trkpt><trkpt lat="39.65897297011749" lon="9.40028603332207"><ele>284.0</ele><time>2026-05-01T07:46:34Z</time></trkpt><trkpt lat="39.65885893009055" lon="9.400377907833304"><ele>284.0</ele><time>2026-05-01T07:46:35Z</time></trkpt><trkpt lat="39.65876646168643" lon="9.400503291061984"><ele>284.0</ele><time>2026-05-01T07:46:36Z</time></trkpt><trkpt lat="39.6586913367127" lon="9.40065923637616"><ele>281.25</ele><time>2026-05-01T07:46:37Z</time></trkpt><trkpt lat="39.65865314592554" lon="9.400838581499352"><ele>278.5</ele><time>2026-05-01T07:46:38Z</time></trkpt><trkpt lat="39.65866080640976" lon="9.401016221307527"><ele>275.75</ele><time>2026-05-01T07:46:39Z</time></trkpt><trkpt lat="39.6587164010638" lon="9.401183877128956"><ele>273.0</ele><time>2026-05-01T07:46:40Z</time></trkpt><trkpt lat="39.658809541937615" lon="9.401325098721998"><ele>279.25</ele><time>2026-05-01T07:46:41Z</time></trkpt><trkpt lat="39.658931690807805" lon="9.401429659279481"><ele>285.5</ele><time>2026-05-01T07:46:42Z</time></trkpt><trkpt lat="39.659074927531805" lon="9.40147510966087"><ele>291.75</ele><time>2026-05-01T07:46:43Z</time></trkpt><trkpt lat="39.65922672259666" lon="9.401489835242014"><ele>298.0</ele><time>2026-05-01T07:46:44Z</time></trkpt><trkpt lat="39.659371792972294" lon="9.401519718331201"><ele>293.3333333333333</ele><time>2026-05-01T07:46:45Z</time></trkpt><trkpt lat="39.65951237129653" lon="9.401581068027923"><ele>288.6666666666667</ele><time>2026-05-01T07:46:46Z</time></trkpt><trkpt lat="39.65963894935668" lon="9.401687853610943"><ele>284.0</ele><time>2026-05-01T07:46:47Z</time></trkpt><trkpt lat="39.65974877086016" lon="9.401831221986425"><ele>284.0</ele><time>2026-05-01T07:46:48Z</time></trkpt><trkpt lat="39.65984759190488" lon="9.401973255338465"><ele>284.0</ele><time>2026-05-01T07:46:49Z</time></trkpt><trkpt lat="39.65992701880802" lon="9.402132182311066"><ele>284.0</ele><time>2026-05-01T07:46:50Z</time></trkpt><trkpt lat="39.659972569967046" lon="9.402318499134303"><ele>284.0</ele><time>2026-05-01T07:46:51Z</time></trkpt><trkpt lat="39.65998718701265" lon="9.402516892115425"><ele>287.75</ele><time>2026-05-01T07:46:52Z</time></trkpt><trkpt lat="39.65997546084772" lon="9.402699539419688"><ele>291.5</ele><time>2026-05-01T07:46:53Z</time></trkpt><trkpt lat="39.65992253578564" lon="9.40284469183554"><ele>295.25</ele><time>2026-05-01T07:46:54Z</time></trkpt><trkpt lat="39.65981677525069" lon="9.402935405780406"><ele>299.0</ele><time>2026-05-01T07:46:55Z</time></trkpt><trkpt lat="39.65970148135443" lon="9.403002867555054"><ele>302.75</ele><time>2026-05-01T07:46:56Z</time></trkpt><trkpt lat="39.65956117852312" lon="9.403013455498206"><ele>306.5</ele><time>2026-05-01T07:46:57Z</time></trkpt><trkpt lat="39.65943160222325" lon="9.402964270347663"><ele>310.25</ele><time>2026-05-01T07:46:58Z</time></trkpt><trkpt lat="39.659308374641526" lon="9.402857487001949"><ele>314.0</ele><time>2026-05-01T07:46:59Z</time></trkpt><trkpt lat="39.659169677205576" lon="9.402756273037866"><ele>314.33333333333337</ele><time>2026-05-01T07:47:00Z</time></trkpt><trkpt lat="39.65903093093525" lon="9.402632802551269"><ele>314.6666666666667</ele><time>2026-05-01T07:47:01Z</time></trkpt><trkpt lat="39.658883927007786" lon="9.402508894690317"><ele>315.0</ele><time>2026-05-01T07:47:02Z</time></trkpt><trkpt lat="39.658741608178644" lon="9.402358715814316"><ele>315.6666666666667</ele><time>2026-05-01T07:47:03Z</time></trkpt><trkpt lat="39.65858653906084" lon="9.40222613902857"><ele>316.33333333333337</ele><time>2026-05-01T07:47:04Z</time></trkpt><trkpt lat="39.65842561343951" lon="9.402100226921098"><ele>317.0</ele><time>2026-05-01T07:47:05Z</time></trkpt><trkpt lat="39.65826349143331" lon="9.401982184443728"><ele>317.0</ele><time>2026-05-01T07:47:06Z</time></trkpt><trkpt lat="39.65809603605843" lon="9.401865186567804"><ele>317.0</ele><time>2026-05-01T07:47:07Z</time></trkpt><trkpt lat="39.657925782360316" lon="9.40175978764798"><ele>317.0</ele><time>2026-05-01T07:47:08Z</time></trkpt><trkpt lat="39.657749490282924" lon="9.401683688270413"><ele>323.6666666666667</ele><time>2026-05-01T07:47:09Z</time></trkpt><trkpt lat="39.65757571651876" lon="9.401616687076931"><ele>330.3333333333333</ele><time>2026-05-01T07:47:10Z</time></trkpt><trkpt lat="39.65736356563383" lon="9.401533346851563"><ele>337.0</ele><time>2026-05-01T07:47:11Z</time></trkpt><trkpt lat="39.657187228871194" lon="9.401445645753695"><ele>333.66666666666663</ele><time>2026-05-01T07:47:12Z</time></trkpt><trkpt lat="39.657014984792106" lon="9.40132701994697"><ele>330.3333333333333</ele><time>2026-05-01T07:47:13Z</time></trkpt><trkpt lat="39.65683434332899" lon="9.40121058746719"><ele>327.0</ele><time>2026-05-01T07:47:14Z</time></trkpt><trkpt lat="39.656667345012" lon="9.401053500632317"><ele>334.3333333333333</ele><time>2026-05-01T07:47:15Z</time></trkpt><trkpt lat="39.656484778673565" lon="9.400933245654565"><ele>341.66666666666663</ele><time>2026-05-01T07:47:16Z</time></trkpt><trkpt lat="39.6562980673933" lon="9.400828881448874"><ele>349.0</ele><time>2026-05-01T07:47:17Z</time></trkpt><trkpt lat="39.656108733643386" lon="9.400723688251396"><ele>355.66666666666663</ele><time>2026-05-01T07:47:18Z</time></trkpt><trkpt lat="39.655918176755726" lon="9.400618987806242"><ele>362.3333333333333</ele><time>2026-05-01T07:47:19Z</time></trkpt><trkpt lat="39.65572008970191" lon="9.400526519544393"><ele>369.0</ele><time>2026-05-01T07:47:20Z</time></trkpt><trkpt lat="39.655529231697365" lon="9.400417618417405"><ele>371.6666666666667</ele><time>2026-05-01T07:47:21Z</time></trkpt><trkpt lat="39.655342934147434" lon="9.400314273285009"><ele>374.33333333333337</ele><time>2026-05-01T07:47:22Z</time></trkpt><trkpt lat="39.655156767734326" lon="9.400222367620726"><ele>377.0</ele><time>2026-05-01T07:47:23Z</time></trkpt><trkpt lat="39.65496453366166" lon="9.400162539562512"><ele>377.6666666666667</ele><time>2026-05-01T07:47:24Z</time></trkpt><trkpt lat="39.654769615056566" lon="9.400154768500533"><ele>378.3333333333333</ele><time>2026-05-01T07:47:25Z</time></trkpt><trkpt lat="39.654573722031735" lon="9.400195595868952"><ele>379.0</ele><time>2026-05-01T07:47:26Z</time></trkpt><trkpt lat="39.65438225145545" lon="9.400273514704434"><ele>377.0</ele><time>2026-05-01T07:47:27Z</time></trkpt><trkpt lat="39.65419697107492" lon="9.40038037264011"><ele>375.0</ele><time>2026-05-01T07:47:28Z</time></trkpt><trkpt lat="39.65402471287653" lon="9.400520568443458"><ele>373.0</ele><time>2026-05-01T07:47:29Z</time></trkpt><trkpt lat="39.65386878506264" lon="9.400687285545711"><ele>373.0</ele><time>2026-05-01T07:47:30Z</time></trkpt><trkpt lat="39.653745215528446" lon="9.400893300230221"><ele>373.0</ele><time>2026-05-01T07:47:31Z</time></trkpt><trkpt lat="39.65364373316522" lon="9.401125562135636"><ele>373.0</ele><time>2026-05-01T07:47:32Z</time></trkpt><trkpt lat="39.65354633579821" lon="9.40135650354038"><ele>373.0</ele><time>2026-05-01T07:47:33Z</time></trkpt><trkpt lat="39.65344652075928" lon="9.401590459092015"><ele>373.0</ele><time>2026-05-01T07:47:34Z</time></trkpt><trkpt lat="39.65335706510668" lon="9.401810009701924"><ele>373.0</ele><time>2026-05-01T07:47:35Z</time></trkpt><trkpt lat="39.6532434873947" lon="9.401993556191583"><ele>377.66666666666663</ele><time>2026-05-01T07:47:36Z</time></trkpt><trkpt lat="39.65314085149763" lon="9.402174827756271"><ele>382.3333333333333</ele><time>2026-05-01T07:47:37Z</time></trkpt><trkpt lat="39.653045067782855" lon="9.402338645893654"><ele>387.0</ele><time>2026-05-01T07:47:38Z</time></trkpt><trkpt lat="39.65299587543331" lon="9.402524700107959"><ele>387.0</ele><time>2026-05-01T07:47:39Z</time></trkpt><trkpt lat="39.65298730106398" lon="9.402727111068899"><ele>387.0</ele><time>2026-05-01T07:47:40Z</time></trkpt><trkpt lat="39.65302077622433" lon="9.402939150763881"><ele>387.0</ele><time>2026-05-01T07:47:41Z</time></trkpt><trkpt lat="39.65308225965229" lon="9.403125135584556"><ele>385.3333333333333</ele><time>2026-05-01T07:47:42Z</time></trkpt><trkpt lat="39.65319871748283" lon="9.403283904699272"><ele>383.66666666666663</ele><time>2026-05-01T07:47:43Z</time></trkpt><trkpt lat="39.65335164428587" lon="9.40338270604446"><ele>382.0</ele><time>2026-05-01T07:47:44Z</time></trkpt><trkpt lat="39.653513955020806" lon="9.403464711327807"><ele>389.0</ele><time>2026-05-01T07:47:45Z</time></trkpt><trkpt lat="39.65369900378593" lon="9.403536387067025"><ele>396.0</ele><time>2026-05-01T07:47:46Z</time></trkpt><trkpt lat="39.653882628315735" lon="9.40361475446625"><ele>403.0</ele><time>2026-05-01T07:47:47Z</time></trkpt><trkpt lat="39.654068912513175" lon="9.403696889636608"><ele>403.0</ele><time>2026-05-01T07:47:48Z</time></trkpt><trkpt lat="39.654254411744645" lon="9.403772675160324"><ele>403.0</ele><time>2026-05-01T07:47:49Z</time></trkpt><trkpt lat="39.65443595533759" lon="9.40385662756721"><ele>403.0</ele><time>2026-05-01T07:47:50Z</time></trkpt><trkpt lat="39.65459860888933" lon="9.403979630828175"><ele>402.6666666666667</ele><time>2026-05-01T07:47:51Z</time></trkpt><trkpt lat="39.654742177372896" lon="9.404148595590007"><ele>402.33333333333337</ele><time>2026-05-01T07:47:52Z</time></trkpt><trkpt lat="39.65487153541707" lon="9.404346237817863"><ele>402.0</ele><time>2026-05-01T07:47:53Z</time></trkpt><trkpt lat="39.6550092115924" lon="9.404539429189462"><ele>397.33333333333337</ele><time>2026-05-01T07:47:54Z</time></trkpt><trkpt lat="39.65515454594081" lon="9.404727546752834"><ele>392.6666666666667</ele><time>2026-05-01T07:47:55Z</time></trkpt><trkpt lat="39.65529621567873" lon="9.404907368893717"><ele>388.0</ele><time>2026-05-01T07:47:56Z</time></trkpt><trkpt lat="39.65541953948145" lon="9.405075085223485"><ele>397.33333333333337</ele><time>2026-05-01T07:47:57Z</time></trkpt><trkpt lat="39.65550672790298" lon="9.405266061424276"><ele>406.66666666666663</ele><time>2026-05-01T07:47:58Z</time></trkpt><trkpt lat="39.655550816482446" lon="9.405476870962065"><ele>416.0</ele><time>2026-05-01T07:47:59Z</time></trkpt><trkpt lat="39.655537852998656" lon="9.40570623547224"><ele>416.0</ele><time>2026-05-01T07:48:00Z</time></trkpt><trkpt lat="39.655529794595715" lon="9.405936431175897"><ele>416.0</ele><time>2026-05-01T07:48:01Z</time></trkpt><trkpt lat="39.655540184085524" lon="9.406143487902822"><ele>416.0</ele><time>2026-05-01T07:48:02Z</time></trkpt><trkpt lat="39.65553495588966" lon="9.406339770904147"><ele>416.75</ele><time>2026-05-01T07:48:03Z</time></trkpt><trkpt lat="39.65546102497956" lon="9.406492031605381"><ele>417.5</ele><time>2026-05-01T07:48:04Z</time></trkpt><trkpt lat="39.655354053729106" lon="9.406580889159596"><ele>418.25</ele><time>2026-05-01T07:48:05Z</time></trkpt><trkpt lat="39.65523666663644" lon="9.406699895616436"><ele>419.0</ele><time>2026-05-01T07:48:06Z</time></trkpt><trkpt lat="39.65509827016028" lon="9.406783472635363"><ele>413.66666666666663</ele><time>2026-05-01T07:48:07Z</time></trkpt><trkpt lat="39.654943756309414" lon="9.406844999983331"><ele>408.33333333333337</ele><time>2026-05-01T07:48:08Z</time></trkpt><trkpt lat="39.654787382973794" lon="9.406825157448687"><ele>403.0</ele><time>2026-05-01T07:48:09Z</time></trkpt><trkpt lat="39.65463332298483" lon="9.40683431387793"><ele>403.0</ele><time>2026-05-01T07:48:10Z</time></trkpt><trkpt lat="39.65449601701322" lon="9.406847103203255"><ele>403.0</ele><time>2026-05-01T07:48:11Z</time></trkpt><trkpt lat="39.654375300594644" lon="9.40691687071222"><ele>403.0</ele><time>2026-05-01T07:48:12Z</time></trkpt><trkpt lat="39.6542764551701" lon="9.407037807967539"><ele>403.0</ele><time>2026-05-01T07:48:13Z</time></trkpt><trkpt lat="39.65420462053576" lon="9.407191575280345"><ele>403.25</ele><time>2026-05-01T07:48:14Z</time></trkpt><trkpt lat="39.65416962085192" lon="9.407359211472642"><ele>403.5</ele><time>2026-05-01T07:48:15Z</time></trkpt><trkpt lat="39.654189824079054" lon="9.407517719150427"><ele>403.75</ele><time>2026-05-01T07:48:16Z</time></trkpt><trkpt lat="39.654256977872" lon="9.407669367801411"><ele>404.0</ele><time>2026-05-01T07:48:17Z</time></trkpt><trkpt lat="39.65434952009781" lon="9.407807213856486"><ele>405.5</ele><time>2026-05-01T07:48:18Z</time></trkpt><trkpt lat="39.654461138894916" lon="9.407931870872703"><ele>407.0</ele><time>2026-05-01T07:48:19Z</time></trkpt><trkpt lat="39.65459379054847" lon="9.40801388273624"><ele>408.5</ele><time>2026-05-01T07:48:20Z</time></trkpt><trkpt lat="39.654747343594565" lon="9.408038274392252"><ele>410.0</ele><time>2026-05-01T07:48:21Z</time></trkpt><trkpt lat="39.654910265715465" lon="9.408028262328422"><ele>411.66666666666663</ele><time>2026-05-01T07:48:22Z</time></trkpt><trkpt lat="39.65506885010003" lon="9.407981211465204"><ele>413.33333333333337</ele><time>2026-05-01T07:48:23Z</time></trkpt><trkpt lat="39.65522097944145" lon="9.407888804079969"><ele>415.0</ele><time>2026-05-01T07:48:24Z</time></trkpt><trkpt lat="39.655373093301016" lon="9.407784285533506"><ele>418.6666666666667</ele><time>2026-05-01T07:48:25Z</time></trkpt><trkpt lat="39.655526118013675" lon="9.407673472800594"><ele>422.33333333333337</ele><time>2026-05-01T07:48:26Z</time></trkpt><trkpt lat="39.65567638423216" lon="9.407545424054282"><ele>426.0</ele><time>2026-05-01T07:48:27Z</time></trkpt><trkpt lat="39.65582211633414" lon="9.407402478153736"><ele>426.0</ele><time>2026-05-01T07:48:28Z</time></trkpt><trkpt lat="39.655963539184896" lon="9.407253498543133"><ele>426.0</ele><time>2026-05-01T07:48:29Z</time></trkpt><trkpt lat="39.65610255314495" lon="9.407103772646856"><ele>426.0</ele><time>2026-05-01T07:48:30Z</time></trkpt><trkpt lat="39.65623256947663" lon="9.406946713166933"><ele>429.33333333333337</ele><time>2026-05-01T07:48:31Z</time></trkpt><trkpt lat="39.65633921894176" lon="9.406765282950712"><ele>432.6666666666667</ele><time>2026-05-01T07:48:32Z</time></trkpt><trkpt lat="39.65641742868992" lon="9.40655290738919"><ele>436.0</ele><time>2026-05-01T07:48:33Z</time></trkpt><trkpt lat="39.656469440727655" lon="9.406322164566827"><ele>436.0</ele><time>2026-05-01T07:48:34Z</time></trkpt><trkpt lat="39.65651749128957" lon="9.406099525134604"><ele>436.0</ele><time>2026-05-01T07:48:35Z</time></trkpt><trkpt lat="39.65657506863531" lon="9.405892833411158"><ele>436.0</ele><time>2026-05-01T07:48:36Z</time></trkpt><trkpt lat="39.65662690490774" lon="9.405705105380875"><ele>436.0</ele><time>2026-05-01T07:48:37Z</time></trkpt><trkpt lat="39.656694111529966" lon="9.405538143362403"><ele>436.0</ele><time>2026-05-01T07:48:38Z</time></trkpt><trkpt lat="39.656790782259634" lon="9.405411034590237"><ele>436.0</ele><time>2026-05-01T07:48:39Z</time></trkpt><trkpt lat="39.65691179823522" lon="9.405344276836587"><ele>436.0</ele><time>2026-05-01T07:48:40Z</time></trkpt><trkpt lat="39.65705132294259" lon="9.405321939846937"><ele>433.6666666666667</ele><time>2026-05-01T07:48:41Z</time></trkpt><trkpt lat="39.65719921397116" lon="9.405336745637449"><ele>431.33333333333337</ele><time>2026-05-01T07:48:42Z</time></trkpt><trkpt lat="39.65734870779233" lon="9.405394095367631"><ele>429.0</ele><time>2026-05-01T07:48:43Z</time></trkpt><trkpt lat="39.65749484008172" lon="9.405489243902258"><ele>432.0</ele><time>2026-05-01T07:48:44Z</time></trkpt><trkpt lat="39.65764271531182" lon="9.405598708637703"><ele>435.0</ele><time>2026-05-01T07:48:45Z</time></trkpt><trkpt lat="39.65779571257328" lon="9.405713314953848"><ele>438.0</ele><time>2026-05-01T07:48:46Z</time></trkpt><trkpt lat="39.65794687326694" lon="9.405832449527427"><ele>438.0</ele><time>2026-05-01T07:48:47Z</time></trkpt><trkpt lat="39.65810002237409" lon="9.40594990993921"><ele>438.0</ele><time>2026-05-01T07:48:48Z</time></trkpt><trkpt lat="39.65825382244303" lon="9.40606510139169"><ele>438.0</ele><time>2026-05-01T07:48:49Z</time></trkpt><trkpt lat="39.65840246001699" lon="9.406192864990944"><ele>440.66666666666663</ele><time>2026-05-01T07:48:50Z</time></trkpt><trkpt lat="39.65853507986703" lon="9.406349007810032"><ele>443.3333333333333</ele><time>2026-05-01T07:48:51Z</time></trkpt><trkpt lat="39.658654242378766" lon="9.406516537540517"><ele>446.0</ele><time>2026-05-01T07:48:52Z</time></trkpt><trkpt lat="39.65878238622456" lon="9.406677811588684"><ele>446.0</ele><time>2026-05-01T07:48:53Z</time></trkpt><trkpt lat="39.65892005447905" lon="9.406827261138005"><ele>446.0</ele><time>2026-05-01T07:48:54Z</time></trkpt><trkpt lat="39.65906036778586" lon="9.406968934096293"><ele>446.0</ele><time>2026-05-01T07:48:55Z</time></trkpt><trkpt lat="39.65920174876513" lon="9.407109651507062"><ele>451.0</ele><time>2026-05-01T07:48:56Z</time></trkpt><trkpt lat="39.659343792463716" lon="9.407249603802686"><ele>456.0</ele><time>2026-05-01T07:48:57Z</time></trkpt><trkpt lat="39.65948458550486" lon="9.407393741974317"><ele>461.0</ele><time>2026-05-01T07:48:58Z</time></trkpt><trkpt lat="39.65961429569151" lon="9.40755166848407"><ele>461.0</ele><time>2026-05-01T07:48:59Z</time></trkpt><trkpt lat="39.659710244992574" lon="9.407745167704663"><ele>461.0</ele><time>2026-05-01T07:49:00Z</time></trkpt><trkpt lat="39.659759216481575" lon="9.40796056153913"><ele>461.0</ele><time>2026-05-01T07:49:01Z</time></trkpt><trkpt lat="39.65976361917043" lon="9.40818619329706"><ele>460.0</ele><time>2026-05-01T07:49:02Z</time></trkpt><trkpt lat="39.659745681174165" lon="9.40841600406845"><ele>459.0</ele><time>2026-05-01T07:49:03Z</time></trkpt><trkpt lat="39.65971138408174" lon="9.408652587816494"><ele>458.0</ele><time>2026-05-01T07:49:04Z</time></trkpt><trkpt lat="39.6596424250155" lon="9.40888110998349"><ele>458.0</ele><time>2026-05-01T07:49:05Z</time></trkpt><trkpt lat="39.659547838614074" lon="9.409103893832777"><ele>458.0</ele><time>2026-05-01T07:49:06Z</time></trkpt><trkpt lat="39.659445921966345" lon="9.409332230912154"><ele>458.0</ele><time>2026-05-01T07:49:07Z</time></trkpt><trkpt lat="39.659341972690406" lon="9.409564004055268"><ele>460.66666666666663</ele><time>2026-05-01T07:49:08Z</time></trkpt><trkpt lat="39.65924016339466" lon="9.409791459757134"><ele>463.33333333333337</ele><time>2026-05-01T07:49:09Z</time></trkpt><trkpt lat="39.65913950729051" lon="9.410020772687789"><ele>466.0</ele><time>2026-05-01T07:49:10Z</time></trkpt><trkpt lat="39.65903899188085" lon="9.410253326571162"><ele>466.0</ele><time>2026-05-01T07:49:11Z</time></trkpt><trkpt lat="39.65894867270149" lon="9.41048650985369"><ele>466.0</ele><time>2026-05-01T07:49:12Z</time></trkpt><trkpt lat="39.65887736849135" lon="9.41072767765021"><ele>466.0</ele><time>2026-05-01T07:49:13Z</time></trkpt><trkpt lat="39.65882415787016" lon="9.41098214129558"><ele>466.6666666666667</ele><time>2026-05-01T07:49:14Z</time></trkpt><trkpt lat="39.658791899079574" lon="9.411246804006126"><ele>467.33333333333337</ele><time>2026-05-01T07:49:15Z</time></trkpt><trkpt lat="39.65878583302772" lon="9.411514606195722"><ele>468.0</ele><time>2026-05-01T07:49:16Z</time></trkpt><trkpt lat="39.65880476199214" lon="9.41178872735019"><ele>469.66666666666663</ele><time>2026-05-01T07:49:17Z</time></trkpt><trkpt lat="39.658841061483635" lon="9.412059169409552"><ele>471.3333333333333</ele><time>2026-05-01T07:49:18Z</time></trkpt><trkpt lat="39.65888640492479" lon="9.412327995692971"><ele>473.0</ele><time>2026-05-01T07:49:19Z</time></trkpt><trkpt lat="39.65892768943463" lon="9.412585588381795"><ele>474.3333333333333</ele><time>2026-05-01T07:49:20Z</time></trkpt><trkpt lat="39.65896589395317" lon="9.412836255673753"><ele>475.66666666666663</ele><time>2026-05-01T07:49:21Z</time></trkpt><trkpt lat="39.659008768936644" lon="9.413133749703059"><ele>477.0</ele><time>2026-05-01T07:49:22Z</time></trkpt><trkpt lat="39.659060895437094" lon="9.41339407728603"><ele>479.0</ele><time>2026-05-01T07:49:23Z</time></trkpt><trkpt lat="39.659124535332026" lon="9.413644312201178"><ele>481.0</ele><time>2026-05-01T07:49:24Z</time></trkpt><trkpt lat="39.65921956547466" lon="9.413888409126391"><ele>483.0</ele><time>2026-05-01T07:49:25Z</time></trkpt><trkpt lat="39.65934351857262" lon="9.41412395044621"><ele>485.5</ele><time>2026-05-01T07:49:26Z</time></trkpt><trkpt lat="39.659483536085325" lon="9.414349994812452"><ele>488.0</ele><time>2026-05-01T07:49:27Z</time></trkpt><trkpt lat="39.659636026368716" lon="9.414567629103745"><ele>489.3333333333333</ele><time>2026-05-01T07:49:28Z</time></trkpt><trkpt lat="39.65979098231216" lon="9.414779114290555"><ele>490.66666666666663</ele><time>2026-05-01T07:49:29Z</time></trkpt><trkpt lat="39.65994617297311" lon="9.414982436713485"><ele>492.0</ele><time>2026-05-01T07:49:30Z</time></trkpt><trkpt lat="39.660101707590144" lon="9.415184707567668"><ele>492.0</ele><time>2026-05-01T07:49:31Z</time></trkpt><trkpt lat="39.660251060253444" lon="9.415385126088655"><ele>492.0</ele><time>2026-05-01T07:49:32Z</time></trkpt><trkpt lat="39.66039660910606" lon="9.415591237218102"><ele>492.0</ele><time>2026-05-01T07:49:33Z</time></trkpt><trkpt lat="39.66053799728318" lon="9.415794936769377"><ele>494.33333333333337</ele><time>2026-05-01T07:49:34Z</time></trkpt><trkpt lat="39.660680015433236" lon="9.41599656922071"><ele>496.6666666666667</ele><time>2026-05-01T07:49:35Z</time></trkpt><trkpt lat="39.66082072216119" lon="9.416183632503795"><ele>499.0</ele><time>2026-05-01T07:49:36Z</time></trkpt><trkpt lat="39.66095756422308" lon="9.41637709523531"><ele>501.6666666666667</ele><time>2026-05-01T07:49:37Z</time></trkpt><trkpt lat="39.66109212845824" lon="9.416574251838567"><ele>504.33333333333337</ele><time>2026-05-01T07:49:38Z</time></trkpt><trkpt lat="39.661228423096176" lon="9.416766637352056"><ele>507.0</ele><time>2026-05-01T07:49:39Z</time></trkpt><trkpt lat="39.66136910223651" lon="9.416953720265068"><ele>507.0</ele><time>2026-05-01T07:49:40Z</time></trkpt><trkpt lat="39.66149949328637" lon="9.417141011719618"><ele>507.0</ele><time>2026-05-01T07:49:41Z</time></trkpt><trkpt lat="39.6615922542882" lon="9.41735931012708"><ele>507.0</ele><time>2026-05-01T07:49:42Z</time></trkpt><trkpt lat="39.66168294221145" lon="9.417592749940267"><ele>510.0</ele><time>2026-05-01T07:49:43Z</time></trkpt><trkpt lat="39.66176558143862" lon="9.417836387169686"><ele>513.0</ele><time>2026-05-01T07:49:44Z</time></trkpt><trkpt lat="39.66182675465383" lon="9.418092106793193"><ele>516.0</ele><time>2026-05-01T07:49:45Z</time></trkpt><trkpt lat="39.661873818790305" lon="9.41835724604056"><ele>515.0</ele><time>2026-05-01T07:49:46Z</time></trkpt><trkpt lat="39.66192100347963" lon="9.418626617957448"><ele>514.0</ele><time>2026-05-01T07:49:47Z</time></trkpt><trkpt lat="39.6619686104399" lon="9.41889860732528"><ele>513.0</ele><time>2026-05-01T07:49:48Z</time></trkpt><trkpt lat="39.6620208023892" lon="9.419170879025089"><ele>513.0</ele><time>2026-05-01T07:49:49Z</time></trkpt><trkpt lat="39.66207454253202" lon="9.419445468405984"><ele>513.0</ele><time>2026-05-01T07:49:50Z</time></trkpt><trkpt lat="39.662127154532584" lon="9.419718028167335"><ele>513.0</ele><time>2026-05-01T07:49:51Z</time></trkpt><trkpt lat="39.66217747937996" lon="9.419993380937477"><ele>514.0</ele><time>2026-05-01T07:49:52Z</time></trkpt><trkpt lat="39.66222891080927" lon="9.420268006102207"><ele>515.0</ele><time>2026-05-01T07:49:53Z</time></trkpt><trkpt lat="39.6622765775195" lon="9.420541549570194"><ele>516.0</ele><time>2026-05-01T07:49:54Z</time></trkpt><trkpt lat="39.662325407826515" lon="9.42081330934637"><ele>516.0</ele><time>2026-05-01T07:49:55Z</time></trkpt><trkpt lat="39.66237383124861" lon="9.421081688791045"><ele>516.0</ele><time>2026-05-01T07:49:56Z</time></trkpt><trkpt lat="39.662423083593175" lon="9.421352888201094"><ele>516.0</ele><time>2026-05-01T07:49:57Z</time></trkpt><trkpt lat="39.66247636714174" lon="9.42162965344085"><ele>516.0</ele><time>2026-05-01T07:49:58Z</time></trkpt><trkpt lat="39.66252216338759" lon="9.421895470027454"><ele>516.0</ele><time>2026-05-01T07:49:59Z</time></trkpt><trkpt lat="39.662571372540015" lon="9.422159914646135"><ele>516.0</ele><time>2026-05-01T07:50:00Z</time></trkpt><trkpt lat="39.66261976070407" lon="9.422421505102305"><ele>516.6666666666666</ele><time>2026-05-01T07:50:01Z</time></trkpt><trkpt lat="39.662671969762464" lon="9.422677982494049"><ele>517.3333333333333</ele><time>2026-05-01T07:50:02Z</time></trkpt><trkpt lat="39.6627360448639" lon="9.422929999428135"><ele>518.0</ele><time>2026-05-01T07:50:03Z</time></trkpt><trkpt lat="39.66281341482127" lon="9.423180923917041"><ele>519.6666666666666</ele><time>2026-05-01T07:50:04Z</time></trkpt><trkpt lat="39.66286127627096" lon="9.423443036218789"><ele>521.3333333333334</ele><time>2026-05-01T07:50:05Z</time></trkpt><trkpt lat="39.66292612916438" lon="9.423702025665557"><ele>523.0</ele><time>2026-05-01T07:50:06Z</time></trkpt><trkpt lat="39.66309953786749" lon="9.423917598184481"><ele>524.3333333333334</ele><time>2026-05-01T07:50:07Z</time></trkpt><trkpt lat="39.6632036589379" lon="9.424157356147393"><ele>525.6666666666666</ele><time>2026-05-01T07:50:08Z</time></trkpt><trkpt lat="39.66330924386037" lon="9.4243952835945"><ele>527.0</ele><time>2026-05-01T07:50:09Z</time></trkpt><trkpt lat="39.66341377829008" lon="9.42463731755314"><ele>527.6666666666666</ele><time>2026-05-01T07:50:10Z</time></trkpt><trkpt lat="39.66351839216018" lon="9.424878179688443"><ele>528.3333333333334</ele><time>2026-05-01T07:50:11Z</time></trkpt><trkpt lat="39.66362187512422" lon="9.42511580711708"><ele>529.0</ele><time>2026-05-01T07:50:12Z</time></trkpt><trkpt lat="39.66372705614789" lon="9.425354273715374"><ele>530.6666666666667</ele><time>2026-05-01T07:50:13Z</time></trkpt><trkpt lat="39.66383339663574" lon="9.42559214902161"><ele>532.3333333333334</ele><time>2026-05-01T07:50:14Z</time></trkpt><trkpt lat="39.66393697181827" lon="9.425829697225325"><ele>534.0</ele><time>2026-05-01T07:50:15Z</time></trkpt><trkpt lat="39.66404045553763" lon="9.426070821228395"><ele>534.0</ele><time>2026-05-01T07:50:16Z</time></trkpt><trkpt lat="39.66414351968323" lon="9.426310577182132"><ele>534.0</ele><time>2026-05-01T07:50:17Z</time></trkpt><trkpt lat="39.664253970224635" lon="9.426556121121607"><ele>534.0</ele><time>2026-05-01T07:50:18Z</time></trkpt><trkpt lat="39.664357107602456" lon="9.426794341620658"><ele>536.0</ele><time>2026-05-01T07:50:19Z</time></trkpt><trkpt lat="39.66446247485746" lon="9.427038029062334"><ele>538.0</ele><time>2026-05-01T07:50:20Z</time></trkpt><trkpt lat="39.66456899245787" lon="9.42727918143236"><ele>540.0</ele><time>2026-05-01T07:50:21Z</time></trkpt><trkpt lat="39.66467776947047" lon="9.427518523715166"><ele>542.0</ele><time>2026-05-01T07:50:22Z</time></trkpt><trkpt lat="39.66478585879091" lon="9.427755358537995"><ele>544.0</ele><time>2026-05-01T07:50:23Z</time></trkpt><trkpt lat="39.66489108549118" lon="9.427996688640553"><ele>546.0</ele><time>2026-05-01T07:50:24Z</time></trkpt><trkpt lat="39.66499038200699" lon="9.428233092547242"><ele>546.6666666666666</ele><time>2026-05-01T07:50:25Z</time></trkpt><trkpt lat="39.665082085499954" lon="9.428479406381628"><ele>547.3333333333333</ele><time>2026-05-01T07:50:26Z</time></trkpt><trkpt lat="39.66516150853198" lon="9.428736453945783"><ele>548.0</ele><time>2026-05-01T07:50:27Z</time></trkpt><trkpt lat="39.66523310223609" lon="9.42899849093107"><ele>545.6666666666666</ele><time>2026-05-01T07:50:28Z</time></trkpt><trkpt lat="39.6652987389581" lon="9.429263775944559"><ele>543.3333333333334</ele><time>2026-05-01T07:50:29Z</time></trkpt><trkpt lat="39.66535677412968" lon="9.429530553690775"><ele>541.0</ele><time>2026-05-01T07:50:30Z</time></trkpt><trkpt lat="39.66540867913745" lon="9.429794485114327"><ele>541.0</ele><time>2026-05-01T07:50:31Z</time></trkpt><trkpt lat="39.66546148530864" lon="9.43005309389925"><ele>541.0</ele><time>2026-05-01T07:50:32Z</time></trkpt><trkpt lat="39.66551954069008" lon="9.430311922545402"><ele>541.0</ele><time>2026-05-01T07:50:33Z</time></trkpt><trkpt lat="39.66557998765348" lon="9.430572987692143"><ele>541.3333333333334</ele><time>2026-05-01T07:50:34Z</time></trkpt><trkpt lat="39.66563271273047" lon="9.430831859700287"><ele>541.6666666666666</ele><time>2026-05-01T07:50:35Z</time></trkpt><trkpt lat="39.665686308098266" lon="9.431084888041047"><ele>542.0</ele><time>2026-05-01T07:50:36Z</time></trkpt><trkpt lat="39.665746044554695" lon="9.43133438619587"><ele>544.6666666666666</ele><time>2026-05-01T07:50:37Z</time></trkpt><trkpt lat="39.665829044399146" lon="9.431577941294877"><ele>547.3333333333334</ele><time>2026-05-01T07:50:38Z</time></trkpt><trkpt lat="39.665940080149994" lon="9.431811160625399"><ele>550.0</ele><time>2026-05-01T07:50:39Z</time></trkpt><trkpt lat="39.66605953920535" lon="9.432038315290491"><ele>544.6666666666667</ele><time>2026-05-01T07:50:40Z</time></trkpt><trkpt lat="39.666168615332154" lon="9.432267795603194"><ele>539.3333333333334</ele><time>2026-05-01T07:50:41Z</time></trkpt><trkpt lat="39.666259452936295" lon="9.432501109617347"><ele>534.0</ele><time>2026-05-01T07:50:42Z</time></trkpt><trkpt lat="39.66633494192218" lon="9.432743637596332"><ele>535.3333333333334</ele><time>2026-05-01T07:50:43Z</time></trkpt><trkpt lat="39.66638993059542" lon="9.432994539985717"><ele>536.6666666666667</ele><time>2026-05-01T07:50:44Z</time></trkpt><trkpt lat="39.6664190843191" lon="9.433249014548485"><ele>538.0</ele><time>2026-05-01T07:50:45Z</time></trkpt><trkpt lat="39.6664208243477" lon="9.4335104883509"><ele>538.0</ele><time>2026-05-01T07:50:46Z</time></trkpt><trkpt lat="39.66638734939242" lon="9.433771758006639"><ele>538.0</ele><time>2026-05-01T07:50:47Z</time></trkpt><trkpt lat="39.66633250623199" lon="9.434029189773993"><ele>538.0</ele><time>2026-05-01T07:50:48Z</time></trkpt><trkpt lat="39.6662555783172" lon="9.434277480978423"><ele>536.6666666666667</ele><time>2026-05-01T07:50:49Z</time></trkpt><trkpt lat="39.66615489692224" lon="9.434510651674799"><ele>535.3333333333334</ele><time>2026-05-01T07:50:50Z</time></trkpt><trkpt lat="39.66603292712969" lon="9.434711885813622"><ele>534.0</ele><time>2026-05-01T07:50:51Z</time></trkpt><trkpt lat="39.66590921185601" lon="9.434886380505246"><ele>537.0</ele><time>2026-05-01T07:50:52Z</time></trkpt><trkpt lat="39.66581380389679" lon="9.435064517895375"><ele>540.0</ele><time>2026-05-01T07:50:53Z</time></trkpt><trkpt lat="39.66576512507321" lon="9.435265941978976"><ele>543.0</ele><time>2026-05-01T07:50:54Z</time></trkpt><trkpt lat="39.66575940480749" lon="9.435475014946903"><ele>543.0</ele><time>2026-05-01T07:50:55Z</time></trkpt><trkpt lat="39.665788689597726" lon="9.43567779168587"><ele>543.0</ele><time>2026-05-01T07:50:56Z</time></trkpt><trkpt lat="39.66586112913978" lon="9.43585314341663"><ele>543.0</ele><time>2026-05-01T07:50:57Z</time></trkpt><trkpt lat="39.66597471948814" lon="9.435999283563278"><ele>544.6666666666666</ele><time>2026-05-01T07:50:58Z</time></trkpt><trkpt lat="39.66611402448152" lon="9.436105742662921"><ele>546.3333333333333</ele><time>2026-05-01T07:50:59Z</time></trkpt><trkpt lat="39.66627350683565" lon="9.436164103699669"><ele>548.0</ele><time>2026-05-01T07:51:00Z</time></trkpt><trkpt lat="39.666445961871055" lon="9.436176382385643"><ele>548.0</ele><time>2026-05-01T07:51:01Z</time></trkpt><trkpt lat="39.666612568856415" lon="9.436124375218489"><ele>548.0</ele><time>2026-05-01T07:51:02Z</time></trkpt><trkpt lat="39.666764508346695" lon="9.436006453045195"><ele>548.0</ele><time>2026-05-01T07:51:03Z</time></trkpt><trkpt lat="39.66689164140412" lon="9.435841843074227"><ele>552.0</ele><time>2026-05-01T07:51:04Z</time></trkpt><trkpt lat="39.66701592485083" lon="9.435670045928315"><ele>556.0</ele><time>2026-05-01T07:51:05Z</time></trkpt><trkpt lat="39.667171923389404" lon="9.435563769129965"><ele>560.0</ele><time>2026-05-01T07:51:06Z</time></trkpt><trkpt lat="39.6673533108839" lon="9.435513685549534"><ele>560.0</ele><time>2026-05-01T07:51:07Z</time></trkpt><trkpt lat="39.667527078688956" lon="9.435485080316115"><ele>560.0</ele><time>2026-05-01T07:51:08Z</time></trkpt><trkpt lat="39.667697451896146" lon="9.435516521277615"><ele>560.0</ele><time>2026-05-01T07:51:09Z</time></trkpt><trkpt lat="39.66786911393771" lon="9.435586491293135"><ele>560.0</ele><time>2026-05-01T07:51:10Z</time></trkpt><trkpt lat="39.66804170114217" lon="9.43566445820081"><ele>560.0</ele><time>2026-05-01T07:51:11Z</time></trkpt><trkpt lat="39.66821605696661" lon="9.435753970347742"><ele>560.0</ele><time>2026-05-01T07:51:12Z</time></trkpt><trkpt lat="39.66839146298582" lon="9.435863459582688"><ele>560.0</ele><time>2026-05-01T07:51:13Z</time></trkpt><trkpt lat="39.668558918059254" lon="9.435984232701554"><ele>560.0</ele><time>2026-05-01T07:51:14Z</time></trkpt><trkpt lat="39.66872638638657" lon="9.43611058704262"><ele>560.0</ele><time>2026-05-01T07:51:15Z</time></trkpt><trkpt lat="39.66889033001852" lon="9.436238265721382"><ele>565.0</ele><time>2026-05-01T07:51:16Z</time></trkpt><trkpt lat="39.66905047256699" lon="9.436360800646103"><ele>570.0</ele><time>2026-05-01T07:51:17Z</time></trkpt><trkpt lat="39.66921081189176" lon="9.436474223160479"><ele>575.0</ele><time>2026-05-01T07:51:18Z</time></trkpt><trkpt lat="39.66938008255605" lon="9.43656377447479"><ele>575.3333333333333</ele><time>2026-05-01T07:51:19Z</time></trkpt><trkpt lat="39.66956407499551" lon="9.436625135743721"><ele>575.6666666666666</ele><time>2026-05-01T07:51:20Z</time></trkpt><trkpt lat="39.669763312268344" lon="9.43665678307438"><ele>576.0</ele><time>2026-05-01T07:51:21Z</time></trkpt><trkpt lat="39.66996329747679" lon="9.436667838536508"><ele>576.0</ele><time>2026-05-01T07:51:22Z</time></trkpt><trkpt lat="39.67015971659752" lon="9.436672507220152"><ele>576.0</ele><time>2026-05-01T07:51:23Z</time></trkpt><trkpt lat="39.670358221960115" lon="9.4366856461214"><ele>576.0</ele><time>2026-05-01T07:51:24Z</time></trkpt><trkpt lat="39.67054851147449" lon="9.436710636387383"><ele>578.0</ele><time>2026-05-01T07:51:25Z</time></trkpt><trkpt lat="39.67073654240207" lon="9.436751591367964"><ele>580.0</ele><time>2026-05-01T07:51:26Z</time></trkpt><trkpt lat="39.670918378641716" lon="9.436812255040756"><ele>582.0</ele><time>2026-05-01T07:51:27Z</time></trkpt><trkpt lat="39.671093308488864" lon="9.436899565692048"><ele>582.0</ele><time>2026-05-01T07:51:28Z</time></trkpt><trkpt lat="39.67126055136048" lon="9.437008070661182"><ele>582.0</ele><time>2026-05-01T07:51:29Z</time></trkpt><trkpt lat="39.67142637510354" lon="9.437121095753128"><ele>582.0</ele><time>2026-05-01T07:51:30Z</time></trkpt><trkpt lat="39.67158848485203" lon="9.437231546298007"><ele>582.0</ele><time>2026-05-01T07:51:31Z</time></trkpt><trkpt lat="39.67175108091216" lon="9.437338834275469"><ele>582.0</ele><time>2026-05-01T07:51:32Z</time></trkpt><trkpt lat="39.671914923926884" lon="9.437444877431886"><ele>582.0</ele><time>2026-05-01T07:51:33Z</time></trkpt><trkpt lat="39.67207745272057" lon="9.437548879589285"><ele>579.6666666666666</ele><time>2026-05-01T07:51:34Z</time></trkpt><trkpt lat="39.67223472229849" lon="9.437653184588116"><ele>577.3333333333333</ele><time>2026-05-01T07:51:35Z</time></trkpt><trkpt lat="39.672388928381864" lon="9.437767890962643"><ele>575.0</ele><time>2026-05-01T07:51:36Z</time></trkpt><trkpt lat="39.672537860517544" lon="9.43790543358322"><ele>575.3333333333333</ele><time>2026-05-01T07:51:37Z</time></trkpt><trkpt lat="39.67268399694154" lon="9.438062364350056"><ele>575.6666666666666</ele><time>2026-05-01T07:51:38Z</time></trkpt><trkpt lat="39.67283498376184" lon="9.438222651199379"><ele>576.0</ele><time>2026-05-01T07:51:39Z</time></trkpt><trkpt lat="39.67298776616709" lon="9.438382000056123"><ele>576.0</ele><time>2026-05-01T07:51:40Z</time></trkpt><trkpt lat="39.6731390783046" lon="9.438543351591754"><ele>576.0</ele><time>2026-05-01T07:51:41Z</time></trkpt><trkpt lat="39.67328707855269" lon="9.438703346056437"><ele>576.0</ele><time>2026-05-01T07:51:42Z</time></trkpt><trkpt lat="39.67343351638979" lon="9.438856867028045"><ele>577.0</ele><time>2026-05-01T07:51:43Z</time></trkpt><trkpt lat="39.67357724735352" lon="9.439005312978102"><ele>578.0</ele><time>2026-05-01T07:51:44Z</time></trkpt><trkpt lat="39.6737171719675" lon="9.439154328230094"><ele>579.0</ele><time>2026-05-01T07:51:45Z</time></trkpt><trkpt lat="39.67385519353867" lon="9.439300852869557"><ele>579.0</ele><time>2026-05-01T07:51:46Z</time></trkpt><trkpt lat="39.67399255847939" lon="9.439445761163663"><ele>579.0</ele><time>2026-05-01T07:51:47Z</time></trkpt><trkpt lat="39.6741321397763" lon="9.439584763077628"><ele>579.0</ele><time>2026-05-01T07:51:48Z</time></trkpt><trkpt lat="39.67427927567302" lon="9.43970632277448"><ele>580.3333333333334</ele><time>2026-05-01T07:51:49Z</time></trkpt><trkpt lat="39.67443886263093" lon="9.43980021057877"><ele>581.6666666666667</ele><time>2026-05-01T07:51:50Z</time></trkpt><trkpt lat="39.674606427322786" lon="9.439871412065505"><ele>583.0</ele><time>2026-05-01T07:51:51Z</time></trkpt><trkpt lat="39.67477116950693" lon="9.439938281534394"><ele>583.0</ele><time>2026-05-01T07:51:52Z</time></trkpt><trkpt lat="39.674933323824604" lon="9.440012546579213"><ele>583.0</ele><time>2026-05-01T07:51:53Z</time></trkpt><trkpt lat="39.67509185044571" lon="9.440088498625338"><ele>583.0</ele><time>2026-05-01T07:51:54Z</time></trkpt><trkpt lat="39.675247529502414" lon="9.440164762986585"><ele>583.5</ele><time>2026-05-01T07:51:55Z</time></trkpt><trkpt lat="39.67539137699078" lon="9.440234169983993"><ele>584.0</ele><time>2026-05-01T07:51:56Z</time></trkpt><trkpt lat="39.675533560848685" lon="9.440290341320845"><ele>584.5</ele><time>2026-05-01T07:51:57Z</time></trkpt><trkpt lat="39.67566440312617" lon="9.440332590813767"><ele>585.0</ele><time>2026-05-01T07:51:58Z</time></trkpt><trkpt lat="39.675791682609514" lon="9.440358973735195"><ele>585.0</ele><time>2026-05-01T07:51:59Z</time></trkpt><trkpt lat="39.67591985572306" lon="9.440376715140657"><ele>585.0</ele><time>2026-05-01T07:52:00Z</time></trkpt><trkpt lat="39.676042168455524" lon="9.440390733508936"><ele>585.0</ele><time>2026-05-01T07:52:01Z</time></trkpt><trkpt lat="39.67616016905201" lon="9.440399375400892"><ele>585.0</ele><time>2026-05-01T07:52:02Z</time></trkpt><trkpt lat="39.676278288238244" lon="9.440400496340835"><ele>586.5</ele><time>2026-05-01T07:52:03Z</time></trkpt><trkpt lat="39.67639447176434" lon="9.440403057230055"><ele>588.0</ele><time>2026-05-01T07:52:04Z</time></trkpt><trkpt lat="39.67651001197357" lon="9.440394807710353"><ele>589.5</ele><time>2026-05-01T07:52:05Z</time></trkpt><trkpt lat="39.67662455636791" lon="9.440381906056901"><ele>591.0</ele><time>2026-05-01T07:52:06Z</time></trkpt><trkpt lat="39.676739529413716" lon="9.44036928228876"><ele>591.0</ele><time>2026-05-01T07:52:07Z</time></trkpt><trkpt lat="39.67685626130152" lon="9.440359174357047"><ele>591.0</ele><time>2026-05-01T07:52:08Z</time></trkpt><trkpt lat="39.676975044922" lon="9.440349773665563"><ele>591.0</ele><time>2026-05-01T07:52:09Z</time></trkpt><trkpt lat="39.677093966683564" lon="9.44034008776432"><ele>591.0</ele><time>2026-05-01T07:52:10Z</time></trkpt><trkpt lat="39.6772138044457" lon="9.440329757616635"><ele>591.75</ele><time>2026-05-01T07:52:11Z</time></trkpt><trkpt lat="39.67733597736801" lon="9.44032877323834"><ele>592.5</ele><time>2026-05-01T07:52:12Z</time></trkpt><trkpt lat="39.6774600729706" lon="9.440345632640584"><ele>593.25</ele><time>2026-05-01T07:52:13Z</time></trkpt><trkpt lat="39.677582468954874" lon="9.440378862149407"><ele>594.0</ele><time>2026-05-01T07:52:14Z</time></trkpt><trkpt lat="39.67770143351543" lon="9.44042625070738"><ele>595.0</ele><time>2026-05-01T07:52:15Z</time></trkpt><trkpt lat="39.67781575370233" lon="9.440482518973807"><ele>596.0</ele><time>2026-05-01T07:52:16Z</time></trkpt><trkpt lat="39.67792693618754" lon="9.440550070851693"><ele>597.0</ele><time>2026-05-01T07:52:17Z</time></trkpt><trkpt lat="39.67802693014508" lon="9.440635241130845"><ele>598.0</ele><time>2026-05-01T07:52:18Z</time></trkpt><trkpt lat="39.678120765269476" lon="9.440721179922498"><ele>598.0</ele><time>2026-05-01T07:52:19Z</time></trkpt><trkpt lat="39.67821169687799" lon="9.440792389582473"><ele>598.0</ele><time>2026-05-01T07:52:20Z</time></trkpt><trkpt lat="39.67830408791131" lon="9.44084534390599"><ele>598.0</ele><time>2026-05-01T07:52:21Z</time></trkpt><trkpt lat="39.678398235247045" lon="9.440877623455277"><ele>598.0</ele><time>2026-05-01T07:52:22Z</time></trkpt><trkpt lat="39.678489727207925" lon="9.440907563376788"><ele>598.0</ele><time>2026-05-01T07:52:23Z</time></trkpt><trkpt lat="39.67857827437076" lon="9.44093578889773"><ele>598.1999999999999</ele><time>2026-05-01T07:52:24Z</time></trkpt><trkpt lat="39.67866604213444" lon="9.44095887662872"><ele>598.4</ele><time>2026-05-01T07:52:25Z</time></trkpt><trkpt lat="39.67875666286698" lon="9.440978962218564"><ele>598.5999999999999</ele><time>2026-05-01T07:52:26Z</time></trkpt><trkpt lat="39.67885111315337" lon="9.440989676626742"><ele>598.8</ele><time>2026-05-01T07:52:27Z</time></trkpt><trkpt lat="39.67894488221713" lon="9.440995765660848"><ele>599.0</ele><time>2026-05-01T07:52:28Z</time></trkpt><trkpt lat="39.679037700176586" lon="9.44099986915995"><ele>599.0</ele><time>2026-05-01T07:52:29Z</time></trkpt><trkpt lat="39.679126041920405" lon="9.440999833895189"><ele>599.0</ele><time>2026-05-01T07:52:30Z</time></trkpt><trkpt lat="39.679211094820175" lon="9.440988254080342"><ele>599.0</ele><time>2026-05-01T07:52:31Z</time></trkpt><trkpt lat="39.67929847574513" lon="9.44096965761865"><ele>599.0</ele><time>2026-05-01T07:52:32Z</time></trkpt><trkpt lat="39.67938529255791" lon="9.440945499977996"><ele>599.0</ele><time>2026-05-01T07:52:33Z</time></trkpt><trkpt lat="39.679470520432226" lon="9.440914960429183"><ele>599.0</ele><time>2026-05-01T07:52:34Z</time></trkpt><trkpt lat="39.67956062346448" lon="9.44087481856288"><ele>599.2</ele><time>2026-05-01T07:52:35Z</time></trkpt><trkpt lat="39.67965391711923" lon="9.440835964906727"><ele>599.4</ele><time>2026-05-01T07:52:36Z</time></trkpt><trkpt lat="39.67974984525947" lon="9.440798683743465"><ele>599.6</ele><time>2026-05-01T07:52:37Z</time></trkpt><trkpt lat="39.67984434314829" lon="9.440757954573465"><ele>599.8</ele><time>2026-05-01T07:52:38Z</time></trkpt><trkpt lat="39.67993860425665" lon="9.440715627118893"><ele>600.0</ele><time>2026-05-01T07:52:39Z</time></trkpt><trkpt lat="39.6800379857474" lon="9.440689033900336"><ele>600.0</ele><time>2026-05-01T07:52:40Z</time></trkpt><trkpt lat="39.68013269672937" lon="9.440670396280385"><ele>600.0</ele><time>2026-05-01T07:52:41Z</time></trkpt><trkpt lat="39.68022273604422" lon="9.440655363378593"><ele>600.0</ele><time>2026-05-01T07:52:42Z</time></trkpt><trkpt lat="39.68031206439413" lon="9.440645968183583"><ele>600.0</ele><time>2026-05-01T07:52:43Z</time></trkpt><trkpt lat="39.680402966278635" lon="9.440640528088077"><ele>600.0</ele><time>2026-05-01T07:52:44Z</time></trkpt><trkpt lat="39.680491213030976" lon="9.440635480017974"><ele>600.1666666666666</ele><time>2026-05-01T07:52:45Z</time></trkpt><trkpt lat="39.68057168465961" lon="9.440626193873237"><ele>600.3333333333334</ele><time>2026-05-01T07:52:46Z</time></trkpt><trkpt lat="39.680650307207365" lon="9.440624369529223"><ele>600.5</ele><time>2026-05-01T07:52:47Z</time></trkpt><trkpt lat="39.680728716112675" lon="9.440616641973419"><ele>600.6666666666667</ele><time>2026-05-01T07:52:48Z</time></trkpt><trkpt lat="39.680804157939804" lon="9.440605342388023"><ele>600.8333333333334</ele><time>2026-05-01T07:52:49Z</time></trkpt><trkpt lat="39.68088258783181" lon="9.440591391328221"><ele>601.0</ele><time>2026-05-01T07:52:50Z</time></trkpt><trkpt lat="39.68096308867115" lon="9.440582563218994"><ele>601.0</ele><time>2026-05-01T07:52:51Z</time></trkpt><trkpt lat="39.68104533545886" lon="9.440575591248693"><ele>601.0</ele><time>2026-05-01T07:52:52Z</time></trkpt><trkpt lat="39.68112646383011" lon="9.440564318329846"><ele>601.0</ele><time>2026-05-01T07:52:53Z</time></trkpt><trkpt lat="39.68121067760779" lon="9.44055723893019"><ele>601.0</ele><time>2026-05-01T07:52:54Z</time></trkpt><trkpt lat="39.6812936268806" lon="9.440551597746412"><ele>601.0</ele><time>2026-05-01T07:52:55Z</time></trkpt><trkpt lat="39.681372225459484" lon="9.44054335418357"><ele>601.0</ele><time>2026-05-01T07:52:56Z</time></trkpt><trkpt lat="39.68145187543718" lon="9.440543431218185"><ele>601.0</ele><time>2026-05-01T07:52:57Z</time></trkpt><trkpt lat="39.681533230734985" lon="9.44055123394276"><ele>601.0</ele><time>2026-05-01T07:52:58Z</time></trkpt><trkpt lat="39.681613249733175" lon="9.440552774827436"><ele>601.0</ele><time>2026-05-01T07:52:59Z</time></trkpt><trkpt lat="39.681690659669" lon="9.440568642486491"><ele>601.0</ele><time>2026-05-01T07:53:00Z</time></trkpt><trkpt lat="39.6817645702427" lon="9.44060375247832"><ele>601.0</ele><time>2026-05-01T07:53:01Z</time></trkpt><trkpt lat="39.68182963073714" lon="9.440658375664865"><ele>601.0</ele><time>2026-05-01T07:53:02Z</time></trkpt><trkpt lat="39.68188521102785" lon="9.440738114722075"><ele>602.1666666666667</ele><time>2026-05-01T07:53:03Z</time></trkpt><trkpt lat="39.68194170152336" lon="9.440813906626554"><ele>603.3333333333334</ele><time>2026-05-01T07:53:04Z</time></trkpt><trkpt lat="39.681991690301224" lon="9.440898892069884"><ele>604.5</ele><time>2026-05-01T07:53:05Z</time></trkpt><trkpt lat="39.68203086465135" lon="9.44099644779238"><ele>605.6666666666666</ele><time>2026-05-01T07:53:06Z</time></trkpt><trkpt lat="39.68205369452836" lon="9.44109962470902"><ele>606.8333333333333</ele><time>2026-05-01T07:53:07Z</time></trkpt><trkpt lat="39.68210113136614" lon="9.441186929839022"><ele>608.0</ele><time>2026-05-01T07:53:08Z</time></trkpt><trkpt lat="39.68212617237824" lon="9.441288245385472"><ele>607.3333333333333</ele><time>2026-05-01T07:53:09Z</time></trkpt><trkpt lat="39.68217416724115" lon="9.441366872310724"><ele>606.6666666666666</ele><time>2026-05-01T07:53:10Z</time></trkpt><trkpt lat="39.68220353596438" lon="9.441463097340659"><ele>606.0</ele><time>2026-05-01T07:53:11Z</time></trkpt><trkpt lat="39.68224652853229" lon="9.441550127460294"><ele>605.3333333333334</ele><time>2026-05-01T07:53:12Z</time></trkpt><trkpt lat="39.68229444642529" lon="9.441635318879305"><ele>604.6666666666667</ele><time>2026-05-01T07:53:13Z</time></trkpt><trkpt lat="39.68235508725915" lon="9.441700543373962"><ele>604.0</ele><time>2026-05-01T07:53:14Z</time></trkpt><trkpt lat="39.682423359485384" lon="9.441770045659979"><ele>604.0</ele><time>2026-05-01T07:53:15Z</time></trkpt><trkpt lat="39.68250056921534" lon="9.441828982454515"><ele>604.0</ele><time>2026-05-01T07:53:16Z</time></trkpt><trkpt lat="39.68257780080846" lon="9.44189143462286"><ele>604.0</ele><time>2026-05-01T07:53:17Z</time></trkpt><trkpt lat="39.6826575957654" lon="9.441949028354307"><ele>604.0</ele><time>2026-05-01T07:53:18Z</time></trkpt><trkpt lat="39.682737373138" lon="9.441988577721999"><ele>604.0</ele><time>2026-05-01T07:53:19Z</time></trkpt><trkpt lat="39.682799113624625" lon="9.442010513638875"><ele>604.0</ele><time>2026-05-01T07:53:20Z</time></trkpt><trkpt lat="39.682894505517986" lon="9.442045629627279"><ele>604.8333333333334</ele><time>2026-05-01T07:53:22Z</time></trkpt><trkpt lat="39.68295197472595" lon="9.442089003861556"><ele>605.6666666666667</ele><time>2026-05-01T07:53:23Z</time></trkpt><trkpt lat="39.683021230231915" lon="9.442114725048588"><ele>606.5</ele><time>2026-05-01T07:53:24Z</time></trkpt><trkpt lat="39.68309862305748" lon="9.442123850983087"><ele>607.3333333333334</ele><time>2026-05-01T07:53:25Z</time></trkpt><trkpt lat="39.68318115323831" lon="9.442161837162674"><ele>608.1666666666666</ele><time>2026-05-01T07:53:26Z</time></trkpt><trkpt lat="39.683267988726726" lon="9.442191005677657"><ele>609.0</ele><time>2026-05-01T07:53:27Z</time></trkpt><trkpt lat="39.683360524535615" lon="9.442212407233859"><ele>604.8</ele><time>2026-05-01T07:53:28Z</time></trkpt><trkpt lat="39.68346137297443" lon="9.442235032350762"><ele>600.5999999999999</ele><time>2026-05-01T07:53:29Z</time></trkpt><trkpt lat="39.68356421746979" lon="9.44225625749273"><ele>596.4</ele><time>2026-05-01T07:53:30Z</time></trkpt><trkpt lat="39.68366923033985" lon="9.442273983736523"><ele>592.1999999999999</ele><time>2026-05-01T07:53:31Z</time></trkpt><trkpt lat="39.683776088161125" lon="9.442279311172022"><ele>588.0</ele><time>2026-05-01T07:53:32Z</time></trkpt><trkpt lat="39.683882809983345" lon="9.44227046272222"><ele>587.25</ele><time>2026-05-01T07:53:33Z</time></trkpt><trkpt lat="39.68399276234991" lon="9.442242918404935"><ele>586.5</ele><time>2026-05-01T07:53:34Z</time></trkpt><trkpt lat="39.684105497960836" lon="9.442205180143459"><ele>585.75</ele><time>2026-05-01T07:53:35Z</time></trkpt><trkpt lat="39.68422249789715" lon="9.442173488350669"><ele>585.0</ele><time>2026-05-01T07:53:36Z</time></trkpt><trkpt lat="39.68434932661456" lon="9.442160954959581"><ele>583.25</ele><time>2026-05-01T07:53:37Z</time></trkpt><trkpt lat="39.68448221368829" lon="9.44217068608578"><ele>581.5</ele><time>2026-05-01T07:53:38Z</time></trkpt><trkpt lat="39.68461817075725" lon="9.442172452140126"><ele>579.75</ele><time>2026-05-01T07:53:39Z</time></trkpt><trkpt lat="39.68476030712977" lon="9.442132075564404"><ele>578.0</ele><time>2026-05-01T07:53:40Z</time></trkpt><trkpt lat="39.68490312307768" lon="9.44206735150159"><ele>580.25</ele><time>2026-05-01T07:53:41Z</time></trkpt><trkpt lat="39.6850446328898" lon="9.442008465984113"><ele>582.5</ele><time>2026-05-01T07:53:42Z</time></trkpt><trkpt lat="39.68518628091031" lon="9.441957142587434"><ele>584.75</ele><time>2026-05-01T07:53:43Z</time></trkpt><trkpt lat="39.685329727292725" lon="9.441916410824344"><ele>587.0</ele><time>2026-05-01T07:53:44Z</time></trkpt><trkpt lat="39.685474939237594" lon="9.441908840958908"><ele>587.0</ele><time>2026-05-01T07:53:45Z</time></trkpt><trkpt lat="39.6856177437989" lon="9.441953625445061"><ele>587.0</ele><time>2026-05-01T07:53:46Z</time></trkpt><trkpt lat="39.68575787825786" lon="9.442002189875803"><ele>587.0</ele><time>2026-05-01T07:53:47Z</time></trkpt><trkpt lat="39.685902169375716" lon="9.442020549048598"><ele>587.0</ele><time>2026-05-01T07:53:48Z</time></trkpt><trkpt lat="39.686043916222964" lon="9.441995594667997"><ele>584.3333333333333</ele><time>2026-05-01T07:53:49Z</time></trkpt><trkpt lat="39.68618825513247" lon="9.44193498065354"><ele>581.6666666666666</ele><time>2026-05-01T07:53:50Z</time></trkpt><trkpt lat="39.686330823584136" lon="9.441855329556033"><ele>579.0</ele><time>2026-05-01T07:53:51Z</time></trkpt><trkpt lat="39.68647787023704" lon="9.441784038583146"><ele>579.0</ele><time>2026-05-01T07:53:52Z</time></trkpt><trkpt lat="39.686632038107376" lon="9.441728235464671"><ele>579.0</ele><time>2026-05-01T07:53:53Z</time></trkpt><trkpt lat="39.686782563903044" lon="9.441680471878252"><ele>579.0</ele><time>2026-05-01T07:53:54Z</time></trkpt><trkpt lat="39.68692703505625" lon="9.44162925791373"><ele>578.25</ele><time>2026-05-01T07:53:55Z</time></trkpt><trkpt lat="39.68706345091571" lon="9.441578621722908"><ele>577.5</ele><time>2026-05-01T07:53:56Z</time></trkpt><trkpt lat="39.68719714975585" lon="9.441552102779347"><ele>576.75</ele><time>2026-05-01T07:53:57Z</time></trkpt><trkpt lat="39.68732417172816" lon="9.441566658159314"><ele>576.0</ele><time>2026-05-01T07:53:58Z</time></trkpt><trkpt lat="39.68743140090251" lon="9.441639951161388"><ele>576.0</ele><time>2026-05-01T07:53:59Z</time></trkpt><trkpt lat="39.687489754123064" lon="9.441768335861244"><ele>576.0</ele><time>2026-05-01T07:54:00Z</time></trkpt><trkpt lat="39.68748814666696" lon="9.441915625687384"><ele>576.0</ele><time>2026-05-01T07:54:01Z</time></trkpt><trkpt lat="39.687427624917795" lon="9.442054251739018"><ele>576.0</ele><time>2026-05-01T07:54:02Z</time></trkpt><trkpt lat="39.68731969428878" lon="9.442140471005654"><ele>577.0</ele><time>2026-05-01T07:54:03Z</time></trkpt><trkpt lat="39.68719623819731" lon="9.442220477438534"><ele>578.0</ele><time>2026-05-01T07:54:04Z</time></trkpt><trkpt lat="39.687069369851116" lon="9.44231952438264"><ele>579.0</ele><time>2026-05-01T07:54:05Z</time></trkpt><trkpt lat="39.68694173461082" lon="9.44241955371985"><ele>580.0</ele><time>2026-05-01T07:54:06Z</time></trkpt><trkpt lat="39.68681858026411" lon="9.442527931862198"><ele>578.6666666666667</ele><time>2026-05-01T07:54:07Z</time></trkpt><trkpt lat="39.68672356878606" lon="9.44267437165002"><ele>577.3333333333334</ele><time>2026-05-01T07:54:08Z</time></trkpt><trkpt lat="39.68667430534748" lon="9.442860278506469"><ele>576.0</ele><time>2026-05-01T07:54:09Z</time></trkpt><trkpt lat="39.68665227836315" lon="9.443061220052094"><ele>576.0</ele><time>2026-05-01T07:54:10Z</time></trkpt><trkpt lat="39.686596038771576" lon="9.443249199641675"><ele>576.0</ele><time>2026-05-01T07:54:11Z</time></trkpt><trkpt lat="39.6864815233213" lon="9.443396780204155"><ele>576.0</ele><time>2026-05-01T07:54:12Z</time></trkpt><trkpt lat="39.68638023365484" lon="9.44356541017608"><ele>576.0</ele><time>2026-05-01T07:54:13Z</time></trkpt><trkpt lat="39.68625967830056" lon="9.443730669386374"><ele>576.0</ele><time>2026-05-01T07:54:14Z</time></trkpt><trkpt lat="39.6861420622584" lon="9.443906985854321"><ele>576.0</ele><time>2026-05-01T07:54:15Z</time></trkpt><trkpt lat="39.68602294676386" lon="9.444080237562542"><ele>576.0</ele><time>2026-05-01T07:54:16Z</time></trkpt><trkpt lat="39.68590215277773" lon="9.44424652531898"><ele>576.0</ele><time>2026-05-01T07:54:17Z</time></trkpt><trkpt lat="39.68577929321097" lon="9.444411701732141"><ele>576.0</ele><time>2026-05-01T07:54:18Z</time></trkpt><trkpt lat="39.685661456365004" lon="9.444574312493556"><ele>581.6666666666666</ele><time>2026-05-01T07:54:19Z</time></trkpt><trkpt lat="39.68554982079897" lon="9.44473615387592"><ele>587.3333333333333</ele><time>2026-05-01T07:54:20Z</time></trkpt><trkpt lat="39.68544294182288" lon="9.444892394936447"><ele>593.0</ele><time>2026-05-01T07:54:21Z</time></trkpt><trkpt lat="39.68534893950934" lon="9.445056108030892"><ele>593.0</ele><time>2026-05-01T07:54:22Z</time></trkpt><trkpt lat="39.68528489791934" lon="9.445239427453245"><ele>593.0</ele><time>2026-05-01T07:54:23Z</time></trkpt><trkpt lat="39.685254030391384" lon="9.445438994182167"><ele>593.0</ele><time>2026-05-01T07:54:24Z</time></trkpt><trkpt lat="39.68526259887721" lon="9.445650019600047"><ele>596.3333333333333</ele><time>2026-05-01T07:54:25Z</time></trkpt><trkpt lat="39.68530993409766" lon="9.44585652569449"><ele>599.6666666666666</ele><time>2026-05-01T07:54:26Z</time></trkpt><trkpt lat="39.685390544198796" lon="9.446049760655358"><ele>603.0</ele><time>2026-05-01T07:54:27Z</time></trkpt><trkpt lat="39.68550133790141" lon="9.446213926964521"><ele>600.0</ele><time>2026-05-01T07:54:28Z</time></trkpt><trkpt lat="39.68563802797133" lon="9.446334828765423"><ele>597.0</ele><time>2026-05-01T07:54:29Z</time></trkpt><trkpt lat="39.685785927803515" lon="9.446437359636692"><ele>594.0</ele><time>2026-05-01T07:54:30Z</time></trkpt><trkpt lat="39.6859275125577" lon="9.446554540716997"><ele>594.0</ele><time>2026-05-01T07:54:31Z</time></trkpt><trkpt lat="39.68606073220425" lon="9.446688722357495"><ele>594.0</ele><time>2026-05-01T07:54:32Z</time></trkpt><trkpt lat="39.68618169725489" lon="9.446842305704628"><ele>594.0</ele><time>2026-05-01T07:54:33Z</time></trkpt><trkpt lat="39.686272307937806" lon="9.447029866973724"><ele>599.6666666666666</ele><time>2026-05-01T07:54:34Z</time></trkpt><trkpt lat="39.686311774604874" lon="9.447246535383718"><ele>605.3333333333333</ele><time>2026-05-01T07:54:35Z</time></trkpt><trkpt lat="39.68632195187854" lon="9.447461084292451"><ele>611.0</ele><time>2026-05-01T07:54:36Z</time></trkpt><trkpt lat="39.686365829410455" lon="9.447663240938823"><ele>611.0</ele><time>2026-05-01T07:54:37Z</time></trkpt><trkpt lat="39.68645783221521" lon="9.447849300959252"><ele>611.0</ele><time>2026-05-01T07:54:38Z</time></trkpt><trkpt lat="39.68657938315762" lon="9.44800895930434"><ele>611.0</ele><time>2026-05-01T07:54:39Z</time></trkpt><trkpt lat="39.6867231424336" lon="9.448129211000394"><ele>610.0</ele><time>2026-05-01T07:54:40Z</time></trkpt><trkpt lat="39.68689181403316" lon="9.448188072511234"><ele>609.0</ele><time>2026-05-01T07:54:41Z</time></trkpt><trkpt lat="39.68706074596273" lon="9.448187883296615"><ele>608.0</ele><time>2026-05-01T07:54:42Z</time></trkpt><trkpt lat="39.687221543736705" lon="9.4481387932351"><ele>608.0</ele><time>2026-05-01T07:54:43Z</time></trkpt><trkpt lat="39.68737905442295" lon="9.448083804545284"><ele>608.0</ele><time>2026-05-01T07:54:44Z</time></trkpt><trkpt lat="39.68753037323829" lon="9.44803939599858"><ele>608.0</ele><time>2026-05-01T07:54:45Z</time></trkpt><trkpt lat="39.68767205642091" lon="9.44801727500381"><ele>612.0</ele><time>2026-05-01T07:54:46Z</time></trkpt><trkpt lat="39.6878021501596" lon="9.448029576057063"><ele>616.0</ele><time>2026-05-01T07:54:47Z</time></trkpt><trkpt lat="39.68791081760546" lon="9.44810757818228"><ele>620.0</ele><time>2026-05-01T07:54:48Z</time></trkpt><trkpt lat="39.68797827554655" lon="9.44823525440301"><ele>624.0</ele><time>2026-05-01T07:54:49Z</time></trkpt><trkpt lat="39.687996461222454" lon="9.448391618144386"><ele>624.0</ele><time>2026-05-01T07:54:50Z</time></trkpt><trkpt lat="39.687935587394925" lon="9.448547469182824"><ele>624.0</ele><time>2026-05-01T07:54:51Z</time></trkpt><trkpt lat="39.68782453779856" lon="9.448673279806222"><ele>624.0</ele><time>2026-05-01T07:54:52Z</time></trkpt><trkpt lat="39.68770496952857" lon="9.448812069150012"><ele>624.0</ele><time>2026-05-01T07:54:53Z</time></trkpt><trkpt lat="39.68758485200106" lon="9.448948491616882"><ele>619.3333333333334</ele><time>2026-05-01T07:54:54Z</time></trkpt><trkpt lat="39.68748763305389" lon="9.449112986339008"><ele>614.6666666666667</ele><time>2026-05-01T07:54:55Z</time></trkpt><trkpt lat="39.68741115636994" lon="9.449298869797738"><ele>610.0</ele><time>2026-05-01T07:54:56Z</time></trkpt><trkpt lat="39.68737265609839" lon="9.449507554866482"><ele>611.0</ele><time>2026-05-01T07:54:57Z</time></trkpt><trkpt lat="39.68737472647057" lon="9.449723404073916"><ele>612.0</ele><time>2026-05-01T07:54:58Z</time></trkpt><trkpt lat="39.68742762868921" lon="9.449939493043873"><ele>613.0</ele><time>2026-05-01T07:54:59Z</time></trkpt><trkpt lat="39.68750091503774" lon="9.450137638393036"><ele>613.0</ele><time>2026-05-01T07:55:00Z</time></trkpt><trkpt lat="39.68758444510883" lon="9.450334451034731"><ele>613.0</ele><time>2026-05-01T07:55:01Z</time></trkpt><trkpt lat="39.68766375378268" lon="9.450541435061979"><ele>613.0</ele><time>2026-05-01T07:55:02Z</time></trkpt><trkpt lat="39.687740430549226" lon="9.450751665406353"><ele>617.0</ele><time>2026-05-01T07:55:03Z</time></trkpt><trkpt lat="39.68781892930846" lon="9.450960804756235"><ele>621.0</ele><time>2026-05-01T07:55:04Z</time></trkpt><trkpt lat="39.68789814172836" lon="9.45116319378052"><ele>625.0</ele><time>2026-05-01T07:55:05Z</time></trkpt><trkpt lat="39.687978054398975" lon="9.451358423159482"><ele>625.0</ele><time>2026-05-01T07:55:06Z</time></trkpt><trkpt lat="39.68804835336933" lon="9.451548812551415"><ele>625.0</ele><time>2026-05-01T07:55:07Z</time></trkpt><trkpt lat="39.68808714825775" lon="9.451739299219534"><ele>625.0</ele><time>2026-05-01T07:55:08Z</time></trkpt><trkpt lat="39.68807370829383" lon="9.451928349025147"><ele>625.0</ele><time>2026-05-01T07:55:09Z</time></trkpt><trkpt lat="39.688006921675154" lon="9.452097957245973"><ele>625.0</ele><time>2026-05-01T07:55:10Z</time></trkpt><trkpt lat="39.68790793687653" lon="9.452251909712347"><ele>625.0</ele><time>2026-05-01T07:55:11Z</time></trkpt><trkpt lat="39.687810120773044" lon="9.452406675024273"><ele>624.25</ele><time>2026-05-01T07:55:12Z</time></trkpt><trkpt lat="39.68774222285777" lon="9.452574919718572"><ele>623.5</ele><time>2026-05-01T07:55:13Z</time></trkpt><trkpt lat="39.68771587225513" lon="9.452764784823044"><ele>622.75</ele><time>2026-05-01T07:55:14Z</time></trkpt><trkpt lat="39.687720672317006" lon="9.452964087675918"><ele>622.0</ele><time>2026-05-01T07:55:15Z</time></trkpt><trkpt lat="39.68775727049008" lon="9.453161309379196"><ele>623.3333333333334</ele><time>2026-05-01T07:55:16Z</time></trkpt><trkpt lat="39.68783413102265" lon="9.453339690185132"><ele>624.6666666666666</ele><time>2026-05-01T07:55:17Z</time></trkpt><trkpt lat="39.68794425356891" lon="9.453483160136056"><ele>626.0</ele><time>2026-05-01T07:55:18Z</time></trkpt><trkpt lat="39.68806632952807" lon="9.453598328342386"><ele>626.0</ele><time>2026-05-01T07:55:19Z</time></trkpt><trkpt lat="39.68816852355229" lon="9.453738023956156"><ele>626.0</ele><time>2026-05-01T07:55:20Z</time></trkpt><trkpt lat="39.6882395436038" lon="9.453921491603356"><ele>626.0</ele><time>2026-05-01T07:55:21Z</time></trkpt><trkpt lat="39.68827581870498" lon="9.454129455290424"><ele>623.3333333333333</ele><time>2026-05-01T07:55:22Z</time></trkpt><trkpt lat="39.688268933768576" lon="9.454344652125279"><ele>620.6666666666666</ele><time>2026-05-01T07:55:23Z</time></trkpt><trkpt lat="39.688234467225364" lon="9.45455357437892"><ele>618.0</ele><time>2026-05-01T07:55:24Z</time></trkpt><trkpt lat="39.68823014624932" lon="9.45475827282076"><ele>617.0</ele><time>2026-05-01T07:55:25Z</time></trkpt><trkpt lat="39.68827497689273" lon="9.454945964932307"><ele>616.0</ele><time>2026-05-01T07:55:26Z</time></trkpt><trkpt lat="39.68835794449089" lon="9.455110147662078"><ele>615.0</ele><time>2026-05-01T07:55:27Z</time></trkpt><trkpt lat="39.68846613930013" lon="9.455249756445589"><ele>617.6666666666666</ele><time>2026-05-01T07:55:28Z</time></trkpt><trkpt lat="39.688601387163914" lon="9.455355777372796"><ele>620.3333333333333</ele><time>2026-05-01T07:55:29Z</time></trkpt><trkpt lat="39.68875268513162" lon="9.455424307943018"><ele>623.0</ele><time>2026-05-01T07:55:30Z</time></trkpt><trkpt lat="39.68891218187754" lon="9.455440638696848"><ele>623.0</ele><time>2026-05-01T07:55:31Z</time></trkpt><trkpt lat="39.6890773888054" lon="9.455426435483261"><ele>623.0</ele><time>2026-05-01T07:55:32Z</time></trkpt><trkpt lat="39.689246501093336" lon="9.455416470088776"><ele>623.0</ele><time>2026-05-01T07:55:33Z</time></trkpt><trkpt lat="39.689414483570715" lon="9.455414173422632"><ele>624.0</ele><time>2026-05-01T07:55:34Z</time></trkpt><trkpt lat="39.68958046032578" lon="9.455410448984367"><ele>625.0</ele><time>2026-05-01T07:55:35Z</time></trkpt><trkpt lat="39.68974359640404" lon="9.455408702675781"><ele>626.0</ele><time>2026-05-01T07:55:36Z</time></trkpt><trkpt lat="39.68990334164772" lon="9.455403485835694"><ele>626.0</ele><time>2026-05-01T07:55:37Z</time></trkpt><trkpt lat="39.69005885291057" lon="9.455391988067621"><ele>626.0</ele><time>2026-05-01T07:55:38Z</time></trkpt><trkpt lat="39.69020712313671" lon="9.455390311566424"><ele>626.0</ele><time>2026-05-01T07:55:39Z</time></trkpt><trkpt lat="39.69035520263168" lon="9.455410752271986"><ele>625.5</ele><time>2026-05-01T07:55:40Z</time></trkpt><trkpt lat="39.690492015840945" lon="9.455478221011672"><ele>625.0</ele><time>2026-05-01T07:55:41Z</time></trkpt><trkpt lat="39.69060900468234" lon="9.455595790278045"><ele>624.5</ele><time>2026-05-01T07:55:42Z</time></trkpt><trkpt lat="39.69069606190198" lon="9.455762619510509"><ele>624.0</ele><time>2026-05-01T07:55:43Z</time></trkpt><trkpt lat="39.69073912259864" lon="9.455957007489987"><ele>624.0</ele><time>2026-05-01T07:55:44Z</time></trkpt><trkpt lat="39.69071715565737" lon="9.456157179483917"><ele>624.0</ele><time>2026-05-01T07:55:45Z</time></trkpt><trkpt lat="39.69067744105492" lon="9.456366625356411"><ele>624.0</ele><time>2026-05-01T07:55:46Z</time></trkpt><trkpt lat="39.69063033659416" lon="9.45655664286848"><ele>624.6666666666666</ele><time>2026-05-01T07:55:47Z</time></trkpt><trkpt lat="39.69064084016549" lon="9.456745142555311"><ele>625.3333333333333</ele><time>2026-05-01T07:55:48Z</time></trkpt><trkpt lat="39.690708676806786" lon="9.456938737963887"><ele>626.0</ele><time>2026-05-01T07:55:49Z</time></trkpt><trkpt lat="39.69080656637633" lon="9.457096648535778"><ele>625.6666666666666</ele><time>2026-05-01T07:55:50Z</time></trkpt><trkpt lat="39.69094002021201" lon="9.457200225601726"><ele>625.3333333333334</ele><time>2026-05-01T07:55:51Z</time></trkpt><trkpt lat="39.691094138406186" lon="9.457260701354832"><ele>625.0</ele><time>2026-05-01T07:55:52Z</time></trkpt><trkpt lat="39.691247473640516" lon="9.457332278846266"><ele>625.0</ele><time>2026-05-01T07:55:53Z</time></trkpt><trkpt lat="39.69140263610926" lon="9.457409594516916"><ele>625.0</ele><time>2026-05-01T07:55:54Z</time></trkpt><trkpt lat="39.69156010851757" lon="9.457461557181071"><ele>625.0</ele><time>2026-05-01T07:55:55Z</time></trkpt><trkpt lat="39.69171368558729" lon="9.457481841784363"><ele>625.0</ele><time>2026-05-01T07:55:56Z</time></trkpt><trkpt lat="39.69185588936066" lon="9.457522378122148"><ele>625.0</ele><time>2026-05-01T07:55:57Z</time></trkpt><trkpt lat="39.691964997477484" lon="9.457610761864652"><ele>625.0</ele><time>2026-05-01T07:55:58Z</time></trkpt><trkpt lat="39.69202756054317" lon="9.457755677316282"><ele>625.0</ele><time>2026-05-01T07:55:59Z</time></trkpt><trkpt lat="39.69202734860604" lon="9.457922122308744"><ele>625.25</ele><time>2026-05-01T07:56:00Z</time></trkpt><trkpt lat="39.691967855844815" lon="9.458061503201286"><ele>625.5</ele><time>2026-05-01T07:56:01Z</time></trkpt><trkpt lat="39.69185194120002" lon="9.458133831985077"><ele>625.75</ele><time>2026-05-01T07:56:02Z</time></trkpt><trkpt lat="39.69172055418685" lon="9.458158555736143"><ele>626.0</ele><time>2026-05-01T07:56:03Z</time></trkpt><trkpt lat="39.69158125633008" lon="9.45811434096467"><ele>626.0</ele><time>2026-05-01T07:56:04Z</time></trkpt><trkpt lat="39.69142362383118" lon="9.458103492857528"><ele>626.0</ele><time>2026-05-01T07:56:05Z</time></trkpt><trkpt lat="39.69125754581464" lon="9.458092392696871"><ele>626.0</ele><time>2026-05-01T07:56:06Z</time></trkpt><trkpt lat="39.69108486414214" lon="9.458098546767962"><ele>626.6666666666666</ele><time>2026-05-01T07:56:07Z</time></trkpt><trkpt lat="39.69091487829346" lon="9.458078973418138"><ele>627.3333333333334</ele><time>2026-05-01T07:56:08Z</time></trkpt><trkpt lat="39.690740380779545" lon="9.458080806137225"><ele>628.0</ele><time>2026-05-01T07:56:09Z</time></trkpt><trkpt lat="39.690564417094194" lon="9.458096458118085"><ele>628.0</ele><time>2026-05-01T07:56:10Z</time></trkpt><trkpt lat="39.690386751051314" lon="9.458095809160934"><ele>628.0</ele><time>2026-05-01T07:56:11Z</time></trkpt><trkpt lat="39.69021035067475" lon="9.458106189656627"><ele>628.0</ele><time>2026-05-01T07:56:12Z</time></trkpt><trkpt lat="39.690038709180044" lon="9.458143742977278"><ele>627.6666666666667</ele><time>2026-05-01T07:56:13Z</time></trkpt><trkpt lat="39.68988310472338" lon="9.458236314132929"><ele>627.3333333333334</ele><time>2026-05-01T07:56:14Z</time></trkpt><trkpt lat="39.68974317048883" lon="9.458378170123023"><ele>627.0</ele><time>2026-05-01T07:56:15Z</time></trkpt><trkpt lat="39.68963590975177" lon="9.458550964662384"><ele>627.0</ele><time>2026-05-01T07:56:16Z</time></trkpt><trkpt lat="39.689564443507614" lon="9.45875050430779"><ele>627.0</ele><time>2026-05-01T07:56:17Z</time></trkpt><trkpt lat="39.689524409858734" lon="9.458973343795176"><ele>627.0</ele><time>2026-05-01T07:56:18Z</time></trkpt><trkpt lat="39.68952823743189" lon="9.459200179107714"><ele>625.6666666666666</ele><time>2026-05-01T07:56:19Z</time></trkpt><trkpt lat="39.6895718614656" lon="9.459414843847785"><ele>624.3333333333333</ele><time>2026-05-01T07:56:20Z</time></trkpt><trkpt lat="39.68959180069072" lon="9.45961747237995"><ele>623.0</ele><time>2026-05-01T07:56:21Z</time></trkpt><trkpt lat="39.689617591812464" lon="9.459798562521744"><ele>623.0</ele><time>2026-05-01T07:56:22Z</time></trkpt><trkpt lat="39.68964509966245" lon="9.459945533457564"><ele>623.0</ele><time>2026-05-01T07:56:23Z</time></trkpt><trkpt lat="39.69003850405051" lon="9.459976306170438"><ele>623.0</ele><time>2026-05-01T07:56:24Z</time></trkpt><trkpt lat="39.69018701598707" lon="9.460025948143397"><ele>623.0</ele><time>2026-05-01T07:56:25Z</time></trkpt><trkpt lat="39.69031826073582" lon="9.460093373428935"><ele>623.0</ele><time>2026-05-01T07:56:26Z</time></trkpt><trkpt lat="39.6904132309695" lon="9.460216312489848"><ele>623.0</ele><time>2026-05-01T07:56:27Z</time></trkpt><trkpt lat="39.69046599347146" lon="9.4603782496995"><ele>623.25</ele><time>2026-05-01T07:56:28Z</time></trkpt><trkpt lat="39.690472095874455" lon="9.460558190982294"><ele>623.5</ele><time>2026-05-01T07:56:29Z</time></trkpt><trkpt lat="39.690423676098845" lon="9.460735088560718"><ele>623.75</ele><time>2026-05-01T07:56:30Z</time></trkpt><trkpt lat="39.69032822916171" lon="9.460878377052532"><ele>624.0</ele><time>2026-05-01T07:56:31Z</time></trkpt><trkpt lat="39.69019009990765" lon="9.460958170625885"><ele>624.0</ele><time>2026-05-01T07:56:32Z</time></trkpt><trkpt lat="39.69003604513968" lon="9.461001955961791"><ele>624.0</ele><time>2026-05-01T07:56:33Z</time></trkpt><trkpt lat="39.68988022701181" lon="9.461058840134726"><ele>624.0</ele><time>2026-05-01T07:56:34Z</time></trkpt><trkpt lat="39.68972399885615" lon="9.461124452674303"><ele>624.0</ele><time>2026-05-01T07:56:35Z</time></trkpt><trkpt lat="39.68957092469256" lon="9.461189236310055"><ele>624.0</ele><time>2026-05-01T07:56:36Z</time></trkpt><trkpt lat="39.68943244706579" lon="9.461284078722098"><ele>624.0</ele><time>2026-05-01T07:56:37Z</time></trkpt><trkpt lat="39.68932870604585" lon="9.461429627680381"><ele>625.0</ele><time>2026-05-01T07:56:38Z</time></trkpt><trkpt lat="39.68926630848913" lon="9.461615224647845"><ele>626.0</ele><time>2026-05-01T07:56:39Z</time></trkpt><trkpt lat="39.68925466600013" lon="9.461820933297277"><ele>627.0</ele><time>2026-05-01T07:56:40Z</time></trkpt><trkpt lat="39.68929451233975" lon="9.462032780313047"><ele>627.6666666666666</ele><time>2026-05-01T07:56:41Z</time></trkpt><trkpt lat="39.68935336683269" lon="9.462238923651125"><ele>628.3333333333333</ele><time>2026-05-01T07:56:42Z</time></trkpt><trkpt lat="39.689400301579816" lon="9.46244443440977"><ele>629.0</ele><time>2026-05-01T07:56:43Z</time></trkpt><trkpt lat="39.68944560158044" lon="9.4626667258491"><ele>629.3333333333333</ele><time>2026-05-01T07:56:44Z</time></trkpt><trkpt lat="39.68950626956122" lon="9.462889456428156"><ele>629.6666666666666</ele><time>2026-05-01T07:56:45Z</time></trkpt><trkpt lat="39.6895964691482" lon="9.46310126232526"><ele>630.0</ele><time>2026-05-01T07:56:46Z</time></trkpt><trkpt lat="39.68971451586753" lon="9.46330052452959"><ele>630.0</ele><time>2026-05-01T07:56:47Z</time></trkpt><trkpt lat="39.689850277176475" lon="9.463483768687698"><ele>630.0</ele><time>2026-05-01T07:56:48Z</time></trkpt><trkpt lat="39.690007447321236" lon="9.463647189082621"><ele>630.0</ele><time>2026-05-01T07:56:49Z</time></trkpt><trkpt lat="39.69017577200372" lon="9.463791229960467"><ele>630.3333333333334</ele><time>2026-05-01T07:56:50Z</time></trkpt><trkpt lat="39.69033710240627" lon="9.463929025178269"><ele>630.6666666666667</ele><time>2026-05-01T07:56:51Z</time></trkpt><trkpt lat="39.69050014490309" lon="9.464074382884196"><ele>631.0</ele><time>2026-05-01T07:56:52Z</time></trkpt><trkpt lat="39.69065974353492" lon="9.464222461580608"><ele>631.0</ele><time>2026-05-01T07:56:53Z</time></trkpt><trkpt lat="39.69082109211553" lon="9.464374156855135"><ele>631.0</ele><time>2026-05-01T07:56:54Z</time></trkpt><trkpt lat="39.69098532652673" lon="9.464527261175267"><ele>631.0</ele><time>2026-05-01T07:56:55Z</time></trkpt><trkpt lat="39.691150655136326" lon="9.464677014739264"><ele>633.3333333333334</ele><time>2026-05-01T07:56:56Z</time></trkpt><trkpt lat="39.691317819358304" lon="9.464826554372992"><ele>635.6666666666666</ele><time>2026-05-01T07:56:57Z</time></trkpt><trkpt lat="39.69148262871584" lon="9.464978517537167"><ele>638.0</ele><time>2026-05-01T07:56:58Z</time></trkpt><trkpt lat="39.69164617611134" lon="9.465131482494456"><ele>638.0</ele><time>2026-05-01T07:56:59Z</time></trkpt><trkpt lat="39.69180726152118" lon="9.465283386620902"><ele>638.0</ele><time>2026-05-01T07:57:00Z</time></trkpt><trkpt lat="39.691965355843514" lon="9.465443250974365"><ele>638.0</ele><time>2026-05-01T07:57:01Z</time></trkpt><trkpt lat="39.692119459031716" lon="9.465604568025844"><ele>638.6666666666666</ele><time>2026-05-01T07:57:02Z</time></trkpt><trkpt lat="39.692273750357934" lon="9.465768243083645"><ele>639.3333333333334</ele><time>2026-05-01T07:57:03Z</time></trkpt><trkpt lat="39.69242696780819" lon="9.465932881153499"><ele>640.0</ele><time>2026-05-01T07:57:04Z</time></trkpt><trkpt lat="39.69258139677746" lon="9.466097115530005"><ele>640.0</ele><time>2026-05-01T07:57:05Z</time></trkpt><trkpt lat="39.69273428898056" lon="9.466260172417806"><ele>640.0</ele><time>2026-05-01T07:57:06Z</time></trkpt><trkpt lat="39.692886876559186" lon="9.466426184071643"><ele>640.0</ele><time>2026-05-01T07:57:07Z</time></trkpt><trkpt lat="39.69303872733209" lon="9.466592009463483"><ele>641.0</ele><time>2026-05-01T07:57:08Z</time></trkpt><trkpt lat="39.69318984856047" lon="9.466755327151086"><ele>642.0</ele><time>2026-05-01T07:57:09Z</time></trkpt><trkpt lat="39.69334303750713" lon="9.46691770224088"><ele>643.0</ele><time>2026-05-01T07:57:10Z</time></trkpt><trkpt lat="39.693497969082586" lon="9.467075033768335"><ele>644.0</ele><time>2026-05-01T07:57:11Z</time></trkpt><trkpt lat="39.693657261578316" lon="9.467225860116335"><ele>645.0</ele><time>2026-05-01T07:57:12Z</time></trkpt><trkpt lat="39.693825725506585" lon="9.467359195920183"><ele>646.0</ele><time>2026-05-01T07:57:13Z</time></trkpt><trkpt lat="39.69401024981643" lon="9.467460286614054"><ele>646.0</ele><time>2026-05-01T07:57:14Z</time></trkpt><trkpt lat="39.69420230822481" lon="9.467538615282965"><ele>646.0</ele><time>2026-05-01T07:57:15Z</time></trkpt><trkpt lat="39.69439795243084" lon="9.467603215637"><ele>646.0</ele><time>2026-05-01T07:57:16Z</time></trkpt><trkpt lat="39.69459605601105" lon="9.467660058596078"><ele>645.3333333333334</ele><time>2026-05-01T07:57:17Z</time></trkpt><trkpt lat="39.69479253092373" lon="9.467718024555154"><ele>644.6666666666666</ele><time>2026-05-01T07:57:18Z</time></trkpt><trkpt lat="39.6949896176745" lon="9.467779857840616"><ele>644.0</ele><time>2026-05-01T07:57:19Z</time></trkpt><trkpt lat="39.695187988178255" lon="9.467842861258733"><ele>644.0</ele><time>2026-05-01T07:57:20Z</time></trkpt><trkpt lat="39.69538619967441" lon="9.467905745778719"><ele>644.0</ele><time>2026-05-01T07:57:21Z</time></trkpt><trkpt lat="39.69558012538818" lon="9.467967039006053"><ele>644.0</ele><time>2026-05-01T07:57:22Z</time></trkpt><trkpt lat="39.695775983200086" lon="9.468025330542263"><ele>642.6666666666666</ele><time>2026-05-01T07:57:23Z</time></trkpt><trkpt lat="39.69596445214432" lon="9.468080833083702"><ele>641.3333333333334</ele><time>2026-05-01T07:57:24Z</time></trkpt><trkpt lat="39.69614545201865" lon="9.468135843725493"><ele>640.0</ele><time>2026-05-01T07:57:25Z</time></trkpt><trkpt lat="39.69632332308313" lon="9.468194646942356"><ele>640.0</ele><time>2026-05-01T07:57:26Z</time></trkpt><trkpt lat="39.696490382602796" lon="9.468264707658596"><ele>640.0</ele><time>2026-05-01T07:57:27Z</time></trkpt><trkpt lat="39.69664839548198" lon="9.468360189601455"><ele>640.0</ele><time>2026-05-01T07:57:28Z</time></trkpt><trkpt lat="39.69679787708386" lon="9.468493557426441"><ele>639.6666666666667</ele><time>2026-05-01T07:57:29Z</time></trkpt><trkpt lat="39.69692983856743" lon="9.468655410040064"><ele>639.3333333333334</ele><time>2026-05-01T07:57:30Z</time></trkpt><trkpt lat="39.69704298138969" lon="9.468831168753928"><ele>639.0</ele><time>2026-05-01T07:57:31Z</time></trkpt><trkpt lat="39.6971356162107" lon="9.46900722734029"><ele>639.5</ele><time>2026-05-01T07:57:32Z</time></trkpt><trkpt lat="39.6971846299432" lon="9.469185096721251"><ele>640.0</ele><time>2026-05-01T07:57:33Z</time></trkpt><trkpt lat="39.69717278491689" lon="9.46936284397629"><ele>640.5</ele><time>2026-05-01T07:57:34Z</time></trkpt><trkpt lat="39.697110943015126" lon="9.469521220066893"><ele>641.0</ele><time>2026-05-01T07:57:35Z</time></trkpt><trkpt lat="39.69700963384952" lon="9.469665807199032"><ele>641.3333333333333</ele><time>2026-05-01T07:57:36Z</time></trkpt><trkpt lat="39.696891815119905" lon="9.469806676066002"><ele>641.6666666666666</ele><time>2026-05-01T07:57:37Z</time></trkpt><trkpt lat="39.69677918788463" lon="9.469974100745615"><ele>642.0</ele><time>2026-05-01T07:57:38Z</time></trkpt><trkpt lat="39.69666254102701" lon="9.470147813046708"><ele>642.0</ele><time>2026-05-01T07:57:39Z</time></trkpt><trkpt lat="39.696549278747305" lon="9.470316934192619"><ele>642.0</ele><time>2026-05-01T07:57:40Z</time></trkpt><trkpt lat="39.69644741568161" lon="9.470482721993505"><ele>642.0</ele><time>2026-05-01T07:57:41Z</time></trkpt><trkpt lat="39.69638167286426" lon="9.470667431718752"><ele>646.0</ele><time>2026-05-01T07:57:42Z</time></trkpt><trkpt lat="39.69635082667987" lon="9.470871961874423"><ele>650.0</ele><time>2026-05-01T07:57:43Z</time></trkpt><trkpt lat="39.69632456004769" lon="9.471071467985324"><ele>654.0</ele><time>2026-05-01T07:57:44Z</time></trkpt><trkpt lat="39.69629623433113" lon="9.471269326269912"><ele>655.3333333333334</ele><time>2026-05-01T07:57:45Z</time></trkpt><trkpt lat="39.69626793592053" lon="9.47147322348692"><ele>656.6666666666667</ele><time>2026-05-01T07:57:46Z</time></trkpt><trkpt lat="39.69624410680556" lon="9.471672806775365"><ele>658.0</ele><time>2026-05-01T07:57:47Z</time></trkpt><trkpt lat="39.696247141847174" lon="9.47185951573227"><ele>658.0</ele><time>2026-05-01T07:57:48Z</time></trkpt><trkpt lat="39.6962989569736" lon="9.472031443544356"><ele>658.0</ele><time>2026-05-01T07:57:49Z</time></trkpt><trkpt lat="39.69639859528444" lon="9.472161790014301"><ele>658.0</ele><time>2026-05-01T07:57:50Z</time></trkpt><trkpt lat="39.69652975824427" lon="9.472235239227965"><ele>658.0</ele><time>2026-05-01T07:57:51Z</time></trkpt><trkpt lat="39.69667706492245" lon="9.472266302163945"><ele>657.3333333333334</ele><time>2026-05-01T07:57:52Z</time></trkpt><trkpt lat="39.69683190311031" lon="9.472300837611252"><ele>656.6666666666666</ele><time>2026-05-01T07:57:53Z</time></trkpt><trkpt lat="39.69699097194533" lon="9.472340942443461"><ele>656.0</ele><time>2026-05-01T07:57:54Z</time></trkpt><trkpt lat="39.6971534560618" lon="9.472383417628834"><ele>658.6666666666666</ele><time>2026-05-01T07:57:55Z</time></trkpt><trkpt lat="39.69732047299021" lon="9.47242418340709"><ele>661.3333333333334</ele><time>2026-05-01T07:57:56Z</time></trkpt><trkpt lat="39.697491474086455" lon="9.472467926511683"><ele>664.0</ele><time>2026-05-01T07:57:57Z</time></trkpt><trkpt lat="39.697656729441086" lon="9.472510593914867"><ele>665.6666666666667</ele><time>2026-05-01T07:57:58Z</time></trkpt><trkpt lat="39.697819583466355" lon="9.472551079033899"><ele>667.3333333333334</ele><time>2026-05-01T07:57:59Z</time></trkpt><trkpt lat="39.697976122939814" lon="9.472606764561984"><ele>669.0</ele><time>2026-05-01T07:58:00Z</time></trkpt><trkpt lat="39.69811865126657" lon="9.472712389027752"><ele>669.0</ele><time>2026-05-01T07:58:01Z</time></trkpt><trkpt lat="39.69824325735845" lon="9.472858390937608"><ele>669.0</ele><time>2026-05-01T07:58:02Z</time></trkpt><trkpt lat="39.6983456790886" lon="9.473039938033676"><ele>669.0</ele><time>2026-05-01T07:58:03Z</time></trkpt><trkpt lat="39.69842905443565" lon="9.473242909684013"><ele>669.6666666666666</ele><time>2026-05-01T07:58:04Z</time></trkpt><trkpt lat="39.698511928035245" lon="9.473454865070527"><ele>670.3333333333333</ele><time>2026-05-01T07:58:05Z</time></trkpt><trkpt lat="39.69860356374801" lon="9.473669768075586"><ele>671.0</ele><time>2026-05-01T07:58:06Z</time></trkpt><trkpt lat="39.6986935340126" lon="9.473878867768041"><ele>672.0</ele><time>2026-05-01T07:58:07Z</time></trkpt><trkpt lat="39.69878476057066" lon="9.474094077339478"><ele>673.0</ele><time>2026-05-01T07:58:08Z</time></trkpt><trkpt lat="39.698874665452074" lon="9.474309294117925"><ele>674.0</ele><time>2026-05-01T07:58:09Z</time></trkpt><trkpt lat="39.69896662712936" lon="9.474522697990889"><ele>675.3333333333333</ele><time>2026-05-01T07:58:10Z</time></trkpt><trkpt lat="39.69905637388523" lon="9.474731011836527"><ele>676.6666666666666</ele><time>2026-05-01T07:58:11Z</time></trkpt><trkpt lat="39.69914140524666" lon="9.474942294986226"><ele>678.0</ele><time>2026-05-01T07:58:12Z</time></trkpt><trkpt lat="39.69923059493619" lon="9.47515523100408"><ele>678.0</ele><time>2026-05-01T07:58:13Z</time></trkpt><trkpt lat="39.69932966410603" lon="9.475368219100586"><ele>678.0</ele><time>2026-05-01T07:58:14Z</time></trkpt><trkpt lat="39.69944457559438" lon="9.475577582761002"><ele>678.0</ele><time>2026-05-01T07:58:15Z</time></trkpt><trkpt lat="39.699579974617805" lon="9.475779187082455"><ele>679.3333333333334</ele><time>2026-05-01T07:58:16Z</time></trkpt><trkpt lat="39.69973029679419" lon="9.475971871591053"><ele>680.6666666666667</ele><time>2026-05-01T07:58:17Z</time></trkpt><trkpt lat="39.69988863935919" lon="9.476166381289518"><ele>682.0</ele><time>2026-05-01T07:58:18Z</time></trkpt><trkpt lat="39.7000460279547" lon="9.476362591881136"><ele>682.3333333333334</ele><time>2026-05-01T07:58:19Z</time></trkpt><trkpt lat="39.7002014392752" lon="9.47656319155161"><ele>682.6666666666666</ele><time>2026-05-01T07:58:20Z</time></trkpt><trkpt lat="39.700358200013795" lon="9.47676229369406"><ele>683.0</ele><time>2026-05-01T07:58:21Z</time></trkpt><trkpt lat="39.70050910270734" lon="9.476949443992693"><ele>684.6666666666666</ele><time>2026-05-01T07:58:22Z</time></trkpt><trkpt lat="39.70065489622513" lon="9.477129077348081"><ele>686.3333333333334</ele><time>2026-05-01T07:58:23Z</time></trkpt><trkpt lat="39.70079493923665" lon="9.477308528692259"><ele>688.0</ele><time>2026-05-01T07:58:24Z</time></trkpt><trkpt lat="39.70092943993123" lon="9.477500032552353"><ele>688.0</ele><time>2026-05-01T07:58:25Z</time></trkpt><trkpt lat="39.701055006890826" lon="9.477710980350311"><ele>688.0</ele><time>2026-05-01T07:58:26Z</time></trkpt><trkpt lat="39.701174848149826" lon="9.477937987393608"><ele>688.0</ele><time>2026-05-01T07:58:27Z</time></trkpt><trkpt lat="39.70129678234014" lon="9.478168033814285"><ele>689.0</ele><time>2026-05-01T07:58:28Z</time></trkpt><trkpt lat="39.70142408275539" lon="9.478398619413532"><ele>690.0</ele><time>2026-05-01T07:58:29Z</time></trkpt><trkpt lat="39.70155287979256" lon="9.478633463888144"><ele>691.0</ele><time>2026-05-01T07:58:30Z</time></trkpt><trkpt lat="39.701675708444846" lon="9.47885884339488"><ele>692.3333333333334</ele><time>2026-05-01T07:58:31Z</time></trkpt><trkpt lat="39.70179248424846" lon="9.479072446073596"><ele>693.6666666666666</ele><time>2026-05-01T07:58:32Z</time></trkpt><trkpt lat="39.70190362402616" lon="9.479275421071542"><ele>695.0</ele><time>2026-05-01T07:58:33Z</time></trkpt><trkpt lat="39.7020034126274" lon="9.479467930335293"><ele>696.0</ele><time>2026-05-01T07:58:34Z</time></trkpt><trkpt lat="39.7020782861239" lon="9.479667319526527"><ele>697.0</ele><time>2026-05-01T07:58:35Z</time></trkpt><trkpt lat="39.70211281753325" lon="9.479884229135678"><ele>698.0</ele><time>2026-05-01T07:58:36Z</time></trkpt><trkpt lat="39.70210042514627" lon="9.480107469223634"><ele>698.0</ele><time>2026-05-01T07:58:37Z</time></trkpt><trkpt lat="39.70205207137913" lon="9.480334403389918"><ele>698.0</ele><time>2026-05-01T07:58:38Z</time></trkpt><trkpt lat="39.70200258703381" lon="9.480572263860452"><ele>698.0</ele><time>2026-05-01T07:58:39Z</time></trkpt><trkpt lat="39.70195686000505" lon="9.480818875209556"><ele>698.0</ele><time>2026-05-01T07:58:40Z</time></trkpt><trkpt lat="39.70190787978177" lon="9.481069202622512"><ele>698.0</ele><time>2026-05-01T07:58:41Z</time></trkpt><trkpt lat="39.70185779353699" lon="9.481324105993732"><ele>698.0</ele><time>2026-05-01T07:58:42Z</time></trkpt><trkpt lat="39.701808917740095" lon="9.481580643337514"><ele>698.0</ele><time>2026-05-01T07:58:43Z</time></trkpt><trkpt lat="39.70175863670382" lon="9.481840786959408"><ele>698.0</ele><time>2026-05-01T07:58:44Z</time></trkpt><trkpt lat="39.701706604075234" lon="9.482111142755917"><ele>698.0</ele><time>2026-05-01T07:58:45Z</time></trkpt><trkpt lat="39.70165552431433" lon="9.482389982806607"><ele>699.0</ele><time>2026-05-01T07:58:46Z</time></trkpt><trkpt lat="39.70160722054175" lon="9.48267151596411"><ele>700.0</ele><time>2026-05-01T07:58:47Z</time></trkpt><trkpt lat="39.70156047528589" lon="9.482950820428243"><ele>701.0</ele><time>2026-05-01T07:58:48Z</time></trkpt><trkpt lat="39.70151390439963" lon="9.483226935646346"><ele>701.3333333333333</ele><time>2026-05-01T07:58:49Z</time></trkpt><trkpt lat="39.70147106714359" lon="9.483500392177142"><ele>701.6666666666666</ele><time>2026-05-01T07:58:50Z</time></trkpt><trkpt lat="39.7014301610465" lon="9.483767051171762"><ele>702.0</ele><time>2026-05-01T07:58:51Z</time></trkpt><trkpt lat="39.7013885596885" lon="9.48403299591076"><ele>702.6666666666666</ele><time>2026-05-01T07:58:52Z</time></trkpt><trkpt lat="39.701345751911454" lon="9.484292644432772"><ele>703.3333333333333</ele><time>2026-05-01T07:58:53Z</time></trkpt><trkpt lat="39.701301639624965" lon="9.484562869087982"><ele>704.0</ele><time>2026-05-01T07:58:54Z</time></trkpt><trkpt lat="39.70125859948033" lon="9.484822532564813"><ele>704.0</ele><time>2026-05-01T07:58:55Z</time></trkpt><trkpt lat="39.70121647410931" lon="9.485073032044973"><ele>704.0</ele><time>2026-05-01T07:58:56Z</time></trkpt><trkpt lat="39.70117615036292" lon="9.485319583650679"><ele>704.0</ele><time>2026-05-01T07:58:57Z</time></trkpt><trkpt lat="39.70114353188484" lon="9.485553393788067"><ele>702.0</ele><time>2026-05-01T07:58:58Z</time></trkpt><trkpt lat="39.70114904675033" lon="9.485778639191507"><ele>700.0</ele><time>2026-05-01T07:58:59Z</time></trkpt><trkpt lat="39.701196807489275" lon="9.48600246800804"><ele>698.0</ele><time>2026-05-01T07:59:00Z</time></trkpt><trkpt lat="39.701267545170595" lon="9.486219737494746"><ele>697.0</ele><time>2026-05-01T07:59:01Z</time></trkpt><trkpt lat="39.701328277512005" lon="9.486448425274949"><ele>696.0</ele><time>2026-05-01T07:59:02Z</time></trkpt><trkpt lat="39.70137488436098" lon="9.486685991172186"><ele>695.0</ele><time>2026-05-01T07:59:03Z</time></trkpt><trkpt lat="39.701390974062456" lon="9.486937181927722"><ele>696.3333333333333</ele><time>2026-05-01T07:59:04Z</time></trkpt><trkpt lat="39.70136861505894" lon="9.487196930508127"><ele>697.6666666666666</ele><time>2026-05-01T07:59:05Z</time></trkpt><trkpt lat="39.70132900077964" lon="9.487460867286218"><ele>699.0</ele><time>2026-05-01T07:59:06Z</time></trkpt><trkpt lat="39.70129166060594" lon="9.487720794862756"><ele>704.0</ele><time>2026-05-01T07:59:07Z</time></trkpt><trkpt lat="39.70126232625008" lon="9.487972787412112"><ele>709.0</ele><time>2026-05-01T07:59:08Z</time></trkpt><trkpt lat="39.70123795555702" lon="9.488212862918447"><ele>714.0</ele><time>2026-05-01T07:59:09Z</time></trkpt><trkpt lat="39.70121545610839" lon="9.488431565822376"><ele>714.0</ele><time>2026-05-01T07:59:10Z</time></trkpt><trkpt lat="39.70119193257606" lon="9.488624142052064"><ele>714.0</ele><time>2026-05-01T07:59:11Z</time></trkpt><trkpt lat="39.70115263736162" lon="9.488790234675434"><ele>714.0</ele><time>2026-05-01T07:59:12Z</time></trkpt><trkpt lat="39.70107792448465" lon="9.488922912881051"><ele>714.0</ele><time>2026-05-01T07:59:13Z</time></trkpt><trkpt lat="39.70095999739354" lon="9.488987383314194"><ele>714.25</ele><time>2026-05-01T07:59:14Z</time></trkpt><trkpt lat="39.700827890057695" lon="9.489008220765422"><ele>714.5</ele><time>2026-05-01T07:59:15Z</time></trkpt><trkpt lat="39.70068513989062" lon="9.488977429617538"><ele>714.75</ele><time>2026-05-01T07:59:16Z</time></trkpt><trkpt lat="39.70052011100271" lon="9.488945771483557"><ele>715.0</ele><time>2026-05-01T07:59:17Z</time></trkpt><trkpt lat="39.70035995560041" lon="9.488915849080408"><ele>714.3333333333334</ele><time>2026-05-01T07:59:18Z</time></trkpt><trkpt lat="39.70018052510966" lon="9.488931560342746"><ele>713.6666666666666</ele><time>2026-05-01T07:59:19Z</time></trkpt><trkpt lat="39.69999992484846" lon="9.48896583802118"><ele>713.0</ele><time>2026-05-01T07:59:20Z</time></trkpt><trkpt lat="39.69982100614556" lon="9.489052976316106"><ele>713.0</ele><time>2026-05-01T07:59:21Z</time></trkpt><trkpt lat="39.69964771623718" lon="9.489172206952155"><ele>713.0</ele><time>2026-05-01T07:59:22Z</time></trkpt><trkpt lat="39.69947831277247" lon="9.48929780796317"><ele>713.0</ele><time>2026-05-01T07:59:23Z</time></trkpt><trkpt lat="39.699330615295146" lon="9.489426197689804"><ele>713.0</ele><time>2026-05-01T07:59:24Z</time></trkpt><trkpt lat="39.69921861569126" lon="9.489581987919635"><ele>713.0</ele><time>2026-05-01T07:59:25Z</time></trkpt><trkpt lat="39.69915851112874" lon="9.48976697660671"><ele>713.0</ele><time>2026-05-01T07:59:26Z</time></trkpt><trkpt lat="39.69913579478771" lon="9.489983346758477"><ele>713.0</ele><time>2026-05-01T07:59:27Z</time></trkpt><trkpt lat="39.6991205794873" lon="9.490204587869922"><ele>713.0</ele><time>2026-05-01T07:59:28Z</time></trkpt><trkpt lat="39.69907901609925" lon="9.490412316324154"><ele>713.0</ele><time>2026-05-01T07:59:29Z</time></trkpt><trkpt lat="39.69900394964364" lon="9.490604103849485"><ele>716.0</ele><time>2026-05-01T07:59:30Z</time></trkpt><trkpt lat="39.69890605592109" lon="9.490776111896364"><ele>719.0</ele><time>2026-05-01T07:59:31Z</time></trkpt><trkpt lat="39.69878628816984" lon="9.490930460321735"><ele>722.0</ele><time>2026-05-01T07:59:32Z</time></trkpt><trkpt lat="39.698684625269536" lon="9.49107997880514"><ele>722.0</ele><time>2026-05-01T07:59:33Z</time></trkpt><trkpt lat="39.698636220536244" lon="9.491251221179136"><ele>722.0</ele><time>2026-05-01T07:59:34Z</time></trkpt><trkpt lat="39.69863742974748" lon="9.491443727862544"><ele>722.0</ele><time>2026-05-01T07:59:35Z</time></trkpt><trkpt lat="39.69868874255819" lon="9.491624121933873"><ele>722.0</ele><time>2026-05-01T07:59:36Z</time></trkpt><trkpt lat="39.69878628584373" lon="9.491759628465852"><ele>723.6666666666666</ele><time>2026-05-01T07:59:37Z</time></trkpt><trkpt lat="39.69892141991415" lon="9.491833139112389"><ele>725.3333333333334</ele><time>2026-05-01T07:59:38Z</time></trkpt><trkpt lat="39.69908887282821" lon="9.491843698189589"><ele>727.0</ele><time>2026-05-01T07:59:39Z</time></trkpt><trkpt lat="39.69925978569303" lon="9.4918059257103"><ele>729.6666666666667</ele><time>2026-05-01T07:59:40Z</time></trkpt><trkpt lat="39.69942902950826" lon="9.491747881827528"><ele>732.3333333333334</ele><time>2026-05-01T07:59:41Z</time></trkpt><trkpt lat="39.699604677133145" lon="9.491732967640736"><ele>735.0</ele><time>2026-05-01T07:59:42Z</time></trkpt><trkpt lat="39.69978389731986" lon="9.491754771358034"><ele>735.0</ele><time>2026-05-01T07:59:43Z</time></trkpt><trkpt lat="39.69995846842554" lon="9.491819352155149"><ele>735.0</ele><time>2026-05-01T07:59:44Z</time></trkpt><trkpt lat="39.700134509278186" lon="9.491882299722011"><ele>735.0</ele><time>2026-05-01T07:59:45Z</time></trkpt><trkpt lat="39.7003143510005" lon="9.491913778792691"><ele>737.0</ele><time>2026-05-01T07:59:46Z</time></trkpt><trkpt lat="39.700499802430876" lon="9.491907614481764"><ele>739.0</ele><time>2026-05-01T07:59:47Z</time></trkpt><trkpt lat="39.70068626422457" lon="9.491873399263596"><ele>741.0</ele><time>2026-05-01T07:59:48Z</time></trkpt><trkpt lat="39.700865614900124" lon="9.491821242833595"><ele>741.0</ele><time>2026-05-01T07:59:49Z</time></trkpt><trkpt lat="39.70104699995515" lon="9.491787092955287"><ele>741.0</ele><time>2026-05-01T07:59:50Z</time></trkpt><trkpt lat="39.701231073941926" lon="9.491805268779888"><ele>741.0</ele><time>2026-05-01T07:59:51Z</time></trkpt><trkpt lat="39.701411383931216" lon="9.491878017420325"><ele>742.0</ele><time>2026-05-01T07:59:52Z</time></trkpt><trkpt lat="39.70157681630805" lon="9.491987869941736"><ele>743.0</ele><time>2026-05-01T07:59:53Z</time></trkpt><trkpt lat="39.70170744328449" lon="9.492146664761304"><ele>744.0</ele><time>2026-05-01T07:59:54Z</time></trkpt><trkpt lat="39.70180269225869" lon="9.492340021997212"><ele>744.0</ele><time>2026-05-01T07:59:55Z</time></trkpt><trkpt lat="39.70186396856168" lon="9.492563112082474"><ele>744.0</ele><time>2026-05-01T07:59:56Z</time></trkpt><trkpt lat="39.701899397794726" lon="9.492801600048754"><ele>744.0</ele><time>2026-05-01T07:59:57Z</time></trkpt><trkpt lat="39.70191961948529" lon="9.493046118718492"><ele>748.3333333333334</ele><time>2026-05-01T07:59:58Z</time></trkpt><trkpt lat="39.701942524772534" lon="9.493288824050886"><ele>752.6666666666667</ele><time>2026-05-01T07:59:59Z</time></trkpt><trkpt lat="39.701969232788734" lon="9.493528945823751"><ele>757.0</ele><time>2026-05-01T08:00:00Z</time></trkpt><trkpt lat="39.70198400994417" lon="9.493764657722199"><ele>759.6666666666667</ele><time>2026-05-01T08:00:01Z</time></trkpt><trkpt lat="39.70197990489605" lon="9.49399831478827"><ele>762.3333333333334</ele><time>2026-05-01T08:00:02Z</time></trkpt><trkpt lat="39.701957245901774" lon="9.49422868957107"><ele>765.0</ele><time>2026-05-01T08:00:03Z</time></trkpt><trkpt lat="39.7019351343634" lon="9.494456149886153"><ele>766.3333333333333</ele><time>2026-05-01T08:00:04Z</time></trkpt><trkpt lat="39.70191742952237" lon="9.494768055638763"><ele>767.6666666666666</ele><time>2026-05-01T08:00:05Z</time></trkpt><trkpt lat="39.70189499697066" lon="9.495011364943235"><ele>769.0</ele><time>2026-05-01T08:00:06Z</time></trkpt><trkpt lat="39.70188064135838" lon="9.49523862737434"><ele>767.0</ele><time>2026-05-01T08:00:07Z</time></trkpt><trkpt lat="39.70190170188608" lon="9.495445238480784"><ele>765.0</ele><time>2026-05-01T08:00:08Z</time></trkpt><trkpt lat="39.701966093318354" lon="9.495649275766267"><ele>763.0</ele><time>2026-05-01T08:00:09Z</time></trkpt><trkpt lat="39.70207035487823" lon="9.49582373785102"><ele>763.0</ele><time>2026-05-01T08:00:10Z</time></trkpt><trkpt lat="39.70220666207801" lon="9.4959507492156"><ele>763.0</ele><time>2026-05-01T08:00:11Z</time></trkpt><trkpt lat="39.702356524977446" lon="9.496031194212945"><ele>763.0</ele><time>2026-05-01T08:00:12Z</time></trkpt><trkpt lat="39.7025043911125" lon="9.496094520355864"><ele>763.0</ele><time>2026-05-01T08:00:13Z</time></trkpt><trkpt lat="39.70262299765588" lon="9.496213909178445"><ele>763.0</ele><time>2026-05-01T08:00:14Z</time></trkpt><trkpt lat="39.70270022782197" lon="9.49638545214363"><ele>763.0</ele><time>2026-05-01T08:00:15Z</time></trkpt><trkpt lat="39.7027343592253" lon="9.496585087146114"><ele>763.0</ele><time>2026-05-01T08:00:16Z</time></trkpt><trkpt lat="39.70273914794511" lon="9.496791280603428"><ele>763.0</ele><time>2026-05-01T08:00:17Z</time></trkpt><trkpt lat="39.70275482572726" lon="9.497001301811864"><ele>763.0</ele><time>2026-05-01T08:00:18Z</time></trkpt><trkpt lat="39.70279295699674" lon="9.497207999014849"><ele>763.0</ele><time>2026-05-01T08:00:19Z</time></trkpt><trkpt lat="39.7028593997989" lon="9.497405875123139"><ele>763.0</ele><time>2026-05-01T08:00:20Z</time></trkpt><trkpt lat="39.70294291891307" lon="9.497598658561875"><ele>763.0</ele><time>2026-05-01T08:00:21Z</time></trkpt><trkpt lat="39.70303080354837" lon="9.497782524161714"><ele>763.6666666666667</ele><time>2026-05-01T08:00:22Z</time></trkpt><trkpt lat="39.70310003565297" lon="9.497961817631076"><ele>764.3333333333334</ele><time>2026-05-01T08:00:23Z</time></trkpt><trkpt lat="39.7031366191963" lon="9.498147214324248"><ele>765.0</ele><time>2026-05-01T08:00:24Z</time></trkpt><trkpt lat="39.70313168287432" lon="9.498339656088358"><ele>765.0</ele><time>2026-05-01T08:00:25Z</time></trkpt><trkpt lat="39.70307749115579" lon="9.49851860590786"><ele>765.0</ele><time>2026-05-01T08:00:26Z</time></trkpt><trkpt lat="39.702980087997055" lon="9.498668952425561"><ele>765.0</ele><time>2026-05-01T08:00:27Z</time></trkpt><trkpt lat="39.70283233529015" lon="9.498771461980345"><ele>766.3333333333333</ele><time>2026-05-01T08:00:28Z</time></trkpt><trkpt lat="39.70265714228676" lon="9.498802659410648"><ele>767.6666666666666</ele><time>2026-05-01T08:00:29Z</time></trkpt><trkpt lat="39.702483013193486" lon="9.498844817584935"><ele>769.0</ele><time>2026-05-01T08:00:30Z</time></trkpt><trkpt lat="39.70230845328213" lon="9.498904065325037"><ele>769.0</ele><time>2026-05-01T08:00:31Z</time></trkpt><trkpt lat="39.702135236334065" lon="9.498956019265469"><ele>769.0</ele><time>2026-05-01T08:00:32Z</time></trkpt><trkpt lat="39.7019705977958" lon="9.49904501573452"><ele>769.0</ele><time>2026-05-01T08:00:33Z</time></trkpt><trkpt lat="39.70181200190897" lon="9.49915859843646"><ele>766.0</ele><time>2026-05-01T08:00:34Z</time></trkpt><trkpt lat="39.70165721548874" lon="9.499281235034738"><ele>763.0</ele><time>2026-05-01T08:00:35Z</time></trkpt><trkpt lat="39.701508862634554" lon="9.499396001977058"><ele>760.0</ele><time>2026-05-01T08:00:36Z</time></trkpt><trkpt lat="39.70136981469678" lon="9.499504524556835"><ele>764.0</ele><time>2026-05-01T08:00:37Z</time></trkpt><trkpt lat="39.70125608454527" lon="9.499638361086394"><ele>768.0</ele><time>2026-05-01T08:00:38Z</time></trkpt><trkpt lat="39.7011749151095" lon="9.499813829296587"><ele>772.0</ele><time>2026-05-01T08:00:39Z</time></trkpt><trkpt lat="39.70113642540975" lon="9.50002120122936"><ele>772.0</ele><time>2026-05-01T08:00:40Z</time></trkpt><trkpt lat="39.70114728856669" lon="9.500235865675021"><ele>772.0</ele><time>2026-05-01T08:00:41Z</time></trkpt><trkpt lat="39.701205065365514" lon="9.500431408310032"><ele>772.0</ele><time>2026-05-01T08:00:42Z</time></trkpt><trkpt lat="39.70130880298423" lon="9.500600332808453"><ele>770.0</ele><time>2026-05-01T08:00:43Z</time></trkpt><trkpt lat="39.70144905182066" lon="9.500726052718413"><ele>768.0</ele><time>2026-05-01T08:00:44Z</time></trkpt><trkpt lat="39.701607223199105" lon="9.500788042818956"><ele>766.0</ele><time>2026-05-01T08:00:45Z</time></trkpt><trkpt lat="39.70178387471709" lon="9.500790323955952"><ele>769.0</ele><time>2026-05-01T08:00:46Z</time></trkpt><trkpt lat="39.70196387694577" lon="9.500788509751892"><ele>772.0</ele><time>2026-05-01T08:00:47Z</time></trkpt><trkpt lat="39.70214133319268" lon="9.500794975885666"><ele>775.0</ele><time>2026-05-01T08:00:48Z</time></trkpt><trkpt lat="39.70231959728651" lon="9.50080827019056"><ele>775.0</ele><time>2026-05-01T08:00:49Z</time></trkpt><trkpt lat="39.70249846466095" lon="9.500824264406328"><ele>775.0</ele><time>2026-05-01T08:00:50Z</time></trkpt><trkpt lat="39.7026770606356" lon="9.500843835803641"><ele>775.0</ele><time>2026-05-01T08:00:51Z</time></trkpt><trkpt lat="39.70285632615107" lon="9.500876411569104"><ele>776.6666666666666</ele><time>2026-05-01T08:00:52Z</time></trkpt><trkpt lat="39.70303012892923" lon="9.500932160918365"><ele>778.3333333333333</ele><time>2026-05-01T08:00:53Z</time></trkpt><trkpt lat="39.703205657837565" lon="9.50100010348958"><ele>780.0</ele><time>2026-05-01T08:00:54Z</time></trkpt><trkpt lat="39.70338078951659" lon="9.501062619903887"><ele>780.0</ele><time>2026-05-01T08:00:55Z</time></trkpt><trkpt lat="39.703551925711146" lon="9.501125900421506"><ele>780.0</ele><time>2026-05-01T08:00:56Z</time></trkpt><trkpt lat="39.703717091659" lon="9.50120109046307"><ele>780.0</ele><time>2026-05-01T08:00:57Z</time></trkpt><trkpt lat="39.703879227375786" lon="9.50130821232628"><ele>780.6666666666667</ele><time>2026-05-01T08:00:58Z</time></trkpt><trkpt lat="39.704010352066355" lon="9.501465695431609"><ele>781.3333333333334</ele><time>2026-05-01T08:00:59Z</time></trkpt><trkpt lat="39.70411782832387" lon="9.501656798855587"><ele>782.0</ele><time>2026-05-01T08:01:00Z</time></trkpt><trkpt lat="39.70421714555544" lon="9.50186079990054"><ele>782.0</ele><time>2026-05-01T08:01:01Z</time></trkpt><trkpt lat="39.70432041221938" lon="9.502055076147256"><ele>782.0</ele><time>2026-05-01T08:01:02Z</time></trkpt><trkpt lat="39.70442603990134" lon="9.502250553380872"><ele>782.0</ele><time>2026-05-01T08:01:03Z</time></trkpt><trkpt lat="39.704533164381594" lon="9.502444944201278"><ele>782.3333333333334</ele><time>2026-05-01T08:01:04Z</time></trkpt><trkpt lat="39.704639090111876" lon="9.502634176747762"><ele>782.6666666666667</ele><time>2026-05-01T08:01:05Z</time></trkpt><trkpt lat="39.7047433529454" lon="9.502827435579782"><ele>783.0</ele><time>2026-05-01T08:01:06Z</time></trkpt><trkpt lat="39.704847950159674" lon="9.503027390901917"><ele>784.3333333333333</ele><time>2026-05-01T08:01:07Z</time></trkpt><trkpt lat="39.70495220426106" lon="9.50322846158822"><ele>785.6666666666666</ele><time>2026-05-01T08:01:08Z</time></trkpt><trkpt lat="39.70505896477439" lon="9.503428171900774"><ele>787.0</ele><time>2026-05-01T08:01:09Z</time></trkpt><trkpt lat="39.70516609327726" lon="9.503627979195395"><ele>784.3333333333333</ele><time>2026-05-01T08:01:10Z</time></trkpt><trkpt lat="39.70527548951182" lon="9.503832483045937"><ele>781.6666666666667</ele><time>2026-05-01T08:01:11Z</time></trkpt><trkpt lat="39.70538404755153" lon="9.50403749746298"><ele>779.0</ele><time>2026-05-01T08:01:12Z</time></trkpt><trkpt lat="39.705493968305994" lon="9.504240767757135"><ele>779.0</ele><time>2026-05-01T08:01:13Z</time></trkpt><trkpt lat="39.70560572927846" lon="9.504442153997696"><ele>779.0</ele><time>2026-05-01T08:01:14Z</time></trkpt><trkpt lat="39.70571857003568" lon="9.504652767615623"><ele>779.0</ele><time>2026-05-01T08:01:15Z</time></trkpt><trkpt lat="39.70582969711761" lon="9.504868897009755"><ele>779.3333333333334</ele><time>2026-05-01T08:01:16Z</time></trkpt><trkpt lat="39.70594536621579" lon="9.505087435602189"><ele>779.6666666666667</ele><time>2026-05-01T08:01:17Z</time></trkpt><trkpt lat="39.7060652480711" lon="9.505304949441312"><ele>780.0</ele><time>2026-05-01T08:01:18Z</time></trkpt><trkpt lat="39.706181044485916" lon="9.505518095727984"><ele>780.0</ele><time>2026-05-01T08:01:19Z</time></trkpt><trkpt lat="39.70628978913049" lon="9.505730006853655"><ele>780.0</ele><time>2026-05-01T08:01:20Z</time></trkpt><trkpt lat="39.70639572706908" lon="9.505935222493578"><ele>780.0</ele><time>2026-05-01T08:01:21Z</time></trkpt><trkpt lat="39.70650931297564" lon="9.506107946531081"><ele>780.0</ele><time>2026-05-01T08:01:22Z</time></trkpt><trkpt lat="39.70664496643501" lon="9.506240327263695"><ele>780.0</ele><time>2026-05-01T08:01:23Z</time></trkpt><trkpt lat="39.70679557615024" lon="9.506325075795264"><ele>780.0</ele><time>2026-05-01T08:01:24Z</time></trkpt><trkpt lat="39.70696335420907" lon="9.506349616523531"><ele>785.3333333333333</ele><time>2026-05-01T08:01:25Z</time></trkpt><trkpt lat="39.70714713212889" lon="9.506332482501273"><ele>790.6666666666666</ele><time>2026-05-01T08:01:26Z</time></trkpt><trkpt lat="39.70734080930696" lon="9.50630128782603"><ele>796.0</ele><time>2026-05-01T08:01:27Z</time></trkpt><trkpt lat="39.707542778963365" lon="9.506273050740901"><ele>798.3333333333333</ele><time>2026-05-01T08:01:28Z</time></trkpt><trkpt lat="39.70775238627228" lon="9.506250433178616"><ele>800.6666666666667</ele><time>2026-05-01T08:01:29Z</time></trkpt><trkpt lat="39.70796508088871" lon="9.506224227048437"><ele>803.0</ele><time>2026-05-01T08:01:30Z</time></trkpt><trkpt lat="39.70816699281721" lon="9.506212662242833"><ele>803.0</ele><time>2026-05-01T08:01:31Z</time></trkpt><trkpt lat="39.708361404771125" lon="9.506241829367672"><ele>803.0</ele><time>2026-05-01T08:01:32Z</time></trkpt><trkpt lat="39.7085499817466" lon="9.506308920058173"><ele>803.0</ele><time>2026-05-01T08:01:33Z</time></trkpt><trkpt lat="39.70873123186761" lon="9.506416906867432"><ele>800.3333333333334</ele><time>2026-05-01T08:01:34Z</time></trkpt><trkpt lat="39.70889399416065" lon="9.506566599404211"><ele>797.6666666666667</ele><time>2026-05-01T08:01:35Z</time></trkpt><trkpt lat="39.7090454525677" lon="9.506742817271666"><ele>795.0</ele><time>2026-05-01T08:01:36Z</time></trkpt><trkpt lat="39.70920227504098" lon="9.506921396555551"><ele>797.3333333333333</ele><time>2026-05-01T08:01:37Z</time></trkpt><trkpt lat="39.70935602233548" lon="9.507086071863014"><ele>799.6666666666666</ele><time>2026-05-01T08:01:38Z</time></trkpt><trkpt lat="39.709515443061576" lon="9.507237923104391"><ele>802.0</ele><time>2026-05-01T08:01:39Z</time></trkpt><trkpt lat="39.70968725461997" lon="9.50736017102473"><ele>802.0</ele><time>2026-05-01T08:01:40Z</time></trkpt><trkpt lat="39.70987751986911" lon="9.50745269575262"><ele>802.0</ele><time>2026-05-01T08:01:41Z</time></trkpt><trkpt lat="39.71007288608628" lon="9.50750187455228"><ele>802.0</ele><time>2026-05-01T08:01:42Z</time></trkpt><trkpt lat="39.71026807434829" lon="9.507500641156296"><ele>802.0</ele><time>2026-05-01T08:01:43Z</time></trkpt><trkpt lat="39.710458357488285" lon="9.507450525002906"><ele>802.0</ele><time>2026-05-01T08:01:44Z</time></trkpt><trkpt lat="39.71064500180569" lon="9.507370248165167"><ele>802.0</ele><time>2026-05-01T08:01:45Z</time></trkpt><trkpt lat="39.710833533200656" lon="9.507278278024001"><ele>802.0</ele><time>2026-05-01T08:01:46Z</time></trkpt><trkpt lat="39.711023447835146" lon="9.507181345843629"><ele>802.0</ele><time>2026-05-01T08:01:47Z</time></trkpt><trkpt lat="39.71121818597991" lon="9.507081814280095"><ele>802.0</ele><time>2026-05-01T08:01:48Z</time></trkpt><trkpt lat="39.711418871411034" lon="9.506985865983953"><ele>801.6666666666666</ele><time>2026-05-01T08:01:49Z</time></trkpt><trkpt lat="39.711614554970225" lon="9.506895707322897"><ele>801.3333333333333</ele><time>2026-05-01T08:01:50Z</time></trkpt><trkpt lat="39.71182411610306" lon="9.506800196894577"><ele>801.0</ele><time>2026-05-01T08:01:51Z</time></trkpt><trkpt lat="39.7120371426095" lon="9.506700817249511"><ele>801.6666666666667</ele><time>2026-05-01T08:01:52Z</time></trkpt><trkpt lat="39.71224805327866" lon="9.506599592703015"><ele>802.3333333333334</ele><time>2026-05-01T08:01:53Z</time></trkpt><trkpt lat="39.712457369213745" lon="9.506498813361251"><ele>803.0</ele><time>2026-05-01T08:01:54Z</time></trkpt><trkpt lat="39.71266344966787" lon="9.506399933815038"><ele>805.0</ele><time>2026-05-01T08:01:55Z</time></trkpt><trkpt lat="39.71286763194218" lon="9.506301674890308"><ele>807.0</ele><time>2026-05-01T08:01:56Z</time></trkpt><trkpt lat="39.71307319621773" lon="9.506200893410654"><ele>809.0</ele><time>2026-05-01T08:01:57Z</time></trkpt><trkpt lat="39.71327537807867" lon="9.506103573057024"><ele>809.0</ele><time>2026-05-01T08:01:58Z</time></trkpt><trkpt lat="39.7134835566351" lon="9.506005320357186"><ele>809.0</ele><time>2026-05-01T08:01:59Z</time></trkpt><trkpt lat="39.71368736589847" lon="9.505907978025851"><ele>809.0</ele><time>2026-05-01T08:02:00Z</time></trkpt><trkpt lat="39.713892006769406" lon="9.505809614142045"><ele>810.0</ele><time>2026-05-01T08:02:01Z</time></trkpt><trkpt lat="39.714095976109206" lon="9.505712410493135"><ele>811.0</ele><time>2026-05-01T08:02:02Z</time></trkpt><trkpt lat="39.714299030111285" lon="9.505615516528193"><ele>812.0</ele><time>2026-05-01T08:02:03Z</time></trkpt><trkpt lat="39.71450327534481" lon="9.505516622051378"><ele>812.0</ele><time>2026-05-01T08:02:04Z</time></trkpt><trkpt lat="39.71470466976422" lon="9.505417796360392"><ele>812.0</ele><time>2026-05-01T08:02:05Z</time></trkpt><trkpt lat="39.7149066811486" lon="9.505317828051878"><ele>812.0</ele><time>2026-05-01T08:02:06Z</time></trkpt><trkpt lat="39.7151056547993" lon="9.505217420071816"><ele>814.0</ele><time>2026-05-01T08:02:07Z</time></trkpt><trkpt lat="39.7153000386708" lon="9.505101975689367"><ele>816.0</ele><time>2026-05-01T08:02:08Z</time></trkpt><trkpt lat="39.71548753601607" lon="9.504961835507634"><ele>818.0</ele><time>2026-05-01T08:02:09Z</time></trkpt><trkpt lat="39.71566663362629" lon="9.50479993094111"><ele>818.0</ele><time>2026-05-01T08:02:10Z</time></trkpt><trkpt lat="39.71584082050705" lon="9.504627091717317"><ele>818.0</ele><time>2026-05-01T08:02:11Z</time></trkpt><trkpt lat="39.71602575772113" lon="9.504470090621947"><ele>818.0</ele><time>2026-05-01T08:02:12Z</time></trkpt><trkpt lat="39.71620493984616" lon="9.504300448489962"><ele>819.0</ele><time>2026-05-01T08:02:13Z</time></trkpt><trkpt lat="39.716360481664594" lon="9.504090380633235"><ele>820.0</ele><time>2026-05-01T08:02:14Z</time></trkpt><trkpt lat="39.71653639972534" lon="9.503911649324994"><ele>821.0</ele><time>2026-05-01T08:02:15Z</time></trkpt><trkpt lat="39.71671141732253" lon="9.503736195655224"><ele>822.3333333333334</ele><time>2026-05-01T08:02:16Z</time></trkpt><trkpt lat="39.7168812736538" lon="9.503560068829332"><ele>823.6666666666667</ele><time>2026-05-01T08:02:17Z</time></trkpt><trkpt lat="39.71704725154285" lon="9.503387456094062"><ele>825.0</ele><time>2026-05-01T08:02:18Z</time></trkpt><trkpt lat="39.71721309893564" lon="9.503215594001695"><ele>825.0</ele><time>2026-05-01T08:02:19Z</time></trkpt><trkpt lat="39.717377841884186" lon="9.503045730551296"><ele>825.0</ele><time>2026-05-01T08:02:20Z</time></trkpt><trkpt lat="39.71754014203839" lon="9.502877945305086"><ele>825.0</ele><time>2026-05-01T08:02:21Z</time></trkpt><trkpt lat="39.7177018561788" lon="9.50271173691122"><ele>827.0</ele><time>2026-05-01T08:02:22Z</time></trkpt><trkpt lat="39.717864097962604" lon="9.502545594936727"><ele>829.0</ele><time>2026-05-01T08:02:23Z</time></trkpt><trkpt lat="39.718027869168196" lon="9.502377184949603"><ele>831.0</ele><time>2026-05-01T08:02:24Z</time></trkpt><trkpt lat="39.71819050490674" lon="9.50220851629142"><ele>832.6666666666667</ele><time>2026-05-01T08:02:25Z</time></trkpt><trkpt lat="39.718354026942016" lon="9.502042345388528"><ele>834.3333333333334</ele><time>2026-05-01T08:02:26Z</time></trkpt><trkpt lat="39.71851764690256" lon="9.501872999971589"><ele>836.0</ele><time>2026-05-01T08:02:27Z</time></trkpt><trkpt lat="39.71867954327523" lon="9.50170723813418"><ele>836.6666666666667</ele><time>2026-05-01T08:02:28Z</time></trkpt><trkpt lat="39.71883946443933" lon="9.501544509907463"><ele>837.3333333333333</ele><time>2026-05-01T08:02:29Z</time></trkpt><trkpt lat="39.71899839114802" lon="9.501384039145066"><ele>838.0</ele><time>2026-05-01T08:02:30Z</time></trkpt><trkpt lat="39.719155358082375" lon="9.501224796209392"><ele>838.0</ele><time>2026-05-01T08:02:31Z</time></trkpt><trkpt lat="39.71930597592673" lon="9.501062887427613"><ele>838.0</ele><time>2026-05-01T08:02:32Z</time></trkpt><trkpt lat="39.719444705236256" lon="9.500888853001726"><ele>838.0</ele><time>2026-05-01T08:02:33Z</time></trkpt><trkpt lat="39.71955130984625" lon="9.500697758753699"><ele>835.0</ele><time>2026-05-01T08:02:34Z</time></trkpt><trkpt lat="39.71963286179742" lon="9.50046393014537"><ele>832.0</ele><time>2026-05-01T08:02:35Z</time></trkpt><trkpt lat="39.71971582696681" lon="9.500230214710841"><ele>829.0</ele><time>2026-05-01T08:02:36Z</time></trkpt><trkpt lat="39.71980676571905" lon="9.49999694338487"><ele>829.0</ele><time>2026-05-01T08:02:37Z</time></trkpt><trkpt lat="39.71989517356354" lon="9.499761193555488"><ele>829.0</ele><time>2026-05-01T08:02:38Z</time></trkpt><trkpt lat="39.719983757085416" lon="9.499518383131514"><ele>829.0</ele><time>2026-05-01T08:02:39Z</time></trkpt><trkpt lat="39.72007136773698" lon="9.499273272471292"><ele>829.3333333333333</ele><time>2026-05-01T08:02:40Z</time></trkpt><trkpt lat="39.720160061458934" lon="9.499029171138517"><ele>829.6666666666667</ele><time>2026-05-01T08:02:41Z</time></trkpt><trkpt lat="39.720250568197365" lon="9.498787545080276"><ele>830.0</ele><time>2026-05-01T08:02:42Z</time></trkpt><trkpt lat="39.72034078869194" lon="9.498543270600114"><ele>831.3333333333334</ele><time>2026-05-01T08:02:43Z</time></trkpt><trkpt lat="39.720431413451976" lon="9.498305478103362"><ele>832.6666666666667</ele><time>2026-05-01T08:02:44Z</time></trkpt><trkpt lat="39.72053739372578" lon="9.49808489270333"><ele>834.0</ele><time>2026-05-01T08:02:45Z</time></trkpt><trkpt lat="39.72067058301256" lon="9.497889029701488"><ele>834.0</ele><time>2026-05-01T08:02:46Z</time></trkpt><trkpt lat="39.72083551078829" lon="9.497722595439104"><ele>834.0</ele><time>2026-05-01T08:02:47Z</time></trkpt><trkpt lat="39.72100598645051" lon="9.497568618461186"><ele>834.0</ele><time>2026-05-01T08:02:48Z</time></trkpt><trkpt lat="39.72118027084397" lon="9.497413789478262"><ele>835.0</ele><time>2026-05-01T08:02:49Z</time></trkpt><trkpt lat="39.72135571668346" lon="9.497251789387358"><ele>836.0</ele><time>2026-05-01T08:02:50Z</time></trkpt><trkpt lat="39.72153245855538" lon="9.497084882365053"><ele>837.0</ele><time>2026-05-01T08:02:51Z</time></trkpt><trkpt lat="39.72171456194557" lon="9.496911812184266"><ele>842.0</ele><time>2026-05-01T08:02:52Z</time></trkpt><trkpt lat="39.72190630821227" lon="9.496738100648733"><ele>847.0</ele><time>2026-05-01T08:02:53Z</time></trkpt><trkpt lat="39.72210146541779" lon="9.496562963221619"><ele>847.0</ele><time>2026-05-01T08:02:54Z</time></trkpt><trkpt lat="39.72229215681221" lon="9.496387686488603"><ele>847.0</ele><time>2026-05-01T08:02:55Z</time></trkpt><trkpt lat="39.722474167979435" lon="9.496215058106193"><ele>847.0</ele><time>2026-05-01T08:02:56Z</time></trkpt><trkpt lat="39.72265005382177" lon="9.496048988619055"><ele>847.0</ele><time>2026-05-01T08:02:57Z</time></trkpt><trkpt lat="39.72282339277066" lon="9.49588638411956"><ele>847.0</ele><time>2026-05-01T08:02:58Z</time></trkpt><trkpt lat="39.72298819249559" lon="9.495735988347397"><ele>847.0</ele><time>2026-05-01T08:02:59Z</time></trkpt><trkpt lat="39.72315058094675" lon="9.495609179243989"><ele>847.0</ele><time>2026-05-01T08:03:00Z</time></trkpt><trkpt lat="39.72332137285354" lon="9.495513773565614"><ele>847.0</ele><time>2026-05-01T08:03:01Z</time></trkpt><trkpt lat="39.72349908367425" lon="9.49546215196188"><ele>846.3333333333333</ele><time>2026-05-01T08:03:02Z</time></trkpt><trkpt lat="39.72368027496833" lon="9.4954460151531"><ele>845.6666666666667</ele><time>2026-05-01T08:03:03Z</time></trkpt><trkpt lat="39.72385946261198" lon="9.495467755729246"><ele>845.0</ele><time>2026-05-01T08:03:04Z</time></trkpt><trkpt lat="39.7240365127605" lon="9.495538917324996"><ele>845.0</ele><time>2026-05-01T08:03:05Z</time></trkpt><trkpt lat="39.72420980234341" lon="9.495641988421378"><ele>845.0</ele><time>2026-05-01T08:03:06Z</time></trkpt><trkpt lat="39.72436671728711" lon="9.49578729338249"><ele>845.0</ele><time>2026-05-01T08:03:07Z</time></trkpt><trkpt lat="39.724510349257955" lon="9.49596434270508"><ele>843.6666666666667</ele><time>2026-05-01T08:03:08Z</time></trkpt><trkpt lat="39.72465131095201" lon="9.496156416979654"><ele>842.3333333333333</ele><time>2026-05-01T08:03:09Z</time></trkpt><trkpt lat="39.724801208056995" lon="9.496344880127658"><ele>841.0</ele><time>2026-05-01T08:03:10Z</time></trkpt><trkpt lat="39.72495703592592" lon="9.496540655642368"><ele>841.0</ele><time>2026-05-01T08:03:11Z</time></trkpt><trkpt lat="39.7251087044683" lon="9.496733961917514"><ele>841.0</ele><time>2026-05-01T08:03:12Z</time></trkpt><trkpt lat="39.725255372824115" lon="9.49692242676552"><ele>841.0</ele><time>2026-05-01T08:03:13Z</time></trkpt><trkpt lat="39.72539929294298" lon="9.497097966740379"><ele>840.3333333333333</ele><time>2026-05-01T08:03:14Z</time></trkpt><trkpt lat="39.72555313509921" lon="9.49725238999422"><ele>839.6666666666667</ele><time>2026-05-01T08:03:15Z</time></trkpt><trkpt lat="39.725734824065455" lon="9.497360681842538"><ele>839.0</ele><time>2026-05-01T08:03:16Z</time></trkpt><trkpt lat="39.72593755581158" lon="9.497427830587956"><ele>839.0</ele><time>2026-05-01T08:03:17Z</time></trkpt><trkpt lat="39.72615071451302" lon="9.497470958953485"><ele>839.0</ele><time>2026-05-01T08:03:18Z</time></trkpt><trkpt lat="39.726366457124" lon="9.497511361502289"><ele>839.0</ele><time>2026-05-01T08:03:19Z</time></trkpt><trkpt lat="39.726582131609156" lon="9.497558525342363"><ele>839.0</ele><time>2026-05-01T08:03:20Z</time></trkpt><trkpt lat="39.72679620431335" lon="9.497603944242432"><ele>839.0</ele><time>2026-05-01T08:03:21Z</time></trkpt><trkpt lat="39.72700846380025" lon="9.49764541569413"><ele>839.0</ele><time>2026-05-01T08:03:22Z</time></trkpt><trkpt lat="39.72720869020103" lon="9.497687486793831"><ele>838.6666666666667</ele><time>2026-05-01T08:03:23Z</time></trkpt><trkpt lat="39.727393080875" lon="9.497764760069947"><ele>838.3333333333333</ele><time>2026-05-01T08:03:24Z</time></trkpt><trkpt lat="39.72754019664979" lon="9.497893145727586"><ele>838.0</ele><time>2026-05-01T08:03:25Z</time></trkpt><trkpt lat="39.727649872227076" lon="9.498069436971962"><ele>837.6666666666666</ele><time>2026-05-01T08:03:26Z</time></trkpt><trkpt lat="39.72772652939858" lon="9.498293494819928"><ele>837.3333333333333</ele><time>2026-05-01T08:03:27Z</time></trkpt><trkpt lat="39.72776972992686" lon="9.498554762142328"><ele>837.0</ele><time>2026-05-01T08:03:28Z</time></trkpt><trkpt lat="39.727802980395836" lon="9.498830871303666"><ele>836.3333333333333</ele><time>2026-05-01T08:03:29Z</time></trkpt><trkpt lat="39.72784091984189" lon="9.49910783765633"><ele>835.6666666666666</ele><time>2026-05-01T08:03:30Z</time></trkpt><trkpt lat="39.72788055147405" lon="9.499381275135804"><ele>835.0</ele><time>2026-05-01T08:03:31Z</time></trkpt><trkpt lat="39.727921521054824" lon="9.499655898451083"><ele>834.0</ele><time>2026-05-01T08:03:32Z</time></trkpt><trkpt lat="39.72795792999054" lon="9.49993262103195"><ele>833.0</ele><time>2026-05-01T08:03:33Z</time></trkpt><trkpt lat="39.72799131297328" lon="9.500208543859232"><ele>832.0</ele><time>2026-05-01T08:03:34Z</time></trkpt><trkpt lat="39.72802588145419" lon="9.500480031840429"><ele>831.0</ele><time>2026-05-01T08:03:35Z</time></trkpt><trkpt lat="39.728064624455705" lon="9.50069513754116"><ele>830.0</ele><time>2026-05-01T08:03:36Z</time></trkpt><trkpt lat="39.72810935160461" lon="9.500927488515547"><ele>829.0</ele><time>2026-05-01T08:03:37Z</time></trkpt><trkpt lat="39.72818848243469" lon="9.501132880737346"><ele>826.6666666666666</ele><time>2026-05-01T08:03:38Z</time></trkpt><trkpt lat="39.728312106055256" lon="9.501295869904922"><ele>824.3333333333333</ele><time>2026-05-01T08:03:39Z</time></trkpt><trkpt lat="39.72846233270187" lon="9.501397641612991"><ele>822.0</ele><time>2026-05-01T08:03:40Z</time></trkpt><trkpt lat="39.72863608506762" lon="9.501446354149223"><ele>820.0</ele><time>2026-05-01T08:03:41Z</time></trkpt><trkpt lat="39.7288115221462" lon="9.501439893917771"><ele>818.0</ele><time>2026-05-01T08:03:42Z</time></trkpt><trkpt lat="39.728999440695404" lon="9.5013731562057"><ele>816.0</ele><time>2026-05-01T08:03:43Z</time></trkpt><trkpt lat="39.72918912845582" lon="9.501338927057871"><ele>816.0</ele><time>2026-05-01T08:03:44Z</time></trkpt><trkpt lat="39.72938783962427" lon="9.501293319025915"><ele>816.0</ele><time>2026-05-01T08:03:45Z</time></trkpt><trkpt lat="39.729584869074685" lon="9.501251407401721"><ele>816.0</ele><time>2026-05-01T08:03:46Z</time></trkpt><trkpt lat="39.72977873723718" lon="9.501209889312436"><ele>816.0</ele><time>2026-05-01T08:03:47Z</time></trkpt><trkpt lat="39.72996888843082" lon="9.50118702848078"><ele>816.0</ele><time>2026-05-01T08:03:48Z</time></trkpt><trkpt lat="39.730159606441795" lon="9.50120129479953"><ele>816.0</ele><time>2026-05-01T08:03:49Z</time></trkpt><trkpt lat="39.73035544772354" lon="9.501249165359221"><ele>816.0</ele><time>2026-05-01T08:03:50Z</time></trkpt><trkpt lat="39.73054693314938" lon="9.501333547149507"><ele>816.0</ele><time>2026-05-01T08:03:51Z</time></trkpt><trkpt lat="39.730737594655665" lon="9.501432608805436"><ele>816.0</ele><time>2026-05-01T08:03:52Z</time></trkpt><trkpt lat="39.73092472771621" lon="9.501533948452652"><ele>817.3333333333333</ele><time>2026-05-01T08:03:53Z</time></trkpt><trkpt lat="39.73111038683696" lon="9.501635932394976"><ele>818.6666666666666</ele><time>2026-05-01T08:03:54Z</time></trkpt><trkpt lat="39.731292703424714" lon="9.501740682496697"><ele>820.0</ele><time>2026-05-01T08:03:55Z</time></trkpt><trkpt lat="39.731468437329994" lon="9.501859049225237"><ele>820.0</ele><time>2026-05-01T08:03:56Z</time></trkpt><trkpt lat="39.73163828745741" lon="9.502001065512067"><ele>820.0</ele><time>2026-05-01T08:03:57Z</time></trkpt><trkpt lat="39.73179789992906" lon="9.502161947229071"><ele>820.0</ele><time>2026-05-01T08:03:58Z</time></trkpt><trkpt lat="39.73194379717788" lon="9.502346505151884"><ele>819.0</ele><time>2026-05-01T08:03:59Z</time></trkpt><trkpt lat="39.7320751143125" lon="9.50254980667057"><ele>818.0</ele><time>2026-05-01T08:04:00Z</time></trkpt><trkpt lat="39.73220221786876" lon="9.502756113470653"><ele>817.0</ele><time>2026-05-01T08:04:01Z</time></trkpt><trkpt lat="39.73233098220853" lon="9.5029525316581"><ele>817.0</ele><time>2026-05-01T08:04:02Z</time></trkpt><trkpt lat="39.73245464798379" lon="9.503139721318885"><ele>817.0</ele><time>2026-05-01T08:04:03Z</time></trkpt><trkpt lat="39.73258339226815" lon="9.503299618897232"><ele>817.0</ele><time>2026-05-01T08:04:04Z</time></trkpt><trkpt lat="39.732737237405914" lon="9.503409190042062"><ele>818.0</ele><time>2026-05-01T08:04:05Z</time></trkpt><trkpt lat="39.73290356470034" lon="9.50347037366453"><ele>819.0</ele><time>2026-05-01T08:04:06Z</time></trkpt><trkpt lat="39.73307905697067" lon="9.503483603618108"><ele>820.0</ele><time>2026-05-01T08:04:07Z</time></trkpt><trkpt lat="39.73325498524722" lon="9.503435733196518"><ele>820.0</ele><time>2026-05-01T08:04:08Z</time></trkpt><trkpt lat="39.73342356484378" lon="9.503333266624624"><ele>820.0</ele><time>2026-05-01T08:04:09Z</time></trkpt><trkpt lat="39.733578619036244" lon="9.503182392830448"><ele>820.0</ele><time>2026-05-01T08:04:10Z</time></trkpt><trkpt lat="39.7337308538133" lon="9.50302378353894"><ele>821.0</ele><time>2026-05-01T08:04:11Z</time></trkpt><trkpt lat="39.73388855187033" lon="9.5028603774955"><ele>822.0</ele><time>2026-05-01T08:04:12Z</time></trkpt><trkpt lat="39.73404914985762" lon="9.502702543013305"><ele>823.0</ele><time>2026-05-01T08:04:13Z</time></trkpt><trkpt lat="39.73419762522097" lon="9.502545717583384"><ele>823.0</ele><time>2026-05-01T08:04:14Z</time></trkpt><trkpt lat="39.73435723255735" lon="9.502384703769003"><ele>823.0</ele><time>2026-05-01T08:04:15Z</time></trkpt><trkpt lat="39.734515551148334" lon="9.502223245808183"><ele>823.0</ele><time>2026-05-01T08:04:16Z</time></trkpt><trkpt lat="39.73467472046498" lon="9.50205894405027"><ele>824.3333333333333</ele><time>2026-05-01T08:04:17Z</time></trkpt><trkpt lat="39.7348367161307" lon="9.50189195258392"><ele>825.6666666666667</ele><time>2026-05-01T08:04:18Z</time></trkpt><trkpt lat="39.734998713140314" lon="9.50172965533984"><ele>827.0</ele><time>2026-05-01T08:04:19Z</time></trkpt><trkpt lat="39.73516368130755" lon="9.501570520785224"><ele>827.6666666666667</ele><time>2026-05-01T08:04:20Z</time></trkpt><trkpt lat="39.73532869354855" lon="9.501402849370205"><ele>828.3333333333333</ele><time>2026-05-01T08:04:21Z</time></trkpt><trkpt lat="39.73549270867112" lon="9.501227781291965"><ele>829.0</ele><time>2026-05-01T08:04:22Z</time></trkpt><trkpt lat="39.73565763769177" lon="9.501054748736491"><ele>829.0</ele><time>2026-05-01T08:04:23Z</time></trkpt><trkpt lat="39.73582223527048" lon="9.500889220414196"><ele>829.0</ele><time>2026-05-01T08:04:24Z</time></trkpt><trkpt lat="39.73597945131867" lon="9.500731074981704"><ele>829.0</ele><time>2026-05-01T08:04:25Z</time></trkpt><trkpt lat="39.73613248302472" lon="9.500584042299998"><ele>830.0</ele><time>2026-05-01T08:04:26Z</time></trkpt><trkpt lat="39.736293128316866" lon="9.500486517726412"><ele>831.0</ele><time>2026-05-01T08:04:27Z</time></trkpt><trkpt lat="39.73646828887543" lon="9.500451712220732"><ele>832.0</ele><time>2026-05-01T08:04:28Z</time></trkpt><trkpt lat="39.73663771568823" lon="9.50048781308146"><ele>832.0</ele><time>2026-05-01T08:04:29Z</time></trkpt><trkpt lat="39.73680175359722" lon="9.500588393152785"><ele>832.0</ele><time>2026-05-01T08:04:30Z</time></trkpt><trkpt lat="39.7369498058622" lon="9.50073643938044"><ele>832.0</ele><time>2026-05-01T08:04:31Z</time></trkpt><trkpt lat="39.7370897511601" lon="9.500920635406949"><ele>831.0</ele><time>2026-05-01T08:04:32Z</time></trkpt><trkpt lat="39.73723025615464" lon="9.501083634629172"><ele>830.0</ele><time>2026-05-01T08:04:33Z</time></trkpt><trkpt lat="39.737374722721846" lon="9.501223416354518"><ele>829.0</ele><time>2026-05-01T08:04:34Z</time></trkpt><trkpt lat="39.73752163197409" lon="9.501322537998487"><ele>829.0</ele><time>2026-05-01T08:04:35Z</time></trkpt><trkpt lat="39.73767880063421" lon="9.501360162852302"><ele>829.0</ele><time>2026-05-01T08:04:36Z</time></trkpt><trkpt lat="39.7378378774193" lon="9.501329251633848"><ele>829.0</ele><time>2026-05-01T08:04:37Z</time></trkpt><trkpt lat="39.73798728472516" lon="9.50123653717327"><ele>832.0</ele><time>2026-05-01T08:04:38Z</time></trkpt><trkpt lat="39.738116712729365" lon="9.501074736344815"><ele>835.0</ele><time>2026-05-01T08:04:39Z</time></trkpt><trkpt lat="39.73821154704286" lon="9.500895028719125"><ele>838.0</ele><time>2026-05-01T08:04:40Z</time></trkpt><trkpt lat="39.73827823758594" lon="9.500672515413825"><ele>838.0</ele><time>2026-05-01T08:04:41Z</time></trkpt><trkpt lat="39.73834638795342" lon="9.500452162024125"><ele>838.0</ele><time>2026-05-01T08:04:42Z</time></trkpt><trkpt lat="39.73843222644966" lon="9.50024525974797"><ele>838.0</ele><time>2026-05-01T08:04:43Z</time></trkpt><trkpt lat="39.73854793580163" lon="9.500072100334558"><ele>837.6666666666666</ele><time>2026-05-01T08:04:44Z</time></trkpt><trkpt lat="39.73869673775879" lon="9.499964728266294"><ele>837.3333333333333</ele><time>2026-05-01T08:04:45Z</time></trkpt><trkpt lat="39.7388652519739" lon="9.499914323648117"><ele>837.0</ele><time>2026-05-01T08:04:46Z</time></trkpt><trkpt lat="39.73904081960448" lon="9.49988496305895"><ele>837.0</ele><time>2026-05-01T08:04:47Z</time></trkpt><trkpt lat="39.73921944731383" lon="9.499834325442702"><ele>837.0</ele><time>2026-05-01T08:04:48Z</time></trkpt><trkpt lat="39.73940861364481" lon="9.499776762508043"><ele>837.0</ele><time>2026-05-01T08:04:49Z</time></trkpt><trkpt lat="39.73959868638104" lon="9.499715590555478"><ele>837.3333333333333</ele><time>2026-05-01T08:04:50Z</time></trkpt><trkpt lat="39.73979473029251" lon="9.499660699857735"><ele>837.6666666666666</ele><time>2026-05-01T08:04:51Z</time></trkpt><trkpt lat="39.73999523746072" lon="9.499609204591279"><ele>838.0</ele><time>2026-05-01T08:04:52Z</time></trkpt><trkpt lat="39.74019413654714" lon="9.49955288241137"><ele>836.6666666666666</ele><time>2026-05-01T08:04:53Z</time></trkpt><trkpt lat="39.740394087816696" lon="9.499491963965244"><ele>835.3333333333333</ele><time>2026-05-01T08:04:54Z</time></trkpt><trkpt lat="39.740595067052055" lon="9.49943300222043"><ele>834.0</ele><time>2026-05-01T08:04:55Z</time></trkpt><trkpt lat="39.74080075705095" lon="9.499372951332836"><ele>834.0</ele><time>2026-05-01T08:04:56Z</time></trkpt><trkpt lat="39.741004633131844" lon="9.499311109702766"><ele>834.0</ele><time>2026-05-01T08:04:57Z</time></trkpt><trkpt lat="39.741210094192226" lon="9.499249461567327"><ele>834.0</ele><time>2026-05-01T08:04:58Z</time></trkpt><trkpt lat="39.74141851528591" lon="9.499187993768272"><ele>834.0</ele><time>2026-05-01T08:04:59Z</time></trkpt><trkpt lat="39.741625096592045" lon="9.499130222792258"><ele>834.0</ele><time>2026-05-01T08:05:00Z</time></trkpt><trkpt lat="39.74183442133629" lon="9.499074084964334"><ele>834.0</ele><time>2026-05-01T08:05:01Z</time></trkpt><trkpt lat="39.74204137352227" lon="9.49901910667946"><ele>833.0</ele><time>2026-05-01T08:05:02Z</time></trkpt><trkpt lat="39.74224529822257" lon="9.498957920721429"><ele>832.0</ele><time>2026-05-01T08:05:03Z</time></trkpt><trkpt lat="39.74244648074322" lon="9.49888721201024"><ele>831.0</ele><time>2026-05-01T08:05:04Z</time></trkpt><trkpt lat="39.742643008237636" lon="9.498796931425712"><ele>830.0</ele><time>2026-05-01T08:05:05Z</time></trkpt><trkpt lat="39.742834279982546" lon="9.498682235393073"><ele>829.0</ele><time>2026-05-01T08:05:06Z</time></trkpt><trkpt lat="39.74302213538349" lon="9.498554863435734"><ele>828.0</ele><time>2026-05-01T08:05:07Z</time></trkpt><trkpt lat="39.74320821496558" lon="9.498408903629294"><ele>828.0</ele><time>2026-05-01T08:05:08Z</time></trkpt><trkpt lat="39.74338756486023" lon="9.498251162684255"><ele>828.0</ele><time>2026-05-01T08:05:09Z</time></trkpt><trkpt lat="39.743563097334764" lon="9.49808853699195"><ele>828.0</ele><time>2026-05-01T08:05:10Z</time></trkpt><trkpt lat="39.74373861603884" lon="9.497926596865263"><ele>828.6666666666667</ele><time>2026-05-01T08:05:11Z</time></trkpt><trkpt lat="39.74391525118825" lon="9.497769770749633"><ele>829.3333333333334</ele><time>2026-05-01T08:05:12Z</time></trkpt><trkpt lat="39.744093101761884" lon="9.497611249096764"><ele>830.0</ele><time>2026-05-01T08:05:13Z</time></trkpt><trkpt lat="39.74426828707624" lon="9.49745123903791"><ele>829.6666666666667</ele><time>2026-05-01T08:05:14Z</time></trkpt><trkpt lat="39.74444649283553" lon="9.497290534418658"><ele>829.3333333333333</ele><time>2026-05-01T08:05:15Z</time></trkpt><trkpt lat="39.74462065166859" lon="9.497133753713138"><ele>829.0</ele><time>2026-05-01T08:05:16Z</time></trkpt><trkpt lat="39.744797082164325" lon="9.496977377360974"><ele>829.3333333333333</ele><time>2026-05-01T08:05:17Z</time></trkpt><trkpt lat="39.744974056675275" lon="9.496823190193334"><ele>829.6666666666667</ele><time>2026-05-01T08:05:18Z</time></trkpt><trkpt lat="39.74515822866561" lon="9.496681829007901"><ele>830.0</ele><time>2026-05-01T08:05:19Z</time></trkpt><trkpt lat="39.7453518685747" lon="9.496568201753368"><ele>830.0</ele><time>2026-05-01T08:05:20Z</time></trkpt><trkpt lat="39.74555072264342" lon="9.496466480724271"><ele>830.0</ele><time>2026-05-01T08:05:21Z</time></trkpt><trkpt lat="39.745750135706785" lon="9.496362413809033"><ele>830.0</ele><time>2026-05-01T08:05:22Z</time></trkpt><trkpt lat="39.74594965705755" lon="9.496256597086878"><ele>832.3333333333334</ele><time>2026-05-01T08:05:23Z</time></trkpt><trkpt lat="39.74614614846313" lon="9.49615089294017"><ele>834.6666666666667</ele><time>2026-05-01T08:05:24Z</time></trkpt><trkpt lat="39.746342651263284" lon="9.49604992935573"><ele>837.0</ele><time>2026-05-01T08:05:25Z</time></trkpt><trkpt lat="39.746539060512895" lon="9.495938907896207"><ele>837.0</ele><time>2026-05-01T08:05:26Z</time></trkpt><trkpt lat="39.746728393689494" lon="9.495811074637153"><ele>837.0</ele><time>2026-05-01T08:05:27Z</time></trkpt><trkpt lat="39.746912869012455" lon="9.495662847517494"><ele>837.0</ele><time>2026-05-01T08:05:28Z</time></trkpt><trkpt lat="39.74709259753887" lon="9.49550027012429"><ele>837.6666666666667</ele><time>2026-05-01T08:05:29Z</time></trkpt><trkpt lat="39.74726644021309" lon="9.495338608728291"><ele>838.3333333333334</ele><time>2026-05-01T08:05:30Z</time></trkpt><trkpt lat="39.74744378288575" lon="9.495177466175992"><ele>839.0</ele><time>2026-05-01T08:05:31Z</time></trkpt><trkpt lat="39.747621880976155" lon="9.495022033434227"><ele>839.6666666666667</ele><time>2026-05-01T08:05:32Z</time></trkpt><trkpt lat="39.74780192927093" lon="9.494865722595149"><ele>840.3333333333333</ele><time>2026-05-01T08:05:33Z</time></trkpt><trkpt lat="39.74799203195226" lon="9.494704330282953"><ele>841.0</ele><time>2026-05-01T08:05:34Z</time></trkpt><trkpt lat="39.74819240627163" lon="9.494552677741144"><ele>841.0</ele><time>2026-05-01T08:05:35Z</time></trkpt><trkpt lat="39.74840326837276" lon="9.494407660698341"><ele>841.0</ele><time>2026-05-01T08:05:36Z</time></trkpt><trkpt lat="39.74861808376045" lon="9.494294768073813"><ele>839.3333333333333</ele><time>2026-05-01T08:05:37Z</time></trkpt><trkpt lat="39.74885104174315" lon="9.49423142185034"><ele>837.6666666666667</ele><time>2026-05-01T08:05:38Z</time></trkpt><trkpt lat="39.74896132724548" lon="9.494208779120855"><ele>836.0</ele><time>2026-05-01T08:05:39Z</time></trkpt><trkpt lat="39.7491717760114" lon="9.49419122655816"><ele>837.6666666666667</ele><time>2026-05-01T08:05:40Z</time></trkpt><trkpt lat="39.74938065009162" lon="9.494202545596915"><ele>839.3333333333333</ele><time>2026-05-01T08:05:41Z</time></trkpt><trkpt lat="39.74959503098279" lon="9.494228531011501"><ele>841.0</ele><time>2026-05-01T08:05:42Z</time></trkpt><trkpt lat="39.74981364714698" lon="9.494245350819021"><ele>841.0</ele><time>2026-05-01T08:05:43Z</time></trkpt><trkpt lat="39.75003108933905" lon="9.494289740487451"><ele>841.0</ele><time>2026-05-01T08:05:44Z</time></trkpt><trkpt lat="39.750253546132676" lon="9.494329662823452"><ele>841.0</ele><time>2026-05-01T08:05:45Z</time></trkpt><trkpt lat="39.7504773166173" lon="9.494370209536575"><ele>840.3333333333333</ele><time>2026-05-01T08:05:46Z</time></trkpt><trkpt lat="39.75070010795783" lon="9.49441452553768"><ele>839.6666666666667</ele><time>2026-05-01T08:05:47Z</time></trkpt><trkpt lat="39.75091858822721" lon="9.494456537624961"><ele>839.0</ele><time>2026-05-01T08:05:48Z</time></trkpt><trkpt lat="39.75114097533372" lon="9.494495191410225"><ele>837.5</ele><time>2026-05-01T08:05:49Z</time></trkpt><trkpt lat="39.75136415555823" lon="9.49453431145494"><ele>836.0</ele><time>2026-05-01T08:05:50Z</time></trkpt><trkpt lat="39.7515877329287" lon="9.494577324693942"><ele>834.5</ele><time>2026-05-01T08:05:51Z</time></trkpt><trkpt lat="39.75181301496853" lon="9.494614090493103"><ele>833.0</ele><time>2026-05-01T08:05:52Z</time></trkpt><trkpt lat="39.752035655816805" lon="9.494650023134946"><ele>835.6666666666667</ele><time>2026-05-01T08:05:53Z</time></trkpt><trkpt lat="39.75225554428275" lon="9.494685229841274"><ele>838.3333333333333</ele><time>2026-05-01T08:05:54Z</time></trkpt><trkpt lat="39.75247357633743" lon="9.494726637760175"><ele>841.0</ele><time>2026-05-01T08:05:55Z</time></trkpt><trkpt lat="39.75269403148427" lon="9.494764078366547"><ele>843.0</ele><time>2026-05-01T08:05:56Z</time></trkpt><trkpt lat="39.75291200172043" lon="9.494804732796384"><ele>845.0</ele><time>2026-05-01T08:05:57Z</time></trkpt><trkpt lat="39.75312716163417" lon="9.494843198445144"><ele>847.0</ele><time>2026-05-01T08:05:58Z</time></trkpt><trkpt lat="39.753341029962705" lon="9.494880625758912"><ele>847.3333333333333</ele><time>2026-05-01T08:05:59Z</time></trkpt><trkpt lat="39.75355255942989" lon="9.49492149657073"><ele>847.6666666666667</ele><time>2026-05-01T08:06:00Z</time></trkpt><trkpt lat="39.75375580887502" lon="9.494960872709516"><ele>848.0</ele><time>2026-05-01T08:06:01Z</time></trkpt><trkpt lat="39.753960598814444" lon="9.495007880767346"><ele>848.0</ele><time>2026-05-01T08:06:02Z</time></trkpt><trkpt lat="39.75416344621313" lon="9.495058162858353"><ele>848.0</ele><time>2026-05-01T08:06:03Z</time></trkpt><trkpt lat="39.75436571730772" lon="9.495107958643928"><ele>848.0</ele><time>2026-05-01T08:06:04Z</time></trkpt><trkpt lat="39.75456700967944" lon="9.495156825917169"><ele>847.6666666666667</ele><time>2026-05-01T08:06:05Z</time></trkpt><trkpt lat="39.754769745740404" lon="9.495207742760144"><ele>847.3333333333333</ele><time>2026-05-01T08:06:06Z</time></trkpt><trkpt lat="39.754971922326334" lon="9.495258926406509"><ele>847.0</ele><time>2026-05-01T08:06:07Z</time></trkpt><trkpt lat="39.75517216951342" lon="9.495308997779691"><ele>847.0</ele><time>2026-05-01T08:06:08Z</time></trkpt><trkpt lat="39.75537121770791" lon="9.49535680793077"><ele>847.0</ele><time>2026-05-01T08:06:09Z</time></trkpt><trkpt lat="39.75556951882716" lon="9.495404584359866"><ele>847.0</ele><time>2026-05-01T08:06:10Z</time></trkpt><trkpt lat="39.755766442734796" lon="9.495452499305403"><ele>847.0</ele><time>2026-05-01T08:06:11Z</time></trkpt><trkpt lat="39.75596101204482" lon="9.495501140253182"><ele>847.0</ele><time>2026-05-01T08:06:12Z</time></trkpt><trkpt lat="39.756149012910974" lon="9.495549968614677"><ele>847.0</ele><time>2026-05-01T08:06:13Z</time></trkpt><trkpt lat="39.75633742486915" lon="9.495600247840828"><ele>847.0</ele><time>2026-05-01T08:06:14Z</time></trkpt><trkpt lat="39.756522449900366" lon="9.495652667867056"><ele>847.0</ele><time>2026-05-01T08:06:15Z</time></trkpt><trkpt lat="39.75670805342673" lon="9.495700930667647"><ele>847.0</ele><time>2026-05-01T08:06:16Z</time></trkpt><trkpt lat="39.75689437975841" lon="9.495710601968433"><ele>843.6666666666666</ele><time>2026-05-01T08:06:17Z</time></trkpt><trkpt lat="39.75708043545044" lon="9.495668298853975"><ele>840.3333333333333</ele><time>2026-05-01T08:06:18Z</time></trkpt><trkpt lat="39.75725824661131" lon="9.495569163429211"><ele>837.0</ele><time>2026-05-01T08:06:19Z</time></trkpt><trkpt lat="39.75742584606328" lon="9.495428992333537"><ele>839.6666666666667</ele><time>2026-05-01T08:06:20Z</time></trkpt><trkpt lat="39.75758030058187" lon="9.495258963299408"><ele>842.3333333333334</ele><time>2026-05-01T08:06:21Z</time></trkpt><trkpt lat="39.75772762182286" lon="9.49507326718217"><ele>845.0</ele><time>2026-05-01T08:06:22Z</time></trkpt><trkpt lat="39.7578771187821" lon="9.494892455038773"><ele>842.6666666666667</ele><time>2026-05-01T08:06:23Z</time></trkpt><trkpt lat="39.7580300823769" lon="9.494727062445362"><ele>840.3333333333333</ele><time>2026-05-01T08:06:24Z</time></trkpt><trkpt lat="39.758178722688314" lon="9.494569990758382"><ele>838.0</ele><time>2026-05-01T08:06:25Z</time></trkpt><trkpt lat="39.758320955123125" lon="9.494415295703158"><ele>838.0</ele><time>2026-05-01T08:06:26Z</time></trkpt><trkpt lat="39.7584541401862" lon="9.494271446256418"><ele>838.0</ele><time>2026-05-01T08:06:27Z</time></trkpt><trkpt lat="39.758593762806704" lon="9.49416552803835"><ele>838.0</ele><time>2026-05-01T08:06:28Z</time></trkpt><trkpt lat="39.758743381880294" lon="9.494124461472317"><ele>836.3333333333333</ele><time>2026-05-01T08:06:29Z</time></trkpt><trkpt lat="39.7588928072398" lon="9.494155759834841"><ele>834.6666666666667</ele><time>2026-05-01T08:06:30Z</time></trkpt><trkpt lat="39.75902175888222" lon="9.494268813274156"><ele>833.0</ele><time>2026-05-01T08:06:31Z</time></trkpt><trkpt lat="39.7591198643009" lon="9.494406411990706"><ele>833.0</ele><time>2026-05-01T08:06:32Z</time></trkpt><trkpt lat="39.75922287645575" lon="9.494562661922417"><ele>833.0</ele><time>2026-05-01T08:06:33Z</time></trkpt><trkpt lat="39.75934411223541" lon="9.49469259947223"><ele>833.0</ele><time>2026-05-01T08:06:34Z</time></trkpt><trkpt lat="39.75948234181409" lon="9.494788848018633"><ele>826.3333333333334</ele><time>2026-05-01T08:06:35Z</time></trkpt><trkpt lat="39.75963902072046" lon="9.49484367803546"><ele>819.6666666666667</ele><time>2026-05-01T08:06:36Z</time></trkpt><trkpt lat="39.75979877678803" lon="9.494834703484846"><ele>813.0</ele><time>2026-05-01T08:06:37Z</time></trkpt><trkpt lat="39.759943866372986" lon="9.494748790305104"><ele>813.0</ele><time>2026-05-01T08:06:38Z</time></trkpt><trkpt lat="39.76007463726985" lon="9.494617531050524"><ele>813.0</ele><time>2026-05-01T08:06:39Z</time></trkpt><trkpt lat="39.76020811201726" lon="9.494488661397291"><ele>813.0</ele><time>2026-05-01T08:06:40Z</time></trkpt><trkpt lat="39.76034816103531" lon="9.494368985455614"><ele>811.0</ele><time>2026-05-01T08:06:41Z</time></trkpt><trkpt lat="39.760488053932086" lon="9.494243520755939"><ele>809.0</ele><time>2026-05-01T08:06:42Z</time></trkpt><trkpt lat="39.76061841163787" lon="9.49409771304246"><ele>807.0</ele><time>2026-05-01T08:06:43Z</time></trkpt><trkpt lat="39.760737081583585" lon="9.493940414758463"><ele>807.0</ele><time>2026-05-01T08:06:44Z</time></trkpt><trkpt lat="39.76085547381395" lon="9.493788446324343"><ele>807.0</ele><time>2026-05-01T08:06:45Z</time></trkpt><trkpt lat="39.7609782948906" lon="9.49363982863603"><ele>807.0</ele><time>2026-05-01T08:06:46Z</time></trkpt><trkpt lat="39.761100415568706" lon="9.493489572635918"><ele>805.6666666666667</ele><time>2026-05-01T08:06:47Z</time></trkpt><trkpt lat="39.761219851144055" lon="9.493343522812625"><ele>804.3333333333334</ele><time>2026-05-01T08:06:48Z</time></trkpt><trkpt lat="39.761340304533114" lon="9.493203201597481"><ele>803.0</ele><time>2026-05-01T08:06:49Z</time></trkpt><trkpt lat="39.76145882471678" lon="9.493062702295578"><ele>803.0</ele><time>2026-05-01T08:06:50Z</time></trkpt><trkpt lat="39.76156872139864" lon="9.492924950502426"><ele>803.0</ele><time>2026-05-01T08:06:51Z</time></trkpt><trkpt lat="39.761676681444804" lon="9.492798817319454"><ele>803.0</ele><time>2026-05-01T08:06:52Z</time></trkpt><trkpt lat="39.76179624201762" lon="9.492711925639492"><ele>803.0</ele><time>2026-05-01T08:06:53Z</time></trkpt><trkpt lat="39.76192245764473" lon="9.492697775798582"><ele>805.5</ele><time>2026-05-01T08:06:54Z</time></trkpt><trkpt lat="39.7620317813187" lon="9.49276249734195"><ele>808.0</ele><time>2026-05-01T08:06:55Z</time></trkpt><trkpt lat="39.76210386578934" lon="9.492889822792554"><ele>810.5</ele><time>2026-05-01T08:06:56Z</time></trkpt><trkpt lat="39.762109585895864" lon="9.49304007137392"><ele>813.0</ele><time>2026-05-01T08:06:57Z</time></trkpt><trkpt lat="39.76204626368245" lon="9.493187079660787"><ele>815.25</ele><time>2026-05-01T08:06:58Z</time></trkpt><trkpt lat="39.761946352832034" lon="9.49331991932724"><ele>817.5</ele><time>2026-05-01T08:06:59Z</time></trkpt><trkpt lat="39.76184512036046" lon="9.49345347452384"><ele>819.75</ele><time>2026-05-01T08:07:00Z</time></trkpt><trkpt lat="39.76176883642878" lon="9.493630794003584"><ele>822.0</ele><time>2026-05-01T08:07:01Z</time></trkpt><trkpt lat="39.76172151023668" lon="9.493832274563742"><ele>815.3333333333333</ele><time>2026-05-01T08:07:02Z</time></trkpt><trkpt lat="39.76170543882936" lon="9.494057535670459"><ele>808.6666666666666</ele><time>2026-05-01T08:07:03Z</time></trkpt><trkpt lat="39.76171418429571" lon="9.49429867038553"><ele>802.0</ele><time>2026-05-01T08:07:04Z</time></trkpt><trkpt lat="39.76173478408137" lon="9.494539865327372"><ele>801.0</ele><time>2026-05-01T08:07:05Z</time></trkpt><trkpt lat="39.76177459538114" lon="9.49477570704076"><ele>800.0</ele><time>2026-05-01T08:07:06Z</time></trkpt><trkpt lat="39.761839043940554" lon="9.495001469428914"><ele>799.0</ele><time>2026-05-01T08:07:07Z</time></trkpt><trkpt lat="39.7619074617787" lon="9.49521290666167"><ele>804.3333333333333</ele><time>2026-05-01T08:07:08Z</time></trkpt><trkpt lat="39.761964093815386" lon="9.495419969788834"><ele>809.6666666666667</ele><time>2026-05-01T08:07:09Z</time></trkpt><trkpt lat="39.76200927628527" lon="9.495618601929381"><ele>815.0</ele><time>2026-05-01T08:07:10Z</time></trkpt><trkpt lat="39.76204279346569" lon="9.495816166700783"><ele>815.0</ele><time>2026-05-01T08:07:11Z</time></trkpt><trkpt lat="39.76205611256205" lon="9.496016885446199"><ele>815.0</ele><time>2026-05-01T08:07:12Z</time></trkpt><trkpt lat="39.762053648921324" lon="9.496227577083477"><ele>815.0</ele><time>2026-05-01T08:07:13Z</time></trkpt><trkpt lat="39.7620469333142" lon="9.496449777972654"><ele>814.3333333333334</ele><time>2026-05-01T08:07:14Z</time></trkpt><trkpt lat="39.762040698625825" lon="9.496678127693137"><ele>813.6666666666667</ele><time>2026-05-01T08:07:15Z</time></trkpt><trkpt lat="39.76202795019649" lon="9.496907970986232"><ele>813.0</ele><time>2026-05-01T08:07:16Z</time></trkpt><trkpt lat="39.762008147302275" lon="9.497136344458777"><ele>815.0</ele><time>2026-05-01T08:07:17Z</time></trkpt><trkpt lat="39.76198851760303" lon="9.49736821124383"><ele>817.0</ele><time>2026-05-01T08:07:18Z</time></trkpt><trkpt lat="39.76197459693775" lon="9.497599713593218"><ele>819.0</ele><time>2026-05-01T08:07:19Z</time></trkpt><trkpt lat="39.761954365286776" lon="9.4978342933018"><ele>817.6666666666667</ele><time>2026-05-01T08:07:20Z</time></trkpt><trkpt lat="39.76192967115434" lon="9.498067271731216"><ele>816.3333333333334</ele><time>2026-05-01T08:07:21Z</time></trkpt><trkpt lat="39.76191090417113" lon="9.49830009097028"><ele>815.0</ele><time>2026-05-01T08:07:22Z</time></trkpt><trkpt lat="39.761887558672946" lon="9.498532831160698"><ele>809.6666666666667</ele><time>2026-05-01T08:07:23Z</time></trkpt><trkpt lat="39.76183690769815" lon="9.498756065205463"><ele>804.3333333333333</ele><time>2026-05-01T08:07:24Z</time></trkpt><trkpt lat="39.76175127187376" lon="9.498962387482491"><ele>799.0</ele><time>2026-05-01T08:07:25Z</time></trkpt><trkpt lat="39.76163483531657" lon="9.499154897214657"><ele>799.0</ele><time>2026-05-01T08:07:26Z</time></trkpt><trkpt lat="39.76151826704706" lon="9.499351104918011"><ele>799.0</ele><time>2026-05-01T08:07:27Z</time></trkpt><trkpt lat="39.76140343434131" lon="9.499552541789203"><ele>799.0</ele><time>2026-05-01T08:07:28Z</time></trkpt><trkpt lat="39.7612903089347" lon="9.499752480137005"><ele>796.0</ele><time>2026-05-01T08:07:29Z</time></trkpt><trkpt lat="39.76117697982143" lon="9.499952205485993"><ele>793.0</ele><time>2026-05-01T08:07:30Z</time></trkpt><trkpt lat="39.76106652899893" lon="9.500144366234506"><ele>790.0</ele><time>2026-05-01T08:07:31Z</time></trkpt><trkpt lat="39.76095604640062" lon="9.500332056133"><ele>792.3333333333333</ele><time>2026-05-01T08:07:32Z</time></trkpt><trkpt lat="39.760849835601505" lon="9.500514135527876"><ele>794.6666666666667</ele><time>2026-05-01T08:07:33Z</time></trkpt><trkpt lat="39.76074815990449" lon="9.500690049996411"><ele>797.0</ele><time>2026-05-01T08:07:34Z</time></trkpt><trkpt lat="39.760653356313014" lon="9.5008568368819"><ele>797.0</ele><time>2026-05-01T08:07:35Z</time></trkpt><trkpt lat="39.7605749757147" lon="9.501022785318835"><ele>797.0</ele><time>2026-05-01T08:07:36Z</time></trkpt><trkpt lat="39.760520318523646" lon="9.501196915517966"><ele>797.0</ele><time>2026-05-01T08:07:37Z</time></trkpt><trkpt lat="39.760501579613894" lon="9.501378902818592"><ele>797.0</ele><time>2026-05-01T08:07:38Z</time></trkpt><trkpt lat="39.76053184364244" lon="9.501572287479155"><ele>795.0</ele><time>2026-05-01T08:07:39Z</time></trkpt><trkpt lat="39.760605791907174" lon="9.50177634253775"><ele>793.0</ele><time>2026-05-01T08:07:40Z</time></trkpt><trkpt lat="39.76068290237127" lon="9.501997223115591"><ele>791.0</ele><time>2026-05-01T08:07:41Z</time></trkpt><trkpt lat="39.7607619170315" lon="9.502228765750107"><ele>791.0</ele><time>2026-05-01T08:07:42Z</time></trkpt><trkpt lat="39.76083737887572" lon="9.502472440656778"><ele>791.0</ele><time>2026-05-01T08:07:43Z</time></trkpt><trkpt lat="39.76091359827591" lon="9.502710785526531"><ele>791.0</ele><time>2026-05-01T08:07:44Z</time></trkpt><trkpt lat="39.760998318850326" lon="9.502937015438256"><ele>782.6666666666667</ele><time>2026-05-01T08:07:45Z</time></trkpt><trkpt lat="39.76110688108859" lon="9.50314061914037"><ele>774.3333333333334</ele><time>2026-05-01T08:07:46Z</time></trkpt><trkpt lat="39.76125388564852" lon="9.503303200666654"><ele>766.0</ele><time>2026-05-01T08:07:47Z</time></trkpt><trkpt lat="39.76141919542172" lon="9.503441985137842"><ele>766.0</ele><time>2026-05-01T08:07:48Z</time></trkpt><trkpt lat="39.7615883177533" lon="9.50358428840704"><ele>766.0</ele><time>2026-05-01T08:07:49Z</time></trkpt><trkpt lat="39.76175510089895" lon="9.503740259773286"><ele>766.0</ele><time>2026-05-01T08:07:50Z</time></trkpt><trkpt lat="39.76192117388136" lon="9.503903605002469"><ele>762.6666666666667</ele><time>2026-05-01T08:07:51Z</time></trkpt><trkpt lat="39.76208822217789" lon="9.504068087803926"><ele>759.3333333333334</ele><time>2026-05-01T08:07:52Z</time></trkpt><trkpt lat="39.76225280783747" lon="9.504235065196166"><ele>756.0</ele><time>2026-05-01T08:07:53Z</time></trkpt><trkpt lat="39.76242570811647" lon="9.504396154441494"><ele>756.0</ele><time>2026-05-01T08:07:54Z</time></trkpt><trkpt lat="39.762595368601815" lon="9.504562633173567"><ele>756.0</ele><time>2026-05-01T08:07:55Z</time></trkpt><trkpt lat="39.762764689977594" lon="9.504726556954367"><ele>756.0</ele><time>2026-05-01T08:07:56Z</time></trkpt><trkpt lat="39.76293176156013" lon="9.504891586590098"><ele>753.6666666666666</ele><time>2026-05-01T08:07:57Z</time></trkpt><trkpt lat="39.76309856334663" lon="9.505057764568283"><ele>751.3333333333333</ele><time>2026-05-01T08:07:58Z</time></trkpt><trkpt lat="39.76326729718445" lon="9.5052210061197"><ele>749.0</ele><time>2026-05-01T08:07:59Z</time></trkpt><trkpt lat="39.76343725485997" lon="9.505382690468752"><ele>748.3333333333333</ele><time>2026-05-01T08:08:00Z</time></trkpt><trkpt lat="39.763604547186176" lon="9.505544258271724"><ele>747.6666666666666</ele><time>2026-05-01T08:08:01Z</time></trkpt><trkpt lat="39.763766188075955" lon="9.50570366006001"><ele>747.0</ele><time>2026-05-01T08:08:02Z</time></trkpt><trkpt lat="39.76392549525489" lon="9.505861922413928"><ele>747.0</ele><time>2026-05-01T08:08:03Z</time></trkpt><trkpt lat="39.76408326439873" lon="9.506019786051452"><ele>747.0</ele><time>2026-05-01T08:08:04Z</time></trkpt><trkpt lat="39.76424458440699" lon="9.506178197045484"><ele>747.0</ele><time>2026-05-01T08:08:05Z</time></trkpt><trkpt lat="39.76440818499669" lon="9.506335617914646"><ele>747.0</ele><time>2026-05-01T08:08:06Z</time></trkpt><trkpt lat="39.764573309994596" lon="9.506493883367659"><ele>747.0</ele><time>2026-05-01T08:08:07Z</time></trkpt><trkpt lat="39.76474080850934" lon="9.506654290347115"><ele>747.0</ele><time>2026-05-01T08:08:08Z</time></trkpt><trkpt lat="39.76491176064777" lon="9.506818845222833"><ele>747.0</ele><time>2026-05-01T08:08:09Z</time></trkpt><trkpt lat="39.7650838680795" lon="9.506987380533573"><ele>747.0</ele><time>2026-05-01T08:08:10Z</time></trkpt><trkpt lat="39.765257145476845" lon="9.507157022585599"><ele>747.0</ele><time>2026-05-01T08:08:11Z</time></trkpt><trkpt lat="39.76543012325662" lon="9.507325392143128"><ele>746.6666666666666</ele><time>2026-05-01T08:08:12Z</time></trkpt><trkpt lat="39.76560150101041" lon="9.50749364412237"><ele>746.3333333333333</ele><time>2026-05-01T08:08:13Z</time></trkpt><trkpt lat="39.76577011824305" lon="9.507661610970551"><ele>746.0</ele><time>2026-05-01T08:08:14Z</time></trkpt><trkpt lat="39.76593911869797" lon="9.507819633037407"><ele>747.0</ele><time>2026-05-01T08:08:15Z</time></trkpt><trkpt lat="39.76610721515403" lon="9.507985131664018"><ele>748.0</ele><time>2026-05-01T08:08:16Z</time></trkpt><trkpt lat="39.766274440634895" lon="9.508153496164137"><ele>749.0</ele><time>2026-05-01T08:08:17Z</time></trkpt><trkpt lat="39.76644158040019" lon="9.508321646700965"><ele>749.0</ele><time>2026-05-01T08:08:18Z</time></trkpt><trkpt lat="39.76660955312681" lon="9.508485277030866"><ele>749.0</ele><time>2026-05-01T08:08:19Z</time></trkpt><trkpt lat="39.76677949147627" lon="9.508647339381971"><ele>749.0</ele><time>2026-05-01T08:08:20Z</time></trkpt><trkpt lat="39.76694634341399" lon="9.508807738753442"><ele>747.6666666666666</ele><time>2026-05-01T08:08:21Z</time></trkpt><trkpt lat="39.767111428653116" lon="9.508966715746265"><ele>746.3333333333334</ele><time>2026-05-01T08:08:22Z</time></trkpt><trkpt lat="39.767276209920446" lon="9.509127295879525"><ele>745.0</ele><time>2026-05-01T08:08:23Z</time></trkpt><trkpt lat="39.767441783319896" lon="9.509288159615307"><ele>745.0</ele><time>2026-05-01T08:08:24Z</time></trkpt><trkpt lat="39.767608390787025" lon="9.509447564842432"><ele>745.0</ele><time>2026-05-01T08:08:25Z</time></trkpt><trkpt lat="39.767776476244514" lon="9.509608602573408"><ele>745.0</ele><time>2026-05-01T08:08:26Z</time></trkpt><trkpt lat="39.76794175203758" lon="9.509771739743124"><ele>742.3333333333334</ele><time>2026-05-01T08:08:27Z</time></trkpt><trkpt lat="39.76810930328279" lon="9.509935846398655"><ele>739.6666666666666</ele><time>2026-05-01T08:08:28Z</time></trkpt><trkpt lat="39.76827729794977" lon="9.510101346534078"><ele>737.0</ele><time>2026-05-01T08:08:29Z</time></trkpt><trkpt lat="39.76844660133994" lon="9.510267645527575"><ele>738.0</ele><time>2026-05-01T08:08:30Z</time></trkpt><trkpt lat="39.76861751139698" lon="9.510432282488646"><ele>739.0</ele><time>2026-05-01T08:08:31Z</time></trkpt><trkpt lat="39.76878743078196" lon="9.51059427249384"><ele>740.0</ele><time>2026-05-01T08:08:32Z</time></trkpt><trkpt lat="39.76895426034561" lon="9.510756739977328"><ele>740.0</ele><time>2026-05-01T08:08:33Z</time></trkpt><trkpt lat="39.76911791664387" lon="9.510918556930305"><ele>740.0</ele><time>2026-05-01T08:08:34Z</time></trkpt><trkpt lat="39.7692771312206" lon="9.511074209919666"><ele>740.0</ele><time>2026-05-01T08:08:35Z</time></trkpt><trkpt lat="39.76942977007912" lon="9.511222849312297"><ele>739.6666666666666</ele><time>2026-05-01T08:08:36Z</time></trkpt><trkpt lat="39.76958048392969" lon="9.511362258468374"><ele>739.3333333333334</ele><time>2026-05-01T08:08:37Z</time></trkpt><trkpt lat="39.76974053172701" lon="9.511480198792148"><ele>739.0</ele><time>2026-05-01T08:08:38Z</time></trkpt><trkpt lat="39.76991511724461" lon="9.511558628294955"><ele>739.0</ele><time>2026-05-01T08:08:39Z</time></trkpt><trkpt lat="39.77010029311009" lon="9.511593747672253"><ele>739.0</ele><time>2026-05-01T08:08:40Z</time></trkpt><trkpt lat="39.770291195281565" lon="9.511576202497919"><ele>739.0</ele><time>2026-05-01T08:08:41Z</time></trkpt><trkpt lat="39.770485271523114" lon="9.511528909993421"><ele>739.0</ele><time>2026-05-01T08:08:42Z</time></trkpt><trkpt lat="39.77067667998583" lon="9.511474525774206"><ele>739.0</ele><time>2026-05-01T08:08:43Z</time></trkpt><trkpt lat="39.77086559195298" lon="9.511425053341071"><ele>739.0</ele><time>2026-05-01T08:08:44Z</time></trkpt><trkpt lat="39.77105262913051" lon="9.511376649579125"><ele>738.3333333333334</ele><time>2026-05-01T08:08:45Z</time></trkpt><trkpt lat="39.77124214041738" lon="9.511339210380699"><ele>737.6666666666666</ele><time>2026-05-01T08:08:46Z</time></trkpt><trkpt lat="39.77143863014125" lon="9.511318159768766"><ele>737.0</ele><time>2026-05-01T08:08:47Z</time></trkpt><trkpt lat="39.77163455298232" lon="9.51130137325507"><ele>737.0</ele><time>2026-05-01T08:08:48Z</time></trkpt><trkpt lat="39.771789803270536" lon="9.511281185862762"><ele>737.0</ele><time>2026-05-01T08:08:49Z</time></trkpt><trkpt lat="39.77195741674973" lon="9.51131865556549"><ele>737.0</ele><time>2026-05-01T08:08:50Z</time></trkpt><trkpt lat="39.77211014027611" lon="9.51139309262921"><ele>731.0</ele><time>2026-05-01T08:08:51Z</time></trkpt><trkpt lat="39.77224639121574" lon="9.511520170510694"><ele>725.0</ele><time>2026-05-01T08:08:52Z</time></trkpt><trkpt lat="39.77239952805673" lon="9.511679743956647"><ele>719.0</ele><time>2026-05-01T08:08:53Z</time></trkpt><trkpt lat="39.77255759886885" lon="9.511847169645012"><ele>715.6666666666666</ele><time>2026-05-01T08:08:54Z</time></trkpt><trkpt lat="39.77271997877092" lon="9.512020511927325"><ele>712.3333333333334</ele><time>2026-05-01T08:08:55Z</time></trkpt><trkpt lat="39.77289480678763" lon="9.512182252122722"><ele>709.0</ele><time>2026-05-01T08:08:56Z</time></trkpt><trkpt lat="39.77306425191196" lon="9.512361320384107"><ele>709.0</ele><time>2026-05-01T08:08:57Z</time></trkpt><trkpt lat="39.77322913833054" lon="9.512535410019892"><ele>709.0</ele><time>2026-05-01T08:08:58Z</time></trkpt><trkpt lat="39.77339106379693" lon="9.512714397152413"><ele>709.0</ele><time>2026-05-01T08:08:59Z</time></trkpt><trkpt lat="39.77354873017074" lon="9.51289014857615"><ele>705.3333333333334</ele><time>2026-05-01T08:09:00Z</time></trkpt><trkpt lat="39.77370050829979" lon="9.513053100072222"><ele>701.6666666666666</ele><time>2026-05-01T08:09:01Z</time></trkpt><trkpt lat="39.77382475268638" lon="9.513228258228047"><ele>698.0</ele><time>2026-05-01T08:09:02Z</time></trkpt><trkpt lat="39.77393062120178" lon="9.513418785883779"><ele>698.0</ele><time>2026-05-01T08:09:03Z</time></trkpt><trkpt lat="39.77401571088223" lon="9.513641136543347"><ele>698.0</ele><time>2026-05-01T08:09:04Z</time></trkpt><trkpt lat="39.77409969950683" lon="9.513885831796488"><ele>698.0</ele><time>2026-05-01T08:09:05Z</time></trkpt><trkpt lat="39.77418712109012" lon="9.514127805684584"><ele>698.0</ele><time>2026-05-01T08:09:06Z</time></trkpt><trkpt lat="39.7742744106741" lon="9.514356063353175"><ele>698.0</ele><time>2026-05-01T08:09:07Z</time></trkpt><trkpt lat="39.77435974944476" lon="9.514578896750535"><ele>698.0</ele><time>2026-05-01T08:09:08Z</time></trkpt><trkpt lat="39.77444267497935" lon="9.514795428796104"><ele>698.0</ele><time>2026-05-01T08:09:09Z</time></trkpt><trkpt lat="39.77471532975047" lon="9.514874312346507"><ele>698.0</ele><time>2026-05-01T08:09:10Z</time></trkpt><trkpt lat="39.774922742402616" lon="9.514973753083357"><ele>698.0</ele><time>2026-05-01T08:09:11Z</time></trkpt><trkpt lat="39.77509253798932" lon="9.515103314900607"><ele>698.0</ele><time>2026-05-01T08:09:12Z</time></trkpt><trkpt lat="39.77525210142373" lon="9.515233033056939"><ele>698.0</ele><time>2026-05-01T08:09:13Z</time></trkpt><trkpt lat="39.77540540786459" lon="9.515361890223387"><ele>696.3333333333333</ele><time>2026-05-01T08:09:14Z</time></trkpt><trkpt lat="39.7755530738557" lon="9.51549053505642"><ele>694.6666666666666</ele><time>2026-05-01T08:09:15Z</time></trkpt><trkpt lat="39.7756918546756" lon="9.515623685404087"><ele>693.0</ele><time>2026-05-01T08:09:16Z</time></trkpt><trkpt lat="39.77580742833782" lon="9.51578992714723"><ele>693.0</ele><time>2026-05-01T08:09:17Z</time></trkpt><trkpt lat="39.77590360599603" lon="9.515999598917048"><ele>693.0</ele><time>2026-05-01T08:09:18Z</time></trkpt><trkpt lat="39.77599664374618" lon="9.516217482784018"><ele>693.0</ele><time>2026-05-01T08:09:19Z</time></trkpt><trkpt lat="39.77609697839508" lon="9.516440315025337"><ele>692.6666666666666</ele><time>2026-05-01T08:09:20Z</time></trkpt><trkpt lat="39.776199696140566" lon="9.516664789900735"><ele>692.3333333333333</ele><time>2026-05-01T08:09:21Z</time></trkpt><trkpt lat="39.77630302469878" lon="9.516883906938716"><ele>692.0</ele><time>2026-05-01T08:09:22Z</time></trkpt><trkpt lat="39.776409061374444" lon="9.51710527486224"><ele>691.3333333333333</ele><time>2026-05-01T08:09:23Z</time></trkpt><trkpt lat="39.776515716424406" lon="9.517322872471766"><ele>690.6666666666666</ele><time>2026-05-01T08:09:24Z</time></trkpt><trkpt lat="39.77663261962089" lon="9.517529074627205"><ele>690.0</ele><time>2026-05-01T08:09:25Z</time></trkpt><trkpt lat="39.77676149921827" lon="9.517719077904248"><ele>693.0</ele><time>2026-05-01T08:09:26Z</time></trkpt><trkpt lat="39.77689898051145" lon="9.517901599305691"><ele>696.0</ele><time>2026-05-01T08:09:27Z</time></trkpt><trkpt lat="39.77703322187958" lon="9.51808521775906"><ele>699.0</ele><time>2026-05-01T08:09:28Z</time></trkpt><trkpt lat="39.777154166848995" lon="9.518272661234478"><ele>699.0</ele><time>2026-05-01T08:09:29Z</time></trkpt><trkpt lat="39.77727061449278" lon="9.518449667443983"><ele>699.0</ele><time>2026-05-01T08:09:30Z</time></trkpt><trkpt lat="39.7773986973399" lon="9.518595122205651"><ele>699.0</ele><time>2026-05-01T08:09:31Z</time></trkpt><trkpt lat="39.77755715680553" lon="9.518693863718369"><ele>700.3333333333334</ele><time>2026-05-01T08:09:32Z</time></trkpt><trkpt lat="39.777738114793856" lon="9.518752723315815"><ele>701.6666666666667</ele><time>2026-05-01T08:09:33Z</time></trkpt><trkpt lat="39.77792056945933" lon="9.518812161703968"><ele>703.0</ele><time>2026-05-01T08:09:34Z</time></trkpt><trkpt lat="39.778095626898924" lon="9.518882566393438"><ele>703.0</ele><time>2026-05-01T08:09:35Z</time></trkpt><trkpt lat="39.77826159483751" lon="9.518951533708716"><ele>703.0</ele><time>2026-05-01T08:09:36Z</time></trkpt><trkpt lat="39.778417837114546" lon="9.519016110313785"><ele>703.0</ele><time>2026-05-01T08:09:37Z</time></trkpt><trkpt lat="39.77856482288551" lon="9.519077240207714"><ele>703.5</ele><time>2026-05-01T08:09:38Z</time></trkpt><trkpt lat="39.778704504747296" lon="9.519132664906088"><ele>704.0</ele><time>2026-05-01T08:09:39Z</time></trkpt><trkpt lat="39.778832146634386" lon="9.519181702628682"><ele>704.5</ele><time>2026-05-01T08:09:40Z</time></trkpt><trkpt lat="39.77894598532979" lon="9.519225335040774"><ele>705.0</ele><time>2026-05-01T08:09:41Z</time></trkpt><trkpt lat="39.77905560690567" lon="9.519259256933122"><ele>705.0</ele><time>2026-05-01T08:09:42Z</time></trkpt><trkpt lat="39.77917291717503" lon="9.519279867123458"><ele>705.0</ele><time>2026-05-01T08:09:43Z</time></trkpt><trkpt lat="39.77930210499175" lon="9.519303582148675"><ele>705.0</ele><time>2026-05-01T08:09:44Z</time></trkpt><trkpt lat="39.77943956834168" lon="9.519331568679506"><ele>705.0</ele><time>2026-05-01T08:09:45Z</time></trkpt><trkpt lat="39.77957474764224" lon="9.519348211551442"><ele>704.75</ele><time>2026-05-01T08:09:46Z</time></trkpt><trkpt lat="39.779709978095994" lon="9.51936565204253"><ele>704.5</ele><time>2026-05-01T08:09:47Z</time></trkpt><trkpt lat="39.77984439299184" lon="9.519381770317823"><ele>704.25</ele><time>2026-05-01T08:09:48Z</time></trkpt><trkpt lat="39.77998039298999" lon="9.51939345439659"><ele>704.0</ele><time>2026-05-01T08:09:49Z</time></trkpt><trkpt lat="39.78011634139167" lon="9.519402895443237"><ele>700.5</ele><time>2026-05-01T08:09:50Z</time></trkpt><trkpt lat="39.78025353224529" lon="9.519413534841311"><ele>697.0</ele><time>2026-05-01T08:09:51Z</time></trkpt><trkpt lat="39.78039374250696" lon="9.519406015368318"><ele>693.5</ele><time>2026-05-01T08:09:52Z</time></trkpt><trkpt lat="39.7805360453434" lon="9.519355736400845"><ele>690.0</ele><time>2026-05-01T08:09:53Z</time></trkpt><trkpt lat="39.780672736028244" lon="9.519270542001728"><ele>690.0</ele><time>2026-05-01T08:09:54Z</time></trkpt><trkpt lat="39.78080137206349" lon="9.519163674590553"><ele>690.0</ele><time>2026-05-01T08:09:55Z</time></trkpt><trkpt lat="39.78092423900135" lon="9.519045640580009"><ele>690.0</ele><time>2026-05-01T08:09:56Z</time></trkpt><trkpt lat="39.78104068581749" lon="9.518915150157861"><ele>685.6666666666666</ele><time>2026-05-01T08:09:57Z</time></trkpt><trkpt lat="39.78115942493478" lon="9.51878265298342"><ele>681.3333333333333</ele><time>2026-05-01T08:09:58Z</time></trkpt><trkpt lat="39.7812787744098" lon="9.51864866133288"><ele>677.0</ele><time>2026-05-01T08:09:59Z</time></trkpt><trkpt lat="39.78138421699538" lon="9.518499580521269"><ele>677.0</ele><time>2026-05-01T08:10:00Z</time></trkpt><trkpt lat="39.781461082805706" lon="9.51831918710689"><ele>677.0</ele><time>2026-05-01T08:10:01Z</time></trkpt><trkpt lat="39.78150620776007" lon="9.518119692834238"><ele>677.0</ele><time>2026-05-01T08:10:02Z</time></trkpt><trkpt lat="39.781537734608435" lon="9.51792123426127"><ele>680.25</ele><time>2026-05-01T08:10:03Z</time></trkpt><trkpt lat="39.78157685104045" lon="9.517735322251824"><ele>683.5</ele><time>2026-05-01T08:10:04Z</time></trkpt><trkpt lat="39.781617238299326" lon="9.517555159573243"><ele>686.75</ele><time>2026-05-01T08:10:05Z</time></trkpt><trkpt lat="39.78165903029096" lon="9.517377626928514"><ele>690.0</ele><time>2026-05-01T08:10:06Z</time></trkpt><trkpt lat="39.781710867034015" lon="9.517210241096645"><ele>693.5</ele><time>2026-05-01T08:10:07Z</time></trkpt><trkpt lat="39.78178618329685" lon="9.517056038094143"><ele>697.0</ele><time>2026-05-01T08:10:08Z</time></trkpt><trkpt lat="39.78188043768136" lon="9.516911627765351"><ele>700.5</ele><time>2026-05-01T08:10:09Z</time></trkpt><trkpt lat="39.78197558086893" lon="9.516761605547552"><ele>704.0</ele><time>2026-05-01T08:10:10Z</time></trkpt><trkpt lat="39.78206954243844" lon="9.516606930265343"><ele>698.6666666666666</ele><time>2026-05-01T08:10:11Z</time></trkpt><trkpt lat="39.7821631566884" lon="9.516447823996119"><ele>693.3333333333334</ele><time>2026-05-01T08:10:12Z</time></trkpt><trkpt lat="39.782259887549735" lon="9.51628770452963"><ele>688.0</ele><time>2026-05-01T08:10:13Z</time></trkpt><trkpt lat="39.782371651715735" lon="9.516144675525641"><ele>688.0</ele><time>2026-05-01T08:10:14Z</time></trkpt><trkpt lat="39.78251170779017" lon="9.51605636882254"><ele>688.0</ele><time>2026-05-01T08:10:15Z</time></trkpt><trkpt lat="39.78264687564995" lon="9.515939849517508"><ele>688.0</ele><time>2026-05-01T08:10:16Z</time></trkpt><trkpt lat="39.78278750422371" lon="9.51584192161136"><ele>685.0</ele><time>2026-05-01T08:10:17Z</time></trkpt><trkpt lat="39.782900138328" lon="9.515692286872433"><ele>682.0</ele><time>2026-05-01T08:10:18Z</time></trkpt><trkpt lat="39.7829790470926" lon="9.515501216659478"><ele>679.0</ele><time>2026-05-01T08:10:19Z</time></trkpt><trkpt lat="39.78305459336898" lon="9.515310625413624"><ele>679.0</ele><time>2026-05-01T08:10:20Z</time></trkpt><trkpt lat="39.78313050436673" lon="9.51512993966445"><ele>679.0</ele><time>2026-05-01T08:10:21Z</time></trkpt><trkpt lat="39.78320932073215" lon="9.514961309218439"><ele>679.0</ele><time>2026-05-01T08:10:22Z</time></trkpt><trkpt lat="39.78329220405811" lon="9.51480219784167"><ele>679.0</ele><time>2026-05-01T08:10:23Z</time></trkpt><trkpt lat="39.78341529869967" lon="9.51470776119442"><ele>679.0</ele><time>2026-05-01T08:10:24Z</time></trkpt><trkpt lat="39.78354223609624" lon="9.514627255041939"><ele>679.0</ele><time>2026-05-01T08:10:25Z</time></trkpt><trkpt lat="39.78369082126765" lon="9.514645987493074"><ele>679.0</ele><time>2026-05-01T08:10:26Z</time></trkpt><trkpt lat="39.78382653502446" lon="9.51467626254584"><ele>676.6666666666667</ele><time>2026-05-01T08:10:27Z</time></trkpt><trkpt lat="39.783968418669595" lon="9.514714202287081"><ele>674.3333333333334</ele><time>2026-05-01T08:10:28Z</time></trkpt><trkpt lat="39.78411423126946" lon="9.514751766668521"><ele>672.0</ele><time>2026-05-01T08:10:29Z</time></trkpt><trkpt lat="39.78426821948427" lon="9.514787756890119"><ele>673.3333333333334</ele><time>2026-05-01T08:10:30Z</time></trkpt><trkpt lat="39.78442458361701" lon="9.514834057524576"><ele>674.6666666666667</ele><time>2026-05-01T08:10:31Z</time></trkpt><trkpt lat="39.784581514814576" lon="9.51488010169093"><ele>676.0</ele><time>2026-05-01T08:10:32Z</time></trkpt><trkpt lat="39.78474160173979" lon="9.514919941691556"><ele>676.0</ele><time>2026-05-01T08:10:33Z</time></trkpt><trkpt lat="39.78490337308366" lon="9.514957780543208"><ele>676.0</ele><time>2026-05-01T08:10:34Z</time></trkpt><trkpt lat="39.785061702015994" lon="9.514985425806987"><ele>676.0</ele><time>2026-05-01T08:10:35Z</time></trkpt><trkpt lat="39.785214949530946" lon="9.514946445953191"><ele>671.0</ele><time>2026-05-01T08:10:36Z</time></trkpt><trkpt lat="39.785353175399116" lon="9.514837906057803"><ele>666.0</ele><time>2026-05-01T08:10:37Z</time></trkpt><trkpt lat="39.78548575217916" lon="9.51472524994929"><ele>661.0</ele><time>2026-05-01T08:10:38Z</time></trkpt><trkpt lat="39.78562978272367" lon="9.51466576767357"><ele>661.0</ele><time>2026-05-01T08:10:39Z</time></trkpt><trkpt lat="39.78578052716861" lon="9.514673395410643"><ele>661.0</ele><time>2026-05-01T08:10:40Z</time></trkpt><trkpt lat="39.78594097279211" lon="9.514682786497293"><ele>661.0</ele><time>2026-05-01T08:10:41Z</time></trkpt><trkpt lat="39.786098540998054" lon="9.514693457352175"><ele>664.0</ele><time>2026-05-01T08:10:42Z</time></trkpt><trkpt lat="39.78625638435174" lon="9.514649795420688"><ele>667.0</ele><time>2026-05-01T08:10:43Z</time></trkpt><trkpt lat="39.786407618043086" lon="9.514550154637424"><ele>670.0</ele><time>2026-05-01T08:10:44Z</time></trkpt><trkpt lat="39.786546196996994" lon="9.51440909025698"><ele>670.0</ele><time>2026-05-01T08:10:45Z</time></trkpt><trkpt lat="39.78666592313256" lon="9.51425585281842"><ele>670.0</ele><time>2026-05-01T08:10:46Z</time></trkpt><trkpt lat="39.78678238818862" lon="9.514110482709526"><ele>670.0</ele><time>2026-05-01T08:10:47Z</time></trkpt><trkpt lat="39.78691138688597" lon="9.513996511661725"><ele>666.3333333333334</ele><time>2026-05-01T08:10:48Z</time></trkpt><trkpt lat="39.78706658985543" lon="9.513982727514053"><ele>662.6666666666666</ele><time>2026-05-01T08:10:49Z</time></trkpt><trkpt lat="39.78722303988834" lon="9.514004616617568"><ele>659.0</ele><time>2026-05-01T08:10:50Z</time></trkpt><trkpt lat="39.78737763140149" lon="9.514003849454728"><ele>659.0</ele><time>2026-05-01T08:10:51Z</time></trkpt><trkpt lat="39.7875278434287" lon="9.513976940338017"><ele>659.0</ele><time>2026-05-01T08:10:52Z</time></trkpt><trkpt lat="39.787664452843934" lon="9.513855321874342"><ele>659.0</ele><time>2026-05-01T08:10:53Z</time></trkpt><trkpt lat="39.78777528781167" lon="9.513682451878154"><ele>657.6666666666666</ele><time>2026-05-01T08:10:54Z</time></trkpt><trkpt lat="39.78785648912245" lon="9.51348518030108"><ele>656.3333333333334</ele><time>2026-05-01T08:10:55Z</time></trkpt><trkpt lat="39.78793521739516" lon="9.51330015255797"><ele>655.0</ele><time>2026-05-01T08:10:56Z</time></trkpt><trkpt lat="39.78806073749152" lon="9.513175433001798"><ele>655.0</ele><time>2026-05-01T08:10:57Z</time></trkpt><trkpt lat="39.788195814836094" lon="9.513085315295378"><ele>655.0</ele><time>2026-05-01T08:10:58Z</time></trkpt><trkpt lat="39.788341596718226" lon="9.513020550908493"><ele>655.0</ele><time>2026-05-01T08:10:59Z</time></trkpt><trkpt lat="39.78850180734211" lon="9.5129724288161"><ele>656.3333333333334</ele><time>2026-05-01T08:11:00Z</time></trkpt><trkpt lat="39.788664021142914" lon="9.512952160705467"><ele>657.6666666666666</ele><time>2026-05-01T08:11:01Z</time></trkpt><trkpt lat="39.78882244205747" lon="9.512913416026686"><ele>659.0</ele><time>2026-05-01T08:11:02Z</time></trkpt><trkpt lat="39.788967003551214" lon="9.512836869832626"><ele>659.0</ele><time>2026-05-01T08:11:03Z</time></trkpt><trkpt lat="39.78909140228742" lon="9.51271056054017"><ele>659.0</ele><time>2026-05-01T08:11:04Z</time></trkpt><trkpt lat="39.789206270783104" lon="9.512564157085828"><ele>659.0</ele><time>2026-05-01T08:11:05Z</time></trkpt><trkpt lat="39.78932429446701" lon="9.512424391957946"><ele>659.3333333333333</ele><time>2026-05-01T08:11:06Z</time></trkpt><trkpt lat="39.78944736817272" lon="9.512291599925545"><ele>659.6666666666666</ele><time>2026-05-01T08:11:07Z</time></trkpt><trkpt lat="39.78957128753002" lon="9.512157248054901"><ele>660.0</ele><time>2026-05-01T08:11:08Z</time></trkpt><trkpt lat="39.78969724178376" lon="9.512021105161587"><ele>660.0</ele><time>2026-05-01T08:11:09Z</time></trkpt><trkpt lat="39.78982380171247" lon="9.511884193285349"><ele>660.0</ele><time>2026-05-01T08:11:10Z</time></trkpt><trkpt lat="39.78995112142408" lon="9.51174820885795"><ele>660.0</ele><time>2026-05-01T08:11:11Z</time></trkpt><trkpt lat="39.79008098895551" lon="9.51160976430792"><ele>659.3333333333334</ele><time>2026-05-01T08:11:12Z</time></trkpt><trkpt lat="39.79020604004001" lon="9.51146823599697"><ele>658.6666666666667</ele><time>2026-05-01T08:11:13Z</time></trkpt><trkpt lat="39.79033147963341" lon="9.511331377122984"><ele>658.0</ele><time>2026-05-01T08:11:14Z</time></trkpt><trkpt lat="39.79046092314542" lon="9.511197190017958"><ele>658.0</ele><time>2026-05-01T08:11:15Z</time></trkpt><trkpt lat="39.790589593165436" lon="9.511067296531309"><ele>658.0</ele><time>2026-05-01T08:11:16Z</time></trkpt><trkpt lat="39.79071949595584" lon="9.510938300911858"><ele>658.0</ele><time>2026-05-01T08:11:17Z</time></trkpt><trkpt lat="39.79085839540751" lon="9.510834102714004"><ele>658.0</ele><time>2026-05-01T08:11:18Z</time></trkpt><trkpt lat="39.7909786135757" lon="9.510702709910067"><ele>658.0</ele><time>2026-05-01T08:11:19Z</time></trkpt><trkpt lat="39.79111218018434" lon="9.51060277959836"><ele>658.0</ele><time>2026-05-01T08:11:20Z</time></trkpt><trkpt lat="39.79125255560251" lon="9.51053985767714"><ele>660.6666666666667</ele><time>2026-05-01T08:11:21Z</time></trkpt><trkpt lat="39.79140588052882" lon="9.510500924258826"><ele>663.3333333333334</ele><time>2026-05-01T08:11:22Z</time></trkpt><trkpt lat="39.791553588536466" lon="9.510451721196834"><ele>666.0</ele><time>2026-05-01T08:11:23Z</time></trkpt><trkpt lat="39.7917049848387" lon="9.510372937982627"><ele>661.0</ele><time>2026-05-01T08:11:24Z</time></trkpt><trkpt lat="39.79184470483592" lon="9.510260170156602"><ele>656.0</ele><time>2026-05-01T08:11:25Z</time></trkpt><trkpt lat="39.791989837479164" lon="9.510145896732876"><ele>651.0</ele><time>2026-05-01T08:11:26Z</time></trkpt><trkpt lat="39.79214235953051" lon="9.51006255616586"><ele>651.0</ele><time>2026-05-01T08:11:27Z</time></trkpt><trkpt lat="39.79230581775858" lon="9.510001408281688"><ele>651.0</ele><time>2026-05-01T08:11:28Z</time></trkpt><trkpt lat="39.79246879220136" lon="9.509941606041654"><ele>651.0</ele><time>2026-05-01T08:11:29Z</time></trkpt><trkpt lat="39.79263604433013" lon="9.509892642292089"><ele>653.0</ele><time>2026-05-01T08:11:30Z</time></trkpt><trkpt lat="39.79280226118729" lon="9.509873801051336"><ele>655.0</ele><time>2026-05-01T08:11:31Z</time></trkpt><trkpt lat="39.792954796249504" lon="9.509934131245377"><ele>657.0</ele><time>2026-05-01T08:11:32Z</time></trkpt><trkpt lat="39.79310156135526" lon="9.510004501062294"><ele>657.0</ele><time>2026-05-01T08:11:33Z</time></trkpt><trkpt lat="39.79323699664325" lon="9.510117635182052"><ele>657.0</ele><time>2026-05-01T08:11:34Z</time></trkpt><trkpt lat="39.79338699144875" lon="9.510216193750143"><ele>657.0</ele><time>2026-05-01T08:11:35Z</time></trkpt><trkpt lat="39.7935386848887" lon="9.510310053481174"><ele>659.6666666666666</ele><time>2026-05-01T08:11:36Z</time></trkpt><trkpt lat="39.793686914531506" lon="9.510400220349082"><ele>662.3333333333333</ele><time>2026-05-01T08:11:37Z</time></trkpt><trkpt lat="39.79384205020155" lon="9.510493908687529"><ele>665.0</ele><time>2026-05-01T08:11:38Z</time></trkpt><trkpt lat="39.794003298192386" lon="9.510584022464837"><ele>658.3333333333333</ele><time>2026-05-01T08:11:39Z</time></trkpt><trkpt lat="39.794171461298355" lon="9.510662860265489"><ele>651.6666666666666</ele><time>2026-05-01T08:11:40Z</time></trkpt><trkpt lat="39.794345781378766" lon="9.510728952281271"><ele>645.0</ele><time>2026-05-01T08:11:41Z</time></trkpt><trkpt lat="39.794529030681176" lon="9.510767464385044"><ele>645.0</ele><time>2026-05-01T08:11:42Z</time></trkpt><trkpt lat="39.79471148784224" lon="9.510785840537839"><ele>645.0</ele><time>2026-05-01T08:11:43Z</time></trkpt><trkpt lat="39.794894476685506" lon="9.510800226215213"><ele>645.0</ele><time>2026-05-01T08:11:44Z</time></trkpt><trkpt lat="39.795076866778174" lon="9.510822348330427"><ele>645.3333333333334</ele><time>2026-05-01T08:11:45Z</time></trkpt><trkpt lat="39.79525548964026" lon="9.510858944162806"><ele>645.6666666666667</ele><time>2026-05-01T08:11:46Z</time></trkpt><trkpt lat="39.79542755043977" lon="9.510911610626453"><ele>646.0</ele><time>2026-05-01T08:11:47Z</time></trkpt><trkpt lat="39.795599031103485" lon="9.51096067355332"><ele>646.0</ele><time>2026-05-01T08:11:48Z</time></trkpt><trkpt lat="39.79577223761197" lon="9.510981265862238"><ele>646.0</ele><time>2026-05-01T08:11:49Z</time></trkpt><trkpt lat="39.79594506978322" lon="9.510973518724747"><ele>646.0</ele><time>2026-05-01T08:11:50Z</time></trkpt><trkpt lat="39.79611990042142" lon="9.510959748264742"><ele>646.0</ele><time>2026-05-01T08:11:51Z</time></trkpt><trkpt lat="39.7962962440771" lon="9.510959719404584"><ele>646.0</ele><time>2026-05-01T08:11:52Z</time></trkpt><trkpt lat="39.796472715495014" lon="9.510992233929375"><ele>646.0</ele><time>2026-05-01T08:11:53Z</time></trkpt><trkpt lat="39.79664801864387" lon="9.511044388567754"><ele>646.0</ele><time>2026-05-01T08:11:54Z</time></trkpt><trkpt lat="39.7968246303314" lon="9.511086196944818"><ele>646.0</ele><time>2026-05-01T08:11:55Z</time></trkpt><trkpt lat="39.797004581091414" lon="9.511120578303515"><ele>646.0</ele><time>2026-05-01T08:11:56Z</time></trkpt><trkpt lat="39.797188341634474" lon="9.511133657896126"><ele>644.6666666666667</ele><time>2026-05-01T08:11:57Z</time></trkpt><trkpt lat="39.79737519890263" lon="9.511122341962324"><ele>643.3333333333334</ele><time>2026-05-01T08:11:58Z</time></trkpt><trkpt lat="39.79756465670408" lon="9.511105823307542"><ele>642.0</ele><time>2026-05-01T08:11:59Z</time></trkpt><trkpt lat="39.7977548157216" lon="9.511095840402064"><ele>641.3333333333334</ele><time>2026-05-01T08:12:00Z</time></trkpt><trkpt lat="39.79794701580067" lon="9.511086598148488"><ele>640.6666666666667</ele><time>2026-05-01T08:12:01Z</time></trkpt><trkpt lat="39.798143113242894" lon="9.511080283134028"><ele>640.0</ele><time>2026-05-01T08:12:02Z</time></trkpt><trkpt lat="39.798335698242546" lon="9.511072094832432"><ele>638.6666666666667</ele><time>2026-05-01T08:12:03Z</time></trkpt><trkpt lat="39.79852959174254" lon="9.511076628784137"><ele>637.3333333333334</ele><time>2026-05-01T08:12:04Z</time></trkpt><trkpt lat="39.79872239740654" lon="9.51108885001113"><ele>636.0</ele><time>2026-05-01T08:12:05Z</time></trkpt><trkpt lat="39.79891637837343" lon="9.511100327599925"><ele>636.0</ele><time>2026-05-01T08:12:06Z</time></trkpt><trkpt lat="39.79911088621772" lon="9.511107393966734"><ele>636.0</ele><time>2026-05-01T08:12:07Z</time></trkpt><trkpt lat="39.79930528985377" lon="9.511105920055792"><ele>636.0</ele><time>2026-05-01T08:12:08Z</time></trkpt><trkpt lat="39.799499389699584" lon="9.511106721208995"><ele>635.6666666666666</ele><time>2026-05-01T08:12:09Z</time></trkpt><trkpt lat="39.79969174632409" lon="9.511116136104084"><ele>635.3333333333333</ele><time>2026-05-01T08:12:10Z</time></trkpt><trkpt lat="39.799875612682364" lon="9.511141392670705"><ele>635.0</ele><time>2026-05-01T08:12:11Z</time></trkpt><trkpt lat="39.80005149908532" lon="9.511184759392055"><ele>633.3333333333333</ele><time>2026-05-01T08:12:12Z</time></trkpt><trkpt lat="39.80021857814288" lon="9.511231759348728"><ele>631.6666666666666</ele><time>2026-05-01T08:12:13Z</time></trkpt><trkpt lat="39.80038611292786" lon="9.511253099832876"><ele>630.0</ele><time>2026-05-01T08:12:14Z</time></trkpt><trkpt lat="39.8005667981415" lon="9.511230560208425"><ele>630.0</ele><time>2026-05-01T08:12:15Z</time></trkpt><trkpt lat="39.800745269268184" lon="9.511171738103103"><ele>630.0</ele><time>2026-05-01T08:12:16Z</time></trkpt><trkpt lat="39.80092130233123" lon="9.511094668630053"><ele>630.0</ele><time>2026-05-01T08:12:17Z</time></trkpt><trkpt lat="39.80109150003437" lon="9.511011115733828"><ele>625.6666666666666</ele><time>2026-05-01T08:12:18Z</time></trkpt><trkpt lat="39.80125824917549" lon="9.510928964404622"><ele>621.3333333333333</ele><time>2026-05-01T08:12:19Z</time></trkpt><trkpt lat="39.80142359499658" lon="9.51084931368484"><ele>617.0</ele><time>2026-05-01T08:12:20Z</time></trkpt><trkpt lat="39.801576288601666" lon="9.510784752319584"><ele>617.0</ele><time>2026-05-01T08:12:21Z</time></trkpt><trkpt lat="39.80172702617112" lon="9.51071107837789"><ele>617.0</ele><time>2026-05-01T08:12:22Z</time></trkpt><trkpt lat="39.801870150745735" lon="9.51064240177024"><ele>617.0</ele><time>2026-05-01T08:12:23Z</time></trkpt><trkpt lat="39.80200507208954" lon="9.510580168820692"><ele>616.25</ele><time>2026-05-01T08:12:24Z</time></trkpt><trkpt lat="39.802138476139376" lon="9.51052826974753"><ele>615.5</ele><time>2026-05-01T08:12:25Z</time></trkpt><trkpt lat="39.802268469060664" lon="9.510490556643223"><ele>614.75</ele><time>2026-05-01T08:12:26Z</time></trkpt><trkpt lat="39.802389718740784" lon="9.510458179334162"><ele>614.0</ele><time>2026-05-01T08:12:27Z</time></trkpt><trkpt lat="39.80249778123021" lon="9.51042552361562"><ele>614.1666666666666</ele><time>2026-05-01T08:12:28Z</time></trkpt><trkpt lat="39.80258760955351" lon="9.51040101171434"><ele>614.3333333333333</ele><time>2026-05-01T08:12:29Z</time></trkpt><trkpt lat="39.802653360404335" lon="9.510386649845517"><ele>614.5</ele><time>2026-05-01T08:12:30Z</time></trkpt><trkpt lat="39.80272759301883" lon="9.51037119472542"><ele>614.6666666666666</ele><time>2026-05-01T08:12:32Z</time></trkpt><trkpt lat="39.80280363745199" lon="9.510382468682812"><ele>614.8333333333334</ele><time>2026-05-01T08:12:36Z</time></trkpt><trkpt lat="39.80285376874509" lon="9.51043769158941"><ele>615.0</ele><time>2026-05-01T08:12:40Z</time></trkpt><trkpt lat="39.802908016461615" lon="9.510503855300708"><ele>615.0</ele><time>2026-05-01T08:14:36Z</time></trkpt><trkpt lat="39.80298096649639" lon="9.510502719330015"><ele>615.0</ele><time>2026-05-01T08:14:50Z</time></trkpt><trkpt lat="39.803024070277985" lon="9.510568857641003"><ele>615.0</ele><time>2026-05-01T08:15:44Z</time></trkpt><trkpt lat="39.803002145622024" lon="9.510670494971286"><ele>615.0</ele><time>2026-05-01T08:19:33Z</time></trkpt><trkpt lat="39.80302194601503" lon="9.510552014555724"><ele>615.0</ele><time>2026-05-01T08:20:19Z</time></trkpt><trkpt lat="39.80308304029694" lon="9.510619770519408"><ele>615.0</ele><time>2026-05-01T08:20:43.026Z</time></trkpt><trkpt lat="39.803020997012325" lon="9.51054212178996"><ele>615.0</ele><time>2026-05-01T08:24:53Z</time></trkpt><trkpt lat="39.802966097919665" lon="9.51046697318798"><ele>615.0</ele><time>2026-05-01T08:25:40Z</time></trkpt><trkpt lat="39.80290908903767" lon="9.510430448453809"><ele>615.0</ele><time>2026-05-01T08:32:58Z</time></trkpt><trkpt lat="39.802962801551594" lon="9.510378621396212"><ele>615.0</ele><time>2026-05-01T08:33:06Z</time></trkpt><trkpt lat="39.80307966249779" lon="9.510395980652284"><ele>615.0</ele><time>2026-05-01T08:33:08Z</time></trkpt><trkpt lat="39.803209338703134" lon="9.510432298560325"><ele>615.0</ele><time>2026-05-01T08:33:10Z</time></trkpt><trkpt lat="39.80328310267546" lon="9.510466360625609"><ele>615.0</ele><time>2026-05-01T08:33:11Z</time></trkpt><trkpt lat="39.80335574677297" lon="9.51050695878932"><ele>615.0</ele><time>2026-05-01T08:33:12Z</time></trkpt><trkpt lat="39.80342800407224" lon="9.5105480185482"><ele>615.0</ele><time>2026-05-01T08:33:13Z</time></trkpt><trkpt lat="39.80349684621293" lon="9.510577900711624"><ele>615.0</ele><time>2026-05-01T08:33:14Z</time></trkpt><trkpt lat="39.80355990626993" lon="9.510578384304834"><ele>615.0</ele><time>2026-05-01T08:33:15Z</time></trkpt><trkpt lat="39.80365692538599" lon="9.5104981574653"><ele>614.4</ele><time>2026-05-01T08:33:17Z</time></trkpt><trkpt lat="39.80370201144123" lon="9.51030047964635"><ele>613.8</ele><time>2026-05-01T08:33:19Z</time></trkpt><trkpt lat="39.80375870466282" lon="9.51022973584397"><ele>613.2</ele><time>2026-05-01T08:33:20Z</time></trkpt><trkpt lat="39.80381592803361" lon="9.510158003968401"><ele>612.6</ele><time>2026-05-01T08:33:21Z</time></trkpt><trkpt lat="39.80387555091846" lon="9.510084112482511"><ele>612.0</ele><time>2026-05-01T08:33:22Z</time></trkpt><trkpt lat="39.80392945446621" lon="9.510010909694143"><ele>612.0</ele><time>2026-05-01T08:33:23Z</time></trkpt><trkpt lat="39.803997780101696" lon="9.509933171545143"><ele>612.0</ele><time>2026-05-01T08:33:24Z</time></trkpt><trkpt lat="39.80406255180191" lon="9.509856499560218"><ele>612.0</ele><time>2026-05-01T08:33:25Z</time></trkpt><trkpt lat="39.80412907115734" lon="9.50978092006416"><ele>612.0</ele><time>2026-05-01T08:33:26Z</time></trkpt><trkpt lat="39.804197078400406" lon="9.509704678213723"><ele>612.0</ele><time>2026-05-01T08:33:27Z</time></trkpt><trkpt lat="39.80426510734424" lon="9.50962756857153"><ele>612.0</ele><time>2026-05-01T08:33:28Z</time></trkpt><trkpt lat="39.80433274999387" lon="9.509544810229315"><ele>610.2</ele><time>2026-05-01T08:33:29Z</time></trkpt><trkpt lat="39.80439227526319" lon="9.509451925135329"><ele>608.4000000000001</ele><time>2026-05-01T08:33:30Z</time></trkpt><trkpt lat="39.80443397033444" lon="9.50934384347294"><ele>606.5999999999999</ele><time>2026-05-01T08:33:31Z</time></trkpt><trkpt lat="39.80444665088389" lon="9.509217656778288"><ele>604.8</ele><time>2026-05-01T08:33:32Z</time></trkpt><trkpt lat="39.80442339168851" lon="9.509080110557138"><ele>603.0</ele><time>2026-05-01T08:33:33Z</time></trkpt><trkpt lat="39.804402189624696" lon="9.508956753996692"><ele>603.0</ele><time>2026-05-01T08:33:34Z</time></trkpt><trkpt lat="39.804381735023476" lon="9.508830770966439"><ele>603.0</ele><time>2026-05-01T08:33:35Z</time></trkpt><trkpt lat="39.80439024487509" lon="9.508710334849274"><ele>603.0</ele><time>2026-05-01T08:33:36Z</time></trkpt><trkpt lat="39.80442870242113" lon="9.508598584110798"><ele>603.0</ele><time>2026-05-01T08:33:37Z</time></trkpt><trkpt lat="39.8045008242419" lon="9.508511720325492"><ele>603.0</ele><time>2026-05-01T08:33:38Z</time></trkpt><trkpt lat="39.80459066701986" lon="9.508455960936436"><ele>607.0</ele><time>2026-05-01T08:33:39Z</time></trkpt><trkpt lat="39.80468374868302" lon="9.508387765917044"><ele>611.0</ele><time>2026-05-01T08:33:40Z</time></trkpt><trkpt lat="39.80477942336716" lon="9.50830641780041"><ele>615.0</ele><time>2026-05-01T08:33:41Z</time></trkpt><trkpt lat="39.80486916038255" lon="9.50823677647289"><ele>619.0</ele><time>2026-05-01T08:33:42Z</time></trkpt><trkpt lat="39.804960436915174" lon="9.508150203382417"><ele>623.0</ele><time>2026-05-01T08:33:43Z</time></trkpt><trkpt lat="39.80503893709777" lon="9.508043113224112"><ele>623.0</ele><time>2026-05-01T08:33:44Z</time></trkpt><trkpt lat="39.805104726220826" lon="9.50792020627139"><ele>623.0</ele><time>2026-05-01T08:33:45Z</time></trkpt><trkpt lat="39.805167986954004" lon="9.507793969410198"><ele>623.0</ele><time>2026-05-01T08:33:46Z</time></trkpt><trkpt lat="39.8052206518615" lon="9.50766500040279"><ele>623.0</ele><time>2026-05-01T08:33:47Z</time></trkpt><trkpt lat="39.805266037497645" lon="9.507524563150234"><ele>624.0</ele><time>2026-05-01T08:33:48Z</time></trkpt><trkpt lat="39.80531404922302" lon="9.50738960129632"><ele>625.0</ele><time>2026-05-01T08:33:49Z</time></trkpt><trkpt lat="39.80538847792712" lon="9.507279646295483"><ele>626.0</ele><time>2026-05-01T08:33:50Z</time></trkpt><trkpt lat="39.80548569347305" lon="9.507203082875632"><ele>627.0</ele><time>2026-05-01T08:33:51Z</time></trkpt><trkpt lat="39.80558643217486" lon="9.507152396057826"><ele>628.0</ele><time>2026-05-01T08:33:52Z</time></trkpt><trkpt lat="39.80569278760696" lon="9.507114896659221"><ele>631.5999999999999</ele><time>2026-05-01T08:33:53Z</time></trkpt><trkpt lat="39.80579922279279" lon="9.507072118004583"><ele>635.1999999999999</ele><time>2026-05-01T08:33:54Z</time></trkpt><trkpt lat="39.805904659033736" lon="9.507026072092014"><ele>638.8</ele><time>2026-05-01T08:33:55Z</time></trkpt><trkpt lat="39.80601220963843" lon="9.506981769847693"><ele>642.4</ele><time>2026-05-01T08:33:56Z</time></trkpt><trkpt lat="39.80612168870293" lon="9.506941344906256"><ele>646.0</ele><time>2026-05-01T08:33:57Z</time></trkpt><trkpt lat="39.806235982221125" lon="9.506895805072508"><ele>646.0</ele><time>2026-05-01T08:33:58Z</time></trkpt><trkpt lat="39.806352222680275" lon="9.50684958264862"><ele>646.0</ele><time>2026-05-01T08:33:59Z</time></trkpt><trkpt lat="39.80647769375719" lon="9.50679558314155"><ele>646.0</ele><time>2026-05-01T08:34:00Z</time></trkpt><trkpt lat="39.80660069242346" lon="9.506731213832277"><ele>646.0</ele><time>2026-05-01T08:34:01Z</time></trkpt><trkpt lat="39.80670624535619" lon="9.506644895746957"><ele>646.0</ele><time>2026-05-01T08:34:02Z</time></trkpt><trkpt lat="39.80679497505513" lon="9.506522199544966"><ele>646.0</ele><time>2026-05-01T08:34:03Z</time></trkpt><trkpt lat="39.806859870205635" lon="9.506379863121627"><ele>646.0</ele><time>2026-05-01T08:34:04Z</time></trkpt><trkpt lat="39.80690628909953" lon="9.506227211177027"><ele>646.0</ele><time>2026-05-01T08:34:05Z</time></trkpt><trkpt lat="39.80694887476193" lon="9.506076247681266"><ele>645.0</ele><time>2026-05-01T08:34:06Z</time></trkpt><trkpt lat="39.8070017131162" lon="9.505935013067539"><ele>644.0</ele><time>2026-05-01T08:34:07Z</time></trkpt><trkpt lat="39.8070628273915" lon="9.505799921844234"><ele>643.0</ele><time>2026-05-01T08:34:08Z</time></trkpt><trkpt lat="39.80713148882167" lon="9.50567567766455"><ele>642.0</ele><time>2026-05-01T08:34:09Z</time></trkpt><trkpt lat="39.8072048437646" lon="9.505558482260513"><ele>642.0</ele><time>2026-05-01T08:34:10Z</time></trkpt><trkpt lat="39.80727514450833" lon="9.505440822527758"><ele>642.0</ele><time>2026-05-01T08:34:11Z</time></trkpt><trkpt lat="39.80734146510606" lon="9.505316140091415"><ele>642.0</ele><time>2026-05-01T08:34:12Z</time></trkpt><trkpt lat="39.807396676636046" lon="9.505183394174637"><ele>642.0</ele><time>2026-05-01T08:34:13Z</time></trkpt><trkpt lat="39.80743400498979" lon="9.505037835676996"><ele>646.5</ele><time>2026-05-01T08:34:14Z</time></trkpt><trkpt lat="39.80746036912803" lon="9.504885498353785"><ele>651.0</ele><time>2026-05-01T08:34:15Z</time></trkpt><trkpt lat="39.807491493577444" lon="9.504743182816734"><ele>655.5</ele><time>2026-05-01T08:34:16Z</time></trkpt><trkpt lat="39.807530499308115" lon="9.50461191950801"><ele>660.0</ele><time>2026-05-01T08:34:17Z</time></trkpt><trkpt lat="39.807579002033464" lon="9.504484432560862"><ele>662.0</ele><time>2026-05-01T08:34:18Z</time></trkpt><trkpt lat="39.80764834830207" lon="9.50437430987342"><ele>664.0</ele><time>2026-05-01T08:34:19Z</time></trkpt><trkpt lat="39.807733989585586" lon="9.50428081783606"><ele>666.0</ele><time>2026-05-01T08:34:20Z</time></trkpt><trkpt lat="39.80780463359773" lon="9.504181036645798"><ele>668.0</ele><time>2026-05-01T08:34:21Z</time></trkpt><trkpt lat="39.80785192151614" lon="9.504055677006455"><ele>670.0</ele><time>2026-05-01T08:34:22Z</time></trkpt><trkpt lat="39.80789874573511" lon="9.503926811831404"><ele>670.0</ele><time>2026-05-01T08:34:23Z</time></trkpt><trkpt lat="39.807929350122265" lon="9.503798243926363"><ele>670.0</ele><time>2026-05-01T08:34:24Z</time></trkpt><trkpt lat="39.8079437373836" lon="9.503678473954519"><ele>670.0</ele><time>2026-05-01T08:34:25Z</time></trkpt><trkpt lat="39.80796951093882" lon="9.50357350357812"><ele>670.0</ele><time>2026-05-01T08:34:26Z</time></trkpt><trkpt lat="39.80799177431779" lon="9.503485057083621"><ele>670.0</ele><time>2026-05-01T08:34:27Z</time></trkpt><trkpt lat="39.80801318999971" lon="9.503400846235094"><ele>670.0</ele><time>2026-05-01T08:34:28Z</time></trkpt><trkpt lat="39.8080529578603" lon="9.503276949442984"><ele>670.0</ele><time>2026-05-01T08:34:30Z</time></trkpt><trkpt lat="39.8080900987378" lon="9.503168995375692"><ele>670.0</ele><time>2026-05-01T08:34:32Z</time></trkpt><trkpt lat="39.80813140285569" lon="9.503013395278616"><ele>670.0</ele><time>2026-05-01T08:34:34Z</time></trkpt><trkpt lat="39.808183649302315" lon="9.50293398928034"><ele>670.0</ele><time>2026-05-01T08:34:35Z</time></trkpt><trkpt lat="39.808262003949224" lon="9.50286940084214"><ele>670.0</ele><time>2026-05-01T08:34:36Z</time></trkpt><trkpt lat="39.80835653495552" lon="9.502829683524991"><ele>669.4</ele><time>2026-05-01T08:34:37Z</time></trkpt><trkpt lat="39.80845708842786" lon="9.502810977030217"><ele>668.8</ele><time>2026-05-01T08:34:38Z</time></trkpt><trkpt lat="39.8085483299489" lon="9.502774669117994"><ele>668.2</ele><time>2026-05-01T08:34:39Z</time></trkpt><trkpt lat="39.808641340455615" lon="9.502710960521652"><ele>667.6</ele><time>2026-05-01T08:34:40Z</time></trkpt><trkpt lat="39.80873271327117" lon="9.502620253466205"><ele>667.0</ele><time>2026-05-01T08:34:41Z</time></trkpt><trkpt lat="39.80879041185795" lon="9.502512934812538"><ele>667.0</ele><time>2026-05-01T08:34:42Z</time></trkpt><trkpt lat="39.808817245741196" lon="9.502392912811004"><ele>667.0</ele><time>2026-05-01T08:34:43Z</time></trkpt><trkpt lat="39.80879802816761" lon="9.502279840947136"><ele>667.0</ele><time>2026-05-01T08:34:44Z</time></trkpt><trkpt lat="39.80873864578491" lon="9.502167997989618"><ele>667.0</ele><time>2026-05-01T08:34:45Z</time></trkpt><trkpt lat="39.80869748640023" lon="9.50204113656116"><ele>667.0</ele><time>2026-05-01T08:34:46Z</time></trkpt><trkpt lat="39.80864061241316" lon="9.50192877477807"><ele>669.2</ele><time>2026-05-01T08:34:47Z</time></trkpt><trkpt lat="39.80863441833617" lon="9.501784834412538"><ele>671.4000000000001</ele><time>2026-05-01T08:34:48Z</time></trkpt><trkpt lat="39.808610294575544" lon="9.501648874580729"><ele>673.5999999999999</ele><time>2026-05-01T08:34:49Z</time></trkpt><trkpt lat="39.80862608530902" lon="9.501519122871464"><ele>675.8</ele><time>2026-05-01T08:34:50Z</time></trkpt><trkpt lat="39.80867513911247" lon="9.50140134086056"><ele>678.0</ele><time>2026-05-01T08:34:51Z</time></trkpt><trkpt lat="39.80874979174738" lon="9.501312404453932"><ele>678.0</ele><time>2026-05-01T08:34:52Z</time></trkpt><trkpt lat="39.80884872806923" lon="9.501258908746394"><ele>678.0</ele><time>2026-05-01T08:34:53Z</time></trkpt><trkpt lat="39.80894544672324" lon="9.501220186446806"><ele>678.0</ele><time>2026-05-01T08:34:54Z</time></trkpt><trkpt lat="39.80902785000466" lon="9.50116789043588"><ele>678.0</ele><time>2026-05-01T08:34:55Z</time></trkpt><trkpt lat="39.80910441857435" lon="9.501136867409576"><ele>678.0</ele><time>2026-05-01T08:34:56Z</time></trkpt><trkpt lat="39.80918239920717" lon="9.501111721847588"><ele>678.8333333333334</ele><time>2026-05-01T08:34:57Z</time></trkpt><trkpt lat="39.80925613548513" lon="9.501072747471431"><ele>679.6666666666666</ele><time>2026-05-01T08:34:58Z</time></trkpt><trkpt lat="39.80932267653354" lon="9.501020070550432"><ele>680.5</ele><time>2026-05-01T08:34:59Z</time></trkpt><trkpt lat="39.80939475784038" lon="9.500971158554162"><ele>681.3333333333333</ele><time>2026-05-01T08:35:00Z</time></trkpt><trkpt lat="39.80947522230909" lon="9.500913838537794"><ele>682.1666666666666</ele><time>2026-05-01T08:35:01Z</time></trkpt><trkpt lat="39.8095438437415" lon="9.500859604108257"><ele>683.0</ele><time>2026-05-01T08:35:02Z</time></trkpt><trkpt lat="39.80961632830945" lon="9.500809678648782"><ele>683.0</ele><time>2026-05-01T08:35:03Z</time></trkpt><trkpt lat="39.80968204926336" lon="9.50075689096468"><ele>683.0</ele><time>2026-05-01T08:35:04Z</time></trkpt><trkpt lat="39.80974329223426" lon="9.500700330307264"><ele>683.0</ele><time>2026-05-01T08:35:05Z</time></trkpt><trkpt lat="39.809808761146705" lon="9.500645315908006"><ele>683.0</ele><time>2026-05-01T08:35:06Z</time></trkpt><trkpt lat="39.809829209722736" lon="9.500537243296138"><ele>683.0</ele><time>2026-05-01T08:35:07Z</time></trkpt><trkpt lat="39.80985712431154" lon="9.500455297530726"><ele>683.0</ele><time>2026-05-01T08:35:08Z</time></trkpt><trkpt lat="39.80992786382766" lon="9.500328468212022"><ele>685.2</ele><time>2026-05-01T08:35:10Z</time></trkpt><trkpt lat="39.8100383708174" lon="9.500262641601397"><ele>687.4</ele><time>2026-05-01T08:35:12Z</time></trkpt><trkpt lat="39.81014124341705" lon="9.500179730866298"><ele>689.6</ele><time>2026-05-01T08:35:14Z</time></trkpt><trkpt lat="39.810257816102286" lon="9.500113802036644"><ele>691.8000000000001</ele><time>2026-05-01T08:35:16Z</time></trkpt><trkpt lat="39.81031796262298" lon="9.500081974325646"><ele>694.0</ele><time>2026-05-01T08:35:17Z</time></trkpt><trkpt lat="39.81037883406661" lon="9.500041422044214"><ele>694.0</ele><time>2026-05-01T08:35:18Z</time></trkpt><trkpt lat="39.8104357880536" lon="9.49998831594034"><ele>694.0</ele><time>2026-05-01T08:35:19Z</time></trkpt><trkpt lat="39.81050494975055" lon="9.49994908595013"><ele>694.0</ele><time>2026-05-01T08:35:20Z</time></trkpt><trkpt lat="39.81056453859348" lon="9.499876378336095"><ele>694.0</ele><time>2026-05-01T08:35:21Z</time></trkpt><trkpt lat="39.810601605282564" lon="9.499781468271346"><ele>694.0</ele><time>2026-05-01T08:35:22Z</time></trkpt><trkpt lat="39.81065921389212" lon="9.499712748250666"><ele>694.0</ele><time>2026-05-01T08:35:23Z</time></trkpt><trkpt lat="39.81071641929636" lon="9.499651279057288"><ele>694.0</ele><time>2026-05-01T08:35:24Z</time></trkpt><trkpt lat="39.810770577986105" lon="9.499587243357654"><ele>694.0</ele><time>2026-05-01T08:35:25Z</time></trkpt><trkpt lat="39.810834599034" lon="9.499544992005612"><ele>694.0</ele><time>2026-05-01T08:35:26Z</time></trkpt><trkpt lat="39.81088321836162" lon="9.499476993028384"><ele>694.0</ele><time>2026-05-01T08:35:27Z</time></trkpt><trkpt lat="39.81095332746346" lon="9.499450292763012"><ele>694.0</ele><time>2026-05-01T08:35:28Z</time></trkpt><trkpt lat="39.81102701661219" lon="9.499437763140447"><ele>694.0</ele><time>2026-05-01T08:35:29Z</time></trkpt><trkpt lat="39.811102270616644" lon="9.499448826981762"><ele>694.0</ele><time>2026-05-01T08:35:30Z</time></trkpt><trkpt lat="39.81116961693823" lon="9.499483284193744"><ele>695.6666666666667</ele><time>2026-05-01T08:35:31Z</time></trkpt><trkpt lat="39.81123562992501" lon="9.499531919157766"><ele>697.3333333333334</ele><time>2026-05-01T08:35:32Z</time></trkpt><trkpt lat="39.811300122724596" lon="9.499588567439988"><ele>699.0</ele><time>2026-05-01T08:35:33Z</time></trkpt><trkpt lat="39.811361157165784" lon="9.499652816247568"><ele>700.6666666666666</ele><time>2026-05-01T08:35:34Z</time></trkpt><trkpt lat="39.81140416935319" lon="9.499735097683102"><ele>702.3333333333333</ele><time>2026-05-01T08:35:35Z</time></trkpt><trkpt lat="39.811432356360854" lon="9.499824215159085"><ele>704.0</ele><time>2026-05-01T08:35:36Z</time></trkpt><trkpt lat="39.8114465316251" lon="9.499920385807394"><ele>704.0</ele><time>2026-05-01T08:35:37Z</time></trkpt><trkpt lat="39.811453249942396" lon="9.500013816090894"><ele>704.0</ele><time>2026-05-01T08:35:38Z</time></trkpt><trkpt lat="39.81147020041378" lon="9.500102035300058"><ele>704.0</ele><time>2026-05-01T08:35:39Z</time></trkpt><trkpt lat="39.81149699296323" lon="9.50019356885208"><ele>704.0</ele><time>2026-05-01T08:35:40Z</time></trkpt><trkpt lat="39.81153259212893" lon="9.500279567608276"><ele>704.0</ele><time>2026-05-01T08:35:41Z</time></trkpt><trkpt lat="39.81158008024105" lon="9.500354566433645"><ele>704.0</ele><time>2026-05-01T08:35:42Z</time></trkpt><trkpt lat="39.81162791794712" lon="9.500428576469874"><ele>704.0</ele><time>2026-05-01T08:35:43Z</time></trkpt><trkpt lat="39.81167133162518" lon="9.500508069199606"><ele>700.5</ele><time>2026-05-01T08:35:44Z</time></trkpt><trkpt lat="39.81172400020637" lon="9.50058203647068"><ele>697.0</ele><time>2026-05-01T08:35:45Z</time></trkpt><trkpt lat="39.81177792235096" lon="9.500645737540154"><ele>693.5</ele><time>2026-05-01T08:35:46Z</time></trkpt><trkpt lat="39.81183700944767" lon="9.500720582142298"><ele>690.0</ele><time>2026-05-01T08:35:47Z</time></trkpt><trkpt lat="39.81189822719823" lon="9.500799727787031"><ele>686.5</ele><time>2026-05-01T08:35:48Z</time></trkpt><trkpt lat="39.81195957417829" lon="9.50088020438982"><ele>683.0</ele><time>2026-05-01T08:35:49Z</time></trkpt><trkpt lat="39.81203970721599" lon="9.500936387848208"><ele>683.0</ele><time>2026-05-01T08:35:50Z</time></trkpt><trkpt lat="39.812125317686125" lon="9.500963368702426"><ele>683.0</ele><time>2026-05-01T08:35:51Z</time></trkpt><trkpt lat="39.812209762751586" lon="9.500962008662668"><ele>683.0</ele><time>2026-05-01T08:35:52Z</time></trkpt><trkpt lat="39.812290373208455" lon="9.500934457931926"><ele>683.0</ele><time>2026-05-01T08:35:53Z</time></trkpt><trkpt lat="39.812367166840325" lon="9.500880224525414"><ele>683.0</ele><time>2026-05-01T08:35:54Z</time></trkpt><trkpt lat="39.81243103682222" lon="9.500814623163953"><ele>683.0</ele><time>2026-05-01T08:35:55Z</time></trkpt><trkpt lat="39.81250219459562" lon="9.50077621640796"><ele>683.0</ele><time>2026-05-01T08:35:56Z</time></trkpt><trkpt lat="39.812579974340146" lon="9.50075533606087"><ele>683.0</ele><time>2026-05-01T08:35:57Z</time></trkpt><trkpt lat="39.81265341182418" lon="9.500765705724602"><ele>683.0</ele><time>2026-05-01T08:35:58Z</time></trkpt><trkpt lat="39.812720129255915" lon="9.500808665211238"><ele>683.0</ele><time>2026-05-01T08:35:59Z</time></trkpt><trkpt lat="39.81278970811" lon="9.500840745454653"><ele>683.0</ele><time>2026-05-01T08:36:00Z</time></trkpt><trkpt lat="39.81286373571844" lon="9.500851364663708"><ele>683.0</ele><time>2026-05-01T08:36:01Z</time></trkpt><trkpt lat="39.81294337130135" lon="9.500861899498016"><ele>682.0</ele><time>2026-05-01T08:36:02Z</time></trkpt><trkpt lat="39.81302921280426" lon="9.500869929885758"><ele>681.0</ele><time>2026-05-01T08:36:03Z</time></trkpt><trkpt lat="39.81312257686084" lon="9.50086842643138"><ele>680.0</ele><time>2026-05-01T08:36:04Z</time></trkpt><trkpt lat="39.813221397869626" lon="9.50085322039328"><ele>679.0</ele><time>2026-05-01T08:36:05Z</time></trkpt><trkpt lat="39.813318447187264" lon="9.50084451014594"><ele>678.0</ele><time>2026-05-01T08:36:06Z</time></trkpt><trkpt lat="39.81341691123147" lon="9.500842729711918"><ele>676.4</ele><time>2026-05-01T08:36:07Z</time></trkpt><trkpt lat="39.813514914403775" lon="9.500852794037225"><ele>674.8</ele><time>2026-05-01T08:36:08Z</time></trkpt><trkpt lat="39.81361570261947" lon="9.500864554982442"><ele>673.2</ele><time>2026-05-01T08:36:09Z</time></trkpt><trkpt lat="39.81371533797683" lon="9.500874720411344"><ele>671.6</ele><time>2026-05-01T08:36:10Z</time></trkpt><trkpt lat="39.813818437498206" lon="9.50088595354676"><ele>670.0</ele><time>2026-05-01T08:36:11Z</time></trkpt><trkpt lat="39.81391864258751" lon="9.500882315313103"><ele>670.0</ele><time>2026-05-01T08:36:12Z</time></trkpt><trkpt lat="39.814014643235325" lon="9.500833856217305"><ele>670.0</ele><time>2026-05-01T08:36:13Z</time></trkpt><trkpt lat="39.81410192284287" lon="9.500757776763146"><ele>670.0</ele><time>2026-05-01T08:36:14Z</time></trkpt><trkpt lat="39.81419901528946" lon="9.50070103879029"><ele>670.0</ele><time>2026-05-01T08:36:15Z</time></trkpt><trkpt lat="39.814317355867466" lon="9.500676338452418"><ele>670.0</ele><time>2026-05-01T08:36:16Z</time></trkpt><trkpt lat="39.81443962708313" lon="9.500661598343765"><ele>665.5</ele><time>2026-05-01T08:36:17Z</time></trkpt><trkpt lat="39.8145641003309" lon="9.500640413811205"><ele>661.0</ele><time>2026-05-01T08:36:18Z</time></trkpt><trkpt lat="39.81468870605474" lon="9.500610629530586"><ele>656.5</ele><time>2026-05-01T08:36:19Z</time></trkpt><trkpt lat="39.81480934679765" lon="9.500562673890084"><ele>652.0</ele><time>2026-05-01T08:36:20Z</time></trkpt><trkpt lat="39.81492222514646" lon="9.500497842315257"><ele>652.5</ele><time>2026-05-01T08:36:21Z</time></trkpt><trkpt lat="39.81502332534965" lon="9.500407624154267"><ele>653.0</ele><time>2026-05-01T08:36:22Z</time></trkpt><trkpt lat="39.81510106370482" lon="9.500288450272308"><ele>653.5</ele><time>2026-05-01T08:36:23Z</time></trkpt><trkpt lat="39.81516044933417" lon="9.500149731263013"><ele>654.0</ele><time>2026-05-01T08:36:24Z</time></trkpt><trkpt lat="39.815227131752536" lon="9.50002291924851"><ele>654.0</ele><time>2026-05-01T08:36:25Z</time></trkpt><trkpt lat="39.81530316267504" lon="9.499907716387739"><ele>654.0</ele><time>2026-05-01T08:36:26Z</time></trkpt><trkpt lat="39.81539298977902" lon="9.49981101053757"><ele>654.0</ele><time>2026-05-01T08:36:27Z</time></trkpt><trkpt lat="39.81550264514257" lon="9.499763474358831"><ele>654.0</ele><time>2026-05-01T08:36:28Z</time></trkpt><trkpt lat="39.81562518530271" lon="9.499759431476503"><ele>654.0</ele><time>2026-05-01T08:36:29Z</time></trkpt><trkpt lat="39.81573899301877" lon="9.499762824761325"><ele>654.0</ele><time>2026-05-01T08:36:30Z</time></trkpt><trkpt lat="39.815854252971654" lon="9.499756198822183"><ele>654.0</ele><time>2026-05-01T08:36:31Z</time></trkpt><trkpt lat="39.8159695428797" lon="9.499738460377012"><ele>654.0</ele><time>2026-05-01T08:36:32Z</time></trkpt><trkpt lat="39.81607816304986" lon="9.499704297628314"><ele>654.25</ele><time>2026-05-01T08:36:33Z</time></trkpt><trkpt lat="39.81619194208878" lon="9.499667247000136"><ele>654.5</ele><time>2026-05-01T08:36:34Z</time></trkpt><trkpt lat="39.816315220085414" lon="9.49965500079444"><ele>654.75</ele><time>2026-05-01T08:36:35Z</time></trkpt><trkpt lat="39.816433999982344" lon="9.49968823276399"><ele>655.0</ele><time>2026-05-01T08:36:36Z</time></trkpt><trkpt lat="39.8165513971414" lon="9.49973128140065"><ele>655.0</ele><time>2026-05-01T08:36:37Z</time></trkpt><trkpt lat="39.816674204339336" lon="9.499765795975822"><ele>655.0</ele><time>2026-05-01T08:36:38Z</time></trkpt><trkpt lat="39.81680212284981" lon="9.499793922529813"><ele>655.0</ele><time>2026-05-01T08:36:39Z</time></trkpt><trkpt lat="39.816932841851944" lon="9.499825151241412"><ele>655.0</ele><time>2026-05-01T08:36:40Z</time></trkpt><trkpt lat="39.81706504549638" lon="9.499860624620116"><ele>653.25</ele><time>2026-05-01T08:36:41Z</time></trkpt><trkpt lat="39.81719919825287" lon="9.499897528792767"><ele>651.5</ele><time>2026-05-01T08:36:42Z</time></trkpt><trkpt lat="39.81733649143171" lon="9.499922445854866"><ele>649.75</ele><time>2026-05-01T08:36:43Z</time></trkpt><trkpt lat="39.817467641300276" lon="9.499948135034062"><ele>648.0</ele><time>2026-05-01T08:36:44Z</time></trkpt><trkpt lat="39.81759388709608" lon="9.499979219512221"><ele>644.75</ele><time>2026-05-01T08:36:45Z</time></trkpt><trkpt lat="39.817716953320534" lon="9.500000862989506"><ele>641.5</ele><time>2026-05-01T08:36:46Z</time></trkpt><trkpt lat="39.81783601673531" lon="9.499993363080321"><ele>638.25</ele><time>2026-05-01T08:36:47Z</time></trkpt><trkpt lat="39.81795024836949" lon="9.49995093417734"><ele>635.0</ele><time>2026-05-01T08:36:48Z</time></trkpt><trkpt lat="39.81805119012609" lon="9.49986051586706"><ele>635.0</ele><time>2026-05-01T08:36:49Z</time></trkpt><trkpt lat="39.81813401384283" lon="9.499738128231836"><ele>635.0</ele><time>2026-05-01T08:36:50Z</time></trkpt><trkpt lat="39.8182151383161" lon="9.499609474932958"><ele>635.0</ele><time>2026-05-01T08:36:51Z</time></trkpt><trkpt lat="39.81830096743307" lon="9.499483488463826"><ele>635.0</ele><time>2026-05-01T08:36:52Z</time></trkpt><trkpt lat="39.81839198081653" lon="9.49935778638227"><ele>631.5</ele><time>2026-05-01T08:36:53Z</time></trkpt><trkpt lat="39.818491565739976" lon="9.499245036863867"><ele>628.0</ele><time>2026-05-01T08:36:54Z</time></trkpt><trkpt lat="39.818601916843214" lon="9.499148693099915"><ele>624.5</ele><time>2026-05-01T08:36:55Z</time></trkpt><trkpt lat="39.818702944930436" lon="9.499044474428652"><ele>621.0</ele><time>2026-05-01T08:36:56Z</time></trkpt><trkpt lat="39.818771205359276" lon="9.498919069126684"><ele>621.0</ele><time>2026-05-01T08:36:57Z</time></trkpt><trkpt lat="39.81879664638058" lon="9.498768232702236"><ele>621.0</ele><time>2026-05-01T08:36:58Z</time></trkpt><trkpt lat="39.81878172785877" lon="9.498604391059388"><ele>621.0</ele><time>2026-05-01T08:36:59Z</time></trkpt><trkpt lat="39.818759950612524" lon="9.498451514869936"><ele>621.0</ele><time>2026-05-01T08:37:00Z</time></trkpt><trkpt lat="39.81872614810925" lon="9.498305891935535"><ele>623.4</ele><time>2026-05-01T08:37:01Z</time></trkpt><trkpt lat="39.81870084861704" lon="9.498159723036775"><ele>625.8</ele><time>2026-05-01T08:37:02Z</time></trkpt><trkpt lat="39.8186944625125" lon="9.498017067298193"><ele>628.1999999999999</ele><time>2026-05-01T08:37:03Z</time></trkpt><trkpt lat="39.81872656199342" lon="9.497882750365234"><ele>630.6</ele><time>2026-05-01T08:37:04Z</time></trkpt><trkpt lat="39.818811074400415" lon="9.497783845740852"><ele>633.0</ele><time>2026-05-01T08:37:05Z</time></trkpt><trkpt lat="39.81889282909161" lon="9.497682677787527"><ele>637.5</ele><time>2026-05-01T08:37:06Z</time></trkpt><trkpt lat="39.81901013696396" lon="9.497640575422922"><ele>642.0</ele><time>2026-05-01T08:37:07Z</time></trkpt><trkpt lat="39.8191168912379" lon="9.497575101108119"><ele>646.5</ele><time>2026-05-01T08:37:08Z</time></trkpt><trkpt lat="39.819240770276444" lon="9.49754454985533"><ele>651.0</ele><time>2026-05-01T08:37:09Z</time></trkpt><trkpt lat="39.81936860446038" lon="9.497522603857284"><ele>651.25</ele><time>2026-05-01T08:37:10Z</time></trkpt><trkpt lat="39.8194957737112" lon="9.497522847574938"><ele>651.5</ele><time>2026-05-01T08:37:11Z</time></trkpt><trkpt lat="39.81962135766844" lon="9.497526776293117"><ele>651.75</ele><time>2026-05-01T08:37:12Z</time></trkpt><trkpt lat="39.81974181954729" lon="9.497535724956139"><ele>652.0</ele><time>2026-05-01T08:37:13Z</time></trkpt><trkpt lat="39.81985017572966" lon="9.49757529990174"><ele>652.0</ele><time>2026-05-01T08:37:14Z</time></trkpt><trkpt lat="39.8199488917677" lon="9.497640562071835"><ele>652.0</ele><time>2026-05-01T08:37:15Z</time></trkpt><trkpt lat="39.8200367611929" lon="9.497714110055627"><ele>652.0</ele><time>2026-05-01T08:37:16Z</time></trkpt><trkpt lat="39.820123381741055" lon="9.497777069286292"><ele>652.0</ele><time>2026-05-01T08:37:17Z</time></trkpt><trkpt lat="39.82020672979163" lon="9.497816358034793"><ele>652.0</ele><time>2026-05-01T08:37:18Z</time></trkpt><trkpt lat="39.82028731757513" lon="9.497838494041964"><ele>652.8</ele><time>2026-05-01T08:37:19Z</time></trkpt><trkpt lat="39.820363738126595" lon="9.49784664095586"><ele>653.6</ele><time>2026-05-01T08:37:20Z</time></trkpt><trkpt lat="39.820433885006885" lon="9.497839936074906"><ele>654.4</ele><time>2026-05-01T08:37:21Z</time></trkpt><trkpt lat="39.82050011646111" lon="9.497831843270856"><ele>655.1999999999999</ele><time>2026-05-01T08:37:22Z</time></trkpt><trkpt lat="39.82062361139761" lon="9.497827954852426"><ele>656.0</ele><time>2026-05-01T08:37:24Z</time></trkpt><trkpt lat="39.82074615094889" lon="9.497874051850307"><ele>656.0</ele><time>2026-05-01T08:37:26Z</time></trkpt><trkpt lat="39.82081066365559" lon="9.497897575043254"><ele>656.0</ele><time>2026-05-01T08:37:27Z</time></trkpt><trkpt lat="39.820879570342385" lon="9.497909193743032"><ele>656.0</ele><time>2026-05-01T08:37:28Z</time></trkpt><trkpt lat="39.82095476800646" lon="9.497916548420235"><ele>656.0</ele><time>2026-05-01T08:37:29Z</time></trkpt><trkpt lat="39.821034289775085" lon="9.497913230795495"><ele>656.0</ele><time>2026-05-01T08:37:30Z</time></trkpt><trkpt lat="39.821117340566" lon="9.49789166599782"><ele>656.0</ele><time>2026-05-01T08:37:31Z</time></trkpt><trkpt lat="39.82119622010077" lon="9.497843445307897"><ele>654.1666666666666</ele><time>2026-05-01T08:37:32Z</time></trkpt><trkpt lat="39.821264707042815" lon="9.497777030229035"><ele>652.3333333333333</ele><time>2026-05-01T08:37:33Z</time></trkpt><trkpt lat="39.82132617360394" lon="9.497700775691051"><ele>650.5</ele><time>2026-05-01T08:37:34Z</time></trkpt><trkpt lat="39.82137607624226" lon="9.497615037369322"><ele>648.6666666666666</ele><time>2026-05-01T08:37:35Z</time></trkpt><trkpt lat="39.821422723416575" lon="9.497532711709894"><ele>646.8333333333334</ele><time>2026-05-01T08:37:36Z</time></trkpt><trkpt lat="39.821469498914105" lon="9.497455877123532"><ele>645.0</ele><time>2026-05-01T08:37:37Z</time></trkpt><trkpt lat="39.821514479842406" lon="9.497384059466757"><ele>645.0</ele><time>2026-05-01T08:37:38Z</time></trkpt><trkpt lat="39.82155570527336" lon="9.49731724431186"><ele>645.0</ele><time>2026-05-01T08:37:39Z</time></trkpt><trkpt lat="39.821600387765926" lon="9.497256797420487"><ele>645.0</ele><time>2026-05-01T08:37:40Z</time></trkpt><trkpt lat="39.82167905707083" lon="9.49714512143511"><ele>645.0</ele><time>2026-05-01T08:37:42Z</time></trkpt><trkpt lat="39.821734060140294" lon="9.497095196623674"><ele>645.0</ele><time>2026-05-01T08:37:43Z</time></trkpt><trkpt lat="39.821790885805285" lon="9.497054860712907"><ele>645.0</ele><time>2026-05-01T08:37:44Z</time></trkpt><trkpt lat="39.82185363066606" lon="9.49702939650188"><ele>645.0</ele><time>2026-05-01T08:37:45Z</time></trkpt><trkpt lat="39.82191899210019" lon="9.497000013144609"><ele>644.8333333333334</ele><time>2026-05-01T08:37:46Z</time></trkpt><trkpt lat="39.821995770098056" lon="9.496979459701635"><ele>644.6666666666666</ele><time>2026-05-01T08:37:47Z</time></trkpt><trkpt lat="39.82207126042138" lon="9.496945065136774"><ele>644.5</ele><time>2026-05-01T08:37:48Z</time></trkpt><trkpt lat="39.822139346788006" lon="9.496881059893461"><ele>644.3333333333333</ele><time>2026-05-01T08:37:49Z</time></trkpt><trkpt lat="39.82222963455837" lon="9.496875465241821"><ele>644.1666666666666</ele><time>2026-05-01T08:37:50Z</time></trkpt><trkpt lat="39.8223304157788" lon="9.496856876291949"><ele>644.0</ele><time>2026-05-01T08:37:51Z</time></trkpt><trkpt lat="39.822435307751626" lon="9.496822678267336"><ele>644.0</ele><time>2026-05-01T08:37:52Z</time></trkpt><trkpt lat="39.82253806896884" lon="9.49678760025594"><ele>644.0</ele><time>2026-05-01T08:37:53Z</time></trkpt><trkpt lat="39.822638099003534" lon="9.496753861488207"><ele>644.0</ele><time>2026-05-01T08:37:54Z</time></trkpt><trkpt lat="39.82273494005659" lon="9.496741048588389"><ele>644.0</ele><time>2026-05-01T08:37:55Z</time></trkpt><trkpt lat="39.82282023207934" lon="9.496687785474908"><ele>644.0</ele><time>2026-05-01T08:37:56Z</time></trkpt><trkpt lat="39.8229019646901" lon="9.496648240467207"><ele>645.0</ele><time>2026-05-01T08:37:57Z</time></trkpt><trkpt lat="39.82298627060488" lon="9.496604909285043"><ele>646.0</ele><time>2026-05-01T08:37:58Z</time></trkpt><trkpt lat="39.82304857361959" lon="9.49651449777367"><ele>647.0</ele><time>2026-05-01T08:37:59Z</time></trkpt><trkpt lat="39.82308347897332" lon="9.496406383164757"><ele>648.0</ele><time>2026-05-01T08:38:00Z</time></trkpt><trkpt lat="39.82313222127247" lon="9.496318195511279"><ele>649.0</ele><time>2026-05-01T08:38:01Z</time></trkpt><trkpt lat="39.82318935590962" lon="9.496235612221922"><ele>650.0</ele><time>2026-05-01T08:38:02Z</time></trkpt><trkpt lat="39.82325658257229" lon="9.49617602450328"><ele>650.0</ele><time>2026-05-01T08:38:03Z</time></trkpt><trkpt lat="39.823333187879996" lon="9.496141745177049"><ele>650.0</ele><time>2026-05-01T08:38:04Z</time></trkpt><trkpt lat="39.82341850515552" lon="9.496148799256957"><ele>650.0</ele><time>2026-05-01T08:38:05Z</time></trkpt><trkpt lat="39.823507731786044" lon="9.4961637637895"><ele>650.0</ele><time>2026-05-01T08:38:06Z</time></trkpt><trkpt lat="39.823561423755166" lon="9.49627542559382"><ele>650.0</ele><time>2026-05-01T08:38:07Z</time></trkpt><trkpt lat="39.8236274365241" lon="9.49635856866059"><ele>650.0</ele><time>2026-05-01T08:38:08Z</time></trkpt><trkpt lat="39.823696670297515" lon="9.496443756855475"><ele>645.2</ele><time>2026-05-01T08:38:09Z</time></trkpt><trkpt lat="39.823774464193534" lon="9.496526617335686"><ele>640.4</ele><time>2026-05-01T08:38:10Z</time></trkpt><trkpt lat="39.82385997335834" lon="9.496601287282777"><ele>635.6</ele><time>2026-05-01T08:38:11Z</time></trkpt><trkpt lat="39.82394994203868" lon="9.49667201081714"><ele>630.8</ele><time>2026-05-01T08:38:12Z</time></trkpt><trkpt lat="39.82404908751942" lon="9.496739008529804"><ele>626.0</ele><time>2026-05-01T08:38:13Z</time></trkpt><trkpt lat="39.82415560632526" lon="9.49678724247038"><ele>626.0</ele><time>2026-05-01T08:38:14Z</time></trkpt><trkpt lat="39.82426544087515" lon="9.496824791470956"><ele>626.0</ele><time>2026-05-01T08:38:15Z</time></trkpt><trkpt lat="39.824372486098866" lon="9.496840253217883"><ele>626.0</ele><time>2026-05-01T08:38:16Z</time></trkpt><trkpt lat="39.824469086097395" lon="9.49679848993137"><ele>626.0</ele><time>2026-05-01T08:38:17Z</time></trkpt><trkpt lat="39.82454739615381" lon="9.496701791721419"><ele>626.0</ele><time>2026-05-01T08:38:18Z</time></trkpt><trkpt lat="39.824625246193456" lon="9.496588931587924"><ele>621.25</ele><time>2026-05-01T08:38:19Z</time></trkpt><trkpt lat="39.8247347906945" lon="9.496525062560027"><ele>616.5</ele><time>2026-05-01T08:38:20Z</time></trkpt><trkpt lat="39.82485347184192" lon="9.496460811747413"><ele>611.75</ele><time>2026-05-01T08:38:21Z</time></trkpt><trkpt lat="39.82496496342448" lon="9.496381584876232"><ele>607.0</ele><time>2026-05-01T08:38:22Z</time></trkpt><trkpt lat="39.82508411923675" lon="9.496316418669775"><ele>606.75</ele><time>2026-05-01T08:38:23Z</time></trkpt><trkpt lat="39.82520953595275" lon="9.496244611114369"><ele>606.5</ele><time>2026-05-01T08:38:24Z</time></trkpt><trkpt lat="39.82533722977344" lon="9.496170090849892"><ele>606.25</ele><time>2026-05-01T08:38:25Z</time></trkpt><trkpt lat="39.825468539569506" lon="9.49609947495473"><ele>606.0</ele><time>2026-05-01T08:38:26Z</time></trkpt><trkpt lat="39.82560138154384" lon="9.496030423637896"><ele>606.0</ele><time>2026-05-01T08:38:27Z</time></trkpt><trkpt lat="39.825728686714776" lon="9.495957645986753"><ele>606.0</ele><time>2026-05-01T08:38:28Z</time></trkpt><trkpt lat="39.82584654994318" lon="9.495869263331336"><ele>606.0</ele><time>2026-05-01T08:38:29Z</time></trkpt><trkpt lat="39.8259521236965" lon="9.495757311817657"><ele>606.0</ele><time>2026-05-01T08:38:30Z</time></trkpt><trkpt lat="39.826044870849515" lon="9.495631775481408"><ele>603.25</ele><time>2026-05-01T08:38:31Z</time></trkpt><trkpt lat="39.82613706893619" lon="9.49550992175677"><ele>600.5</ele><time>2026-05-01T08:38:32Z</time></trkpt><trkpt lat="39.82623158528032" lon="9.49538829023077"><ele>597.75</ele><time>2026-05-01T08:38:33Z</time></trkpt><trkpt lat="39.82632555577133" lon="9.49526792196013"><ele>595.0</ele><time>2026-05-01T08:38:34Z</time></trkpt><trkpt lat="39.8264213826633" lon="9.495146765815896"><ele>595.0</ele><time>2026-05-01T08:38:35Z</time></trkpt><trkpt lat="39.82651370764718" lon="9.495012893729143"><ele>595.0</ele><time>2026-05-01T08:38:36Z</time></trkpt><trkpt lat="39.82659698825277" lon="9.494868869406039"><ele>595.0</ele><time>2026-05-01T08:38:37Z</time></trkpt><trkpt lat="39.82667799188817" lon="9.494724430741062"><ele>595.0</ele><time>2026-05-01T08:38:38Z</time></trkpt><trkpt lat="39.82676342586382" lon="9.494587174571182"><ele>592.75</ele><time>2026-05-01T08:38:39Z</time></trkpt><trkpt lat="39.82686134450503" lon="9.494475896162479"><ele>590.5</ele><time>2026-05-01T08:38:40Z</time></trkpt><trkpt lat="39.8269791776148" lon="9.494412717003826"><ele>588.25</ele><time>2026-05-01T08:38:41Z</time></trkpt><trkpt lat="39.82709932109269" lon="9.494387855090272"><ele>586.0</ele><time>2026-05-01T08:38:42Z</time></trkpt><trkpt lat="39.82718767257784" lon="9.494319060087363"><ele>586.0</ele><time>2026-05-01T08:38:43Z</time></trkpt><trkpt lat="39.827242102025586" lon="9.49419227598415"><ele>586.0</ele><time>2026-05-01T08:38:44Z</time></trkpt><trkpt lat="39.827269074175156" lon="9.494051208961903"><ele>586.0</ele><time>2026-05-01T08:38:45Z</time></trkpt><trkpt lat="39.82730653776712" lon="9.49391430414993"><ele>586.0</ele><time>2026-05-01T08:38:46Z</time></trkpt><trkpt lat="39.82734730871399" lon="9.493782965692477"><ele>586.0</ele><time>2026-05-01T08:38:47Z</time></trkpt><trkpt lat="39.827399818925564" lon="9.493674391474114"><ele>588.6</ele><time>2026-05-01T08:38:48Z</time></trkpt><trkpt lat="39.82747505871265" lon="9.493605418988293"><ele>591.2</ele><time>2026-05-01T08:38:49Z</time></trkpt><trkpt lat="39.8275669664237" lon="9.4935949037192"><ele>593.8</ele><time>2026-05-01T08:38:50Z</time></trkpt><trkpt lat="39.82766294635348" lon="9.493614064994896"><ele>596.4</ele><time>2026-05-01T08:38:51Z</time></trkpt><trkpt lat="39.82776159114004" lon="9.493616764896064"><ele>599.0</ele><time>2026-05-01T08:38:52Z</time></trkpt><trkpt lat="39.82787157141248" lon="9.493603603830403"><ele>599.0</ele><time>2026-05-01T08:38:53Z</time></trkpt><trkpt lat="39.82797672824902" lon="9.493574722786802"><ele>599.0</ele><time>2026-05-01T08:38:54Z</time></trkpt><trkpt lat="39.82808626916821" lon="9.493533494242467"><ele>599.0</ele><time>2026-05-01T08:38:55Z</time></trkpt><trkpt lat="39.82819201581299" lon="9.493462941493918"><ele>599.0</ele><time>2026-05-01T08:38:56Z</time></trkpt><trkpt lat="39.82829827757433" lon="9.493382279219166"><ele>599.0</ele><time>2026-05-01T08:38:57Z</time></trkpt><trkpt lat="39.82840106056198" lon="9.49329500352207"><ele>599.0</ele><time>2026-05-01T08:38:58Z</time></trkpt><trkpt lat="39.828495535305095" lon="9.493189726992323"><ele>599.0</ele><time>2026-05-01T08:38:59Z</time></trkpt><trkpt lat="39.82856818479998" lon="9.4930529775795"><ele>599.0</ele><time>2026-05-01T08:39:00Z</time></trkpt><trkpt lat="39.82862873402656" lon="9.49291190454927"><ele>599.0</ele><time>2026-05-01T08:39:01Z</time></trkpt><trkpt lat="39.82869261504443" lon="9.492777873344012"><ele>599.0</ele><time>2026-05-01T08:39:02Z</time></trkpt><trkpt lat="39.82875203852053" lon="9.492658839367603"><ele>599.0</ele><time>2026-05-01T08:39:03Z</time></trkpt><trkpt lat="39.82881706128987" lon="9.492567017403669"><ele>599.0</ele><time>2026-05-01T08:39:04Z</time></trkpt><trkpt lat="39.828904395158595" lon="9.492513377393857"><ele>599.0</ele><time>2026-05-01T08:39:05Z</time></trkpt><trkpt lat="39.829005913026776" lon="9.49248506855484"><ele>599.0</ele><time>2026-05-01T08:39:06Z</time></trkpt><trkpt lat="39.829110295979454" lon="9.492447994411812"><ele>599.0</ele><time>2026-05-01T08:39:07Z</time></trkpt><trkpt lat="39.82922167065467" lon="9.492404007677857"><ele>599.0</ele><time>2026-05-01T08:39:08Z</time></trkpt><trkpt lat="39.82933210352083" lon="9.492362324754566"><ele>599.0</ele><time>2026-05-01T08:39:09Z</time></trkpt><trkpt lat="39.82944989921385" lon="9.492318134132342"><ele>597.75</ele><time>2026-05-01T08:39:10Z</time></trkpt><trkpt lat="39.82957033500071" lon="9.492274429659059"><ele>596.5</ele><time>2026-05-01T08:39:11Z</time></trkpt><trkpt lat="39.82969127946863" lon="9.492231949932446"><ele>595.25</ele><time>2026-05-01T08:39:12Z</time></trkpt><trkpt lat="39.829811836932414" lon="9.492187953912579"><ele>594.0</ele><time>2026-05-01T08:39:13Z</time></trkpt><trkpt lat="39.829932676438794" lon="9.49214364505493"><ele>594.0</ele><time>2026-05-01T08:39:14Z</time></trkpt><trkpt lat="39.83005712880633" lon="9.492102368863794"><ele>594.0</ele><time>2026-05-01T08:39:15Z</time></trkpt><trkpt lat="39.830182164730644" lon="9.4920745057674"><ele>594.0</ele><time>2026-05-01T08:39:16Z</time></trkpt><trkpt lat="39.83030635380881" lon="9.492072700280353"><ele>594.0</ele><time>2026-05-01T08:39:17Z</time></trkpt><trkpt lat="39.83043377043763" lon="9.49209190908566"><ele>591.75</ele><time>2026-05-01T08:39:18Z</time></trkpt><trkpt lat="39.83056850983263" lon="9.492113698330378"><ele>589.5</ele><time>2026-05-01T08:39:19Z</time></trkpt><trkpt lat="39.83070678910722" lon="9.492123217688384"><ele>587.25</ele><time>2026-05-01T08:39:20Z</time></trkpt><trkpt lat="39.83084281007784" lon="9.492129178687195"><ele>585.0</ele><time>2026-05-01T08:39:21Z</time></trkpt><trkpt lat="39.830975437036926" lon="9.492125367517477"><ele>585.5</ele><time>2026-05-01T08:39:22Z</time></trkpt><trkpt lat="39.83110381196124" lon="9.492084192698014"><ele>586.0</ele><time>2026-05-01T08:39:23Z</time></trkpt><trkpt lat="39.83122426912784" lon="9.491993989640928"><ele>586.5</ele><time>2026-05-01T08:39:24Z</time></trkpt><trkpt lat="39.83133235236687" lon="9.4918696381244"><ele>587.0</ele><time>2026-05-01T08:39:25Z</time></trkpt><trkpt lat="39.831446341786325" lon="9.49174380937852"><ele>587.0</ele><time>2026-05-01T08:39:26Z</time></trkpt><trkpt lat="39.83156260713082" lon="9.491635187786944"><ele>587.0</ele><time>2026-05-01T08:39:27Z</time></trkpt><trkpt lat="39.83169192380122" lon="9.491566632542902"><ele>587.0</ele><time>2026-05-01T08:39:28Z</time></trkpt><trkpt lat="39.831827897005404" lon="9.491546132570727"><ele>587.0</ele><time>2026-05-01T08:39:29Z</time></trkpt><trkpt lat="39.83195299489757" lon="9.491508755599254"><ele>587.75</ele><time>2026-05-01T08:39:30Z</time></trkpt><trkpt lat="39.832059736161455" lon="9.49140671880404"><ele>588.5</ele><time>2026-05-01T08:39:31Z</time></trkpt><trkpt lat="39.8321552625737" lon="9.491276546658824"><ele>589.25</ele><time>2026-05-01T08:39:32Z</time></trkpt><trkpt lat="39.83226984896625" lon="9.491176106318905"><ele>590.0</ele><time>2026-05-01T08:39:33Z</time></trkpt><trkpt lat="39.832408190377016" lon="9.491126847595446"><ele>590.0</ele><time>2026-05-01T08:39:34Z</time></trkpt><trkpt lat="39.83255351969527" lon="9.4911170883861"><ele>590.0</ele><time>2026-05-01T08:39:35Z</time></trkpt><trkpt lat="39.83269623345734" lon="9.491109857560518"><ele>590.0</ele><time>2026-05-01T08:39:36Z</time></trkpt><trkpt lat="39.832835706721404" lon="9.491086089152947"><ele>590.0</ele><time>2026-05-01T08:39:37Z</time></trkpt><trkpt lat="39.83296521759124" lon="9.491040917403149"><ele>583.75</ele><time>2026-05-01T08:39:38Z</time></trkpt><trkpt lat="39.83307706443642" lon="9.490948204901466"><ele>577.5</ele><time>2026-05-01T08:39:39Z</time></trkpt><trkpt lat="39.83316147028898" lon="9.490814883238087"><ele>571.25</ele><time>2026-05-01T08:39:40Z</time></trkpt><trkpt lat="39.83321941810108" lon="9.490657252606795"><ele>565.0</ele><time>2026-05-01T08:39:41Z</time></trkpt><trkpt lat="39.83326835929553" lon="9.49048971224263"><ele>562.25</ele><time>2026-05-01T08:39:42Z</time></trkpt><trkpt lat="39.83328576972366" lon="9.490315490549657"><ele>559.5</ele><time>2026-05-01T08:39:43Z</time></trkpt><trkpt lat="39.833355860424646" lon="9.490171585577745"><ele>556.75</ele><time>2026-05-01T08:39:44Z</time></trkpt><trkpt lat="39.83346057234654" lon="9.490078366795986"><ele>554.0</ele><time>2026-05-01T08:39:45Z</time></trkpt><trkpt lat="39.8335750038484" lon="9.490013723994018"><ele>554.0</ele><time>2026-05-01T08:39:46Z</time></trkpt><trkpt lat="39.83368271650568" lon="9.489922962189892"><ele>554.0</ele><time>2026-05-01T08:39:47Z</time></trkpt><trkpt lat="39.833779178653735" lon="9.489803463237783"><ele>554.0</ele><time>2026-05-01T08:39:48Z</time></trkpt><trkpt lat="39.833886208510826" lon="9.489693181543814"><ele>554.0</ele><time>2026-05-01T08:39:49Z</time></trkpt><trkpt lat="39.83400016928694" lon="9.489585312378944"><ele>555.25</ele><time>2026-05-01T08:39:50Z</time></trkpt><trkpt lat="39.83411789483066" lon="9.489476981103222"><ele>556.5</ele><time>2026-05-01T08:39:51Z</time></trkpt><trkpt lat="39.83423662363056" lon="9.489371899319142"><ele>557.75</ele><time>2026-05-01T08:39:52Z</time></trkpt><trkpt lat="39.83435232011979" lon="9.489268622013162"><ele>559.0</ele><time>2026-05-01T08:39:53Z</time></trkpt><trkpt lat="39.834462767651736" lon="9.489164258450272"><ele>559.0</ele><time>2026-05-01T08:39:54Z</time></trkpt><trkpt lat="39.834574088794085" lon="9.489068952521547"><ele>559.0</ele><time>2026-05-01T08:39:55Z</time></trkpt><trkpt lat="39.834691394847304" lon="9.488997737698584"><ele>559.0</ele><time>2026-05-01T08:39:56Z</time></trkpt><trkpt lat="39.8348162042679" lon="9.488951188252484"><ele>559.0</ele><time>2026-05-01T08:39:57Z</time></trkpt><trkpt lat="39.83494230803286" lon="9.488911360544723"><ele>559.0</ele><time>2026-05-01T08:39:58Z</time></trkpt><trkpt lat="39.83506600717261" lon="9.488862231411694"><ele>559.0</ele><time>2026-05-01T08:39:59Z</time></trkpt><trkpt lat="39.83518350432214" lon="9.488810049031578"><ele>559.0</ele><time>2026-05-01T08:40:00Z</time></trkpt><trkpt lat="39.835300443346846" lon="9.48876757334407"><ele>559.0</ele><time>2026-05-01T08:40:01Z</time></trkpt><trkpt lat="39.83541896704219" lon="9.488739523763714"><ele>563.5</ele><time>2026-05-01T08:40:02Z</time></trkpt><trkpt lat="39.83553755104362" lon="9.488718180796807"><ele>568.0</ele><time>2026-05-01T08:40:03Z</time></trkpt><trkpt lat="39.8356552032234" lon="9.48869441908387"><ele>572.5</ele><time>2026-05-01T08:40:04Z</time></trkpt><trkpt lat="39.83577087972917" lon="9.488665446371375"><ele>577.0</ele><time>2026-05-01T08:40:05Z</time></trkpt><trkpt lat="39.83588602477235" lon="9.488633398841161"><ele>572.0</ele><time>2026-05-01T08:40:06Z</time></trkpt><trkpt lat="39.83599848771221" lon="9.488581965671102"><ele>567.0</ele><time>2026-05-01T08:40:07Z</time></trkpt><trkpt lat="39.83610470123888" lon="9.488498178162194"><ele>562.0</ele><time>2026-05-01T08:40:08Z</time></trkpt><trkpt lat="39.83620925526366" lon="9.488404442547557"><ele>557.0</ele><time>2026-05-01T08:40:09Z</time></trkpt><trkpt lat="39.836323278390516" lon="9.488326279131462"><ele>557.0</ele><time>2026-05-01T08:40:10Z</time></trkpt><trkpt lat="39.83644684683273" lon="9.488271945961474"><ele>557.0</ele><time>2026-05-01T08:40:11Z</time></trkpt><trkpt lat="39.83657274312537" lon="9.488220868039564"><ele>557.0</ele><time>2026-05-01T08:40:12Z</time></trkpt><trkpt lat="39.836692991644426" lon="9.488151279254186"><ele>557.0</ele><time>2026-05-01T08:40:13Z</time></trkpt><trkpt lat="39.836811414164764" lon="9.488069039553805"><ele>557.0</ele><time>2026-05-01T08:40:14Z</time></trkpt><trkpt lat="39.83693017290956" lon="9.48798670705208"><ele>557.0</ele><time>2026-05-01T08:40:15Z</time></trkpt><trkpt lat="39.83704152284532" lon="9.487885678679897"><ele>557.0</ele><time>2026-05-01T08:40:16Z</time></trkpt><trkpt lat="39.83715562011791" lon="9.487782909194214"><ele>557.0</ele><time>2026-05-01T08:40:17Z</time></trkpt><trkpt lat="39.83725839821106" lon="9.487661018490039"><ele>557.0</ele><time>2026-05-01T08:40:18Z</time></trkpt><trkpt lat="39.8373575811521" lon="9.487537724141738"><ele>557.0</ele><time>2026-05-01T08:40:19Z</time></trkpt><trkpt lat="39.8374871050372" lon="9.487469902147328"><ele>557.0</ele><time>2026-05-01T08:40:20Z</time></trkpt><trkpt lat="39.83761797622793" lon="9.487403670722825"><ele>557.0</ele><time>2026-05-01T08:40:21Z</time></trkpt><trkpt lat="39.83774778826136" lon="9.487328379659216"><ele>553.5</ele><time>2026-05-01T08:40:22Z</time></trkpt><trkpt lat="39.83787408936499" lon="9.487256420838536"><ele>550.0</ele><time>2026-05-01T08:40:23Z</time></trkpt><trkpt lat="39.838002038258374" lon="9.487189740163231"><ele>546.5</ele><time>2026-05-01T08:40:24Z</time></trkpt><trkpt lat="39.83813319668974" lon="9.487136552982339"><ele>543.0</ele><time>2026-05-01T08:40:25Z</time></trkpt><trkpt lat="39.83826663183079" lon="9.487099969723598"><ele>543.25</ele><time>2026-05-01T08:40:26Z</time></trkpt><trkpt lat="39.83839831956132" lon="9.48708807363326"><ele>543.5</ele><time>2026-05-01T08:40:27Z</time></trkpt><trkpt lat="39.83852612123161" lon="9.487120269210756"><ele>543.75</ele><time>2026-05-01T08:40:28Z</time></trkpt><trkpt lat="39.83864371498039" lon="9.48712307650884"><ele>544.0</ele><time>2026-05-01T08:40:29Z</time></trkpt><trkpt lat="39.838732766051095" lon="9.487285044846518"><ele>544.0</ele><time>2026-05-01T08:40:30Z</time></trkpt><trkpt lat="39.838832636986304" lon="9.487333218141716"><ele>544.0</ele><time>2026-05-01T08:40:31Z</time></trkpt><trkpt lat="39.83894033411162" lon="9.487334804163813"><ele>544.0</ele><time>2026-05-01T08:40:32Z</time></trkpt><trkpt lat="39.839042816688774" lon="9.487300334560258"><ele>544.0</ele><time>2026-05-01T08:40:33Z</time></trkpt><trkpt lat="39.83912940428529" lon="9.487262579986211"><ele>544.0</ele><time>2026-05-01T08:40:34Z</time></trkpt><trkpt lat="39.83922755265392" lon="9.487261412988225"><ele>542.4</ele><time>2026-05-01T08:40:35Z</time></trkpt><trkpt lat="39.83932372086216" lon="9.487291273952845"><ele>540.8</ele><time>2026-05-01T08:40:36Z</time></trkpt><trkpt lat="39.83941777214048" lon="9.487315186320833"><ele>539.2</ele><time>2026-05-01T08:40:37Z</time></trkpt><trkpt lat="39.83951125043125" lon="9.487329635318899"><ele>537.6</ele><time>2026-05-01T08:40:38Z</time></trkpt><trkpt lat="39.839607738850844" lon="9.487327370531641"><ele>536.0</ele><time>2026-05-01T08:40:39Z</time></trkpt><trkpt lat="39.839706187252546" lon="9.487289480731716"><ele>536.0</ele><time>2026-05-01T08:40:40Z</time></trkpt><trkpt lat="39.83979003865567" lon="9.487215580171211"><ele>536.0</ele><time>2026-05-01T08:40:41Z</time></trkpt><trkpt lat="39.839858016349524" lon="9.487122873325008"><ele>536.0</ele><time>2026-05-01T08:40:42Z</time></trkpt><trkpt lat="39.839918053613694" lon="9.487022091636959"><ele>536.0</ele><time>2026-05-01T08:40:43Z</time></trkpt><trkpt lat="39.839976588039505" lon="9.48692015747254"><ele>536.0</ele><time>2026-05-01T08:40:44Z</time></trkpt><trkpt lat="39.840037892468686" lon="9.486820207943245"><ele>537.8</ele><time>2026-05-01T08:40:45Z</time></trkpt><trkpt lat="39.840100635930575" lon="9.486722012619667"><ele>539.6</ele><time>2026-05-01T08:40:46Z</time></trkpt><trkpt lat="39.840163768312095" lon="9.48662531497627"><ele>541.4</ele><time>2026-05-01T08:40:47Z</time></trkpt><trkpt lat="39.840239277546345" lon="9.486545313543916"><ele>543.2</ele><time>2026-05-01T08:40:48Z</time></trkpt><trkpt lat="39.84033261149109" lon="9.486506272573298"><ele>545.0</ele><time>2026-05-01T08:40:49Z</time></trkpt><trkpt lat="39.84043156350051" lon="9.486524527247138"><ele>545.0</ele><time>2026-05-01T08:40:50Z</time></trkpt><trkpt lat="39.840522831137655" lon="9.486576151782529"><ele>545.0</ele><time>2026-05-01T08:40:51Z</time></trkpt><trkpt lat="39.84060898639648" lon="9.486622382160277"><ele>545.0</ele><time>2026-05-01T08:40:52Z</time></trkpt><trkpt lat="39.84069960237636" lon="9.486644730776069"><ele>545.0</ele><time>2026-05-01T08:40:53Z</time></trkpt><trkpt lat="39.84078924307816" lon="9.486620337672031"><ele>545.0</ele><time>2026-05-01T08:40:54Z</time></trkpt><trkpt lat="39.84086997651263" lon="9.486570179737615"><ele>545.0</ele><time>2026-05-01T08:40:55Z</time></trkpt><trkpt lat="39.84094783935316" lon="9.486517306052894"><ele>545.0</ele><time>2026-05-01T08:40:56Z</time></trkpt><trkpt lat="39.84102241440483" lon="9.486476743132277"><ele>545.0</ele><time>2026-05-01T08:40:57Z</time></trkpt><trkpt lat="39.841103740714445" lon="9.486466821101146"><ele>545.0</ele><time>2026-05-01T08:40:58Z</time></trkpt><trkpt lat="39.84119101628058" lon="9.486490013230775"><ele>545.0</ele><time>2026-05-01T08:40:59Z</time></trkpt><trkpt lat="39.84128033575918" lon="9.486528546945467"><ele>545.0</ele><time>2026-05-01T08:41:00Z</time></trkpt><trkpt lat="39.84137287005496" lon="9.486572166976197"><ele>544.8</ele><time>2026-05-01T08:41:01Z</time></trkpt><trkpt lat="39.84146498732475" lon="9.486620412552085"><ele>544.6</ele><time>2026-05-01T08:41:02Z</time></trkpt><trkpt lat="39.84155805430033" lon="9.486669840273157"><ele>544.4</ele><time>2026-05-01T08:41:03Z</time></trkpt><trkpt lat="39.84165191861717" lon="9.486706051828376"><ele>544.2</ele><time>2026-05-01T08:41:04Z</time></trkpt><trkpt lat="39.841750291160594" lon="9.486719761191814"><ele>544.0</ele><time>2026-05-01T08:41:05Z</time></trkpt><trkpt lat="39.84185094562488" lon="9.486697926696639"><ele>544.4</ele><time>2026-05-01T08:41:06Z</time></trkpt><trkpt lat="39.841952833646396" lon="9.486644525666563"><ele>544.8</ele><time>2026-05-01T08:41:07Z</time></trkpt><trkpt lat="39.84205047401951" lon="9.48658824708936"><ele>545.2</ele><time>2026-05-01T08:41:08Z</time></trkpt><trkpt lat="39.84214958998089" lon="9.486534775897574"><ele>545.6</ele><time>2026-05-01T08:41:09Z</time></trkpt><trkpt lat="39.842254016196456" lon="9.48649290153565"><ele>546.0</ele><time>2026-05-01T08:41:10Z</time></trkpt><trkpt lat="39.842361946543065" lon="9.486494270261256"><ele>546.0</ele><time>2026-05-01T08:41:11Z</time></trkpt><trkpt lat="39.84246399965013" lon="9.486543347820174"><ele>546.0</ele><time>2026-05-01T08:41:12Z</time></trkpt><trkpt lat="39.84255923965636" lon="9.486616884181391"><ele>546.0</ele><time>2026-05-01T08:41:13Z</time></trkpt><trkpt lat="39.84264562867193" lon="9.486707846268619"><ele>546.0</ele><time>2026-05-01T08:41:14Z</time></trkpt><trkpt lat="39.84273147077931" lon="9.48679447054512"><ele>546.0</ele><time>2026-05-01T08:41:15Z</time></trkpt><trkpt lat="39.842812514710545" lon="9.486884668112301"><ele>548.0</ele><time>2026-05-01T08:41:16Z</time></trkpt><trkpt lat="39.84288739604036" lon="9.486982754636061"><ele>550.0</ele><time>2026-05-01T08:41:17Z</time></trkpt><trkpt lat="39.84296477135515" lon="9.487077498298596"><ele>552.0</ele><time>2026-05-01T08:41:18Z</time></trkpt><trkpt lat="39.84305123167582" lon="9.487154421694086"><ele>554.0</ele><time>2026-05-01T08:41:19Z</time></trkpt><trkpt lat="39.8431474940079" lon="9.487201240525488"><ele>556.0</ele><time>2026-05-01T08:41:20Z</time></trkpt><trkpt lat="39.84325057976506" lon="9.487227942848135"><ele>554.2</ele><time>2026-05-01T08:41:21Z</time></trkpt><trkpt lat="39.843358344972096" lon="9.487238043074832"><ele>552.4000000000001</ele><time>2026-05-01T08:41:22Z</time></trkpt><trkpt lat="39.84346453116121" lon="9.487225759708144"><ele>550.6</ele><time>2026-05-01T08:41:23Z</time></trkpt><trkpt lat="39.84356351772345" lon="9.487186469636553"><ele>548.8000000000001</ele><time>2026-05-01T08:41:24Z</time></trkpt><trkpt lat="39.84365412753434" lon="9.487132656578078"><ele>547.0</ele><time>2026-05-01T08:41:25Z</time></trkpt><trkpt lat="39.84374087983628" lon="9.487076246239502"><ele>547.0</ele><time>2026-05-01T08:41:26Z</time></trkpt><trkpt lat="39.8438260394109" lon="9.487015725929167"><ele>547.0</ele><time>2026-05-01T08:41:27Z</time></trkpt><trkpt lat="39.84391370808652" lon="9.486953284088228"><ele>547.0</ele><time>2026-05-01T08:41:28Z</time></trkpt><trkpt lat="39.84400313039811" lon="9.486890643136938"><ele>547.0</ele><time>2026-05-01T08:41:29Z</time></trkpt><trkpt lat="39.84409279911143" lon="9.486824397011485"><ele>547.0</ele><time>2026-05-01T08:41:30Z</time></trkpt><trkpt lat="39.84418443594265" lon="9.486760984789841"><ele>547.0</ele><time>2026-05-01T08:41:31Z</time></trkpt><trkpt lat="39.84428457381814" lon="9.48671283034915"><ele>547.0</ele><time>2026-05-01T08:41:32Z</time></trkpt><trkpt lat="39.844396950527944" lon="9.48669201807336"><ele>547.0</ele><time>2026-05-01T08:41:33Z</time></trkpt><trkpt lat="39.844517469397324" lon="9.486697545314717"><ele>547.0</ele><time>2026-05-01T08:41:34Z</time></trkpt><trkpt lat="39.84464177690289" lon="9.486728863138612"><ele>546.75</ele><time>2026-05-01T08:41:35Z</time></trkpt><trkpt lat="39.844767781997994" lon="9.486769092915338"><ele>546.5</ele><time>2026-05-01T08:41:36Z</time></trkpt><trkpt lat="39.844896694565215" lon="9.486804937414112"><ele>546.25</ele><time>2026-05-01T08:41:37Z</time></trkpt><trkpt lat="39.84502664682906" lon="9.486841012062971"><ele>546.0</ele><time>2026-05-01T08:41:38Z</time></trkpt><trkpt lat="39.84515736672351" lon="9.4868800979537"><ele>545.0</ele><time>2026-05-01T08:41:39Z</time></trkpt><trkpt lat="39.845286621235395" lon="9.486917824408145"><ele>544.0</ele><time>2026-05-01T08:41:40Z</time></trkpt><trkpt lat="39.845411264696985" lon="9.48694929890123"><ele>543.0</ele><time>2026-05-01T08:41:41Z</time></trkpt><trkpt lat="39.84553095263335" lon="9.486970280648608"><ele>542.0</ele><time>2026-05-01T08:41:42Z</time></trkpt><trkpt lat="39.84565203139855" lon="9.486959245237726"><ele>542.0</ele><time>2026-05-01T08:41:43Z</time></trkpt><trkpt lat="39.845771973901556" lon="9.486908514037545"><ele>542.0</ele><time>2026-05-01T08:41:44Z</time></trkpt><trkpt lat="39.84589393987786" lon="9.486853230482"><ele>542.0</ele><time>2026-05-01T08:41:45Z</time></trkpt><trkpt lat="39.84602312759489" lon="9.486806046333166"><ele>542.0</ele><time>2026-05-01T08:41:46Z</time></trkpt><trkpt lat="39.846155202915895" lon="9.486755855422809"><ele>538.5</ele><time>2026-05-01T08:41:47Z</time></trkpt><trkpt lat="39.8462904704628" lon="9.48670327051468"><ele>535.0</ele><time>2026-05-01T08:41:48Z</time></trkpt><trkpt lat="39.846424377234854" lon="9.486645656148236"><ele>531.5</ele><time>2026-05-01T08:41:49Z</time></trkpt><trkpt lat="39.84655643421444" lon="9.486588354727488"><ele>528.0</ele><time>2026-05-01T08:41:50Z</time></trkpt><trkpt lat="39.84668752446649" lon="9.486535845478848"><ele>530.0</ele><time>2026-05-01T08:41:51Z</time></trkpt><trkpt lat="39.846814978194374" lon="9.486484494682385"><ele>532.0</ele><time>2026-05-01T08:41:52Z</time></trkpt><trkpt lat="39.84693993559898" lon="9.486434238792057"><ele>534.0</ele><time>2026-05-01T08:41:53Z</time></trkpt><trkpt lat="39.847064479374154" lon="9.48640136678084"><ele>536.0</ele><time>2026-05-01T08:41:54Z</time></trkpt><trkpt lat="39.84718929199632" lon="9.486417671060503"><ele>536.0</ele><time>2026-05-01T08:41:55Z</time></trkpt><trkpt lat="39.847301013378974" lon="9.486490271672901"><ele>536.0</ele><time>2026-05-01T08:41:56Z</time></trkpt><trkpt lat="39.84740067876018" lon="9.48657915986817"><ele>536.0</ele><time>2026-05-01T08:41:57Z</time></trkpt><trkpt lat="39.847499007999446" lon="9.486658274046793"><ele>536.0</ele><time>2026-05-01T08:41:58Z</time></trkpt><trkpt lat="39.84758278487308" lon="9.48676154635696"><ele>539.25</ele><time>2026-05-01T08:41:59Z</time></trkpt><trkpt lat="39.84764647112246" lon="9.486894236890649"><ele>542.5</ele><time>2026-05-01T08:42:00Z</time></trkpt><trkpt lat="39.8476864552422" lon="9.487040558492165"><ele>545.75</ele><time>2026-05-01T08:42:01Z</time></trkpt><trkpt lat="39.84770895691349" lon="9.48719241282688"><ele>549.0</ele><time>2026-05-01T08:42:02Z</time></trkpt><trkpt lat="39.84774094319546" lon="9.487345353415469"><ele>549.0</ele><time>2026-05-01T08:42:03Z</time></trkpt><trkpt lat="39.8477988224281" lon="9.487490892133746"><ele>549.0</ele><time>2026-05-01T08:42:04Z</time></trkpt><trkpt lat="39.847869226497714" lon="9.487626081968607"><ele>549.0</ele><time>2026-05-01T08:42:05Z</time></trkpt><trkpt lat="39.847940120112995" lon="9.487761890145217"><ele>549.0</ele><time>2026-05-01T08:42:06Z</time></trkpt><trkpt lat="39.848003404381565" lon="9.487905315418523"><ele>543.5</ele><time>2026-05-01T08:42:07Z</time></trkpt><trkpt lat="39.8480585256381" lon="9.488054853356664"><ele>538.0</ele><time>2026-05-01T08:42:08Z</time></trkpt><trkpt lat="39.84811381210995" lon="9.48820212899737"><ele>532.5</ele><time>2026-05-01T08:42:09Z</time></trkpt><trkpt lat="39.84816461749232" lon="9.488348474395854"><ele>527.0</ele><time>2026-05-01T08:42:10Z</time></trkpt><trkpt lat="39.84821364534165" lon="9.48849485555327"><ele>527.0</ele><time>2026-05-01T08:42:11Z</time></trkpt><trkpt lat="39.84826144486841" lon="9.488639675430603"><ele>527.0</ele><time>2026-05-01T08:42:12Z</time></trkpt><trkpt lat="39.848309858576414" lon="9.488781328751585"><ele>527.0</ele><time>2026-05-01T08:42:13Z</time></trkpt><trkpt lat="39.848357939086945" lon="9.488918628589294"><ele>527.0</ele><time>2026-05-01T08:42:14Z</time></trkpt><trkpt lat="39.84840491677477" lon="9.489054671047633"><ele>523.75</ele><time>2026-05-01T08:42:15Z</time></trkpt><trkpt lat="39.848463278883486" lon="9.489180744358153"><ele>520.5</ele><time>2026-05-01T08:42:16Z</time></trkpt><trkpt lat="39.848550831337135" lon="9.489274331281425"><ele>517.25</ele><time>2026-05-01T08:42:17Z</time></trkpt><trkpt lat="39.848662867719824" lon="9.4893099823259"><ele>514.0</ele><time>2026-05-01T08:42:18Z</time></trkpt><trkpt lat="39.84878461778574" lon="9.489291356320283"><ele>514.0</ele><time>2026-05-01T08:42:19Z</time></trkpt><trkpt lat="39.84890039745223" lon="9.489255577227032"><ele>514.0</ele><time>2026-05-01T08:42:20Z</time></trkpt><trkpt lat="39.84900987406442" lon="9.489208337246108"><ele>514.0</ele><time>2026-05-01T08:42:21Z</time></trkpt><trkpt lat="39.84911170985853" lon="9.489139897568592"><ele>514.0</ele><time>2026-05-01T08:42:22Z</time></trkpt><trkpt lat="39.84920376260887" lon="9.489055973368924"><ele>514.0</ele><time>2026-05-01T08:42:23Z</time></trkpt><trkpt lat="39.84929205187659" lon="9.48896969110716"><ele>514.0</ele><time>2026-05-01T08:42:24Z</time></trkpt><trkpt lat="39.84937747738668" lon="9.48888839052288"><ele>514.0</ele><time>2026-05-01T08:42:25Z</time></trkpt><trkpt lat="39.8494706258421" lon="9.488827893512697"><ele>514.0</ele><time>2026-05-01T08:42:26Z</time></trkpt><trkpt lat="39.84957523442813" lon="9.48879472919804"><ele>514.0</ele><time>2026-05-01T08:42:27Z</time></trkpt><trkpt lat="39.84968300191133" lon="9.48878451985929"><ele>513.8</ele><time>2026-05-01T08:42:28Z</time></trkpt><trkpt lat="39.84978896419876" lon="9.488779630503648"><ele>513.5999999999999</ele><time>2026-05-01T08:42:29Z</time></trkpt><trkpt lat="39.849889537406675" lon="9.48877644062566"><ele>513.4</ele><time>2026-05-01T08:42:30Z</time></trkpt><trkpt lat="39.849986378283866" lon="9.488777698722958"><ele>513.1999999999999</ele><time>2026-05-01T08:42:31Z</time></trkpt><trkpt lat="39.85008216138818" lon="9.488782464082028"><ele>513.0</ele><time>2026-05-01T08:42:32Z</time></trkpt><trkpt lat="39.8501797383645" lon="9.48879340605075"><ele>513.0</ele><time>2026-05-01T08:42:33Z</time></trkpt><trkpt lat="39.85027101553026" lon="9.488811806448336"><ele>513.0</ele><time>2026-05-01T08:42:34Z</time></trkpt><trkpt lat="39.85035296039868" lon="9.488844710014652"><ele>513.0</ele><time>2026-05-01T08:42:35Z</time></trkpt><trkpt lat="39.850435307640694" lon="9.488879615702011"><ele>513.0</ele><time>2026-05-01T08:42:36Z</time></trkpt><trkpt lat="39.85052676444337" lon="9.48891818768663"><ele>513.0</ele><time>2026-05-01T08:42:37Z</time></trkpt><trkpt lat="39.850641747148934" lon="9.488894247765945"><ele>513.0</ele><time>2026-05-01T08:42:38Z</time></trkpt><trkpt lat="39.850742430807266" lon="9.488948198682598"><ele>513.0</ele><time>2026-05-01T08:42:39Z</time></trkpt><trkpt lat="39.85084741832067" lon="9.488954308642462"><ele>513.0</ele><time>2026-05-01T08:42:40Z</time></trkpt><trkpt lat="39.850953151643346" lon="9.488895681409586"><ele>513.0</ele><time>2026-05-01T08:42:41Z</time></trkpt><trkpt lat="39.85105109578383" lon="9.488791555026125"><ele>517.0</ele><time>2026-05-01T08:42:42Z</time></trkpt><trkpt lat="39.851143489429376" lon="9.48866933016063"><ele>521.0</ele><time>2026-05-01T08:42:43Z</time></trkpt><trkpt lat="39.85122206440724" lon="9.488536068236904"><ele>525.0</ele><time>2026-05-01T08:42:44Z</time></trkpt><trkpt lat="39.85129853804271" lon="9.488396927641803"><ele>529.0</ele><time>2026-05-01T08:42:45Z</time></trkpt><trkpt lat="39.851390278897135" lon="9.488297316932"><ele>529.0</ele><time>2026-05-01T08:42:46Z</time></trkpt><trkpt lat="39.85149426394172" lon="9.488244268197356"><ele>529.0</ele><time>2026-05-01T08:42:47Z</time></trkpt><trkpt lat="39.85159021109777" lon="9.488202148012876"><ele>529.0</ele><time>2026-05-01T08:42:48Z</time></trkpt><trkpt lat="39.85168182026517" lon="9.488163344077423"><ele>529.0</ele><time>2026-05-01T08:42:49Z</time></trkpt><trkpt lat="39.85177560585714" lon="9.488128196544347"><ele>529.0</ele><time>2026-05-01T08:42:50Z</time></trkpt><trkpt lat="39.85186886515101" lon="9.488108333096296"><ele>529.4</ele><time>2026-05-01T08:42:51Z</time></trkpt><trkpt lat="39.85196249721049" lon="9.488122487104583"><ele>529.8</ele><time>2026-05-01T08:42:52Z</time></trkpt><trkpt lat="39.85205324286942" lon="9.488163593954582"><ele>530.2</ele><time>2026-05-01T08:42:53Z</time></trkpt><trkpt lat="39.85213482853499" lon="9.488215663292582"><ele>530.6</ele><time>2026-05-01T08:42:54Z</time></trkpt><trkpt lat="39.85221631391161" lon="9.488262678011298"><ele>531.0</ele><time>2026-05-01T08:42:55Z</time></trkpt><trkpt lat="39.85229703072651" lon="9.488309940016247"><ele>531.0</ele><time>2026-05-01T08:42:56Z</time></trkpt><trkpt lat="39.85237836439939" lon="9.488349912536579"><ele>531.0</ele><time>2026-05-01T08:42:57Z</time></trkpt><trkpt lat="39.85246545250259" lon="9.488362218300486"><ele>531.0</ele><time>2026-05-01T08:42:58Z</time></trkpt><trkpt lat="39.85254810157848" lon="9.488329162275043"><ele>531.0</ele><time>2026-05-01T08:42:59Z</time></trkpt><trkpt lat="39.85261202209655" lon="9.488256320640616"><ele>531.0</ele><time>2026-05-01T08:43:00Z</time></trkpt><trkpt lat="39.852651131577716" lon="9.488160644269055"><ele>531.0</ele><time>2026-05-01T08:43:01Z</time></trkpt><trkpt lat="39.852684395808105" lon="9.488059490655615"><ele>530.2</ele><time>2026-05-01T08:43:02Z</time></trkpt><trkpt lat="39.85273336260098" lon="9.487963932469247"><ele>529.4000000000001</ele><time>2026-05-01T08:43:03Z</time></trkpt><trkpt lat="39.85281310756587" lon="9.487883225998612"><ele>528.6</ele><time>2026-05-01T08:43:04Z</time></trkpt><trkpt lat="39.8529073670103" lon="9.487815692783865"><ele>527.8000000000001</ele><time>2026-05-01T08:43:05Z</time></trkpt><trkpt lat="39.8530170061485" lon="9.487769597420614"><ele>527.0</ele><time>2026-05-01T08:43:06Z</time></trkpt><trkpt lat="39.85314304189641" lon="9.487735164800013"><ele>530.0</ele><time>2026-05-01T08:43:07Z</time></trkpt><trkpt lat="39.853277874542584" lon="9.487693252516943"><ele>533.0</ele><time>2026-05-01T08:43:08Z</time></trkpt><trkpt lat="39.85340926961816" lon="9.487651814662721"><ele>536.0</ele><time>2026-05-01T08:43:09Z</time></trkpt><trkpt lat="39.85353779262427" lon="9.48761196272858"><ele>539.0</ele><time>2026-05-01T08:43:10Z</time></trkpt><trkpt lat="39.85366763178512" lon="9.487572398346103"><ele>539.0</ele><time>2026-05-01T08:43:11Z</time></trkpt><trkpt lat="39.853785651736146" lon="9.487531946644989"><ele>539.0</ele><time>2026-05-01T08:43:12Z</time></trkpt><trkpt lat="39.85388592105858" lon="9.487485795767023"><ele>539.0</ele><time>2026-05-01T08:43:13Z</time></trkpt><trkpt lat="39.85396100503389" lon="9.48740750484297"><ele>539.0</ele><time>2026-05-01T08:43:14Z</time></trkpt><trkpt lat="39.85402295309593" lon="9.487266276356605"><ele>539.0</ele><time>2026-05-01T08:43:15Z</time></trkpt><trkpt lat="39.85410636754005" lon="9.487099905348332"><ele>542.0</ele><time>2026-05-01T08:43:16Z</time></trkpt><trkpt lat="39.85420582402822" lon="9.486946991282815"><ele>545.0</ele><time>2026-05-01T08:43:17Z</time></trkpt><trkpt lat="39.85430005271205" lon="9.486781830588344"><ele>548.0</ele><time>2026-05-01T08:43:18Z</time></trkpt><trkpt lat="39.85438679457586" lon="9.486605214324484"><ele>548.0</ele><time>2026-05-01T08:43:19Z</time></trkpt><trkpt lat="39.85447295582341" lon="9.486452553289729"><ele>548.0</ele><time>2026-05-01T08:43:20Z</time></trkpt><trkpt lat="39.85456363644985" lon="9.48633338360744"><ele>548.0</ele><time>2026-05-01T08:43:21Z</time></trkpt><trkpt lat="39.85467119776083" lon="9.486277526442112"><ele>548.0</ele><time>2026-05-01T08:43:22Z</time></trkpt><trkpt lat="39.8547889743721" lon="9.48629687768862"><ele>548.0</ele><time>2026-05-01T08:43:23Z</time></trkpt><trkpt lat="39.85489836057098" lon="9.486375936897554"><ele>548.0</ele><time>2026-05-01T08:43:24Z</time></trkpt><trkpt lat="39.85501947199093" lon="9.486389741033753"><ele>548.0</ele><time>2026-05-01T08:43:25Z</time></trkpt><trkpt lat="39.85513820133917" lon="9.486324229346547"><ele>548.0</ele><time>2026-05-01T08:43:26Z</time></trkpt><trkpt lat="39.85523639857711" lon="9.486192531542057"><ele>553.0</ele><time>2026-05-01T08:43:27Z</time></trkpt><trkpt lat="39.855337028996225" lon="9.486051987647276"><ele>558.0</ele><time>2026-05-01T08:43:28Z</time></trkpt><trkpt lat="39.85546431976136" lon="9.485923827215931"><ele>563.0</ele><time>2026-05-01T08:43:29Z</time></trkpt><trkpt lat="39.855610693808366" lon="9.485785786454153"><ele>563.0</ele><time>2026-05-01T08:43:30Z</time></trkpt><trkpt lat="39.855766191345865" lon="9.485647837147718"><ele>563.0</ele><time>2026-05-01T08:43:31Z</time></trkpt><trkpt lat="39.85591983733111" lon="9.48554011149859"><ele>563.0</ele><time>2026-05-01T08:43:32Z</time></trkpt><trkpt lat="39.85606502910083" lon="9.48546931138501"><ele>566.6666666666666</ele><time>2026-05-01T08:43:33Z</time></trkpt><trkpt lat="39.856189767220066" lon="9.485365064425048"><ele>570.3333333333334</ele><time>2026-05-01T08:43:34Z</time></trkpt><trkpt lat="39.8562851817579" lon="9.485201639536257"><ele>574.0</ele><time>2026-05-01T08:43:35Z</time></trkpt><trkpt lat="39.856401750405595" lon="9.485038956077116"><ele>574.0</ele><time>2026-05-01T08:43:36Z</time></trkpt><trkpt lat="39.85653375841841" lon="9.48489145563811"><ele>574.0</ele><time>2026-05-01T08:43:37Z</time></trkpt><trkpt lat="39.85667237088806" lon="9.484728610495855"><ele>574.0</ele><time>2026-05-01T08:43:38Z</time></trkpt><trkpt lat="39.85681228968646" lon="9.484561020039166"><ele>577.6666666666667</ele><time>2026-05-01T08:43:39Z</time></trkpt><trkpt lat="39.85695574856987" lon="9.484441921136867"><ele>581.3333333333334</ele><time>2026-05-01T08:43:40Z</time></trkpt><trkpt lat="39.857105787437" lon="9.484387962525444"><ele>585.0</ele><time>2026-05-01T08:43:41Z</time></trkpt><trkpt lat="39.85724485313333" lon="9.484327349544797"><ele>585.0</ele><time>2026-05-01T08:43:42Z</time></trkpt><trkpt lat="39.85735208207647" lon="9.484222497432583"><ele>585.0</ele><time>2026-05-01T08:43:43Z</time></trkpt><trkpt lat="39.857426485284826" lon="9.484119718524317"><ele>585.0</ele><time>2026-05-01T08:43:44Z</time></trkpt><trkpt lat="39.8574554065842" lon="9.48401301926381"><ele>585.0</ele><time>2026-05-01T08:43:45Z</time></trkpt><trkpt lat="39.85738478791639" lon="9.483855044778265"><ele>585.0</ele><time>2026-05-01T08:43:47Z</time></trkpt><trkpt lat="39.85727394968973" lon="9.48392308016125"><ele>585.0</ele><time>2026-05-01T08:43:48Z</time></trkpt><trkpt lat="39.85720104481009" lon="9.484037331882043"><ele>585.0</ele><time>2026-05-01T08:43:49Z</time></trkpt><trkpt lat="39.85710685162478" lon="9.48413023326404"><ele>585.0</ele><time>2026-05-01T08:43:50Z</time></trkpt><trkpt lat="39.85697337777979" lon="9.484122282760723"><ele>585.0</ele><time>2026-05-01T08:43:51Z</time></trkpt><trkpt lat="39.85684674963588" lon="9.484102733899073"><ele>585.0</ele><time>2026-05-01T08:43:52Z</time></trkpt><trkpt lat="39.856730193192085" lon="9.48413253016105"><ele>585.0</ele><time>2026-05-01T08:43:53Z</time></trkpt><trkpt lat="39.856638329345586" lon="9.484255755785272"><ele>585.0</ele><time>2026-05-01T08:43:54Z</time></trkpt><trkpt lat="39.856547489191286" lon="9.484374562598592"><ele>588.25</ele><time>2026-05-01T08:43:55Z</time></trkpt><trkpt lat="39.856422144457" lon="9.484432402474189"><ele>591.5</ele><time>2026-05-01T08:43:56Z</time></trkpt><trkpt lat="39.856282347656496" lon="9.484445582781849"><ele>594.75</ele><time>2026-05-01T08:43:57Z</time></trkpt><trkpt lat="39.85613405871358" lon="9.484445582785016"><ele>598.0</ele><time>2026-05-01T08:43:58Z</time></trkpt><trkpt lat="39.855995652201464" lon="9.484438944953355"><ele>600.25</ele><time>2026-05-01T08:43:59Z</time></trkpt><trkpt lat="39.85586434239826" lon="9.484405403294145"><ele>602.5</ele><time>2026-05-01T08:44:00Z</time></trkpt><trkpt lat="39.855747902738905" lon="9.484312397062038"><ele>604.75</ele><time>2026-05-01T08:44:01Z</time></trkpt><trkpt lat="39.85563373976521" lon="9.484211932608217"><ele>607.0</ele><time>2026-05-01T08:44:02Z</time></trkpt><trkpt lat="39.85552771464374" lon="9.484152629609111"><ele>607.0</ele><time>2026-05-01T08:44:03Z</time></trkpt><trkpt lat="39.85541267242658" lon="9.484213026261891"><ele>607.0</ele><time>2026-05-01T08:44:04Z</time></trkpt><trkpt lat="39.855325914191106" lon="9.484319712820318"><ele>607.0</ele><time>2026-05-01T08:44:05Z</time></trkpt><trkpt lat="39.85522171540555" lon="9.484394667271989"><ele>607.0</ele><time>2026-05-01T08:44:06Z</time></trkpt><trkpt lat="39.855122362578655" lon="9.484430904309503"><ele>607.5</ele><time>2026-05-01T08:44:07Z</time></trkpt><trkpt lat="39.85501723960131" lon="9.484352535315697"><ele>608.0</ele><time>2026-05-01T08:44:08Z</time></trkpt><trkpt lat="39.85488665293698" lon="9.48430980106344"><ele>608.5</ele><time>2026-05-01T08:44:09Z</time></trkpt><trkpt lat="39.854748472887884" lon="9.484251975835154"><ele>609.0</ele><time>2026-05-01T08:44:10Z</time></trkpt><trkpt lat="39.85458868933388" lon="9.48422805162159"><ele>609.0</ele><time>2026-05-01T08:44:11Z</time></trkpt><trkpt lat="39.85441506963232" lon="9.48424131266282"><ele>609.0</ele><time>2026-05-01T08:44:12Z</time></trkpt><trkpt lat="39.854246241438126" lon="9.48426668432268"><ele>609.0</ele><time>2026-05-01T08:44:13Z</time></trkpt><trkpt lat="39.85409043217676" lon="9.484310821321165"><ele>613.0</ele><time>2026-05-01T08:44:14Z</time></trkpt><trkpt lat="39.85394117846322" lon="9.484408029477512"><ele>617.0</ele><time>2026-05-01T08:44:15Z</time></trkpt><trkpt lat="39.85380930309238" lon="9.484527631119144"><ele>621.0</ele><time>2026-05-01T08:44:16Z</time></trkpt><trkpt lat="39.853680897222304" lon="9.484617926513527"><ele>618.25</ele><time>2026-05-01T08:44:17Z</time></trkpt><trkpt lat="39.85354033029818" lon="9.484625333585896"><ele>615.5</ele><time>2026-05-01T08:44:18Z</time></trkpt><trkpt lat="39.853385250778686" lon="9.484630089045222"><ele>612.75</ele><time>2026-05-01T08:44:19Z</time></trkpt><trkpt lat="39.853237772769084" lon="9.48464708913026"><ele>610.0</ele><time>2026-05-01T08:44:20Z</time></trkpt><trkpt lat="39.85307891146714" lon="9.484741709960401"><ele>610.0</ele><time>2026-05-01T08:44:21Z</time></trkpt><trkpt lat="39.852927282785956" lon="9.484839130286726"><ele>610.0</ele><time>2026-05-01T08:44:22Z</time></trkpt><trkpt lat="39.85278174757642" lon="9.484962335604166"><ele>610.0</ele><time>2026-05-01T08:44:23Z</time></trkpt><trkpt lat="39.852626612278044" lon="9.485011786374496"><ele>616.0</ele><time>2026-05-01T08:44:24Z</time></trkpt><trkpt lat="39.85247117166762" lon="9.485071319684332"><ele>622.0</ele><time>2026-05-01T08:44:25Z</time></trkpt><trkpt lat="39.852318962185095" lon="9.48512201628125"><ele>628.0</ele><time>2026-05-01T08:44:26Z</time></trkpt><trkpt lat="39.85216205956835" lon="9.485163228454661"><ele>628.0</ele><time>2026-05-01T08:44:27Z</time></trkpt><trkpt lat="39.85200999192252" lon="9.485109078086063"><ele>628.0</ele><time>2026-05-01T08:44:28Z</time></trkpt><trkpt lat="39.85184209448255" lon="9.485071680380301"><ele>628.0</ele><time>2026-05-01T08:44:29Z</time></trkpt><trkpt lat="39.851695646853834" lon="9.484998617611696"><ele>629.5</ele><time>2026-05-01T08:44:30Z</time></trkpt><trkpt lat="39.85155544955989" lon="9.484949591722195"><ele>631.0</ele><time>2026-05-01T08:44:31Z</time></trkpt><trkpt lat="39.85143846632997" lon="9.484919903552113"><ele>632.5</ele><time>2026-05-01T08:44:32Z</time></trkpt><trkpt lat="39.85135568990584" lon="9.484818806345391"><ele>634.0</ele><time>2026-05-01T08:44:33Z</time></trkpt><trkpt lat="39.85134243802756" lon="9.48467361249383"><ele>639.75</ele><time>2026-05-01T08:44:34Z</time></trkpt><trkpt lat="39.851314309572274" lon="9.48453660789791"><ele>645.5</ele><time>2026-05-01T08:44:35Z</time></trkpt><trkpt lat="39.85126635084584" lon="9.48442130617107"><ele>651.25</ele><time>2026-05-01T08:44:36Z</time></trkpt><trkpt lat="39.85113360134903" lon="9.484376389903806"><ele>657.0</ele><time>2026-05-01T08:44:37Z</time></trkpt><trkpt lat="39.85100165715013" lon="9.48435162880184"><ele>655.5</ele><time>2026-05-01T08:44:38Z</time></trkpt><trkpt lat="39.850880457905305" lon="9.484292924696128"><ele>654.0</ele><time>2026-05-01T08:44:39Z</time></trkpt><trkpt lat="39.85076439552502" lon="9.48424191652945"><ele>652.5</ele><time>2026-05-01T08:44:40Z</time></trkpt><trkpt lat="39.850660240932456" lon="9.484205936249923"><ele>651.0</ele><time>2026-05-01T08:44:41Z</time></trkpt><trkpt lat="39.85056842917356" lon="9.48428949460519"><ele>651.0</ele><time>2026-05-01T08:44:42Z</time></trkpt><trkpt lat="39.850514279176686" lon="9.484390633142898"><ele>651.0</ele><time>2026-05-01T08:44:43Z</time></trkpt><trkpt lat="39.85046795323627" lon="9.484483666251279"><ele>651.0</ele><time>2026-05-01T08:44:44Z</time></trkpt><trkpt lat="39.850403318581954" lon="9.48451882973737"><ele>651.0</ele><time>2026-05-01T08:44:45Z</time></trkpt><trkpt lat="39.85034773774981" lon="9.48447720631003"><ele>651.0</ele><time>2026-05-01T08:44:46Z</time></trkpt><trkpt lat="39.850334739219996" lon="9.48438459220547"><ele>651.0</ele><time>2026-05-01T08:44:47Z</time></trkpt><trkpt lat="39.85040254572484" lon="9.484330125318346"><ele>651.0</ele><time>2026-05-01T08:44:48Z</time></trkpt><trkpt lat="39.850486780666046" lon="9.484232041920674"><ele>651.0</ele><time>2026-05-01T08:44:49Z</time></trkpt><trkpt lat="39.850573603389996" lon="9.48413116540601"><ele>651.0</ele><time>2026-05-01T08:44:50Z</time></trkpt><trkpt lat="39.85067324851612" lon="9.484068522096866"><ele>651.0</ele><time>2026-05-01T08:44:51Z</time></trkpt><trkpt lat="39.850794856889095" lon="9.48407910518714"><ele>651.0</ele><time>2026-05-01T08:44:52Z</time></trkpt><trkpt lat="39.85094068050504" lon="9.48411958332786"><ele>651.0</ele><time>2026-05-01T08:44:53Z</time></trkpt><trkpt lat="39.85110554033798" lon="9.484109676370302"><ele>651.0</ele><time>2026-05-01T08:44:54Z</time></trkpt><trkpt lat="39.85126987760538" lon="9.48407590299269"><ele>653.0</ele><time>2026-05-01T08:44:55Z</time></trkpt><trkpt lat="39.85142982691582" lon="9.48411885727308"><ele>655.0</ele><time>2026-05-01T08:44:56Z</time></trkpt><trkpt lat="39.85158340605409" lon="9.48420593924755"><ele>657.0</ele><time>2026-05-01T08:44:57Z</time></trkpt><trkpt lat="39.85174672680081" lon="9.484233322495342"><ele>656.3333333333334</ele><time>2026-05-01T08:44:58Z</time></trkpt><trkpt lat="39.85192148642179" lon="9.484212033697265"><ele>655.6666666666667</ele><time>2026-05-01T08:44:59Z</time></trkpt><trkpt lat="39.85209425238171" lon="9.48417496774096"><ele>655.0</ele><time>2026-05-01T08:45:00Z</time></trkpt><trkpt lat="39.85225703234638" lon="9.48412647481183"><ele>655.0</ele><time>2026-05-01T08:45:01Z</time></trkpt><trkpt lat="39.8524159296945" lon="9.484079625381478"><ele>655.0</ele><time>2026-05-01T08:45:02Z</time></trkpt><trkpt lat="39.852571564418994" lon="9.484048498539627"><ele>655.0</ele><time>2026-05-01T08:45:03Z</time></trkpt><trkpt lat="39.85272513491436" lon="9.484014060106256"><ele>659.6666666666667</ele><time>2026-05-01T08:45:04Z</time></trkpt><trkpt lat="39.85287323455007" lon="9.48394096955515"><ele>664.3333333333334</ele><time>2026-05-01T08:45:05Z</time></trkpt><trkpt lat="39.8530066365177" lon="9.48381638258773"><ele>669.0</ele><time>2026-05-01T08:45:06Z</time></trkpt><trkpt lat="39.85311021668425" lon="9.483649241277725"><ele>669.0</ele><time>2026-05-01T08:45:07Z</time></trkpt><trkpt lat="39.853193757043826" lon="9.483478847766635"><ele>669.0</ele><time>2026-05-01T08:45:08Z</time></trkpt><trkpt lat="39.85329494902662" lon="9.483333885186426"><ele>669.0</ele><time>2026-05-01T08:45:09Z</time></trkpt><trkpt lat="39.85343617511054" lon="9.483239989446027"><ele>669.3333333333334</ele><time>2026-05-01T08:45:10Z</time></trkpt><trkpt lat="39.85357886851706" lon="9.483144638801694"><ele>669.6666666666667</ele><time>2026-05-01T08:45:11Z</time></trkpt><trkpt lat="39.8537009374929" lon="9.483006331263548"><ele>670.0</ele><time>2026-05-01T08:45:12Z</time></trkpt><trkpt lat="39.85381384130211" lon="9.482855784525581"><ele>670.0</ele><time>2026-05-01T08:45:13Z</time></trkpt><trkpt lat="39.853937444632095" lon="9.482746671462385"><ele>670.0</ele><time>2026-05-01T08:45:14Z</time></trkpt><trkpt lat="39.85402788041841" lon="9.482620407370312"><ele>670.0</ele><time>2026-05-01T08:45:15Z</time></trkpt><trkpt lat="39.8540738015678" lon="9.482456168337517"><ele>670.0</ele><time>2026-05-01T08:45:16Z</time></trkpt><trkpt lat="39.85409476250311" lon="9.482283737242676"><ele>670.0</ele><time>2026-05-01T08:45:17Z</time></trkpt><trkpt lat="39.85414213049235" lon="9.482120880448196"><ele>670.0</ele><time>2026-05-01T08:45:18Z</time></trkpt><trkpt lat="39.85423752336989" lon="9.48198196271385"><ele>670.0</ele><time>2026-05-01T08:45:19Z</time></trkpt><trkpt lat="39.85437474496849" lon="9.481881090926226"><ele>670.0</ele><time>2026-05-01T08:45:20Z</time></trkpt><trkpt lat="39.854533890834425" lon="9.48181107007956"><ele>674.6666666666667</ele><time>2026-05-01T08:45:21Z</time></trkpt><trkpt lat="39.854699068013865" lon="9.481751436521265"><ele>679.3333333333334</ele><time>2026-05-01T08:45:22Z</time></trkpt><trkpt lat="39.85487214465298" lon="9.48170250223375"><ele>684.0</ele><time>2026-05-01T08:45:23Z</time></trkpt><trkpt lat="39.855056039030025" lon="9.481686616981772"><ele>683.6666666666666</ele><time>2026-05-01T08:45:24Z</time></trkpt><trkpt lat="39.85524629800541" lon="9.481696505698741"><ele>683.3333333333333</ele><time>2026-05-01T08:45:25Z</time></trkpt><trkpt lat="39.85543810921134" lon="9.481703259216328"><ele>683.0</ele><time>2026-05-01T08:45:26Z</time></trkpt><trkpt lat="39.85562341839207" lon="9.481702356495427"><ele>683.0</ele><time>2026-05-01T08:45:27Z</time></trkpt><trkpt lat="39.85580380315162" lon="9.481691276394368"><ele>683.0</ele><time>2026-05-01T08:45:28Z</time></trkpt><trkpt lat="39.85599718044377" lon="9.481655311082614"><ele>683.0</ele><time>2026-05-01T08:45:29Z</time></trkpt><trkpt lat="39.85616241070967" lon="9.48160441641782"><ele>679.6666666666666</ele><time>2026-05-01T08:45:30Z</time></trkpt><trkpt lat="39.85630788337206" lon="9.481532827022718"><ele>676.3333333333334</ele><time>2026-05-01T08:45:31Z</time></trkpt><trkpt lat="39.85643835808509" lon="9.481413597278404"><ele>673.0</ele><time>2026-05-01T08:45:32Z</time></trkpt><trkpt lat="39.85655064342144" lon="9.481240603624109"><ele>677.0</ele><time>2026-05-01T08:45:33Z</time></trkpt><trkpt lat="39.85666054587852" lon="9.481055751870066"><ele>681.0</ele><time>2026-05-01T08:45:34Z</time></trkpt><trkpt lat="39.856776627036524" lon="9.480875119145896"><ele>685.0</ele><time>2026-05-01T08:45:35Z</time></trkpt><trkpt lat="39.85690612420289" lon="9.480724811660181"><ele>685.0</ele><time>2026-05-01T08:45:36Z</time></trkpt><trkpt lat="39.85706179952984" lon="9.480677389078856"><ele>685.0</ele><time>2026-05-01T08:45:37Z</time></trkpt><trkpt lat="39.85722168972278" lon="9.480641891421152"><ele>685.0</ele><time>2026-05-01T08:45:38Z</time></trkpt><trkpt lat="39.85738742837826" lon="9.480591953397946"><ele>685.0</ele><time>2026-05-01T08:45:39Z</time></trkpt><trkpt lat="39.857554141810255" lon="9.480506118795606"><ele>685.0</ele><time>2026-05-01T08:45:40Z</time></trkpt><trkpt lat="39.857716635627796" lon="9.480396078043695"><ele>685.0</ele><time>2026-05-01T08:45:41Z</time></trkpt><trkpt lat="39.857872647071815" lon="9.480258961515064"><ele>688.0</ele><time>2026-05-01T08:45:42Z</time></trkpt><trkpt lat="39.858014133155585" lon="9.48013336592537"><ele>691.0</ele><time>2026-05-01T08:45:43Z</time></trkpt><trkpt lat="39.858141445215715" lon="9.479997657173534"><ele>694.0</ele><time>2026-05-01T08:45:44Z</time></trkpt><trkpt lat="39.85824421942104" lon="9.479808609206003"><ele>693.6666666666667</ele><time>2026-05-01T08:45:45Z</time></trkpt><trkpt lat="39.8583198036484" lon="9.479579178896415"><ele>693.3333333333334</ele><time>2026-05-01T08:45:46Z</time></trkpt><trkpt lat="39.858403064945094" lon="9.479347776982499"><ele>693.0</ele><time>2026-05-01T08:45:47Z</time></trkpt><trkpt lat="39.85852142127658" lon="9.479130176971342"><ele>693.0</ele><time>2026-05-01T08:45:48Z</time></trkpt><trkpt lat="39.85868766245042" lon="9.478946095127329"><ele>693.0</ele><time>2026-05-01T08:45:49Z</time></trkpt><trkpt lat="39.85881544440377" lon="9.478725014027557"><ele>693.0</ele><time>2026-05-01T08:45:50Z</time></trkpt><trkpt lat="39.85894804462828" lon="9.478526661335906"><ele>700.0</ele><time>2026-05-01T08:45:51Z</time></trkpt><trkpt lat="39.85905748140627" lon="9.478327945180936"><ele>707.0</ele><time>2026-05-01T08:45:52Z</time></trkpt><trkpt lat="39.85916367523357" lon="9.478134421743396"><ele>714.0</ele><time>2026-05-01T08:45:53Z</time></trkpt><trkpt lat="39.859270340210955" lon="9.477951646876019"><ele>714.0</ele><time>2026-05-01T08:45:54Z</time></trkpt><trkpt lat="39.859375238743795" lon="9.477790244385465"><ele>714.0</ele><time>2026-05-01T08:45:55Z</time></trkpt><trkpt lat="39.85948749703946" lon="9.477666574143253"><ele>714.0</ele><time>2026-05-01T08:45:56Z</time></trkpt><trkpt lat="39.859635947991194" lon="9.477627107447532"><ele>714.0</ele><time>2026-05-01T08:45:57Z</time></trkpt><trkpt lat="39.85977152934932" lon="9.47754038649501"><ele>714.0</ele><time>2026-05-01T08:45:58Z</time></trkpt><trkpt lat="39.85990812192073" lon="9.477425812668216"><ele>714.0</ele><time>2026-05-01T08:45:59Z</time></trkpt><trkpt lat="39.86004036726279" lon="9.477265953456603"><ele>711.5</ele><time>2026-05-01T08:46:00Z</time></trkpt><trkpt lat="39.860165719549364" lon="9.477128313833042"><ele>709.0</ele><time>2026-05-01T08:46:01Z</time></trkpt><trkpt lat="39.86027999997393" lon="9.477005076105526"><ele>706.5</ele><time>2026-05-01T08:46:02Z</time></trkpt><trkpt lat="39.86035048778974" lon="9.476864270610555"><ele>704.0</ele><time>2026-05-01T08:46:03Z</time></trkpt><trkpt lat="39.860358959391164" lon="9.476674644355471"><ele>704.0</ele><time>2026-05-01T08:46:04Z</time></trkpt><trkpt lat="39.86034995466156" lon="9.476460173052933"><ele>704.0</ele><time>2026-05-01T08:46:05Z</time></trkpt><trkpt lat="39.860349050981036" lon="9.476236077073322"><ele>704.0</ele><time>2026-05-01T08:46:06Z</time></trkpt><trkpt lat="39.86036000740701" lon="9.476010548149688"><ele>708.0</ele><time>2026-05-01T08:46:07Z</time></trkpt><trkpt lat="39.860371554100965" lon="9.475798915982285"><ele>712.0</ele><time>2026-05-01T08:46:08Z</time></trkpt><trkpt lat="39.86038351720981" lon="9.475611755793908"><ele>716.0</ele><time>2026-05-01T08:46:09Z</time></trkpt><trkpt lat="39.860416936506624" lon="9.475456616670765"><ele>720.0</ele><time>2026-05-01T08:46:10Z</time></trkpt><trkpt lat="39.86051606921683" lon="9.475374123522858"><ele>717.5</ele><time>2026-05-01T08:46:11Z</time></trkpt><trkpt lat="39.86064092327693" lon="9.475315030534839"><ele>715.0</ele><time>2026-05-01T08:46:12Z</time></trkpt><trkpt lat="39.860788608478614" lon="9.475267654862877"><ele>712.5</ele><time>2026-05-01T08:46:13Z</time></trkpt><trkpt lat="39.860924896992984" lon="9.475226417284768"><ele>710.0</ele><time>2026-05-01T08:46:14Z</time></trkpt><trkpt lat="39.86102547850821" lon="9.475112908261632"><ele>710.0</ele><time>2026-05-01T08:46:15Z</time></trkpt><trkpt lat="39.86108520065755" lon="9.474945867188346"><ele>710.0</ele><time>2026-05-01T08:46:16Z</time></trkpt><trkpt lat="39.86109551247598" lon="9.47474472852176"><ele>710.0</ele><time>2026-05-01T08:46:17Z</time></trkpt><trkpt lat="39.861073351610614" lon="9.474527609595688"><ele>715.0</ele><time>2026-05-01T08:46:18Z</time></trkpt><trkpt lat="39.86104690359886" lon="9.474308813831055"><ele>720.0</ele><time>2026-05-01T08:46:19Z</time></trkpt><trkpt lat="39.861054209290124" lon="9.474083555239321"><ele>725.0</ele><time>2026-05-01T08:46:20Z</time></trkpt><trkpt lat="39.8610421859785" lon="9.473867300667598"><ele>729.3333333333333</ele><time>2026-05-01T08:46:21Z</time></trkpt><trkpt lat="39.861105074618976" lon="9.473660218720926"><ele>733.6666666666666</ele><time>2026-05-01T08:46:22Z</time></trkpt><trkpt lat="39.861180387200065" lon="9.47344745329766"><ele>738.0</ele><time>2026-05-01T08:46:23Z</time></trkpt><trkpt lat="39.86125795184421" lon="9.4732366045681"><ele>738.0</ele><time>2026-05-01T08:46:24Z</time></trkpt><trkpt lat="39.86135011532582" lon="9.473052215272716"><ele>738.0</ele><time>2026-05-01T08:46:25Z</time></trkpt><trkpt lat="39.861481232804344" lon="9.472924425086616"><ele>738.0</ele><time>2026-05-01T08:46:26Z</time></trkpt><trkpt lat="39.86155902303996" lon="9.472775615832775"><ele>739.75</ele><time>2026-05-01T08:46:27Z</time></trkpt><trkpt lat="39.8616050261102" lon="9.472621294247348"><ele>741.5</ele><time>2026-05-01T08:46:28Z</time></trkpt><trkpt lat="39.861590393560554" lon="9.472426126579435"><ele>743.25</ele><time>2026-05-01T08:46:29Z</time></trkpt><trkpt lat="39.86153246122459" lon="9.472219957424239"><ele>745.0</ele><time>2026-05-01T08:46:30Z</time></trkpt><trkpt lat="39.861475920319414" lon="9.472019118537103"><ele>746.0</ele><time>2026-05-01T08:46:31Z</time></trkpt><trkpt lat="39.86147443405335" lon="9.47182102230532"><ele>747.0</ele><time>2026-05-01T08:46:32Z</time></trkpt><trkpt lat="39.86144314269843" lon="9.471655713859986"><ele>748.0</ele><time>2026-05-01T08:46:33Z</time></trkpt><trkpt lat="39.86137976814183" lon="9.471522152811325"><ele>749.0</ele><time>2026-05-01T08:46:34Z</time></trkpt><trkpt lat="39.86127149719347" lon="9.471468339383977"><ele>749.0</ele><time>2026-05-01T08:46:35Z</time></trkpt><trkpt lat="39.86115199009688" lon="9.47146549416303"><ele>749.0</ele><time>2026-05-01T08:46:36Z</time></trkpt><trkpt lat="39.86103560155407" lon="9.471430850296017"><ele>749.0</ele><time>2026-05-01T08:46:37Z</time></trkpt><trkpt lat="39.860933382923164" lon="9.47135637688716"><ele>749.0</ele><time>2026-05-01T08:46:38Z</time></trkpt><trkpt lat="39.86088565272735" lon="9.471179156972932"><ele>753.75</ele><time>2026-05-01T08:46:39Z</time></trkpt><trkpt lat="39.860825206157116" lon="9.471000117686959"><ele>758.5</ele><time>2026-05-01T08:46:40Z</time></trkpt><trkpt lat="39.86075667788167" lon="9.470822187497241"><ele>763.25</ele><time>2026-05-01T08:46:41Z</time></trkpt><trkpt lat="39.860712370239646" lon="9.470640229234698"><ele>768.0</ele><time>2026-05-01T08:46:42Z</time></trkpt><trkpt lat="39.86066257242779" lon="9.4704595373944"><ele>764.6666666666666</ele><time>2026-05-01T08:46:43Z</time></trkpt><trkpt lat="39.860602304068365" lon="9.47028312913688"><ele>761.3333333333333</ele><time>2026-05-01T08:46:44Z</time></trkpt><trkpt lat="39.860533416453805" lon="9.470107934435896"><ele>758.0</ele><time>2026-05-01T08:46:45Z</time></trkpt><trkpt lat="39.860452053705615" lon="9.469935079818375"><ele>758.0</ele><time>2026-05-01T08:46:46Z</time></trkpt><trkpt lat="39.86037691085832" lon="9.469761632296352"><ele>758.0</ele><time>2026-05-01T08:46:47Z</time></trkpt><trkpt lat="39.86030887876574" lon="9.469587487957433"><ele>758.0</ele><time>2026-05-01T08:46:48Z</time></trkpt><trkpt lat="39.86025248983514" lon="9.469410537438943"><ele>757.25</ele><time>2026-05-01T08:46:49Z</time></trkpt><trkpt lat="39.860212229867166" lon="9.469227628439063"><ele>756.5</ele><time>2026-05-01T08:46:50Z</time></trkpt><trkpt lat="39.86017560194905" lon="9.469043043598385"><ele>755.75</ele><time>2026-05-01T08:46:51Z</time></trkpt><trkpt lat="39.86013591191659" lon="9.468862940041435"><ele>755.0</ele><time>2026-05-01T08:46:52Z</time></trkpt><trkpt lat="39.86009112622248" lon="9.46868662148507"><ele>761.25</ele><time>2026-05-01T08:46:53Z</time></trkpt><trkpt lat="39.86004301221801" lon="9.468514809030776"><ele>767.5</ele><time>2026-05-01T08:46:54Z</time></trkpt><trkpt lat="39.85998932449714" lon="9.468348232055517"><ele>773.75</ele><time>2026-05-01T08:46:55Z</time></trkpt><trkpt lat="39.85993050942213" lon="9.468185745385126"><ele>780.0</ele><time>2026-05-01T08:46:56Z</time></trkpt><trkpt lat="39.859873637278625" lon="9.46802340715611"><ele>780.0</ele><time>2026-05-01T08:46:57Z</time></trkpt><trkpt lat="39.859822459864304" lon="9.467856961666621"><ele>780.0</ele><time>2026-05-01T08:46:58Z</time></trkpt><trkpt lat="39.85977948520681" lon="9.467685019061896"><ele>780.0</ele><time>2026-05-01T08:46:59Z</time></trkpt><trkpt lat="39.85974189827872" lon="9.46751221704562"><ele>780.0</ele><time>2026-05-01T08:47:00Z</time></trkpt><trkpt lat="39.85970476842756" lon="9.467340777133225"><ele>780.0</ele><time>2026-05-01T08:47:01Z</time></trkpt><trkpt lat="39.85966577091154" lon="9.467177663376525"><ele>780.0</ele><time>2026-05-01T08:47:02Z</time></trkpt><trkpt lat="39.85961184815343" lon="9.46703238547505"><ele>780.0</ele><time>2026-05-01T08:47:03Z</time></trkpt><trkpt lat="39.85955511042926" lon="9.466898477300496"><ele>780.0</ele><time>2026-05-01T08:47:04Z</time></trkpt><trkpt lat="39.85949014321232" lon="9.466785056940543"><ele>781.6</ele><time>2026-05-01T08:47:05Z</time></trkpt><trkpt lat="39.85941619915192" lon="9.466685796678705"><ele>783.2</ele><time>2026-05-01T08:47:06Z</time></trkpt><trkpt lat="39.859344832056806" lon="9.46660272931551"><ele>784.8</ele><time>2026-05-01T08:47:07Z</time></trkpt><trkpt lat="39.85927433100118" lon="9.466531749452084"><ele>786.4</ele><time>2026-05-01T08:47:08Z</time></trkpt><trkpt lat="39.859198640379766" lon="9.466470791917658"><ele>788.0</ele><time>2026-05-01T08:47:09Z</time></trkpt><trkpt lat="39.859118908242145" lon="9.466412165825139"><ele>788.0000000000001</ele><time>2026-05-01T08:47:10Z</time></trkpt><trkpt lat="39.85904454628656" lon="9.466352188988408"><ele>788.0</ele><time>2026-05-01T08:47:11Z</time></trkpt><trkpt lat="39.8589780473994" lon="9.466293970379816"><ele>788.0</ele><time>2026-05-01T08:47:12Z</time></trkpt><trkpt lat="39.85892025988439" lon="9.466232059180426"><ele>788.0</ele><time>2026-05-01T08:47:13Z</time></trkpt><trkpt lat="39.858864289628016" lon="9.466169568715301"><ele>788.0000000000001</ele><time>2026-05-01T08:47:14Z</time></trkpt><trkpt lat="39.85882395704487" lon="9.46608749179439"><ele>788.0</ele><time>2026-05-01T08:47:15Z</time></trkpt><trkpt lat="39.85878866768954" lon="9.466008944151486"><ele>789.2</ele><time>2026-05-01T08:47:16Z</time></trkpt><trkpt lat="39.85875536001156" lon="9.465839580852197"><ele>790.4</ele><time>2026-05-01T08:47:18Z</time></trkpt><trkpt lat="39.85873254332849" lon="9.465745916546199"><ele>791.6</ele><time>2026-05-01T08:47:19Z</time></trkpt><trkpt lat="39.85869127046327" lon="9.46566035927444"><ele>792.8000000000001</ele><time>2026-05-01T08:47:20Z</time></trkpt><trkpt lat="39.85861236007605" lon="9.465595482741088"><ele>794.0</ele><time>2026-05-01T08:47:21Z</time></trkpt><trkpt lat="39.85851323199152" lon="9.465565829063372"><ele>793.4000000000001</ele><time>2026-05-01T08:47:22Z</time></trkpt><trkpt lat="39.85840515723559" lon="9.465549380346774"><ele>792.8</ele><time>2026-05-01T08:47:23Z</time></trkpt><trkpt lat="39.858298244940855" lon="9.465532810323015"><ele>792.2</ele><time>2026-05-01T08:47:24Z</time></trkpt><trkpt lat="39.85818819663248" lon="9.465505822019598"><ele>791.5999999999999</ele><time>2026-05-01T08:47:25Z</time></trkpt><trkpt lat="39.85808185611599" lon="9.465463150902307"><ele>791.0</ele><time>2026-05-01T08:47:26Z</time></trkpt><trkpt lat="39.857985612829815" lon="9.465397558799673"><ele>791.1999999999999</ele><time>2026-05-01T08:47:27Z</time></trkpt><trkpt lat="39.857897099303955" lon="9.465322183047833"><ele>791.4</ele><time>2026-05-01T08:47:28Z</time></trkpt><trkpt lat="39.85781244836108" lon="9.465250577874164"><ele>791.6</ele><time>2026-05-01T08:47:29Z</time></trkpt><trkpt lat="39.85772104521334" lon="9.46520035547298"><ele>791.8</ele><time>2026-05-01T08:47:30Z</time></trkpt><trkpt lat="39.85762725670382" lon="9.465171626107358"><ele>792.0</ele><time>2026-05-01T08:47:31Z</time></trkpt><trkpt lat="39.8575331153484" lon="9.465144712402404"><ele>792.0</ele><time>2026-05-01T08:47:32Z</time></trkpt><trkpt lat="39.85743792253126" lon="9.465105737086894"><ele>792.0</ele><time>2026-05-01T08:47:33Z</time></trkpt><trkpt lat="39.8573409808213" lon="9.465050023060371"><ele>792.0</ele><time>2026-05-01T08:47:34Z</time></trkpt><trkpt lat="39.8572395554707" lon="9.464985862778672"><ele>792.0</ele><time>2026-05-01T08:47:35Z</time></trkpt><trkpt lat="39.857135038229416" lon="9.464915626765192"><ele>792.0</ele><time>2026-05-01T08:47:36Z</time></trkpt><trkpt lat="39.8570301296171" lon="9.464839525498736"><ele>792.0</ele><time>2026-05-01T08:47:37Z</time></trkpt><trkpt lat="39.856922728563625" lon="9.464760858008972"><ele>792.0</ele><time>2026-05-01T08:47:38Z</time></trkpt><trkpt lat="39.8568149245832" lon="9.464684130681642"><ele>792.0</ele><time>2026-05-01T08:47:39Z</time></trkpt><trkpt lat="39.85670732002265" lon="9.464608287893503"><ele>792.0</ele><time>2026-05-01T08:47:40Z</time></trkpt><trkpt lat="39.85660335149018" lon="9.464530398289615"><ele>790.6</ele><time>2026-05-01T08:47:41Z</time></trkpt><trkpt lat="39.85650464930391" lon="9.464455043160946"><ele>789.2</ele><time>2026-05-01T08:47:42Z</time></trkpt><trkpt lat="39.856410332403776" lon="9.464385735804138"><ele>787.8</ele><time>2026-05-01T08:47:43Z</time></trkpt><trkpt lat="39.8563197718626" lon="9.46432185067272"><ele>786.4</ele><time>2026-05-01T08:47:44Z</time></trkpt><trkpt lat="39.856233051876934" lon="9.464258605100794"><ele>785.0</ele><time>2026-05-01T08:47:45Z</time></trkpt><trkpt lat="39.856148863191116" lon="9.46419539589074"><ele>785.0</ele><time>2026-05-01T08:47:46Z</time></trkpt><trkpt lat="39.85606325501852" lon="9.464130304865003"><ele>785.0</ele><time>2026-05-01T08:47:47Z</time></trkpt><trkpt lat="39.855975782094994" lon="9.464064515815744"><ele>785.0</ele><time>2026-05-01T08:47:48Z</time></trkpt><trkpt lat="39.85588919741719" lon="9.463998765361149"><ele>785.0</ele><time>2026-05-01T08:47:49Z</time></trkpt><trkpt lat="39.85579882593845" lon="9.463936988295504"><ele>785.0</ele><time>2026-05-01T08:47:50Z</time></trkpt><trkpt lat="39.85570855456875" lon="9.463870900620515"><ele>785.4</ele><time>2026-05-01T08:47:51Z</time></trkpt><trkpt lat="39.85561682784626" lon="9.463806042203828"><ele>785.8</ele><time>2026-05-01T08:47:52Z</time></trkpt><trkpt lat="39.855524333693616" lon="9.463739780786431"><ele>786.2</ele><time>2026-05-01T08:47:53Z</time></trkpt><trkpt lat="39.85543299736077" lon="9.46366926097638"><ele>786.6</ele><time>2026-05-01T08:47:54Z</time></trkpt><trkpt lat="39.85533964526065" lon="9.46359871751701"><ele>787.0</ele><time>2026-05-01T08:47:55Z</time></trkpt><trkpt lat="39.8552434219672" lon="9.463531637964431"><ele>787.4000000000001</ele><time>2026-05-01T08:47:56Z</time></trkpt><trkpt lat="39.85514451011124" lon="9.46346701691262"><ele>787.8000000000001</ele><time>2026-05-01T08:47:57Z</time></trkpt><trkpt lat="39.85504741887163" lon="9.463399577420452"><ele>788.2</ele><time>2026-05-01T08:47:58Z</time></trkpt><trkpt lat="39.854951239354826" lon="9.46333035041596"><ele>788.6</ele><time>2026-05-01T08:47:59Z</time></trkpt><trkpt lat="39.854856569092654" lon="9.463258499933197"><ele>789.0</ele><time>2026-05-01T08:48:00Z</time></trkpt><trkpt lat="39.854760603100154" lon="9.463189227510858"><ele>789.4000000000001</ele><time>2026-05-01T08:48:01Z</time></trkpt><trkpt lat="39.85466332353991" lon="9.46312194279797"><ele>789.8</ele><time>2026-05-01T08:48:02Z</time></trkpt><trkpt lat="39.854568762227196" lon="9.46304955570115"><ele>790.2</ele><time>2026-05-01T08:48:03Z</time></trkpt><trkpt lat="39.85447416911533" lon="9.4629773587262"><ele>790.5999999999999</ele><time>2026-05-01T08:48:04Z</time></trkpt><trkpt lat="39.854376121770194" lon="9.462907068387198"><ele>791.0</ele><time>2026-05-01T08:48:05Z</time></trkpt><trkpt lat="39.854278312080574" lon="9.46283927389968"><ele>789.5</ele><time>2026-05-01T08:48:06Z</time></trkpt><trkpt lat="39.854180493977076" lon="9.462770029095672"><ele>788.0</ele><time>2026-05-01T08:48:07Z</time></trkpt><trkpt lat="39.85407921080161" lon="9.462696617529526"><ele>786.5</ele><time>2026-05-01T08:48:08Z</time></trkpt><trkpt lat="39.8539716330073" lon="9.462625011241705"><ele>785.0</ele><time>2026-05-01T08:48:09Z</time></trkpt><trkpt lat="39.85385797023596" lon="9.462546688141773"><ele>785.0</ele><time>2026-05-01T08:48:10Z</time></trkpt><trkpt lat="39.8537428404654" lon="9.462455025389348"><ele>785.0</ele><time>2026-05-01T08:48:11Z</time></trkpt><trkpt lat="39.85362188793351" lon="9.4623614314893"><ele>785.0</ele><time>2026-05-01T08:48:12Z</time></trkpt><trkpt lat="39.85349158145937" lon="9.462264767933803"><ele>785.0</ele><time>2026-05-01T08:48:13Z</time></trkpt><trkpt lat="39.853355434099626" lon="9.462162511975272"><ele>784.3333333333334</ele><time>2026-05-01T08:48:14Z</time></trkpt><trkpt lat="39.85321814163287" lon="9.462049114276057"><ele>783.6666666666667</ele><time>2026-05-01T08:48:15Z</time></trkpt><trkpt lat="39.853078173553" lon="9.461916405584077"><ele>783.0</ele><time>2026-05-01T08:48:16Z</time></trkpt><trkpt lat="39.85293386127615" lon="9.46177659579384"><ele>783.0</ele><time>2026-05-01T08:48:17Z</time></trkpt><trkpt lat="39.852779263295886" lon="9.46163171494906"><ele>783.0</ele><time>2026-05-01T08:48:18Z</time></trkpt><trkpt lat="39.8526183022693" lon="9.461483134680256"><ele>783.0</ele><time>2026-05-01T08:48:19Z</time></trkpt><trkpt lat="39.852455654438764" lon="9.46132826646013"><ele>783.0</ele><time>2026-05-01T08:48:20Z</time></trkpt><trkpt lat="39.852285308046895" lon="9.461173700242782"><ele>783.0</ele><time>2026-05-01T08:48:21Z</time></trkpt><trkpt lat="39.85211322353302" lon="9.461012754799519"><ele>783.0</ele><time>2026-05-01T08:48:22Z</time></trkpt><trkpt lat="39.85193911608692" lon="9.46085009120469"><ele>781.0</ele><time>2026-05-01T08:48:23Z</time></trkpt><trkpt lat="39.85176136297565" lon="9.460681689841728"><ele>779.0</ele><time>2026-05-01T08:48:24Z</time></trkpt><trkpt lat="39.85158645989703" lon="9.460514474693333"><ele>777.0</ele><time>2026-05-01T08:48:25Z</time></trkpt><trkpt lat="39.851419858689695" lon="9.460355007448337"><ele>778.0</ele><time>2026-05-01T08:48:26Z</time></trkpt><trkpt lat="39.851254803208995" lon="9.460197422388326"><ele>779.0</ele><time>2026-05-01T08:48:27Z</time></trkpt><trkpt lat="39.85109442849208" lon="9.460047200900028"><ele>780.0</ele><time>2026-05-01T08:48:28Z</time></trkpt><trkpt lat="39.85093339000747" lon="9.459909306904132"><ele>780.0</ele><time>2026-05-01T08:48:29Z</time></trkpt><trkpt lat="39.85076646424278" lon="9.459787264547414"><ele>780.0</ele><time>2026-05-01T08:48:30Z</time></trkpt><trkpt lat="39.85058633768974" lon="9.459686388676188"><ele>780.0</ele><time>2026-05-01T08:48:31Z</time></trkpt><trkpt lat="39.85039408533323" lon="9.459599031947945"><ele>781.0</ele><time>2026-05-01T08:48:32Z</time></trkpt><trkpt lat="39.8502019324054" lon="9.459508770401508"><ele>782.0</ele><time>2026-05-01T08:48:33Z</time></trkpt><trkpt lat="39.850010690518" lon="9.459419613000156"><ele>783.0</ele><time>2026-05-01T08:48:34Z</time></trkpt><trkpt lat="39.849821704812015" lon="9.459321741691735"><ele>783.0</ele><time>2026-05-01T08:48:35Z</time></trkpt><trkpt lat="39.849635035421606" lon="9.459205786070125"><ele>783.0</ele><time>2026-05-01T08:48:36Z</time></trkpt><trkpt lat="39.849451397556365" lon="9.459073905360835"><ele>783.0</ele><time>2026-05-01T08:48:37Z</time></trkpt><trkpt lat="39.849266421215724" lon="9.458939572192158"><ele>783.0</ele><time>2026-05-01T08:48:38Z</time></trkpt><trkpt lat="39.84908072724651" lon="9.458808686109549"><ele>783.0</ele><time>2026-05-01T08:48:39Z</time></trkpt><trkpt lat="39.84889777944472" lon="9.45868339656363"><ele>783.0</ele><time>2026-05-01T08:48:40Z</time></trkpt><trkpt lat="39.848724588020374" lon="9.458564405763651"><ele>782.3333333333333</ele><time>2026-05-01T08:48:41Z</time></trkpt><trkpt lat="39.848558936576964" lon="9.458443986243532"><ele>781.6666666666666</ele><time>2026-05-01T08:48:42Z</time></trkpt><trkpt lat="39.848402248554734" lon="9.458300599076564"><ele>781.0</ele><time>2026-05-01T08:48:43Z</time></trkpt><trkpt lat="39.84825224278142" lon="9.458126519937144"><ele>784.3333333333333</ele><time>2026-05-01T08:48:44Z</time></trkpt><trkpt lat="39.84811590572226" lon="9.457932859260138"><ele>787.6666666666667</ele><time>2026-05-01T08:48:45Z</time></trkpt><trkpt lat="39.84798761092185" lon="9.4577301094167"><ele>791.0</ele><time>2026-05-01T08:48:46Z</time></trkpt><trkpt lat="39.84786009474561" lon="9.45753543888045"><ele>791.0</ele><time>2026-05-01T08:48:47Z</time></trkpt><trkpt lat="39.84772470324752" lon="9.457367003657989"><ele>791.0</ele><time>2026-05-01T08:48:48Z</time></trkpt><trkpt lat="39.8475736399694" lon="9.45726319220877"><ele>791.0</ele><time>2026-05-01T08:48:49Z</time></trkpt><trkpt lat="39.84741048565125" lon="9.457225743900757"><ele>792.0</ele><time>2026-05-01T08:48:50Z</time></trkpt><trkpt lat="39.847251941912795" lon="9.457184886812614"><ele>793.0</ele><time>2026-05-01T08:48:51Z</time></trkpt><trkpt lat="39.84709279971878" lon="9.457174466498317"><ele>794.0</ele><time>2026-05-01T08:48:52Z</time></trkpt><trkpt lat="39.84696403307689" lon="9.457112615145292"><ele>794.0</ele><time>2026-05-01T08:48:53Z</time></trkpt><trkpt lat="39.846867959075816" lon="9.456998839333169"><ele>794.0</ele><time>2026-05-01T08:48:54Z</time></trkpt><trkpt lat="39.84679710966031" lon="9.456834519395937"><ele>794.0</ele><time>2026-05-01T08:48:55Z</time></trkpt><trkpt lat="39.84671378995755" lon="9.456678842606834"><ele>794.0</ele><time>2026-05-01T08:48:56Z</time></trkpt><trkpt lat="39.846584397657956" lon="9.456586688894008"><ele>788.0</ele><time>2026-05-01T08:48:57Z</time></trkpt><trkpt lat="39.84642592287856" lon="9.456537187041896"><ele>782.0</ele><time>2026-05-01T08:48:58Z</time></trkpt><trkpt lat="39.84626493160443" lon="9.456485062032302"><ele>776.0</ele><time>2026-05-01T08:48:59Z</time></trkpt><trkpt lat="39.846108842861675" lon="9.456432046894609"><ele>774.3333333333334</ele><time>2026-05-01T08:49:00Z</time></trkpt><trkpt lat="39.84595240441749" lon="9.456377085744043"><ele>772.6666666666667</ele><time>2026-05-01T08:49:01Z</time></trkpt><trkpt lat="39.84580640207538" lon="9.456304633797245"><ele>771.0</ele><time>2026-05-01T08:49:02Z</time></trkpt><trkpt lat="39.84567675825376" lon="9.456177118936598"><ele>774.3333333333333</ele><time>2026-05-01T08:49:03Z</time></trkpt><trkpt lat="39.845558414038074" lon="9.456008501431157"><ele>777.6666666666666</ele><time>2026-05-01T08:49:04Z</time></trkpt><trkpt lat="39.84543191755077" lon="9.455861453662774"><ele>781.0</ele><time>2026-05-01T08:49:05Z</time></trkpt><trkpt lat="39.84527271845713" lon="9.455734407367771"><ele>783.0</ele><time>2026-05-01T08:49:06Z</time></trkpt><trkpt lat="39.84509932126371" lon="9.455619361665212"><ele>785.0</ele><time>2026-05-01T08:49:07Z</time></trkpt><trkpt lat="39.84494217113283" lon="9.455468870743424"><ele>787.0</ele><time>2026-05-01T08:49:08Z</time></trkpt><trkpt lat="39.84479607557869" lon="9.45530432563262"><ele>787.0</ele><time>2026-05-01T08:49:09Z</time></trkpt><trkpt lat="39.84463745742042" lon="9.455177742004702"><ele>787.0</ele><time>2026-05-01T08:49:10Z</time></trkpt><trkpt lat="39.844459611883416" lon="9.455082742352984"><ele>787.0</ele><time>2026-05-01T08:49:11Z</time></trkpt><trkpt lat="39.84429060600685" lon="9.454964368316158"><ele>783.6666666666666</ele><time>2026-05-01T08:49:12Z</time></trkpt><trkpt lat="39.84413182456454" lon="9.4548247386913"><ele>780.3333333333333</ele><time>2026-05-01T08:49:13Z</time></trkpt><trkpt lat="39.8439758523912" lon="9.454675569837883"><ele>777.0</ele><time>2026-05-01T08:49:14Z</time></trkpt><trkpt lat="39.84381546300846" lon="9.454538502517808"><ele>777.0</ele><time>2026-05-01T08:49:15Z</time></trkpt><trkpt lat="39.84365714538439" lon="9.454404052539452"><ele>777.0</ele><time>2026-05-01T08:49:16Z</time></trkpt><trkpt lat="39.84350709732504" lon="9.454260258136062"><ele>777.0</ele><time>2026-05-01T08:49:17Z</time></trkpt><trkpt lat="39.84337710648119" lon="9.454105323722283"><ele>771.0</ele><time>2026-05-01T08:49:18Z</time></trkpt><trkpt lat="39.84324046619065" lon="9.45397341587205"><ele>765.0</ele><time>2026-05-01T08:49:19Z</time></trkpt><trkpt lat="39.84308442098309" lon="9.453877040623498"><ele>759.0</ele><time>2026-05-01T08:49:20Z</time></trkpt><trkpt lat="39.8429174290689" lon="9.453803958476168"><ele>761.3333333333334</ele><time>2026-05-01T08:49:21Z</time></trkpt><trkpt lat="39.84275444286445" lon="9.453736304136715"><ele>763.6666666666667</ele><time>2026-05-01T08:49:22Z</time></trkpt><trkpt lat="39.84259431938979" lon="9.453643055322251"><ele>766.0</ele><time>2026-05-01T08:49:23Z</time></trkpt><trkpt lat="39.8424357487703" lon="9.453516997771505"><ele>766.0</ele><time>2026-05-01T08:49:24Z</time></trkpt><trkpt lat="39.84228173246392" lon="9.453371131896834"><ele>766.0</ele><time>2026-05-01T08:49:25Z</time></trkpt><trkpt lat="39.84212802676802" lon="9.453217668151295"><ele>766.0</ele><time>2026-05-01T08:49:26Z</time></trkpt><trkpt lat="39.84198099101668" lon="9.453070671629117"><ele>765.0</ele><time>2026-05-01T08:49:27Z</time></trkpt><trkpt lat="39.84182893761907" lon="9.452918751323656"><ele>764.0</ele><time>2026-05-01T08:49:28Z</time></trkpt><trkpt lat="39.841668499220496" lon="9.452779436937552"><ele>763.0</ele><time>2026-05-01T08:49:29Z</time></trkpt><trkpt lat="39.84149743449362" lon="9.452656379678938"><ele>763.0</ele><time>2026-05-01T08:49:30Z</time></trkpt><trkpt lat="39.84131978800161" lon="9.452543305071925"><ele>763.0</ele><time>2026-05-01T08:49:31Z</time></trkpt><trkpt lat="39.84114321235923" lon="9.452432311670805"><ele>763.0</ele><time>2026-05-01T08:49:32Z</time></trkpt><trkpt lat="39.8409647586753" lon="9.452314622823932"><ele>762.6666666666667</ele><time>2026-05-01T08:49:33Z</time></trkpt><trkpt lat="39.84079667493677" lon="9.4521816384244"><ele>762.3333333333334</ele><time>2026-05-01T08:49:34Z</time></trkpt><trkpt lat="39.840640566618276" lon="9.452031918020802"><ele>762.0</ele><time>2026-05-01T08:49:35Z</time></trkpt><trkpt lat="39.840492506174634" lon="9.451887803541696"><ele>762.0</ele><time>2026-05-01T08:49:36Z</time></trkpt><trkpt lat="39.840339358158154" lon="9.451759242803684"><ele>762.0</ele><time>2026-05-01T08:49:37Z</time></trkpt><trkpt lat="39.84017086198116" lon="9.451649801745724"><ele>762.0</ele><time>2026-05-01T08:49:38Z</time></trkpt><trkpt lat="39.84000205893625" lon="9.451564413577952"><ele>759.0</ele><time>2026-05-01T08:49:39Z</time></trkpt><trkpt lat="39.839837028707166" lon="9.451531260436997"><ele>756.0</ele><time>2026-05-01T08:49:40Z</time></trkpt><trkpt lat="39.83967831947607" lon="9.451560807248246"><ele>753.0</ele><time>2026-05-01T08:49:41Z</time></trkpt><trkpt lat="39.83953464742885" lon="9.45156756948043"><ele>753.0</ele><time>2026-05-01T08:49:42Z</time></trkpt><trkpt lat="39.83939595837013" lon="9.45159821835677"><ele>753.0</ele><time>2026-05-01T08:49:43Z</time></trkpt><trkpt lat="39.83926573398582" lon="9.451565945852263"><ele>753.0</ele><time>2026-05-01T08:49:44Z</time></trkpt><trkpt lat="39.83914911671065" lon="9.451476388977033"><ele>753.0</ele><time>2026-05-01T08:49:45Z</time></trkpt><trkpt lat="39.839053089732175" lon="9.451329638080132"><ele>755.3333333333334</ele><time>2026-05-01T08:49:46Z</time></trkpt><trkpt lat="39.83896085806275" lon="9.451166966818796"><ele>757.6666666666667</ele><time>2026-05-01T08:49:47Z</time></trkpt><trkpt lat="39.83885771359085" lon="9.4510177085787"><ele>760.0</ele><time>2026-05-01T08:49:48Z</time></trkpt><trkpt lat="39.838724099402384" lon="9.450887925805535"><ele>760.0</ele><time>2026-05-01T08:49:49Z</time></trkpt><trkpt lat="39.83856969802317" lon="9.450786158796559"><ele>760.0</ele><time>2026-05-01T08:49:50Z</time></trkpt><trkpt lat="39.83840242308022" lon="9.450700453639492"><ele>760.0</ele><time>2026-05-01T08:49:51Z</time></trkpt><trkpt lat="39.83823637612211" lon="9.450614817113333"><ele>761.3333333333334</ele><time>2026-05-01T08:49:52Z</time></trkpt><trkpt lat="39.838074074066164" lon="9.45053453218274"><ele>762.6666666666666</ele><time>2026-05-01T08:49:53Z</time></trkpt><trkpt lat="39.83791622096302" lon="9.450462367571372"><ele>764.0</ele><time>2026-05-01T08:49:54Z</time></trkpt><trkpt lat="39.83776664168381" lon="9.450381108365946"><ele>759.0</ele><time>2026-05-01T08:49:55Z</time></trkpt><trkpt lat="39.83763069544296" lon="9.450260511193566"><ele>754.0</ele><time>2026-05-01T08:49:56Z</time></trkpt><trkpt lat="39.8375113158055" lon="9.45010369637173"><ele>749.0</ele><time>2026-05-01T08:49:57Z</time></trkpt><trkpt lat="39.837406403431224" lon="9.449918075512493"><ele>749.0</ele><time>2026-05-01T08:49:58Z</time></trkpt><trkpt lat="39.83730580481204" lon="9.449722870852785"><ele>749.0</ele><time>2026-05-01T08:49:59Z</time></trkpt><trkpt lat="39.83719890553732" lon="9.449528131578985"><ele>749.0</ele><time>2026-05-01T08:50:00Z</time></trkpt><trkpt lat="39.83708442007058" lon="9.449328037353416"><ele>746.6666666666666</ele><time>2026-05-01T08:50:01Z</time></trkpt><trkpt lat="39.83697078981498" lon="9.449117025609764"><ele>744.3333333333334</ele><time>2026-05-01T08:50:02Z</time></trkpt><trkpt lat="39.83686474195469" lon="9.448894058173115"><ele>742.0</ele><time>2026-05-01T08:50:03Z</time></trkpt><trkpt lat="39.83676287972822" lon="9.44866609028878"><ele>742.0</ele><time>2026-05-01T08:50:04Z</time></trkpt><trkpt lat="39.83666384984204" lon="9.448442044329266"><ele>742.0</ele><time>2026-05-01T08:50:05Z</time></trkpt><trkpt lat="39.83656569436338" lon="9.448219938637019"><ele>742.0</ele><time>2026-05-01T08:50:06Z</time></trkpt><trkpt lat="39.83646583099446" lon="9.44800275209139"><ele>745.3333333333334</ele><time>2026-05-01T08:50:07Z</time></trkpt><trkpt lat="39.836364624844876" lon="9.447795002580111"><ele>748.6666666666666</ele><time>2026-05-01T08:50:08Z</time></trkpt><trkpt lat="39.836251967522664" lon="9.447601696724252"><ele>752.0</ele><time>2026-05-01T08:50:09Z</time></trkpt><trkpt lat="39.83613201625133" lon="9.447429560426022"><ele>752.0</ele><time>2026-05-01T08:50:10Z</time></trkpt><trkpt lat="39.83601335032695" lon="9.447266203329766"><ele>752.0</ele><time>2026-05-01T08:50:11Z</time></trkpt><trkpt lat="39.83590555005706" lon="9.447104634218764"><ele>752.0</ele><time>2026-05-01T08:50:12Z</time></trkpt><trkpt lat="39.83582232131301" lon="9.446931517897017"><ele>747.0</ele><time>2026-05-01T08:50:13Z</time></trkpt><trkpt lat="39.835785662885655" lon="9.446734537950507"><ele>742.0</ele><time>2026-05-01T08:50:14Z</time></trkpt><trkpt lat="39.835764381686346" lon="9.446524209473406"><ele>737.0</ele><time>2026-05-01T08:50:15Z</time></trkpt><trkpt lat="39.83570158303116" lon="9.446334711928731"><ele>739.6666666666666</ele><time>2026-05-01T08:50:16Z</time></trkpt><trkpt lat="39.83558692512248" lon="9.446161103044256"><ele>742.3333333333334</ele><time>2026-05-01T08:50:17Z</time></trkpt><trkpt lat="39.835499812434826" lon="9.445968737655623"><ele>745.0</ele><time>2026-05-01T08:50:18Z</time></trkpt><trkpt lat="39.83542062333915" lon="9.445762542497256"><ele>745.0</ele><time>2026-05-01T08:50:19Z</time></trkpt><trkpt lat="39.83533711802555" lon="9.445555104464368"><ele>745.0</ele><time>2026-05-01T08:50:20Z</time></trkpt><trkpt lat="39.83525051847409" lon="9.445345806566555"><ele>745.0</ele><time>2026-05-01T08:50:21Z</time></trkpt><trkpt lat="39.83515330717322" lon="9.445146503562565"><ele>740.0</ele><time>2026-05-01T08:50:22Z</time></trkpt><trkpt lat="39.83504443823044" lon="9.444969683920963"><ele>735.0</ele><time>2026-05-01T08:50:23Z</time></trkpt><trkpt lat="39.834934124318195" lon="9.444807852267697"><ele>730.0</ele><time>2026-05-01T08:50:24Z</time></trkpt><trkpt lat="39.83483630842616" lon="9.444646282383715"><ele>731.3333333333334</ele><time>2026-05-01T08:50:25Z</time></trkpt><trkpt lat="39.83476820752276" lon="9.444458298429097"><ele>732.6666666666666</ele><time>2026-05-01T08:50:26Z</time></trkpt><trkpt lat="39.83473197974908" lon="9.444250732184784"><ele>734.0</ele><time>2026-05-01T08:50:27Z</time></trkpt><trkpt lat="39.83472676519824" lon="9.444041579859832"><ele>734.0</ele><time>2026-05-01T08:50:28Z</time></trkpt><trkpt lat="39.83472353255106" lon="9.4438521695793"><ele>734.0</ele><time>2026-05-01T08:50:29Z</time></trkpt><trkpt lat="39.83471921755049" lon="9.44369190935347"><ele>734.0</ele><time>2026-05-01T08:50:30Z</time></trkpt><trkpt lat="39.834714135339055" lon="9.443553068775032"><ele>734.0</ele><time>2026-05-01T08:50:31Z</time></trkpt><trkpt lat="39.83471235587281" lon="9.44342210550134"><ele>733.2</ele><time>2026-05-01T08:50:32Z</time></trkpt><trkpt lat="39.83471835088507" lon="9.443310135134897"><ele>732.4000000000001</ele><time>2026-05-01T08:50:33Z</time></trkpt><trkpt lat="39.834723754788854" lon="9.443220900695023"><ele>731.6</ele><time>2026-05-01T08:50:34Z</time></trkpt><trkpt lat="39.83472540538491" lon="9.443067517127616"><ele>730.8</ele><time>2026-05-01T08:50:36Z</time></trkpt><trkpt lat="39.83472194735353" lon="9.442921833657618"><ele>730.0</ele><time>2026-05-01T08:50:38Z</time></trkpt><trkpt lat="39.834719020271194" lon="9.442836557871471"><ele>729.8333333333334</ele><time>2026-05-01T08:50:39Z</time></trkpt><trkpt lat="39.83472020459531" lon="9.442746711016122"><ele>729.6666666666667</ele><time>2026-05-01T08:50:40Z</time></trkpt><trkpt lat="39.834722497259136" lon="9.44265766471575"><ele>729.5</ele><time>2026-05-01T08:50:41Z</time></trkpt><trkpt lat="39.83471984315955" lon="9.44256996403894"><ele>729.3333333333334</ele><time>2026-05-01T08:50:42Z</time></trkpt><trkpt lat="39.83470618384829" lon="9.4424819914004"><ele>729.1666666666666</ele><time>2026-05-01T08:50:43Z</time></trkpt><trkpt lat="39.8346868173887" lon="9.442397840260828"><ele>729.0</ele><time>2026-05-01T08:50:44Z</time></trkpt><trkpt lat="39.83464015866421" lon="9.442252908507145"><ele>729.0</ele><time>2026-05-01T08:50:46Z</time></trkpt><trkpt lat="39.83458037834034" lon="9.442136871313027"><ele>729.0</ele><time>2026-05-01T08:50:48Z</time></trkpt><trkpt lat="39.83451554229123" lon="9.442030576173211"><ele>729.0</ele><time>2026-05-01T08:50:50Z</time></trkpt><trkpt lat="39.83444369796515" lon="9.441934073863193"><ele>729.0</ele><time>2026-05-01T08:50:52Z</time></trkpt><trkpt lat="39.83435810547563" lon="9.441842106634363"><ele>729.0</ele><time>2026-05-01T08:50:54Z</time></trkpt><trkpt lat="39.83426886469973" lon="9.441761281163522"><ele>727.6</ele><time>2026-05-01T08:50:56Z</time></trkpt><trkpt lat="39.83418782759161" lon="9.44170691768988"><ele>726.2</ele><time>2026-05-01T08:50:58Z</time></trkpt><trkpt lat="39.83411047568856" lon="9.441691692898768"><ele>724.8000000000001</ele><time>2026-05-01T08:51:00Z</time></trkpt><trkpt lat="39.83401587713313" lon="9.44169223022971"><ele>723.4000000000001</ele><time>2026-05-01T08:51:03Z</time></trkpt><trkpt lat="39.83393544505694" lon="9.441728796802003"><ele>722.0</ele><time>2026-05-01T08:51:05Z</time></trkpt><trkpt lat="39.8338324626215" lon="9.441773464245731"><ele>722.0</ele><time>2026-05-01T08:51:07Z</time></trkpt><trkpt lat="39.833700697095686" lon="9.44176538731725"><ele>722.0</ele><time>2026-05-01T08:51:09Z</time></trkpt><trkpt lat="39.833631670383404" lon="9.441708879263269"><ele>722.0</ele><time>2026-05-01T08:51:10Z</time></trkpt><trkpt lat="39.83357356955474" lon="9.441615614535646"><ele>722.0</ele><time>2026-05-01T08:51:11Z</time></trkpt><trkpt lat="39.83350717148554" lon="9.441538227834286"><ele>722.0</ele><time>2026-05-01T08:51:12Z</time></trkpt><trkpt lat="39.833452955232985" lon="9.441475038042594"><ele>721.75</ele><time>2026-05-01T08:51:13Z</time></trkpt><trkpt lat="39.83338551586141" lon="9.441375117052392"><ele>721.5</ele><time>2026-05-01T08:51:14Z</time></trkpt><trkpt lat="39.83333590655759" lon="9.441257008890991"><ele>721.25</ele><time>2026-05-01T08:51:15Z</time></trkpt><trkpt lat="39.83331232098565" lon="9.441087698690977"><ele>721.0</ele><time>2026-05-01T08:51:16Z</time></trkpt><trkpt lat="39.83328667844052" lon="9.440898742237703"><ele>720.0</ele><time>2026-05-01T08:51:17Z</time></trkpt><trkpt lat="39.83326333017236" lon="9.440702985471622"><ele>719.0</ele><time>2026-05-01T08:51:18Z</time></trkpt><trkpt lat="39.833231146204156" lon="9.44051030611462"><ele>718.0</ele><time>2026-05-01T08:51:19Z</time></trkpt><trkpt lat="39.833193280212775" lon="9.440337988470905"><ele>717.0</ele><time>2026-05-01T08:51:20Z</time></trkpt><trkpt lat="39.83312350224673" lon="9.440190640872945"><ele>716.25</ele><time>2026-05-01T08:51:21Z</time></trkpt><trkpt lat="39.83301487429303" lon="9.440078689060178"><ele>715.5</ele><time>2026-05-01T08:51:22Z</time></trkpt><trkpt lat="39.832893839153954" lon="9.439966472247418"><ele>714.75</ele><time>2026-05-01T08:51:23Z</time></trkpt><trkpt lat="39.83277923245476" lon="9.439831665409029"><ele>714.0</ele><time>2026-05-01T08:51:24Z</time></trkpt><trkpt lat="39.83267608964365" lon="9.43967407932573"><ele>713.0</ele><time>2026-05-01T08:51:25Z</time></trkpt><trkpt lat="39.83256899188517" lon="9.439501320745343"><ele>712.0</ele><time>2026-05-01T08:51:26Z</time></trkpt><trkpt lat="39.83246005538962" lon="9.439328235881183"><ele>711.0</ele><time>2026-05-01T08:51:27Z</time></trkpt><trkpt lat="39.83235014475314" lon="9.439151562642483"><ele>711.0</ele><time>2026-05-01T08:51:28Z</time></trkpt><trkpt lat="39.83224561770574" lon="9.438983329358672"><ele>711.0</ele><time>2026-05-01T08:51:29Z</time></trkpt><trkpt lat="39.83214992320797" lon="9.438810292854077"><ele>711.0</ele><time>2026-05-01T08:51:30Z</time></trkpt><trkpt lat="39.832077325967376" lon="9.438626114758065"><ele>707.3333333333334</ele><time>2026-05-01T08:51:31Z</time></trkpt><trkpt lat="39.83204113952352" lon="9.438418558022239"><ele>703.6666666666667</ele><time>2026-05-01T08:51:32Z</time></trkpt><trkpt lat="39.83203965497561" lon="9.438199209355982"><ele>700.0</ele><time>2026-05-01T08:51:33Z</time></trkpt><trkpt lat="39.832073747553956" lon="9.437971078393618"><ele>698.3333333333334</ele><time>2026-05-01T08:51:34Z</time></trkpt><trkpt lat="39.83211233831329" lon="9.437739058394646"><ele>696.6666666666666</ele><time>2026-05-01T08:51:35Z</time></trkpt><trkpt lat="39.832137491697665" lon="9.43750390883372"><ele>695.0</ele><time>2026-05-01T08:51:36Z</time></trkpt><trkpt lat="39.832150444023064" lon="9.437258982646409"><ele>695.0</ele><time>2026-05-01T08:51:37Z</time></trkpt><trkpt lat="39.83216121083988" lon="9.437012040127096"><ele>695.0</ele><time>2026-05-01T08:51:38Z</time></trkpt><trkpt lat="39.83217550618963" lon="9.436761225182469"><ele>695.0</ele><time>2026-05-01T08:51:39Z</time></trkpt><trkpt lat="39.83217904995658" lon="9.436503969362443"><ele>695.0</ele><time>2026-05-01T08:51:40Z</time></trkpt><trkpt lat="39.83215614388727" lon="9.436246156514077"><ele>695.0</ele><time>2026-05-01T08:51:41Z</time></trkpt><trkpt lat="39.83211960694212" lon="9.435985379178017"><ele>695.0</ele><time>2026-05-01T08:51:42Z</time></trkpt><trkpt lat="39.832085241549734" lon="9.435726289170665"><ele>695.0</ele><time>2026-05-01T08:51:43Z</time></trkpt><trkpt lat="39.832060924053145" lon="9.435473973029021"><ele>695.0</ele><time>2026-05-01T08:51:44Z</time></trkpt><trkpt lat="39.832043596086486" lon="9.435233148872552"><ele>695.0</ele><time>2026-05-01T08:51:45Z</time></trkpt><trkpt lat="39.83205364949726" lon="9.435003950234329"><ele>694.6666666666666</ele><time>2026-05-01T08:51:46Z</time></trkpt><trkpt lat="39.83209750785431" lon="9.434789079522636"><ele>694.3333333333334</ele><time>2026-05-01T08:51:47Z</time></trkpt><trkpt lat="39.832177868820146" lon="9.434599619517073"><ele>694.0</ele><time>2026-05-01T08:51:48Z</time></trkpt><trkpt lat="39.83228225846152" lon="9.434455386583489"><ele>694.0</ele><time>2026-05-01T08:51:49Z</time></trkpt><trkpt lat="39.832360401293194" lon="9.434309437436733"><ele>694.0</ele><time>2026-05-01T08:51:50Z</time></trkpt><trkpt lat="39.83238247136011" lon="9.434131626909897"><ele>694.0</ele><time>2026-05-01T08:51:51Z</time></trkpt><trkpt lat="39.8323603927388" lon="9.433937450912328"><ele>694.0</ele><time>2026-05-01T08:51:52Z</time></trkpt><trkpt lat="39.83236985744891" lon="9.433758005689914"><ele>696.0</ele><time>2026-05-01T08:51:53Z</time></trkpt><trkpt lat="39.83240593915319" lon="9.43359876464657"><ele>698.0</ele><time>2026-05-01T08:51:54Z</time></trkpt><trkpt lat="39.83248712502833" lon="9.433420348422043"><ele>700.0</ele><time>2026-05-01T08:51:55Z</time></trkpt><trkpt lat="39.83260422577" lon="9.43325414052649"><ele>695.0</ele><time>2026-05-01T08:51:56Z</time></trkpt><trkpt lat="39.83270474738912" lon="9.43308905448168"><ele>690.0</ele><time>2026-05-01T08:51:57Z</time></trkpt><trkpt lat="39.832789922782794" lon="9.432930548313701"><ele>685.0</ele><time>2026-05-01T08:51:58Z</time></trkpt><trkpt lat="39.832849676943745" lon="9.432764128351005"><ele>685.0</ele><time>2026-05-01T08:51:59Z</time></trkpt><trkpt lat="39.83286506171134" lon="9.432582361724613"><ele>685.0</ele><time>2026-05-01T08:52:00Z</time></trkpt><trkpt lat="39.83282692650242" lon="9.43240781007878"><ele>685.0</ele><time>2026-05-01T08:52:01Z</time></trkpt><trkpt lat="39.83278894467695" lon="9.432219631210359"><ele>685.0</ele><time>2026-05-01T08:52:02Z</time></trkpt><trkpt lat="39.83279904248801" lon="9.432016808285407"><ele>684.6666666666667</ele><time>2026-05-01T08:52:03Z</time></trkpt><trkpt lat="39.832835454881206" lon="9.431803718314919"><ele>684.3333333333334</ele><time>2026-05-01T08:52:04Z</time></trkpt><trkpt lat="39.832867806738484" lon="9.431575157661339"><ele>684.0</ele><time>2026-05-01T08:52:05Z</time></trkpt><trkpt lat="39.83289458020229" lon="9.431351386938537"><ele>682.6666666666666</ele><time>2026-05-01T08:52:06Z</time></trkpt><trkpt lat="39.83291193650232" lon="9.431127939293372"><ele>681.3333333333333</ele><time>2026-05-01T08:52:07Z</time></trkpt><trkpt lat="39.832900414167064" lon="9.430907358941177"><ele>680.0</ele><time>2026-05-01T08:52:08Z</time></trkpt><trkpt lat="39.83286288309935" lon="9.430697435953089"><ele>680.0</ele><time>2026-05-01T08:52:09Z</time></trkpt><trkpt lat="39.832835696517705" lon="9.430494498452836"><ele>680.0</ele><time>2026-05-01T08:52:10Z</time></trkpt><trkpt lat="39.83285403381746" lon="9.430295546668699"><ele>680.0</ele><time>2026-05-01T08:52:11Z</time></trkpt><trkpt lat="39.832938549493356" lon="9.430128899238412"><ele>679.6666666666666</ele><time>2026-05-01T08:52:12Z</time></trkpt><trkpt lat="39.83299846243483" lon="9.429949620377302"><ele>679.3333333333334</ele><time>2026-05-01T08:52:13Z</time></trkpt><trkpt lat="39.833032472794685" lon="9.42975514830806"><ele>679.0</ele><time>2026-05-01T08:52:14Z</time></trkpt><trkpt lat="39.83304721190258" lon="9.429558206206531"><ele>679.0</ele><time>2026-05-01T08:52:15Z</time></trkpt><trkpt lat="39.83309655466001" lon="9.42937372982788"><ele>679.0</ele><time>2026-05-01T08:52:16Z</time></trkpt><trkpt lat="39.8331864470803" lon="9.429202663814156"><ele>679.0</ele><time>2026-05-01T08:52:17Z</time></trkpt><trkpt lat="39.833276888026965" lon="9.429028468321604"><ele>679.0</ele><time>2026-05-01T08:52:18Z</time></trkpt><trkpt lat="39.83334249331878" lon="9.428824795717297"><ele>679.0</ele><time>2026-05-01T08:52:19Z</time></trkpt><trkpt lat="39.83340631966341" lon="9.428608166399226"><ele>679.0</ele><time>2026-05-01T08:52:20Z</time></trkpt><trkpt lat="39.833489664624686" lon="9.428400642081018"><ele>678.3333333333334</ele><time>2026-05-01T08:52:21Z</time></trkpt><trkpt lat="39.833585331175684" lon="9.428196642294475"><ele>677.6666666666666</ele><time>2026-05-01T08:52:22Z</time></trkpt><trkpt lat="39.833683033546684" lon="9.427985172898826"><ele>677.0</ele><time>2026-05-01T08:52:23Z</time></trkpt><trkpt lat="39.83378773260806" lon="9.427780592675635"><ele>677.0</ele><time>2026-05-01T08:52:24Z</time></trkpt><trkpt lat="39.83391208537769" lon="9.427588878388146"><ele>677.0</ele><time>2026-05-01T08:52:25Z</time></trkpt><trkpt lat="39.83404297243247" lon="9.427401276316296"><ele>677.0</ele><time>2026-05-01T08:52:26Z</time></trkpt><trkpt lat="39.8341599000355" lon="9.427210242380543"><ele>677.6666666666666</ele><time>2026-05-01T08:52:27Z</time></trkpt><trkpt lat="39.83424301872005" lon="9.427012859740579"><ele>678.3333333333334</ele><time>2026-05-01T08:52:28Z</time></trkpt><trkpt lat="39.83430325159141" lon="9.426839400285573"><ele>679.0</ele><time>2026-05-01T08:52:29Z</time></trkpt><trkpt lat="39.834330526796414" lon="9.426658355480601"><ele>680.6666666666667</ele><time>2026-05-01T08:52:30Z</time></trkpt><trkpt lat="39.83431161144779" lon="9.42646599895565"><ele>682.3333333333334</ele><time>2026-05-01T08:52:31Z</time></trkpt><trkpt lat="39.83427523728424" lon="9.426252984249974"><ele>684.0</ele><time>2026-05-01T08:52:32Z</time></trkpt><trkpt lat="39.83424961932147" lon="9.426043791611763"><ele>680.0</ele><time>2026-05-01T08:52:33Z</time></trkpt><trkpt lat="39.83421072539997" lon="9.425833787116765"><ele>676.0</ele><time>2026-05-01T08:52:34Z</time></trkpt><trkpt lat="39.834136580276564" lon="9.425634740320579"><ele>672.0</ele><time>2026-05-01T08:52:35Z</time></trkpt><trkpt lat="39.83404215860507" lon="9.425449870471018"><ele>668.3333333333334</ele><time>2026-05-01T08:52:36Z</time></trkpt><trkpt lat="39.8339587748499" lon="9.425262041417994"><ele>664.6666666666667</ele><time>2026-05-01T08:52:37Z</time></trkpt><trkpt lat="39.83390429509886" lon="9.42506398732266"><ele>661.0</ele><time>2026-05-01T08:52:38Z</time></trkpt><trkpt lat="39.83387981530069" lon="9.424859423326911"><ele>661.0</ele><time>2026-05-01T08:52:39Z</time></trkpt><trkpt lat="39.83387389551248" lon="9.424671395809217"><ele>661.0</ele><time>2026-05-01T08:52:40Z</time></trkpt><trkpt lat="39.833900157804266" lon="9.424493656866854"><ele>661.0</ele><time>2026-05-01T08:52:41Z</time></trkpt><trkpt lat="39.83396715313736" lon="9.424347298001589"><ele>661.0</ele><time>2026-05-01T08:52:42Z</time></trkpt><trkpt lat="39.83405958135305" lon="9.424217973976726"><ele>659.0</ele><time>2026-05-01T08:52:43Z</time></trkpt><trkpt lat="39.83413953769697" lon="9.424083264348553"><ele>657.0</ele><time>2026-05-01T08:52:44Z</time></trkpt><trkpt lat="39.83417716395323" lon="9.42392986288936"><ele>655.0</ele><time>2026-05-01T08:52:45Z</time></trkpt><trkpt lat="39.83415732643856" lon="9.423771755549268"><ele>653.0</ele><time>2026-05-01T08:52:46Z</time></trkpt><trkpt lat="39.83409899643105" lon="9.423607081988568"><ele>652.3333333333333</ele><time>2026-05-01T08:52:47Z</time></trkpt><trkpt lat="39.83403644341693" lon="9.423427409550031"><ele>651.6666666666666</ele><time>2026-05-01T08:52:48Z</time></trkpt><trkpt lat="39.83401819355703" lon="9.423238035135489"><ele>651.0</ele><time>2026-05-01T08:52:49Z</time></trkpt><trkpt lat="39.83403988283108" lon="9.423035905563266"><ele>650.0</ele><time>2026-05-01T08:52:50Z</time></trkpt><trkpt lat="39.834089084334586" lon="9.422831428433325"><ele>649.0</ele><time>2026-05-01T08:52:51Z</time></trkpt><trkpt lat="39.834145045114454" lon="9.422627757569352"><ele>648.0</ele><time>2026-05-01T08:52:52Z</time></trkpt><trkpt lat="39.83418729012536" lon="9.422423265726023"><ele>648.0</ele><time>2026-05-01T08:52:53Z</time></trkpt><trkpt lat="39.83422879660047" lon="9.422221199643438"><ele>648.0</ele><time>2026-05-01T08:52:54Z</time></trkpt><trkpt lat="39.8342560306656" lon="9.42201941795547"><ele>648.0</ele><time>2026-05-01T08:52:55Z</time></trkpt><trkpt lat="39.83424552249917" lon="9.421823579861364"><ele>647.0</ele><time>2026-05-01T08:52:56Z</time></trkpt><trkpt lat="39.83419634901437" lon="9.421630729155554"><ele>646.0</ele><time>2026-05-01T08:52:57Z</time></trkpt><trkpt lat="39.83413443643321" lon="9.42143632766077"><ele>645.0</ele><time>2026-05-01T08:52:58Z</time></trkpt><trkpt lat="39.83407937876423" lon="9.421238365885197"><ele>641.6666666666666</ele><time>2026-05-01T08:52:59Z</time></trkpt><trkpt lat="39.83403949645197" lon="9.421034714318663"><ele>638.3333333333333</ele><time>2026-05-01T08:53:00Z</time></trkpt><trkpt lat="39.8340212558609" lon="9.420827241781257"><ele>635.0</ele><time>2026-05-01T08:53:01Z</time></trkpt><trkpt lat="39.83401406711446" lon="9.420631120606162"><ele>632.25</ele><time>2026-05-01T08:53:02Z</time></trkpt><trkpt lat="39.834004791541" lon="9.420454154735536"><ele>629.5</ele><time>2026-05-01T08:53:03Z</time></trkpt><trkpt lat="39.83395380646929" lon="9.420297777451543"><ele>626.75</ele><time>2026-05-01T08:53:04Z</time></trkpt><trkpt lat="39.83384761962389" lon="9.42019206254281"><ele>624.0</ele><time>2026-05-01T08:53:05Z</time></trkpt><trkpt lat="39.83370219891139" lon="9.420132441429544"><ele>624.0</ele><time>2026-05-01T08:53:06Z</time></trkpt><trkpt lat="39.83355621583484" lon="9.42007276121141"><ele>624.0</ele><time>2026-05-01T08:53:07Z</time></trkpt><trkpt lat="39.833422452329856" lon="9.41999435718308"><ele>624.0</ele><time>2026-05-01T08:53:08Z</time></trkpt><trkpt lat="39.833284232669016" lon="9.419909803847602"><ele>621.3333333333334</ele><time>2026-05-01T08:53:09Z</time></trkpt><trkpt lat="39.83315613223918" lon="9.419812673118049"><ele>618.6666666666667</ele><time>2026-05-01T08:53:10Z</time></trkpt><trkpt lat="39.8330616001388" lon="9.419660380488123"><ele>616.0</ele><time>2026-05-01T08:53:11Z</time></trkpt><trkpt lat="39.83298987216786" lon="9.41947497011794"><ele>616.0</ele><time>2026-05-01T08:53:12Z</time></trkpt><trkpt lat="39.8329201930688" lon="9.419270874658283"><ele>616.0</ele><time>2026-05-01T08:53:13Z</time></trkpt><trkpt lat="39.832844886343935" lon="9.419059587767489"><ele>616.0</ele><time>2026-05-01T08:53:14Z</time></trkpt><trkpt lat="39.83275826156266" lon="9.418838642030067"><ele>620.3333333333334</ele><time>2026-05-01T08:53:15Z</time></trkpt><trkpt lat="39.83267412391466" lon="9.418607064682558"><ele>624.6666666666666</ele><time>2026-05-01T08:53:16Z</time></trkpt><trkpt lat="39.832598202410296" lon="9.418384044013065"><ele>629.0</ele><time>2026-05-01T08:53:17Z</time></trkpt><trkpt lat="39.832521879992" lon="9.418170363328844"><ele>625.0</ele><time>2026-05-01T08:53:18Z</time></trkpt><trkpt lat="39.832441545257836" lon="9.417974518722529"><ele>621.0</ele><time>2026-05-01T08:53:19Z</time></trkpt><trkpt lat="39.83233203535354" lon="9.417816739958306"><ele>617.0</ele><time>2026-05-01T08:53:20Z</time></trkpt><trkpt lat="39.83219689726241" lon="9.41769162546164"><ele>617.0</ele><time>2026-05-01T08:53:21Z</time></trkpt><trkpt lat="39.83207367136058" lon="9.41757412984101"><ele>617.0</ele><time>2026-05-01T08:53:22Z</time></trkpt><trkpt lat="39.83198462424905" lon="9.417437179788744"><ele>617.0</ele><time>2026-05-01T08:53:23Z</time></trkpt><trkpt lat="39.83195689180399" lon="9.417265780514601"><ele>617.0</ele><time>2026-05-01T08:53:24Z</time></trkpt><trkpt lat="39.831964359866305" lon="9.417089589022844"><ele>613.3333333333333</ele><time>2026-05-01T08:53:25Z</time></trkpt><trkpt lat="39.831995719780046" lon="9.416902429671955"><ele>609.6666666666666</ele><time>2026-05-01T08:53:26Z</time></trkpt><trkpt lat="39.832058242452476" lon="9.416707557204012"><ele>606.0</ele><time>2026-05-01T08:53:27Z</time></trkpt><trkpt lat="39.83208583671884" lon="9.416525219385115"><ele>606.0</ele><time>2026-05-01T08:53:28Z</time></trkpt><trkpt lat="39.83210714962222" lon="9.416355824614458"><ele>606.0</ele><time>2026-05-01T08:53:29Z</time></trkpt><trkpt lat="39.832039842679436" lon="9.416203721532696"><ele>606.0</ele><time>2026-05-01T08:53:30Z</time></trkpt><trkpt lat="39.831935296197855" lon="9.416096144665564"><ele>606.0</ele><time>2026-05-01T08:53:31Z</time></trkpt><trkpt lat="39.83180313751498" lon="9.416023164814032"><ele>607.3333333333334</ele><time>2026-05-01T08:53:32Z</time></trkpt><trkpt lat="39.83166155482694" lon="9.41595519391412"><ele>608.6666666666667</ele><time>2026-05-01T08:53:33Z</time></trkpt><trkpt lat="39.8315115195818" lon="9.415899568104313"><ele>610.0</ele><time>2026-05-01T08:53:34Z</time></trkpt><trkpt lat="39.83136721188509" lon="9.415854590273133"><ele>610.0</ele><time>2026-05-01T08:53:35Z</time></trkpt><trkpt lat="39.83124413603177" lon="9.415798337073433"><ele>610.0</ele><time>2026-05-01T08:53:36Z</time></trkpt><trkpt lat="39.831149423243524" lon="9.415684511017865"><ele>610.0</ele><time>2026-05-01T08:53:37Z</time></trkpt><trkpt lat="39.831067992007725" lon="9.415523006307103"><ele>610.0</ele><time>2026-05-01T08:53:38Z</time></trkpt><trkpt lat="39.83099903846973" lon="9.41534644313268"><ele>612.3333333333334</ele><time>2026-05-01T08:53:39Z</time></trkpt><trkpt lat="39.83094486366585" lon="9.415147475659523"><ele>614.6666666666666</ele><time>2026-05-01T08:53:40Z</time></trkpt><trkpt lat="39.8308954218892" lon="9.414945691028151"><ele>617.0</ele><time>2026-05-01T08:53:41Z</time></trkpt><trkpt lat="39.83086184066214" lon="9.414745170206352"><ele>613.0</ele><time>2026-05-01T08:53:42Z</time></trkpt><trkpt lat="39.83086144386266" lon="9.41453915400045"><ele>609.0</ele><time>2026-05-01T08:53:43Z</time></trkpt><trkpt lat="39.83088210860122" lon="9.414338149403669"><ele>605.0</ele><time>2026-05-01T08:53:44Z</time></trkpt><trkpt lat="39.83089152507664" lon="9.414141564024062"><ele>605.0</ele><time>2026-05-01T08:53:45Z</time></trkpt><trkpt lat="39.83085528766665" lon="9.413934767385962"><ele>605.0</ele><time>2026-05-01T08:53:46Z</time></trkpt><trkpt lat="39.83080014135358" lon="9.413730901602351"><ele>605.0</ele><time>2026-05-01T08:53:47Z</time></trkpt><trkpt lat="39.83074707109553" lon="9.41352695166754"><ele>600.3333333333333</ele><time>2026-05-01T08:53:48Z</time></trkpt><trkpt lat="39.83070281865451" lon="9.4133259446115"><ele>595.6666666666666</ele><time>2026-05-01T08:53:49Z</time></trkpt><trkpt lat="39.83064076010458" lon="9.413140589967698"><ele>591.0</ele><time>2026-05-01T08:53:50Z</time></trkpt><trkpt lat="39.830551452050905" lon="9.41299041991158"><ele>592.0</ele><time>2026-05-01T08:53:51Z</time></trkpt><trkpt lat="39.83042797359362" lon="9.412890325458385"><ele>593.0</ele><time>2026-05-01T08:53:52Z</time></trkpt><trkpt lat="39.83028824690059" lon="9.41282965954942"><ele>594.0</ele><time>2026-05-01T08:53:53Z</time></trkpt><trkpt lat="39.83015773231654" lon="9.412752099179828"><ele>595.0</ele><time>2026-05-01T08:53:54Z</time></trkpt><trkpt lat="39.83002524335152" lon="9.412687484357578"><ele>595.0</ele><time>2026-05-01T08:53:55Z</time></trkpt><trkpt lat="39.829905896372935" lon="9.412637238040867"><ele>595.0</ele><time>2026-05-01T08:53:56Z</time></trkpt><trkpt lat="39.829823924004394" lon="9.412540126002694"><ele>595.0</ele><time>2026-05-01T08:53:57Z</time></trkpt><trkpt lat="39.82978866797694" lon="9.412407704921304"><ele>595.0</ele><time>2026-05-01T08:53:58Z</time></trkpt><trkpt lat="39.829799442093666" lon="9.41224929069254"><ele>594.5</ele><time>2026-05-01T08:53:59Z</time></trkpt><trkpt lat="39.82984038463138" lon="9.412070544307564"><ele>594.0</ele><time>2026-05-01T08:54:00Z</time></trkpt><trkpt lat="39.82990903743463" lon="9.411890314907284"><ele>593.5</ele><time>2026-05-01T08:54:01Z</time></trkpt><trkpt lat="39.82997983629468" lon="9.411722634229026"><ele>593.0</ele><time>2026-05-01T08:54:02Z</time></trkpt><trkpt lat="39.83004072317917" lon="9.411516687219716"><ele>593.3333333333333</ele><time>2026-05-01T08:54:03Z</time></trkpt><trkpt lat="39.83009085302201" lon="9.411306511219852"><ele>593.6666666666666</ele><time>2026-05-01T08:54:04Z</time></trkpt><trkpt lat="39.83014387798024" lon="9.411090145615235"><ele>594.0</ele><time>2026-05-01T08:54:05Z</time></trkpt><trkpt lat="39.830177983006614" lon="9.410866394408668"><ele>580.3333333333334</ele><time>2026-05-01T08:54:06Z</time></trkpt><trkpt lat="39.8301834823079" lon="9.410639880127386"><ele>566.6666666666667</ele><time>2026-05-01T08:54:07Z</time></trkpt><trkpt lat="39.830192552578225" lon="9.41041549306554"><ele>553.0</ele><time>2026-05-01T08:54:08Z</time></trkpt><trkpt lat="39.83020045233954" lon="9.410208786941665"><ele>553.0</ele><time>2026-05-01T08:54:09Z</time></trkpt><trkpt lat="39.83017926677179" lon="9.410020182093302"><ele>553.0</ele><time>2026-05-01T08:54:10Z</time></trkpt><trkpt lat="39.83011215216945" lon="9.409855377928388"><ele>553.0</ele><time>2026-05-01T08:54:11Z</time></trkpt><trkpt lat="39.830009549472386" lon="9.409723577895344"><ele>553.0</ele><time>2026-05-01T08:54:12Z</time></trkpt><trkpt lat="39.82989894734004" lon="9.409612799678504"><ele>554.0</ele><time>2026-05-01T08:54:13Z</time></trkpt><trkpt lat="39.82976702075249" lon="9.40960197387367"><ele>555.0</ele><time>2026-05-01T08:54:14Z</time></trkpt><trkpt lat="39.82965942416083" lon="9.40957113574752"><ele>556.0</ele><time>2026-05-01T08:54:15Z</time></trkpt><trkpt lat="39.82957706412066" lon="9.409557192468439"><ele>557.0</ele><time>2026-05-01T08:54:16Z</time></trkpt><trkpt lat="39.82954381097815" lon="9.409482060722741"><ele>558.0</ele><time>2026-05-01T08:54:17Z</time></trkpt><trkpt lat="39.82956495733447" lon="9.40939807315125"><ele>558.0</ele><time>2026-05-01T08:54:18Z</time></trkpt><trkpt lat="39.829637918560444" lon="9.409356360839476"><ele>558.0</ele><time>2026-05-01T08:54:19Z</time></trkpt><trkpt lat="39.82971810854001" lon="9.409396926767268"><ele>558.0</ele><time>2026-05-01T08:54:20Z</time></trkpt><trkpt lat="39.82981744487423" lon="9.409451916896085"><ele>558.0</ele><time>2026-05-01T08:54:21Z</time></trkpt><trkpt lat="39.82993694963293" lon="9.409491889668267"><ele>558.0</ele><time>2026-05-01T08:54:22Z</time></trkpt><trkpt lat="39.830049160266505" lon="9.409535664053179"><ele>556.75</ele><time>2026-05-01T08:54:23Z</time></trkpt><trkpt lat="39.83016905294981" lon="9.409606209873267"><ele>555.5</ele><time>2026-05-01T08:54:24Z</time></trkpt><trkpt lat="39.83029505327068" lon="9.409700488425106"><ele>554.25</ele><time>2026-05-01T08:54:25Z</time></trkpt><trkpt lat="39.83039794159117" lon="9.409824735138896"><ele>553.0</ele><time>2026-05-01T08:54:26Z</time></trkpt><trkpt lat="39.83043959847593" lon="9.409997980066327"><ele>553.0</ele><time>2026-05-01T08:54:27Z</time></trkpt><trkpt lat="39.83050390916636" lon="9.410171733193181"><ele>553.0</ele><time>2026-05-01T08:54:28Z</time></trkpt><trkpt lat="39.83054012988034" lon="9.410358803717285"><ele>553.0</ele><time>2026-05-01T08:54:29Z</time></trkpt><trkpt lat="39.830548499568906" lon="9.410560118456104"><ele>552.6666666666667</ele><time>2026-05-01T08:54:30Z</time></trkpt><trkpt lat="39.83056497170215" lon="9.410763113306778"><ele>552.3333333333334</ele><time>2026-05-01T08:54:31Z</time></trkpt><trkpt lat="39.83058013483444" lon="9.410959497577299"><ele>552.0</ele><time>2026-05-01T08:54:32Z</time></trkpt><trkpt lat="39.83058993952011" lon="9.411146266588082"><ele>552.0</ele><time>2026-05-01T08:54:33Z</time></trkpt><trkpt lat="39.83056752566608" lon="9.411320696296988"><ele>552.0</ele><time>2026-05-01T08:54:34Z</time></trkpt><trkpt lat="39.83051573442492" lon="9.411483329436878"><ele>552.0</ele><time>2026-05-01T08:54:35Z</time></trkpt><trkpt lat="39.83049008461076" lon="9.411643223437443"><ele>552.0</ele><time>2026-05-01T08:54:36Z</time></trkpt><trkpt lat="39.83046743951338" lon="9.411788145403138"><ele>552.5</ele><time>2026-05-01T08:54:37Z</time></trkpt><trkpt lat="39.83050818684607" lon="9.411934033945931"><ele>553.0</ele><time>2026-05-01T08:54:38Z</time></trkpt><trkpt lat="39.83061208268418" lon="9.412020042650097"><ele>553.5</ele><time>2026-05-01T08:54:39Z</time></trkpt><trkpt lat="39.83072305799579" lon="9.412074277571039"><ele>554.0</ele><time>2026-05-01T08:54:40Z</time></trkpt><trkpt lat="39.83084488351317" lon="9.412112655698438"><ele>558.0</ele><time>2026-05-01T08:54:41Z</time></trkpt><trkpt lat="39.830969546445665" lon="9.412158193083817"><ele>562.0</ele><time>2026-05-01T08:54:42Z</time></trkpt><trkpt lat="39.83108493588833" lon="9.412213594913583"><ele>566.0</ele><time>2026-05-01T08:54:43Z</time></trkpt><trkpt lat="39.831172620831" lon="9.412309458914171"><ele>570.0</ele><time>2026-05-01T08:54:44Z</time></trkpt><trkpt lat="39.831208322279224" lon="9.412462910423574"><ele>565.0</ele><time>2026-05-01T08:54:45Z</time></trkpt><trkpt lat="39.83126572857479" lon="9.41262729053209"><ele>560.0</ele><time>2026-05-01T08:54:46Z</time></trkpt><trkpt lat="39.831324683040215" lon="9.412799997045868"><ele>555.0</ele><time>2026-05-01T08:54:47Z</time></trkpt><trkpt lat="39.831385114543345" lon="9.412977911228326"><ele>550.0</ele><time>2026-05-01T08:54:48Z</time></trkpt><trkpt lat="39.83144656011681" lon="9.413158810892742"><ele>550.0</ele><time>2026-05-01T08:54:49Z</time></trkpt><trkpt lat="39.83150768530296" lon="9.413338962034485"><ele>550.0</ele><time>2026-05-01T08:54:50Z</time></trkpt><trkpt lat="39.83157979951422" lon="9.413509486830304"><ele>550.0</ele><time>2026-05-01T08:54:51Z</time></trkpt><trkpt lat="39.83162028842146" lon="9.413687218805993"><ele>550.0</ele><time>2026-05-01T08:54:52Z</time></trkpt><trkpt lat="39.83165329231704" lon="9.413845778452478"><ele>549.6</ele><time>2026-05-01T08:54:53Z</time></trkpt><trkpt lat="39.83168831982093" lon="9.413968688781093"><ele>549.2</ele><time>2026-05-01T08:54:54Z</time></trkpt><trkpt lat="39.831755009004354" lon="9.414035725277715"><ele>548.8</ele><time>2026-05-01T08:54:55Z</time></trkpt><trkpt lat="39.83185116373533" lon="9.413976385578199"><ele>548.4</ele><time>2026-05-01T08:54:56Z</time></trkpt><trkpt lat="39.8318979233325" lon="9.413874933328637"><ele>548.0</ele><time>2026-05-01T08:54:57Z</time></trkpt><trkpt lat="39.83189285794313" lon="9.413743068311843"><ele>548.5</ele><time>2026-05-01T08:54:58Z</time></trkpt><trkpt lat="39.83183315416235" lon="9.413597636526163"><ele>549.0</ele><time>2026-05-01T08:54:59Z</time></trkpt><trkpt lat="39.83177564275071" lon="9.413447901242494"><ele>549.5</ele><time>2026-05-01T08:55:00Z</time></trkpt><trkpt lat="39.831714078362715" lon="9.413284276350453"><ele>550.0</ele><time>2026-05-01T08:55:01Z</time></trkpt><trkpt lat="39.8316418583787" lon="9.413112868580491"><ele>544.3333333333334</ele><time>2026-05-01T08:55:02Z</time></trkpt><trkpt lat="39.83158582426548" lon="9.412927089039965"><ele>538.6666666666666</ele><time>2026-05-01T08:55:03Z</time></trkpt><trkpt lat="39.831558135964244" lon="9.412734371251688"><ele>533.0</ele><time>2026-05-01T08:55:04Z</time></trkpt><trkpt lat="39.831545316386524" lon="9.412533662490855"><ele>533.0</ele><time>2026-05-01T08:55:05Z</time></trkpt><trkpt lat="39.83154681052588" lon="9.412329255469976"><ele>533.0</ele><time>2026-05-01T08:55:06Z</time></trkpt><trkpt lat="39.83156973055103" lon="9.41212536172739"><ele>533.0</ele><time>2026-05-01T08:55:07Z</time></trkpt><trkpt lat="39.8315937972626" lon="9.411927037268232"><ele>531.5</ele><time>2026-05-01T08:55:08Z</time></trkpt><trkpt lat="39.83160546603859" lon="9.411748930687866"><ele>530.0</ele><time>2026-05-01T08:55:09Z</time></trkpt><trkpt lat="39.831573314588894" lon="9.411592845188114"><ele>528.5</ele><time>2026-05-01T08:55:10Z</time></trkpt><trkpt lat="39.83148892587367" lon="9.411478410643385"><ele>527.0</ele><time>2026-05-01T08:55:11Z</time></trkpt><trkpt lat="39.83137841357687" lon="9.411410050998926"><ele>525.5</ele><time>2026-05-01T08:55:12Z</time></trkpt><trkpt lat="39.831295557626014" lon="9.4113138646395"><ele>524.0</ele><time>2026-05-01T08:55:13Z</time></trkpt><trkpt lat="39.831263992107104" lon="9.411181375963102"><ele>522.5</ele><time>2026-05-01T08:55:14Z</time></trkpt><trkpt lat="39.831287004690104" lon="9.411044738559285"><ele>521.0</ele><time>2026-05-01T08:55:15Z</time></trkpt><trkpt lat="39.831376516759086" lon="9.410913423716693"><ele>521.0</ele><time>2026-05-01T08:55:16Z</time></trkpt><trkpt lat="39.831455452589765" lon="9.410767448093065"><ele>521.0</ele><time>2026-05-01T08:55:17Z</time></trkpt><trkpt lat="39.83151800129565" lon="9.410596987997742"><ele>521.0</ele><time>2026-05-01T08:55:18Z</time></trkpt><trkpt lat="39.831545921130115" lon="9.41041344830332"><ele>521.0</ele><time>2026-05-01T08:55:19Z</time></trkpt><trkpt lat="39.83153821552999" lon="9.410209024571385"><ele>519.3333333333333</ele><time>2026-05-01T08:55:20Z</time></trkpt><trkpt lat="39.83149829321634" lon="9.410005425551345"><ele>517.6666666666666</ele><time>2026-05-01T08:55:21Z</time></trkpt><trkpt lat="39.831465450796806" lon="9.409804089018483"><ele>516.0</ele><time>2026-05-01T08:55:22Z</time></trkpt><trkpt lat="39.831473289196424" lon="9.409595890441455"><ele>515.3333333333334</ele><time>2026-05-01T08:55:23Z</time></trkpt><trkpt lat="39.831507352291176" lon="9.409399085865498"><ele>514.6666666666667</ele><time>2026-05-01T08:55:24Z</time></trkpt><trkpt lat="39.831557233377325" lon="9.409210563580487"><ele>514.0</ele><time>2026-05-01T08:55:25Z</time></trkpt><trkpt lat="39.831647004288655" lon="9.40904634719143"><ele>514.0</ele><time>2026-05-01T08:55:26Z</time></trkpt><trkpt lat="39.83176352906424" lon="9.40891386313262"><ele>514.0</ele><time>2026-05-01T08:55:27Z</time></trkpt><trkpt lat="39.83187245406331" lon="9.408774817103359"><ele>514.0</ele><time>2026-05-01T08:55:28Z</time></trkpt><trkpt lat="39.831945146525335" lon="9.408601259110707"><ele>510.6666666666667</ele><time>2026-05-01T08:55:29Z</time></trkpt><trkpt lat="39.83199852926797" lon="9.408415524315"><ele>507.33333333333337</ele><time>2026-05-01T08:55:30Z</time></trkpt><trkpt lat="39.83202529060657" lon="9.408218656818974"><ele>504.0</ele><time>2026-05-01T08:55:31Z</time></trkpt><trkpt lat="39.83201884186492" lon="9.408015384942836"><ele>503.0</ele><time>2026-05-01T08:55:32Z</time></trkpt><trkpt lat="39.83200563348372" lon="9.407813665542614"><ele>502.0</ele><time>2026-05-01T08:55:33Z</time></trkpt><trkpt lat="39.83198233746647" lon="9.407619955999834"><ele>501.0</ele><time>2026-05-01T08:55:34Z</time></trkpt><trkpt lat="39.8319450961562" lon="9.407446088176547"><ele>500.0</ele><time>2026-05-01T08:55:35Z</time></trkpt><trkpt lat="39.83190038369665" lon="9.407303750039416"><ele>500.0</ele><time>2026-05-01T08:55:36Z</time></trkpt><trkpt lat="39.83182338665867" lon="9.407210643279038"><ele>500.0</ele><time>2026-05-01T08:55:37Z</time></trkpt><trkpt lat="39.831714279397225" lon="9.407165151692936"><ele>500.0</ele><time>2026-05-01T08:55:38Z</time></trkpt><trkpt lat="39.831574164044994" lon="9.407164939808256"><ele>500.0</ele><time>2026-05-01T08:55:39Z</time></trkpt><trkpt lat="39.831455628997944" lon="9.407125154149444"><ele>498.5</ele><time>2026-05-01T08:55:40Z</time></trkpt><trkpt lat="39.83135204253297" lon="9.407044350236282"><ele>497.0</ele><time>2026-05-01T08:55:41Z</time></trkpt><trkpt lat="39.83126580507343" lon="9.406942185134868"><ele>495.5</ele><time>2026-05-01T08:55:42Z</time></trkpt><trkpt lat="39.83118401087235" lon="9.406840027464861"><ele>494.0</ele><time>2026-05-01T08:55:43Z</time></trkpt><trkpt lat="39.83110380500866" lon="9.406742539053683"><ele>494.0</ele><time>2026-05-01T08:55:44Z</time></trkpt><trkpt lat="39.8310270843653" lon="9.406647668016678"><ele>494.0</ele><time>2026-05-01T08:55:45Z</time></trkpt><trkpt lat="39.83095307645823" lon="9.40656084674771"><ele>494.0</ele><time>2026-05-01T08:55:46Z</time></trkpt><trkpt lat="39.830883153494085" lon="9.406486279949398"><ele>494.0</ele><time>2026-05-01T08:55:47Z</time></trkpt><trkpt lat="39.83081217785516" lon="9.406437439983636"><ele>494.0</ele><time>2026-05-01T08:55:48Z</time></trkpt><trkpt lat="39.83072336438449" lon="9.406422442109497"><ele>494.2</ele><time>2026-05-01T08:55:49Z</time></trkpt><trkpt lat="39.830627146355496" lon="9.40642959894019"><ele>494.4</ele><time>2026-05-01T08:55:50Z</time></trkpt><trkpt lat="39.83052981664786" lon="9.40643798557722"><ele>494.6</ele><time>2026-05-01T08:55:51Z</time></trkpt><trkpt lat="39.830424574862995" lon="9.406452786439955"><ele>494.8</ele><time>2026-05-01T08:55:52Z</time></trkpt><trkpt lat="39.830314439519725" lon="9.406461854696406"><ele>495.0</ele><time>2026-05-01T08:55:53Z</time></trkpt><trkpt lat="39.83020482124723" lon="9.406437408016362"><ele>495.0</ele><time>2026-05-01T08:55:54Z</time></trkpt><trkpt lat="39.830123449372536" lon="9.406359779844426"><ele>495.0</ele><time>2026-05-01T08:55:55Z</time></trkpt><trkpt lat="39.83008526645345" lon="9.406234313863507"><ele>495.0</ele><time>2026-05-01T08:55:56Z</time></trkpt><trkpt lat="39.830094315640004" lon="9.406072506254965"><ele>495.0</ele><time>2026-05-01T08:55:57Z</time></trkpt><trkpt lat="39.83011380918157" lon="9.40593018590216"><ele>495.0</ele><time>2026-05-01T08:55:58Z</time></trkpt><trkpt lat="39.830075778066956" lon="9.405818910893338"><ele>497.75</ele><time>2026-05-01T08:55:59Z</time></trkpt><trkpt lat="39.829997518698825" lon="9.405720276035392"><ele>500.5</ele><time>2026-05-01T08:56:00Z</time></trkpt><trkpt lat="39.82987709718698" lon="9.405708000898086"><ele>503.25</ele><time>2026-05-01T08:56:01Z</time></trkpt><trkpt lat="39.829762337988704" lon="9.405779343619242"><ele>506.0</ele><time>2026-05-01T08:56:02Z</time></trkpt><trkpt lat="39.829642689055824" lon="9.405801935232635"><ele>506.0</ele><time>2026-05-01T08:56:03Z</time></trkpt><trkpt lat="39.82953777810242" lon="9.40571411118576"><ele>506.0</ele><time>2026-05-01T08:56:04Z</time></trkpt><trkpt lat="39.82942483438004" lon="9.405622489331499"><ele>506.0</ele><time>2026-05-01T08:56:05Z</time></trkpt><trkpt lat="39.82931658439581" lon="9.405524926623903"><ele>506.0</ele><time>2026-05-01T08:56:06Z</time></trkpt><trkpt lat="39.82918448241331" lon="9.405486572291405"><ele>511.25</ele><time>2026-05-01T08:56:07Z</time></trkpt><trkpt lat="39.829050495086015" lon="9.405471691180267"><ele>516.5</ele><time>2026-05-01T08:56:08Z</time></trkpt><trkpt lat="39.828905037224985" lon="9.405463540866"><ele>521.75</ele><time>2026-05-01T08:56:09Z</time></trkpt><trkpt lat="39.82875675843175" lon="9.405447563927826"><ele>527.0</ele><time>2026-05-01T08:56:10Z</time></trkpt><trkpt lat="39.82860655031323" lon="9.405427197009892"><ele>527.5</ele><time>2026-05-01T08:56:11Z</time></trkpt><trkpt lat="39.82845980827317" lon="9.405358436979384"><ele>528.0</ele><time>2026-05-01T08:56:12Z</time></trkpt><trkpt lat="39.82831715602693" lon="9.40530350965473"><ele>528.5</ele><time>2026-05-01T08:56:13Z</time></trkpt><trkpt lat="39.82822329526945" lon="9.405177849599257"><ele>529.0</ele><time>2026-05-01T08:56:14Z</time></trkpt><trkpt lat="39.82812018001467" lon="9.405104329328083"><ele>529.0</ele><time>2026-05-01T08:56:15Z</time></trkpt><trkpt lat="39.82800676500898" lon="9.405088135590278"><ele>529.0</ele><time>2026-05-01T08:56:16Z</time></trkpt><trkpt lat="39.82788425279987" lon="9.405136246863899"><ele>529.0</ele><time>2026-05-01T08:56:17Z</time></trkpt><trkpt lat="39.82775086749236" lon="9.405157019526515"><ele>529.0</ele><time>2026-05-01T08:56:18Z</time></trkpt><trkpt lat="39.827605934117294" lon="9.405161233593061"><ele>529.6666666666667</ele><time>2026-05-01T08:56:19Z</time></trkpt><trkpt lat="39.82745737218407" lon="9.40517043531519"><ele>530.3333333333334</ele><time>2026-05-01T08:56:20Z</time></trkpt><trkpt lat="39.82730184390841" lon="9.405162598956585"><ele>531.0</ele><time>2026-05-01T08:56:21Z</time></trkpt><trkpt lat="39.82714582417679" lon="9.40515473739931"><ele>531.0</ele><time>2026-05-01T08:56:22Z</time></trkpt><trkpt lat="39.8269903353913" lon="9.405157198007467"><ele>531.0</ele><time>2026-05-01T08:56:23Z</time></trkpt><trkpt lat="39.82684071949506" lon="9.405210316642778"><ele>531.0</ele><time>2026-05-01T08:56:24Z</time></trkpt><trkpt lat="39.826711946972246" lon="9.405317783223705"><ele>534.5</ele><time>2026-05-01T08:56:25Z</time></trkpt><trkpt lat="39.82660098262303" lon="9.40543325934863"><ele>538.0</ele><time>2026-05-01T08:56:26Z</time></trkpt><trkpt lat="39.826494802582" lon="9.405544728151751"><ele>541.5</ele><time>2026-05-01T08:56:27Z</time></trkpt><trkpt lat="39.82640378567247" lon="9.405641832035624"><ele>545.0</ele><time>2026-05-01T08:56:28Z</time></trkpt><trkpt lat="39.82629022045744" lon="9.405660882950798"><ele>545.0</ele><time>2026-05-01T08:56:29Z</time></trkpt><trkpt lat="39.82617576848064" lon="9.405610567011497"><ele>545.0</ele><time>2026-05-01T08:56:30Z</time></trkpt><trkpt lat="39.82608309624923" lon="9.405477920606707"><ele>545.0</ele><time>2026-05-01T08:56:31Z</time></trkpt><trkpt lat="39.826004524957604" lon="9.405339608683976"><ele>545.0</ele><time>2026-05-01T08:56:32Z</time></trkpt><trkpt lat="39.82596631418726" lon="9.405147258019504"><ele>548.3333333333333</ele><time>2026-05-01T08:56:33Z</time></trkpt><trkpt lat="39.825910448235575" lon="9.404959021735726"><ele>551.6666666666666</ele><time>2026-05-01T08:56:34Z</time></trkpt><trkpt lat="39.825826694002075" lon="9.404785755659606"><ele>555.0</ele><time>2026-05-01T08:56:35Z</time></trkpt><trkpt lat="39.825735425716" lon="9.404625380847003"><ele>555.0</ele><time>2026-05-01T08:56:36Z</time></trkpt><trkpt lat="39.82565640935609" lon="9.404468958828529"><ele>555.0</ele><time>2026-05-01T08:56:37Z</time></trkpt><trkpt lat="39.825533535640055" lon="9.40439340994593"><ele>555.0</ele><time>2026-05-01T08:56:38Z</time></trkpt><trkpt lat="39.82544613645358" lon="9.404287622547738"><ele>555.0</ele><time>2026-05-01T08:56:39Z</time></trkpt><trkpt lat="39.82539484606434" lon="9.404131140561294"><ele>555.0</ele><time>2026-05-01T08:56:40Z</time></trkpt><trkpt lat="39.82535774664378" lon="9.403966612182396"><ele>555.0</ele><time>2026-05-01T08:56:41Z</time></trkpt><trkpt lat="39.82530173406019" lon="9.403841065637868"><ele>555.0</ele><time>2026-05-01T08:56:42Z</time></trkpt><trkpt lat="39.82521598636949" lon="9.403774970069104"><ele>555.0</ele><time>2026-05-01T08:56:43Z</time></trkpt><trkpt lat="39.82511908573339" lon="9.403753491285848"><ele>555.0</ele><time>2026-05-01T08:56:44Z</time></trkpt><trkpt lat="39.825020924763095" lon="9.403839787712382"><ele>552.25</ele><time>2026-05-01T08:56:45Z</time></trkpt><trkpt lat="39.82495056396281" lon="9.40401135677066"><ele>549.5</ele><time>2026-05-01T08:56:46Z</time></trkpt><trkpt lat="39.82484568642421" lon="9.404129027420593"><ele>546.75</ele><time>2026-05-01T08:56:47Z</time></trkpt><trkpt lat="39.824724617178106" lon="9.404265049411938"><ele>544.0</ele><time>2026-05-01T08:56:48Z</time></trkpt><trkpt lat="39.8246094787651" lon="9.404395581837905"><ele>544.0</ele><time>2026-05-01T08:56:49Z</time></trkpt><trkpt lat="39.82450551909203" lon="9.404513370290138"><ele>544.0</ele><time>2026-05-01T08:56:50Z</time></trkpt><trkpt lat="39.82441051629489" lon="9.404613626180833"><ele>544.0</ele><time>2026-05-01T08:56:51Z</time></trkpt><trkpt lat="39.82429837068324" lon="9.404688698225247"><ele>544.0</ele><time>2026-05-01T08:56:52Z</time></trkpt><trkpt lat="39.82415132299526" lon="9.404666892814767"><ele>541.6666666666667</ele><time>2026-05-01T08:56:53Z</time></trkpt><trkpt lat="39.8239920076952" lon="9.404671730825422"><ele>539.3333333333334</ele><time>2026-05-01T08:56:54Z</time></trkpt><trkpt lat="39.823822918385275" lon="9.404732324261094"><ele>537.0</ele><time>2026-05-01T08:56:55Z</time></trkpt><trkpt lat="39.823639542549266" lon="9.404771624803388"><ele>542.0</ele><time>2026-05-01T08:56:56Z</time></trkpt><trkpt lat="39.82346708654546" lon="9.404824943044767"><ele>547.0</ele><time>2026-05-01T08:56:57Z</time></trkpt><trkpt lat="39.82328289580686" lon="9.404865785002563"><ele>552.0</ele><time>2026-05-01T08:56:58Z</time></trkpt><trkpt lat="39.823099742166555" lon="9.404883507035077"><ele>552.0</ele><time>2026-05-01T08:56:59Z</time></trkpt><trkpt lat="39.8229316239186" lon="9.404898873676558"><ele>552.0</ele><time>2026-05-01T08:57:00Z</time></trkpt><trkpt lat="39.822780617719815" lon="9.404913219270327"><ele>552.0</ele><time>2026-05-01T08:57:01Z</time></trkpt><trkpt lat="39.822631940112785" lon="9.404924238080591"><ele>555.3333333333334</ele><time>2026-05-01T08:57:02Z</time></trkpt><trkpt lat="39.822475547970086" lon="9.404947791817156"><ele>558.6666666666667</ele><time>2026-05-01T08:57:03Z</time></trkpt><trkpt lat="39.82230922756469" lon="9.40490015736899"><ele>562.0</ele><time>2026-05-01T08:57:04Z</time></trkpt><trkpt lat="39.822154652145215" lon="9.404791044350157"><ele>562.0</ele><time>2026-05-01T08:57:05Z</time></trkpt><trkpt lat="39.82199381886211" lon="9.40467886302548"><ele>562.0</ele><time>2026-05-01T08:57:06Z</time></trkpt><trkpt lat="39.82184692366402" lon="9.404576152970918"><ele>562.0</ele><time>2026-05-01T08:57:07Z</time></trkpt><trkpt lat="39.82170843424367" lon="9.40449795999793"><ele>565.75</ele><time>2026-05-01T08:57:08Z</time></trkpt><trkpt lat="39.821597603725316" lon="9.4043775278599"><ele>569.5</ele><time>2026-05-01T08:57:09Z</time></trkpt><trkpt lat="39.82153437492347" lon="9.404200696422187"><ele>573.25</ele><time>2026-05-01T08:57:10Z</time></trkpt><trkpt lat="39.82144462009199" lon="9.404067616289591"><ele>577.0</ele><time>2026-05-01T08:57:11Z</time></trkpt><trkpt lat="39.82131462710707" lon="9.403953618744909"><ele>577.0</ele><time>2026-05-01T08:57:12Z</time></trkpt><trkpt lat="39.821163064918956" lon="9.403850715696642"><ele>577.0</ele><time>2026-05-01T08:57:13Z</time></trkpt><trkpt lat="39.82101363961121" lon="9.403741893314647"><ele>577.0</ele><time>2026-05-01T08:57:14Z</time></trkpt><trkpt lat="39.82085968126667" lon="9.403632017306178"><ele>582.3333333333334</ele><time>2026-05-01T08:57:15Z</time></trkpt><trkpt lat="39.82069454262509" lon="9.403553921029118"><ele>587.6666666666666</ele><time>2026-05-01T08:57:16Z</time></trkpt><trkpt lat="39.820529862983754" lon="9.403522708526056"><ele>593.0</ele><time>2026-05-01T08:57:17Z</time></trkpt><trkpt lat="39.820357654276776" lon="9.403533646055594"><ele>593.0</ele><time>2026-05-01T08:57:18Z</time></trkpt><trkpt lat="39.8201952971813" lon="9.40358094501753"><ele>593.0</ele><time>2026-05-01T08:57:19Z</time></trkpt><trkpt lat="39.82003463680477" lon="9.403627634089284"><ele>593.0</ele><time>2026-05-01T08:57:20Z</time></trkpt><trkpt lat="39.81986845697642" lon="9.403643041731558"><ele>593.0</ele><time>2026-05-01T08:57:21Z</time></trkpt><trkpt lat="39.81969742652521" lon="9.40365426611582"><ele>593.0</ele><time>2026-05-01T08:57:22Z</time></trkpt><trkpt lat="39.819542219777645" lon="9.403674180917108"><ele>593.0</ele><time>2026-05-01T08:57:23Z</time></trkpt><trkpt lat="39.81938004434822" lon="9.403758553852867"><ele>589.3333333333333</ele><time>2026-05-01T08:57:24Z</time></trkpt><trkpt lat="39.81923015329597" lon="9.40386303922239"><ele>585.6666666666666</ele><time>2026-05-01T08:57:25Z</time></trkpt><trkpt lat="39.81907497388944" lon="9.40387511360914"><ele>582.0</ele><time>2026-05-01T08:57:26Z</time></trkpt><trkpt lat="39.818920408765564" lon="9.403901051770085"><ele>582.0</ele><time>2026-05-01T08:57:27Z</time></trkpt><trkpt lat="39.818784453770576" lon="9.403936018865519"><ele>582.0</ele><time>2026-05-01T08:57:28Z</time></trkpt><trkpt lat="39.818696062264664" lon="9.404032536533133"><ele>582.0</ele><time>2026-05-01T08:57:29Z</time></trkpt><trkpt lat="39.81860549043196" lon="9.404143852081017"><ele>582.0</ele><time>2026-05-01T08:57:30Z</time></trkpt><trkpt lat="39.818500286513085" lon="9.404236322232554"><ele>586.5</ele><time>2026-05-01T08:57:31Z</time></trkpt><trkpt lat="39.818357087944676" lon="9.404253389225406"><ele>591.0</ele><time>2026-05-01T08:57:32Z</time></trkpt><trkpt lat="39.81821147722774" lon="9.404297198464045"><ele>595.5</ele><time>2026-05-01T08:57:33Z</time></trkpt><trkpt lat="39.81809508000768" lon="9.404405240156153"><ele>600.0</ele><time>2026-05-01T08:57:34Z</time></trkpt><trkpt lat="39.81797640834281" lon="9.404514697219458"><ele>600.0</ele><time>2026-05-01T08:57:35Z</time></trkpt><trkpt lat="39.81782203077695" lon="9.404519879225763"><ele>600.0</ele><time>2026-05-01T08:57:36Z</time></trkpt><trkpt lat="39.81766889391277" lon="9.404514426728701"><ele>600.0</ele><time>2026-05-01T08:57:37Z</time></trkpt><trkpt lat="39.8175169846179" lon="9.404480454707613"><ele>603.3333333333334</ele><time>2026-05-01T08:57:38Z</time></trkpt><trkpt lat="39.81735265238736" lon="9.404407511179281"><ele>606.6666666666667</ele><time>2026-05-01T08:57:39Z</time></trkpt><trkpt lat="39.817197411162844" lon="9.404370287327012"><ele>610.0</ele><time>2026-05-01T08:57:40Z</time></trkpt><trkpt lat="39.81707330002384" lon="9.404324512235233"><ele>610.0</ele><time>2026-05-01T08:57:41Z</time></trkpt><trkpt lat="39.81698182838246" lon="9.404235379895585"><ele>610.0</ele><time>2026-05-01T08:57:42Z</time></trkpt><trkpt lat="39.81695281591957" lon="9.404108681597165"><ele>610.0</ele><time>2026-05-01T08:57:43Z</time></trkpt><trkpt lat="39.8169787449775" lon="9.403960410740176"><ele>610.0</ele><time>2026-05-01T08:57:44Z</time></trkpt><trkpt lat="39.81697637438821" lon="9.403771343670048"><ele>613.6666666666667</ele><time>2026-05-01T08:57:45Z</time></trkpt><trkpt lat="39.81697781832183" lon="9.403552828294297"><ele>617.3333333333334</ele><time>2026-05-01T08:57:46Z</time></trkpt><trkpt lat="39.81698157774369" lon="9.40332678152158"><ele>621.0</ele><time>2026-05-01T08:57:47Z</time></trkpt><trkpt lat="39.81696002587588" lon="9.403118636409667"><ele>624.75</ele><time>2026-05-01T08:57:48Z</time></trkpt><trkpt lat="39.816923649589725" lon="9.402924903290955"><ele>628.5</ele><time>2026-05-01T08:57:49Z</time></trkpt><trkpt lat="39.81684676769009" lon="9.402755729502982"><ele>632.25</ele><time>2026-05-01T08:57:50Z</time></trkpt><trkpt lat="39.81678122952203" lon="9.402600622802636"><ele>636.0</ele><time>2026-05-01T08:57:51Z</time></trkpt><trkpt lat="39.8168326758288" lon="9.402424032419779"><ele>636.0</ele><time>2026-05-01T08:57:52Z</time></trkpt><trkpt lat="39.816841360397014" lon="9.402233680533222"><ele>636.0</ele><time>2026-05-01T08:57:53Z</time></trkpt><trkpt lat="39.8168248253982" lon="9.402028764020848"><ele>636.0</ele><time>2026-05-01T08:57:54Z</time></trkpt><trkpt lat="39.816762220554565" lon="9.40181491459573"><ele>640.0</ele><time>2026-05-01T08:57:55Z</time></trkpt><trkpt lat="39.81666649088908" lon="9.401622548312178"><ele>644.0</ele><time>2026-05-01T08:57:56Z</time></trkpt><trkpt lat="39.81654769163834" lon="9.4014641838994"><ele>648.0</ele><time>2026-05-01T08:57:57Z</time></trkpt><trkpt lat="39.81641422991813" lon="9.401330736233975"><ele>648.0</ele><time>2026-05-01T08:57:58Z</time></trkpt><trkpt lat="39.81632868707498" lon="9.401170661710061"><ele>648.0</ele><time>2026-05-01T08:57:59Z</time></trkpt><trkpt lat="39.81626486367311" lon="9.400989292722317"><ele>648.0</ele><time>2026-05-01T08:58:00Z</time></trkpt><trkpt lat="39.816189398206674" lon="9.400805269545492"><ele>648.0</ele><time>2026-05-01T08:58:01Z</time></trkpt><trkpt lat="39.8160999832198" lon="9.400646122946341"><ele>648.0</ele><time>2026-05-01T08:58:02Z</time></trkpt><trkpt lat="39.81597192933225" lon="9.400544321194149"><ele>648.0</ele><time>2026-05-01T08:58:03Z</time></trkpt><trkpt lat="39.81581931590464" lon="9.400478015009123"><ele>646.0</ele><time>2026-05-01T08:58:04Z</time></trkpt><trkpt lat="39.81569603211473" lon="9.400383158899428"><ele>644.0</ele><time>2026-05-01T08:58:05Z</time></trkpt><trkpt lat="39.81559218897438" lon="9.400246147854935"><ele>642.0</ele><time>2026-05-01T08:58:06Z</time></trkpt><trkpt lat="39.81548196010267" lon="9.400084713314536"><ele>642.0</ele><time>2026-05-01T08:58:07Z</time></trkpt><trkpt lat="39.81537628115714" lon="9.399929238252799"><ele>642.0</ele><time>2026-05-01T08:58:08Z</time></trkpt><trkpt lat="39.815277062157946" lon="9.399766591081542"><ele>642.0</ele><time>2026-05-01T08:58:09Z</time></trkpt><trkpt lat="39.81520252162351" lon="9.399590916500705"><ele>637.25</ele><time>2026-05-01T08:58:10Z</time></trkpt><trkpt lat="39.815138725842196" lon="9.39941606997003"><ele>632.5</ele><time>2026-05-01T08:58:11Z</time></trkpt><trkpt lat="39.81509103875877" lon="9.399259069297875"><ele>627.75</ele><time>2026-05-01T08:58:12Z</time></trkpt><trkpt lat="39.81509878617066" lon="9.39910435477427"><ele>623.0</ele><time>2026-05-01T08:58:13Z</time></trkpt><trkpt lat="39.81509645430276" lon="9.398913095292716"><ele>624.3333333333333</ele><time>2026-05-01T08:58:14Z</time></trkpt><trkpt lat="39.815122456301225" lon="9.39870499762476"><ele>625.6666666666666</ele><time>2026-05-01T08:58:15Z</time></trkpt><trkpt lat="39.81513797994742" lon="9.398484197846766"><ele>627.0</ele><time>2026-05-01T08:58:16Z</time></trkpt><trkpt lat="39.81514883998034" lon="9.39825711385295"><ele>646.6666666666666</ele><time>2026-05-01T08:58:17Z</time></trkpt><trkpt lat="39.81516173536215" lon="9.39802108456043"><ele>666.3333333333333</ele><time>2026-05-01T08:58:18Z</time></trkpt><trkpt lat="39.815177536003645" lon="9.39778205420129"><ele>686.0</ele><time>2026-05-01T08:58:19Z</time></trkpt><trkpt lat="39.81518456385383" lon="9.39755926758342"><ele>686.3333333333333</ele><time>2026-05-01T08:58:20Z</time></trkpt><trkpt lat="39.81518573985869" lon="9.397349998480939"><ele>686.6666666666666</ele><time>2026-05-01T08:58:21Z</time></trkpt><trkpt lat="39.81522863500759" lon="9.397159880290884"><ele>687.0</ele><time>2026-05-01T08:58:22Z</time></trkpt><trkpt lat="39.81523100639088" lon="9.396962155814364"><ele>683.25</ele><time>2026-05-01T08:58:23Z</time></trkpt><trkpt lat="39.81522778281514" lon="9.396771879865353"><ele>679.5</ele><time>2026-05-01T08:58:24Z</time></trkpt><trkpt lat="39.81525379426375" lon="9.396592684948118"><ele>675.75</ele><time>2026-05-01T08:58:25Z</time></trkpt><trkpt lat="39.81528769406614" lon="9.396406419301952"><ele>672.0</ele><time>2026-05-01T08:58:26Z</time></trkpt><trkpt lat="39.81540008431093" lon="9.396249731396551"><ele>666.0</ele><time>2026-05-01T08:58:27Z</time></trkpt><trkpt lat="39.81549298363093" lon="9.396062046953109"><ele>660.0</ele><time>2026-05-01T08:58:28Z</time></trkpt><trkpt lat="39.815578864873736" lon="9.395868903833634"><ele>654.0</ele><time>2026-05-01T08:58:29Z</time></trkpt><trkpt lat="39.815646358537784" lon="9.395656457574217"><ele>650.0</ele><time>2026-05-01T08:58:30Z</time></trkpt><trkpt lat="39.81571057619014" lon="9.395443305015045"><ele>646.0</ele><time>2026-05-01T08:58:31Z</time></trkpt><trkpt lat="39.815780009977225" lon="9.395237319075745"><ele>642.0</ele><time>2026-05-01T08:58:32Z</time></trkpt><trkpt lat="39.815851552801746" lon="9.3950445734995"><ele>642.0</ele><time>2026-05-01T08:58:33Z</time></trkpt><trkpt lat="39.815913219077636" lon="9.394863696721758"><ele>642.0</ele><time>2026-05-01T08:58:34Z</time></trkpt><trkpt lat="39.81596442782728" lon="9.394692755226373"><ele>642.0</ele><time>2026-05-01T08:58:35Z</time></trkpt><trkpt lat="39.816003337174" lon="9.394536827911912"><ele>642.0</ele><time>2026-05-01T08:58:36Z</time></trkpt><trkpt lat="39.815953559243496" lon="9.394368570686128"><ele>641.3333333333334</ele><time>2026-05-01T08:58:37Z</time></trkpt><trkpt lat="39.8158636553361" lon="9.394199273315989"><ele>640.6666666666667</ele><time>2026-05-01T08:58:38Z</time></trkpt><trkpt lat="39.81580250056328" lon="9.39402519990799"><ele>640.0</ele><time>2026-05-01T08:58:39Z</time></trkpt><trkpt lat="39.815763590813766" lon="9.39382550426992"><ele>644.6666666666667</ele><time>2026-05-01T08:58:40Z</time></trkpt><trkpt lat="39.815740154256794" lon="9.393611453357595"><ele>649.3333333333334</ele><time>2026-05-01T08:58:41Z</time></trkpt><trkpt lat="39.815701737176724" lon="9.393395167625494"><ele>654.0</ele><time>2026-05-01T08:58:42Z</time></trkpt><trkpt lat="39.81569440281333" lon="9.393167930095336"><ele>653.3333333333334</ele><time>2026-05-01T08:58:43Z</time></trkpt><trkpt lat="39.815672923802246" lon="9.39296254688988"><ele>652.6666666666667</ele><time>2026-05-01T08:58:44Z</time></trkpt><trkpt lat="39.81569378842241" lon="9.392772824925842"><ele>652.0</ele><time>2026-05-01T08:58:45Z</time></trkpt><trkpt lat="39.815759915695445" lon="9.39258370121217"><ele>652.0</ele><time>2026-05-01T08:58:46Z</time></trkpt><trkpt lat="39.81580313747899" lon="9.392371169837158"><ele>652.0</ele><time>2026-05-01T08:58:47Z</time></trkpt><trkpt lat="39.815855809901066" lon="9.392156552397799"><ele>652.0</ele><time>2026-05-01T08:58:48Z</time></trkpt><trkpt lat="39.815899522826825" lon="9.391942076998408"><ele>649.75</ele><time>2026-05-01T08:58:49Z</time></trkpt><trkpt lat="39.81594230586782" lon="9.391737202611964"><ele>647.5</ele><time>2026-05-01T08:58:50Z</time></trkpt><trkpt lat="39.81598882070644" lon="9.391554767921287"><ele>645.25</ele><time>2026-05-01T08:58:51Z</time></trkpt><trkpt lat="39.81604769565739" lon="9.391398736093967"><ele>643.0</ele><time>2026-05-01T08:58:52Z</time></trkpt><trkpt lat="39.81613867159774" lon="9.391273983838664"><ele>653.75</ele><time>2026-05-01T08:58:53Z</time></trkpt><trkpt lat="39.816224903357" lon="9.391160349136825"><ele>664.5</ele><time>2026-05-01T08:58:54Z</time></trkpt><trkpt lat="39.81627001547962" lon="9.391031801279778"><ele>675.25</ele><time>2026-05-01T08:58:55Z</time></trkpt><trkpt lat="39.816265923397474" lon="9.39088008648502"><ele>686.0</ele><time>2026-05-01T08:58:56Z</time></trkpt><trkpt lat="39.8162224165574" lon="9.390717986711943"><ele>686.0</ele><time>2026-05-01T08:58:57Z</time></trkpt><trkpt lat="39.81623180788545" lon="9.390559654885408"><ele>686.0</ele><time>2026-05-01T08:58:58Z</time></trkpt><trkpt lat="39.81625985504855" lon="9.39037033416628"><ele>686.0</ele><time>2026-05-01T08:58:59Z</time></trkpt><trkpt lat="39.816238111121805" lon="9.390189240540664"><ele>686.0</ele><time>2026-05-01T08:59:00Z</time></trkpt><trkpt lat="39.81620017253152" lon="9.390021836829819"><ele>689.0</ele><time>2026-05-01T08:59:01Z</time></trkpt><trkpt lat="39.81613076599416" lon="9.389897420038203"><ele>692.0</ele><time>2026-05-01T08:59:02Z</time></trkpt><trkpt lat="39.81602103461075" lon="9.389825906905823"><ele>695.0</ele><time>2026-05-01T08:59:03Z</time></trkpt><trkpt lat="39.81590687553142" lon="9.389802208092194"><ele>698.0</ele><time>2026-05-01T08:59:04Z</time></trkpt><trkpt lat="39.815810481891354" lon="9.389839420917824"><ele>691.0</ele><time>2026-05-01T08:59:05Z</time></trkpt><trkpt lat="39.81573816126025" lon="9.389943479543765"><ele>684.0</ele><time>2026-05-01T08:59:06Z</time></trkpt><trkpt lat="39.81564960785313" lon="9.390054386972189"><ele>677.0</ele><time>2026-05-01T08:59:07Z</time></trkpt><trkpt lat="39.815531070430445" lon="9.39011875876034"><ele>670.0</ele><time>2026-05-01T08:59:08Z</time></trkpt><trkpt lat="39.81538019010167" lon="9.390136891100932"><ele>670.0</ele><time>2026-05-01T08:59:09Z</time></trkpt><trkpt lat="39.815210430053924" lon="9.390139396014254"><ele>670.0</ele><time>2026-05-01T08:59:10Z</time></trkpt><trkpt lat="39.815042310724024" lon="9.3901601915223"><ele>670.0</ele><time>2026-05-01T08:59:11Z</time></trkpt><trkpt lat="39.81488244949914" lon="9.39020009137167"><ele>672.3333333333334</ele><time>2026-05-01T08:59:12Z</time></trkpt><trkpt lat="39.81472465307116" lon="9.390231734534408"><ele>674.6666666666666</ele><time>2026-05-01T08:59:13Z</time></trkpt><trkpt lat="39.81457003496244" lon="9.390226056406085"><ele>677.0</ele><time>2026-05-01T08:59:14Z</time></trkpt><trkpt lat="39.814428878633514" lon="9.390187037933936"><ele>676.6666666666666</ele><time>2026-05-01T08:59:15Z</time></trkpt><trkpt lat="39.81427891288529" lon="9.390110525143392"><ele>676.3333333333334</ele><time>2026-05-01T08:59:16Z</time></trkpt><trkpt lat="39.81413925283409" lon="9.389998720656466"><ele>676.0</ele><time>2026-05-01T08:59:17Z</time></trkpt><trkpt lat="39.813993262780386" lon="9.389872184606102"><ele>676.0</ele><time>2026-05-01T08:59:18Z</time></trkpt><trkpt lat="39.81384029986899" lon="9.389808402339435"><ele>676.0</ele><time>2026-05-01T08:59:19Z</time></trkpt><trkpt lat="39.81368883403593" lon="9.389763276851985"><ele>676.0</ele><time>2026-05-01T08:59:20Z</time></trkpt><trkpt lat="39.81354616314486" lon="9.3897559607399"><ele>676.5</ele><time>2026-05-01T08:59:21Z</time></trkpt><trkpt lat="39.81341944079697" lon="9.389765915831655"><ele>677.0</ele><time>2026-05-01T08:59:22Z</time></trkpt><trkpt lat="39.8133164720896" lon="9.389829987003433"><ele>677.5</ele><time>2026-05-01T08:59:23Z</time></trkpt><trkpt lat="39.81324189474323" lon="9.389949575320227"><ele>678.0</ele><time>2026-05-01T08:59:24Z</time></trkpt><trkpt lat="39.81318570139971" lon="9.390103330496302"><ele>678.0</ele><time>2026-05-01T08:59:25Z</time></trkpt><trkpt lat="39.81311912649539" lon="9.390255417088342"><ele>678.0</ele><time>2026-05-01T08:59:26Z</time></trkpt><trkpt lat="39.813064400024494" lon="9.390409552566412"><ele>678.0</ele><time>2026-05-01T08:59:27Z</time></trkpt><trkpt lat="39.81304427185149" lon="9.390572489380705"><ele>678.0</ele><time>2026-05-01T08:59:28Z</time></trkpt><trkpt lat="39.813057810750664" lon="9.390735066254416"><ele>676.2</ele><time>2026-05-01T08:59:29Z</time></trkpt><trkpt lat="39.81307299007921" lon="9.390885267769532"><ele>674.4</ele><time>2026-05-01T08:59:30Z</time></trkpt><trkpt lat="39.81306478759912" lon="9.391012874465895"><ele>672.6</ele><time>2026-05-01T08:59:31Z</time></trkpt><trkpt lat="39.81301326763739" lon="9.391115500720897"><ele>670.8000000000001</ele><time>2026-05-01T08:59:32Z</time></trkpt><trkpt lat="39.81291032879978" lon="9.39116517281555"><ele>669.0</ele><time>2026-05-01T08:59:33Z</time></trkpt><trkpt lat="39.812810994812715" lon="9.39120880545824"><ele>669.0</ele><time>2026-05-01T08:59:34Z</time></trkpt><trkpt lat="39.81271028944603" lon="9.391262004587956"><ele>669.0</ele><time>2026-05-01T08:59:35Z</time></trkpt><trkpt lat="39.81259953095877" lon="9.391288829132051"><ele>669.0</ele><time>2026-05-01T08:59:36Z</time></trkpt><trkpt lat="39.812490257480455" lon="9.39132537240317"><ele>669.0</ele><time>2026-05-01T08:59:37Z</time></trkpt><trkpt lat="39.812390453859756" lon="9.391388333309191"><ele>669.0</ele><time>2026-05-01T08:59:38Z</time></trkpt><trkpt lat="39.81231439154383" lon="9.391484541756359"><ele>671.0</ele><time>2026-05-01T08:59:39Z</time></trkpt><trkpt lat="39.81225358056996" lon="9.391584586623276"><ele>673.0</ele><time>2026-05-01T08:59:40Z</time></trkpt><trkpt lat="39.81219351374797" lon="9.391663185154645"><ele>675.0</ele><time>2026-05-01T08:59:41Z</time></trkpt><trkpt lat="39.81211919473294" lon="9.391721087393883"><ele>677.0</ele><time>2026-05-01T08:59:42Z</time></trkpt><trkpt lat="39.81202777409168" lon="9.391736530746337"><ele>679.0</ele><time>2026-05-01T08:59:43Z</time></trkpt><trkpt lat="39.8119456493425" lon="9.391670862552203"><ele>679.0</ele><time>2026-05-01T08:59:44Z</time></trkpt><trkpt lat="39.81185387355453" lon="9.391658242648438"><ele>679.0</ele><time>2026-05-01T08:59:45Z</time></trkpt><trkpt lat="39.81176856813463" lon="9.391682526776332"><ele>679.0</ele><time>2026-05-01T08:59:46Z</time></trkpt><trkpt lat="39.81169123476634" lon="9.391758161705143"><ele>679.0</ele><time>2026-05-01T08:59:47Z</time></trkpt><trkpt lat="39.81162348439693" lon="9.391836821915138"><ele>679.0</ele><time>2026-05-01T08:59:48Z</time></trkpt><trkpt lat="39.81158844399292" lon="9.39194247804906"><ele>680.0</ele><time>2026-05-01T08:59:49Z</time></trkpt><trkpt lat="39.8115161004912" lon="9.391999147582741"><ele>681.0</ele><time>2026-05-01T08:59:50Z</time></trkpt><trkpt lat="39.81144327175361" lon="9.392066048367388"><ele>682.0</ele><time>2026-05-01T08:59:51Z</time></trkpt><trkpt lat="39.81136328046239" lon="9.392135454515483"><ele>683.0</ele><time>2026-05-01T08:59:52Z</time></trkpt><trkpt lat="39.81129518994143" lon="9.392227413138436"><ele>684.0</ele><time>2026-05-01T08:59:53Z</time></trkpt><trkpt lat="39.8112219107705" lon="9.392310645397874"><ele>684.0</ele><time>2026-05-01T08:59:54Z</time></trkpt><trkpt lat="39.81116070209321" lon="9.39239945434218"><ele>684.0</ele><time>2026-05-01T08:59:55Z</time></trkpt><trkpt lat="39.81110632874579" lon="9.39248940131725"><ele>684.0</ele><time>2026-05-01T08:59:56Z</time></trkpt><trkpt lat="39.81105994528571" lon="9.392587358750916"><ele>684.0</ele><time>2026-05-01T08:59:57Z</time></trkpt><trkpt lat="39.81102294475902" lon="9.39268905389899"><ele>684.0</ele><time>2026-05-01T08:59:58Z</time></trkpt><trkpt lat="39.81098701870366" lon="9.39279309281355"><ele>684.0</ele><time>2026-05-01T08:59:59Z</time></trkpt><trkpt lat="39.81093528257226" lon="9.392883656403212"><ele>686.1666666666666</ele><time>2026-05-01T09:00:00Z</time></trkpt><trkpt lat="39.81089399088856" lon="9.392979207567409"><ele>688.3333333333334</ele><time>2026-05-01T09:00:01Z</time></trkpt><trkpt lat="39.81085115397847" lon="9.393075306066518"><ele>690.5</ele><time>2026-05-01T09:00:02Z</time></trkpt><trkpt lat="39.81080019998205" lon="9.393158989919135"><ele>692.6666666666667</ele><time>2026-05-01T09:00:03Z</time></trkpt><trkpt lat="39.81074027462895" lon="9.393236482534961"><ele>694.8333333333334</ele><time>2026-05-01T09:00:04Z</time></trkpt><trkpt lat="39.810673562407985" lon="9.39330544936397"><ele>697.0</ele><time>2026-05-01T09:00:05Z</time></trkpt><trkpt lat="39.810605287549194" lon="9.39337565275844"><ele>697.0</ele><time>2026-05-01T09:00:06Z</time></trkpt><trkpt lat="39.81053874677876" lon="9.393445458472947"><ele>697.0</ele><time>2026-05-01T09:00:07Z</time></trkpt><trkpt lat="39.81047098155115" lon="9.393514431216389"><ele>697.0</ele><time>2026-05-01T09:00:08Z</time></trkpt><trkpt lat="39.810401357286324" lon="9.393584427217913"><ele>697.0</ele><time>2026-05-01T09:00:09Z</time></trkpt><trkpt lat="39.810334840356475" lon="9.393651612404327"><ele>697.0</ele><time>2026-05-01T09:00:10Z</time></trkpt><trkpt lat="39.81026968499216" lon="9.393724246965512"><ele>697.0</ele><time>2026-05-01T09:00:11Z</time></trkpt><trkpt lat="39.81021109661624" lon="9.39379435041384"><ele>698.3333333333334</ele><time>2026-05-01T09:00:12Z</time></trkpt><trkpt lat="39.810151592290644" lon="9.393867394438939"><ele>699.6666666666667</ele><time>2026-05-01T09:00:13Z</time></trkpt><trkpt lat="39.810096747344645" lon="9.393948324240801"><ele>701.0</ele><time>2026-05-01T09:00:14Z</time></trkpt><trkpt lat="39.81004844164284" lon="9.394039079088202"><ele>702.3333333333334</ele><time>2026-05-01T09:00:15Z</time></trkpt><trkpt lat="39.81000203939712" lon="9.394135308022815"><ele>703.6666666666666</ele><time>2026-05-01T09:00:16Z</time></trkpt><trkpt lat="39.80995945292871" lon="9.394234199292807"><ele>705.0</ele><time>2026-05-01T09:00:17Z</time></trkpt><trkpt lat="39.80992263820249" lon="9.394335615632935"><ele>705.0</ele><time>2026-05-01T09:00:18Z</time></trkpt><trkpt lat="39.809893962790944" lon="9.394441272642599"><ele>705.0</ele><time>2026-05-01T09:00:19Z</time></trkpt><trkpt lat="39.809868913189064" lon="9.394544317408124"><ele>705.0</ele><time>2026-05-01T09:00:20Z</time></trkpt><trkpt lat="39.80984581248274" lon="9.394651954474238"><ele>705.0</ele><time>2026-05-01T09:00:21Z</time></trkpt><trkpt lat="39.80982766381739" lon="9.394759239950524"><ele>705.0</ele><time>2026-05-01T09:00:22Z</time></trkpt><trkpt lat="39.8098107186499" lon="9.394866611697932"><ele>705.0</ele><time>2026-05-01T09:00:23Z</time></trkpt><trkpt lat="39.80979365525156" lon="9.394973826870435"><ele>704.0</ele><time>2026-05-01T09:00:24Z</time></trkpt><trkpt lat="39.80977513759603" lon="9.395085232290237"><ele>703.0</ele><time>2026-05-01T09:00:25Z</time></trkpt><trkpt lat="39.80975407501586" lon="9.395190532636274"><ele>702.0</ele><time>2026-05-01T09:00:26Z</time></trkpt><trkpt lat="39.80973229582192" lon="9.395293520922538"><ele>701.0</ele><time>2026-05-01T09:00:27Z</time></trkpt><trkpt lat="39.80971969015727" lon="9.395402789296286"><ele>700.0</ele><time>2026-05-01T09:00:28Z</time></trkpt><trkpt lat="39.80966463848415" lon="9.395491850716809"><ele>699.0</ele><time>2026-05-01T09:00:29Z</time></trkpt><trkpt lat="39.809616217217446" lon="9.395588839979458"><ele>697.8000000000001</ele><time>2026-05-01T09:00:30Z</time></trkpt><trkpt lat="39.80956295130698" lon="9.395687259735553"><ele>696.6</ele><time>2026-05-01T09:00:31Z</time></trkpt><trkpt lat="39.80952693016211" lon="9.395803280245932"><ele>695.4</ele><time>2026-05-01T09:00:32Z</time></trkpt><trkpt lat="39.809469931676425" lon="9.395908214200997"><ele>694.2</ele><time>2026-05-01T09:00:33Z</time></trkpt><trkpt lat="39.80941676913957" lon="9.39602212281732"><ele>693.0</ele><time>2026-05-01T09:00:34Z</time></trkpt><trkpt lat="39.80935955741988" lon="9.396137044969336"><ele>695.5999999999999</ele><time>2026-05-01T09:00:35Z</time></trkpt><trkpt lat="39.80929569029231" lon="9.396250363661487"><ele>698.1999999999999</ele><time>2026-05-01T09:00:36Z</time></trkpt><trkpt lat="39.80922808449325" lon="9.396361097736198"><ele>700.8</ele><time>2026-05-01T09:00:37Z</time></trkpt><trkpt lat="39.80915530236625" lon="9.396468686153202"><ele>703.4</ele><time>2026-05-01T09:00:38Z</time></trkpt><trkpt lat="39.80908292481973" lon="9.396571429726567"><ele>706.0</ele><time>2026-05-01T09:00:39Z</time></trkpt><trkpt lat="39.8090097096913" lon="9.39666812542262"><ele>706.0</ele><time>2026-05-01T09:00:40Z</time></trkpt><trkpt lat="39.80894107385736" lon="9.39676837140269"><ele>706.0</ele><time>2026-05-01T09:00:41Z</time></trkpt><trkpt lat="39.808881070599895" lon="9.396879754248454"><ele>706.0</ele><time>2026-05-01T09:00:42Z</time></trkpt><trkpt lat="39.80884377346993" lon="9.397008732117678"><ele>706.0</ele><time>2026-05-01T09:00:43Z</time></trkpt><trkpt lat="39.80883059411444" lon="9.397146910227802"><ele>706.0</ele><time>2026-05-01T09:00:44Z</time></trkpt><trkpt lat="39.80882653935904" lon="9.397288642650164"><ele>704.5</ele><time>2026-05-01T09:00:45Z</time></trkpt><trkpt lat="39.80881985786306" lon="9.397434164330829"><ele>703.0</ele><time>2026-05-01T09:00:46Z</time></trkpt><trkpt lat="39.80880880003563" lon="9.397580931935392"><ele>701.5</ele><time>2026-05-01T09:00:47Z</time></trkpt><trkpt lat="39.808798675983404" lon="9.39772725084489"><ele>700.0</ele><time>2026-05-01T09:00:48Z</time></trkpt><trkpt lat="39.80879231938587" lon="9.39787436721469"><ele>700.5</ele><time>2026-05-01T09:00:49Z</time></trkpt><trkpt lat="39.808784617152796" lon="9.398019060047972"><ele>701.0</ele><time>2026-05-01T09:00:50Z</time></trkpt><trkpt lat="39.80877961263609" lon="9.39816566279716"><ele>701.5</ele><time>2026-05-01T09:00:51Z</time></trkpt><trkpt lat="39.80877610999408" lon="9.398312859211625"><ele>702.0</ele><time>2026-05-01T09:00:52Z</time></trkpt><trkpt lat="39.80877371022576" lon="9.398459999881206"><ele>702.0</ele><time>2026-05-01T09:00:53Z</time></trkpt><trkpt lat="39.80876561976321" lon="9.398604995999841"><ele>702.0</ele><time>2026-05-01T09:00:54Z</time></trkpt><trkpt lat="39.80874776104784" lon="9.398742407362503"><ele>702.0</ele><time>2026-05-01T09:00:55Z</time></trkpt><trkpt lat="39.808715587822896" lon="9.39886860121159"><ele>702.0</ele><time>2026-05-01T09:00:56Z</time></trkpt><trkpt lat="39.80866362683849" lon="9.398982235613698"><ele>702.0</ele><time>2026-05-01T09:00:57Z</time></trkpt><trkpt lat="39.808598804151195" lon="9.399062094189121"><ele>702.0</ele><time>2026-05-01T09:00:58Z</time></trkpt><trkpt lat="39.808523336180066" lon="9.399107250299318"><ele>702.0</ele><time>2026-05-01T09:00:59Z</time></trkpt><trkpt lat="39.808459147266" lon="9.399076217709966"><ele>702.0</ele><time>2026-05-01T09:01:00Z</time></trkpt><trkpt lat="39.80847445478716" lon="9.398919082060061"><ele>702.0</ele><time>2026-05-01T09:01:02Z</time></trkpt><trkpt lat="39.80850678476944" lon="9.398828512613212"><ele>702.0</ele><time>2026-05-01T09:01:03Z</time></trkpt><trkpt lat="39.80856223074242" lon="9.398733014079232"><ele>702.0</ele><time>2026-05-01T09:01:04Z</time></trkpt><trkpt lat="39.80859530852004" lon="9.398611652563142"><ele>702.0</ele><time>2026-05-01T09:01:05Z</time></trkpt><trkpt lat="39.808619111548694" lon="9.398467400341264"><ele>702.0</ele><time>2026-05-01T09:01:06Z</time></trkpt><trkpt lat="39.808637653788516" lon="9.398319870768056"><ele>702.0</ele><time>2026-05-01T09:01:07Z</time></trkpt><trkpt lat="39.80862666461822" lon="9.398173933656686"><ele>702.0</ele><time>2026-05-01T09:01:08Z</time></trkpt><trkpt lat="39.80858988305421" lon="9.398040741280864"><ele>701.6</ele><time>2026-05-01T09:01:09Z</time></trkpt><trkpt lat="39.808553232516154" lon="9.397906651609233"><ele>701.2</ele><time>2026-05-01T09:01:10Z</time></trkpt><trkpt lat="39.80852301916061" lon="9.397769697219067"><ele>700.8</ele><time>2026-05-01T09:01:11Z</time></trkpt><trkpt lat="39.80849405107179" lon="9.397633590148246"><ele>700.4</ele><time>2026-05-01T09:01:12Z</time></trkpt><trkpt lat="39.80846552829364" lon="9.39750434968369"><ele>700.0</ele><time>2026-05-01T09:01:13Z</time></trkpt><trkpt lat="39.80843857882329" lon="9.397372614630596"><ele>705.8</ele><time>2026-05-01T09:01:14Z</time></trkpt><trkpt lat="39.808420841507825" lon="9.397240934009382"><ele>711.6</ele><time>2026-05-01T09:01:15Z</time></trkpt><trkpt lat="39.80841013169678" lon="9.397110433697758"><ele>717.4000000000001</ele><time>2026-05-01T09:01:16Z</time></trkpt><trkpt lat="39.80839882140089" lon="9.396981139847655"><ele>723.2</ele><time>2026-05-01T09:01:17Z</time></trkpt><trkpt lat="39.808384582990215" lon="9.39685289325868"><ele>729.0</ele><time>2026-05-01T09:01:18Z</time></trkpt><trkpt lat="39.80836041565625" lon="9.396727249227924"><ele>729.4000000000001</ele><time>2026-05-01T09:01:19Z</time></trkpt><trkpt lat="39.80832636045793" lon="9.39660674037106"><ele>729.8</ele><time>2026-05-01T09:01:20Z</time></trkpt><trkpt lat="39.80832059867397" lon="9.396481355200246"><ele>730.2</ele><time>2026-05-01T09:01:21Z</time></trkpt><trkpt lat="39.80830813381505" lon="9.39635641035144"><ele>730.5999999999999</ele><time>2026-05-01T09:01:22Z</time></trkpt><trkpt lat="39.80833384906413" lon="9.396228484022997"><ele>731.0</ele><time>2026-05-01T09:01:23Z</time></trkpt><trkpt lat="39.80836190786898" lon="9.39609882327837"><ele>732.1999999999999</ele><time>2026-05-01T09:01:24Z</time></trkpt><trkpt lat="39.808387807492146" lon="9.395966625827858"><ele>733.4</ele><time>2026-05-01T09:01:25Z</time></trkpt><trkpt lat="39.808415153969264" lon="9.395837314684414"><ele>734.6</ele><time>2026-05-01T09:01:26Z</time></trkpt><trkpt lat="39.8084432732424" lon="9.395709080939124"><ele>735.8</ele><time>2026-05-01T09:01:27Z</time></trkpt><trkpt lat="39.808467378803265" lon="9.395582422812652"><ele>737.0</ele><time>2026-05-01T09:01:28Z</time></trkpt><trkpt lat="39.80848466294888" lon="9.395451502117794"><ele>733.8</ele><time>2026-05-01T09:01:29Z</time></trkpt><trkpt lat="39.808499376705996" lon="9.395318344454884"><ele>730.6</ele><time>2026-05-01T09:01:30Z</time></trkpt><trkpt lat="39.808512527389965" lon="9.395185461278365"><ele>727.4</ele><time>2026-05-01T09:01:31Z</time></trkpt><trkpt lat="39.80852311528975" lon="9.395050190348657"><ele>724.1999999999999</ele><time>2026-05-01T09:01:32Z</time></trkpt><trkpt lat="39.80852816586263" lon="9.394913678235767"><ele>721.0</ele><time>2026-05-01T09:01:33Z</time></trkpt><trkpt lat="39.80852917866173" lon="9.394776249670317"><ele>722.0</ele><time>2026-05-01T09:01:34Z</time></trkpt><trkpt lat="39.80852955675023" lon="9.39463842203168"><ele>723.0</ele><time>2026-05-01T09:01:35Z</time></trkpt><trkpt lat="39.80853049397188" lon="9.394500721231227"><ele>724.0</ele><time>2026-05-01T09:01:36Z</time></trkpt><trkpt lat="39.80852837829672" lon="9.394360645122232"><ele>725.0</ele><time>2026-05-01T09:01:37Z</time></trkpt><trkpt lat="39.80852348355178" lon="9.39422199479133"><ele>726.0</ele><time>2026-05-01T09:01:38Z</time></trkpt><trkpt lat="39.80851912192923" lon="9.394082093547967"><ele>726.0</ele><time>2026-05-01T09:01:39Z</time></trkpt><trkpt lat="39.80852397156174" lon="9.393940629448146"><ele>726.0</ele><time>2026-05-01T09:01:40Z</time></trkpt><trkpt lat="39.8085333541624" lon="9.39379765529528"><ele>726.0</ele><time>2026-05-01T09:01:41Z</time></trkpt><trkpt lat="39.80854633514792" lon="9.393655458021954"><ele>726.0</ele><time>2026-05-01T09:01:42Z</time></trkpt><trkpt lat="39.80856437972061" lon="9.393517525735355"><ele>726.0</ele><time>2026-05-01T09:01:43Z</time></trkpt><trkpt lat="39.808593141254825" lon="9.393380931734278"><ele>727.8</ele><time>2026-05-01T09:01:44Z</time></trkpt><trkpt lat="39.80862788557845" lon="9.393249138146924"><ele>729.5999999999999</ele><time>2026-05-01T09:01:45Z</time></trkpt><trkpt lat="39.80866771385472" lon="9.393116949692242"><ele>731.4</ele><time>2026-05-01T09:01:46Z</time></trkpt><trkpt lat="39.80871148304788" lon="9.39299112819085"><ele>733.2</ele><time>2026-05-01T09:01:47Z</time></trkpt><trkpt lat="39.808769045466505" lon="9.392876783746486"><ele>735.0</ele><time>2026-05-01T09:01:48Z</time></trkpt><trkpt lat="39.8088285469666" lon="9.392763050610347"><ele>737.0</ele><time>2026-05-01T09:01:49Z</time></trkpt><trkpt lat="39.808883580206746" lon="9.392639917564416"><ele>739.0</ele><time>2026-05-01T09:01:50Z</time></trkpt><trkpt lat="39.80887392653255" lon="9.392473145927758"><ele>741.0</ele><time>2026-05-01T09:01:51Z</time></trkpt><trkpt lat="39.80888129114425" lon="9.392316755247165"><ele>743.0</ele><time>2026-05-01T09:01:52Z</time></trkpt><trkpt lat="39.80889491139796" lon="9.392161647856232"><ele>745.0</ele><time>2026-05-01T09:01:53Z</time></trkpt><trkpt lat="39.808905163969456" lon="9.392006338354411"><ele>747.0</ele><time>2026-05-01T09:01:54Z</time></trkpt><trkpt lat="39.80891317051926" lon="9.391848240217447"><ele>749.0</ele><time>2026-05-01T09:01:55Z</time></trkpt><trkpt lat="39.8089410559889" lon="9.39168833228205"><ele>751.0</ele><time>2026-05-01T09:01:56Z</time></trkpt><trkpt lat="39.808990385073486" lon="9.3915379546549"><ele>751.0</ele><time>2026-05-01T09:01:57Z</time></trkpt><trkpt lat="39.809054179664514" lon="9.39139571752084"><ele>751.0</ele><time>2026-05-01T09:01:58Z</time></trkpt><trkpt lat="39.80912407557648" lon="9.391260639296311"><ele>751.0</ele><time>2026-05-01T09:01:59Z</time></trkpt><trkpt lat="39.80920159162508" lon="9.391135236626516"><ele>751.0</ele><time>2026-05-01T09:02:00Z</time></trkpt><trkpt lat="39.80928386269485" lon="9.391014284567385"><ele>749.75</ele><time>2026-05-01T09:02:01Z</time></trkpt><trkpt lat="39.80936734901115" lon="9.390889721437793"><ele>748.5</ele><time>2026-05-01T09:02:02Z</time></trkpt><trkpt lat="39.8094530947612" lon="9.390767115334649"><ele>747.25</ele><time>2026-05-01T09:02:03Z</time></trkpt><trkpt lat="39.80954793167168" lon="9.39065590409254"><ele>746.0</ele><time>2026-05-01T09:02:04Z</time></trkpt><trkpt lat="39.80965914954326" lon="9.390568101476966"><ele>750.5</ele><time>2026-05-01T09:02:05Z</time></trkpt><trkpt lat="39.8097687470298" lon="9.390484948411787"><ele>755.0</ele><time>2026-05-01T09:02:06Z</time></trkpt><trkpt lat="39.80986596140145" lon="9.390373152117483"><ele>759.5</ele><time>2026-05-01T09:02:07Z</time></trkpt><trkpt lat="39.80993800679523" lon="9.390217294174263"><ele>764.0</ele><time>2026-05-01T09:02:08Z</time></trkpt><trkpt lat="39.809986599517444" lon="9.390034487332265"><ele>764.0</ele><time>2026-05-01T09:02:09Z</time></trkpt><trkpt lat="39.810030054218686" lon="9.389836473310114"><ele>764.0</ele><time>2026-05-01T09:02:10Z</time></trkpt><trkpt lat="39.810073476925545" lon="9.389642311837582"><ele>764.0</ele><time>2026-05-01T09:02:11Z</time></trkpt><trkpt lat="39.810123591433225" lon="9.389448350823733"><ele>766.5</ele><time>2026-05-01T09:02:12Z</time></trkpt><trkpt lat="39.81017592088483" lon="9.389255896329345"><ele>769.0</ele><time>2026-05-01T09:02:13Z</time></trkpt><trkpt lat="39.81021921428079" lon="9.389068358965186"><ele>771.5</ele><time>2026-05-01T09:02:14Z</time></trkpt><trkpt lat="39.81027381421319" lon="9.388900849715693"><ele>774.0</ele><time>2026-05-01T09:02:15Z</time></trkpt><trkpt lat="39.81036688316896" lon="9.388759850024694"><ele>774.0</ele><time>2026-05-01T09:02:16Z</time></trkpt><trkpt lat="39.8105016717533" lon="9.388671194560088"><ele>774.0</ele><time>2026-05-01T09:02:17Z</time></trkpt><trkpt lat="39.810622691364706" lon="9.3885582050111"><ele>774.0</ele><time>2026-05-01T09:02:18Z</time></trkpt><trkpt lat="39.810722912698004" lon="9.388410905097803"><ele>774.0</ele><time>2026-05-01T09:02:19Z</time></trkpt><trkpt lat="39.81080436254963" lon="9.38823189184289"><ele>774.0</ele><time>2026-05-01T09:02:20Z</time></trkpt><trkpt lat="39.81088767193855" lon="9.388063237640296"><ele>774.0</ele><time>2026-05-01T09:02:21Z</time></trkpt><trkpt lat="39.811011486933445" lon="9.387951008663903"><ele>774.6666666666667</ele><time>2026-05-01T09:02:22Z</time></trkpt><trkpt lat="39.81115002062899" lon="9.387860150795504"><ele>775.3333333333334</ele><time>2026-05-01T09:02:23Z</time></trkpt><trkpt lat="39.811291254698816" lon="9.38775925003406"><ele>776.0</ele><time>2026-05-01T09:02:24Z</time></trkpt><trkpt lat="39.811417022313215" lon="9.387628875256322"><ele>776.0</ele><time>2026-05-01T09:02:25Z</time></trkpt><trkpt lat="39.81152988800615" lon="9.387465123092662"><ele>776.0</ele><time>2026-05-01T09:02:26Z</time></trkpt><trkpt lat="39.81163637810855" lon="9.387298387313324"><ele>776.0</ele><time>2026-05-01T09:02:27Z</time></trkpt><trkpt lat="39.81173697867537" lon="9.387157559270523"><ele>775.1999999999999</ele><time>2026-05-01T09:02:28Z</time></trkpt><trkpt lat="39.81182582245541" lon="9.38702696429373"><ele>774.4</ele><time>2026-05-01T09:02:29Z</time></trkpt><trkpt lat="39.811893491511384" lon="9.386896954000944"><ele>773.6</ele><time>2026-05-01T09:02:30Z</time></trkpt><trkpt lat="39.811914561160954" lon="9.38676940797089"><ele>772.8</ele><time>2026-05-01T09:02:31Z</time></trkpt><trkpt lat="39.81187757570619" lon="9.3866896373986"><ele>772.0</ele><time>2026-05-01T09:02:32Z</time></trkpt><trkpt lat="39.811811557915455" lon="9.386677874420103"><ele>772.8</ele><time>2026-05-01T09:02:33Z</time></trkpt><trkpt lat="39.81172694190956" lon="9.386721807326358"><ele>773.6</ele><time>2026-05-01T09:02:34Z</time></trkpt><trkpt lat="39.811655833323165" lon="9.38684617725574"><ele>774.4</ele><time>2026-05-01T09:02:35Z</time></trkpt><trkpt lat="39.811589059748236" lon="9.386979090289142"><ele>775.1999999999999</ele><time>2026-05-01T09:02:36Z</time></trkpt><trkpt lat="39.81151956818654" lon="9.387098881059856"><ele>776.0</ele><time>2026-05-01T09:02:37Z</time></trkpt><trkpt lat="39.811427486003375" lon="9.38721792150465"><ele>776.0</ele><time>2026-05-01T09:02:38Z</time></trkpt><trkpt lat="39.81130703192575" lon="9.38733370812016"><ele>776.0</ele><time>2026-05-01T09:02:39Z</time></trkpt><trkpt lat="39.8111736643683" lon="9.387426139980303"><ele>776.0</ele><time>2026-05-01T09:02:40Z</time></trkpt><trkpt lat="39.81103684406797" lon="9.387522867720916"><ele>783.3333333333334</ele><time>2026-05-01T09:02:41Z</time></trkpt><trkpt lat="39.8108936859578" lon="9.387617680566297"><ele>790.6666666666667</ele><time>2026-05-01T09:02:42Z</time></trkpt><trkpt lat="39.810748638519236" lon="9.387726580704925"><ele>798.0</ele><time>2026-05-01T09:02:43Z</time></trkpt><trkpt lat="39.81060184952602" lon="9.387831165136816"><ele>798.0</ele><time>2026-05-01T09:02:44Z</time></trkpt><trkpt lat="39.81044796048066" lon="9.387926746339724"><ele>798.0</ele><time>2026-05-01T09:02:45Z</time></trkpt><trkpt lat="39.810291401277354" lon="9.388018426876805"><ele>798.0</ele><time>2026-05-01T09:02:46Z</time></trkpt><trkpt lat="39.81012580629565" lon="9.388098342122815"><ele>798.0</ele><time>2026-05-01T09:02:47Z</time></trkpt><trkpt lat="39.809983188622525" lon="9.38823512634939"><ele>798.0</ele><time>2026-05-01T09:02:48Z</time></trkpt><trkpt lat="39.809845432493695" lon="9.38837044785921"><ele>798.0</ele><time>2026-05-01T09:02:49Z</time></trkpt><trkpt lat="39.809681300869805" lon="9.388457963210653"><ele>798.0</ele><time>2026-05-01T09:02:50Z</time></trkpt><trkpt lat="39.80951489703166" lon="9.388539763132355"><ele>798.0</ele><time>2026-05-01T09:02:51Z</time></trkpt><trkpt lat="39.80933881554295" lon="9.388607847953487"><ele>798.0</ele><time>2026-05-01T09:02:52Z</time></trkpt><trkpt lat="39.80917284216809" lon="9.38869217031471"><ele>798.3333333333333</ele><time>2026-05-01T09:02:53Z</time></trkpt><trkpt lat="39.809023597704694" lon="9.388796816319978"><ele>798.6666666666666</ele><time>2026-05-01T09:02:54Z</time></trkpt><trkpt lat="39.80888613295811" lon="9.388908553634417"><ele>799.0</ele><time>2026-05-01T09:02:55Z</time></trkpt><trkpt lat="39.808771018203764" lon="9.389076360042116"><ele>799.0</ele><time>2026-05-01T09:02:56Z</time></trkpt><trkpt lat="39.808669293301286" lon="9.389264305426577"><ele>799.0</ele><time>2026-05-01T09:02:57Z</time></trkpt><trkpt lat="39.808561253732314" lon="9.38943668083774"><ele>799.0</ele><time>2026-05-01T09:02:58Z</time></trkpt><trkpt lat="39.80844835492268" lon="9.389587271632674"><ele>804.3333333333333</ele><time>2026-05-01T09:02:59Z</time></trkpt><trkpt lat="39.80835022965987" lon="9.389751689845035"><ele>809.6666666666667</ele><time>2026-05-01T09:03:00Z</time></trkpt><trkpt lat="39.808294734243155" lon="9.389957702222256"><ele>815.0</ele><time>2026-05-01T09:03:01Z</time></trkpt><trkpt lat="39.80824898933975" lon="9.390169172448163"><ele>815.0</ele><time>2026-05-01T09:03:02Z</time></trkpt><trkpt lat="39.80821361775957" lon="9.39037970023896"><ele>815.0</ele><time>2026-05-01T09:03:03Z</time></trkpt><trkpt lat="39.80813599282132" lon="9.390575723621552"><ele>815.0</ele><time>2026-05-01T09:03:04Z</time></trkpt><trkpt lat="39.808038207881815" lon="9.390758553589341"><ele>811.0</ele><time>2026-05-01T09:03:05Z</time></trkpt><trkpt lat="39.80793286859702" lon="9.390920906802057"><ele>807.0</ele><time>2026-05-01T09:03:06Z</time></trkpt><trkpt lat="39.80782847828963" lon="9.391060825898624"><ele>803.0</ele><time>2026-05-01T09:03:07Z</time></trkpt><trkpt lat="39.80769148994778" lon="9.391145953021821"><ele>809.25</ele><time>2026-05-01T09:03:08Z</time></trkpt><trkpt lat="39.807541299997794" lon="9.39123400276567"><ele>815.5</ele><time>2026-05-01T09:03:09Z</time></trkpt><trkpt lat="39.807394874167805" lon="9.391288578621252"><ele>821.75</ele><time>2026-05-01T09:03:10Z</time></trkpt><trkpt lat="39.80726969626396" lon="9.391304263797954"><ele>828.0</ele><time>2026-05-01T09:03:11Z</time></trkpt><trkpt lat="39.80716616723911" lon="9.39125983606572"><ele>828.0</ele><time>2026-05-01T09:03:12Z</time></trkpt><trkpt lat="39.80709601442005" lon="9.391157296832526"><ele>828.0</ele><time>2026-05-01T09:03:13Z</time></trkpt><trkpt lat="39.807069457659665" lon="9.39100770440288"><ele>828.0</ele><time>2026-05-01T09:03:14Z</time></trkpt><trkpt lat="39.80708624637115" lon="9.390828641930435"><ele>828.0</ele><time>2026-05-01T09:03:15Z</time></trkpt><trkpt lat="39.80712120177578" lon="9.390643591297302"><ele>829.6666666666667</ele><time>2026-05-01T09:03:16Z</time></trkpt><trkpt lat="39.807178293145434" lon="9.390451104026521"><ele>831.3333333333334</ele><time>2026-05-01T09:03:17Z</time></trkpt><trkpt lat="39.807254784458344" lon="9.390267945993306"><ele>833.0</ele><time>2026-05-01T09:03:18Z</time></trkpt><trkpt lat="39.807307622336744" lon="9.390079121391471"><ele>833.0</ele><time>2026-05-01T09:03:19Z</time></trkpt><trkpt lat="39.807320137654614" lon="9.389871707389407"><ele>833.0</ele><time>2026-05-01T09:03:20Z</time></trkpt><trkpt lat="39.8073029508291" lon="9.389668265578786"><ele>833.0</ele><time>2026-05-01T09:03:21Z</time></trkpt><trkpt lat="39.807269263214195" lon="9.389501370166146"><ele>834.4</ele><time>2026-05-01T09:03:22Z</time></trkpt><trkpt lat="39.80721706911518" lon="9.389392674466858"><ele>835.8</ele><time>2026-05-01T09:03:23Z</time></trkpt><trkpt lat="39.80714116514809" lon="9.389363132216193"><ele>837.2</ele><time>2026-05-01T09:03:24Z</time></trkpt><trkpt lat="39.80706528214552" lon="9.389393983006816"><ele>838.6</ele><time>2026-05-01T09:03:25Z</time></trkpt><trkpt lat="39.806978703271625" lon="9.389476988881365"><ele>840.0</ele><time>2026-05-01T09:03:26Z</time></trkpt><trkpt lat="39.80689846232857" lon="9.389581960457386"><ele>839.5</ele><time>2026-05-01T09:03:27Z</time></trkpt><trkpt lat="39.80681429823102" lon="9.389709709732447"><ele>839.0</ele><time>2026-05-01T09:03:28Z</time></trkpt><trkpt lat="39.80671770862453" lon="9.389859176475591"><ele>838.5</ele><time>2026-05-01T09:03:29Z</time></trkpt><trkpt lat="39.806618098369064" lon="9.39001612747883"><ele>838.0</ele><time>2026-05-01T09:03:30Z</time></trkpt><trkpt lat="39.80650559225796" lon="9.390197825284242"><ele>838.0</ele><time>2026-05-01T09:03:31Z</time></trkpt><trkpt lat="39.80639762776513" lon="9.390375151996325"><ele>838.0</ele><time>2026-05-01T09:03:32Z</time></trkpt><trkpt lat="39.80629700510852" lon="9.390555403515659"><ele>838.0</ele><time>2026-05-01T09:03:33Z</time></trkpt><trkpt lat="39.806227024278094" lon="9.390734783652107"><ele>840.0</ele><time>2026-05-01T09:03:34Z</time></trkpt><trkpt lat="39.80616436435688" lon="9.390905102380811"><ele>842.0</ele><time>2026-05-01T09:03:35Z</time></trkpt><trkpt lat="39.80607773103018" lon="9.391043176363128"><ele>844.0</ele><time>2026-05-01T09:03:36Z</time></trkpt><trkpt lat="39.80595281237773" lon="9.391145483634643"><ele>846.0</ele><time>2026-05-01T09:03:37Z</time></trkpt><trkpt lat="39.805803793491435" lon="9.391197811741383"><ele>846.0</ele><time>2026-05-01T09:03:38Z</time></trkpt><trkpt lat="39.805646306573195" lon="9.391195993245242"><ele>846.0</ele><time>2026-05-01T09:03:39Z</time></trkpt><trkpt lat="39.80549073111859" lon="9.391159326994236"><ele>846.0</ele><time>2026-05-01T09:03:40Z</time></trkpt><trkpt lat="39.80534486319658" lon="9.39110603336455"><ele>846.0</ele><time>2026-05-01T09:03:41Z</time></trkpt><trkpt lat="39.80521400029198" lon="9.391081088275056"><ele>846.0</ele><time>2026-05-01T09:03:42Z</time></trkpt><trkpt lat="39.805090945506144" lon="9.391120170620983"><ele>846.0</ele><time>2026-05-01T09:03:43Z</time></trkpt><trkpt lat="39.8049934287187" lon="9.39123180216331"><ele>846.0</ele><time>2026-05-01T09:03:44Z</time></trkpt><trkpt lat="39.804892357749424" lon="9.391355944428197"><ele>844.25</ele><time>2026-05-01T09:03:45Z</time></trkpt><trkpt lat="39.80479560695832" lon="9.391492064708372"><ele>842.5</ele><time>2026-05-01T09:03:46Z</time></trkpt><trkpt lat="39.8046642912477" lon="9.391586991413282"><ele>840.75</ele><time>2026-05-01T09:03:47Z</time></trkpt><trkpt lat="39.80451539977341" lon="9.39164756291639"><ele>839.0</ele><time>2026-05-01T09:03:48Z</time></trkpt><trkpt lat="39.80435199992534" lon="9.391653286191254"><ele>841.5</ele><time>2026-05-01T09:03:49Z</time></trkpt><trkpt lat="39.80419276896893" lon="9.391685143084215"><ele>844.0</ele><time>2026-05-01T09:03:50Z</time></trkpt><trkpt lat="39.8040487581553" lon="9.391699174785249"><ele>846.5</ele><time>2026-05-01T09:03:51Z</time></trkpt><trkpt lat="39.803928689107536" lon="9.391705197630731"><ele>849.0</ele><time>2026-05-01T09:03:52Z</time></trkpt><trkpt lat="39.80383374091239" lon="9.391669414534684"><ele>849.0</ele><time>2026-05-01T09:03:53Z</time></trkpt><trkpt lat="39.80377346314063" lon="9.391576357982455"><ele>849.0</ele><time>2026-05-01T09:03:54Z</time></trkpt><trkpt lat="39.803763291526394" lon="9.39143713416001"><ele>849.0</ele><time>2026-05-01T09:03:55Z</time></trkpt><trkpt lat="39.80378496208118" lon="9.391280167870995"><ele>849.0</ele><time>2026-05-01T09:03:56Z</time></trkpt><trkpt lat="39.803810678909144" lon="9.39110824239343"><ele>852.5</ele><time>2026-05-01T09:03:57Z</time></trkpt><trkpt lat="39.803820956041974" lon="9.390924730489283"><ele>856.0</ele><time>2026-05-01T09:03:58Z</time></trkpt><trkpt lat="39.80381172626691" lon="9.390721938087143"><ele>859.5</ele><time>2026-05-01T09:03:59Z</time></trkpt><trkpt lat="39.80376839891744" lon="9.390536556329407"><ele>863.0</ele><time>2026-05-01T09:04:00Z</time></trkpt><trkpt lat="39.80369973645054" lon="9.390369696894457"><ele>864.5</ele><time>2026-05-01T09:04:01Z</time></trkpt><trkpt lat="39.80364617393588" lon="9.390215009497366"><ele>866.0</ele><time>2026-05-01T09:04:02Z</time></trkpt><trkpt lat="39.803639998880904" lon="9.390055139302854"><ele>867.5</ele><time>2026-05-01T09:04:03Z</time></trkpt><trkpt lat="39.803691757584836" lon="9.389917699398373"><ele>869.0</ele><time>2026-05-01T09:04:04Z</time></trkpt><trkpt lat="39.803791418847865" lon="9.38981171377685"><ele>869.0</ele><time>2026-05-01T09:04:05Z</time></trkpt><trkpt lat="39.803911159955675" lon="9.389702558608546"><ele>869.0</ele><time>2026-05-01T09:04:06Z</time></trkpt><trkpt lat="39.80402672756531" lon="9.38957391664056"><ele>869.0</ele><time>2026-05-01T09:04:07Z</time></trkpt><trkpt lat="39.80415357588318" lon="9.389431323841313"><ele>868.3333333333334</ele><time>2026-05-01T09:04:08Z</time></trkpt><trkpt lat="39.804290999825746" lon="9.389289539450925"><ele>867.6666666666667</ele><time>2026-05-01T09:04:09Z</time></trkpt><trkpt lat="39.80443267798784" lon="9.389146955751956"><ele>867.0</ele><time>2026-05-01T09:04:10Z</time></trkpt><trkpt lat="39.80458442456484" lon="9.388999131095575"><ele>870.0</ele><time>2026-05-01T09:04:11Z</time></trkpt><trkpt lat="39.80473708286596" lon="9.388853375673017"><ele>873.0</ele><time>2026-05-01T09:04:12Z</time></trkpt><trkpt lat="39.80488018653647" lon="9.388700432054716"><ele>876.0</ele><time>2026-05-01T09:04:13Z</time></trkpt><trkpt lat="39.805002776502356" lon="9.388537088487153"><ele>876.0</ele><time>2026-05-01T09:04:14Z</time></trkpt><trkpt lat="39.80510694353145" lon="9.388355996444979"><ele>876.0</ele><time>2026-05-01T09:04:15Z</time></trkpt><trkpt lat="39.80520958602886" lon="9.388179060065408"><ele>876.0</ele><time>2026-05-01T09:04:16Z</time></trkpt><trkpt lat="39.80534187213013" lon="9.387967433729235"><ele>877.3333333333333</ele><time>2026-05-01T09:04:17Z</time></trkpt><trkpt lat="39.80541402727625" lon="9.387776292932095"><ele>878.6666666666666</ele><time>2026-05-01T09:04:18Z</time></trkpt><trkpt lat="39.80544258855622" lon="9.387575950085463"><ele>880.0</ele><time>2026-05-01T09:04:19Z</time></trkpt><trkpt lat="39.805433152246344" lon="9.38736158061367"><ele>883.6666666666666</ele><time>2026-05-01T09:04:20Z</time></trkpt><trkpt lat="39.80537957826395" lon="9.387136579947416"><ele>887.3333333333333</ele><time>2026-05-01T09:04:21Z</time></trkpt><trkpt lat="39.80529099747885" lon="9.38691440309705"><ele>891.0</ele><time>2026-05-01T09:04:22Z</time></trkpt><trkpt lat="39.805197589447424" lon="9.386694996124735"><ele>889.3333333333333</ele><time>2026-05-01T09:04:23Z</time></trkpt><trkpt lat="39.80510382156235" lon="9.386480282201036"><ele>887.6666666666666</ele><time>2026-05-01T09:04:24Z</time></trkpt><trkpt lat="39.805005117897274" lon="9.386269488690248"><ele>886.0</ele><time>2026-05-01T09:04:25Z</time></trkpt><trkpt lat="39.804906626946085" lon="9.386057491794816"><ele>889.6666666666666</ele><time>2026-05-01T09:04:26Z</time></trkpt><trkpt lat="39.804809516644376" lon="9.38584938454011"><ele>893.3333333333333</ele><time>2026-05-01T09:04:27Z</time></trkpt><trkpt lat="39.80471669405533" lon="9.385644939746697"><ele>897.0</ele><time>2026-05-01T09:04:28Z</time></trkpt><trkpt lat="39.804626082913224" lon="9.385443610638632"><ele>901.0</ele><time>2026-05-01T09:04:29Z</time></trkpt><trkpt lat="39.80453792977461" lon="9.385246869236015"><ele>905.0</ele><time>2026-05-01T09:04:30Z</time></trkpt><trkpt lat="39.804453691642436" lon="9.385049271638708"><ele>909.0</ele><time>2026-05-01T09:04:31Z</time></trkpt><trkpt lat="39.804369176974845" lon="9.384861875501018"><ele>907.75</ele><time>2026-05-01T09:04:32Z</time></trkpt><trkpt lat="39.80428983715401" lon="9.384680390454536"><ele>906.5</ele><time>2026-05-01T09:04:33Z</time></trkpt><trkpt lat="39.80426525113191" lon="9.384492007880725"><ele>905.25</ele><time>2026-05-01T09:04:34Z</time></trkpt><trkpt lat="39.804282730773174" lon="9.38431208634823"><ele>904.0</ele><time>2026-05-01T09:04:35Z</time></trkpt><trkpt lat="39.804327637852616" lon="9.384122886751745"><ele>907.6666666666666</ele><time>2026-05-01T09:04:36Z</time></trkpt><trkpt lat="39.804429409574816" lon="9.38396278766874"><ele>911.3333333333333</ele><time>2026-05-01T09:04:37Z</time></trkpt><trkpt lat="39.80455414609228" lon="9.383805512876275"><ele>915.0</ele><time>2026-05-01T09:04:38Z</time></trkpt><trkpt lat="39.80468716625438" lon="9.383622645497352"><ele>915.0</ele><time>2026-05-01T09:04:39Z</time></trkpt><trkpt lat="39.80482315114293" lon="9.383457945615033"><ele>915.0</ele><time>2026-05-01T09:04:40Z</time></trkpt><trkpt lat="39.80495553766589" lon="9.383274831766226"><ele>915.0</ele><time>2026-05-01T09:04:41Z</time></trkpt><trkpt lat="39.80507880100483" lon="9.383083305512214"><ele>916.6666666666667</ele><time>2026-05-01T09:04:42Z</time></trkpt><trkpt lat="39.80520305941431" lon="9.38289548545868"><ele>918.3333333333334</ele><time>2026-05-01T09:04:43Z</time></trkpt><trkpt lat="39.80536665567983" lon="9.382762359134585"><ele>920.0</ele><time>2026-05-01T09:04:44Z</time></trkpt><trkpt lat="39.80552146406907" lon="9.3826074556579"><ele>920.0</ele><time>2026-05-01T09:04:45Z</time></trkpt><trkpt lat="39.80568369143687" lon="9.382487253291568"><ele>920.0</ele><time>2026-05-01T09:04:46Z</time></trkpt><trkpt lat="39.80582311603579" lon="9.38234505778049"><ele>920.0</ele><time>2026-05-01T09:04:47Z</time></trkpt><trkpt lat="39.80593625081874" lon="9.382165054369374"><ele>926.3333333333334</ele><time>2026-05-01T09:04:48Z</time></trkpt><trkpt lat="39.80601529032835" lon="9.38196697790328"><ele>932.6666666666667</ele><time>2026-05-01T09:04:49Z</time></trkpt><trkpt lat="39.80605549478536" lon="9.38176905470928"><ele>939.0</ele><time>2026-05-01T09:04:50Z</time></trkpt><trkpt lat="39.80605111321802" lon="9.3815693514019"><ele>939.0</ele><time>2026-05-01T09:04:51Z</time></trkpt><trkpt lat="39.806000104745856" lon="9.381357890012964"><ele>939.0</ele><time>2026-05-01T09:04:52Z</time></trkpt><trkpt lat="39.80592144432681" lon="9.381135021797078"><ele>939.0</ele><time>2026-05-01T09:04:53Z</time></trkpt><trkpt lat="39.80584926903539" lon="9.380901269726888"><ele>937.3333333333333</ele><time>2026-05-01T09:04:54Z</time></trkpt><trkpt lat="39.80578714018164" lon="9.38066060345657"><ele>935.6666666666666</ele><time>2026-05-01T09:04:55Z</time></trkpt><trkpt lat="39.80572765416362" lon="9.380423278382382"><ele>934.0</ele><time>2026-05-01T09:04:56Z</time></trkpt><trkpt lat="39.80565542902761" lon="9.38019897840349"><ele>934.0</ele><time>2026-05-01T09:04:57Z</time></trkpt><trkpt lat="39.8055383175336" lon="9.380004554969027"><ele>934.0</ele><time>2026-05-01T09:04:58Z</time></trkpt><trkpt lat="39.80539250206611" lon="9.379838470558177"><ele>934.0</ele><time>2026-05-01T09:04:59Z</time></trkpt><trkpt lat="39.80521981136818" lon="9.379727566281174"><ele>937.0</ele><time>2026-05-01T09:05:00Z</time></trkpt><trkpt lat="39.80503585185642" lon="9.379670340189076"><ele>940.0</ele><time>2026-05-01T09:05:01Z</time></trkpt><trkpt lat="39.80483629862137" lon="9.37967178596349"><ele>943.0</ele><time>2026-05-01T09:05:02Z</time></trkpt><trkpt lat="39.80463363678365" lon="9.37971327146748"><ele>934.6666666666666</ele><time>2026-05-01T09:05:03Z</time></trkpt><trkpt lat="39.80444502385401" lon="9.379730721567665"><ele>926.3333333333333</ele><time>2026-05-01T09:05:04Z</time></trkpt><trkpt lat="39.804274938174245" lon="9.379766729119758"><ele>918.0</ele><time>2026-05-01T09:05:05Z</time></trkpt><trkpt lat="39.8041132344726" lon="9.379763355155864"><ele>918.0</ele><time>2026-05-01T09:05:06Z</time></trkpt><trkpt lat="39.803949845401775" lon="9.379734317660537"><ele>918.0</ele><time>2026-05-01T09:05:07Z</time></trkpt><trkpt lat="39.803799292422724" lon="9.379638311730458"><ele>918.0</ele><time>2026-05-01T09:05:08Z</time></trkpt><trkpt lat="39.80365649914552" lon="9.379534474694928"><ele>919.0</ele><time>2026-05-01T09:05:09Z</time></trkpt><trkpt lat="39.80355857521076" lon="9.379355080284228"><ele>920.0</ele><time>2026-05-01T09:05:10Z</time></trkpt><trkpt lat="39.80348905991437" lon="9.379152553536134"><ele>921.0</ele><time>2026-05-01T09:05:11Z</time></trkpt><trkpt lat="39.80341155232413" lon="9.378941090328738"><ele>923.6666666666667</ele><time>2026-05-01T09:05:12Z</time></trkpt><trkpt lat="39.803356530088074" lon="9.378713088272443"><ele>926.3333333333334</ele><time>2026-05-01T09:05:13Z</time></trkpt><trkpt lat="39.80330648294436" lon="9.378487331677809"><ele>929.0</ele><time>2026-05-01T09:05:14Z</time></trkpt><trkpt lat="39.80327296269434" lon="9.378252952977006"><ele>929.6666666666667</ele><time>2026-05-01T09:05:15Z</time></trkpt><trkpt lat="39.80326246090145" lon="9.378005276300643"><ele>930.3333333333333</ele><time>2026-05-01T09:05:16Z</time></trkpt><trkpt lat="39.803302231286175" lon="9.377765610621458"><ele>931.0</ele><time>2026-05-01T09:05:17Z</time></trkpt><trkpt lat="39.803365695726" lon="9.377538041589752"><ele>931.0</ele><time>2026-05-01T09:05:18Z</time></trkpt><trkpt lat="39.80344197019607" lon="9.377310604905002"><ele>931.0</ele><time>2026-05-01T09:05:19Z</time></trkpt><trkpt lat="39.8035184491168" lon="9.377086513728395"><ele>931.0</ele><time>2026-05-01T09:05:20Z</time></trkpt><trkpt lat="39.803610985863266" lon="9.376865954563982"><ele>930.6666666666666</ele><time>2026-05-01T09:05:21Z</time></trkpt><trkpt lat="39.803706675270725" lon="9.376650604975673"><ele>930.3333333333333</ele><time>2026-05-01T09:05:22Z</time></trkpt><trkpt lat="39.803820311247215" lon="9.376450632881667"><ele>930.0</ele><time>2026-05-01T09:05:23Z</time></trkpt><trkpt lat="39.803949611560704" lon="9.376262024154483"><ele>930.0</ele><time>2026-05-01T09:05:24Z</time></trkpt><trkpt lat="39.80408494962901" lon="9.376080448444098"><ele>930.0</ele><time>2026-05-01T09:05:25Z</time></trkpt><trkpt lat="39.804230365875156" lon="9.3759094051429"><ele>930.0</ele><time>2026-05-01T09:05:26Z</time></trkpt><trkpt lat="39.80438636167371" lon="9.375752251215781"><ele>930.3333333333333</ele><time>2026-05-01T09:05:27Z</time></trkpt><trkpt lat="39.80454612029955" lon="9.375596063373257"><ele>930.6666666666666</ele><time>2026-05-01T09:05:28Z</time></trkpt><trkpt lat="39.80470356809877" lon="9.375434850035738"><ele>931.0</ele><time>2026-05-01T09:05:29Z</time></trkpt><trkpt lat="39.80485971482187" lon="9.375265885879042"><ele>931.0</ele><time>2026-05-01T09:05:30Z</time></trkpt><trkpt lat="39.805016218764685" lon="9.375095255975994"><ele>931.0</ele><time>2026-05-01T09:05:31Z</time></trkpt><trkpt lat="39.80517655985117" lon="9.374928834632136"><ele>931.0</ele><time>2026-05-01T09:05:32Z</time></trkpt><trkpt lat="39.80533503676023" lon="9.374770362322062"><ele>933.3333333333333</ele><time>2026-05-01T09:05:33Z</time></trkpt><trkpt lat="39.805494772407705" lon="9.374608459616203"><ele>935.6666666666667</ele><time>2026-05-01T09:05:34Z</time></trkpt><trkpt lat="39.805650091472266" lon="9.374446850352808"><ele>938.0</ele><time>2026-05-01T09:05:35Z</time></trkpt><trkpt lat="39.80580524798358" lon="9.374286274911784"><ele>938.0</ele><time>2026-05-01T09:05:36Z</time></trkpt><trkpt lat="39.805958326227966" lon="9.37412701527915"><ele>938.0</ele><time>2026-05-01T09:05:37Z</time></trkpt><trkpt lat="39.806109261232336" lon="9.373957637743397"><ele>938.0</ele><time>2026-05-01T09:05:38Z</time></trkpt><trkpt lat="39.80624569967537" lon="9.373769873146525"><ele>940.6666666666667</ele><time>2026-05-01T09:05:39Z</time></trkpt><trkpt lat="39.80637275320137" lon="9.373568650656928"><ele>943.3333333333333</ele><time>2026-05-01T09:05:40Z</time></trkpt><trkpt lat="39.80649792356356" lon="9.373365586518974"><ele>946.0</ele><time>2026-05-01T09:05:41Z</time></trkpt><trkpt lat="39.80662290263031" lon="9.373164205830172"><ele>946.3333333333333</ele><time>2026-05-01T09:05:42Z</time></trkpt><trkpt lat="39.8067364043594" lon="9.37294289779779"><ele>946.6666666666667</ele><time>2026-05-01T09:05:43Z</time></trkpt><trkpt lat="39.80682346709407" lon="9.372694161925043"><ele>947.0</ele><time>2026-05-01T09:05:44Z</time></trkpt><trkpt lat="39.806890184214176" lon="9.372424687559871"><ele>950.3333333333334</ele><time>2026-05-01T09:05:45Z</time></trkpt><trkpt lat="39.806957715961296" lon="9.37216165230056"><ele>953.6666666666667</ele><time>2026-05-01T09:05:46Z</time></trkpt><trkpt lat="39.80703283211055" lon="9.371907131179322"><ele>957.0</ele><time>2026-05-01T09:05:47Z</time></trkpt><trkpt lat="39.80710942099002" lon="9.371659027650315"><ele>957.0</ele><time>2026-05-01T09:05:48Z</time></trkpt><trkpt lat="39.807182959676204" lon="9.371414830633592"><ele>957.0</ele><time>2026-05-01T09:05:49Z</time></trkpt><trkpt lat="39.807255805380514" lon="9.371176856817291"><ele>957.0</ele><time>2026-05-01T09:05:50Z</time></trkpt><trkpt lat="39.807336342788744" lon="9.370952013202194"><ele>957.0</ele><time>2026-05-01T09:05:51Z</time></trkpt><trkpt lat="39.80746265476524" lon="9.370766408492605"><ele>957.0</ele><time>2026-05-01T09:05:52Z</time></trkpt><trkpt lat="39.80760420677613" lon="9.370583725402756"><ele>957.0</ele><time>2026-05-01T09:05:53Z</time></trkpt><trkpt lat="39.80774421560134" lon="9.370387183527797"><ele>958.6666666666667</ele><time>2026-05-01T09:05:54Z</time></trkpt><trkpt lat="39.80789609056095" lon="9.370199682931222"><ele>960.3333333333334</ele><time>2026-05-01T09:05:55Z</time></trkpt><trkpt lat="39.8080436761978" lon="9.370013358112773"><ele>962.0</ele><time>2026-05-01T09:05:56Z</time></trkpt><trkpt lat="39.80819802988446" lon="9.369844866822868"><ele>962.0</ele><time>2026-05-01T09:05:57Z</time></trkpt><trkpt lat="39.80838810836728" lon="9.369756509533046"><ele>962.0</ele><time>2026-05-01T09:05:58Z</time></trkpt><trkpt lat="39.80857352307039" lon="9.369645421544938"><ele>962.0</ele><time>2026-05-01T09:05:59Z</time></trkpt><trkpt lat="39.808761129106536" lon="9.369518489683003"><ele>962.3333333333334</ele><time>2026-05-01T09:06:00Z</time></trkpt><trkpt lat="39.80894891071076" lon="9.369407428182521"><ele>962.6666666666667</ele><time>2026-05-01T09:06:01Z</time></trkpt><trkpt lat="39.809143409531224" lon="9.369335141637979"><ele>963.0</ele><time>2026-05-01T09:06:02Z</time></trkpt><trkpt lat="39.80934204972114" lon="9.369292002100938"><ele>963.0</ele><time>2026-05-01T09:06:03Z</time></trkpt><trkpt lat="39.80955118368394" lon="9.369255348693017"><ele>963.0</ele><time>2026-05-01T09:06:04Z</time></trkpt><trkpt lat="39.809763943175106" lon="9.369206602933676"><ele>963.0</ele><time>2026-05-01T09:06:05Z</time></trkpt><trkpt lat="39.809980991619696" lon="9.369173513959153"><ele>964.0</ele><time>2026-05-01T09:06:06Z</time></trkpt><trkpt lat="39.81019343642339" lon="9.369134666395052"><ele>965.0</ele><time>2026-05-01T09:06:07Z</time></trkpt><trkpt lat="39.810397134506445" lon="9.369098575405838"><ele>966.0</ele><time>2026-05-01T09:06:08Z</time></trkpt><trkpt lat="39.8105916337331" lon="9.369066490906384"><ele>966.0</ele><time>2026-05-01T09:06:09Z</time></trkpt><trkpt lat="39.81077319459633" lon="9.36904013055602"><ele>966.0</ele><time>2026-05-01T09:06:10Z</time></trkpt><trkpt lat="39.81093438544412" lon="9.369008738775287"><ele>966.0</ele><time>2026-05-01T09:06:11Z</time></trkpt><trkpt lat="39.81107580893832" lon="9.368960049749472"><ele>969.25</ele><time>2026-05-01T09:06:12Z</time></trkpt><trkpt lat="39.81119850019833" lon="9.368861090072715"><ele>972.5</ele><time>2026-05-01T09:06:13Z</time></trkpt><trkpt lat="39.81128283689565" lon="9.368709588721218"><ele>975.75</ele><time>2026-05-01T09:06:14Z</time></trkpt><trkpt lat="39.81131454352858" lon="9.368520048279686"><ele>979.0</ele><time>2026-05-01T09:06:15Z</time></trkpt><trkpt lat="39.81129189660682" lon="9.36833983769474"><ele>980.3333333333333</ele><time>2026-05-01T09:06:16Z</time></trkpt><trkpt lat="39.811203943929705" lon="9.36818070913889"><ele>981.6666666666667</ele><time>2026-05-01T09:06:17Z</time></trkpt><trkpt lat="39.81106808175127" lon="9.368054182442929"><ele>983.0</ele><time>2026-05-01T09:06:18Z</time></trkpt><trkpt lat="39.81091481789905" lon="9.367933013490493"><ele>978.6666666666667</ele><time>2026-05-01T09:06:19Z</time></trkpt><trkpt lat="39.81077291573823" lon="9.367800871704127"><ele>974.3333333333333</ele><time>2026-05-01T09:06:20Z</time></trkpt><trkpt lat="39.8106456657894" lon="9.367665984972339"><ele>970.0</ele><time>2026-05-01T09:06:21Z</time></trkpt><trkpt lat="39.81159855729925" lon="9.365357874495988"><ele>969.25</ele><time>2026-05-01T09:06:33.097Z</time></trkpt><trkpt lat="39.811693222178796" lon="9.365210858940003"><ele>968.5</ele><time>2026-05-01T09:06:33.717Z</time></trkpt><trkpt lat="39.81179448019683" lon="9.365074518804416"><ele>967.75</ele><time>2026-05-01T09:06:34.347Z</time></trkpt><trkpt lat="39.81190164650306" lon="9.364938540667023"><ele>967.0</ele><time>2026-05-01T09:06:34.977Z</time></trkpt><trkpt lat="39.81200472218319" lon="9.364805811626448"><ele>967.0</ele><time>2026-05-01T09:06:35.6Z</time></trkpt><trkpt lat="39.81209289280524" lon="9.364679960586892"><ele>967.0</ele><time>2026-05-01T09:06:36.2Z</time></trkpt><trkpt lat="39.81218216048265" lon="9.364542618482522"><ele>967.0</ele><time>2026-05-01T09:06:36.85Z</time></trkpt><trkpt lat="39.81228919494153" lon="9.36435059415271"><ele>967.0</ele><time>2026-05-01T09:06:37.75Z</time></trkpt><trkpt lat="39.81236852288769" lon="9.36414062051242"><ele>967.0</ele><time>2026-05-01T09:06:38.65Z</time></trkpt><trkpt lat="39.81242685766645" lon="9.363914085251388"><ele>967.0</ele><time>2026-05-01T09:06:39.55Z</time></trkpt><trkpt lat="39.81248631073945" lon="9.363665024294749"><ele>967.6666666666666</ele><time>2026-05-01T09:06:40.5Z</time></trkpt><trkpt lat="39.81256681546923" lon="9.363401877326126"><ele>968.3333333333333</ele><time>2026-05-01T09:06:41.5Z</time></trkpt><trkpt lat="39.81266235656039" lon="9.363141373687148"><ele>969.0</ele><time>2026-05-01T09:06:42.5Z</time></trkpt><trkpt lat="39.81270970965125" lon="9.363019129425657"><ele>972.6666666666667</ele><time>2026-05-01T09:06:43Z</time></trkpt><trkpt lat="39.812756630170135" lon="9.362901916966084"><ele>976.3333333333334</ele><time>2026-05-01T09:06:43.5Z</time></trkpt><trkpt lat="39.81284935252066" lon="9.362683367225095"><ele>980.0</ele><time>2026-05-01T09:06:44.5Z</time></trkpt><trkpt lat="39.81296170313602" lon="9.36248268035464"><ele>980.0</ele><time>2026-05-01T09:06:45.5Z</time></trkpt><trkpt lat="39.813017178544776" lon="9.362401873139397"><ele>980.0</ele><time>2026-05-01T09:06:46Z</time></trkpt><trkpt lat="39.81314136496417" lon="9.362296161229507"><ele>980.0</ele><time>2026-05-01T09:06:47Z</time></trkpt><trkpt lat="39.81327316217792" lon="9.362273017101636"><ele>980.0</ele><time>2026-05-01T09:06:48Z</time></trkpt><trkpt lat="39.81341212984929" lon="9.362284705083612"><ele>978.75</ele><time>2026-05-01T09:06:49Z</time></trkpt><trkpt lat="39.81357354435869" lon="9.36230646994395"><ele>977.5</ele><time>2026-05-01T09:06:50Z</time></trkpt><trkpt lat="39.8136625128564" lon="9.362312754120714"><ele>976.25</ele><time>2026-05-01T09:06:50.5Z</time></trkpt><trkpt lat="39.81383459413747" lon="9.362337734626694"><ele>975.0</ele><time>2026-05-01T09:06:51.5Z</time></trkpt><trkpt lat="39.813911606157234" lon="9.362365524412663"><ele>975.0</ele><time>2026-05-01T09:06:52Z</time></trkpt><trkpt lat="39.814047198745406" lon="9.362474748469035"><ele>975.0</ele><time>2026-05-01T09:06:53Z</time></trkpt><trkpt lat="39.8142016135124" lon="9.362596904457611"><ele>975.0</ele><time>2026-05-01T09:06:54Z</time></trkpt><trkpt lat="39.81428465181589" lon="9.362659830905539"><ele>975.0</ele><time>2026-05-01T09:06:54.5Z</time></trkpt><trkpt lat="39.814462632956726" lon="9.362767362869821"><ele>973.5</ele><time>2026-05-01T09:06:55.5Z</time></trkpt><trkpt lat="39.81454505046821" lon="9.362827195101065"><ele>972.0</ele><time>2026-05-01T09:06:56Z</time></trkpt><trkpt lat="39.81462487861999" lon="9.362888979347698"><ele>970.5</ele><time>2026-05-01T09:06:56.5Z</time></trkpt><trkpt lat="39.814754335794234" lon="9.363047131229425"><ele>969.0</ele><time>2026-05-01T09:06:57.45Z</time></trkpt><trkpt lat="39.81487867687626" lon="9.363215795664162"><ele>969.0</ele><time>2026-05-01T09:06:58.4Z</time></trkpt><trkpt lat="39.81499922803618" lon="9.36339794865822"><ele>969.0</ele><time>2026-05-01T09:06:59.35Z</time></trkpt><trkpt lat="39.81511777973234" lon="9.363568711849455"><ele>969.0</ele><time>2026-05-01T09:07:00.3Z</time></trkpt><trkpt lat="39.815252213244314" lon="9.363716037701513"><ele>969.0</ele><time>2026-05-01T09:07:01.25Z</time></trkpt><trkpt lat="39.815390430888996" lon="9.363843510979546"><ele>969.0</ele><time>2026-05-01T09:07:02.2Z</time></trkpt><trkpt lat="39.81555025562187" lon="9.363925007801127"><ele>969.0</ele><time>2026-05-01T09:07:03.15Z</time></trkpt><trkpt lat="39.81571894665237" lon="9.363981732407895"><ele>969.0</ele><time>2026-05-01T09:07:04.1Z</time></trkpt><trkpt lat="39.81587793026894" lon="9.364052366589636"><ele>969.0</ele><time>2026-05-01T09:07:05.05Z</time></trkpt><trkpt lat="39.8160364799289" lon="9.364118640480928"><ele>969.0</ele><time>2026-05-01T09:07:06Z</time></trkpt><trkpt lat="39.81619431821036" lon="9.364203333513696"><ele>965.6666666666667</ele><time>2026-05-01T09:07:07Z</time></trkpt><trkpt lat="39.816314205006876" lon="9.364345273797868"><ele>962.3333333333334</ele><time>2026-05-01T09:07:08Z</time></trkpt><trkpt lat="39.816403647591734" lon="9.36451500608214"><ele>959.0</ele><time>2026-05-01T09:07:09Z</time></trkpt><trkpt lat="39.81651305799094" lon="9.364714762176728"><ele>959.0</ele><time>2026-05-01T09:07:10Z</time></trkpt><trkpt lat="39.81664874109176" lon="9.364890027209354"><ele>959.0</ele><time>2026-05-01T09:07:11Z</time></trkpt><trkpt lat="39.81678687083535" lon="9.36506976070729"><ele>959.0</ele><time>2026-05-01T09:07:12Z</time></trkpt><trkpt lat="39.816910517002725" lon="9.36527184415248"><ele>953.6666666666667</ele><time>2026-05-01T09:07:13Z</time></trkpt><trkpt lat="39.81704016265601" lon="9.365464862472509"><ele>948.3333333333333</ele><time>2026-05-01T09:07:14Z</time></trkpt><trkpt lat="39.81717841052214" lon="9.365641250107586"><ele>943.0</ele><time>2026-05-01T09:07:15Z</time></trkpt><trkpt lat="39.81729424600169" lon="9.365837957695307"><ele>943.0</ele><time>2026-05-01T09:07:16Z</time></trkpt><trkpt lat="39.81740651000599" lon="9.366031891123045"><ele>943.0</ele><time>2026-05-01T09:07:17Z</time></trkpt><trkpt lat="39.817516104057205" lon="9.366223678703834"><ele>943.0</ele><time>2026-05-01T09:07:18Z</time></trkpt><trkpt lat="39.81762264806666" lon="9.366413076238311"><ele>939.0</ele><time>2026-05-01T09:07:19Z</time></trkpt><trkpt lat="39.817730743718066" lon="9.366594693263396"><ele>935.0</ele><time>2026-05-01T09:07:20Z</time></trkpt><trkpt lat="39.81786438537372" lon="9.366742979198978"><ele>931.0</ele><time>2026-05-01T09:07:21Z</time></trkpt><trkpt lat="39.81802108234003" lon="9.366869300091398"><ele>931.0</ele><time>2026-05-01T09:07:22Z</time></trkpt><trkpt lat="39.81818066490986" lon="9.36697887954948"><ele>931.0</ele><time>2026-05-01T09:07:23Z</time></trkpt><trkpt lat="39.818340174093" lon="9.367058099452935"><ele>931.0</ele><time>2026-05-01T09:07:24Z</time></trkpt><trkpt lat="39.818515136742626" lon="9.367077649546317"><ele>928.3333333333333</ele><time>2026-05-01T09:07:25Z</time></trkpt><trkpt lat="39.81868170887077" lon="9.367035007581393"><ele>925.6666666666667</ele><time>2026-05-01T09:07:26Z</time></trkpt><trkpt lat="39.8188497574156" lon="9.366947209420012"><ele>923.0</ele><time>2026-05-01T09:07:27Z</time></trkpt><trkpt lat="39.8190092740868" lon="9.366840985961806"><ele>923.0</ele><time>2026-05-01T09:07:28Z</time></trkpt><trkpt lat="39.81918542324155" lon="9.366760556496196"><ele>923.0</ele><time>2026-05-01T09:07:29Z</time></trkpt><trkpt lat="39.81937361880645" lon="9.36672392875672"><ele>923.0</ele><time>2026-05-01T09:07:30Z</time></trkpt><trkpt lat="39.81956567613857" lon="9.366715536113956"><ele>922.3333333333334</ele><time>2026-05-01T09:07:31Z</time></trkpt><trkpt lat="39.81975248253106" lon="9.366742162020751"><ele>921.6666666666667</ele><time>2026-05-01T09:07:32Z</time></trkpt><trkpt lat="39.81993472873714" lon="9.366780049694485"><ele>921.0</ele><time>2026-05-01T09:07:33Z</time></trkpt><trkpt lat="39.82011312070452" lon="9.366768493348788"><ele>918.0</ele><time>2026-05-01T09:07:34Z</time></trkpt><trkpt lat="39.82028835161401" lon="9.366709052405048"><ele>915.0</ele><time>2026-05-01T09:07:35Z</time></trkpt><trkpt lat="39.820457400565495" lon="9.366652891594525"><ele>912.0</ele><time>2026-05-01T09:07:36Z</time></trkpt><trkpt lat="39.82062196846714" lon="9.366632417204299"><ele>912.0</ele><time>2026-05-01T09:07:37Z</time></trkpt><trkpt lat="39.820778759225064" lon="9.366662300173545"><ele>912.0</ele><time>2026-05-01T09:07:38Z</time></trkpt><trkpt lat="39.82092094588653" lon="9.366749369041276"><ele>912.0</ele><time>2026-05-01T09:07:39Z</time></trkpt><trkpt lat="39.8210319999454" lon="9.366890938394258"><ele>910.0</ele><time>2026-05-01T09:07:40Z</time></trkpt><trkpt lat="39.82110680852189" lon="9.367068083407998"><ele>908.0</ele><time>2026-05-01T09:07:41Z</time></trkpt><trkpt lat="39.82114213998113" lon="9.367273889437062"><ele>906.0</ele><time>2026-05-01T09:07:42Z</time></trkpt><trkpt lat="39.821154302922" lon="9.36749348155193"><ele>906.0</ele><time>2026-05-01T09:07:43Z</time></trkpt><trkpt lat="39.82116070885817" lon="9.367721909084258"><ele>906.0</ele><time>2026-05-01T09:07:44Z</time></trkpt><trkpt lat="39.82115791005208" lon="9.367924067687449"><ele>906.0</ele><time>2026-05-01T09:07:45Z</time></trkpt><trkpt lat="39.82114826902986" lon="9.368137419495964"><ele>907.5999999999999</ele><time>2026-05-01T09:07:46Z</time></trkpt><trkpt lat="39.821150974543926" lon="9.36831360230733"><ele>909.1999999999999</ele><time>2026-05-01T09:07:47Z</time></trkpt><trkpt lat="39.82118546128637" lon="9.368449097655219"><ele>910.8000000000001</ele><time>2026-05-01T09:07:48Z</time></trkpt><trkpt lat="39.82126851501184" lon="9.368518579860817"><ele>912.4000000000001</ele><time>2026-05-01T09:07:49Z</time></trkpt><trkpt lat="39.8213691632039" lon="9.3685156258222"><ele>914.0</ele><time>2026-05-01T09:07:50Z</time></trkpt><trkpt lat="39.82146560254814" lon="9.368405785804093"><ele>914.0</ele><time>2026-05-01T09:07:51Z</time></trkpt><trkpt lat="39.82153176294982" lon="9.368251682434089"><ele>914.0</ele><time>2026-05-01T09:07:52Z</time></trkpt><trkpt lat="39.8216014238429" lon="9.368081208575767"><ele>914.0</ele><time>2026-05-01T09:07:53Z</time></trkpt><trkpt lat="39.82168915476283" lon="9.367903552611015"><ele>914.0</ele><time>2026-05-01T09:07:54Z</time></trkpt><trkpt lat="39.821774675802025" lon="9.367694560851376"><ele>918.0</ele><time>2026-05-01T09:07:55Z</time></trkpt><trkpt lat="39.821839611781044" lon="9.367452631045902"><ele>922.0</ele><time>2026-05-01T09:07:56Z</time></trkpt><trkpt lat="39.821882230815845" lon="9.367198710400316"><ele>926.0</ele><time>2026-05-01T09:07:57Z</time></trkpt><trkpt lat="39.821923667976534" lon="9.366935255025632"><ele>926.0</ele><time>2026-05-01T09:07:58Z</time></trkpt><trkpt lat="39.82197284941459" lon="9.36667971330024"><ele>926.0</ele><time>2026-05-01T09:07:59Z</time></trkpt><trkpt lat="39.82201033612587" lon="9.366429204168082"><ele>926.0</ele><time>2026-05-01T09:08:00Z</time></trkpt><trkpt lat="39.82202430963578" lon="9.366177707731666"><ele>925.0</ele><time>2026-05-01T09:08:01Z</time></trkpt><trkpt lat="39.82200493499149" lon="9.365915046197527"><ele>924.0</ele><time>2026-05-01T09:08:02Z</time></trkpt><trkpt lat="39.821968160048726" lon="9.36565838578227"><ele>923.0</ele><time>2026-05-01T09:08:03Z</time></trkpt><trkpt lat="39.82193115987564" lon="9.365419990151672"><ele>920.0</ele><time>2026-05-01T09:08:04Z</time></trkpt><trkpt lat="39.82190792863658" lon="9.365210457043004"><ele>917.0</ele><time>2026-05-01T09:08:05Z</time></trkpt><trkpt lat="39.821896332616376" lon="9.365029801884113"><ele>914.0</ele><time>2026-05-01T09:08:06Z</time></trkpt><trkpt lat="39.821914474646505" lon="9.364868237618246"><ele>911.0</ele><time>2026-05-01T09:08:07Z</time></trkpt><trkpt lat="39.82197936667281" lon="9.364727941393761"><ele>904.6666666666667</ele><time>2026-05-01T09:08:08Z</time></trkpt><trkpt lat="39.82211757733678" lon="9.364658213530442"><ele>898.3333333333333</ele><time>2026-05-01T09:08:09Z</time></trkpt><trkpt lat="39.822236922064576" lon="9.364520802820651"><ele>892.0</ele><time>2026-05-01T09:08:10Z</time></trkpt><trkpt lat="39.82237454136331" lon="9.364404332155218"><ele>892.0</ele><time>2026-05-01T09:08:11Z</time></trkpt><trkpt lat="39.82250798396995" lon="9.364278134319207"><ele>892.0</ele><time>2026-05-01T09:08:12Z</time></trkpt><trkpt lat="39.82265601675881" lon="9.364168769821575"><ele>892.0</ele><time>2026-05-01T09:08:13Z</time></trkpt><trkpt lat="39.82278710280747" lon="9.364040579674162"><ele>895.0</ele><time>2026-05-01T09:08:14Z</time></trkpt><trkpt lat="39.822921120528456" lon="9.363952323089636"><ele>898.0</ele><time>2026-05-01T09:08:15Z</time></trkpt><trkpt lat="39.82302194022242" lon="9.363878111295236"><ele>901.0</ele><time>2026-05-01T09:08:16Z</time></trkpt><trkpt lat="39.823080900634324" lon="9.363787787217037"><ele>904.0</ele><time>2026-05-01T09:08:17Z</time></trkpt><trkpt lat="39.823081958946425" lon="9.363666066193074"><ele>904.0</ele><time>2026-05-01T09:08:18Z</time></trkpt><trkpt lat="39.82301625464571" lon="9.363553904320735"><ele>904.0</ele><time>2026-05-01T09:08:19Z</time></trkpt><trkpt lat="39.82289837997062" lon="9.363477245395147"><ele>904.0</ele><time>2026-05-01T09:08:20Z</time></trkpt><trkpt lat="39.82275266287931" lon="9.363446998404548"><ele>904.0</ele><time>2026-05-01T09:08:21Z</time></trkpt><trkpt lat="39.822591906645854" lon="9.363436109403736"><ele>901.6666666666666</ele><time>2026-05-01T09:08:22Z</time></trkpt><trkpt lat="39.82242527004265" lon="9.36342214165318"><ele>899.3333333333333</ele><time>2026-05-01T09:08:23Z</time></trkpt><trkpt lat="39.82227058439229" lon="9.363407571779286"><ele>897.0</ele><time>2026-05-01T09:08:24Z</time></trkpt><trkpt lat="39.82213093116855" lon="9.363389019483076"><ele>897.0</ele><time>2026-05-01T09:08:25Z</time></trkpt><trkpt lat="39.82199367954954" lon="9.363327060115438"><ele>897.0</ele><time>2026-05-01T09:08:26Z</time></trkpt><trkpt lat="39.82184101316671" lon="9.363244076772041"><ele>897.0</ele><time>2026-05-01T09:08:27Z</time></trkpt><trkpt lat="39.82168403350371" lon="9.363148777808657"><ele>899.5</ele><time>2026-05-01T09:08:28Z</time></trkpt><trkpt lat="39.82153580837442" lon="9.363085618441756"><ele>902.0</ele><time>2026-05-01T09:08:29Z</time></trkpt><trkpt lat="39.82140042834304" lon="9.36301699743374"><ele>904.5</ele><time>2026-05-01T09:08:30Z</time></trkpt><trkpt lat="39.82132682336204" lon="9.362858061217361"><ele>907.0</ele><time>2026-05-01T09:08:31Z</time></trkpt><trkpt lat="39.82122868616205" lon="9.36268126044035"><ele>907.0</ele><time>2026-05-01T09:08:32Z</time></trkpt><trkpt lat="39.821145373424635" lon="9.362491531420131"><ele>907.0</ele><time>2026-05-01T09:08:33Z</time></trkpt><trkpt lat="39.82104647131363" lon="9.362326965103675"><ele>907.0</ele><time>2026-05-01T09:08:34Z</time></trkpt><trkpt lat="39.82098573930094" lon="9.362154647305191"><ele>909.3333333333333</ele><time>2026-05-01T09:08:35Z</time></trkpt><trkpt lat="39.820972022838454" lon="9.36197886674582"><ele>911.6666666666667</ele><time>2026-05-01T09:08:36Z</time></trkpt><trkpt lat="39.820984859311814" lon="9.361779263888707"><ele>914.0</ele><time>2026-05-01T09:08:37Z</time></trkpt><trkpt lat="39.82098845513731" lon="9.36156173309175"><ele>909.0</ele><time>2026-05-01T09:08:38Z</time></trkpt><trkpt lat="39.82105475122195" lon="9.361354870193008"><ele>904.0</ele><time>2026-05-01T09:08:39Z</time></trkpt><trkpt lat="39.82113009339695" lon="9.361150186910525"><ele>899.0</ele><time>2026-05-01T09:08:40Z</time></trkpt><trkpt lat="39.8212191518377" lon="9.360955502230503"><ele>899.0</ele><time>2026-05-01T09:08:41Z</time></trkpt><trkpt lat="39.82132577900202" lon="9.36078095539104"><ele>899.0</ele><time>2026-05-01T09:08:42Z</time></trkpt><trkpt lat="39.82145612006244" lon="9.360630567325467"><ele>899.0</ele><time>2026-05-01T09:08:43Z</time></trkpt><trkpt lat="39.821587494579425" lon="9.36047719354934"><ele>901.3333333333334</ele><time>2026-05-01T09:08:44Z</time></trkpt><trkpt lat="39.82172125758648" lon="9.360306574161108"><ele>903.6666666666667</ele><time>2026-05-01T09:08:45Z</time></trkpt><trkpt lat="39.821837843946795" lon="9.360113729313762"><ele>906.0</ele><time>2026-05-01T09:08:46Z</time></trkpt><trkpt lat="39.82194919732642" lon="9.359904698252066"><ele>900.3333333333333</ele><time>2026-05-01T09:08:47Z</time></trkpt><trkpt lat="39.822065093743795" lon="9.359700029727355"><ele>894.6666666666666</ele><time>2026-05-01T09:08:48Z</time></trkpt><trkpt lat="39.82218265986631" lon="9.359491956948116"><ele>889.0</ele><time>2026-05-01T09:08:49Z</time></trkpt><trkpt lat="39.82228664482452" lon="9.359269018982403"><ele>889.0</ele><time>2026-05-01T09:08:50Z</time></trkpt><trkpt lat="39.822378255104965" lon="9.35904222800388"><ele>889.0</ele><time>2026-05-01T09:08:51Z</time></trkpt><trkpt lat="39.82250135730706" lon="9.35884484342244"><ele>889.0</ele><time>2026-05-01T09:08:52Z</time></trkpt><trkpt lat="39.82260937722388" lon="9.35863974871224"><ele>889.0</ele><time>2026-05-01T09:08:53Z</time></trkpt><trkpt lat="39.82272015039896" lon="9.358442217089868"><ele>889.0</ele><time>2026-05-01T09:08:54Z</time></trkpt><trkpt lat="39.82283980212167" lon="9.358269319759103"><ele>889.0</ele><time>2026-05-01T09:08:55Z</time></trkpt><trkpt lat="39.82297022553916" lon="9.358138623213959"><ele>889.2</ele><time>2026-05-01T09:08:56Z</time></trkpt><trkpt lat="39.8230559789502" lon="9.358010861413446"><ele>889.4000000000001</ele><time>2026-05-01T09:08:57Z</time></trkpt><trkpt lat="39.82310739218737" lon="9.357909155387802"><ele>889.6</ele><time>2026-05-01T09:08:58Z</time></trkpt><trkpt lat="39.82309361321553" lon="9.357798603159175"><ele>889.8</ele><time>2026-05-01T09:08:59Z</time></trkpt><trkpt lat="39.82301856439842" lon="9.35772046541693"><ele>890.0</ele><time>2026-05-01T09:09:00Z</time></trkpt><trkpt lat="39.82290410945884" lon="9.357694574096296"><ele>890.0</ele><time>2026-05-01T09:09:01Z</time></trkpt><trkpt lat="39.82277595508786" lon="9.357701185700696"><ele>890.0</ele><time>2026-05-01T09:09:02Z</time></trkpt><trkpt lat="39.82263088656861" lon="9.357698299380685"><ele>890.0</ele><time>2026-05-01T09:09:03Z</time></trkpt><trkpt lat="39.822485709189976" lon="9.357685905860457"><ele>890.0</ele><time>2026-05-01T09:09:04Z</time></trkpt><trkpt lat="39.822331177770515" lon="9.357729514888062"><ele>887.3333333333334</ele><time>2026-05-01T09:09:05Z</time></trkpt><trkpt lat="39.82218320969143" lon="9.357811076891288"><ele>884.6666666666667</ele><time>2026-05-01T09:09:06Z</time></trkpt><trkpt lat="39.82203288436052" lon="9.357886064931328"><ele>882.0</ele><time>2026-05-01T09:09:07Z</time></trkpt><trkpt lat="39.82187122161793" lon="9.357928521090114"><ele>881.3333333333333</ele><time>2026-05-01T09:09:08Z</time></trkpt><trkpt lat="39.82171492271542" lon="9.357954430901964"><ele>880.6666666666666</ele><time>2026-05-01T09:09:09Z</time></trkpt><trkpt lat="39.82156605109871" lon="9.357967306034302"><ele>880.0</ele><time>2026-05-01T09:09:10Z</time></trkpt><trkpt lat="39.82142480209958" lon="9.357926175615416"><ele>880.0</ele><time>2026-05-01T09:09:11Z</time></trkpt><trkpt lat="39.821275582279796" lon="9.35788627628519"><ele>880.0</ele><time>2026-05-01T09:09:12Z</time></trkpt><trkpt lat="39.82112539802145" lon="9.357820881117553"><ele>880.0</ele><time>2026-05-01T09:09:13Z</time></trkpt><trkpt lat="39.8209697809791" lon="9.357799323585304"><ele>877.75</ele><time>2026-05-01T09:09:14Z</time></trkpt><trkpt lat="39.82081704954678" lon="9.357815527970908"><ele>875.5</ele><time>2026-05-01T09:09:15Z</time></trkpt><trkpt lat="39.82067727071291" lon="9.35783550331731"><ele>873.25</ele><time>2026-05-01T09:09:16Z</time></trkpt><trkpt lat="39.820561927178346" lon="9.35782823640568"><ele>871.0</ele><time>2026-05-01T09:09:17Z</time></trkpt><trkpt lat="39.82047268645439" lon="9.357787521641008"><ele>871.0</ele><time>2026-05-01T09:09:18Z</time></trkpt><trkpt lat="39.82041681652738" lon="9.357692564846827"><ele>871.0</ele><time>2026-05-01T09:09:19Z</time></trkpt><trkpt lat="39.82044232629453" lon="9.357541031478233"><ele>871.0</ele><time>2026-05-01T09:09:20Z</time></trkpt><trkpt lat="39.82046158593328" lon="9.357358594656667"><ele>871.0</ele><time>2026-05-01T09:09:21Z</time></trkpt><trkpt lat="39.82045932607128" lon="9.357193531986292"><ele>867.25</ele><time>2026-05-01T09:09:22Z</time></trkpt><trkpt lat="39.820480442159685" lon="9.3570116660831"><ele>863.5</ele><time>2026-05-01T09:09:23Z</time></trkpt><trkpt lat="39.8205344684951" lon="9.356865971032187"><ele>859.75</ele><time>2026-05-01T09:09:24Z</time></trkpt><trkpt lat="39.82063557631406" lon="9.35678345847972"><ele>856.0</ele><time>2026-05-01T09:09:25Z</time></trkpt><trkpt lat="39.82078018767041" lon="9.356779622573557"><ele>856.0</ele><time>2026-05-01T09:09:26Z</time></trkpt><trkpt lat="39.8209360308738" lon="9.356764161388949"><ele>856.0</ele><time>2026-05-01T09:09:27Z</time></trkpt><trkpt lat="39.82109922414713" lon="9.356755715444452"><ele>856.0</ele><time>2026-05-01T09:09:28Z</time></trkpt><trkpt lat="39.82127609062599" lon="9.356696594412865"><ele>859.0</ele><time>2026-05-01T09:09:29Z</time></trkpt><trkpt lat="39.821461994859284" lon="9.3565945144592"><ele>862.0</ele><time>2026-05-01T09:09:30Z</time></trkpt><trkpt lat="39.82164173075374" lon="9.35649293700424"><ele>865.0</ele><time>2026-05-01T09:09:31Z</time></trkpt><trkpt lat="39.82181646132864" lon="9.356407085698933"><ele>860.3333333333333</ele><time>2026-05-01T09:09:32Z</time></trkpt><trkpt lat="39.821952539216575" lon="9.356248250842933"><ele>855.6666666666667</ele><time>2026-05-01T09:09:33Z</time></trkpt><trkpt lat="39.82207128832752" lon="9.356076303164476"><ele>851.0</ele><time>2026-05-01T09:09:34Z</time></trkpt><trkpt lat="39.82218852351811" lon="9.355920885167444"><ele>851.0</ele><time>2026-05-01T09:09:35Z</time></trkpt><trkpt lat="39.82233881149701" lon="9.355805749231145"><ele>851.0</ele><time>2026-05-01T09:09:36Z</time></trkpt><trkpt lat="39.822512143715706" lon="9.355731008480417"><ele>851.0</ele><time>2026-05-01T09:09:37Z</time></trkpt><trkpt lat="39.822693581083904" lon="9.355685502983718"><ele>849.6666666666667</ele><time>2026-05-01T09:09:38Z</time></trkpt><trkpt lat="39.82286576853464" lon="9.35562767178189"><ele>848.3333333333333</ele><time>2026-05-01T09:09:39Z</time></trkpt><trkpt lat="39.82301726318799" lon="9.355523626933918"><ele>847.0</ele><time>2026-05-01T09:09:40Z</time></trkpt><trkpt lat="39.823145843770895" lon="9.355365143421176"><ele>847.0</ele><time>2026-05-01T09:09:41Z</time></trkpt><trkpt lat="39.82325730641446" lon="9.355168836364301"><ele>847.0</ele><time>2026-05-01T09:09:42Z</time></trkpt><trkpt lat="39.82336064335475" lon="9.354964665505703"><ele>847.0</ele><time>2026-05-01T09:09:43Z</time></trkpt><trkpt lat="39.82344969969073" lon="9.354744845702259"><ele>853.3333333333333</ele><time>2026-05-01T09:09:44Z</time></trkpt><trkpt lat="39.82351451714725" lon="9.35450708695569"><ele>859.6666666666667</ele><time>2026-05-01T09:09:45Z</time></trkpt><trkpt lat="39.823575733766056" lon="9.354260783585865"><ele>866.0</ele><time>2026-05-01T09:09:46Z</time></trkpt><trkpt lat="39.823641691154236" lon="9.35401360535437"><ele>860.0</ele><time>2026-05-01T09:09:47Z</time></trkpt><trkpt lat="39.823712867370176" lon="9.353770775621586"><ele>854.0</ele><time>2026-05-01T09:09:48Z</time></trkpt><trkpt lat="39.82378732921644" lon="9.353537364237216"><ele>848.0</ele><time>2026-05-01T09:09:49Z</time></trkpt><trkpt lat="39.82386230163296" lon="9.353324653636108"><ele>848.0</ele><time>2026-05-01T09:09:50Z</time></trkpt><trkpt lat="39.82393832358978" lon="9.353128145171075"><ele>848.0</ele><time>2026-05-01T09:09:51Z</time></trkpt><trkpt lat="39.82403260992106" lon="9.352953144594881"><ele>848.0</ele><time>2026-05-01T09:09:52Z</time></trkpt><trkpt lat="39.82415666025123" lon="9.352810032953577"><ele>846.3333333333334</ele><time>2026-05-01T09:09:53Z</time></trkpt><trkpt lat="39.824294326490374" lon="9.352676400032882"><ele>844.6666666666667</ele><time>2026-05-01T09:09:54Z</time></trkpt><trkpt lat="39.82443652730866" lon="9.352540962137454"><ele>843.0</ele><time>2026-05-01T09:09:55Z</time></trkpt><trkpt lat="39.824589541711354" lon="9.352418458110131"><ele>843.0</ele><time>2026-05-01T09:09:56Z</time></trkpt><trkpt lat="39.82471016425972" lon="9.352239275787639"><ele>843.0</ele><time>2026-05-01T09:09:57Z</time></trkpt><trkpt lat="39.82484691657507" lon="9.352097066961667"><ele>843.0</ele><time>2026-05-01T09:09:58Z</time></trkpt><trkpt lat="39.825002098854384" lon="9.351985476868881"><ele>840.0</ele><time>2026-05-01T09:09:59Z</time></trkpt><trkpt lat="39.82516540319955" lon="9.351885533929936"><ele>837.0</ele><time>2026-05-01T09:10:00Z</time></trkpt><trkpt lat="39.82532600147175" lon="9.351787275770782"><ele>834.0</ele><time>2026-05-01T09:10:01Z</time></trkpt><trkpt lat="39.82547317539303" lon="9.351664365568721"><ele>834.0</ele><time>2026-05-01T09:10:02Z</time></trkpt><trkpt lat="39.82559733459198" lon="9.351508648944858"><ele>834.0</ele><time>2026-05-01T09:10:03Z</time></trkpt><trkpt lat="39.82570469472704" lon="9.351344722576357"><ele>834.0</ele><time>2026-05-01T09:10:04Z</time></trkpt><trkpt lat="39.82580630949387" lon="9.351183673348698"><ele>837.25</ele><time>2026-05-01T09:10:05Z</time></trkpt><trkpt lat="39.82591394935628" lon="9.351047926915543"><ele>840.5</ele><time>2026-05-01T09:10:06Z</time></trkpt><trkpt lat="39.8260239829122" lon="9.350955712455969"><ele>843.75</ele><time>2026-05-01T09:10:07Z</time></trkpt><trkpt lat="39.826109945767726" lon="9.35087431593843"><ele>847.0</ele><time>2026-05-01T09:10:08Z</time></trkpt><trkpt lat="39.826162605992074" lon="9.350776686281264"><ele>847.0</ele><time>2026-05-01T09:10:09Z</time></trkpt><trkpt lat="39.82611080647907" lon="9.350629102558372"><ele>847.0</ele><time>2026-05-01T09:10:10Z</time></trkpt><trkpt lat="39.82604817907406" lon="9.350476991180816"><ele>847.0</ele><time>2026-05-01T09:10:11Z</time></trkpt><trkpt lat="39.82600184832289" lon="9.350313215944714"><ele>847.0</ele><time>2026-05-01T09:10:12Z</time></trkpt><trkpt lat="39.82596392539019" lon="9.350125354133667"><ele>841.0</ele><time>2026-05-01T09:10:13Z</time></trkpt><trkpt lat="39.82591749734341" lon="9.349937932342105"><ele>835.0</ele><time>2026-05-01T09:10:14Z</time></trkpt><trkpt lat="39.8258514926017" lon="9.349744533314905"><ele>829.0</ele><time>2026-05-01T09:10:15Z</time></trkpt><trkpt lat="39.82576415289721" lon="9.349555452491687"><ele>829.0</ele><time>2026-05-01T09:10:16Z</time></trkpt><trkpt lat="39.825668126625835" lon="9.349372512693241"><ele>829.0</ele><time>2026-05-01T09:10:17Z</time></trkpt><trkpt lat="39.825555637354235" lon="9.349205723347653"><ele>829.0</ele><time>2026-05-01T09:10:18Z</time></trkpt><trkpt lat="39.82541667992556" lon="9.349069149076978"><ele>829.0</ele><time>2026-05-01T09:10:19Z</time></trkpt><trkpt lat="39.82526603916837" lon="9.348955390451616"><ele>829.0</ele><time>2026-05-01T09:10:20Z</time></trkpt><trkpt lat="39.825119477488194" lon="9.348847709388156"><ele>829.0</ele><time>2026-05-01T09:10:21Z</time></trkpt><trkpt lat="39.824981508562836" lon="9.34872759915853"><ele>827.3333333333333</ele><time>2026-05-01T09:10:22Z</time></trkpt><trkpt lat="39.82484689465569" lon="9.348608515670543"><ele>825.6666666666667</ele><time>2026-05-01T09:10:23Z</time></trkpt><trkpt lat="39.82470534535143" lon="9.348522547766"><ele>824.0</ele><time>2026-05-01T09:10:24Z</time></trkpt><trkpt lat="39.8245501678086" lon="9.348481833265055"><ele>824.0</ele><time>2026-05-01T09:10:25Z</time></trkpt><trkpt lat="39.82438988419863" lon="9.348470707651165"><ele>824.0</ele><time>2026-05-01T09:10:26Z</time></trkpt><trkpt lat="39.82423054070188" lon="9.34845243998497"><ele>824.0</ele><time>2026-05-01T09:10:27Z</time></trkpt><trkpt lat="39.82407943511268" lon="9.34842141316777"><ele>819.25</ele><time>2026-05-01T09:10:28Z</time></trkpt><trkpt lat="39.82393806160448" lon="9.348406415995605"><ele>814.5</ele><time>2026-05-01T09:10:29Z</time></trkpt><trkpt lat="39.823820067143785" lon="9.348381524634343"><ele>809.75</ele><time>2026-05-01T09:10:30Z</time></trkpt><trkpt lat="39.82373327745166" lon="9.348310089639131"><ele>805.0</ele><time>2026-05-01T09:10:31Z</time></trkpt><trkpt lat="39.82369390515456" lon="9.348190922989538"><ele>805.0</ele><time>2026-05-01T09:10:32Z</time></trkpt><trkpt lat="39.82371158787476" lon="9.348038318056984"><ele>805.0</ele><time>2026-05-01T09:10:33Z</time></trkpt><trkpt lat="39.82376067236491" lon="9.347871093899084"><ele>805.0</ele><time>2026-05-01T09:10:34Z</time></trkpt><trkpt lat="39.82382645546859" lon="9.347699056261993"><ele>805.0</ele><time>2026-05-01T09:10:35Z</time></trkpt><trkpt lat="39.823898536243426" lon="9.347524132361203"><ele>805.0</ele><time>2026-05-01T09:10:36Z</time></trkpt><trkpt lat="39.82397981912827" lon="9.347356593121324"><ele>805.0</ele><time>2026-05-01T09:10:37Z</time></trkpt><trkpt lat="39.82406328455384" lon="9.34719346333484"><ele>805.0</ele><time>2026-05-01T09:10:38Z</time></trkpt><trkpt lat="39.82414134777863" lon="9.347025883839613"><ele>805.5</ele><time>2026-05-01T09:10:39Z</time></trkpt><trkpt lat="39.824217968764934" lon="9.346865027152985"><ele>806.0</ele><time>2026-05-01T09:10:40Z</time></trkpt><trkpt lat="39.824278883100895" lon="9.346696618118338"><ele>806.5</ele><time>2026-05-01T09:10:41Z</time></trkpt><trkpt lat="39.824319563393225" lon="9.346518014152501"><ele>807.0</ele><time>2026-05-01T09:10:42Z</time></trkpt><trkpt lat="39.82434929801012" lon="9.346338752445568"><ele>807.0</ele><time>2026-05-01T09:10:43Z</time></trkpt><trkpt lat="39.824376590525965" lon="9.34615423936976"><ele>807.0</ele><time>2026-05-01T09:10:44Z</time></trkpt><trkpt lat="39.82440756164443" lon="9.345970141455085"><ele>807.0</ele><time>2026-05-01T09:10:45Z</time></trkpt><trkpt lat="39.82444809511373" lon="9.345789419549"><ele>807.0</ele><time>2026-05-01T09:10:46Z</time></trkpt><trkpt lat="39.82450575157676" lon="9.345616554632567"><ele>800.0</ele><time>2026-05-01T09:10:47Z</time></trkpt><trkpt lat="39.82458363574833" lon="9.345452450869436"><ele>793.0</ele><time>2026-05-01T09:10:48Z</time></trkpt><trkpt lat="39.824676333627046" lon="9.345291506924868"><ele>786.0</ele><time>2026-05-01T09:10:49Z</time></trkpt><trkpt lat="39.82478485908301" lon="9.345141620724897"><ele>786.0</ele><time>2026-05-01T09:10:50Z</time></trkpt><trkpt lat="39.82491302986033" lon="9.345022791317188"><ele>786.0</ele><time>2026-05-01T09:10:51Z</time></trkpt><trkpt lat="39.82505644411801" lon="9.344931478970757"><ele>786.0</ele><time>2026-05-01T09:10:52Z</time></trkpt><trkpt lat="39.82520132355821" lon="9.344862876845157"><ele>787.6666666666667</ele><time>2026-05-01T09:10:53Z</time></trkpt><trkpt lat="39.8253337636288" lon="9.34477660590854"><ele>789.3333333333334</ele><time>2026-05-01T09:10:54Z</time></trkpt><trkpt lat="39.82544181098221" lon="9.34463996067078"><ele>791.0</ele><time>2026-05-01T09:10:55Z</time></trkpt><trkpt lat="39.82551595730537" lon="9.344456424864"><ele>791.0</ele><time>2026-05-01T09:10:56Z</time></trkpt><trkpt lat="39.825554196753444" lon="9.344242360401626"><ele>791.0</ele><time>2026-05-01T09:10:57Z</time></trkpt><trkpt lat="39.82558716338031" lon="9.344027075589345"><ele>791.0</ele><time>2026-05-01T09:10:58Z</time></trkpt><trkpt lat="39.825632539017846" lon="9.343807240345006"><ele>786.6666666666667</ele><time>2026-05-01T09:10:59Z</time></trkpt><trkpt lat="39.825692592056576" lon="9.343584701999548"><ele>782.3333333333333</ele><time>2026-05-01T09:11:00Z</time></trkpt><trkpt lat="39.82575807589135" lon="9.343357842399412"><ele>778.0</ele><time>2026-05-01T09:11:01Z</time></trkpt><trkpt lat="39.825822396974196" lon="9.343126341419136"><ele>774.3333333333333</ele><time>2026-05-01T09:11:02Z</time></trkpt><trkpt lat="39.825876733737196" lon="9.342893295703895"><ele>770.6666666666666</ele><time>2026-05-01T09:11:03Z</time></trkpt><trkpt lat="39.82591240752812" lon="9.342658066509214"><ele>767.0</ele><time>2026-05-01T09:11:04Z</time></trkpt><trkpt lat="39.825931260716956" lon="9.342411655018697"><ele>764.6666666666666</ele><time>2026-05-01T09:11:05Z</time></trkpt><trkpt lat="39.8259484707942" lon="9.342158964227368"><ele>762.3333333333334</ele><time>2026-05-01T09:11:06Z</time></trkpt><trkpt lat="39.82596355717465" lon="9.3419017879286"><ele>760.0</ele><time>2026-05-01T09:11:07Z</time></trkpt><trkpt lat="39.8259620011526" lon="9.341642142155406"><ele>760.0</ele><time>2026-05-01T09:11:08Z</time></trkpt><trkpt lat="39.82594228446344" lon="9.341371332950803"><ele>760.0</ele><time>2026-05-01T09:11:09Z</time></trkpt><trkpt lat="39.82591355550282" lon="9.341093215245724"><ele>760.0</ele><time>2026-05-01T09:11:10Z</time></trkpt><trkpt lat="39.82588195498048" lon="9.340808989715603"><ele>758.6666666666667</ele><time>2026-05-01T09:11:11Z</time></trkpt><trkpt lat="39.825854334684315" lon="9.340526036910845"><ele>757.3333333333334</ele><time>2026-05-01T09:11:12Z</time></trkpt><trkpt lat="39.82583999732665" lon="9.34023833203454"><ele>756.0</ele><time>2026-05-01T09:11:13Z</time></trkpt><trkpt lat="39.82583782776076" lon="9.339962557201098"><ele>755.6666666666666</ele><time>2026-05-01T09:11:14Z</time></trkpt><trkpt lat="39.82582677015726" lon="9.339693546438092"><ele>755.3333333333333</ele><time>2026-05-01T09:11:15Z</time></trkpt><trkpt lat="39.82580582143566" lon="9.339428719086056"><ele>755.0</ele><time>2026-05-01T09:11:16Z</time></trkpt><trkpt lat="39.82579174112231" lon="9.339165064032809"><ele>755.0</ele><time>2026-05-01T09:11:17Z</time></trkpt><trkpt lat="39.82578200981424" lon="9.338902703160754"><ele>755.0</ele><time>2026-05-01T09:11:18Z</time></trkpt><trkpt lat="39.82576287838047" lon="9.338646408735826"><ele>755.0</ele><time>2026-05-01T09:11:19Z</time></trkpt><trkpt lat="39.82572381938877" lon="9.338396417092323"><ele>755.0</ele><time>2026-05-01T09:11:20Z</time></trkpt><trkpt lat="39.825679222294106" lon="9.338153925328637"><ele>755.0</ele><time>2026-05-01T09:11:21Z</time></trkpt><trkpt lat="39.82563865854319" lon="9.337923676182742"><ele>755.0</ele><time>2026-05-01T09:11:22Z</time></trkpt><trkpt lat="39.825595807248284" lon="9.337707082043869"><ele>753.25</ele><time>2026-05-01T09:11:23Z</time></trkpt><trkpt lat="39.82553319960791" lon="9.337521725993836"><ele>751.5</ele><time>2026-05-01T09:11:24Z</time></trkpt><trkpt lat="39.825450673909614" lon="9.337375779370781"><ele>749.75</ele><time>2026-05-01T09:11:25Z</time></trkpt><trkpt lat="39.825384057329195" lon="9.337240456272863"><ele>748.0</ele><time>2026-05-01T09:11:26Z</time></trkpt><trkpt lat="39.82534179585909" lon="9.337109507730325"><ele>746.0</ele><time>2026-05-01T09:11:27Z</time></trkpt><trkpt lat="39.825336634995814" lon="9.33697964987403"><ele>744.0</ele><time>2026-05-01T09:11:28Z</time></trkpt><trkpt lat="39.82538137788912" lon="9.33688164685475"><ele>742.0</ele><time>2026-05-01T09:11:29Z</time></trkpt><trkpt lat="39.825473998902076" lon="9.336850130113195"><ele>740.0</ele><time>2026-05-01T09:11:30Z</time></trkpt><trkpt lat="39.82559577074258" lon="9.336886914001703"><ele>738.0</ele><time>2026-05-01T09:11:31Z</time></trkpt><trkpt lat="39.82573275048429" lon="9.336954237004495"><ele>738.0</ele><time>2026-05-01T09:11:32Z</time></trkpt><trkpt lat="39.825879497719136" lon="9.337025775028158"><ele>738.0</ele><time>2026-05-01T09:11:33Z</time></trkpt><trkpt lat="39.82603356092172" lon="9.337120753033703"><ele>738.0</ele><time>2026-05-01T09:11:34Z</time></trkpt><trkpt lat="39.82620931051839" lon="9.337183798777637"><ele>736.0</ele><time>2026-05-01T09:11:35Z</time></trkpt><trkpt lat="39.82638030939389" lon="9.337282865150392"><ele>734.0</ele><time>2026-05-01T09:11:36Z</time></trkpt><trkpt lat="39.826542815177504" lon="9.337409748386655"><ele>732.0</ele><time>2026-05-01T09:11:37Z</time></trkpt><trkpt lat="39.8266929739101" lon="9.337574355878802"><ele>724.0</ele><time>2026-05-01T09:11:38Z</time></trkpt><trkpt lat="39.826819864733345" lon="9.337760716790427"><ele>716.0</ele><time>2026-05-01T09:11:39Z</time></trkpt><trkpt lat="39.82695875998278" lon="9.337869301163423"><ele>708.0</ele><time>2026-05-01T09:11:40Z</time></trkpt><trkpt lat="39.82706946204403" lon="9.33798650064154"><ele>709.5</ele><time>2026-05-01T09:11:41Z</time></trkpt><trkpt lat="39.82712517819968" lon="9.338159285362064"><ele>711.0</ele><time>2026-05-01T09:11:42Z</time></trkpt><trkpt lat="39.82712756654901" lon="9.338343718184587"><ele>712.5</ele><time>2026-05-01T09:11:43Z</time></trkpt><trkpt lat="39.82712587843789" lon="9.33855210291057"><ele>714.0</ele><time>2026-05-01T09:11:44Z</time></trkpt><trkpt lat="39.827134480481774" lon="9.338776460203835"><ele>715.0</ele><time>2026-05-01T09:11:45Z</time></trkpt><trkpt lat="39.82713157147293" lon="9.338991825763"><ele>716.0</ele><time>2026-05-01T09:11:46Z</time></trkpt><trkpt lat="39.82713075207526" lon="9.339200626029456"><ele>717.0</ele><time>2026-05-01T09:11:47Z</time></trkpt><trkpt lat="39.82715918699018" lon="9.339400267904875"><ele>717.0</ele><time>2026-05-01T09:11:48Z</time></trkpt><trkpt lat="39.82723041349935" lon="9.339580737886841"><ele>717.0</ele><time>2026-05-01T09:11:49Z</time></trkpt><trkpt lat="39.82734034042974" lon="9.3397437711607"><ele>717.0</ele><time>2026-05-01T09:11:50Z</time></trkpt><trkpt lat="39.82747579498339" lon="9.339884305502217"><ele>720.3333333333334</ele><time>2026-05-01T09:11:51Z</time></trkpt><trkpt lat="39.827607293567326" lon="9.340030749050516"><ele>723.6666666666667</ele><time>2026-05-01T09:11:52Z</time></trkpt><trkpt lat="39.82770185272885" lon="9.340212456209581"><ele>727.0</ele><time>2026-05-01T09:11:53Z</time></trkpt><trkpt lat="39.827770320830886" lon="9.340396160507277"><ele>726.5</ele><time>2026-05-01T09:11:54Z</time></trkpt><trkpt lat="39.827854468487" lon="9.340533492656592"><ele>726.0</ele><time>2026-05-01T09:11:55Z</time></trkpt><trkpt lat="39.827968505866295" lon="9.340622654351147"><ele>725.5</ele><time>2026-05-01T09:11:56Z</time></trkpt><trkpt lat="39.82809845695651" lon="9.340642916952305"><ele>725.0</ele><time>2026-05-01T09:11:57Z</time></trkpt><trkpt lat="39.82823793531538" lon="9.340595816549778"><ele>722.3333333333333</ele><time>2026-05-01T09:11:58Z</time></trkpt><trkpt lat="39.82839456148323" lon="9.340528066372343"><ele>719.6666666666666</ele><time>2026-05-01T09:11:59Z</time></trkpt><trkpt lat="39.82853316728894" lon="9.340520497341124"><ele>717.0</ele><time>2026-05-01T09:12:00Z</time></trkpt><trkpt lat="39.828659160228945" lon="9.340638329354395"><ele>717.0</ele><time>2026-05-01T09:12:01Z</time></trkpt><trkpt lat="39.828804863838414" lon="9.340700844976821"><ele>717.0</ele><time>2026-05-01T09:12:02Z</time></trkpt><trkpt lat="39.828965627513774" lon="9.340705230005877"><ele>717.0</ele><time>2026-05-01T09:12:03Z</time></trkpt><trkpt lat="39.829140120699286" lon="9.340645855920581"><ele>713.6666666666666</ele><time>2026-05-01T09:12:04Z</time></trkpt><trkpt lat="39.8293132503009" lon="9.340574286466863"><ele>710.3333333333333</ele><time>2026-05-01T09:12:05Z</time></trkpt><trkpt lat="39.82948476392166" lon="9.340575686125177"><ele>707.0</ele><time>2026-05-01T09:12:06Z</time></trkpt><trkpt lat="39.82963278362653" lon="9.340515478591797"><ele>707.0</ele><time>2026-05-01T09:12:07Z</time></trkpt><trkpt lat="39.82976998798535" lon="9.340513471110846"><ele>707.0</ele><time>2026-05-01T09:12:08Z</time></trkpt><trkpt lat="39.829892428949535" lon="9.340522373771275"><ele>707.0</ele><time>2026-05-01T09:12:09Z</time></trkpt><trkpt lat="39.82998686978608" lon="9.340637503165684"><ele>707.0</ele><time>2026-05-01T09:12:10Z</time></trkpt><trkpt lat="39.83001738676604" lon="9.340831064119424"><ele>707.0</ele><time>2026-05-01T09:12:11Z</time></trkpt><trkpt lat="39.830078065045704" lon="9.341019410335946"><ele>707.0</ele><time>2026-05-01T09:12:12Z</time></trkpt><trkpt lat="39.830211177651336" lon="9.341143156822813"><ele>707.0</ele><time>2026-05-01T09:12:13Z</time></trkpt><trkpt lat="39.830381669247764" lon="9.341238978440218"><ele>705.6666666666666</ele><time>2026-05-01T09:12:14Z</time></trkpt><trkpt lat="39.83052802370881" lon="9.341375921759381"><ele>704.3333333333334</ele><time>2026-05-01T09:12:15Z</time></trkpt><trkpt lat="39.83068826993004" lon="9.341463062372824"><ele>703.0</ele><time>2026-05-01T09:12:16Z</time></trkpt><trkpt lat="39.83084827354619" lon="9.341549742658781"><ele>695.3333333333334</ele><time>2026-05-01T09:12:17Z</time></trkpt><trkpt lat="39.83100543517603" lon="9.341683380323987"><ele>687.6666666666666</ele><time>2026-05-01T09:12:18Z</time></trkpt><trkpt lat="39.83116563159244" lon="9.341843130472558"><ele>680.0</ele><time>2026-05-01T09:12:19Z</time></trkpt><trkpt lat="39.83128300755045" lon="9.34204229208726"><ele>686.3333333333333</ele><time>2026-05-01T09:12:20Z</time></trkpt><trkpt lat="39.831409961875515" lon="9.3422319031698"><ele>692.6666666666666</ele><time>2026-05-01T09:12:21Z</time></trkpt><trkpt lat="39.83156100572008" lon="9.342355457337982"><ele>699.0</ele><time>2026-05-01T09:12:22Z</time></trkpt><trkpt lat="39.83169873043372" lon="9.34249572580961"><ele>692.3333333333334</ele><time>2026-05-01T09:12:23Z</time></trkpt><trkpt lat="39.831867383890234" lon="9.34260686296963"><ele>685.6666666666667</ele><time>2026-05-01T09:12:24Z</time></trkpt><trkpt lat="39.83205373508764" lon="9.342680557580938"><ele>679.0</ele><time>2026-05-01T09:12:25Z</time></trkpt><trkpt lat="39.832251221404434" lon="9.342751818190232"><ele>679.0</ele><time>2026-05-01T09:12:26Z</time></trkpt><trkpt lat="39.832428345024915" lon="9.342857002390693"><ele>679.0</ele><time>2026-05-01T09:12:27Z</time></trkpt><trkpt lat="39.83260285014883" lon="9.342983971154576"><ele>679.0</ele><time>2026-05-01T09:12:28Z</time></trkpt><trkpt lat="39.832774179072025" lon="9.343124629605114"><ele>680.0</ele><time>2026-05-01T09:12:29Z</time></trkpt><trkpt lat="39.8329421347494" lon="9.343248704043107"><ele>681.0</ele><time>2026-05-01T09:12:30Z</time></trkpt><trkpt lat="39.83306238897715" lon="9.343442927376431"><ele>682.0</ele><time>2026-05-01T09:12:31Z</time></trkpt><trkpt lat="39.83324244994715" lon="9.343507261650398"><ele>682.0</ele><time>2026-05-01T09:12:32Z</time></trkpt><trkpt lat="39.833399321768944" lon="9.343585475752096"><ele>682.0</ele><time>2026-05-01T09:12:33Z</time></trkpt><trkpt lat="39.83350789482561" lon="9.34372612730575"><ele>682.0</ele><time>2026-05-01T09:12:34Z</time></trkpt><trkpt lat="39.83361301461934" lon="9.343829757060087"><ele>682.2</ele><time>2026-05-01T09:12:35Z</time></trkpt><trkpt lat="39.833697360053584" lon="9.343930765998236"><ele>682.4000000000001</ele><time>2026-05-01T09:12:36Z</time></trkpt><trkpt lat="39.833788190497586" lon="9.343972205108182"><ele>682.5999999999999</ele><time>2026-05-01T09:12:37Z</time></trkpt><trkpt lat="39.83387161197603" lon="9.34396160592099"><ele>682.8</ele><time>2026-05-01T09:12:38Z</time></trkpt><trkpt lat="39.83392868959464" lon="9.343841625970425"><ele>683.0</ele><time>2026-05-01T09:12:39Z</time></trkpt><trkpt lat="39.833984296863136" lon="9.343721116578353"><ele>687.75</ele><time>2026-05-01T09:12:40Z</time></trkpt><trkpt lat="39.83400882398049" lon="9.343603381853143"><ele>692.5</ele><time>2026-05-01T09:12:41Z</time></trkpt><trkpt lat="39.833968869720614" lon="9.34347772404032"><ele>697.25</ele><time>2026-05-01T09:12:42Z</time></trkpt><trkpt lat="39.83388126492506" lon="9.343349896125469"><ele>702.0</ele><time>2026-05-01T09:12:43Z</time></trkpt><trkpt lat="39.83377990184599" lon="9.343224238492589"><ele>702.0</ele><time>2026-05-01T09:12:44Z</time></trkpt><trkpt lat="39.833665988836614" lon="9.343077465338528"><ele>702.0</ele><time>2026-05-01T09:12:45Z</time></trkpt><trkpt lat="39.833539505633766" lon="9.342920095964947"><ele>702.0</ele><time>2026-05-01T09:12:46Z</time></trkpt><trkpt lat="39.83343169016672" lon="9.342754791473302"><ele>698.3333333333334</ele><time>2026-05-01T09:12:47Z</time></trkpt><trkpt lat="39.83335033056051" lon="9.342552953973263"><ele>694.6666666666667</ele><time>2026-05-01T09:12:48Z</time></trkpt><trkpt lat="39.83326221649828" lon="9.342344523100252"><ele>691.0</ele><time>2026-05-01T09:12:49Z</time></trkpt><trkpt lat="39.83313609299398" lon="9.34215563703533"><ele>699.3333333333334</ele><time>2026-05-01T09:12:50Z</time></trkpt><trkpt lat="39.83299689696891" lon="9.341973129104595"><ele>707.6666666666666</ele><time>2026-05-01T09:12:51Z</time></trkpt><trkpt lat="39.832866504980665" lon="9.341797989893228"><ele>716.0</ele><time>2026-05-01T09:12:52Z</time></trkpt><trkpt lat="39.83274236543751" lon="9.341657204552371"><ele>714.0</ele><time>2026-05-01T09:12:53Z</time></trkpt><trkpt lat="39.83260674267985" lon="9.341572275129899"><ele>712.0</ele><time>2026-05-01T09:12:54Z</time></trkpt><trkpt lat="39.83247887802785" lon="9.341512794278646"><ele>710.0</ele><time>2026-05-01T09:12:55Z</time></trkpt><trkpt lat="39.832372103893185" lon="9.341434919737418"><ele>708.0</ele><time>2026-05-01T09:12:56Z</time></trkpt><trkpt lat="39.83229917585215" lon="9.341294324772276"><ele>708.0</ele><time>2026-05-01T09:12:57Z</time></trkpt><trkpt lat="39.83227254021242" lon="9.34111632780997"><ele>708.0</ele><time>2026-05-01T09:12:58Z</time></trkpt><trkpt lat="39.83226516159804" lon="9.340927742617039"><ele>708.0</ele><time>2026-05-01T09:12:59Z</time></trkpt><trkpt lat="39.832233294471756" lon="9.340737293186047"><ele>708.0</ele><time>2026-05-01T09:13:00Z</time></trkpt><trkpt lat="39.83218009826534" lon="9.340539283723388"><ele>709.0</ele><time>2026-05-01T09:13:01Z</time></trkpt><trkpt lat="39.83211584989327" lon="9.340357789179308"><ele>710.0</ele><time>2026-05-01T09:13:02Z</time></trkpt><trkpt lat="39.83207615318412" lon="9.34018597010885"><ele>711.0</ele><time>2026-05-01T09:13:03Z</time></trkpt><trkpt lat="39.83208316214993" lon="9.340011738164545"><ele>712.0</ele><time>2026-05-01T09:13:04Z</time></trkpt><trkpt lat="39.832145245619714" lon="9.33985727211483"><ele>709.0</ele><time>2026-05-01T09:13:05Z</time></trkpt><trkpt lat="39.83224021349389" lon="9.339705815322498"><ele>706.0</ele><time>2026-05-01T09:13:06Z</time></trkpt><trkpt lat="39.83233057626579" lon="9.339536573435483"><ele>703.0</ele><time>2026-05-01T09:13:07Z</time></trkpt><trkpt lat="39.83240849010502" lon="9.339338686582291"><ele>703.0</ele><time>2026-05-01T09:13:08Z</time></trkpt><trkpt lat="39.8324838229195" lon="9.339129256512091"><ele>703.0</ele><time>2026-05-01T09:13:09Z</time></trkpt><trkpt lat="39.83257880468882" lon="9.338945587110247"><ele>703.0</ele><time>2026-05-01T09:13:10Z</time></trkpt><trkpt lat="39.83269514895086" lon="9.338787598243142"><ele>706.75</ele><time>2026-05-01T09:13:11Z</time></trkpt><trkpt lat="39.83281018480082" lon="9.338643347133944"><ele>710.5</ele><time>2026-05-01T09:13:12Z</time></trkpt><trkpt lat="39.83292429171124" lon="9.338529595868321"><ele>714.25</ele><time>2026-05-01T09:13:13Z</time></trkpt><trkpt lat="39.83304660311249" lon="9.338464801346245"><ele>718.0</ele><time>2026-05-01T09:13:14Z</time></trkpt><trkpt lat="39.83315596832281" lon="9.338424703524355"><ele>718.0</ele><time>2026-05-01T09:13:15Z</time></trkpt><trkpt lat="39.83322592473156" lon="9.338355142150448"><ele>718.0</ele><time>2026-05-01T09:13:16Z</time></trkpt><trkpt lat="39.83324921401977" lon="9.338239198526525"><ele>718.0</ele><time>2026-05-01T09:13:17Z</time></trkpt><trkpt lat="39.833213913269084" lon="9.338113876495825"><ele>718.0</ele><time>2026-05-01T09:13:18Z</time></trkpt><trkpt lat="39.83312334133761" lon="9.338031980759597"><ele>718.0</ele><time>2026-05-01T09:13:19Z</time></trkpt><trkpt lat="39.8330085920289" lon="9.337985612571757"><ele>721.25</ele><time>2026-05-01T09:13:20Z</time></trkpt><trkpt lat="39.83287939130378" lon="9.337939104926033"><ele>724.5</ele><time>2026-05-01T09:13:21Z</time></trkpt><trkpt lat="39.83274412906615" lon="9.337887118069608"><ele>727.75</ele><time>2026-05-01T09:13:22Z</time></trkpt><trkpt lat="39.83260300382703" lon="9.337847204526698"><ele>731.0</ele><time>2026-05-01T09:13:23Z</time></trkpt><trkpt lat="39.83246210984327" lon="9.337847953830225"><ele>731.0</ele><time>2026-05-01T09:13:24Z</time></trkpt><trkpt lat="39.83231452179434" lon="9.337911428806747"><ele>731.0</ele><time>2026-05-01T09:13:25Z</time></trkpt><trkpt lat="39.83216149233157" lon="9.338026964731931"><ele>731.0</ele><time>2026-05-01T09:13:26Z</time></trkpt><trkpt lat="39.83200052850126" lon="9.338085993904897"><ele>730.75</ele><time>2026-05-01T09:13:27Z</time></trkpt><trkpt lat="39.83184251351434" lon="9.338129591378278"><ele>730.5</ele><time>2026-05-01T09:13:28Z</time></trkpt><trkpt lat="39.83170235006028" lon="9.338167091686389"><ele>730.25</ele><time>2026-05-01T09:13:29Z</time></trkpt><trkpt lat="39.8315733927844" lon="9.338121211752206"><ele>730.0</ele><time>2026-05-01T09:13:30Z</time></trkpt><trkpt lat="39.83144850293104" lon="9.338022288324153"><ele>730.0</ele><time>2026-05-01T09:13:31Z</time></trkpt><trkpt lat="39.831341559919906" lon="9.337868735127064"><ele>730.0</ele><time>2026-05-01T09:13:32Z</time></trkpt><trkpt lat="39.831260211279336" lon="9.337703340700719"><ele>730.0</ele><time>2026-05-01T09:13:33Z</time></trkpt><trkpt lat="39.83120770439367" lon="9.33751010441185"><ele>730.0</ele><time>2026-05-01T09:13:34Z</time></trkpt><trkpt lat="39.83118204066541" lon="9.337286304126762"><ele>730.0</ele><time>2026-05-01T09:13:35Z</time></trkpt><trkpt lat="39.83118784781215" lon="9.337060840947384"><ele>730.0</ele><time>2026-05-01T09:13:36Z</time></trkpt><trkpt lat="39.831233648816564" lon="9.336825549942322"><ele>735.0</ele><time>2026-05-01T09:13:37Z</time></trkpt><trkpt lat="39.831272334659744" lon="9.336604339330222"><ele>740.0</ele><time>2026-05-01T09:13:38Z</time></trkpt><trkpt lat="39.831273872574876" lon="9.336400248951888"><ele>745.0</ele><time>2026-05-01T09:13:39Z</time></trkpt><trkpt lat="39.83123568596369" lon="9.336209169725008"><ele>745.75</ele><time>2026-05-01T09:13:40Z</time></trkpt><trkpt lat="39.83120233213145" lon="9.336024505745478"><ele>746.5</ele><time>2026-05-01T09:13:41Z</time></trkpt><trkpt lat="39.83120874214889" lon="9.335848485933958"><ele>747.25</ele><time>2026-05-01T09:13:42Z</time></trkpt><trkpt lat="39.83125248818352" lon="9.335670659696145"><ele>748.0</ele><time>2026-05-01T09:13:43Z</time></trkpt><trkpt lat="39.83132540073036" lon="9.335493202028966"><ele>743.3333333333334</ele><time>2026-05-01T09:13:44Z</time></trkpt><trkpt lat="39.83140998928828" lon="9.335321851311303"><ele>738.6666666666666</ele><time>2026-05-01T09:13:45Z</time></trkpt><trkpt lat="39.83150148108308" lon="9.335148229793703"><ele>734.0</ele><time>2026-05-01T09:13:46Z</time></trkpt><trkpt lat="39.83158552139391" lon="9.334986149210504"><ele>734.0</ele><time>2026-05-01T09:13:47Z</time></trkpt><trkpt lat="39.83168256278657" lon="9.33485391111376"><ele>734.0</ele><time>2026-05-01T09:13:48Z</time></trkpt><trkpt lat="39.83180100924808" lon="9.334744125944445"><ele>734.0</ele><time>2026-05-01T09:13:49Z</time></trkpt><trkpt lat="39.83194006725512" lon="9.334667962176908"><ele>734.0</ele><time>2026-05-01T09:13:50Z</time></trkpt><trkpt lat="39.832085469175475" lon="9.334590932531354"><ele>738.0</ele><time>2026-05-01T09:13:51Z</time></trkpt><trkpt lat="39.83221207064997" lon="9.33450893489795"><ele>742.0</ele><time>2026-05-01T09:13:52Z</time></trkpt><trkpt lat="39.83231947490419" lon="9.334419487175264"><ele>746.0</ele><time>2026-05-01T09:13:53Z</time></trkpt><trkpt lat="39.83238237713954" lon="9.334287778618371"><ele>750.0</ele><time>2026-05-01T09:13:54Z</time></trkpt><trkpt lat="39.83239534501815" lon="9.334125999981987"><ele>750.0</ele><time>2026-05-01T09:13:55Z</time></trkpt><trkpt lat="39.83237946424151" lon="9.333965438505288"><ele>750.0</ele><time>2026-05-01T09:13:56Z</time></trkpt><trkpt lat="39.83233591392874" lon="9.333800668608836"><ele>750.0</ele><time>2026-05-01T09:13:57Z</time></trkpt><trkpt lat="39.83229420807821" lon="9.333628754159422"><ele>750.0</ele><time>2026-05-01T09:13:58Z</time></trkpt><trkpt lat="39.83226076999113" lon="9.333448912108384"><ele>750.5</ele><time>2026-05-01T09:13:59Z</time></trkpt><trkpt lat="39.83223987767518" lon="9.333277141138012"><ele>751.0</ele><time>2026-05-01T09:14:00Z</time></trkpt><trkpt lat="39.832252702216614" lon="9.333103850757476"><ele>751.5</ele><time>2026-05-01T09:14:01Z</time></trkpt><trkpt lat="39.832311041023075" lon="9.332934391316664"><ele>752.0</ele><time>2026-05-01T09:14:02Z</time></trkpt><trkpt lat="39.832412207226405" lon="9.33280086504786"><ele>749.5</ele><time>2026-05-01T09:14:03Z</time></trkpt><trkpt lat="39.832506307724394" lon="9.332662216940886"><ele>747.0</ele><time>2026-05-01T09:14:04Z</time></trkpt><trkpt lat="39.83262799699634" lon="9.332558323080583"><ele>744.5</ele><time>2026-05-01T09:14:05Z</time></trkpt><trkpt lat="39.832745888306974" lon="9.33244790171974"><ele>742.0</ele><time>2026-05-01T09:14:06Z</time></trkpt><trkpt lat="39.83287022484892" lon="9.332333955181848"><ele>743.5</ele><time>2026-05-01T09:14:07Z</time></trkpt><trkpt lat="39.83299735477917" lon="9.332230303636088"><ele>745.0</ele><time>2026-05-01T09:14:08Z</time></trkpt><trkpt lat="39.83312526188343" lon="9.332133759711283"><ele>746.5</ele><time>2026-05-01T09:14:09Z</time></trkpt><trkpt lat="39.833250977351035" lon="9.332036476687499"><ele>748.0</ele><time>2026-05-01T09:14:10Z</time></trkpt><trkpt lat="39.833379486983866" lon="9.331944545587426"><ele>755.5</ele><time>2026-05-01T09:14:11Z</time></trkpt><trkpt lat="39.83348621604179" lon="9.331813832381956"><ele>763.0</ele><time>2026-05-01T09:14:12Z</time></trkpt><trkpt lat="39.83357917248758" lon="9.331667927778321"><ele>770.5</ele><time>2026-05-01T09:14:13Z</time></trkpt><trkpt lat="39.83365767204445" lon="9.331516626634828"><ele>778.0</ele><time>2026-05-01T09:14:14Z</time></trkpt><trkpt lat="39.83377457123553" lon="9.331417789483028"><ele>771.25</ele><time>2026-05-01T09:14:15Z</time></trkpt><trkpt lat="39.83388745390743" lon="9.331311784219556"><ele>764.5</ele><time>2026-05-01T09:14:16Z</time></trkpt><trkpt lat="39.8340180971882" lon="9.331239302616503"><ele>757.75</ele><time>2026-05-01T09:14:17Z</time></trkpt><trkpt lat="39.8341512114204" lon="9.33116888945395"><ele>751.0</ele><time>2026-05-01T09:14:18Z</time></trkpt><trkpt lat="39.83428118769496" lon="9.331087412536604"><ele>754.8333333333334</ele><time>2026-05-01T09:14:19Z</time></trkpt><trkpt lat="39.834397480249194" lon="9.331001052659914"><ele>758.6666666666667</ele><time>2026-05-01T09:14:20Z</time></trkpt><trkpt lat="39.83446765883903" lon="9.330953539848407"><ele>762.5</ele><time>2026-05-01T09:14:21Z</time></trkpt><trkpt lat="39.83452416428259" lon="9.330901977855287"><ele>766.3333333333334</ele><time>2026-05-01T09:14:23Z</time></trkpt><trkpt lat="39.83460635969345" lon="9.330858133908954"><ele>770.1666666666666</ele><time>2026-05-01T09:14:25Z</time></trkpt><trkpt lat="39.83466916480782" lon="9.330814450109207"><ele>774.0</ele><time>2026-05-01T09:14:26Z</time></trkpt><trkpt lat="39.83473945096118" lon="9.330751797100293"><ele>774.0</ele><time>2026-05-01T09:14:27Z</time></trkpt><trkpt lat="39.834821568724145" lon="9.330692981961334"><ele>774.0</ele><time>2026-05-01T09:14:28Z</time></trkpt><trkpt lat="39.834909197869784" lon="9.33062981994639"><ele>774.0</ele><time>2026-05-01T09:14:29Z</time></trkpt><trkpt lat="39.83499883094941" lon="9.330565406362746"><ele>774.0</ele><time>2026-05-01T09:14:30Z</time></trkpt><trkpt lat="39.83508520960497" lon="9.330508333842584"><ele>774.0</ele><time>2026-05-01T09:14:31Z</time></trkpt><trkpt lat="39.835156663684614" lon="9.330449452797982"><ele>773.5</ele><time>2026-05-01T09:14:32Z</time></trkpt><trkpt lat="39.835214691851995" lon="9.330377814037172"><ele>773.0</ele><time>2026-05-01T09:14:33Z</time></trkpt><trkpt lat="39.83523880623459" lon="9.33028262386211"><ele>772.5</ele><time>2026-05-01T09:14:34Z</time></trkpt><trkpt lat="39.83521563450779" lon="9.33018109312571"><ele>772.0</ele><time>2026-05-01T09:14:35Z</time></trkpt><trkpt lat="39.83516505573484" lon="9.330092356810736"><ele>771.5</ele><time>2026-05-01T09:14:36Z</time></trkpt><trkpt lat="39.835110332226854" lon="9.330006690157889"><ele>771.0</ele><time>2026-05-01T09:14:37Z</time></trkpt><trkpt lat="39.83505850810194" lon="9.329919061437678"><ele>771.0</ele><time>2026-05-01T09:14:38Z</time></trkpt><trkpt lat="39.83500747052557" lon="9.32982190411708"><ele>771.0</ele><time>2026-05-01T09:14:39Z</time></trkpt><trkpt lat="39.834939558673966" lon="9.329737388377653"><ele>771.0</ele><time>2026-05-01T09:14:40Z</time></trkpt><trkpt lat="39.83486320265113" lon="9.329658389163374"><ele>771.0</ele><time>2026-05-01T09:14:41Z</time></trkpt><trkpt lat="39.83480033664664" lon="9.329559183140601"><ele>771.0</ele><time>2026-05-01T09:14:42Z</time></trkpt><trkpt lat="39.834768964268044" lon="9.32942922164823"><ele>774.0</ele><time>2026-05-01T09:14:43Z</time></trkpt><trkpt lat="39.8347571737888" lon="9.32928449052463"><ele>777.0</ele><time>2026-05-01T09:14:44Z</time></trkpt><trkpt lat="39.834766836037765" lon="9.329139088601599"><ele>780.0</ele><time>2026-05-01T09:14:45Z</time></trkpt><trkpt lat="39.83477879629998" lon="9.328994458026845"><ele>783.0</ele><time>2026-05-01T09:14:46Z</time></trkpt><trkpt lat="39.83478943104686" lon="9.328860371880005"><ele>786.0</ele><time>2026-05-01T09:14:47Z</time></trkpt><trkpt lat="39.83476825081229" lon="9.328737442336555"><ele>786.1999999999999</ele><time>2026-05-01T09:14:48Z</time></trkpt><trkpt lat="39.834705060678196" lon="9.328647639106332"><ele>786.4</ele><time>2026-05-01T09:14:49Z</time></trkpt><trkpt lat="39.83461161901452" lon="9.328611371997678"><ele>786.6</ele><time>2026-05-01T09:14:50Z</time></trkpt><trkpt lat="39.834506690412326" lon="9.328599994203863"><ele>786.8</ele><time>2026-05-01T09:14:51Z</time></trkpt><trkpt lat="39.83440404850539" lon="9.328591509999114"><ele>787.0</ele><time>2026-05-01T09:14:52Z</time></trkpt><trkpt lat="39.83430345497754" lon="9.328568421256183"><ele>787.0</ele><time>2026-05-01T09:14:53Z</time></trkpt><trkpt lat="39.83420374413619" lon="9.328528678335868"><ele>787.0</ele><time>2026-05-01T09:14:54Z</time></trkpt><trkpt lat="39.83411257116774" lon="9.328456644740081"><ele>787.0</ele><time>2026-05-01T09:14:55Z</time></trkpt><trkpt lat="39.83403282123114" lon="9.328361161473012"><ele>787.0</ele><time>2026-05-01T09:14:56Z</time></trkpt><trkpt lat="39.833963158418406" lon="9.328257960467486"><ele>787.0</ele><time>2026-05-01T09:14:57Z</time></trkpt><trkpt lat="39.833911123286406" lon="9.32813851085303"><ele>786.4999999999999</ele><time>2026-05-01T09:14:58Z</time></trkpt><trkpt lat="39.83389766676126" lon="9.328005732411773"><ele>786.0</ele><time>2026-05-01T09:14:59Z</time></trkpt><trkpt lat="39.83392375821029" lon="9.327887980007707"><ele>785.5</ele><time>2026-05-01T09:15:00Z</time></trkpt><trkpt lat="39.83396742151565" lon="9.327799100422629"><ele>785.0</ele><time>2026-05-01T09:15:01Z</time></trkpt><trkpt lat="39.834031096474234" lon="9.32773890044417"><ele>784.4999999999999</ele><time>2026-05-01T09:15:02Z</time></trkpt><trkpt lat="39.834111128965255" lon="9.327699352184965"><ele>784.0</ele><time>2026-05-01T09:15:03Z</time></trkpt><trkpt lat="39.834188725541125" lon="9.327664206240794"><ele>783.9999999999999</ele><time>2026-05-01T09:15:04Z</time></trkpt><trkpt lat="39.83425868375924" lon="9.32763052830601"><ele>784.0</ele><time>2026-05-01T09:15:05Z</time></trkpt><trkpt lat="39.83432349004901" lon="9.327596711300831"><ele>784.0</ele><time>2026-05-01T09:15:06Z</time></trkpt><trkpt lat="39.83438557416317" lon="9.327567182780237"><ele>784.0</ele><time>2026-05-01T09:15:07Z</time></trkpt><trkpt lat="39.8344795913805" lon="9.327535496769089"><ele>783.9999999999999</ele><time>2026-05-01T09:15:09Z</time></trkpt><trkpt lat="39.83454420328862" lon="9.32754683460807"><ele>784.0</ele><time>2026-05-01T09:15:11Z</time></trkpt><trkpt lat="39.83460871034505" lon="9.327604878872071"><ele>785.3333333333333</ele><time>2026-05-01T09:15:15Z</time></trkpt><trkpt lat="39.834604768116925" lon="9.327688972063513"><ele>786.6666666666666</ele><time>2026-05-01T09:15:18Z</time></trkpt><trkpt lat="39.834696967197345" lon="9.327624746672765"><ele>788.0</ele><time>2026-05-01T09:19:52Z</time></trkpt><trkpt lat="39.834770283834196" lon="9.327597725407989"><ele>789.3333333333333</ele><time>2026-05-01T09:19:54Z</time></trkpt><trkpt lat="39.834805452463655" lon="9.32745548166774"><ele>790.6666666666666</ele><time>2026-05-01T09:19:56Z</time></trkpt><trkpt lat="39.83482914024938" lon="9.327375150617232"><ele>792.0</ele><time>2026-05-01T09:19:58Z</time></trkpt><trkpt lat="39.834925808052155" lon="9.327329214354725"><ele>792.0</ele><time>2026-05-01T09:19:59Z</time></trkpt><trkpt lat="39.83499271683482" lon="9.327300449682655"><ele>792.0</ele><time>2026-05-01T09:20:00Z</time></trkpt><trkpt lat="39.83505383039857" lon="9.327256034005748"><ele>792.0</ele><time>2026-05-01T09:20:01Z</time></trkpt><trkpt lat="39.83512771694655" lon="9.327215215213764"><ele>792.0</ele><time>2026-05-01T09:20:02Z</time></trkpt><trkpt lat="39.83520307663555" lon="9.327174400306173"><ele>792.0</ele><time>2026-05-01T09:20:03Z</time></trkpt><trkpt lat="39.83528224665233" lon="9.3271289219424"><ele>792.0</ele><time>2026-05-01T09:20:04Z</time></trkpt><trkpt lat="39.83535965666126" lon="9.327080261540644"><ele>792.1666666666666</ele><time>2026-05-01T09:20:05Z</time></trkpt><trkpt lat="39.83543266423928" lon="9.327030324416054"><ele>792.3333333333333</ele><time>2026-05-01T09:20:06Z</time></trkpt><trkpt lat="39.83550403068379" lon="9.326981532664774"><ele>792.5</ele><time>2026-05-01T09:20:07Z</time></trkpt><trkpt lat="39.83557367741954" lon="9.326934337031993"><ele>792.6666666666666</ele><time>2026-05-01T09:20:08Z</time></trkpt><trkpt lat="39.83564206038592" lon="9.326889116102096"><ele>792.8333333333333</ele><time>2026-05-01T09:20:09Z</time></trkpt><trkpt lat="39.83570847066893" lon="9.326836314222374"><ele>793.0</ele><time>2026-05-01T09:20:10Z</time></trkpt><trkpt lat="39.83577073185152" lon="9.326778523619057"><ele>792.9999999999999</ele><time>2026-05-01T09:20:11Z</time></trkpt><trkpt lat="39.835831200969274" lon="9.326714879095874"><ele>793.0</ele><time>2026-05-01T09:20:12Z</time></trkpt><trkpt lat="39.835888618081874" lon="9.326650016453643"><ele>793.0</ele><time>2026-05-01T09:20:13Z</time></trkpt><trkpt lat="39.83594457800122" lon="9.326580097584616"><ele>793.0</ele><time>2026-05-01T09:20:14Z</time></trkpt><trkpt lat="39.83599533912876" lon="9.326504589777265"><ele>792.9999999999999</ele><time>2026-05-01T09:20:15Z</time></trkpt><trkpt lat="39.836046559392706" lon="9.326426158796968"><ele>793.0</ele><time>2026-05-01T09:20:16Z</time></trkpt><trkpt lat="39.836097992694846" lon="9.326348839858653"><ele>793.9999999999999</ele><time>2026-05-01T09:20:17Z</time></trkpt><trkpt lat="39.836147586997384" lon="9.32627618788975"><ele>795.0</ele><time>2026-05-01T09:20:18Z</time></trkpt><trkpt lat="39.83620371641751" lon="9.326206186755797"><ele>796.0</ele><time>2026-05-01T09:20:19Z</time></trkpt><trkpt lat="39.836264370550325" lon="9.326142565521408"><ele>797.0</ele><time>2026-05-01T09:20:20Z</time></trkpt><trkpt lat="39.836325502664195" lon="9.326078994143298"><ele>797.9999999999999</ele><time>2026-05-01T09:20:21Z</time></trkpt><trkpt lat="39.83638834058554" lon="9.326016351560982"><ele>799.0</ele><time>2026-05-01T09:20:22Z</time></trkpt><trkpt lat="39.83645113052433" lon="9.325958978577782"><ele>798.9999999999999</ele><time>2026-05-01T09:20:23Z</time></trkpt><trkpt lat="39.83651820388436" lon="9.325907177733166"><ele>799.0</ele><time>2026-05-01T09:20:24Z</time></trkpt><trkpt lat="39.83658533107466" lon="9.325852523946116"><ele>799.0</ele><time>2026-05-01T09:20:25Z</time></trkpt><trkpt lat="39.83665139939365" lon="9.32579806606935"><ele>799.0</ele><time>2026-05-01T09:20:26Z</time></trkpt><trkpt lat="39.83671456774354" lon="9.325741295536945"><ele>798.9999999999999</ele><time>2026-05-01T09:20:27Z</time></trkpt><trkpt lat="39.836780951661055" lon="9.32568257188201"><ele>799.0</ele><time>2026-05-01T09:20:28Z</time></trkpt><trkpt lat="39.83684694611435" lon="9.32562032053687"><ele>798.6666666666666</ele><time>2026-05-01T09:20:29Z</time></trkpt><trkpt lat="39.83691040840394" lon="9.325546960935522"><ele>798.3333333333333</ele><time>2026-05-01T09:20:30Z</time></trkpt><trkpt lat="39.836974285602814" lon="9.325478187848619"><ele>798.0</ele><time>2026-05-01T09:20:31Z</time></trkpt><trkpt lat="39.83703765147998" lon="9.325405306703995"><ele>797.6666666666667</ele><time>2026-05-01T09:20:32Z</time></trkpt><trkpt lat="39.83710134729103" lon="9.325330079188321"><ele>797.3333333333334</ele><time>2026-05-01T09:20:33Z</time></trkpt><trkpt lat="39.83716678020207" lon="9.325252941752225"><ele>797.0</ele><time>2026-05-01T09:20:34Z</time></trkpt><trkpt lat="39.83723207383552" lon="9.325175853770018"><ele>797.0000000000001</ele><time>2026-05-01T09:20:35Z</time></trkpt><trkpt lat="39.837298536854135" lon="9.325110164172973"><ele>797.0</ele><time>2026-05-01T09:20:36Z</time></trkpt><trkpt lat="39.83736929984938" lon="9.32505004749581"><ele>797.0</ele><time>2026-05-01T09:20:37Z</time></trkpt><trkpt lat="39.83743978131964" lon="9.324991797846142"><ele>797.0</ele><time>2026-05-01T09:20:38Z</time></trkpt><trkpt lat="39.837510362752326" lon="9.324933054674279"><ele>797.0000000000001</ele><time>2026-05-01T09:20:39Z</time></trkpt><trkpt lat="39.837579721259786" lon="9.324879091889601"><ele>797.0</ele><time>2026-05-01T09:20:40Z</time></trkpt><trkpt lat="39.83765081827859" lon="9.324828675227113"><ele>795.0000000000001</ele><time>2026-05-01T09:20:41Z</time></trkpt><trkpt lat="39.837723238304164" lon="9.324793164573816"><ele>793.0</ele><time>2026-05-01T09:20:42Z</time></trkpt><trkpt lat="39.837796538122056" lon="9.32475968561933"><ele>791.0</ele><time>2026-05-01T09:20:43Z</time></trkpt><trkpt lat="39.837867679161064" lon="9.324724305324628"><ele>789.0</ele><time>2026-05-01T09:20:44Z</time></trkpt><trkpt lat="39.83794297450749" lon="9.324688906379283"><ele>787.0000000000001</ele><time>2026-05-01T09:20:45Z</time></trkpt><trkpt lat="39.838023540173" lon="9.324657838055149"><ele>785.0</ele><time>2026-05-01T09:20:46Z</time></trkpt><trkpt lat="39.838109514836056" lon="9.324635502508805"><ele>785.0000000000001</ele><time>2026-05-01T09:20:47Z</time></trkpt><trkpt lat="39.83819665662504" lon="9.324617681181069"><ele>785.0</ele><time>2026-05-01T09:20:48Z</time></trkpt><trkpt lat="39.838284278302325" lon="9.324601570202564"><ele>785.0</ele><time>2026-05-01T09:20:49Z</time></trkpt><trkpt lat="39.83837476250745" lon="9.324592924549862"><ele>785.0</ele><time>2026-05-01T09:20:50Z</time></trkpt><trkpt lat="39.83846328158462" lon="9.324584094980722"><ele>785.0000000000001</ele><time>2026-05-01T09:20:51Z</time></trkpt><trkpt lat="39.83854683750425" lon="9.324570277554368"><ele>785.0</ele><time>2026-05-01T09:20:52Z</time></trkpt><trkpt lat="39.838627162053456" lon="9.324552443199787"><ele>788.0000000000001</ele><time>2026-05-01T09:20:53Z</time></trkpt><trkpt lat="39.83870066930687" lon="9.32452254340282"><ele>791.0</ele><time>2026-05-01T09:20:54Z</time></trkpt><trkpt lat="39.83876921203057" lon="9.32445121766066"><ele>794.0</ele><time>2026-05-01T09:20:55Z</time></trkpt><trkpt lat="39.83881757398347" lon="9.324349931025093"><ele>797.0</ele><time>2026-05-01T09:20:56Z</time></trkpt><trkpt lat="39.8388793157613" lon="9.324270697999648"><ele>800.0000000000001</ele><time>2026-05-01T09:20:57Z</time></trkpt><trkpt lat="39.83892526612421" lon="9.324173240817693"><ele>803.0</ele><time>2026-05-01T09:20:58Z</time></trkpt><trkpt lat="39.83898294535369" lon="9.324111775616409"><ele>803.0</ele><time>2026-05-01T09:20:59Z</time></trkpt><trkpt lat="39.83904049109403" lon="9.324071790898545"><ele>803.0</ele><time>2026-05-01T09:21:00Z</time></trkpt><trkpt lat="39.83915527282565" lon="9.324022424695928"><ele>803.0</ele><time>2026-05-01T09:21:02Z</time></trkpt><trkpt lat="39.839273180065284" lon="9.324048342987982"><ele>803.0</ele><time>2026-05-01T09:21:04Z</time></trkpt><trkpt lat="39.83939709331239" lon="9.324076008116277"><ele>803.0</ele><time>2026-05-01T09:21:06Z</time></trkpt><trkpt lat="39.839461178224624" lon="9.324090078717616"><ele>803.5714285714286</ele><time>2026-05-01T09:21:07Z</time></trkpt><trkpt lat="39.83952954897614" lon="9.324090972816625"><ele>804.1428571428571</ele><time>2026-05-01T09:21:08Z</time></trkpt><trkpt lat="39.83959954987595" lon="9.324073353108334"><ele>804.7142857142858</ele><time>2026-05-01T09:21:09Z</time></trkpt><trkpt lat="39.839667103898435" lon="9.324037057178998"><ele>805.2857142857142</ele><time>2026-05-01T09:21:10Z</time></trkpt><trkpt lat="39.83973441571486" lon="9.324011965965198"><ele>805.8571428571429</ele><time>2026-05-01T09:21:11Z</time></trkpt><trkpt lat="39.83980059056162" lon="9.323986147215178"><ele>806.4285714285714</ele><time>2026-05-01T09:21:12Z</time></trkpt><trkpt lat="39.83985471705561" lon="9.323944036445818"><ele>807.0</ele><time>2026-05-01T09:21:13Z</time></trkpt><trkpt lat="39.83988657354488" lon="9.323818641284284"><ele>807.0</ele><time>2026-05-01T09:21:15Z</time></trkpt><trkpt lat="39.83984582376996" lon="9.323691165405888"><ele>807.0</ele><time>2026-05-01T09:21:17Z</time></trkpt><trkpt lat="39.83981094069254" lon="9.323533171444536"><ele>807.0</ele><time>2026-05-01T09:21:19Z</time></trkpt><trkpt lat="39.83980928767499" lon="9.323440829690593"><ele>807.0</ele><time>2026-05-01T09:21:20Z</time></trkpt><trkpt lat="39.83979379060321" lon="9.323352737157984"><ele>807.0</ele><time>2026-05-01T09:21:21Z</time></trkpt><trkpt lat="39.83977854366724" lon="9.323260842802963"><ele>807.0</ele><time>2026-05-01T09:21:22Z</time></trkpt><trkpt lat="39.839751670868274" lon="9.323175767284377"><ele>807.0000000000001</ele><time>2026-05-01T09:21:23Z</time></trkpt><trkpt lat="39.839741658115244" lon="9.323086854083806"><ele>807.0</ele><time>2026-05-01T09:21:24Z</time></trkpt><trkpt lat="39.839737438414545" lon="9.322997594489893"><ele>807.0</ele><time>2026-05-01T09:21:25Z</time></trkpt><trkpt lat="39.83974304699888" lon="9.32290868578718"><ele>807.0</ele><time>2026-05-01T09:21:26Z</time></trkpt><trkpt lat="39.83974676849986" lon="9.322819230113856"><ele>807.0</ele><time>2026-05-01T09:21:27Z</time></trkpt><trkpt lat="39.839753383579094" lon="9.322731093729953"><ele>807.0000000000001</ele><time>2026-05-01T09:21:28Z</time></trkpt><trkpt lat="39.83976362452875" lon="9.32264504416351"><ele>807.0</ele><time>2026-05-01T09:21:29Z</time></trkpt><trkpt lat="39.83977000015334" lon="9.32255812514561"><ele>806.5714285714287</ele><time>2026-05-01T09:21:30Z</time></trkpt><trkpt lat="39.839777666388194" lon="9.322472221158321"><ele>806.1428571428571</ele><time>2026-05-01T09:21:31Z</time></trkpt><trkpt lat="39.83978449944267" lon="9.32238497591316"><ele>805.7142857142858</ele><time>2026-05-01T09:21:32Z</time></trkpt><trkpt lat="39.83979694990477" lon="9.322299264229738"><ele>805.2857142857143</ele><time>2026-05-01T09:21:33Z</time></trkpt><trkpt lat="39.839815737662406" lon="9.322214939852786"><ele>804.8571428571429</ele><time>2026-05-01T09:21:34Z</time></trkpt><trkpt lat="39.83983923244533" lon="9.322132012372606"><ele>804.4285714285714</ele><time>2026-05-01T09:21:35Z</time></trkpt><trkpt lat="39.83985972716807" lon="9.32204592516835"><ele>804.0</ele><time>2026-05-01T09:21:36Z</time></trkpt><trkpt lat="39.83987878443365" lon="9.321959430243107"><ele>803.0</ele><time>2026-05-01T09:21:37Z</time></trkpt><trkpt lat="39.83989739792454" lon="9.32187344845861"><ele>802.0</ele><time>2026-05-01T09:21:38Z</time></trkpt><trkpt lat="39.839924292012256" lon="9.321793783601048"><ele>801.0</ele><time>2026-05-01T09:21:39Z</time></trkpt><trkpt lat="39.83995109950692" lon="9.32171258287011"><ele>800.0</ele><time>2026-05-01T09:21:40Z</time></trkpt><trkpt lat="39.84001035506566" lon="9.321651737024599"><ele>799.0</ele><time>2026-05-01T09:21:41Z</time></trkpt><trkpt lat="39.84005176949491" lon="9.32158772605876"><ele>798.0</ele><time>2026-05-01T09:21:42Z</time></trkpt><trkpt lat="39.8400991273817" lon="9.321524779992181"><ele>797.0</ele><time>2026-05-01T09:21:43Z</time></trkpt><trkpt lat="39.840147239734186" lon="9.321458823127035"><ele>798.0</ele><time>2026-05-01T09:21:44Z</time></trkpt><trkpt lat="39.84019766986148" lon="9.321391128198034"><ele>799.0</ele><time>2026-05-01T09:21:45Z</time></trkpt><trkpt lat="39.840219241231225" lon="9.321291639641656"><ele>800.0</ele><time>2026-05-01T09:21:46Z</time></trkpt><trkpt lat="39.84025679867715" lon="9.321214142209493"><ele>801.0</ele><time>2026-05-01T09:21:47Z</time></trkpt><trkpt lat="39.84028820106286" lon="9.321127091729442"><ele>802.0</ele><time>2026-05-01T09:21:48Z</time></trkpt><trkpt lat="39.84031404406889" lon="9.321035669133956"><ele>803.0</ele><time>2026-05-01T09:21:49Z</time></trkpt><trkpt lat="39.84034203670635" lon="9.32094765990752"><ele>804.0</ele><time>2026-05-01T09:21:50Z</time></trkpt><trkpt lat="39.840374754347955" lon="9.320862330198022"><ele>804.0</ele><time>2026-05-01T09:21:51Z</time></trkpt><trkpt lat="39.84041052493972" lon="9.320782178201348"><ele>804.0</ele><time>2026-05-01T09:21:52Z</time></trkpt><trkpt lat="39.84044605799149" lon="9.320701027651864"><ele>804.0</ele><time>2026-05-01T09:21:53Z</time></trkpt><trkpt lat="39.84050939618816" lon="9.320646370378839"><ele>804.0</ele><time>2026-05-01T09:21:54Z</time></trkpt><trkpt lat="39.84055761945952" lon="9.320583892033174"><ele>804.0</ele><time>2026-05-01T09:21:55Z</time></trkpt><trkpt lat="39.84060393478896" lon="9.320516631386536"><ele>804.0</ele><time>2026-05-01T09:21:56Z</time></trkpt><trkpt lat="39.840649222326356" lon="9.320449810798447"><ele>804.0</ele><time>2026-05-01T09:21:57Z</time></trkpt><trkpt lat="39.84069222520301" lon="9.320377964248944"><ele>801.6</ele><time>2026-05-01T09:21:58Z</time></trkpt><trkpt lat="39.8407295570159" lon="9.320303238036505"><ele>799.2</ele><time>2026-05-01T09:21:59Z</time></trkpt><trkpt lat="39.84074609170952" lon="9.320221177760533"><ele>796.8000000000001</ele><time>2026-05-01T09:22:00Z</time></trkpt><trkpt lat="39.84081038711654" lon="9.320094934030987"><ele>794.4000000000001</ele><time>2026-05-01T09:22:02Z</time></trkpt><trkpt lat="39.84085525462327" lon="9.319968768475691"><ele>792.0</ele><time>2026-05-01T09:22:04Z</time></trkpt><trkpt lat="39.840896630062176" lon="9.319846139060411"><ele>789.5</ele><time>2026-05-01T09:22:06Z</time></trkpt><trkpt lat="39.84094793279761" lon="9.319726154781701"><ele>787.0</ele><time>2026-05-01T09:22:08Z</time></trkpt><trkpt lat="39.840993100830666" lon="9.31960621913175"><ele>784.5</ele><time>2026-05-01T09:22:10Z</time></trkpt><trkpt lat="39.84106205289111" lon="9.319615512199414"><ele>782.0</ele><time>2026-05-01T09:22:11Z</time></trkpt><trkpt lat="39.84110790063738" lon="9.319556540881935"><ele>779.5</ele><time>2026-05-01T09:22:12Z</time></trkpt><trkpt lat="39.84114738005084" lon="9.319490983584688"><ele>777.0</ele><time>2026-05-01T09:22:13Z</time></trkpt><trkpt lat="39.84116201612323" lon="9.319380881791332"><ele>780.3333333333334</ele><time>2026-05-01T09:22:14Z</time></trkpt><trkpt lat="39.841139069179754" lon="9.319276589436921"><ele>783.6666666666667</ele><time>2026-05-01T09:22:15Z</time></trkpt><trkpt lat="39.841131189674314" lon="9.319185667898935"><ele>787.0</ele><time>2026-05-01T09:22:16Z</time></trkpt><trkpt lat="39.84112267887342" lon="9.319091054723701"><ele>790.3333333333334</ele><time>2026-05-01T09:22:17Z</time></trkpt><trkpt lat="39.84113584286915" lon="9.318993817580553"><ele>793.6666666666667</ele><time>2026-05-01T09:22:18Z</time></trkpt><trkpt lat="39.84113697293872" lon="9.31889593162112"><ele>797.0</ele><time>2026-05-01T09:22:19Z</time></trkpt><trkpt lat="39.84114588455487" lon="9.318797843592906"><ele>797.0000000000001</ele><time>2026-05-01T09:22:20Z</time></trkpt><trkpt lat="39.84116326145546" lon="9.318697971631453"><ele>797.0</ele><time>2026-05-01T09:22:21Z</time></trkpt><trkpt lat="39.84118536586106" lon="9.318597372786286"><ele>797.0</ele><time>2026-05-01T09:22:22Z</time></trkpt><trkpt lat="39.841211011130646" lon="9.318494097153796"><ele>797.0</ele><time>2026-05-01T09:22:23Z</time></trkpt><trkpt lat="39.841222520612384" lon="9.318383932079051"><ele>797.0000000000001</ele><time>2026-05-01T09:22:24Z</time></trkpt><trkpt lat="39.84125816569772" lon="9.31828552190136"><ele>797.0</ele><time>2026-05-01T09:22:25Z</time></trkpt><trkpt lat="39.84130464917309" lon="9.318196433744184"><ele>797.0000000000001</ele><time>2026-05-01T09:22:26Z</time></trkpt><trkpt lat="39.84135958747256" lon="9.31811489319523"><ele>797.0</ele><time>2026-05-01T09:22:27Z</time></trkpt><trkpt lat="39.841415321718515" lon="9.318034385946468"><ele>797.0</ele><time>2026-05-01T09:22:28Z</time></trkpt><trkpt lat="39.84146842069831" lon="9.317956728724662"><ele>797.0</ele><time>2026-05-01T09:22:29Z</time></trkpt><trkpt lat="39.84152662070861" lon="9.317876792112784"><ele>797.0000000000001</ele><time>2026-05-01T09:22:30Z</time></trkpt><trkpt lat="39.841590190062355" lon="9.31780273167731"><ele>797.0</ele><time>2026-05-01T09:22:31Z</time></trkpt><trkpt lat="39.84165776157814" lon="9.31773060484693"><ele>797.6666666666667</ele><time>2026-05-01T09:22:32Z</time></trkpt><trkpt lat="39.84172745178916" lon="9.317660792172928"><ele>798.3333333333334</ele><time>2026-05-01T09:22:33Z</time></trkpt><trkpt lat="39.841799461142" lon="9.317592052273074"><ele>799.0</ele><time>2026-05-01T09:22:34Z</time></trkpt><trkpt lat="39.841875933687874" lon="9.317531596974044"><ele>799.6666666666667</ele><time>2026-05-01T09:22:35Z</time></trkpt><trkpt lat="39.84195349606059" lon="9.317474590306144"><ele>800.3333333333334</ele><time>2026-05-01T09:22:36Z</time></trkpt><trkpt lat="39.842029678672624" lon="9.317406676971425"><ele>801.0</ele><time>2026-05-01T09:22:37Z</time></trkpt><trkpt lat="39.84208121125606" lon="9.3173147592836"><ele>799.5999999999999</ele><time>2026-05-01T09:22:38Z</time></trkpt><trkpt lat="39.84208535704837" lon="9.31718995024418"><ele>798.2</ele><time>2026-05-01T09:22:39Z</time></trkpt><trkpt lat="39.8420494703529" lon="9.317053342437292"><ele>796.8</ele><time>2026-05-01T09:22:40Z</time></trkpt><trkpt lat="39.842013064873" lon="9.316912781432913"><ele>795.4000000000001</ele><time>2026-05-01T09:22:41Z</time></trkpt><trkpt lat="39.84199970652131" lon="9.316767672385994"><ele>794.0</ele><time>2026-05-01T09:22:42Z</time></trkpt><trkpt lat="39.84199131463284" lon="9.316614993078945"><ele>794.0</ele><time>2026-05-01T09:22:43Z</time></trkpt><trkpt lat="39.841993547524815" lon="9.316460759359948"><ele>794.0</ele><time>2026-05-01T09:22:44Z</time></trkpt><trkpt lat="39.84201914719485" lon="9.316312784720061"><ele>794.0</ele><time>2026-05-01T09:22:45Z</time></trkpt><trkpt lat="39.84208789194059" lon="9.316186709615248"><ele>794.0</ele><time>2026-05-01T09:22:46Z</time></trkpt><trkpt lat="39.842122684281186" lon="9.316048459020807"><ele>791.75</ele><time>2026-05-01T09:22:47Z</time></trkpt><trkpt lat="39.84208944972045" lon="9.315894929528246"><ele>789.5</ele><time>2026-05-01T09:22:48Z</time></trkpt><trkpt lat="39.84205696205988" lon="9.315748272631433"><ele>787.25</ele><time>2026-05-01T09:22:49Z</time></trkpt><trkpt lat="39.842053521279446" lon="9.315593910962226"><ele>785.0</ele><time>2026-05-01T09:22:50Z</time></trkpt><trkpt lat="39.842074171403496" lon="9.315432687279323"><ele>781.75</ele><time>2026-05-01T09:22:51Z</time></trkpt><trkpt lat="39.84211888085161" lon="9.315273974168647"><ele>778.5</ele><time>2026-05-01T09:22:52Z</time></trkpt><trkpt lat="39.842190003389916" lon="9.315125937885199"><ele>775.25</ele><time>2026-05-01T09:22:53Z</time></trkpt><trkpt lat="39.8422818227504" lon="9.314994185203059"><ele>772.0</ele><time>2026-05-01T09:22:54Z</time></trkpt><trkpt lat="39.842353452602055" lon="9.314849928100518"><ele>768.75</ele><time>2026-05-01T09:22:55Z</time></trkpt><trkpt lat="39.84239788907423" lon="9.3146885998963"><ele>765.5</ele><time>2026-05-01T09:22:56Z</time></trkpt><trkpt lat="39.84245047101725" lon="9.314532402126463"><ele>762.25</ele><time>2026-05-01T09:22:57Z</time></trkpt><trkpt lat="39.842475075926394" lon="9.314355246026775"><ele>759.0</ele><time>2026-05-01T09:22:58Z</time></trkpt><trkpt lat="39.84248194686712" lon="9.314167228681162"><ele>759.0</ele><time>2026-05-01T09:22:59Z</time></trkpt><trkpt lat="39.84248778089468" lon="9.313976024095325"><ele>759.0</ele><time>2026-05-01T09:23:00Z</time></trkpt><trkpt lat="39.842499014810755" lon="9.313791687286155"><ele>759.0</ele><time>2026-05-01T09:23:01Z</time></trkpt><trkpt lat="39.842527329862826" lon="9.313616740874755"><ele>759.0</ele><time>2026-05-01T09:23:02Z</time></trkpt><trkpt lat="39.84258647692132" lon="9.313460883274052"><ele>762.75</ele><time>2026-05-01T09:23:03Z</time></trkpt><trkpt lat="39.84267907422036" lon="9.313324780057016"><ele>766.5</ele><time>2026-05-01T09:23:04Z</time></trkpt><trkpt lat="39.8427716853053" lon="9.313192505633156"><ele>770.25</ele><time>2026-05-01T09:23:05Z</time></trkpt><trkpt lat="39.84283407514945" lon="9.31302465893648"><ele>774.0</ele><time>2026-05-01T09:23:06Z</time></trkpt><trkpt lat="39.8428843260472" lon="9.312846052134306"><ele>774.75</ele><time>2026-05-01T09:23:07Z</time></trkpt><trkpt lat="39.842934908416275" lon="9.312668051502136"><ele>775.5</ele><time>2026-05-01T09:23:08Z</time></trkpt><trkpt lat="39.84298651114079" lon="9.312491163538297"><ele>776.25</ele><time>2026-05-01T09:23:09Z</time></trkpt><trkpt lat="39.84302927538681" lon="9.312312678531375"><ele>777.0</ele><time>2026-05-01T09:23:10Z</time></trkpt><trkpt lat="39.84304600305132" lon="9.312122705047512"><ele>778.25</ele><time>2026-05-01T09:23:11Z</time></trkpt><trkpt lat="39.8430387521767" lon="9.311930213155604"><ele>779.5</ele><time>2026-05-01T09:23:12Z</time></trkpt><trkpt lat="39.84302243851599" lon="9.311742908198102"><ele>780.75</ele><time>2026-05-01T09:23:13Z</time></trkpt><trkpt lat="39.842999628033624" lon="9.311577206532368"><ele>782.0</ele><time>2026-05-01T09:23:14Z</time></trkpt><trkpt lat="39.84296209545776" lon="9.311429303387241"><ele>782.6</ele><time>2026-05-01T09:23:15Z</time></trkpt><trkpt lat="39.842899392423426" lon="9.311315755146705"><ele>783.2</ele><time>2026-05-01T09:23:16Z</time></trkpt><trkpt lat="39.84280809229666" lon="9.311257045678785"><ele>783.8</ele><time>2026-05-01T09:23:17Z</time></trkpt><trkpt lat="39.842703581784455" lon="9.31122279004771"><ele>784.4</ele><time>2026-05-01T09:23:18Z</time></trkpt><trkpt lat="39.84262030161587" lon="9.311315030932981"><ele>785.0</ele><time>2026-05-01T09:23:19Z</time></trkpt><trkpt lat="39.842595895533876" lon="9.311418357149927"><ele>782.4</ele><time>2026-05-01T09:23:20Z</time></trkpt><trkpt lat="39.84259496509786" lon="9.31153966450754"><ele>779.8</ele><time>2026-05-01T09:23:21Z</time></trkpt><trkpt lat="39.842571980568756" lon="9.311674050421669"><ele>777.2</ele><time>2026-05-01T09:23:22Z</time></trkpt><trkpt lat="39.842559710040064" lon="9.311825862608913"><ele>774.6</ele><time>2026-05-01T09:23:23Z</time></trkpt><trkpt lat="39.84255807288464" lon="9.311988397123613"><ele>772.0</ele><time>2026-05-01T09:23:24Z</time></trkpt><trkpt lat="39.8425007090275" lon="9.312143984157247"><ele>768.5</ele><time>2026-05-01T09:23:25Z</time></trkpt><trkpt lat="39.84240968683113" lon="9.312270511875985"><ele>765.0</ele><time>2026-05-01T09:23:26Z</time></trkpt><trkpt lat="39.8422807135968" lon="9.312344245006946"><ele>761.5</ele><time>2026-05-01T09:23:27Z</time></trkpt><trkpt lat="39.84214202723249" lon="9.312385738805043"><ele>758.0</ele><time>2026-05-01T09:23:28Z</time></trkpt><trkpt lat="39.84200053948573" lon="9.312385488965036"><ele>758.0</ele><time>2026-05-01T09:23:29Z</time></trkpt><trkpt lat="39.841861480049815" lon="9.312350906209337"><ele>758.0</ele><time>2026-05-01T09:23:30Z</time></trkpt><trkpt lat="39.84173391038327" lon="9.312391393427877"><ele>758.0</ele><time>2026-05-01T09:23:31Z</time></trkpt><trkpt lat="39.84162952360432" lon="9.312500716257764"><ele>758.0</ele><time>2026-05-01T09:23:32Z</time></trkpt><trkpt lat="39.841540256293946" lon="9.31265233285582"><ele>757.75</ele><time>2026-05-01T09:23:33Z</time></trkpt><trkpt lat="39.84146106086064" lon="9.312803048121236"><ele>757.5</ele><time>2026-05-01T09:23:34Z</time></trkpt><trkpt lat="39.84136129857561" lon="9.312936632014933"><ele>757.25</ele><time>2026-05-01T09:23:35Z</time></trkpt><trkpt lat="39.84124893438189" lon="9.3130473887453"><ele>757.0</ele><time>2026-05-01T09:23:36Z</time></trkpt><trkpt lat="39.84111324503027" lon="9.313105780707854"><ele>763.3333333333334</ele><time>2026-05-01T09:23:37Z</time></trkpt><trkpt lat="39.84096435143401" lon="9.313107809261657"><ele>769.6666666666667</ele><time>2026-05-01T09:23:38Z</time></trkpt><trkpt lat="39.84081084388467" lon="9.313106368813381"><ele>776.0</ele><time>2026-05-01T09:23:39Z</time></trkpt><trkpt lat="39.84066151482521" lon="9.313108229155384"><ele>776.0</ele><time>2026-05-01T09:23:40Z</time></trkpt><trkpt lat="39.84051759722923" lon="9.31311116279619"><ele>776.0</ele><time>2026-05-01T09:23:41Z</time></trkpt><trkpt lat="39.84038592697467" lon="9.313132144381335"><ele>776.0</ele><time>2026-05-01T09:23:42Z</time></trkpt><trkpt lat="39.840283377343866" lon="9.313191630136703"><ele>776.0</ele><time>2026-05-01T09:23:43Z</time></trkpt><trkpt lat="39.84021847695896" lon="9.313318097347015"><ele>776.0</ele><time>2026-05-01T09:23:44Z</time></trkpt><trkpt lat="39.84016953052208" lon="9.313485986418312"><ele>776.0</ele><time>2026-05-01T09:23:45Z</time></trkpt><trkpt lat="39.840096292435135" lon="9.313641385694194"><ele>776.0</ele><time>2026-05-01T09:23:46Z</time></trkpt><trkpt lat="39.840014024340554" lon="9.313795081334906"><ele>776.0</ele><time>2026-05-01T09:23:47Z</time></trkpt><trkpt lat="39.83992408662272" lon="9.313951329588857"><ele>779.3333333333334</ele><time>2026-05-01T09:23:48Z</time></trkpt><trkpt lat="39.83983279290974" lon="9.314111467654115"><ele>782.6666666666667</ele><time>2026-05-01T09:23:49Z</time></trkpt><trkpt lat="39.83973307973014" lon="9.314272418787768"><ele>786.0</ele><time>2026-05-01T09:23:50Z</time></trkpt><trkpt lat="39.839620644739924" lon="9.314418632170467"><ele>786.0</ele><time>2026-05-01T09:23:51Z</time></trkpt><trkpt lat="39.83949707798367" lon="9.314543860893133"><ele>786.0</ele><time>2026-05-01T09:23:52Z</time></trkpt><trkpt lat="39.839356763948146" lon="9.314652564064367"><ele>786.0</ele><time>2026-05-01T09:23:53Z</time></trkpt><trkpt lat="39.83920229299513" lon="9.314745451784303"><ele>787.3333333333333</ele><time>2026-05-01T09:23:54Z</time></trkpt><trkpt lat="39.839043168957545" lon="9.314826287563235"><ele>788.6666666666666</ele><time>2026-05-01T09:23:55Z</time></trkpt><trkpt lat="39.83889416434103" lon="9.314897309346676"><ele>790.0</ele><time>2026-05-01T09:23:56Z</time></trkpt><trkpt lat="39.83874402739307" lon="9.314941706334352"><ele>790.0</ele><time>2026-05-01T09:23:57Z</time></trkpt><trkpt lat="39.838581895612414" lon="9.314944013132807"><ele>790.0</ele><time>2026-05-01T09:23:58Z</time></trkpt><trkpt lat="39.83841701687207" lon="9.314922832176068"><ele>790.0</ele><time>2026-05-01T09:23:59Z</time></trkpt><trkpt lat="39.83825880457662" lon="9.314894772573675"><ele>795.3333333333333</ele><time>2026-05-01T09:24:00Z</time></trkpt><trkpt lat="39.83810361879968" lon="9.314885821648494"><ele>800.6666666666667</ele><time>2026-05-01T09:24:01Z</time></trkpt><trkpt lat="39.837956786996564" lon="9.314932338126521"><ele>806.0</ele><time>2026-05-01T09:24:02Z</time></trkpt><trkpt lat="39.83783593350685" lon="9.315050750638651"><ele>806.0</ele><time>2026-05-01T09:24:03Z</time></trkpt><trkpt lat="39.837732102435545" lon="9.315189632237656"><ele>806.0</ele><time>2026-05-01T09:24:04Z</time></trkpt><trkpt lat="39.837621724563704" lon="9.315293005544953"><ele>806.0</ele><time>2026-05-01T09:24:05Z</time></trkpt><trkpt lat="39.837488641885294" lon="9.315328493578015"><ele>806.0</ele><time>2026-05-01T09:24:06Z</time></trkpt><trkpt lat="39.83734880872862" lon="9.315297055705823"><ele>807.5</ele><time>2026-05-01T09:24:07Z</time></trkpt><trkpt lat="39.83723063830115" lon="9.315197964012167"><ele>809.0</ele><time>2026-05-01T09:24:08Z</time></trkpt><trkpt lat="39.83715356156072" lon="9.315051093275407"><ele>810.5</ele><time>2026-05-01T09:24:09Z</time></trkpt><trkpt lat="39.83715821296614" lon="9.314892735585492"><ele>812.0</ele><time>2026-05-01T09:24:10Z</time></trkpt><trkpt lat="39.837241883560445" lon="9.31476042361999"><ele>810.6666666666667</ele><time>2026-05-01T09:24:11Z</time></trkpt><trkpt lat="39.83734738519691" lon="9.314615013583715"><ele>809.3333333333333</ele><time>2026-05-01T09:24:12Z</time></trkpt><trkpt lat="39.837445855559324" lon="9.314455027961905"><ele>808.0</ele><time>2026-05-01T09:24:13Z</time></trkpt><trkpt lat="39.837559837762356" lon="9.314295317452878"><ele>811.3333333333333</ele><time>2026-05-01T09:24:14Z</time></trkpt><trkpt lat="39.83767021308444" lon="9.314133483154436"><ele>814.6666666666667</ele><time>2026-05-01T09:24:15Z</time></trkpt><trkpt lat="39.83778237709038" lon="9.31397071521024"><ele>818.0</ele><time>2026-05-01T09:24:16Z</time></trkpt><trkpt lat="39.83790007539927" lon="9.313807011866686"><ele>818.0</ele><time>2026-05-01T09:24:17Z</time></trkpt><trkpt lat="39.838018863171555" lon="9.313641609996235"><ele>818.0</ele><time>2026-05-01T09:24:18Z</time></trkpt><trkpt lat="39.83814590485729" lon="9.313484785294712"><ele>818.0</ele><time>2026-05-01T09:24:19Z</time></trkpt><trkpt lat="39.83828188674917" lon="9.313341125807447"><ele>818.0</ele><time>2026-05-01T09:24:20Z</time></trkpt><trkpt lat="39.83841746239886" lon="9.313200457015524"><ele>818.0</ele><time>2026-05-01T09:24:21Z</time></trkpt><trkpt lat="39.83854812291445" lon="9.313053236496595"><ele>818.0</ele><time>2026-05-01T09:24:22Z</time></trkpt><trkpt lat="39.838671423538145" lon="9.312889505559546"><ele>821.6666666666667</ele><time>2026-05-01T09:24:23Z</time></trkpt><trkpt lat="39.8387845306658" lon="9.31270485135669"><ele>825.3333333333333</ele><time>2026-05-01T09:24:24Z</time></trkpt><trkpt lat="39.838892010319114" lon="9.312511121551255"><ele>829.0</ele><time>2026-05-01T09:24:25Z</time></trkpt><trkpt lat="39.83900130876581" lon="9.312314082022818"><ele>827.0</ele><time>2026-05-01T09:24:26Z</time></trkpt><trkpt lat="39.83911011525553" lon="9.31212597406193"><ele>825.0</ele><time>2026-05-01T09:24:27Z</time></trkpt><trkpt lat="39.839221384504114" lon="9.311932850786938"><ele>823.0</ele><time>2026-05-01T09:24:28Z</time></trkpt><trkpt lat="39.83933174217483" lon="9.311740534890061"><ele>827.0</ele><time>2026-05-01T09:24:29Z</time></trkpt><trkpt lat="39.83943804808468" lon="9.3115412280078"><ele>831.0</ele><time>2026-05-01T09:24:30Z</time></trkpt><trkpt lat="39.83952761238005" lon="9.311333820086999"><ele>835.0</ele><time>2026-05-01T09:24:31Z</time></trkpt><trkpt lat="39.83960258301813" lon="9.311115153925726"><ele>837.6666666666666</ele><time>2026-05-01T09:24:32Z</time></trkpt><trkpt lat="39.83966904275481" lon="9.31089366588473"><ele>840.3333333333333</ele><time>2026-05-01T09:24:33Z</time></trkpt><trkpt lat="39.83973454057293" lon="9.31067648937528"><ele>843.0</ele><time>2026-05-01T09:24:34Z</time></trkpt><trkpt lat="39.83980149033062" lon="9.310466623677456"><ele>843.75</ele><time>2026-05-01T09:24:35Z</time></trkpt><trkpt lat="39.839863944027556" lon="9.31027828171499"><ele>844.5</ele><time>2026-05-01T09:24:36Z</time></trkpt><trkpt lat="39.83991938348634" lon="9.310100862211982"><ele>845.25</ele><time>2026-05-01T09:24:37Z</time></trkpt><trkpt lat="39.83994901700596" lon="9.309935042968961"><ele>846.0</ele><time>2026-05-01T09:24:38Z</time></trkpt><trkpt lat="39.83992857724557" lon="9.309767268030354"><ele>851.0</ele><time>2026-05-01T09:24:39Z</time></trkpt><trkpt lat="39.839852006794416" lon="9.309610334334725"><ele>856.0</ele><time>2026-05-01T09:24:40Z</time></trkpt><trkpt lat="39.83974953964618" lon="9.309466175429424"><ele>861.0</ele><time>2026-05-01T09:24:41Z</time></trkpt><trkpt lat="39.83964150686363" lon="9.309319127968505"><ele>861.0</ele><time>2026-05-01T09:24:42Z</time></trkpt><trkpt lat="39.839531262335875" lon="9.309171357461844"><ele>861.0</ele><time>2026-05-01T09:24:43Z</time></trkpt><trkpt lat="39.839420104923896" lon="9.309020261798981"><ele>861.0</ele><time>2026-05-01T09:24:44Z</time></trkpt><trkpt lat="39.83929920756112" lon="9.30888209060872"><ele>863.6666666666667</ele><time>2026-05-01T09:24:45Z</time></trkpt><trkpt lat="39.83916557398993" lon="9.308767750741751"><ele>866.3333333333334</ele><time>2026-05-01T09:24:46Z</time></trkpt><trkpt lat="39.839024830368295" lon="9.308676499701058"><ele>869.0</ele><time>2026-05-01T09:24:47Z</time></trkpt><trkpt lat="39.83887573897463" lon="9.308612678462856"><ele>869.0</ele><time>2026-05-01T09:24:48Z</time></trkpt><trkpt lat="39.83872408458154" lon="9.308589592262567"><ele>869.0</ele><time>2026-05-01T09:24:49Z</time></trkpt><trkpt lat="39.838583033633896" lon="9.308618464821004"><ele>869.0</ele><time>2026-05-01T09:24:50Z</time></trkpt><trkpt lat="39.83844514124938" lon="9.30867081694697"><ele>869.0</ele><time>2026-05-01T09:24:51Z</time></trkpt><trkpt lat="39.838310767538985" lon="9.308684637132925"><ele>866.3333333333334</ele><time>2026-05-01T09:24:52Z</time></trkpt><trkpt lat="39.83818077926184" lon="9.30861415530685"><ele>863.6666666666667</ele><time>2026-05-01T09:24:53Z</time></trkpt><trkpt lat="39.838049944827446" lon="9.308512553367962"><ele>861.0</ele><time>2026-05-01T09:24:54Z</time></trkpt><trkpt lat="39.83794365842182" lon="9.308361305176918"><ele>861.0</ele><time>2026-05-01T09:24:55Z</time></trkpt><trkpt lat="39.83785950293841" lon="9.30819834846999"><ele>861.0</ele><time>2026-05-01T09:24:56Z</time></trkpt><trkpt lat="39.83780645152548" lon="9.308018396954814"><ele>861.0</ele><time>2026-05-01T09:24:57Z</time></trkpt><trkpt lat="39.83779702714408" lon="9.307830856942077"><ele>861.0</ele><time>2026-05-01T09:24:58Z</time></trkpt><trkpt lat="39.83786766228039" lon="9.30766492608803"><ele>861.3333333333333</ele><time>2026-05-01T09:24:59Z</time></trkpt><trkpt lat="39.83793343683243" lon="9.307478982485797"><ele>861.6666666666666</ele><time>2026-05-01T09:25:00Z</time></trkpt><trkpt lat="39.838019280401674" lon="9.307299566959149"><ele>862.0</ele><time>2026-05-01T09:25:01Z</time></trkpt><trkpt lat="39.838094331344834" lon="9.307114278844837"><ele>862.0</ele><time>2026-05-01T09:25:02Z</time></trkpt><trkpt lat="39.83815787603236" lon="9.30694097646037"><ele>862.0</ele><time>2026-05-01T09:25:03Z</time></trkpt><trkpt lat="39.83822460261678" lon="9.306798161186816"><ele>862.0</ele><time>2026-05-01T09:25:04Z</time></trkpt><trkpt lat="39.83829121756227" lon="9.30668505740943"><ele>862.0</ele><time>2026-05-01T09:25:05Z</time></trkpt><trkpt lat="39.83837077319386" lon="9.306615626949927"><ele>862.0</ele><time>2026-05-01T09:25:06Z</time></trkpt><trkpt lat="39.83845622201132" lon="9.306580136132196"><ele>862.0</ele><time>2026-05-01T09:25:07Z</time></trkpt><trkpt lat="39.838544143945185" lon="9.306528586404546"><ele>862.0</ele><time>2026-05-01T09:25:08Z</time></trkpt><trkpt lat="39.83861614621614" lon="9.306422195193768"><ele>862.0</ele><time>2026-05-01T09:25:09Z</time></trkpt><trkpt lat="39.83864915992818" lon="9.306279074301852"><ele>862.0</ele><time>2026-05-01T09:25:10Z</time></trkpt><trkpt lat="39.838670805654004" lon="9.306117012475898"><ele>866.0</ele><time>2026-05-01T09:25:11Z</time></trkpt><trkpt lat="39.838698149432425" lon="9.305941559786097"><ele>870.0</ele><time>2026-05-01T09:25:12Z</time></trkpt><trkpt lat="39.83872526417839" lon="9.305750859176495"><ele>874.0</ele><time>2026-05-01T09:25:13Z</time></trkpt><trkpt lat="39.838752219952795" lon="9.305556326139293"><ele>878.0</ele><time>2026-05-01T09:25:14Z</time></trkpt><trkpt lat="39.83878067638704" lon="9.30535658540158"><ele>878.0</ele><time>2026-05-01T09:25:15Z</time></trkpt><trkpt lat="39.8388081768823" lon="9.30514790908353"><ele>878.0</ele><time>2026-05-01T09:25:16Z</time></trkpt><trkpt lat="39.83883476780617" lon="9.30493218075168"><ele>878.0</ele><time>2026-05-01T09:25:17Z</time></trkpt><trkpt lat="39.83885807277303" lon="9.30471706336611"><ele>877.3333333333334</ele><time>2026-05-01T09:25:18Z</time></trkpt><trkpt lat="39.838890791076466" lon="9.30449948437034"><ele>876.6666666666667</ele><time>2026-05-01T09:25:19Z</time></trkpt><trkpt lat="39.83895074048671" lon="9.30428631124816"><ele>876.0</ele><time>2026-05-01T09:25:20Z</time></trkpt><trkpt lat="39.83903358338458" lon="9.304083654348622"><ele>874.3333333333333</ele><time>2026-05-01T09:25:21Z</time></trkpt><trkpt lat="39.83912006270702" lon="9.303879588742209"><ele>872.6666666666666</ele><time>2026-05-01T09:25:22Z</time></trkpt><trkpt lat="39.83918468615684" lon="9.303667973933178"><ele>871.0</ele><time>2026-05-01T09:25:23Z</time></trkpt><trkpt lat="39.83921078608684" lon="9.303447786850167"><ele>871.0</ele><time>2026-05-01T09:25:24Z</time></trkpt><trkpt lat="39.8392068847106" lon="9.30323635030101"><ele>871.0</ele><time>2026-05-01T09:25:25Z</time></trkpt><trkpt lat="39.83920026390703" lon="9.30303723166054"><ele>871.0</ele><time>2026-05-01T09:25:26Z</time></trkpt><trkpt lat="39.83922890379073" lon="9.302850208095563"><ele>872.25</ele><time>2026-05-01T09:25:27Z</time></trkpt><trkpt lat="39.83928795178593" lon="9.30268861311591"><ele>873.5</ele><time>2026-05-01T09:25:28Z</time></trkpt><trkpt lat="39.839327935309804" lon="9.302548731547125"><ele>874.75</ele><time>2026-05-01T09:25:29Z</time></trkpt><trkpt lat="39.83931395067107" lon="9.302414706900382"><ele>876.0</ele><time>2026-05-01T09:25:30Z</time></trkpt><trkpt lat="39.839253471142825" lon="9.302318534035305"><ele>876.0</ele><time>2026-05-01T09:25:31Z</time></trkpt><trkpt lat="39.83914747282217" lon="9.302299476939611"><ele>876.0</ele><time>2026-05-01T09:25:32Z</time></trkpt><trkpt lat="39.83902340075018" lon="9.302332799623478"><ele>876.0</ele><time>2026-05-01T09:25:33Z</time></trkpt><trkpt lat="39.83888266281287" lon="9.302318205334354"><ele>876.0</ele><time>2026-05-01T09:25:34Z</time></trkpt><trkpt lat="39.838742442761685" lon="9.30224698086199"><ele>880.0</ele><time>2026-05-01T09:25:35Z</time></trkpt><trkpt lat="39.83861748754933" lon="9.302148335026711"><ele>884.0</ele><time>2026-05-01T09:25:36Z</time></trkpt><trkpt lat="39.83848544812347" lon="9.302133021697552"><ele>888.0</ele><time>2026-05-01T09:25:37Z</time></trkpt><trkpt lat="39.83835576127332" lon="9.30218870847871"><ele>892.0</ele><time>2026-05-01T09:25:38Z</time></trkpt><trkpt lat="39.838217210625686" lon="9.302240720785353"><ele>892.0</ele><time>2026-05-01T09:25:39Z</time></trkpt><trkpt lat="39.83806853032021" lon="9.302217744203963"><ele>892.0</ele><time>2026-05-01T09:25:40Z</time></trkpt><trkpt lat="39.83791051000984" lon="9.302167854117588"><ele>892.0</ele><time>2026-05-01T09:25:41Z</time></trkpt><trkpt lat="39.83775700888124" lon="9.302069972242762"><ele>887.6666666666666</ele><time>2026-05-01T09:25:42Z</time></trkpt><trkpt lat="39.83762146574605" lon="9.301923975545812"><ele>883.3333333333333</ele><time>2026-05-01T09:25:43Z</time></trkpt><trkpt lat="39.83750515552152" lon="9.301763485196556"><ele>879.0</ele><time>2026-05-01T09:25:44Z</time></trkpt><trkpt lat="39.83739978463796" lon="9.301612222590542"><ele>879.0</ele><time>2026-05-01T09:25:45Z</time></trkpt><trkpt lat="39.83731973569287" lon="9.301454861182725"><ele>879.0</ele><time>2026-05-01T09:25:46Z</time></trkpt><trkpt lat="39.837274762594575" lon="9.301262917904676"><ele>879.0</ele><time>2026-05-01T09:25:47Z</time></trkpt><trkpt lat="39.837254857983766" lon="9.301053504147013"><ele>881.25</ele><time>2026-05-01T09:25:48Z</time></trkpt><trkpt lat="39.837219035702205" lon="9.300859678379785"><ele>883.5</ele><time>2026-05-01T09:25:49Z</time></trkpt><trkpt lat="39.837172249158805" lon="9.300678232817274"><ele>885.75</ele><time>2026-05-01T09:25:50Z</time></trkpt><trkpt lat="39.837161298640105" lon="9.300497735732758"><ele>888.0</ele><time>2026-05-01T09:25:51Z</time></trkpt><trkpt lat="39.83720214064543" lon="9.300322891040885"><ele>889.75</ele><time>2026-05-01T09:25:52Z</time></trkpt><trkpt lat="39.83728331238576" lon="9.300190726350637"><ele>891.5</ele><time>2026-05-01T09:25:53Z</time></trkpt><trkpt lat="39.83731795087576" lon="9.300056283141808"><ele>893.25</ele><time>2026-05-01T09:25:54Z</time></trkpt><trkpt lat="39.83728353809471" lon="9.299903213629015"><ele>895.0</ele><time>2026-05-01T09:25:55Z</time></trkpt><trkpt lat="39.83719284279635" lon="9.299757914974158"><ele>897.75</ele><time>2026-05-01T09:25:56Z</time></trkpt><trkpt lat="39.837077066906794" lon="9.29964176289187"><ele>900.5</ele><time>2026-05-01T09:25:57Z</time></trkpt><trkpt lat="39.83696859543307" lon="9.299528194273519"><ele>903.25</ele><time>2026-05-01T09:25:58Z</time></trkpt><trkpt lat="39.83689792999045" lon="9.299385398606397"><ele>906.0</ele><time>2026-05-01T09:25:59Z</time></trkpt><trkpt lat="39.83686702885172" lon="9.299200416251017"><ele>906.0</ele><time>2026-05-01T09:26:00Z</time></trkpt><trkpt lat="39.83684437918808" lon="9.29903447775288"><ele>906.0</ele><time>2026-05-01T09:26:01Z</time></trkpt><trkpt lat="39.8367746602461" lon="9.298915559328053"><ele>906.0</ele><time>2026-05-01T09:26:02Z</time></trkpt><trkpt lat="39.83665394747776" lon="9.298853361314649"><ele>906.0</ele><time>2026-05-01T09:26:03Z</time></trkpt><trkpt lat="39.83651796767349" lon="9.298792008690796"><ele>904.6666666666667</ele><time>2026-05-01T09:26:04Z</time></trkpt><trkpt lat="39.83636208279879" lon="9.298783390981413"><ele>903.3333333333334</ele><time>2026-05-01T09:26:05Z</time></trkpt><trkpt lat="39.83620749127433" lon="9.298745612832398"><ele>902.0</ele><time>2026-05-01T09:26:06Z</time></trkpt><trkpt lat="39.83606185367231" lon="9.29867806493656"><ele>901.0</ele><time>2026-05-01T09:26:07Z</time></trkpt><trkpt lat="39.83591951952771" lon="9.298620554208155"><ele>900.0</ele><time>2026-05-01T09:26:08Z</time></trkpt><trkpt lat="39.83577178701115" lon="9.298624742390833"><ele>899.0</ele><time>2026-05-01T09:26:09Z</time></trkpt><trkpt lat="39.83563163204517" lon="9.298707905809326"><ele>899.0</ele><time>2026-05-01T09:26:10Z</time></trkpt><trkpt lat="39.83548144284469" lon="9.298792728170742"><ele>899.0</ele><time>2026-05-01T09:26:11Z</time></trkpt><trkpt lat="39.83533711657543" lon="9.298879415479307"><ele>899.0</ele><time>2026-05-01T09:26:12Z</time></trkpt><trkpt lat="39.8351902416579" lon="9.298951580397501"><ele>895.0</ele><time>2026-05-01T09:26:13Z</time></trkpt><trkpt lat="39.835030645083606" lon="9.298973324364578"><ele>891.0</ele><time>2026-05-01T09:26:14Z</time></trkpt><trkpt lat="39.83486510801234" lon="9.298943867845638"><ele>887.0</ele><time>2026-05-01T09:26:15Z</time></trkpt><trkpt lat="39.83470527624283" lon="9.298900850044104"><ele>895.3333333333334</ele><time>2026-05-01T09:26:16Z</time></trkpt><trkpt lat="39.83453893911836" lon="9.298892993418436"><ele>903.6666666666667</ele><time>2026-05-01T09:26:17Z</time></trkpt><trkpt lat="39.834378340854876" lon="9.29887675622327"><ele>912.0</ele><time>2026-05-01T09:26:18Z</time></trkpt><trkpt lat="39.834221517573596" lon="9.298851433165499"><ele>912.25</ele><time>2026-05-01T09:26:19Z</time></trkpt><trkpt lat="39.83407762166152" lon="9.298791926933196"><ele>912.5</ele><time>2026-05-01T09:26:20Z</time></trkpt><trkpt lat="39.83394710833754" lon="9.298805492240668"><ele>912.75</ele><time>2026-05-01T09:26:21Z</time></trkpt><trkpt lat="39.83383723364599" lon="9.298850093611788"><ele>913.0</ele><time>2026-05-01T09:26:22Z</time></trkpt><trkpt lat="39.83376305409053" lon="9.298938788747243"><ele>910.0</ele><time>2026-05-01T09:26:23Z</time></trkpt><trkpt lat="39.83372047863608" lon="9.299073306467822"><ele>907.0</ele><time>2026-05-01T09:26:24Z</time></trkpt><trkpt lat="39.83365294562" lon="9.299206877439243"><ele>904.0</ele><time>2026-05-01T09:26:25Z</time></trkpt><trkpt lat="39.83353565065966" lon="9.299305465287492"><ele>901.0</ele><time>2026-05-01T09:26:26Z</time></trkpt><trkpt lat="39.833395800111" lon="9.299359971927988"><ele>901.0</ele><time>2026-05-01T09:26:27Z</time></trkpt><trkpt lat="39.83323832830931" lon="9.299350163092495"><ele>901.0</ele><time>2026-05-01T09:26:28Z</time></trkpt><trkpt lat="39.8330735408607" lon="9.299326042267756"><ele>901.0</ele><time>2026-05-01T09:26:29Z</time></trkpt><trkpt lat="39.83290578987291" lon="9.299305377270235"><ele>901.0</ele><time>2026-05-01T09:26:30Z</time></trkpt><trkpt lat="39.83273469045644" lon="9.299266456982751"><ele>901.0</ele><time>2026-05-01T09:26:31Z</time></trkpt><trkpt lat="39.832567411499944" lon="9.299255249418309"><ele>901.0</ele><time>2026-05-01T09:26:32Z</time></trkpt><trkpt lat="39.83240862097467" lon="9.299264833716965"><ele>901.6666666666666</ele><time>2026-05-01T09:26:33Z</time></trkpt><trkpt lat="39.83224508029728" lon="9.29926377579218"><ele>902.3333333333333</ele><time>2026-05-01T09:26:34Z</time></trkpt><trkpt lat="39.83208063335298" lon="9.299199476989882"><ele>903.0</ele><time>2026-05-01T09:26:35Z</time></trkpt><trkpt lat="39.831903535736814" lon="9.299160348792785"><ele>901.3333333333333</ele><time>2026-05-01T09:26:36Z</time></trkpt><trkpt lat="39.83173166894024" lon="9.29910068411056"><ele>899.6666666666666</ele><time>2026-05-01T09:26:37Z</time></trkpt><trkpt lat="39.83156299407212" lon="9.299017721506367"><ele>898.0</ele><time>2026-05-01T09:26:38Z</time></trkpt><trkpt lat="39.831401494269286" lon="9.298910395246935"><ele>902.6666666666666</ele><time>2026-05-01T09:26:39Z</time></trkpt><trkpt lat="39.831246886526365" lon="9.298792841859298"><ele>907.3333333333333</ele><time>2026-05-01T09:26:40Z</time></trkpt><trkpt lat="39.83109140386832" lon="9.298695294266953"><ele>912.0</ele><time>2026-05-01T09:26:41Z</time></trkpt><trkpt lat="39.83093434455977" lon="9.298645260312572"><ele>912.0</ele><time>2026-05-01T09:26:42Z</time></trkpt><trkpt lat="39.830770990341605" lon="9.29864691050099"><ele>912.0</ele><time>2026-05-01T09:26:43Z</time></trkpt><trkpt lat="39.8306207157659" lon="9.29869259883197"><ele>912.0</ele><time>2026-05-01T09:26:44Z</time></trkpt><trkpt lat="39.83048137796004" lon="9.29874330130292"><ele>912.0</ele><time>2026-05-01T09:26:45Z</time></trkpt><trkpt lat="39.830342628345534" lon="9.298761787472909"><ele>912.0</ele><time>2026-05-01T09:26:46Z</time></trkpt><trkpt lat="39.83019923386347" lon="9.298742857697574"><ele>912.0</ele><time>2026-05-01T09:26:47Z</time></trkpt><trkpt lat="39.830062615144264" lon="9.298680780713434"><ele>912.0</ele><time>2026-05-01T09:26:48Z</time></trkpt><trkpt lat="39.82992884895417" lon="9.298573993102533"><ele>910.5</ele><time>2026-05-01T09:26:49Z</time></trkpt><trkpt lat="39.82981421615046" lon="9.298450325658893"><ele>909.0</ele><time>2026-05-01T09:26:50Z</time></trkpt><trkpt lat="39.82972873746273" lon="9.298310836536132"><ele>907.5</ele><time>2026-05-01T09:26:51Z</time></trkpt><trkpt lat="39.82968754841986" lon="9.298147472402896"><ele>906.0</ele><time>2026-05-01T09:26:52Z</time></trkpt><trkpt lat="39.82971123820104" lon="9.297989509009534"><ele>906.0</ele><time>2026-05-01T09:26:53Z</time></trkpt><trkpt lat="39.829783106556036" lon="9.297826099506336"><ele>906.0</ele><time>2026-05-01T09:26:54Z</time></trkpt><trkpt lat="39.82984104774853" lon="9.297657223166343"><ele>906.0</ele><time>2026-05-01T09:26:55Z</time></trkpt><trkpt lat="39.829862855315874" lon="9.297462876561882"><ele>906.0</ele><time>2026-05-01T09:26:56Z</time></trkpt><trkpt lat="39.82985703988874" lon="9.297274741230183"><ele>907.75</ele><time>2026-05-01T09:26:57Z</time></trkpt><trkpt lat="39.82981465768004" lon="9.29712289276271"><ele>909.5</ele><time>2026-05-01T09:26:58Z</time></trkpt><trkpt lat="39.82972782312811" lon="9.297003165874681"><ele>911.25</ele><time>2026-05-01T09:26:59Z</time></trkpt><trkpt lat="39.82960613358403" lon="9.296894699819969"><ele>913.0</ele><time>2026-05-01T09:27:00Z</time></trkpt><trkpt lat="39.82949328211436" lon="9.296766639033976"><ele>913.0</ele><time>2026-05-01T09:27:01Z</time></trkpt><trkpt lat="39.82939432458189" lon="9.29662027060338"><ele>913.0</ele><time>2026-05-01T09:27:02Z</time></trkpt><trkpt lat="39.829284822334365" lon="9.296493162515441"><ele>913.0</ele><time>2026-05-01T09:27:03Z</time></trkpt><trkpt lat="39.82916111416344" lon="9.296399083867273"><ele>913.0</ele><time>2026-05-01T09:27:04Z</time></trkpt><trkpt lat="39.82904283790949" lon="9.296301547264264"><ele>908.3333333333333</ele><time>2026-05-01T09:27:05Z</time></trkpt><trkpt lat="39.828942285923155" lon="9.29616549166253"><ele>903.6666666666667</ele><time>2026-05-01T09:27:06Z</time></trkpt><trkpt lat="39.82886328775879" lon="9.29599027558522"><ele>899.0</ele><time>2026-05-01T09:27:07Z</time></trkpt><trkpt lat="39.82878908050708" lon="9.295806485923963"><ele>899.0</ele><time>2026-05-01T09:27:08Z</time></trkpt><trkpt lat="39.828696643507676" lon="9.295632851786529"><ele>899.0</ele><time>2026-05-01T09:27:09Z</time></trkpt><trkpt lat="39.828576684792054" lon="9.295482015124454"><ele>899.0</ele><time>2026-05-01T09:27:10Z</time></trkpt><trkpt lat="39.82844926712829" lon="9.2953658327238"><ele>894.75</ele><time>2026-05-01T09:27:11Z</time></trkpt><trkpt lat="39.82832992281266" lon="9.295241868490242"><ele>890.5</ele><time>2026-05-01T09:27:12Z</time></trkpt><trkpt lat="39.828229461236866" lon="9.295116370441644"><ele>886.25</ele><time>2026-05-01T09:27:13Z</time></trkpt><trkpt lat="39.828155329482506" lon="9.29496038315685"><ele>882.0</ele><time>2026-05-01T09:27:14Z</time></trkpt><trkpt lat="39.82811388931735" lon="9.294774498192526"><ele>880.75</ele><time>2026-05-01T09:27:15Z</time></trkpt><trkpt lat="39.828106700810416" lon="9.294582711995755"><ele>879.5</ele><time>2026-05-01T09:27:16Z</time></trkpt><trkpt lat="39.82812552816148" lon="9.294416863093735"><ele>878.25</ele><time>2026-05-01T09:27:17Z</time></trkpt><trkpt lat="39.82820975376483" lon="9.29427413181503"><ele>877.0</ele><time>2026-05-01T09:27:18Z</time></trkpt><trkpt lat="39.82830809952665" lon="9.294143345669639"><ele>877.0</ele><time>2026-05-01T09:27:19Z</time></trkpt><trkpt lat="39.82843030318769" lon="9.294045821794406"><ele>877.0</ele><time>2026-05-01T09:27:20Z</time></trkpt><trkpt lat="39.82853218177812" lon="9.293927141153134"><ele>877.0</ele><time>2026-05-01T09:27:21Z</time></trkpt><trkpt lat="39.828597370900276" lon="9.293770882671062"><ele>877.0</ele><time>2026-05-01T09:27:22Z</time></trkpt><trkpt lat="39.82863100776815" lon="9.293594754992746"><ele>876.75</ele><time>2026-05-01T09:27:23Z</time></trkpt><trkpt lat="39.82862828739715" lon="9.293404175723383"><ele>876.5</ele><time>2026-05-01T09:27:24Z</time></trkpt><trkpt lat="39.828586931420496" lon="9.293215442509613"><ele>876.25</ele><time>2026-05-01T09:27:25Z</time></trkpt><trkpt lat="39.82851181765062" lon="9.293045001973674"><ele>876.0</ele><time>2026-05-01T09:27:26Z</time></trkpt><trkpt lat="39.828397092721225" lon="9.292914741574533"><ele>876.0</ele><time>2026-05-01T09:27:27Z</time></trkpt><trkpt lat="39.828258237476646" lon="9.292821599089072"><ele>876.0</ele><time>2026-05-01T09:27:28Z</time></trkpt><trkpt lat="39.828101165971525" lon="9.292760662203962"><ele>876.0</ele><time>2026-05-01T09:27:29Z</time></trkpt><trkpt lat="39.827950016413304" lon="9.292700346971092"><ele>876.0</ele><time>2026-05-01T09:27:30Z</time></trkpt><trkpt lat="39.82778326652003" lon="9.292669616777196"><ele>876.0</ele><time>2026-05-01T09:27:31Z</time></trkpt><trkpt lat="39.82760888323896" lon="9.29267090017795"><ele>876.0</ele><time>2026-05-01T09:27:32Z</time></trkpt><trkpt lat="39.827430607579196" lon="9.292677237145702"><ele>874.0</ele><time>2026-05-01T09:27:33Z</time></trkpt><trkpt lat="39.827252479546075" lon="9.292679249448167"><ele>872.0</ele><time>2026-05-01T09:27:34Z</time></trkpt><trkpt lat="39.82707653361033" lon="9.292679025017128"><ele>870.0</ele><time>2026-05-01T09:27:35Z</time></trkpt><trkpt lat="39.82690167443288" lon="9.292676505783533"><ele>866.6666666666667</ele><time>2026-05-01T09:27:36Z</time></trkpt><trkpt lat="39.82673067666192" lon="9.292655629752476"><ele>863.3333333333334</ele><time>2026-05-01T09:27:37Z</time></trkpt><trkpt lat="39.826562775830936" lon="9.29259701608869"><ele>860.0</ele><time>2026-05-01T09:27:38Z</time></trkpt><trkpt lat="39.82640683871708" lon="9.292501802742407"><ele>860.0</ele><time>2026-05-01T09:27:39Z</time></trkpt><trkpt lat="39.82626453110379" lon="9.292366414625143"><ele>860.0</ele><time>2026-05-01T09:27:40Z</time></trkpt><trkpt lat="39.82614047501875" lon="9.292195699538292"><ele>860.0</ele><time>2026-05-01T09:27:41Z</time></trkpt><trkpt lat="39.82603843581004" lon="9.291995053710243"><ele>858.6666666666667</ele><time>2026-05-01T09:27:42Z</time></trkpt><trkpt lat="39.825939510598985" lon="9.291786337690354"><ele>857.3333333333333</ele><time>2026-05-01T09:27:43Z</time></trkpt><trkpt lat="39.82583459402295" lon="9.291580469268961"><ele>856.0</ele><time>2026-05-01T09:27:44Z</time></trkpt><trkpt lat="39.82572625539879" lon="9.291375555144246"><ele>858.6666666666666</ele><time>2026-05-01T09:27:45Z</time></trkpt><trkpt lat="39.82561871682552" lon="9.291177579672231"><ele>861.3333333333333</ele><time>2026-05-01T09:27:46Z</time></trkpt><trkpt lat="39.82551133817199" lon="9.290982087506933"><ele>864.0</ele><time>2026-05-01T09:27:47Z</time></trkpt><trkpt lat="39.825409546218935" lon="9.290786413099141"><ele>862.3333333333333</ele><time>2026-05-01T09:27:48Z</time></trkpt><trkpt lat="39.8253313050913" lon="9.290576776534666"><ele>860.6666666666666</ele><time>2026-05-01T09:27:49Z</time></trkpt><trkpt lat="39.82528481703058" lon="9.29034380143694"><ele>859.0</ele><time>2026-05-01T09:27:50Z</time></trkpt><trkpt lat="39.82524075430159" lon="9.290106762316308"><ele>859.0</ele><time>2026-05-01T09:27:51Z</time></trkpt><trkpt lat="39.82517588804978" lon="9.289879622102854"><ele>859.0</ele><time>2026-05-01T09:27:52Z</time></trkpt><trkpt lat="39.825114581770826" lon="9.289662540003237"><ele>859.0</ele><time>2026-05-01T09:27:53Z</time></trkpt><trkpt lat="39.8250353820923" lon="9.289483545437067"><ele>854.6666666666666</ele><time>2026-05-01T09:27:54Z</time></trkpt><trkpt lat="39.824995392838275" lon="9.289283637115409"><ele>850.3333333333333</ele><time>2026-05-01T09:27:55Z</time></trkpt><trkpt lat="39.824992318417245" lon="9.289087256916742"><ele>846.0</ele><time>2026-05-01T09:27:56Z</time></trkpt><trkpt lat="39.82503525989642" lon="9.288911728797027"><ele>844.0</ele><time>2026-05-01T09:27:57Z</time></trkpt><trkpt lat="39.82511828097013" lon="9.288777188200168"><ele>842.0</ele><time>2026-05-01T09:27:58Z</time></trkpt><trkpt lat="39.82525446650957" lon="9.288720844297787"><ele>840.0</ele><time>2026-05-01T09:27:59Z</time></trkpt><trkpt lat="39.82540848073593" lon="9.288665231688787"><ele>838.0</ele><time>2026-05-01T09:28:00Z</time></trkpt><trkpt lat="39.82556874168586" lon="9.288641018581359"><ele>835.6666666666666</ele><time>2026-05-01T09:28:01Z</time></trkpt><trkpt lat="39.82573132455747" lon="9.288608689489548"><ele>833.3333333333333</ele><time>2026-05-01T09:28:02Z</time></trkpt><trkpt lat="39.82589640195025" lon="9.288600593965583"><ele>831.0</ele><time>2026-05-01T09:28:03Z</time></trkpt><trkpt lat="39.82605551860619" lon="9.288647794044154"><ele>831.3333333333333</ele><time>2026-05-01T09:28:04Z</time></trkpt><trkpt lat="39.826210010944436" lon="9.28874338880124"><ele>831.6666666666666</ele><time>2026-05-01T09:28:05Z</time></trkpt><trkpt lat="39.826357136525665" lon="9.288863348728484"><ele>832.0</ele><time>2026-05-01T09:28:06Z</time></trkpt><trkpt lat="39.82649162157054" lon="9.289013344106984"><ele>832.0</ele><time>2026-05-01T09:28:07Z</time></trkpt><trkpt lat="39.826609669395154" lon="9.289188077248319"><ele>832.0</ele><time>2026-05-01T09:28:08Z</time></trkpt><trkpt lat="39.826726582707344" lon="9.289356851019816"><ele>832.0</ele><time>2026-05-01T09:28:09Z</time></trkpt><trkpt lat="39.8268595343042" lon="9.289500302097636"><ele>831.3333333333333</ele><time>2026-05-01T09:28:10Z</time></trkpt><trkpt lat="39.827019354755315" lon="9.289615255080655"><ele>830.6666666666667</ele><time>2026-05-01T09:28:11Z</time></trkpt><trkpt lat="39.827189722063544" lon="9.28971518387433"><ele>830.0</ele><time>2026-05-01T09:28:12Z</time></trkpt><trkpt lat="39.82736144644616" lon="9.289827985251543"><ele>830.0</ele><time>2026-05-01T09:28:13Z</time></trkpt><trkpt lat="39.827527013181864" lon="9.289950427224412"><ele>830.0</ele><time>2026-05-01T09:28:14Z</time></trkpt><trkpt lat="39.8276905992811" lon="9.290078530549382"><ele>830.0</ele><time>2026-05-01T09:28:15Z</time></trkpt><trkpt lat="39.827849021362574" lon="9.290199160616446"><ele>824.6666666666667</ele><time>2026-05-01T09:28:16Z</time></trkpt><trkpt lat="39.828009962331954" lon="9.290307412870384"><ele>819.3333333333333</ele><time>2026-05-01T09:28:17Z</time></trkpt><trkpt lat="39.828172864148016" lon="9.290393046003665"><ele>814.0</ele><time>2026-05-01T09:28:18Z</time></trkpt><trkpt lat="39.82833955088541" lon="9.290455429008722"><ele>815.3333333333333</ele><time>2026-05-01T09:28:19Z</time></trkpt><trkpt lat="39.82851156926945" lon="9.29049626153958"><ele>816.6666666666667</ele><time>2026-05-01T09:28:20Z</time></trkpt><trkpt lat="39.828688400731366" lon="9.290522527456925"><ele>818.0</ele><time>2026-05-01T09:28:21Z</time></trkpt><trkpt lat="39.82886652816492" lon="9.290542301508873"><ele>818.0</ele><time>2026-05-01T09:28:22Z</time></trkpt><trkpt lat="39.829038480143524" lon="9.290562760138085"><ele>818.0</ele><time>2026-05-01T09:28:23Z</time></trkpt><trkpt lat="39.82919845163889" lon="9.29057381244781"><ele>818.0</ele><time>2026-05-01T09:28:24Z</time></trkpt><trkpt lat="39.82933074802782" lon="9.290560732662708"><ele>821.4</ele><time>2026-05-01T09:28:25Z</time></trkpt><trkpt lat="39.82943999269263" lon="9.290518848137374"><ele>824.8</ele><time>2026-05-01T09:28:26Z</time></trkpt><trkpt lat="39.82952553830569" lon="9.290446374275906"><ele>828.2</ele><time>2026-05-01T09:28:27Z</time></trkpt><trkpt lat="39.82956862009099" lon="9.290339298134779"><ele>831.6</ele><time>2026-05-01T09:28:28Z</time></trkpt><trkpt lat="39.829545918286065" lon="9.290215734773774"><ele>835.0</ele><time>2026-05-01T09:28:29Z</time></trkpt><trkpt lat="39.82946619271074" lon="9.290121386954292"><ele>835.0</ele><time>2026-05-01T09:28:30Z</time></trkpt><trkpt lat="39.82935776380541" lon="9.29007258340137"><ele>835.0</ele><time>2026-05-01T09:28:31Z</time></trkpt><trkpt lat="39.82925706396961" lon="9.29000974835714"><ele>835.0</ele><time>2026-05-01T09:28:32Z</time></trkpt><trkpt lat="39.82914080164913" lon="9.289894704245343"><ele>835.0</ele><time>2026-05-01T09:28:33Z</time></trkpt><trkpt lat="39.829029682123185" lon="9.28975813168165"><ele>833.6666666666666</ele><time>2026-05-01T09:28:34Z</time></trkpt><trkpt lat="39.82891276529867" lon="9.289615131989244"><ele>832.3333333333333</ele><time>2026-05-01T09:28:35Z</time></trkpt><trkpt lat="39.8287985429476" lon="9.289452826034857"><ele>831.0</ele><time>2026-05-01T09:28:36Z</time></trkpt><trkpt lat="39.82870008946609" lon="9.289265719030226"><ele>831.0</ele><time>2026-05-01T09:28:37Z</time></trkpt><trkpt lat="39.82858596606862" lon="9.289100642132954"><ele>831.0</ele><time>2026-05-01T09:28:38Z</time></trkpt><trkpt lat="39.82846453409704" lon="9.2889510116442"><ele>831.0</ele><time>2026-05-01T09:28:39Z</time></trkpt><trkpt lat="39.828355007831235" lon="9.288804556120366"><ele>825.3333333333333</ele><time>2026-05-01T09:28:40Z</time></trkpt><trkpt lat="39.82826853721039" lon="9.288645544911995"><ele>819.6666666666666</ele><time>2026-05-01T09:28:41Z</time></trkpt><trkpt lat="39.82821554276533" lon="9.288454860024448"><ele>814.0</ele><time>2026-05-01T09:28:42Z</time></trkpt><trkpt lat="39.82816558362382" lon="9.288248343624769"><ele>814.0</ele><time>2026-05-01T09:28:43Z</time></trkpt><trkpt lat="39.82810553588541" lon="9.288051518509233"><ele>814.0</ele><time>2026-05-01T09:28:44Z</time></trkpt><trkpt lat="39.82806547758481" lon="9.287859285322522"><ele>814.0</ele><time>2026-05-01T09:28:45Z</time></trkpt><trkpt lat="39.82806081962809" lon="9.2876404247273"><ele>814.0</ele><time>2026-05-01T09:28:46Z</time></trkpt><trkpt lat="39.82807740002335" lon="9.287411323606847"><ele>814.0</ele><time>2026-05-01T09:28:47Z</time></trkpt><trkpt lat="39.82809989609693" lon="9.287189923150764"><ele>814.0</ele><time>2026-05-01T09:28:48Z</time></trkpt><trkpt lat="39.82811689747177" lon="9.286990026880998"><ele>813.5</ele><time>2026-05-01T09:28:49Z</time></trkpt><trkpt lat="39.828120762493036" lon="9.286825548990652"><ele>813.0</ele><time>2026-05-01T09:28:50Z</time></trkpt><trkpt lat="39.82809020553294" lon="9.286691599778214"><ele>812.5</ele><time>2026-05-01T09:28:51Z</time></trkpt><trkpt lat="39.82800974516968" lon="9.286609087387362"><ele>812.0</ele><time>2026-05-01T09:28:52Z</time></trkpt><trkpt lat="39.82789291090628" lon="9.28657748458284"><ele>812.0</ele><time>2026-05-01T09:28:53Z</time></trkpt><trkpt lat="39.82777233441164" lon="9.286515389448258"><ele>812.0</ele><time>2026-05-01T09:28:54Z</time></trkpt><trkpt lat="39.82767326862238" lon="9.286369164850248"><ele>812.0</ele><time>2026-05-01T09:28:55Z</time></trkpt><trkpt lat="39.8276010686485" lon="9.286173133428907"><ele>812.0</ele><time>2026-05-01T09:28:56Z</time></trkpt><trkpt lat="39.8275566459883" lon="9.285979137265157"><ele>809.25</ele><time>2026-05-01T09:28:57Z</time></trkpt><trkpt lat="39.8274889143909" lon="9.285814944376641"><ele>806.5</ele><time>2026-05-01T09:28:58Z</time></trkpt><trkpt lat="39.8273703544902" lon="9.285719250794756"><ele>803.75</ele><time>2026-05-01T09:28:59Z</time></trkpt><trkpt lat="39.82724849807987" lon="9.285652804109118"><ele>801.0</ele><time>2026-05-01T09:29:00Z</time></trkpt><trkpt lat="39.82716493768616" lon="9.285536200153176"><ele>801.0</ele><time>2026-05-01T09:29:01Z</time></trkpt><trkpt lat="39.8271173827802" lon="9.285356126528207"><ele>801.0</ele><time>2026-05-01T09:29:02Z</time></trkpt><trkpt lat="39.82711593241871" lon="9.285149898715927"><ele>801.0</ele><time>2026-05-01T09:29:03Z</time></trkpt><trkpt lat="39.82715699817674" lon="9.284934725429341"><ele>801.0</ele><time>2026-05-01T09:29:04Z</time></trkpt><trkpt lat="39.82719933645426" lon="9.284722230964018"><ele>801.0</ele><time>2026-05-01T09:29:05Z</time></trkpt><trkpt lat="39.8271936810608" lon="9.284496762120964"><ele>801.0</ele><time>2026-05-01T09:29:06Z</time></trkpt><trkpt lat="39.827151683527106" lon="9.284276402377582"><ele>801.0</ele><time>2026-05-01T09:29:07Z</time></trkpt><trkpt lat="39.82710976151739" lon="9.284085993764963"><ele>801.0</ele><time>2026-05-01T09:29:08Z</time></trkpt><trkpt lat="39.82704743604735" lon="9.283947259064321"><ele>801.0</ele><time>2026-05-01T09:29:09Z</time></trkpt><trkpt lat="39.8269309946579" lon="9.28386083811637"><ele>801.0</ele><time>2026-05-01T09:29:10Z</time></trkpt><trkpt lat="39.826779869397875" lon="9.28379135020786"><ele>797.6666666666667</ele><time>2026-05-01T09:29:11Z</time></trkpt><trkpt lat="39.826639541134924" lon="9.283681074615002"><ele>794.3333333333334</ele><time>2026-05-01T09:29:12Z</time></trkpt><trkpt lat="39.82650494084293" lon="9.283517766199122"><ele>791.0</ele><time>2026-05-01T09:29:13Z</time></trkpt><trkpt lat="39.82635746336553" lon="9.283344985759536"><ele>791.0</ele><time>2026-05-01T09:29:14Z</time></trkpt><trkpt lat="39.826196512405645" lon="9.283200503636818"><ele>791.0</ele><time>2026-05-01T09:29:15Z</time></trkpt><trkpt lat="39.82603354190247" lon="9.283085426496266"><ele>791.0</ele><time>2026-05-01T09:29:16Z</time></trkpt><trkpt lat="39.82588216425265" lon="9.28299250160987"><ele>787.5</ele><time>2026-05-01T09:29:17Z</time></trkpt><trkpt lat="39.82575103540578" lon="9.282890597062433"><ele>784.0</ele><time>2026-05-01T09:29:18Z</time></trkpt><trkpt lat="39.82565649066478" lon="9.2827488582754"><ele>780.5</ele><time>2026-05-01T09:29:19Z</time></trkpt><trkpt lat="39.82561441948376" lon="9.282574212411841"><ele>777.0</ele><time>2026-05-01T09:29:20Z</time></trkpt><trkpt lat="39.82561825227469" lon="9.282395268406678"><ele>772.3333333333334</ele><time>2026-05-01T09:29:21Z</time></trkpt><trkpt lat="39.825695924925895" lon="9.282244107740134"><ele>767.6666666666667</ele><time>2026-05-01T09:29:22Z</time></trkpt><trkpt lat="39.82578979261469" lon="9.282086500500002"><ele>763.0</ele><time>2026-05-01T09:29:23Z</time></trkpt><trkpt lat="39.82589883059405" lon="9.28192343414421"><ele>763.0</ele><time>2026-05-01T09:29:24Z</time></trkpt><trkpt lat="39.82601158627361" lon="9.281757999684412"><ele>763.0</ele><time>2026-05-01T09:29:25Z</time></trkpt><trkpt lat="39.82613216741325" lon="9.281584809021199"><ele>763.0</ele><time>2026-05-01T09:29:26Z</time></trkpt><trkpt lat="39.82623116744168" lon="9.281398045952194"><ele>763.0</ele><time>2026-05-01T09:29:27Z</time></trkpt><trkpt lat="39.8263010423476" lon="9.281209411673156"><ele>763.0</ele><time>2026-05-01T09:29:28Z</time></trkpt><trkpt lat="39.82637513454341" lon="9.28104257822989"><ele>763.0</ele><time>2026-05-01T09:29:29Z</time></trkpt><trkpt lat="39.826478192828986" lon="9.280916846846623"><ele>763.0</ele><time>2026-05-01T09:29:30Z</time></trkpt><trkpt lat="39.826608358752836" lon="9.280837156913755"><ele>763.0</ele><time>2026-05-01T09:29:31Z</time></trkpt><trkpt lat="39.8267611646534" lon="9.280800094696076"><ele>763.0</ele><time>2026-05-01T09:29:32Z</time></trkpt><trkpt lat="39.82692384097195" lon="9.280796405290042"><ele>764.3333333333334</ele><time>2026-05-01T09:29:33Z</time></trkpt><trkpt lat="39.8270869349652" lon="9.280793859046428"><ele>765.6666666666666</ele><time>2026-05-01T09:29:34Z</time></trkpt><trkpt lat="39.8272546724537" lon="9.280744598733085"><ele>767.0</ele><time>2026-05-01T09:29:35Z</time></trkpt><trkpt lat="39.827416781565276" lon="9.280662820432292"><ele>765.0</ele><time>2026-05-01T09:29:36Z</time></trkpt><trkpt lat="39.82757760496402" lon="9.28057898845147"><ele>763.0</ele><time>2026-05-01T09:29:37Z</time></trkpt><trkpt lat="39.82774073331815" lon="9.280516108482471"><ele>761.0</ele><time>2026-05-01T09:29:38Z</time></trkpt><trkpt lat="39.82789622244738" lon="9.280486708071717"><ele>761.0</ele><time>2026-05-01T09:29:39Z</time></trkpt><trkpt lat="39.82803493548908" lon="9.280502704678481"><ele>761.0</ele><time>2026-05-01T09:29:40Z</time></trkpt><trkpt lat="39.828154202550856" lon="9.28056567749064"><ele>761.0</ele><time>2026-05-01T09:29:41Z</time></trkpt><trkpt lat="39.82825725618776" lon="9.280671252584527"><ele>761.0</ele><time>2026-05-01T09:29:42Z</time></trkpt><trkpt lat="39.82834969470617" lon="9.280743187940237"><ele>761.8</ele><time>2026-05-01T09:29:43Z</time></trkpt><trkpt lat="39.82844271540155" lon="9.28074016450495"><ele>762.5999999999999</ele><time>2026-05-01T09:29:44Z</time></trkpt><trkpt lat="39.82852001811089" lon="9.280665591713888"><ele>763.4</ele><time>2026-05-01T09:29:45Z</time></trkpt><trkpt lat="39.828570161053634" lon="9.28052756297563"><ele>764.2</ele><time>2026-05-01T09:29:46Z</time></trkpt><trkpt lat="39.828580250319604" lon="9.280358596206158"><ele>765.0</ele><time>2026-05-01T09:29:47Z</time></trkpt><trkpt lat="39.82854808667972" lon="9.280179797910309"><ele>763.6666666666666</ele><time>2026-05-01T09:29:48Z</time></trkpt><trkpt lat="39.828467939631366" lon="9.280019460740089"><ele>762.3333333333333</ele><time>2026-05-01T09:29:49Z</time></trkpt><trkpt lat="39.82834142451328" lon="9.279878478718919"><ele>761.0</ele><time>2026-05-01T09:29:50Z</time></trkpt><trkpt lat="39.82819543882199" lon="9.279749056550923"><ele>768.3333333333333</ele><time>2026-05-01T09:29:51Z</time></trkpt><trkpt lat="39.828039106142874" lon="9.279622581389873"><ele>775.6666666666666</ele><time>2026-05-01T09:29:52Z</time></trkpt><trkpt lat="39.82788295425501" lon="9.279533305485758"><ele>783.0</ele><time>2026-05-01T09:29:53Z</time></trkpt><trkpt lat="39.82772193802248" lon="9.279527545661704"><ele>781.3333333333333</ele><time>2026-05-01T09:29:54Z</time></trkpt><trkpt lat="39.82756979898938" lon="9.279563879767935"><ele>779.6666666666666</ele><time>2026-05-01T09:29:55Z</time></trkpt><trkpt lat="39.827423990150784" lon="9.279567567061974"><ele>778.0</ele><time>2026-05-01T09:29:56Z</time></trkpt><trkpt lat="39.82727298336137" lon="9.279499147008694"><ele>778.0</ele><time>2026-05-01T09:29:57Z</time></trkpt><trkpt lat="39.827120817452595" lon="9.279393714939554"><ele>778.0</ele><time>2026-05-01T09:29:58Z</time></trkpt><trkpt lat="39.826963878631815" lon="9.279266266235718"><ele>778.0</ele><time>2026-05-01T09:29:59Z</time></trkpt><trkpt lat="39.8267910114527" lon="9.279156223365867"><ele>775.6666666666666</ele><time>2026-05-01T09:30:00Z</time></trkpt><trkpt lat="39.82661346801676" lon="9.279072874197242"><ele>773.3333333333333</ele><time>2026-05-01T09:30:01Z</time></trkpt><trkpt lat="39.826443510814805" lon="9.279007137581145"><ele>771.0</ele><time>2026-05-01T09:30:02Z</time></trkpt><trkpt lat="39.82628069828639" lon="9.278944318675999"><ele>771.0</ele><time>2026-05-01T09:30:03Z</time></trkpt><trkpt lat="39.82611839772036" lon="9.27890371533012"><ele>771.0</ele><time>2026-05-01T09:30:04Z</time></trkpt><trkpt lat="39.82596950983203" lon="9.278916756967563"><ele>771.0</ele><time>2026-05-01T09:30:05Z</time></trkpt><trkpt lat="39.825833574977466" lon="9.278940345232925"><ele>771.0</ele><time>2026-05-01T09:30:06Z</time></trkpt><trkpt lat="39.82571884597407" lon="9.27898281918453"><ele>771.0</ele><time>2026-05-01T09:30:07Z</time></trkpt><trkpt lat="39.82561247318164" lon="9.278937154147451"><ele>771.0</ele><time>2026-05-01T09:30:08Z</time></trkpt><trkpt lat="39.82553986557337" lon="9.278833535944468"><ele>771.0</ele><time>2026-05-01T09:30:09Z</time></trkpt><trkpt lat="39.82553308257103" lon="9.27870095736493"><ele>771.0</ele><time>2026-05-01T09:30:10Z</time></trkpt><trkpt lat="39.82558035560831" lon="9.278552244864228"><ele>773.0</ele><time>2026-05-01T09:30:11Z</time></trkpt><trkpt lat="39.82569156683999" lon="9.278416685673275"><ele>775.0</ele><time>2026-05-01T09:30:12Z</time></trkpt><trkpt lat="39.82582984245286" lon="9.278305682060104"><ele>777.0</ele><time>2026-05-01T09:30:13Z</time></trkpt><trkpt lat="39.82597065440741" lon="9.278224043431026"><ele>778.75</ele><time>2026-05-01T09:30:14Z</time></trkpt><trkpt lat="39.82611220279692" lon="9.278165844295998"><ele>780.5</ele><time>2026-05-01T09:30:15Z</time></trkpt><trkpt lat="39.826244060830675" lon="9.278113877487709"><ele>782.25</ele><time>2026-05-01T09:30:16Z</time></trkpt><trkpt lat="39.82635174378109" lon="9.278046510102609"><ele>784.0</ele><time>2026-05-01T09:30:17Z</time></trkpt><trkpt lat="39.82640312574102" lon="9.277953825850844"><ele>784.5</ele><time>2026-05-01T09:30:18Z</time></trkpt><trkpt lat="39.826395272783245" lon="9.277847240594417"><ele>785.0</ele><time>2026-05-01T09:30:19Z</time></trkpt><trkpt lat="39.82633424208581" lon="9.277729366007227"><ele>785.5</ele><time>2026-05-01T09:30:20Z</time></trkpt><trkpt lat="39.826225073130395" lon="9.277645500584434"><ele>786.0</ele><time>2026-05-01T09:30:21Z</time></trkpt><trkpt lat="39.82610093288848" lon="9.277587391512286"><ele>786.0</ele><time>2026-05-01T09:30:22Z</time></trkpt><trkpt lat="39.825988067645355" lon="9.277528067735384"><ele>786.0</ele><time>2026-05-01T09:30:23Z</time></trkpt><trkpt lat="39.825889907163834" lon="9.277469978441928"><ele>786.0</ele><time>2026-05-01T09:30:24Z</time></trkpt><trkpt lat="39.82580110180506" lon="9.277404783979618"><ele>786.0</ele><time>2026-05-01T09:30:25Z</time></trkpt><trkpt lat="39.82572010200469" lon="9.277321447001299"><ele>786.0</ele><time>2026-05-01T09:30:26Z</time></trkpt><trkpt lat="39.82565332962807" lon="9.27722363286462"><ele>786.1999999999999</ele><time>2026-05-01T09:30:27Z</time></trkpt><trkpt lat="39.8256041840008" lon="9.277113789436214"><ele>786.4</ele><time>2026-05-01T09:30:28Z</time></trkpt><trkpt lat="39.825573078673045" lon="9.277005161857634"><ele>786.6</ele><time>2026-05-01T09:30:29Z</time></trkpt><trkpt lat="39.825562692064246" lon="9.276899476124129"><ele>786.8</ele><time>2026-05-01T09:30:30Z</time></trkpt><trkpt lat="39.825652993737805" lon="9.276770009078147"><ele>787.0</ele><time>2026-05-01T09:30:32Z</time></trkpt><trkpt lat="39.82575164612566" lon="9.27674566011254"><ele>787.0</ele><time>2026-05-01T09:30:33Z</time></trkpt><trkpt lat="39.825858367478574" lon="9.276702512229237"><ele>787.0</ele><time>2026-05-01T09:30:34Z</time></trkpt><trkpt lat="39.82598897748311" lon="9.276676118297754"><ele>787.0</ele><time>2026-05-01T09:30:35Z</time></trkpt><trkpt lat="39.82613177751254" lon="9.276640893694085"><ele>787.0</ele><time>2026-05-01T09:30:36Z</time></trkpt><trkpt lat="39.82628586819351" lon="9.276604221451075"><ele>788.6666666666666</ele><time>2026-05-01T09:30:37Z</time></trkpt><trkpt lat="39.82645880204905" lon="9.276566719499693"><ele>790.3333333333333</ele><time>2026-05-01T09:30:38Z</time></trkpt><trkpt lat="39.82663142677373" lon="9.276529530822442"><ele>792.0</ele><time>2026-05-01T09:30:39Z</time></trkpt><trkpt lat="39.82681280359205" lon="9.276486149796257"><ele>794.0</ele><time>2026-05-01T09:30:40Z</time></trkpt><trkpt lat="39.82700537801224" lon="9.27643644314568"><ele>796.0</ele><time>2026-05-01T09:30:41Z</time></trkpt><trkpt lat="39.82720528507961" lon="9.276385930424826"><ele>798.0</ele><time>2026-05-01T09:30:42Z</time></trkpt><trkpt lat="39.82740194425873" lon="9.27634036220234"><ele>798.0</ele><time>2026-05-01T09:30:43Z</time></trkpt><trkpt lat="39.82759167654717" lon="9.27629631949602"><ele>798.0</ele><time>2026-05-01T09:30:44Z</time></trkpt><trkpt lat="39.82777653765258" lon="9.27624453028433"><ele>798.0</ele><time>2026-05-01T09:30:45Z</time></trkpt><trkpt lat="39.82795921045328" lon="9.276171263229045"><ele>799.0</ele><time>2026-05-01T09:30:46Z</time></trkpt><trkpt lat="39.82814007970457" lon="9.276071940679346"><ele>800.0</ele><time>2026-05-01T09:30:47Z</time></trkpt><trkpt lat="39.82832304542189" lon="9.275965332710868"><ele>801.0</ele><time>2026-05-01T09:30:48Z</time></trkpt><trkpt lat="39.82850151930409" lon="9.275858913736405"><ele>801.3333333333333</ele><time>2026-05-01T09:30:49Z</time></trkpt><trkpt lat="39.82867737804967" lon="9.275731446253939"><ele>801.6666666666666</ele><time>2026-05-01T09:30:50Z</time></trkpt><trkpt lat="39.828842781815474" lon="9.275573393127681"><ele>802.0</ele><time>2026-05-01T09:30:51Z</time></trkpt><trkpt lat="39.82900608288178" lon="9.275402958657873"><ele>802.0</ele><time>2026-05-01T09:30:52Z</time></trkpt><trkpt lat="39.82917304076726" lon="9.275238246105435"><ele>802.0</ele><time>2026-05-01T09:30:53Z</time></trkpt><trkpt lat="39.82933512752347" lon="9.275090328713805"><ele>802.0</ele><time>2026-05-01T09:30:54Z</time></trkpt><trkpt lat="39.829500754651654" lon="9.274964932125815"><ele>803.6666666666666</ele><time>2026-05-01T09:30:55Z</time></trkpt><trkpt lat="39.82967926778088" lon="9.274876881977578"><ele>805.3333333333333</ele><time>2026-05-01T09:30:56Z</time></trkpt><trkpt lat="39.82987080295669" lon="9.274828425793883"><ele>807.0</ele><time>2026-05-01T09:30:57Z</time></trkpt><trkpt lat="39.8300664636674" lon="9.274788262390484"><ele>805.6666666666667</ele><time>2026-05-01T09:30:58Z</time></trkpt><trkpt lat="39.830260739480465" lon="9.27474301680766"><ele>804.3333333333334</ele><time>2026-05-01T09:30:59Z</time></trkpt><trkpt lat="39.83045448155932" lon="9.274695188778237"><ele>803.0</ele><time>2026-05-01T09:31:00Z</time></trkpt><trkpt lat="39.830650800851195" lon="9.274647974338055"><ele>803.0</ele><time>2026-05-01T09:31:01Z</time></trkpt><trkpt lat="39.830843088208645" lon="9.274603543509812"><ele>803.0</ele><time>2026-05-01T09:31:02Z</time></trkpt><trkpt lat="39.831021209042746" lon="9.274578156969307"><ele>803.0</ele><time>2026-05-01T09:31:03Z</time></trkpt><trkpt lat="39.83119356699197" lon="9.274591971914088"><ele>803.6666666666667</ele><time>2026-05-01T09:31:04Z</time></trkpt><trkpt lat="39.831363204406905" lon="9.274648066900221"><ele>804.3333333333333</ele><time>2026-05-01T09:31:05Z</time></trkpt><trkpt lat="39.83152753753464" lon="9.274712572975346"><ele>805.0</ele><time>2026-05-01T09:31:06Z</time></trkpt><trkpt lat="39.831690559572074" lon="9.274768041448377"><ele>806.3333333333333</ele><time>2026-05-01T09:31:07Z</time></trkpt><trkpt lat="39.83185441454593" lon="9.274815490255685"><ele>807.6666666666667</ele><time>2026-05-01T09:31:08Z</time></trkpt><trkpt lat="39.83201475498778" lon="9.274838767229305"><ele>809.0</ele><time>2026-05-01T09:31:09Z</time></trkpt><trkpt lat="39.83218129776259" lon="9.274815126566287"><ele>809.3333333333334</ele><time>2026-05-01T09:31:10Z</time></trkpt><trkpt lat="39.83233899826571" lon="9.274743293159855"><ele>809.6666666666667</ele><time>2026-05-01T09:31:11Z</time></trkpt><trkpt lat="39.83248820866059" lon="9.274643258486115"><ele>810.0</ele><time>2026-05-01T09:31:12Z</time></trkpt><trkpt lat="39.83264564712573" lon="9.274545721644879"><ele>810.0</ele><time>2026-05-01T09:31:13Z</time></trkpt><trkpt lat="39.83280969016305" lon="9.274435166806848"><ele>810.0</ele><time>2026-05-01T09:31:14Z</time></trkpt><trkpt lat="39.832979323496325" lon="9.274331597304762"><ele>810.0</ele><time>2026-05-01T09:31:15Z</time></trkpt><trkpt lat="39.8331553195207" lon="9.274224727627248"><ele>810.0</ele><time>2026-05-01T09:31:16Z</time></trkpt><trkpt lat="39.833336097087134" lon="9.274115192901249"><ele>810.0</ele><time>2026-05-01T09:31:17Z</time></trkpt><trkpt lat="39.833519678739634" lon="9.274009528560962"><ele>810.0</ele><time>2026-05-01T09:31:18Z</time></trkpt><trkpt lat="39.833709525102904" lon="9.27392757757346"><ele>809.0</ele><time>2026-05-01T09:31:19Z</time></trkpt><trkpt lat="39.83390772465385" lon="9.273890382291027"><ele>808.0</ele><time>2026-05-01T09:31:20Z</time></trkpt><trkpt lat="39.834111898672575" lon="9.273885322151724"><ele>807.0</ele><time>2026-05-01T09:31:21Z</time></trkpt><trkpt lat="39.834317160963806" lon="9.273884125887555"><ele>806.6666666666667</ele><time>2026-05-01T09:31:22Z</time></trkpt><trkpt lat="39.83451910241201" lon="9.273879648761794"><ele>806.3333333333334</ele><time>2026-05-01T09:31:23Z</time></trkpt><trkpt lat="39.83471336000267" lon="9.273876572031723"><ele>806.0</ele><time>2026-05-01T09:31:24Z</time></trkpt><trkpt lat="39.834903011387325" lon="9.273889028046332"><ele>807.6666666666667</ele><time>2026-05-01T09:31:25Z</time></trkpt><trkpt lat="39.835088834479855" lon="9.273941513694584"><ele>809.3333333333333</ele><time>2026-05-01T09:31:26Z</time></trkpt><trkpt lat="39.835274919186155" lon="9.27403163833722"><ele>811.0</ele><time>2026-05-01T09:31:27Z</time></trkpt><trkpt lat="39.835462421735514" lon="9.274132487265232"><ele>811.0</ele><time>2026-05-01T09:31:28Z</time></trkpt><trkpt lat="39.835659632659784" lon="9.274213182947467"><ele>811.0</ele><time>2026-05-01T09:31:29Z</time></trkpt><trkpt lat="39.8358674532438" lon="9.27427484747161"><ele>811.0</ele><time>2026-05-01T09:31:30Z</time></trkpt><trkpt lat="39.83607576110629" lon="9.274334261428077"><ele>811.6666666666666</ele><time>2026-05-01T09:31:31Z</time></trkpt><trkpt lat="39.83628120594202" lon="9.274395314409324"><ele>812.3333333333333</ele><time>2026-05-01T09:31:32Z</time></trkpt><trkpt lat="39.836481972645146" lon="9.274458451197056"><ele>813.0</ele><time>2026-05-01T09:31:33Z</time></trkpt><trkpt lat="39.836672575495186" lon="9.27453152039398"><ele>813.6666666666667</ele><time>2026-05-01T09:31:34Z</time></trkpt><trkpt lat="39.83685577518334" lon="9.274630734855098"><ele>814.3333333333334</ele><time>2026-05-01T09:31:35Z</time></trkpt><trkpt lat="39.83703285557836" lon="9.274765751955316"><ele>815.0</ele><time>2026-05-01T09:31:36Z</time></trkpt><trkpt lat="39.83721618075204" lon="9.274895542098887"><ele>816.3333333333334</ele><time>2026-05-01T09:31:37Z</time></trkpt><trkpt lat="39.837408418722305" lon="9.275013935992906"><ele>817.6666666666667</ele><time>2026-05-01T09:31:38Z</time></trkpt><trkpt lat="39.83761367599061" lon="9.275119332918166"><ele>819.0</ele><time>2026-05-01T09:31:39Z</time></trkpt><trkpt lat="39.837825541965735" lon="9.275224308600077"><ele>821.5</ele><time>2026-05-01T09:31:40Z</time></trkpt><trkpt lat="39.83804133527159" lon="9.275329717605471"><ele>824.0</ele><time>2026-05-01T09:31:41Z</time></trkpt><trkpt lat="39.83825818661976" lon="9.275436785146482"><ele>826.5</ele><time>2026-05-01T09:31:42Z</time></trkpt><trkpt lat="39.838475126045985" lon="9.275546112191103"><ele>829.0</ele><time>2026-05-01T09:31:43Z</time></trkpt><trkpt lat="39.838691436019" lon="9.275657690358894"><ele>830.0</ele><time>2026-05-01T09:31:44Z</time></trkpt><trkpt lat="39.8389040616058" lon="9.275767031824035"><ele>831.0</ele><time>2026-05-01T09:31:45Z</time></trkpt><trkpt lat="39.83910975840969" lon="9.275871427267317"><ele>832.0</ele><time>2026-05-01T09:31:46Z</time></trkpt><trkpt lat="39.83930791069518" lon="9.275966203202367"><ele>833.0</ele><time>2026-05-01T09:31:47Z</time></trkpt><trkpt lat="39.83949664990862" lon="9.276039033672467"><ele>834.0</ele><time>2026-05-01T09:31:48Z</time></trkpt><trkpt lat="39.839684088216934" lon="9.276074889972868"><ele>835.0</ele><time>2026-05-01T09:31:49Z</time></trkpt><trkpt lat="39.839874103569926" lon="9.276072872301214"><ele>835.0</ele><time>2026-05-01T09:31:50Z</time></trkpt><trkpt lat="39.840062918939054" lon="9.276036781751863"><ele>835.0</ele><time>2026-05-01T09:31:51Z</time></trkpt><trkpt lat="39.84024939354676" lon="9.275973634521229"><ele>835.0</ele><time>2026-05-01T09:31:52Z</time></trkpt><trkpt lat="39.84043614255974" lon="9.275902878110015"><ele>837.6666666666666</ele><time>2026-05-01T09:31:53Z</time></trkpt><trkpt lat="39.8406256228826" lon="9.275837044597528"><ele>840.3333333333333</ele><time>2026-05-01T09:31:54Z</time></trkpt><trkpt lat="39.84081890238934" lon="9.275772805090208"><ele>843.0</ele><time>2026-05-01T09:31:55Z</time></trkpt><trkpt lat="39.841014214326194" lon="9.275705873055145"><ele>844.6666666666667</ele><time>2026-05-01T09:31:56Z</time></trkpt><trkpt lat="39.841211343228935" lon="9.275637087405862"><ele>846.3333333333334</ele><time>2026-05-01T09:31:57Z</time></trkpt><trkpt lat="39.84140998538259" lon="9.275565608812933"><ele>848.0</ele><time>2026-05-01T09:31:58Z</time></trkpt><trkpt lat="39.84160889712287" lon="9.275493594305146"><ele>845.0</ele><time>2026-05-01T09:31:59Z</time></trkpt><trkpt lat="39.84180092254057" lon="9.275426129402446"><ele>842.0</ele><time>2026-05-01T09:32:00Z</time></trkpt><trkpt lat="39.84198005705833" lon="9.275367667776207"><ele>839.0</ele><time>2026-05-01T09:32:01Z</time></trkpt><trkpt lat="39.842152069511435" lon="9.27531739652954"><ele>839.0</ele><time>2026-05-01T09:32:02Z</time></trkpt><trkpt lat="39.84231965171361" lon="9.275291724371408"><ele>839.0</ele><time>2026-05-01T09:32:03Z</time></trkpt><trkpt lat="39.84247929326403" lon="9.275310057040754"><ele>839.0</ele><time>2026-05-01T09:32:04Z</time></trkpt><trkpt lat="39.842631263975605" lon="9.275287891610112"><ele>836.0</ele><time>2026-05-01T09:32:05Z</time></trkpt><trkpt lat="39.84277872691788" lon="9.275419934715623"><ele>833.0</ele><time>2026-05-01T09:32:06Z</time></trkpt><trkpt lat="39.84292176644144" lon="9.275474584390347"><ele>830.0</ele><time>2026-05-01T09:32:07Z</time></trkpt><trkpt lat="39.84305994280175" lon="9.27554029983288"><ele>831.6666666666667</ele><time>2026-05-01T09:32:08Z</time></trkpt><trkpt lat="39.84318899652643" lon="9.275643775389765"><ele>833.3333333333333</ele><time>2026-05-01T09:32:09Z</time></trkpt><trkpt lat="39.84330201054979" lon="9.275793411918116"><ele>835.0</ele><time>2026-05-01T09:32:10Z</time></trkpt><trkpt lat="39.84340481095603" lon="9.275968222400497"><ele>829.6666666666666</ele><time>2026-05-01T09:32:11Z</time></trkpt><trkpt lat="39.843502929823245" lon="9.276154987918822"><ele>824.3333333333333</ele><time>2026-05-01T09:32:12Z</time></trkpt><trkpt lat="39.84358469317058" lon="9.27635511565982"><ele>819.0</ele><time>2026-05-01T09:32:13Z</time></trkpt><trkpt lat="39.84364232669751" lon="9.276573343244825"><ele>819.0</ele><time>2026-05-01T09:32:14Z</time></trkpt><trkpt lat="39.8436590786077" lon="9.276795500758139"><ele>819.0</ele><time>2026-05-01T09:32:15Z</time></trkpt><trkpt lat="39.84363052880788" lon="9.277019950188734"><ele>819.0</ele><time>2026-05-01T09:32:16Z</time></trkpt><trkpt lat="39.84356907178465" lon="9.277245528510118"><ele>816.3333333333333</ele><time>2026-05-01T09:32:17Z</time></trkpt><trkpt lat="39.84347886295567" lon="9.277455068021085"><ele>813.6666666666666</ele><time>2026-05-01T09:32:18Z</time></trkpt><trkpt lat="39.84336663902731" lon="9.277652524449184"><ele>811.0</ele><time>2026-05-01T09:32:19Z</time></trkpt><trkpt lat="39.843250748696114" lon="9.277851389099958"><ele>812.0</ele><time>2026-05-01T09:32:20Z</time></trkpt><trkpt lat="39.84314313412098" lon="9.278053863733541"><ele>813.0</ele><time>2026-05-01T09:32:21Z</time></trkpt><trkpt lat="39.843039453557985" lon="9.278254956193877"><ele>814.0</ele><time>2026-05-01T09:32:22Z</time></trkpt><trkpt lat="39.84293112358894" lon="9.278447165574116"><ele>814.0</ele><time>2026-05-01T09:32:23Z</time></trkpt><trkpt lat="39.84280878815592" lon="9.278619293256503"><ele>814.0</ele><time>2026-05-01T09:32:24Z</time></trkpt><trkpt lat="39.84268117768831" lon="9.278770401086822"><ele>814.0</ele><time>2026-05-01T09:32:25Z</time></trkpt><trkpt lat="39.84254895841541" lon="9.278907231849125"><ele>814.0</ele><time>2026-05-01T09:32:26Z</time></trkpt><trkpt lat="39.84242827357602" lon="9.279041576658843"><ele>814.0</ele><time>2026-05-01T09:32:27Z</time></trkpt><trkpt lat="39.84232604846487" lon="9.279185647288948"><ele>814.0</ele><time>2026-05-01T09:32:28Z</time></trkpt><trkpt lat="39.84225661299883" lon="9.279339156003672"><ele>814.0</ele><time>2026-05-01T09:32:29Z</time></trkpt><trkpt lat="39.842227928536715" lon="9.279492497100088"><ele>814.0</ele><time>2026-05-01T09:32:30Z</time></trkpt><trkpt lat="39.84225405318828" lon="9.279633398824762"><ele>814.0</ele><time>2026-05-01T09:32:31Z</time></trkpt><trkpt lat="39.84233000223457" lon="9.279752384807514"><ele>814.0</ele><time>2026-05-01T09:32:32Z</time></trkpt><trkpt lat="39.842444544607645" lon="9.27982499842031"><ele>814.0</ele><time>2026-05-01T09:32:33Z</time></trkpt><trkpt lat="39.84258974808256" lon="9.279843464765953"><ele>811.3333333333333</ele><time>2026-05-01T09:32:34Z</time></trkpt><trkpt lat="39.84275172037161" lon="9.279850741513725"><ele>808.6666666666667</ele><time>2026-05-01T09:32:35Z</time></trkpt><trkpt lat="39.842916144558366" lon="9.279856153580441"><ele>806.0</ele><time>2026-05-01T09:32:36Z</time></trkpt><trkpt lat="39.84308205502481" lon="9.27986836381473"><ele>806.0</ele><time>2026-05-01T09:32:37Z</time></trkpt><trkpt lat="39.84325513597894" lon="9.279883292136601"><ele>806.0</ele><time>2026-05-01T09:32:38Z</time></trkpt><trkpt lat="39.843433803352795" lon="9.279883003279098"><ele>806.0</ele><time>2026-05-01T09:32:39Z</time></trkpt><trkpt lat="39.843610827505294" lon="9.279850633883377"><ele>804.0</ele><time>2026-05-01T09:32:40Z</time></trkpt><trkpt lat="39.843778410097684" lon="9.279778414736189"><ele>802.0</ele><time>2026-05-01T09:32:41Z</time></trkpt><trkpt lat="39.843935984095644" lon="9.279655238896009"><ele>800.0</ele><time>2026-05-01T09:32:42Z</time></trkpt><trkpt lat="39.84408744660873" lon="9.279504965520577"><ele>800.6666666666667</ele><time>2026-05-01T09:32:43Z</time></trkpt><trkpt lat="39.84424491901628" lon="9.279349086202899"><ele>801.3333333333333</ele><time>2026-05-01T09:32:44Z</time></trkpt><trkpt lat="39.84440905721096" lon="9.27919515640135"><ele>802.0</ele><time>2026-05-01T09:32:45Z</time></trkpt><trkpt lat="39.84457622845832" lon="9.279038304989916"><ele>797.3333333333333</ele><time>2026-05-01T09:32:46Z</time></trkpt><trkpt lat="39.8447383865637" lon="9.278874173905534"><ele>792.6666666666667</ele><time>2026-05-01T09:32:47Z</time></trkpt><trkpt lat="39.8448977838979" lon="9.278710746590448"><ele>788.0</ele><time>2026-05-01T09:32:48Z</time></trkpt><trkpt lat="39.84505703232399" lon="9.278555359904855"><ele>788.3333333333334</ele><time>2026-05-01T09:32:49Z</time></trkpt><trkpt lat="39.84521331476886" lon="9.278402487553588"><ele>788.6666666666667</ele><time>2026-05-01T09:32:50Z</time></trkpt><trkpt lat="39.8453470746758" lon="9.278222505220558"><ele>789.0</ele><time>2026-05-01T09:32:51Z</time></trkpt><trkpt lat="39.845456054294864" lon="9.27801180566259"><ele>789.0</ele><time>2026-05-01T09:32:52Z</time></trkpt><trkpt lat="39.8455575570967" lon="9.27780257466492"><ele>789.0</ele><time>2026-05-01T09:32:53Z</time></trkpt><trkpt lat="39.84565564043039" lon="9.27760775562656"><ele>789.0</ele><time>2026-05-01T09:32:54Z</time></trkpt><trkpt lat="39.84575126751002" lon="9.277425368862168"><ele>786.6666666666667</ele><time>2026-05-01T09:32:55Z</time></trkpt><trkpt lat="39.84585653018687" lon="9.277258576730022"><ele>784.3333333333334</ele><time>2026-05-01T09:32:56Z</time></trkpt><trkpt lat="39.84597054365558" lon="9.277119282019672"><ele>782.0</ele><time>2026-05-01T09:32:57Z</time></trkpt><trkpt lat="39.84610539233811" lon="9.277026066957687"><ele>781.6666666666667</ele><time>2026-05-01T09:32:58Z</time></trkpt><trkpt lat="39.84626455225309" lon="9.276985501907781"><ele>781.3333333333333</ele><time>2026-05-01T09:32:59Z</time></trkpt><trkpt lat="39.84643490857282" lon="9.27695897589388"><ele>781.0</ele><time>2026-05-01T09:33:00Z</time></trkpt><trkpt lat="39.84659387746994" lon="9.276918699798589"><ele>781.0</ele><time>2026-05-01T09:33:01Z</time></trkpt><trkpt lat="39.846732094329326" lon="9.276863332890201"><ele>781.0</ele><time>2026-05-01T09:33:02Z</time></trkpt><trkpt lat="39.84683816750043" lon="9.276764927820624"><ele>781.0</ele><time>2026-05-01T09:33:03Z</time></trkpt><trkpt lat="39.84690103865409" lon="9.276617794927594"><ele>781.0</ele><time>2026-05-01T09:33:04Z</time></trkpt><trkpt lat="39.84691857461768" lon="9.276432745378392"><ele>780.75</ele><time>2026-05-01T09:33:05Z</time></trkpt><trkpt lat="39.84688623872186" lon="9.276250630453434"><ele>780.5</ele><time>2026-05-01T09:33:06Z</time></trkpt><trkpt lat="39.8468137037929" lon="9.276077457897173"><ele>780.25</ele><time>2026-05-01T09:33:07Z</time></trkpt><trkpt lat="39.84679247889773" lon="9.275893317452438"><ele>780.0</ele><time>2026-05-01T09:33:08Z</time></trkpt><trkpt lat="39.84682889656308" lon="9.275716012204132"><ele>784.3333333333333</ele><time>2026-05-01T09:33:09Z</time></trkpt><trkpt lat="39.846910342524154" lon="9.275568420268922"><ele>788.6666666666666</ele><time>2026-05-01T09:33:10Z</time></trkpt><trkpt lat="39.84703007321673" lon="9.275449640734418"><ele>793.0</ele><time>2026-05-01T09:33:11Z</time></trkpt><trkpt lat="39.84715880653466" lon="9.27531433595591"><ele>793.0</ele><time>2026-05-01T09:33:12Z</time></trkpt><trkpt lat="39.847294312912695" lon="9.275161443230038"><ele>793.0</ele><time>2026-05-01T09:33:13Z</time></trkpt><trkpt lat="39.847436752163404" lon="9.2750054705714"><ele>793.0</ele><time>2026-05-01T09:33:14Z</time></trkpt><trkpt lat="39.8475801745763" lon="9.274840515615596"><ele>794.6666666666666</ele><time>2026-05-01T09:33:15Z</time></trkpt><trkpt lat="39.847731794051484" lon="9.274682750331184"><ele>796.3333333333333</ele><time>2026-05-01T09:33:16Z</time></trkpt><trkpt lat="39.84789211290867" lon="9.274571624355238"><ele>798.0</ele><time>2026-05-01T09:33:17Z</time></trkpt><trkpt lat="39.84805714127245" lon="9.274517971234081"><ele>798.0</ele><time>2026-05-01T09:33:18Z</time></trkpt><trkpt lat="39.848222996747204" lon="9.274517048587471"><ele>798.0</ele><time>2026-05-01T09:33:19Z</time></trkpt><trkpt lat="39.8483833313842" lon="9.274561589187465"><ele>798.0</ele><time>2026-05-01T09:33:20Z</time></trkpt><trkpt lat="39.84853761831169" lon="9.274657339981676"><ele>796.6666666666667</ele><time>2026-05-01T09:33:21Z</time></trkpt><trkpt lat="39.84868884907584" lon="9.274781812310568"><ele>795.3333333333334</ele><time>2026-05-01T09:33:22Z</time></trkpt><trkpt lat="39.848840512646994" lon="9.274904380913773"><ele>794.0</ele><time>2026-05-01T09:33:23Z</time></trkpt><trkpt lat="39.84898557556557" lon="9.275013461396169"><ele>794.0</ele><time>2026-05-01T09:33:24Z</time></trkpt><trkpt lat="39.849121147280904" lon="9.275092820791567"><ele>794.0</ele><time>2026-05-01T09:33:25Z</time></trkpt><trkpt lat="39.84925864003116" lon="9.275105822875249"><ele>794.0</ele><time>2026-05-01T09:33:26Z</time></trkpt><trkpt lat="39.849404654392536" lon="9.275054773543417"><ele>794.0</ele><time>2026-05-01T09:33:27Z</time></trkpt><trkpt lat="39.849560785426" lon="9.274935416429942"><ele>795.0</ele><time>2026-05-01T09:33:28Z</time></trkpt><trkpt lat="39.84971350509931" lon="9.274788955745755"><ele>796.0</ele><time>2026-05-01T09:33:29Z</time></trkpt><trkpt lat="39.8498745888277" lon="9.274638612284134"><ele>797.0</ele><time>2026-05-01T09:33:30Z</time></trkpt><trkpt lat="39.8500367906969" lon="9.274516827194317"><ele>789.6666666666667</ele><time>2026-05-01T09:33:31Z</time></trkpt><trkpt lat="39.85019063374704" lon="9.27440237384641"><ele>782.3333333333333</ele><time>2026-05-01T09:33:32Z</time></trkpt><trkpt lat="39.85033873363372" lon="9.274291911331666"><ele>775.0</ele><time>2026-05-01T09:33:33Z</time></trkpt><trkpt lat="39.850496528763905" lon="9.27423451615856"><ele>775.0</ele><time>2026-05-01T09:33:34Z</time></trkpt><trkpt lat="39.85067298095974" lon="9.274230431475814"><ele>775.0</ele><time>2026-05-01T09:33:35Z</time></trkpt><trkpt lat="39.85085195318913" lon="9.274274932643175"><ele>775.0</ele><time>2026-05-01T09:33:36Z</time></trkpt><trkpt lat="39.851045632305976" lon="9.274346847855572"><ele>771.3333333333333</ele><time>2026-05-01T09:33:37Z</time></trkpt><trkpt lat="39.851246022423254" lon="9.274422007346375"><ele>767.6666666666666</ele><time>2026-05-01T09:33:38Z</time></trkpt><trkpt lat="39.85144704090541" lon="9.274493521078192"><ele>764.0</ele><time>2026-05-01T09:33:39Z</time></trkpt><trkpt lat="39.85164434710455" lon="9.274561245310393"><ele>765.0</ele><time>2026-05-01T09:33:40Z</time></trkpt><trkpt lat="39.851833524047244" lon="9.274628241295584"><ele>766.0</ele><time>2026-05-01T09:33:41Z</time></trkpt><trkpt lat="39.85201285805104" lon="9.274695009348592"><ele>767.0</ele><time>2026-05-01T09:33:42Z</time></trkpt><trkpt lat="39.85217338265946" lon="9.274753751618375"><ele>767.0</ele><time>2026-05-01T09:33:43Z</time></trkpt><trkpt lat="39.85231652258996" lon="9.274800949075027"><ele>767.0</ele><time>2026-05-01T09:33:44Z</time></trkpt><trkpt lat="39.85244617280293" lon="9.274790560436463"><ele>767.0</ele><time>2026-05-01T09:33:45Z</time></trkpt><trkpt lat="39.85255735626645" lon="9.274725880636357"><ele>767.0</ele><time>2026-05-01T09:33:46Z</time></trkpt><trkpt lat="39.85262293480306" lon="9.274625599666683"><ele>767.0</ele><time>2026-05-01T09:33:47Z</time></trkpt><trkpt lat="39.85263634121431" lon="9.274482207222128"><ele>767.0</ele><time>2026-05-01T09:33:48Z</time></trkpt><trkpt lat="39.852593364260095" lon="9.274330354316687"><ele>767.0</ele><time>2026-05-01T09:33:49Z</time></trkpt><trkpt lat="39.85250161677382" lon="9.274180603448354"><ele>767.0</ele><time>2026-05-01T09:33:50Z</time></trkpt><trkpt lat="39.852415639097636" lon="9.274021684531263"><ele>766.5</ele><time>2026-05-01T09:33:51Z</time></trkpt><trkpt lat="39.85233085175556" lon="9.273856510207684"><ele>766.0</ele><time>2026-05-01T09:33:52Z</time></trkpt><trkpt lat="39.8522465288769" lon="9.27369802250499"><ele>765.5</ele><time>2026-05-01T09:33:53Z</time></trkpt><trkpt lat="39.852184312265194" lon="9.273536750759947"><ele>765.0</ele><time>2026-05-01T09:33:54Z</time></trkpt><trkpt lat="39.852164164038534" lon="9.273378466520098"><ele>765.0</ele><time>2026-05-01T09:33:55Z</time></trkpt><trkpt lat="39.852196792046534" lon="9.273227337747787"><ele>765.0</ele><time>2026-05-01T09:33:56Z</time></trkpt><trkpt lat="39.85229069607428" lon="9.2731124879613"><ele>765.0</ele><time>2026-05-01T09:33:57Z</time></trkpt><trkpt lat="39.85241062293769" lon="9.273065161318419"><ele>765.0</ele><time>2026-05-01T09:33:58Z</time></trkpt><trkpt lat="39.8525404855013" lon="9.273092606178778"><ele>764.75</ele><time>2026-05-01T09:33:59Z</time></trkpt><trkpt lat="39.85265990061002" lon="9.27316849560743"><ele>764.5</ele><time>2026-05-01T09:34:00Z</time></trkpt><trkpt lat="39.85278646528686" lon="9.273238770297173"><ele>764.25</ele><time>2026-05-01T09:34:01Z</time></trkpt><trkpt lat="39.85293944444565" lon="9.273277621017012"><ele>764.0</ele><time>2026-05-01T09:34:02Z</time></trkpt><trkpt lat="39.853101952689414" lon="9.2733048983561"><ele>764.0</ele><time>2026-05-01T09:34:03Z</time></trkpt><trkpt lat="39.85327236940513" lon="9.273332461080043"><ele>764.0</ele><time>2026-05-01T09:34:04Z</time></trkpt><trkpt lat="39.85344969332608" lon="9.273365727190518"><ele>764.0</ele><time>2026-05-01T09:34:05Z</time></trkpt><trkpt lat="39.853631994265065" lon="9.27340801717942"><ele>762.3333333333333</ele><time>2026-05-01T09:34:06Z</time></trkpt><trkpt lat="39.853814663997795" lon="9.273454245600862"><ele>760.6666666666666</ele><time>2026-05-01T09:34:07Z</time></trkpt><trkpt lat="39.85399151857305" lon="9.273498796633287"><ele>759.0</ele><time>2026-05-01T09:34:08Z</time></trkpt><trkpt lat="39.85416050525716" lon="9.273543525226753"><ele>760.0</ele><time>2026-05-01T09:34:09Z</time></trkpt><trkpt lat="39.854316590088864" lon="9.273603725427622"><ele>761.0</ele><time>2026-05-01T09:34:10Z</time></trkpt><trkpt lat="39.854455676900635" lon="9.273706027271356"><ele>762.0</ele><time>2026-05-01T09:34:11Z</time></trkpt><trkpt lat="39.85457083424258" lon="9.273859063078621"><ele>763.5</ele><time>2026-05-01T09:34:12Z</time></trkpt><trkpt lat="39.85465597572283" lon="9.27403400683813"><ele>765.0</ele><time>2026-05-01T09:34:13Z</time></trkpt><trkpt lat="39.85473907096046" lon="9.274187778715975"><ele>766.5</ele><time>2026-05-01T09:34:14Z</time></trkpt><trkpt lat="39.85483771881134" lon="9.274288057446311"><ele>768.0</ele><time>2026-05-01T09:34:15Z</time></trkpt><trkpt lat="39.854956505955016" lon="9.274337478824508"><ele>768.0</ele><time>2026-05-01T09:34:16Z</time></trkpt><trkpt lat="39.855091709426894" lon="9.274347086475684"><ele>768.0</ele><time>2026-05-01T09:34:17Z</time></trkpt><trkpt lat="39.85521864060643" lon="9.274303269236396"><ele>768.0</ele><time>2026-05-01T09:34:18Z</time></trkpt><trkpt lat="39.85533970561228" lon="9.274202267868167"><ele>768.0</ele><time>2026-05-01T09:34:19Z</time></trkpt><trkpt lat="39.855453092410166" lon="9.274058662119149"><ele>770.3333333333333</ele><time>2026-05-01T09:34:20Z</time></trkpt><trkpt lat="39.855571856373295" lon="9.27390497649381"><ele>772.6666666666666</ele><time>2026-05-01T09:34:21Z</time></trkpt><trkpt lat="39.855701940212825" lon="9.273747139429537"><ele>775.0</ele><time>2026-05-01T09:34:22Z</time></trkpt><trkpt lat="39.85583539357422" lon="9.273582416425807"><ele>775.0</ele><time>2026-05-01T09:34:23Z</time></trkpt><trkpt lat="39.85595266860768" lon="9.27341796792776"><ele>775.0</ele><time>2026-05-01T09:34:24Z</time></trkpt><trkpt lat="39.856061442773125" lon="9.273247751104183"><ele>775.0</ele><time>2026-05-01T09:34:25Z</time></trkpt><trkpt lat="39.85616969561108" lon="9.273086769302385"><ele>776.6666666666666</ele><time>2026-05-01T09:34:26Z</time></trkpt><trkpt lat="39.85630231538803" lon="9.272947515099755"><ele>778.3333333333333</ele><time>2026-05-01T09:34:27Z</time></trkpt><trkpt lat="39.85646371842697" lon="9.272848346983228"><ele>780.0</ele><time>2026-05-01T09:34:28Z</time></trkpt><trkpt lat="39.85662862256374" lon="9.272768582563575"><ele>784.3333333333333</ele><time>2026-05-01T09:34:29Z</time></trkpt><trkpt lat="39.85678858763813" lon="9.272655083772008"><ele>788.6666666666666</ele><time>2026-05-01T09:34:30Z</time></trkpt><trkpt lat="39.856933247147566" lon="9.272485361702579"><ele>793.0</ele><time>2026-05-01T09:34:31Z</time></trkpt><trkpt lat="39.85707248949992" lon="9.272296698734909"><ele>792.3333333333333</ele><time>2026-05-01T09:34:32Z</time></trkpt><trkpt lat="39.857207714995134" lon="9.272104718012843"><ele>791.6666666666667</ele><time>2026-05-01T09:34:33Z</time></trkpt><trkpt lat="39.857329362207025" lon="9.271890661896927"><ele>791.0</ele><time>2026-05-01T09:34:34Z</time></trkpt><trkpt lat="39.857428698851905" lon="9.271660749456421"><ele>791.0</ele><time>2026-05-01T09:34:35Z</time></trkpt><trkpt lat="39.85749995115247" lon="9.27146516608331"><ele>791.0</ele><time>2026-05-01T09:34:36Z</time></trkpt><trkpt lat="39.85752589083875" lon="9.27126533613486"><ele>791.0</ele><time>2026-05-01T09:34:37Z</time></trkpt><trkpt lat="39.85750070639437" lon="9.271067488319321"><ele>791.75</ele><time>2026-05-01T09:34:38Z</time></trkpt><trkpt lat="39.85743209586358" lon="9.270892626228274"><ele>792.5</ele><time>2026-05-01T09:34:39Z</time></trkpt><trkpt lat="39.85737288118427" lon="9.270732683886344"><ele>793.25</ele><time>2026-05-01T09:34:40Z</time></trkpt><trkpt lat="39.857358158696705" lon="9.270569079727638"><ele>794.0</ele><time>2026-05-01T09:34:41Z</time></trkpt><trkpt lat="39.85739855287299" lon="9.270394693908516"><ele>794.0</ele><time>2026-05-01T09:34:42Z</time></trkpt><trkpt lat="39.85749009462642" lon="9.27023098988064"><ele>794.0</ele><time>2026-05-01T09:34:43Z</time></trkpt><trkpt lat="39.85760404766002" lon="9.270069447204806"><ele>794.0</ele><time>2026-05-01T09:34:44Z</time></trkpt><trkpt lat="39.857727536810714" lon="9.269904959727437"><ele>794.0</ele><time>2026-05-01T09:34:45Z</time></trkpt><trkpt lat="39.85786950265302" lon="9.269757006157786"><ele>794.0</ele><time>2026-05-01T09:34:46Z</time></trkpt><trkpt lat="39.8580281627056" lon="9.269618742282496"><ele>794.0</ele><time>2026-05-01T09:34:47Z</time></trkpt><trkpt lat="39.85818389052842" lon="9.269482954451579"><ele>794.0</ele><time>2026-05-01T09:34:48Z</time></trkpt><trkpt lat="39.858327623791034" lon="9.26931829845915"><ele>794.0</ele><time>2026-05-01T09:34:49Z</time></trkpt><trkpt lat="39.85843480100432" lon="9.269131816535005"><ele>794.0</ele><time>2026-05-01T09:34:50Z</time></trkpt><trkpt lat="39.858521072551056" lon="9.268941679388506"><ele>792.0</ele><time>2026-05-01T09:34:51Z</time></trkpt><trkpt lat="39.85862009913585" lon="9.268792711098914"><ele>790.0</ele><time>2026-05-01T09:34:52Z</time></trkpt><trkpt lat="39.858750947614176" lon="9.268702601548553"><ele>788.0</ele><time>2026-05-01T09:34:53Z</time></trkpt><trkpt lat="39.858887950384215" lon="9.268667173905195"><ele>786.0</ele><time>2026-05-01T09:34:54Z</time></trkpt><trkpt lat="39.85903879255576" lon="9.268704915497482"><ele>786.0</ele><time>2026-05-01T09:34:55Z</time></trkpt><trkpt lat="39.859190526852714" lon="9.268805217987065"><ele>786.0</ele><time>2026-05-01T09:34:56Z</time></trkpt><trkpt lat="39.8593230327498" lon="9.26894429296695"><ele>786.0</ele><time>2026-05-01T09:34:57Z</time></trkpt><trkpt lat="39.859449441209804" lon="9.269065029700307"><ele>789.5</ele><time>2026-05-01T09:34:58Z</time></trkpt><trkpt lat="39.85958360571251" lon="9.269133233772564"><ele>793.0</ele><time>2026-05-01T09:34:59Z</time></trkpt><trkpt lat="39.85972989835015" lon="9.269137390422316"><ele>796.5</ele><time>2026-05-01T09:35:00Z</time></trkpt><trkpt lat="39.859876295413294" lon="9.269079059115638"><ele>800.0</ele><time>2026-05-01T09:35:01Z</time></trkpt><trkpt lat="39.8600098848645" lon="9.268964126685551"><ele>802.3333333333334</ele><time>2026-05-01T09:35:02Z</time></trkpt><trkpt lat="39.86011668884274" lon="9.268802196897953"><ele>804.6666666666667</ele><time>2026-05-01T09:35:03Z</time></trkpt><trkpt lat="39.86018749928977" lon="9.268605306705968"><ele>807.0</ele><time>2026-05-01T09:35:04Z</time></trkpt><trkpt lat="39.86023776916327" lon="9.268399674574217"><ele>807.0</ele><time>2026-05-01T09:35:05Z</time></trkpt><trkpt lat="39.860299029885354" lon="9.268196835930814"><ele>807.0</ele><time>2026-05-01T09:35:06Z</time></trkpt><trkpt lat="39.86037896381794" lon="9.268008593687384"><ele>807.0</ele><time>2026-05-01T09:35:07Z</time></trkpt><trkpt lat="39.86048511230165" lon="9.267833378911464"><ele>804.6666666666667</ele><time>2026-05-01T09:35:08Z</time></trkpt><trkpt lat="39.86060851436001" lon="9.26766810033293"><ele>802.3333333333334</ele><time>2026-05-01T09:35:09Z</time></trkpt><trkpt lat="39.860734922497215" lon="9.267512388349036"><ele>800.0</ele><time>2026-05-01T09:35:10Z</time></trkpt><trkpt lat="39.86086695276118" lon="9.267382266853465"><ele>801.3333333333334</ele><time>2026-05-01T09:35:11Z</time></trkpt><trkpt lat="39.86102014553657" lon="9.267289299771589"><ele>802.6666666666667</ele><time>2026-05-01T09:35:12Z</time></trkpt><trkpt lat="39.86118331122866" lon="9.26721869734858"><ele>804.0</ele><time>2026-05-01T09:35:13Z</time></trkpt><trkpt lat="39.86134795604745" lon="9.267144187810299"><ele>804.0</ele><time>2026-05-01T09:35:14Z</time></trkpt><trkpt lat="39.861511401368574" lon="9.267064008037561"><ele>804.0</ele><time>2026-05-01T09:35:15Z</time></trkpt><trkpt lat="39.86166065908631" lon="9.266967571745566"><ele>804.0</ele><time>2026-05-01T09:35:16Z</time></trkpt><trkpt lat="39.86179152335876" lon="9.266833137300202"><ele>808.3333333333333</ele><time>2026-05-01T09:35:17Z</time></trkpt><trkpt lat="39.861905082443386" lon="9.266657982260096"><ele>812.6666666666666</ele><time>2026-05-01T09:35:18Z</time></trkpt><trkpt lat="39.862003447948936" lon="9.26647378914426"><ele>817.0</ele><time>2026-05-01T09:35:19Z</time></trkpt><trkpt lat="39.86210597410977" lon="9.266294585091046"><ele>817.0</ele><time>2026-05-01T09:35:20Z</time></trkpt><trkpt lat="39.86221361256242" lon="9.266123833886255"><ele>817.0</ele><time>2026-05-01T09:35:21Z</time></trkpt><trkpt lat="39.862332972548614" lon="9.265970172047169"><ele>817.0</ele><time>2026-05-01T09:35:22Z</time></trkpt><trkpt lat="39.862475571303214" lon="9.265847417814955"><ele>822.0</ele><time>2026-05-01T09:35:23Z</time></trkpt><trkpt lat="39.86263454284888" lon="9.265766535554517"><ele>827.0</ele><time>2026-05-01T09:35:24Z</time></trkpt><trkpt lat="39.86279974023046" lon="9.265699471970931"><ele>832.0</ele><time>2026-05-01T09:35:25Z</time></trkpt><trkpt lat="39.86296498616793" lon="9.265621679028904"><ele>828.3333333333333</ele><time>2026-05-01T09:35:26Z</time></trkpt><trkpt lat="39.86312376802106" lon="9.26554145778168"><ele>824.6666666666667</ele><time>2026-05-01T09:35:27Z</time></trkpt><trkpt lat="39.86328276243167" lon="9.265463179918052"><ele>821.0</ele><time>2026-05-01T09:35:28Z</time></trkpt><trkpt lat="39.86344385367149" lon="9.26539808190951"><ele>820.0</ele><time>2026-05-01T09:35:29Z</time></trkpt><trkpt lat="39.86360771267765" lon="9.265354616202611"><ele>819.0</ele><time>2026-05-01T09:35:30Z</time></trkpt><trkpt lat="39.86377388750101" lon="9.265347473920025"><ele>818.0</ele><time>2026-05-01T09:35:31Z</time></trkpt><trkpt lat="39.86393280972044" lon="9.265366518041038"><ele>818.0</ele><time>2026-05-01T09:35:32Z</time></trkpt><trkpt lat="39.86408670280213" lon="9.265382841365565"><ele>818.0</ele><time>2026-05-01T09:35:33Z</time></trkpt><trkpt lat="39.864240408251305" lon="9.26538286090527"><ele>818.0</ele><time>2026-05-01T09:35:34Z</time></trkpt><trkpt lat="39.86439784918931" lon="9.265357835648711"><ele>816.6666666666667</ele><time>2026-05-01T09:35:35Z</time></trkpt><trkpt lat="39.86455616997917" lon="9.265300967289997"><ele>815.3333333333333</ele><time>2026-05-01T09:35:36Z</time></trkpt><trkpt lat="39.86470977810197" lon="9.265220646782538"><ele>814.0</ele><time>2026-05-01T09:35:37Z</time></trkpt><trkpt lat="39.86486330293917" lon="9.265130571223951"><ele>814.0</ele><time>2026-05-01T09:35:38Z</time></trkpt><trkpt lat="39.86500426380367" lon="9.265011420646227"><ele>814.0</ele><time>2026-05-01T09:35:39Z</time></trkpt><trkpt lat="39.86511325851417" lon="9.264859552775834"><ele>814.0</ele><time>2026-05-01T09:35:40Z</time></trkpt><trkpt lat="39.86520846784736" lon="9.264703335197042"><ele>810.0</ele><time>2026-05-01T09:35:41Z</time></trkpt><trkpt lat="39.86530541299972" lon="9.264563038505644"><ele>806.0</ele><time>2026-05-01T09:35:42Z</time></trkpt><trkpt lat="39.86542174629414" lon="9.26447025795358"><ele>802.0</ele><time>2026-05-01T09:35:43Z</time></trkpt><trkpt lat="39.86555521005838" lon="9.26443133776765"><ele>798.0</ele><time>2026-05-01T09:35:44Z</time></trkpt><trkpt lat="39.86570054505302" lon="9.264469740086994"><ele>798.0</ele><time>2026-05-01T09:35:45Z</time></trkpt><trkpt lat="39.865857055072205" lon="9.264480091520507"><ele>798.0</ele><time>2026-05-01T09:35:46Z</time></trkpt><trkpt lat="39.866014118493254" lon="9.264484479062233"><ele>798.0</ele><time>2026-05-01T09:35:47Z</time></trkpt><trkpt lat="39.86618434856001" lon="9.26446503136807"><ele>797.0</ele><time>2026-05-01T09:35:48Z</time></trkpt><trkpt lat="39.86636471396595" lon="9.264426462729366"><ele>796.0</ele><time>2026-05-01T09:35:49Z</time></trkpt><trkpt lat="39.866552562928845" lon="9.264391159348943"><ele>795.0</ele><time>2026-05-01T09:35:50Z</time></trkpt><trkpt lat="39.8667458313542" lon="9.264369187535726"><ele>794.0</ele><time>2026-05-01T09:35:51Z</time></trkpt><trkpt lat="39.86694087452172" lon="9.264362726261588"><ele>793.0</ele><time>2026-05-01T09:35:52Z</time></trkpt><trkpt lat="39.86713343862971" lon="9.264364591700147"><ele>792.0</ele><time>2026-05-01T09:35:53Z</time></trkpt><trkpt lat="39.86731995513779" lon="9.264387333124233"><ele>792.0</ele><time>2026-05-01T09:35:54Z</time></trkpt><trkpt lat="39.86750216188364" lon="9.264389318867783"><ele>792.0</ele><time>2026-05-01T09:35:55Z</time></trkpt><trkpt lat="39.86766828996854" lon="9.264373906318898"><ele>792.0</ele><time>2026-05-01T09:35:56Z</time></trkpt><trkpt lat="39.86781917487468" lon="9.264415067184856"><ele>792.5</ele><time>2026-05-01T09:35:57Z</time></trkpt><trkpt lat="39.86794243524553" lon="9.26453087917036"><ele>793.0</ele><time>2026-05-01T09:35:58Z</time></trkpt><trkpt lat="39.86805840913349" lon="9.264601681935597"><ele>793.5</ele><time>2026-05-01T09:35:59Z</time></trkpt><trkpt lat="39.86816976322865" lon="9.264637177117086"><ele>794.0</ele><time>2026-05-01T09:36:00Z</time></trkpt><trkpt lat="39.8682882925803" lon="9.264612640341054"><ele>794.0</ele><time>2026-05-01T09:36:01Z</time></trkpt><trkpt lat="39.86840222203484" lon="9.264548777741958"><ele>794.0</ele><time>2026-05-01T09:36:02Z</time></trkpt><trkpt lat="39.868474564896715" lon="9.2644045007609"><ele>794.0</ele><time>2026-05-01T09:36:03Z</time></trkpt><trkpt lat="39.868518173078286" lon="9.264251015451437"><ele>794.0</ele><time>2026-05-01T09:36:04Z</time></trkpt><trkpt lat="39.86850923503428" lon="9.26408243987591"><ele>796.5</ele><time>2026-05-01T09:36:05Z</time></trkpt><trkpt lat="39.868442853776315" lon="9.26392651883377"><ele>799.0</ele><time>2026-05-01T09:36:06Z</time></trkpt><trkpt lat="39.86833245017344" lon="9.263794076936046"><ele>801.5</ele><time>2026-05-01T09:36:07Z</time></trkpt><trkpt lat="39.86820192138508" lon="9.263678234377066"><ele>804.0</ele><time>2026-05-01T09:36:08Z</time></trkpt><trkpt lat="39.86807083189352" lon="9.263558872071977"><ele>804.0</ele><time>2026-05-01T09:36:09Z</time></trkpt><trkpt lat="39.867946048276046" lon="9.26343417614903"><ele>804.0</ele><time>2026-05-01T09:36:10Z</time></trkpt><trkpt lat="39.86782464696756" lon="9.263313792901716"><ele>804.0</ele><time>2026-05-01T09:36:11Z</time></trkpt><trkpt lat="39.86771463215426" lon="9.263192454416957"><ele>803.25</ele><time>2026-05-01T09:36:12Z</time></trkpt><trkpt lat="39.867649272266824" lon="9.263059212240242"><ele>802.5</ele><time>2026-05-01T09:36:13Z</time></trkpt><trkpt lat="39.86764417078711" lon="9.262914106791692"><ele>801.75</ele><time>2026-05-01T09:36:14Z</time></trkpt><trkpt lat="39.86769882872844" lon="9.262787678992945"><ele>801.0</ele><time>2026-05-01T09:36:15Z</time></trkpt><trkpt lat="39.86780585438795" lon="9.262705503544545"><ele>801.0</ele><time>2026-05-01T09:36:16Z</time></trkpt><trkpt lat="39.867944161899864" lon="9.262671610415756"><ele>801.0</ele><time>2026-05-01T09:36:17Z</time></trkpt><trkpt lat="39.86811090543749" lon="9.262668182837771"><ele>801.0</ele><time>2026-05-01T09:36:18Z</time></trkpt><trkpt lat="39.86828491670841" lon="9.262619625317074"><ele>806.0</ele><time>2026-05-01T09:36:19Z</time></trkpt><trkpt lat="39.86846300623464" lon="9.262553408985882"><ele>811.0</ele><time>2026-05-01T09:36:20Z</time></trkpt><trkpt lat="39.86865306639082" lon="9.262502050596472"><ele>816.0</ele><time>2026-05-01T09:36:21Z</time></trkpt><trkpt lat="39.868836130607356" lon="9.262455879321795"><ele>816.0</ele><time>2026-05-01T09:36:22Z</time></trkpt><trkpt lat="39.869015274316695" lon="9.262402435032994"><ele>816.0</ele><time>2026-05-01T09:36:23Z</time></trkpt><trkpt lat="39.86918750076226" lon="9.262312414412982"><ele>816.0</ele><time>2026-05-01T09:36:24Z</time></trkpt><trkpt lat="39.86934640352077" lon="9.262183301143663"><ele>816.0</ele><time>2026-05-01T09:36:25Z</time></trkpt><trkpt lat="39.86949870449053" lon="9.262039798293694"><ele>816.0</ele><time>2026-05-01T09:36:26Z</time></trkpt><trkpt lat="39.86964408226404" lon="9.261905432282218"><ele>816.0</ele><time>2026-05-01T09:36:27Z</time></trkpt><trkpt lat="39.86978343896685" lon="9.261780834081284"><ele>816.0</ele><time>2026-05-01T09:36:28Z</time></trkpt><trkpt lat="39.86991056108679" lon="9.261647615680788"><ele>816.0</ele><time>2026-05-01T09:36:29Z</time></trkpt><trkpt lat="39.87000435970509" lon="9.261488893130212"><ele>816.0</ele><time>2026-05-01T09:36:30Z</time></trkpt><trkpt lat="39.87004101055286" lon="9.261299431204383"><ele>817.0</ele><time>2026-05-01T09:36:31Z</time></trkpt><trkpt lat="39.87002659522968" lon="9.261092099596835"><ele>818.0</ele><time>2026-05-01T09:36:32Z</time></trkpt><trkpt lat="39.87001980705514" lon="9.260907811372324"><ele>819.0</ele><time>2026-05-01T09:36:33Z</time></trkpt><trkpt lat="39.87006302816729" lon="9.260736851696706"><ele>820.0</ele><time>2026-05-01T09:36:34Z</time></trkpt><trkpt lat="39.87015327747432" lon="9.260582662681237"><ele>820.0</ele><time>2026-05-01T09:36:35Z</time></trkpt><trkpt lat="39.87027005803627" lon="9.260419548826274"><ele>820.0</ele><time>2026-05-01T09:36:36Z</time></trkpt><trkpt lat="39.87039627288962" lon="9.26025550343391"><ele>820.0</ele><time>2026-05-01T09:36:37Z</time></trkpt><trkpt lat="39.87053325622514" lon="9.260079622321218"><ele>820.0</ele><time>2026-05-01T09:36:38Z</time></trkpt><trkpt lat="39.870679081302974" lon="9.25989996997377"><ele>820.0</ele><time>2026-05-01T09:36:39Z</time></trkpt><trkpt lat="39.87083352516765" lon="9.259719630229933"><ele>820.0</ele><time>2026-05-01T09:36:40Z</time></trkpt><trkpt lat="39.870988048257864" lon="9.259539071386358"><ele>821.6666666666666</ele><time>2026-05-01T09:36:41Z</time></trkpt><trkpt lat="39.871140880830175" lon="9.259364457369491"><ele>823.3333333333333</ele><time>2026-05-01T09:36:42Z</time></trkpt><trkpt lat="39.871287384926156" lon="9.259197152261422"><ele>825.0</ele><time>2026-05-01T09:36:43Z</time></trkpt><trkpt lat="39.871427129127504" lon="9.259028378930422"><ele>816.0</ele><time>2026-05-01T09:36:44Z</time></trkpt><trkpt lat="39.871552265900846" lon="9.258843813803715"><ele>807.0</ele><time>2026-05-01T09:36:45Z</time></trkpt><trkpt lat="39.87164721298328" lon="9.258623584332545"><ele>798.0</ele><time>2026-05-01T09:36:46Z</time></trkpt><trkpt lat="39.87172131787749" lon="9.258379076761264"><ele>796.3333333333333</ele><time>2026-05-01T09:36:47Z</time></trkpt><trkpt lat="39.871794710669924" lon="9.258138651577458"><ele>794.6666666666666</ele><time>2026-05-01T09:36:48Z</time></trkpt><trkpt lat="39.87186939244113" lon="9.257911002334586"><ele>793.0</ele><time>2026-05-01T09:36:49Z</time></trkpt><trkpt lat="39.871948021873486" lon="9.257712283753467"><ele>793.0</ele><time>2026-05-01T09:36:50Z</time></trkpt><trkpt lat="39.871996396861064" lon="9.257598774407338"><ele>793.0</ele><time>2026-05-01T09:36:51Z</time></trkpt><trkpt lat="39.8720953871948" lon="9.25752115871351"><ele>793.0</ele><time>2026-05-01T09:36:52Z</time></trkpt><trkpt lat="39.872220433123836" lon="9.257529139605541"><ele>793.0</ele><time>2026-05-01T09:36:53Z</time></trkpt><trkpt lat="39.87236560975724" lon="9.257520369077687"><ele>793.0</ele><time>2026-05-01T09:36:54Z</time></trkpt><trkpt lat="39.87252440797531" lon="9.257528208326274"><ele>793.0</ele><time>2026-05-01T09:36:55Z</time></trkpt><trkpt lat="39.87269826604787" lon="9.25753082077171"><ele>793.0</ele><time>2026-05-01T09:36:56Z</time></trkpt><trkpt lat="39.87287282726598" lon="9.257542299588033"><ele>792.0</ele><time>2026-05-01T09:36:57Z</time></trkpt><trkpt lat="39.873056052021234" lon="9.257553085966315"><ele>791.0</ele><time>2026-05-01T09:36:58Z</time></trkpt><trkpt lat="39.87324095415971" lon="9.257535218917413"><ele>790.0</ele><time>2026-05-01T09:36:59Z</time></trkpt><trkpt lat="39.87342282876521" lon="9.257479570444252"><ele>792.0</ele><time>2026-05-01T09:37:00Z</time></trkpt><trkpt lat="39.873601120421775" lon="9.257415677846927"><ele>794.0</ele><time>2026-05-01T09:37:01Z</time></trkpt><trkpt lat="39.873774844871846" lon="9.25737957331154"><ele>796.0</ele><time>2026-05-01T09:37:02Z</time></trkpt><trkpt lat="39.87394195961959" lon="9.257369363049673"><ele>796.0</ele><time>2026-05-01T09:37:03Z</time></trkpt><trkpt lat="39.874089840040305" lon="9.257360114984879"><ele>796.0</ele><time>2026-05-01T09:37:04Z</time></trkpt><trkpt lat="39.87422109113282" lon="9.25733974009004"><ele>796.0</ele><time>2026-05-01T09:37:05Z</time></trkpt><trkpt lat="39.874333879541794" lon="9.257285319108698"><ele>796.0</ele><time>2026-05-01T09:37:06Z</time></trkpt><trkpt lat="39.87442290303914" lon="9.257174802642787"><ele>794.5</ele><time>2026-05-01T09:37:07Z</time></trkpt><trkpt lat="39.87447243091251" lon="9.257016191403219"><ele>793.0</ele><time>2026-05-01T09:37:08Z</time></trkpt><trkpt lat="39.87449840624892" lon="9.256837299349897"><ele>791.5</ele><time>2026-05-01T09:37:09Z</time></trkpt><trkpt lat="39.87451817059221" lon="9.256666386682744"><ele>790.0</ele><time>2026-05-01T09:37:10Z</time></trkpt><trkpt lat="39.87456431389066" lon="9.25650782035027"><ele>784.5</ele><time>2026-05-01T09:37:11Z</time></trkpt><trkpt lat="39.87465084418814" lon="9.256378516394784"><ele>779.0</ele><time>2026-05-01T09:37:12Z</time></trkpt><trkpt lat="39.874765393366445" lon="9.25627908805886"><ele>773.5</ele><time>2026-05-01T09:37:13Z</time></trkpt><trkpt lat="39.874897050448475" lon="9.256193949869157"><ele>768.0</ele><time>2026-05-01T09:37:14Z</time></trkpt><trkpt lat="39.875033415845955" lon="9.256109365344246"><ele>766.25</ele><time>2026-05-01T09:37:15Z</time></trkpt><trkpt lat="39.87516850065564" lon="9.25603270183786"><ele>764.5</ele><time>2026-05-01T09:37:16Z</time></trkpt><trkpt lat="39.87530913448014" lon="9.255992701001677"><ele>762.75</ele><time>2026-05-01T09:37:17Z</time></trkpt><trkpt lat="39.87545601119464" lon="9.256034852797184"><ele>761.0</ele><time>2026-05-01T09:37:18Z</time></trkpt><trkpt lat="39.87561930878903" lon="9.256062938462255"><ele>761.0</ele><time>2026-05-01T09:37:19Z</time></trkpt><trkpt lat="39.87578117458584" lon="9.256118510564422"><ele>761.0</ele><time>2026-05-01T09:37:20Z</time></trkpt><trkpt lat="39.87594510468971" lon="9.256166630802156"><ele>761.0</ele><time>2026-05-01T09:37:21Z</time></trkpt><trkpt lat="39.876101572589114" lon="9.256217017107991"><ele>759.5</ele><time>2026-05-01T09:37:22Z</time></trkpt><trkpt lat="39.87623646673101" lon="9.256318619834767"><ele>758.0</ele><time>2026-05-01T09:37:23Z</time></trkpt><trkpt lat="39.87636158805589" lon="9.25642670160384"><ele>756.5</ele><time>2026-05-01T09:37:24Z</time></trkpt><trkpt lat="39.87647438078517" lon="9.256509906000097"><ele>755.0</ele><time>2026-05-01T09:37:25Z</time></trkpt><trkpt lat="39.87659568298089" lon="9.256517744875229"><ele>760.25</ele><time>2026-05-01T09:37:26Z</time></trkpt><trkpt lat="39.87670891618903" lon="9.256463693693295"><ele>765.5</ele><time>2026-05-01T09:37:27Z</time></trkpt><trkpt lat="39.87680780525825" lon="9.256334865684819"><ele>770.75</ele><time>2026-05-01T09:37:28Z</time></trkpt><trkpt lat="39.87688516026136" lon="9.256160937025648"><ele>776.0</ele><time>2026-05-01T09:37:29Z</time></trkpt><trkpt lat="39.87695517389962" lon="9.255989679644356"><ele>776.0</ele><time>2026-05-01T09:37:30Z</time></trkpt><trkpt lat="39.8770257263963" lon="9.255805894768868"><ele>776.0</ele><time>2026-05-01T09:37:31Z</time></trkpt><trkpt lat="39.877068610859176" lon="9.255598947757088"><ele>776.0</ele><time>2026-05-01T09:37:32Z</time></trkpt><trkpt lat="39.87708371009805" lon="9.255392073986327"><ele>772.0</ele><time>2026-05-01T09:37:33Z</time></trkpt><trkpt lat="39.877102804002014" lon="9.255211674069784"><ele>768.0</ele><time>2026-05-01T09:37:34Z</time></trkpt><trkpt lat="39.87718795063311" lon="9.255068444988144"><ele>764.0</ele><time>2026-05-01T09:37:35Z</time></trkpt><trkpt lat="39.877287010042664" lon="9.254909742477963"><ele>760.0</ele><time>2026-05-01T09:37:36Z</time></trkpt><trkpt lat="39.8774136041761" lon="9.254766889426255"><ele>755.5</ele><time>2026-05-01T09:37:37Z</time></trkpt><trkpt lat="39.8775324808046" lon="9.254663226931381"><ele>751.0</ele><time>2026-05-01T09:37:38Z</time></trkpt><trkpt lat="39.877668023666196" lon="9.254627476506656"><ele>746.5</ele><time>2026-05-01T09:37:39Z</time></trkpt><trkpt lat="39.87782252865171" lon="9.254636260198279"><ele>742.0</ele><time>2026-05-01T09:37:40Z</time></trkpt><trkpt lat="39.87798057075703" lon="9.25464375322041"><ele>742.0</ele><time>2026-05-01T09:37:41Z</time></trkpt><trkpt lat="39.87814946009207" lon="9.254622790100989"><ele>742.0</ele><time>2026-05-01T09:37:42Z</time></trkpt><trkpt lat="39.878315193287705" lon="9.25458332002671"><ele>742.0</ele><time>2026-05-01T09:37:43Z</time></trkpt><trkpt lat="39.87846760802196" lon="9.254540709848026"><ele>745.25</ele><time>2026-05-01T09:37:44Z</time></trkpt><trkpt lat="39.87860262604831" lon="9.254500818544646"><ele>748.5</ele><time>2026-05-01T09:37:45Z</time></trkpt><trkpt lat="39.87870471704484" lon="9.25443122558615"><ele>751.75</ele><time>2026-05-01T09:37:46Z</time></trkpt><trkpt lat="39.87876860288586" lon="9.254310992371023"><ele>755.0</ele><time>2026-05-01T09:37:47Z</time></trkpt><trkpt lat="39.878793918839655" lon="9.25415527445863"><ele>755.0</ele><time>2026-05-01T09:37:48Z</time></trkpt><trkpt lat="39.87877492198817" lon="9.2539945419975"><ele>755.0</ele><time>2026-05-01T09:37:49Z</time></trkpt><trkpt lat="39.87869526957125" lon="9.253867916771938"><ele>755.0</ele><time>2026-05-01T09:37:50Z</time></trkpt><trkpt lat="39.87857191119055" lon="9.253797636692866"><ele>755.0</ele><time>2026-05-01T09:37:51Z</time></trkpt><trkpt lat="39.87844169591759" lon="9.253755069443974"><ele>756.0</ele><time>2026-05-01T09:37:52Z</time></trkpt><trkpt lat="39.87832020657249" lon="9.253683315282267"><ele>757.0</ele><time>2026-05-01T09:37:53Z</time></trkpt><trkpt lat="39.87821477489411" lon="9.25357006477792"><ele>758.0</ele><time>2026-05-01T09:37:54Z</time></trkpt><trkpt lat="39.8781171663755" lon="9.253432824920631"><ele>759.0</ele><time>2026-05-01T09:37:55Z</time></trkpt><trkpt lat="39.878017811401655" lon="9.253289834375074"><ele>759.0</ele><time>2026-05-01T09:37:56Z</time></trkpt><trkpt lat="39.87793616639086" lon="9.253129827964194"><ele>759.0</ele><time>2026-05-01T09:37:57Z</time></trkpt><trkpt lat="39.87789108126469" lon="9.252947997388471"><ele>759.0</ele><time>2026-05-01T09:37:58Z</time></trkpt><trkpt lat="39.87786262963428" lon="9.252763877651528"><ele>759.0</ele><time>2026-05-01T09:37:59Z</time></trkpt><trkpt lat="39.87781748148028" lon="9.252613405971871"><ele>759.25</ele><time>2026-05-01T09:38:00Z</time></trkpt><trkpt lat="39.87773826518671" lon="9.252512339814842"><ele>759.5</ele><time>2026-05-01T09:38:01Z</time></trkpt><trkpt lat="39.877623345880004" lon="9.252464955984788"><ele>759.75</ele><time>2026-05-01T09:38:02Z</time></trkpt><trkpt lat="39.87749671732088" lon="9.252479637648335"><ele>760.0</ele><time>2026-05-01T09:38:03Z</time></trkpt><trkpt lat="39.877396372921915" lon="9.252556938916609"><ele>760.0</ele><time>2026-05-01T09:38:04Z</time></trkpt><trkpt lat="39.8773295438747" lon="9.252695224059973"><ele>760.0</ele><time>2026-05-01T09:38:05Z</time></trkpt><trkpt lat="39.87728482148979" lon="9.252859029538916"><ele>760.0</ele><time>2026-05-01T09:38:06Z</time></trkpt><trkpt lat="39.87719674747269" lon="9.252995383351418"><ele>760.0</ele><time>2026-05-01T09:38:07Z</time></trkpt><trkpt lat="39.877069219479466" lon="9.253086077886973"><ele>762.6666666666667</ele><time>2026-05-01T09:38:08Z</time></trkpt><trkpt lat="39.876929012113216" lon="9.253176380994388"><ele>765.3333333333334</ele><time>2026-05-01T09:38:09Z</time></trkpt><trkpt lat="39.87679277707353" lon="9.253280434393684"><ele>768.0</ele><time>2026-05-01T09:38:10Z</time></trkpt><trkpt lat="39.87665187341845" lon="9.253394303810355"><ele>768.0</ele><time>2026-05-01T09:38:11Z</time></trkpt><trkpt lat="39.87650963724335" lon="9.25349846378033"><ele>768.0</ele><time>2026-05-01T09:38:12Z</time></trkpt><trkpt lat="39.87635625956254" lon="9.253590064333215"><ele>768.0</ele><time>2026-05-01T09:38:13Z</time></trkpt><trkpt lat="39.87619652393497" lon="9.253664312676372"><ele>768.0</ele><time>2026-05-01T09:38:14Z</time></trkpt><trkpt lat="39.876046751729326" lon="9.25371663076967"><ele>768.0</ele><time>2026-05-01T09:38:15Z</time></trkpt><trkpt lat="39.875904899731154" lon="9.25374124107517"><ele>768.0</ele><time>2026-05-01T09:38:16Z</time></trkpt><trkpt lat="39.875773811017844" lon="9.253712751882697"><ele>768.0</ele><time>2026-05-01T09:38:17Z</time></trkpt><trkpt lat="39.875665387133225" lon="9.253624272107013"><ele>769.25</ele><time>2026-05-01T09:38:18Z</time></trkpt><trkpt lat="39.87558872291915" lon="9.253486051892262"><ele>770.5</ele><time>2026-05-01T09:38:19Z</time></trkpt><trkpt lat="39.87556429245636" lon="9.253318348629145"><ele>771.75</ele><time>2026-05-01T09:38:20Z</time></trkpt><trkpt lat="39.875579661077715" lon="9.253138123175297"><ele>773.0</ele><time>2026-05-01T09:38:21Z</time></trkpt><trkpt lat="39.87559817321227" lon="9.252945387378162"><ele>780.0</ele><time>2026-05-01T09:38:22Z</time></trkpt><trkpt lat="39.87558175475918" lon="9.25274198621078"><ele>787.0</ele><time>2026-05-01T09:38:23Z</time></trkpt><trkpt lat="39.87552319923977" lon="9.252565561420123"><ele>794.0</ele><time>2026-05-01T09:38:24Z</time></trkpt><trkpt lat="39.87541152528612" lon="9.252428413723889"><ele>794.0</ele><time>2026-05-01T09:38:25Z</time></trkpt><trkpt lat="39.87526779520836" lon="9.2523396048731"><ele>794.0</ele><time>2026-05-01T09:38:26Z</time></trkpt><trkpt lat="39.87512080485946" lon="9.252255979834342"><ele>794.0</ele><time>2026-05-01T09:38:27Z</time></trkpt><trkpt lat="39.87496372631983" lon="9.25224094755343"><ele>798.6666666666667</ele><time>2026-05-01T09:38:28Z</time></trkpt><trkpt lat="39.874792825175945" lon="9.252240193525058"><ele>803.3333333333333</ele><time>2026-05-01T09:38:29Z</time></trkpt><trkpt lat="39.87462558732418" lon="9.25224544843508"><ele>808.0</ele><time>2026-05-01T09:38:30Z</time></trkpt><trkpt lat="39.87445068570419" lon="9.252224095829304"><ele>810.3333333333333</ele><time>2026-05-01T09:38:31Z</time></trkpt><trkpt lat="39.87427094970223" lon="9.25218288687455"><ele>812.6666666666667</ele><time>2026-05-01T09:38:32Z</time></trkpt><trkpt lat="39.87408741741688" lon="9.2521497666139"><ele>815.0</ele><time>2026-05-01T09:38:33Z</time></trkpt><trkpt lat="39.87391322154185" lon="9.252134151620282"><ele>815.0</ele><time>2026-05-01T09:38:34Z</time></trkpt><trkpt lat="39.873742553872425" lon="9.252165245749627"><ele>815.0</ele><time>2026-05-01T09:38:35Z</time></trkpt><trkpt lat="39.8735769039004" lon="9.252239328872083"><ele>815.0</ele><time>2026-05-01T09:38:36Z</time></trkpt><trkpt lat="39.87341879907103" lon="9.252306293240329"><ele>811.75</ele><time>2026-05-01T09:38:37Z</time></trkpt><trkpt lat="39.87327429138634" lon="9.252358232928088"><ele>808.5</ele><time>2026-05-01T09:38:38Z</time></trkpt><trkpt lat="39.873147679091154" lon="9.252374638345463"><ele>805.25</ele><time>2026-05-01T09:38:39Z</time></trkpt><trkpt lat="39.87304068098444" lon="9.25232671872749"><ele>802.0</ele><time>2026-05-01T09:38:40Z</time></trkpt><trkpt lat="39.87295797666553" lon="9.252214366342272"><ele>802.0</ele><time>2026-05-01T09:38:41Z</time></trkpt><trkpt lat="39.87291310495477" lon="9.252058981704128"><ele>802.0</ele><time>2026-05-01T09:38:42Z</time></trkpt><trkpt lat="39.8729304756165" lon="9.251890680064289"><ele>802.0</ele><time>2026-05-01T09:38:43Z</time></trkpt><trkpt lat="39.87297277729468" lon="9.25171891015971"><ele>802.0</ele><time>2026-05-01T09:38:44Z</time></trkpt><trkpt lat="39.872967548005384" lon="9.251541555040586"><ele>809.6666666666666</ele><time>2026-05-01T09:38:45Z</time></trkpt><trkpt lat="39.8729010470884" lon="9.251372477793044"><ele>817.3333333333333</ele><time>2026-05-01T09:38:46Z</time></trkpt><trkpt lat="39.87278348318605" lon="9.251235074208811"><ele>825.0</ele><time>2026-05-01T09:38:47Z</time></trkpt><trkpt lat="39.87264835857198" lon="9.25111260198706"><ele>814.6666666666667</ele><time>2026-05-01T09:38:48Z</time></trkpt><trkpt lat="39.87250617853647" lon="9.250976419083646"><ele>804.3333333333334</ele><time>2026-05-01T09:38:49Z</time></trkpt><trkpt lat="39.87236117369797" lon="9.250832355757842"><ele>794.0</ele><time>2026-05-01T09:38:50Z</time></trkpt><trkpt lat="39.8722115457546" lon="9.250679996916048"><ele>800.6666666666667</ele><time>2026-05-01T09:38:51Z</time></trkpt><trkpt lat="39.87206180348756" lon="9.250517677083272"><ele>807.3333333333333</ele><time>2026-05-01T09:38:52Z</time></trkpt><trkpt lat="39.871925681355435" lon="9.25034271873356"><ele>814.0</ele><time>2026-05-01T09:38:53Z</time></trkpt><trkpt lat="39.87179493278887" lon="9.250177506126438"><ele>806.0</ele><time>2026-05-01T09:38:54Z</time></trkpt><trkpt lat="39.87165439879669" lon="9.250033743592189"><ele>798.0</ele><time>2026-05-01T09:38:55Z</time></trkpt><trkpt lat="39.871509793690855" lon="9.249920179463762"><ele>790.0</ele><time>2026-05-01T09:38:56Z</time></trkpt><trkpt lat="39.87137494877198" lon="9.249806865685585"><ele>794.6666666666666</ele><time>2026-05-01T09:38:57Z</time></trkpt><trkpt lat="39.87126008588605" lon="9.2496716741278"><ele>799.3333333333333</ele><time>2026-05-01T09:38:58Z</time></trkpt><trkpt lat="39.87116490451482" lon="9.249506627861978"><ele>804.0</ele><time>2026-05-01T09:38:59Z</time></trkpt><trkpt lat="39.87109012109203" lon="9.2493232179956"><ele>804.0</ele><time>2026-05-01T09:39:00Z</time></trkpt><trkpt lat="39.871041252562094" lon="9.24911630788971"><ele>804.0</ele><time>2026-05-01T09:39:01Z</time></trkpt><trkpt lat="39.871015614724286" lon="9.24889417818311"><ele>804.0</ele><time>2026-05-01T09:39:02Z</time></trkpt><trkpt lat="39.870994013395915" lon="9.24866626560699"><ele>801.0</ele><time>2026-05-01T09:39:03Z</time></trkpt><trkpt lat="39.87096517742586" lon="9.248435900527204"><ele>798.0</ele><time>2026-05-01T09:39:04Z</time></trkpt><trkpt lat="39.870925939834954" lon="9.24820574027973"><ele>795.0</ele><time>2026-05-01T09:39:05Z</time></trkpt><trkpt lat="39.87085624292404" lon="9.24798627856461"><ele>795.0</ele><time>2026-05-01T09:39:06Z</time></trkpt><trkpt lat="39.870759193994" lon="9.247775291710802"><ele>795.0</ele><time>2026-05-01T09:39:07Z</time></trkpt><trkpt lat="39.87065979240505" lon="9.247567243163616"><ele>795.0</ele><time>2026-05-01T09:39:08Z</time></trkpt><trkpt lat="39.870563172524534" lon="9.247354130816534"><ele>798.0</ele><time>2026-05-01T09:39:09Z</time></trkpt><trkpt lat="39.870465762036616" lon="9.247136637042212"><ele>801.0</ele><time>2026-05-01T09:39:10Z</time></trkpt><trkpt lat="39.87036697796167" lon="9.246923963055798"><ele>804.0</ele><time>2026-05-01T09:39:11Z</time></trkpt><trkpt lat="39.87027428416764" lon="9.24671987385253"><ele>804.0</ele><time>2026-05-01T09:39:12Z</time></trkpt><trkpt lat="39.87019787366138" lon="9.246516741245493"><ele>804.0</ele><time>2026-05-01T09:39:13Z</time></trkpt><trkpt lat="39.87015525543858" lon="9.246302215268196"><ele>804.0</ele><time>2026-05-01T09:39:14Z</time></trkpt><trkpt lat="39.870139986275795" lon="9.24607665995783"><ele>803.3333333333333</ele><time>2026-05-01T09:39:15Z</time></trkpt><trkpt lat="39.87013968537978" lon="9.245856831919596"><ele>802.6666666666666</ele><time>2026-05-01T09:39:16Z</time></trkpt><trkpt lat="39.870147957761645" lon="9.245646597825706"><ele>802.0</ele><time>2026-05-01T09:39:17Z</time></trkpt><trkpt lat="39.87017843015341" lon="9.245456813212453"><ele>796.0</ele><time>2026-05-01T09:39:18Z</time></trkpt><trkpt lat="39.87025025326926" lon="9.245281289366083"><ele>790.0</ele><time>2026-05-01T09:39:19Z</time></trkpt><trkpt lat="39.870355450067464" lon="9.245141407056023"><ele>784.0</ele><time>2026-05-01T09:39:20Z</time></trkpt><trkpt lat="39.87048282751871" lon="9.245055976008965"><ele>778.0</ele><time>2026-05-01T09:39:21Z</time></trkpt><trkpt lat="39.87063203796268" lon="9.245003206222732"><ele>778.0</ele><time>2026-05-01T09:39:22Z</time></trkpt><trkpt lat="39.87077744080072" lon="9.24495999522593"><ele>778.0</ele><time>2026-05-01T09:39:23Z</time></trkpt><trkpt lat="39.87091610426341" lon="9.244913970069032"><ele>778.0</ele><time>2026-05-01T09:39:24Z</time></trkpt><trkpt lat="39.87105282390209" lon="9.244867094227468"><ele>778.0</ele><time>2026-05-01T09:39:25Z</time></trkpt><trkpt lat="39.871186135800905" lon="9.244817285342561"><ele>779.25</ele><time>2026-05-01T09:39:26Z</time></trkpt><trkpt lat="39.87131703535095" lon="9.244765685181077"><ele>780.5</ele><time>2026-05-01T09:39:27Z</time></trkpt><trkpt lat="39.87144345839929" lon="9.244704496743175"><ele>781.75</ele><time>2026-05-01T09:39:28Z</time></trkpt><trkpt lat="39.87154317043396" lon="9.244622400030858"><ele>783.0</ele><time>2026-05-01T09:39:29Z</time></trkpt><trkpt lat="39.871598263757264" lon="9.244525686292018"><ele>783.0</ele><time>2026-05-01T09:39:30Z</time></trkpt><trkpt lat="39.8716166969209" lon="9.244411829807296"><ele>783.0</ele><time>2026-05-01T09:39:31Z</time></trkpt><trkpt lat="39.87159481569717" lon="9.244283671321309"><ele>783.0</ele><time>2026-05-01T09:39:32Z</time></trkpt><trkpt lat="39.871541017596094" lon="9.244155769608986"><ele>783.0</ele><time>2026-05-01T09:39:33Z</time></trkpt><trkpt lat="39.871444821191446" lon="9.24406077962918"><ele>783.0</ele><time>2026-05-01T09:39:34Z</time></trkpt><trkpt lat="39.871326403758204" lon="9.24402022765971"><ele>783.0</ele><time>2026-05-01T09:39:35Z</time></trkpt><trkpt lat="39.871197550834935" lon="9.243996246054087"><ele>783.0</ele><time>2026-05-01T09:39:36Z</time></trkpt><trkpt lat="39.87107195780978" lon="9.24395619974431"><ele>783.0</ele><time>2026-05-01T09:39:37Z</time></trkpt><trkpt lat="39.87095015359735" lon="9.24390307137142"><ele>783.0</ele><time>2026-05-01T09:39:38Z</time></trkpt><trkpt lat="39.87083533752464" lon="9.243826470481988"><ele>780.0</ele><time>2026-05-01T09:39:39Z</time></trkpt><trkpt lat="39.87072906259279" lon="9.243728485311081"><ele>777.0</ele><time>2026-05-01T09:39:40Z</time></trkpt><trkpt lat="39.87064446409263" lon="9.24360085578851"><ele>774.0</ele><time>2026-05-01T09:39:41Z</time></trkpt><trkpt lat="39.8705912802815" lon="9.243446200668405"><ele>771.0</ele><time>2026-05-01T09:39:42Z</time></trkpt><trkpt lat="39.87056030161866" lon="9.243280947197887"><ele>771.0</ele><time>2026-05-01T09:39:43Z</time></trkpt><trkpt lat="39.87054776108868" lon="9.243107719628386"><ele>771.0</ele><time>2026-05-01T09:39:44Z</time></trkpt><trkpt lat="39.87055315765632" lon="9.242932787674613"><ele>771.0</ele><time>2026-05-01T09:39:45Z</time></trkpt><trkpt lat="39.87056639587004" lon="9.242761925530969"><ele>771.0</ele><time>2026-05-01T09:39:46Z</time></trkpt><trkpt lat="39.870581927593314" lon="9.242600177592156"><ele>771.0</ele><time>2026-05-01T09:39:47Z</time></trkpt><trkpt lat="39.87060572414239" lon="9.242445237291934"><ele>771.0</ele><time>2026-05-01T09:39:48Z</time></trkpt><trkpt lat="39.87063844368798" lon="9.242295988781922"><ele>771.0</ele><time>2026-05-01T09:39:49Z</time></trkpt><trkpt lat="39.87068729396952" lon="9.242157941145836"><ele>771.0</ele><time>2026-05-01T09:39:50Z</time></trkpt><trkpt lat="39.870752048046135" lon="9.242036229890065"><ele>772.0</ele><time>2026-05-01T09:39:51Z</time></trkpt><trkpt lat="39.870823475840524" lon="9.241926323401238"><ele>773.0</ele><time>2026-05-01T09:39:52Z</time></trkpt><trkpt lat="39.870899937665406" lon="9.241827512137736"><ele>774.0</ele><time>2026-05-01T09:39:53Z</time></trkpt><trkpt lat="39.87098385913305" lon="9.241737861652084"><ele>775.0</ele><time>2026-05-01T09:39:54Z</time></trkpt><trkpt lat="39.871077571048225" lon="9.241665034637096"><ele>776.0</ele><time>2026-05-01T09:39:55Z</time></trkpt><trkpt lat="39.87117580132838" lon="9.241603930547406"><ele>776.0</ele><time>2026-05-01T09:39:56Z</time></trkpt><trkpt lat="39.871269028562104" lon="9.241540270651724"><ele>776.0</ele><time>2026-05-01T09:39:57Z</time></trkpt><trkpt lat="39.871349075658664" lon="9.241467880625056"><ele>776.0</ele><time>2026-05-01T09:39:58Z</time></trkpt><trkpt lat="39.871426661055494" lon="9.2413884943238"><ele>776.0</ele><time>2026-05-01T09:39:59Z</time></trkpt><trkpt lat="39.87147624824373" lon="9.241294382549707"><ele>776.0</ele><time>2026-05-01T09:40:00Z</time></trkpt><trkpt lat="39.87149525077981" lon="9.24117793999991"><ele>775.0</ele><time>2026-05-01T09:40:01Z</time></trkpt><trkpt lat="39.871490758203485" lon="9.241064385818268"><ele>774.0</ele><time>2026-05-01T09:40:02Z</time></trkpt><trkpt lat="39.87146225571736" lon="9.240959672791764"><ele>773.0</ele><time>2026-05-01T09:40:03Z</time></trkpt><trkpt lat="39.871404939461996" lon="9.240858122798864"><ele>772.0</ele><time>2026-05-01T09:40:04Z</time></trkpt><trkpt lat="39.87132168009351" lon="9.240785518207156"><ele>771.0</ele><time>2026-05-01T09:40:05Z</time></trkpt><trkpt lat="39.87122566090096" lon="9.240754230189875"><ele>771.0</ele><time>2026-05-01T09:40:06Z</time></trkpt><trkpt lat="39.871127385153194" lon="9.240736824876253"><ele>771.0</ele><time>2026-05-01T09:40:07Z</time></trkpt><trkpt lat="39.87102604358078" lon="9.240726296640043"><ele>771.0</ele><time>2026-05-01T09:40:08Z</time></trkpt><trkpt lat="39.8709260996421" lon="9.240711197329563"><ele>771.0</ele><time>2026-05-01T09:40:09Z</time></trkpt><trkpt lat="39.87082586380757" lon="9.240688571410482"><ele>771.0</ele><time>2026-05-01T09:40:10Z</time></trkpt><trkpt lat="39.87073178845408" lon="9.240650320841063"><ele>771.1999999999999</ele><time>2026-05-01T09:40:11Z</time></trkpt><trkpt lat="39.8706481266716" lon="9.240589207573137"><ele>771.4</ele><time>2026-05-01T09:40:12Z</time></trkpt><trkpt lat="39.87057823777387" lon="9.240509623281035"><ele>771.6</ele><time>2026-05-01T09:40:13Z</time></trkpt><trkpt lat="39.87051238774898" lon="9.240418511987196"><ele>771.8</ele><time>2026-05-01T09:40:14Z</time></trkpt><trkpt lat="39.870446397848966" lon="9.240324040677523"><ele>772.0</ele><time>2026-05-01T09:40:15Z</time></trkpt><trkpt lat="39.87037983649434" lon="9.240229020302396"><ele>771.9999999999999</ele><time>2026-05-01T09:40:16Z</time></trkpt><trkpt lat="39.87031634107356" lon="9.240134688095603"><ele>772.0</ele><time>2026-05-01T09:40:17Z</time></trkpt><trkpt lat="39.87025937482053" lon="9.24004704825244"><ele>772.0</ele><time>2026-05-01T09:40:18Z</time></trkpt><trkpt lat="39.87020151906936" lon="9.239958327318861"><ele>772.0</ele><time>2026-05-01T09:40:19Z</time></trkpt><trkpt lat="39.87014423457031" lon="9.23987267414099"><ele>771.9999999999999</ele><time>2026-05-01T09:40:20Z</time></trkpt><trkpt lat="39.87008821664084" lon="9.239793285815278"><ele>772.0</ele><time>2026-05-01T09:40:21Z</time></trkpt><trkpt lat="39.87003517375989" lon="9.239717883750679"><ele>770.9999999999999</ele><time>2026-05-01T09:40:22Z</time></trkpt><trkpt lat="39.86998387228113" lon="9.239643863862542"><ele>770.0</ele><time>2026-05-01T09:40:23Z</time></trkpt><trkpt lat="39.86992547099543" lon="9.239577327440752"><ele>769.0</ele><time>2026-05-01T09:40:24Z</time></trkpt><trkpt lat="39.86985508887369" lon="9.239531271645866"><ele>768.0</ele><time>2026-05-01T09:40:25Z</time></trkpt><trkpt lat="39.869782899566005" lon="9.239476975759487"><ele>767.0</ele><time>2026-05-01T09:40:26Z</time></trkpt><trkpt lat="39.8697075939245" lon="9.239442571236053"><ele>766.0</ele><time>2026-05-01T09:40:27Z</time></trkpt><trkpt lat="39.86963543850349" lon="9.23942188730938"><ele>766.0</ele><time>2026-05-01T09:40:28Z</time></trkpt><trkpt lat="39.8695575919423" lon="9.239387867821494"><ele>766.0</ele><time>2026-05-01T09:40:29Z</time></trkpt><trkpt lat="39.869490432934704" lon="9.239360816859167"><ele>766.0</ele><time>2026-05-01T09:40:30Z</time></trkpt><trkpt lat="39.86942489577007" lon="9.23934005588694"><ele>766.0</ele><time>2026-05-01T09:40:31Z</time></trkpt><trkpt lat="39.86931336389171" lon="9.239287118901325"><ele>766.0</ele><time>2026-05-01T09:40:33Z</time></trkpt><trkpt lat="39.869234117309894" lon="9.239232788991298"><ele>766.0</ele><time>2026-05-01T09:40:35Z</time></trkpt><trkpt lat="39.86915622354788" lon="9.239177137596295"><ele>766.1999999999999</ele><time>2026-05-01T09:40:37Z</time></trkpt><trkpt lat="39.86904549471586" lon="9.23909860049491"><ele>766.4</ele><time>2026-05-01T09:40:39Z</time></trkpt><trkpt lat="39.868980208153275" lon="9.239048119210983"><ele>766.6</ele><time>2026-05-01T09:40:40Z</time></trkpt><trkpt lat="39.86891176257213" lon="9.238986053708258"><ele>766.8</ele><time>2026-05-01T09:40:41Z</time></trkpt><trkpt lat="39.86884533285947" lon="9.23891743844983"><ele>767.0</ele><time>2026-05-01T09:40:42Z</time></trkpt><trkpt lat="39.86878567730417" lon="9.238843460403379"><ele>767.0</ele><time>2026-05-01T09:40:43Z</time></trkpt><trkpt lat="39.86872856418046" lon="9.238763309766895"><ele>767.0</ele><time>2026-05-01T09:40:44Z</time></trkpt><trkpt lat="39.8686703708182" lon="9.2386828616216"><ele>767.0</ele><time>2026-05-01T09:40:45Z</time></trkpt><trkpt lat="39.868605735936484" lon="9.238614283691971"><ele>767.0</ele><time>2026-05-01T09:40:46Z</time></trkpt><trkpt lat="39.86853739003862" lon="9.238551922092556"><ele>767.0</ele><time>2026-05-01T09:40:47Z</time></trkpt><trkpt lat="39.86848120807568" lon="9.238462387618085"><ele>767.0</ele><time>2026-05-01T09:40:48Z</time></trkpt><trkpt lat="39.86841058223044" lon="9.238400305246106"><ele>765.1666666666666</ele><time>2026-05-01T09:40:49Z</time></trkpt><trkpt lat="39.868339755773334" lon="9.238343114057539"><ele>763.3333333333333</ele><time>2026-05-01T09:40:50Z</time></trkpt><trkpt lat="39.86826487768148" lon="9.238300902422084"><ele>761.5</ele><time>2026-05-01T09:40:51Z</time></trkpt><trkpt lat="39.86820134924426" lon="9.238236809086867"><ele>759.6666666666666</ele><time>2026-05-01T09:40:52Z</time></trkpt><trkpt lat="39.868145934521905" lon="9.23818263988649"><ele>757.8333333333334</ele><time>2026-05-01T09:40:53Z</time></trkpt><trkpt lat="39.868104739967556" lon="9.238111392008367"><ele>756.0</ele><time>2026-05-01T09:40:54Z</time></trkpt><trkpt lat="39.86808065822732" lon="9.238028086805173"><ele>755.5999999999999</ele><time>2026-05-01T09:40:55Z</time></trkpt><trkpt lat="39.86806604087248" lon="9.23793874025113"><ele>755.2</ele><time>2026-05-01T09:40:56Z</time></trkpt><trkpt lat="39.86806447266845" lon="9.237851132085222"><ele>754.8</ele><time>2026-05-01T09:40:57Z</time></trkpt><trkpt lat="39.868077092028116" lon="9.237766871326482"><ele>754.4000000000001</ele><time>2026-05-01T09:40:58Z</time></trkpt><trkpt lat="39.868109489213616" lon="9.237610847392737"><ele>754.0</ele><time>2026-05-01T09:41:00Z</time></trkpt><trkpt lat="39.868156699265384" lon="9.237451218055412"><ele>754.0</ele><time>2026-05-01T09:41:02Z</time></trkpt><trkpt lat="39.86819374850796" lon="9.237369119403098"><ele>754.0</ele><time>2026-05-01T09:41:03Z</time></trkpt><trkpt lat="39.86823539494557" lon="9.237282954818246"><ele>754.0</ele><time>2026-05-01T09:41:04Z</time></trkpt><trkpt lat="39.868279413044554" lon="9.237191553738043"><ele>754.0</ele><time>2026-05-01T09:41:05Z</time></trkpt><trkpt lat="39.868321421453196" lon="9.237097556914652"><ele>754.0</ele><time>2026-05-01T09:41:06Z</time></trkpt><trkpt lat="39.86836313703516" lon="9.237001615458452"><ele>754.0</ele><time>2026-05-01T09:41:07Z</time></trkpt><trkpt lat="39.868407894592515" lon="9.236906694645821"><ele>754.0</ele><time>2026-05-01T09:41:08Z</time></trkpt><trkpt lat="39.86845221907715" lon="9.236809046919308"><ele>754.0</ele><time>2026-05-01T09:41:09Z</time></trkpt><trkpt lat="39.86850538839568" lon="9.23672138981163"><ele>754.0</ele><time>2026-05-01T09:41:10Z</time></trkpt><trkpt lat="39.86857356025334" lon="9.236650780044148"><ele>754.0</ele><time>2026-05-01T09:41:11Z</time></trkpt><trkpt lat="39.868645215369696" lon="9.236589692253641"><ele>754.0</ele><time>2026-05-01T09:41:12Z</time></trkpt><trkpt lat="39.86871181321809" lon="9.236531722809238"><ele>754.0</ele><time>2026-05-01T09:41:13Z</time></trkpt><trkpt lat="39.86878350529932" lon="9.236474585871948"><ele>750.6666666666667</ele><time>2026-05-01T09:41:14Z</time></trkpt><trkpt lat="39.868853362286536" lon="9.236413804358222"><ele>747.3333333333334</ele><time>2026-05-01T09:41:15Z</time></trkpt><trkpt lat="39.86893057180685" lon="9.236378913950384"><ele>744.0</ele><time>2026-05-01T09:41:16Z</time></trkpt><trkpt lat="39.86900075708893" lon="9.23633704176502"><ele>740.6666666666666</ele><time>2026-05-01T09:41:17Z</time></trkpt><trkpt lat="39.86907079219569" lon="9.23629319471424"><ele>737.3333333333333</ele><time>2026-05-01T09:41:18Z</time></trkpt><trkpt lat="39.86913534276957" lon="9.236241965096374"><ele>734.0</ele><time>2026-05-01T09:41:19Z</time></trkpt><trkpt lat="39.86919684736705" lon="9.236196995492836"><ele>734.0</ele><time>2026-05-01T09:41:20Z</time></trkpt><trkpt lat="39.86925645743751" lon="9.236147524457648"><ele>734.0</ele><time>2026-05-01T09:41:21Z</time></trkpt><trkpt lat="39.8693166361419" lon="9.236098623473689"><ele>734.0</ele><time>2026-05-01T09:41:22Z</time></trkpt><trkpt lat="39.86937455024174" lon="9.23605072088219"><ele>734.0</ele><time>2026-05-01T09:41:23Z</time></trkpt><trkpt lat="39.869432606270784" lon="9.236004681850964"><ele>734.0</ele><time>2026-05-01T09:41:24Z</time></trkpt><trkpt lat="39.86948685504412" lon="9.23595175029284"><ele>734.0</ele><time>2026-05-01T09:41:25Z</time></trkpt><trkpt lat="39.869546593150055" lon="9.235909814976166"><ele>734.0</ele><time>2026-05-01T09:41:26Z</time></trkpt><trkpt lat="39.86960632923738" lon="9.235871383010211"><ele>734.5714285714286</ele><time>2026-05-01T09:41:27Z</time></trkpt><trkpt lat="39.86967037019252" lon="9.235844998537939"><ele>735.1428571428572</ele><time>2026-05-01T09:41:28Z</time></trkpt><trkpt lat="39.869730688986564" lon="9.235814657632432"><ele>735.7142857142858</ele><time>2026-05-01T09:41:29Z</time></trkpt><trkpt lat="39.86978849080316" lon="9.235780550166837"><ele>736.2857142857142</ele><time>2026-05-01T09:41:30Z</time></trkpt><trkpt lat="39.86985243018711" lon="9.235759126499834"><ele>736.8571428571429</ele><time>2026-05-01T09:41:31Z</time></trkpt><trkpt lat="39.86991059816873" lon="9.235702214359806"><ele>737.4285714285714</ele><time>2026-05-01T09:41:32Z</time></trkpt><trkpt lat="39.86994536486795" lon="9.235632089717823"><ele>738.0</ele><time>2026-05-01T09:41:33Z</time></trkpt><trkpt lat="39.86997161623577" lon="9.235550986598883"><ele>738.0</ele><time>2026-05-01T09:41:34Z</time></trkpt><trkpt lat="39.869985223205205" lon="9.235462422832414"><ele>738.0</ele><time>2026-05-01T09:41:35Z</time></trkpt><trkpt lat="39.87001586387326" lon="9.23537801503297"><ele>738.0</ele><time>2026-05-01T09:41:36Z</time></trkpt><trkpt lat="39.870044515622325" lon="9.235287731278813"><ele>738.0</ele><time>2026-05-01T09:41:37Z</time></trkpt><trkpt lat="39.87007415974138" lon="9.235192614476514"><ele>738.0</ele><time>2026-05-01T09:41:38Z</time></trkpt><trkpt lat="39.87010995130322" lon="9.235104234932294"><ele>738.0</ele><time>2026-05-01T09:41:39Z</time></trkpt><trkpt lat="39.870139534604924" lon="9.235007402544797"><ele>738.8333333333334</ele><time>2026-05-01T09:41:40Z</time></trkpt><trkpt lat="39.87017608884933" lon="9.234916675292922"><ele>739.6666666666666</ele><time>2026-05-01T09:41:41Z</time></trkpt><trkpt lat="39.87021277711777" lon="9.23482398343223"><ele>740.5</ele><time>2026-05-01T09:41:42Z</time></trkpt><trkpt lat="39.87025601537007" lon="9.23473523214154"><ele>741.3333333333333</ele><time>2026-05-01T09:41:43Z</time></trkpt><trkpt lat="39.870307151594254" lon="9.234655622661641"><ele>742.1666666666666</ele><time>2026-05-01T09:41:44Z</time></trkpt><trkpt lat="39.870356967538434" lon="9.234566529634527"><ele>743.0</ele><time>2026-05-01T09:41:45Z</time></trkpt><trkpt lat="39.87042517408358" lon="9.234503380382993"><ele>743.0</ele><time>2026-05-01T09:41:46Z</time></trkpt><trkpt lat="39.87047120738971" lon="9.234414782796941"><ele>743.0</ele><time>2026-05-01T09:41:47Z</time></trkpt><trkpt lat="39.870500370917306" lon="9.234317991064298"><ele>743.0</ele><time>2026-05-01T09:41:48Z</time></trkpt><trkpt lat="39.87053556648039" lon="9.234229326342403"><ele>743.0</ele><time>2026-05-01T09:41:49Z</time></trkpt><trkpt lat="39.87057277938827" lon="9.234142527956386"><ele>743.0</ele><time>2026-05-01T09:41:50Z</time></trkpt><trkpt lat="39.87061060789041" lon="9.234063135688823"><ele>743.0</ele><time>2026-05-01T09:41:51Z</time></trkpt><trkpt lat="39.870649160794144" lon="9.233991263244164"><ele>740.0</ele><time>2026-05-01T09:41:52Z</time></trkpt><trkpt lat="39.87067920160309" lon="9.233907468373523"><ele>737.0</ele><time>2026-05-01T09:41:53Z</time></trkpt><trkpt lat="39.87072250938056" lon="9.233840169565962"><ele>734.0</ele><time>2026-05-01T09:41:54Z</time></trkpt><trkpt lat="39.870768610820434" lon="9.233776567243908"><ele>731.0</ele><time>2026-05-01T09:41:55Z</time></trkpt><trkpt lat="39.87082773966537" lon="9.23373184648534"><ele>728.0</ele><time>2026-05-01T09:41:56Z</time></trkpt><trkpt lat="39.87086509684513" lon="9.233662325281307"><ele>725.0</ele><time>2026-05-01T09:41:57Z</time></trkpt><trkpt lat="39.87091228784024" lon="9.233601540082416"><ele>722.0</ele><time>2026-05-01T09:41:58Z</time></trkpt><trkpt lat="39.870958282609195" lon="9.233538331953998"><ele>722.0</ele><time>2026-05-01T09:41:59Z</time></trkpt><trkpt lat="39.87100647893933" lon="9.233470509835024"><ele>722.0</ele><time>2026-05-01T09:42:00Z</time></trkpt><trkpt lat="39.87104634094279" lon="9.233396134171386"><ele>722.0</ele><time>2026-05-01T09:42:01Z</time></trkpt><trkpt lat="39.87109089706275" lon="9.233319522056227"><ele>722.0</ele><time>2026-05-01T09:42:02Z</time></trkpt><trkpt lat="39.87115454563995" lon="9.233259855391958"><ele>722.0</ele><time>2026-05-01T09:42:03Z</time></trkpt><trkpt lat="39.87123150762118" lon="9.233232259643366"><ele>722.0</ele><time>2026-05-01T09:42:04Z</time></trkpt><trkpt lat="39.87131615574074" lon="9.233264586342568"><ele>722.0</ele><time>2026-05-01T09:42:05Z</time></trkpt><trkpt lat="39.87138709178856" lon="9.2333332138014"><ele>722.0</ele><time>2026-05-01T09:42:06Z</time></trkpt><trkpt lat="39.871447058659776" lon="9.233419409484581"><ele>722.0</ele><time>2026-05-01T09:42:07Z</time></trkpt><trkpt lat="39.87150321917663" lon="9.233508816370236"><ele>722.0</ele><time>2026-05-01T09:42:08Z</time></trkpt><trkpt lat="39.87154820463179" lon="9.233616658679544"><ele>722.0</ele><time>2026-05-01T09:42:09Z</time></trkpt><trkpt lat="39.87158954000659" lon="9.233727329545651"><ele>722.0</ele><time>2026-05-01T09:42:10Z</time></trkpt><trkpt lat="39.87164900802883" lon="9.233823705760061"><ele>722.0</ele><time>2026-05-01T09:42:11Z</time></trkpt><trkpt lat="39.871721340372105" lon="9.233901801187724"><ele>722.0</ele><time>2026-05-01T09:42:12Z</time></trkpt><trkpt lat="39.871803767482845" lon="9.233971804693802"><ele>722.0</ele><time>2026-05-01T09:42:13Z</time></trkpt><trkpt lat="39.87189181525769" lon="9.234004619476275"><ele>722.0</ele><time>2026-05-01T09:42:14Z</time></trkpt><trkpt lat="39.87197697384654" lon="9.233995914719486"><ele>719.2</ele><time>2026-05-01T09:42:15Z</time></trkpt><trkpt lat="39.87207640890718" lon="9.233961053410408"><ele>716.4000000000001</ele><time>2026-05-01T09:42:16Z</time></trkpt><trkpt lat="39.872168554794754" lon="9.233938941834394"><ele>713.5999999999999</ele><time>2026-05-01T09:42:17Z</time></trkpt><trkpt lat="39.872258259375876" lon="9.233912473968411"><ele>710.8</ele><time>2026-05-01T09:42:18Z</time></trkpt><trkpt lat="39.872346224493015" lon="9.233882490389133"><ele>708.0</ele><time>2026-05-01T09:42:19Z</time></trkpt><trkpt lat="39.8724368525274" lon="9.233859671036816"><ele>708.0</ele><time>2026-05-01T09:42:20Z</time></trkpt><trkpt lat="39.87252958472167" lon="9.233840501822575"><ele>708.0</ele><time>2026-05-01T09:42:21Z</time></trkpt><trkpt lat="39.87262592802885" lon="9.233825086909368"><ele>708.0</ele><time>2026-05-01T09:42:22Z</time></trkpt><trkpt lat="39.872730886594645" lon="9.233829270723609"><ele>708.0</ele><time>2026-05-01T09:42:23Z</time></trkpt><trkpt lat="39.87284107604421" lon="9.233852041013268"><ele>708.0</ele><time>2026-05-01T09:42:24Z</time></trkpt><trkpt lat="39.872961486327966" lon="9.233857222795365"><ele>708.0</ele><time>2026-05-01T09:42:25Z</time></trkpt><trkpt lat="39.87308929733079" lon="9.233843742749192"><ele>708.0</ele><time>2026-05-01T09:42:26Z</time></trkpt><trkpt lat="39.87322271711705" lon="9.23381200546518"><ele>708.0</ele><time>2026-05-01T09:42:27Z</time></trkpt><trkpt lat="39.87336004080701" lon="9.233774897660174"><ele>708.0</ele><time>2026-05-01T09:42:28Z</time></trkpt><trkpt lat="39.87349843015131" lon="9.233738196109753"><ele>709.75</ele><time>2026-05-01T09:42:29Z</time></trkpt><trkpt lat="39.87363273530252" lon="9.233703452135497"><ele>711.5</ele><time>2026-05-01T09:42:30Z</time></trkpt><trkpt lat="39.873762040130046" lon="9.233668672595797"><ele>713.25</ele><time>2026-05-01T09:42:31Z</time></trkpt><trkpt lat="39.87388455739827" lon="9.233641787707993"><ele>715.0</ele><time>2026-05-01T09:42:32Z</time></trkpt><trkpt lat="39.87400443198614" lon="9.233635783169598"><ele>715.0</ele><time>2026-05-01T09:42:33Z</time></trkpt><trkpt lat="39.87412162689974" lon="9.233661627801935"><ele>715.0</ele><time>2026-05-01T09:42:34Z</time></trkpt><trkpt lat="39.874230443950395" lon="9.233720840014156"><ele>715.0</ele><time>2026-05-01T09:42:35Z</time></trkpt><trkpt lat="39.87433395284899" lon="9.233784981169652"><ele>715.0</ele><time>2026-05-01T09:42:36Z</time></trkpt><trkpt lat="39.87444091587689" lon="9.233805879991346"><ele>718.25</ele><time>2026-05-01T09:42:37Z</time></trkpt><trkpt lat="39.87454876705058" lon="9.23378175404899"><ele>721.5</ele><time>2026-05-01T09:42:38Z</time></trkpt><trkpt lat="39.874649339237294" lon="9.233725661380454"><ele>724.75</ele><time>2026-05-01T09:42:39Z</time></trkpt><trkpt lat="39.87474041628401" lon="9.233627428635506"><ele>728.0</ele><time>2026-05-01T09:42:40Z</time></trkpt><trkpt lat="39.87479204387705" lon="9.233496015151651"><ele>728.0</ele><time>2026-05-01T09:42:41Z</time></trkpt><trkpt lat="39.87481251635442" lon="9.233341598853144"><ele>728.0</ele><time>2026-05-01T09:42:42Z</time></trkpt><trkpt lat="39.87480124736106" lon="9.233187481462696"><ele>728.0</ele><time>2026-05-01T09:42:43Z</time></trkpt><trkpt lat="39.87476671455352" lon="9.233032002940726"><ele>728.0</ele><time>2026-05-01T09:42:44Z</time></trkpt><trkpt lat="39.87474324820381" lon="9.23287069183917"><ele>730.25</ele><time>2026-05-01T09:42:45Z</time></trkpt><trkpt lat="39.87477135375789" lon="9.2327059821267"><ele>732.5</ele><time>2026-05-01T09:42:46Z</time></trkpt><trkpt lat="39.87477409940734" lon="9.23253215198087"><ele>734.75</ele><time>2026-05-01T09:42:47Z</time></trkpt><trkpt lat="39.874753743824776" lon="9.23237509236721"><ele>737.0</ele><time>2026-05-01T09:42:48Z</time></trkpt><trkpt lat="39.874691050223" lon="9.232235285528878"><ele>738.0</ele><time>2026-05-01T09:42:49Z</time></trkpt><trkpt lat="39.87459146857772" lon="9.232134496693618"><ele>739.0</ele><time>2026-05-01T09:42:50Z</time></trkpt><trkpt lat="39.874477603224555" lon="9.232041790888559"><ele>740.0</ele><time>2026-05-01T09:42:51Z</time></trkpt><trkpt lat="39.87434561343155" lon="9.23199573369947"><ele>741.0</ele><time>2026-05-01T09:42:52Z</time></trkpt><trkpt lat="39.87422076449996" lon="9.231932520515244"><ele>741.0</ele><time>2026-05-01T09:42:53Z</time></trkpt><trkpt lat="39.87409532899186" lon="9.23187245453486"><ele>741.0</ele><time>2026-05-01T09:42:54Z</time></trkpt><trkpt lat="39.87395558674015" lon="9.231895802510902"><ele>741.0</ele><time>2026-05-01T09:42:55Z</time></trkpt><trkpt lat="39.873814987779745" lon="9.23190030167574"><ele>741.0</ele><time>2026-05-01T09:42:56Z</time></trkpt><trkpt lat="39.873681151923364" lon="9.231918562246662"><ele>741.0</ele><time>2026-05-01T09:42:57Z</time></trkpt><trkpt lat="39.8735574987863" lon="9.231911874247704"><ele>741.0</ele><time>2026-05-01T09:42:58Z</time></trkpt><trkpt lat="39.87344133313354" lon="9.231851814866527"><ele>741.0</ele><time>2026-05-01T09:42:59Z</time></trkpt><trkpt lat="39.87333468391388" lon="9.231752325322777"><ele>741.0</ele><time>2026-05-01T09:43:00Z</time></trkpt><trkpt lat="39.873222499987435" lon="9.231646279197825"><ele>739.5</ele><time>2026-05-01T09:43:01Z</time></trkpt><trkpt lat="39.873146464533725" lon="9.23149484702026"><ele>738.0</ele><time>2026-05-01T09:43:02Z</time></trkpt><trkpt lat="39.87308328821812" lon="9.231334026433105"><ele>736.5</ele><time>2026-05-01T09:43:03Z</time></trkpt><trkpt lat="39.873021974079386" lon="9.231163226593251"><ele>735.0</ele><time>2026-05-01T09:43:04Z</time></trkpt><trkpt lat="39.87299263978452" lon="9.230971633795518"><ele>740.3333333333334</ele><time>2026-05-01T09:43:05Z</time></trkpt><trkpt lat="39.87297534080991" lon="9.230773487999723"><ele>745.6666666666667</ele><time>2026-05-01T09:43:06Z</time></trkpt><trkpt lat="39.87297368205269" lon="9.230571275905373"><ele>751.0</ele><time>2026-05-01T09:43:07Z</time></trkpt><trkpt lat="39.872980639181286" lon="9.230368429079068"><ele>752.6666666666667</ele><time>2026-05-01T09:43:08Z</time></trkpt><trkpt lat="39.87298759225674" lon="9.230168107930064"><ele>754.3333333333334</ele><time>2026-05-01T09:43:09Z</time></trkpt><trkpt lat="39.87301190723905" lon="9.229972180978635"><ele>756.0</ele><time>2026-05-01T09:43:10Z</time></trkpt><trkpt lat="39.8730638248408" lon="9.22979267032321"><ele>758.25</ele><time>2026-05-01T09:43:11Z</time></trkpt><trkpt lat="39.87311449342132" lon="9.22963192960651"><ele>760.5</ele><time>2026-05-01T09:43:12Z</time></trkpt><trkpt lat="39.87313415319891" lon="9.229482596412907"><ele>762.75</ele><time>2026-05-01T09:43:13Z</time></trkpt><trkpt lat="39.87312538376868" lon="9.22933238481213"><ele>765.0</ele><time>2026-05-01T09:43:14Z</time></trkpt><trkpt lat="39.87303997574441" lon="9.229198786102977"><ele>765.0</ele><time>2026-05-01T09:43:15Z</time></trkpt><trkpt lat="39.872942099929276" lon="9.229092846259343"><ele>765.0</ele><time>2026-05-01T09:43:16Z</time></trkpt><trkpt lat="39.87281959585427" lon="9.229025792979476"><ele>765.0</ele><time>2026-05-01T09:43:17Z</time></trkpt><trkpt lat="39.87267985097874" lon="9.228996500148398"><ele>765.0</ele><time>2026-05-01T09:43:18Z</time></trkpt><trkpt lat="39.87253365546058" lon="9.228987002188493"><ele>770.6666666666667</ele><time>2026-05-01T09:43:19Z</time></trkpt><trkpt lat="39.872387955154935" lon="9.228966901948509"><ele>776.3333333333334</ele><time>2026-05-01T09:43:20Z</time></trkpt><trkpt lat="39.87223329284668" lon="9.228928276842533"><ele>782.0</ele><time>2026-05-01T09:43:21Z</time></trkpt><trkpt lat="39.872077016749195" lon="9.228876246774322"><ele>782.0</ele><time>2026-05-01T09:43:22Z</time></trkpt><trkpt lat="39.871919377357884" lon="9.22882891561858"><ele>782.0</ele><time>2026-05-01T09:43:23Z</time></trkpt><trkpt lat="39.87176660630795" lon="9.228785478376974"><ele>782.0</ele><time>2026-05-01T09:43:24Z</time></trkpt><trkpt lat="39.87162781251117" lon="9.228742723681178"><ele>778.5</ele><time>2026-05-01T09:43:25Z</time></trkpt><trkpt lat="39.87150045464085" lon="9.22868456482855"><ele>775.0</ele><time>2026-05-01T09:43:26Z</time></trkpt><trkpt lat="39.871382338302" lon="9.228582118531905"><ele>771.5</ele><time>2026-05-01T09:43:27Z</time></trkpt><trkpt lat="39.87128243173292" lon="9.22844928132543"><ele>768.0</ele><time>2026-05-01T09:43:28Z</time></trkpt><trkpt lat="39.8711998205716" lon="9.228311546316101"><ele>768.0</ele><time>2026-05-01T09:43:29Z</time></trkpt><trkpt lat="39.87115409768282" lon="9.228149440938793"><ele>768.0</ele><time>2026-05-01T09:43:30Z</time></trkpt><trkpt lat="39.871126250975344" lon="9.227974426370885"><ele>768.0</ele><time>2026-05-01T09:43:31Z</time></trkpt><trkpt lat="39.871097012294854" lon="9.227788944822905"><ele>768.0</ele><time>2026-05-01T09:43:32Z</time></trkpt><trkpt lat="39.871088321741496" lon="9.227597216196594"><ele>770.0</ele><time>2026-05-01T09:43:33Z</time></trkpt><trkpt lat="39.87104983117681" lon="9.227403138601337"><ele>772.0</ele><time>2026-05-01T09:43:34Z</time></trkpt><trkpt lat="39.87098425497934" lon="9.227214290763088"><ele>774.0</ele><time>2026-05-01T09:43:35Z</time></trkpt><trkpt lat="39.87092013711261" lon="9.227033834439275"><ele>774.0</ele><time>2026-05-01T09:43:36Z</time></trkpt><trkpt lat="39.870850345842236" lon="9.226847145594862"><ele>774.0</ele><time>2026-05-01T09:43:37Z</time></trkpt><trkpt lat="39.87077974270537" lon="9.226666992934206"><ele>774.0</ele><time>2026-05-01T09:43:38Z</time></trkpt><trkpt lat="39.870710838132034" lon="9.226488537491688"><ele>779.6666666666667</ele><time>2026-05-01T09:43:39Z</time></trkpt><trkpt lat="39.870643882925066" lon="9.226312271283065"><ele>785.3333333333334</ele><time>2026-05-01T09:43:40Z</time></trkpt><trkpt lat="39.870569017605966" lon="9.226140765854417"><ele>791.0</ele><time>2026-05-01T09:43:41Z</time></trkpt><trkpt lat="39.87047290906445" lon="9.225984682231337"><ele>791.0</ele><time>2026-05-01T09:43:42Z</time></trkpt><trkpt lat="39.87036497425884" lon="9.22585562605655"><ele>791.0</ele><time>2026-05-01T09:43:43Z</time></trkpt><trkpt lat="39.87025032073616" lon="9.225749182389125"><ele>791.0</ele><time>2026-05-01T09:43:44Z</time></trkpt><trkpt lat="39.87014687572805" lon="9.225635774502175"><ele>791.0</ele><time>2026-05-01T09:43:45Z</time></trkpt><trkpt lat="39.87004930323775" lon="9.22552041239419"><ele>789.5</ele><time>2026-05-01T09:43:46Z</time></trkpt><trkpt lat="39.86995442219394" lon="9.225405248315147"><ele>788.0</ele><time>2026-05-01T09:43:47Z</time></trkpt><trkpt lat="39.869860305436035" lon="9.225287289002445"><ele>786.5</ele><time>2026-05-01T09:43:48Z</time></trkpt><trkpt lat="39.86977651863252" lon="9.225173263785706"><ele>785.0</ele><time>2026-05-01T09:43:49Z</time></trkpt><trkpt lat="39.86969857074587" lon="9.225071937580871"><ele>785.0</ele><time>2026-05-01T09:43:50Z</time></trkpt><trkpt lat="39.86962528757559" lon="9.22496921346276"><ele>785.0</ele><time>2026-05-01T09:43:51Z</time></trkpt><trkpt lat="39.8695669743561" lon="9.224866037860862"><ele>785.0</ele><time>2026-05-01T09:43:52Z</time></trkpt><trkpt lat="39.86952649728379" lon="9.224751934124605"><ele>785.0</ele><time>2026-05-01T09:43:53Z</time></trkpt><trkpt lat="39.86951161074088" lon="9.224619755805694"><ele>785.0</ele><time>2026-05-01T09:43:54Z</time></trkpt><trkpt lat="39.86953073983255" lon="9.2244853511904"><ele>784.5</ele><time>2026-05-01T09:43:55Z</time></trkpt><trkpt lat="39.86958278832343" lon="9.224353087869135"><ele>784.0</ele><time>2026-05-01T09:43:56Z</time></trkpt><trkpt lat="39.869656089080856" lon="9.224234014105429"><ele>783.5</ele><time>2026-05-01T09:43:57Z</time></trkpt><trkpt lat="39.869737372776804" lon="9.224116592914273"><ele>783.0</ele><time>2026-05-01T09:43:58Z</time></trkpt><trkpt lat="39.869820846923325" lon="9.223995038441299"><ele>784.0</ele><time>2026-05-01T09:43:59Z</time></trkpt><trkpt lat="39.86990546587093" lon="9.223861280707752"><ele>785.0</ele><time>2026-05-01T09:44:00Z</time></trkpt><trkpt lat="39.869991562400784" lon="9.223712433016393"><ele>786.0</ele><time>2026-05-01T09:44:01Z</time></trkpt><trkpt lat="39.87008093577419" lon="9.223558156029842"><ele>787.0</ele><time>2026-05-01T09:44:02Z</time></trkpt><trkpt lat="39.87017199213088" lon="9.223399791528129"><ele>787.0</ele><time>2026-05-01T09:44:03Z</time></trkpt><trkpt lat="39.8702654373737" lon="9.223231498368044"><ele>787.0</ele><time>2026-05-01T09:44:04Z</time></trkpt><trkpt lat="39.870357490278096" lon="9.223052130935608"><ele>787.0</ele><time>2026-05-01T09:44:05Z</time></trkpt><trkpt lat="39.870450586509094" lon="9.222866996332142"><ele>782.0</ele><time>2026-05-01T09:44:06Z</time></trkpt><trkpt lat="39.87054661853899" lon="9.22267612592998"><ele>777.0</ele><time>2026-05-01T09:44:07Z</time></trkpt><trkpt lat="39.87065026340383" lon="9.222487431022687"><ele>772.0</ele><time>2026-05-01T09:44:08Z</time></trkpt><trkpt lat="39.870771670914905" lon="9.222309677663327"><ele>770.6666666666666</ele><time>2026-05-01T09:44:09Z</time></trkpt><trkpt lat="39.87091777582547" lon="9.222155420103501"><ele>769.3333333333333</ele><time>2026-05-01T09:44:10Z</time></trkpt><trkpt lat="39.8710722514605" lon="9.222009642800707"><ele>768.0</ele><time>2026-05-01T09:44:11Z</time></trkpt><trkpt lat="39.87122929811966" lon="9.22185810280814"><ele>768.0</ele><time>2026-05-01T09:44:12Z</time></trkpt><trkpt lat="39.871385452420135" lon="9.221701691403956"><ele>768.0</ele><time>2026-05-01T09:44:13Z</time></trkpt><trkpt lat="39.87154344459216" lon="9.22153894625558"><ele>768.0</ele><time>2026-05-01T09:44:14Z</time></trkpt><trkpt lat="39.871701300640986" lon="9.221373527609693"><ele>766.6666666666666</ele><time>2026-05-01T09:44:15Z</time></trkpt><trkpt lat="39.87186355489649" lon="9.221209698641285"><ele>765.3333333333333</ele><time>2026-05-01T09:44:16Z</time></trkpt><trkpt lat="39.87202704601657" lon="9.22104959442241"><ele>764.0</ele><time>2026-05-01T09:44:17Z</time></trkpt><trkpt lat="39.872193632357686" lon="9.220892961829621"><ele>764.0</ele><time>2026-05-01T09:44:18Z</time></trkpt><trkpt lat="39.872362627284765" lon="9.220737389182029"><ele>764.0</ele><time>2026-05-01T09:44:19Z</time></trkpt><trkpt lat="39.8725362392625" lon="9.220589129233492"><ele>764.0</ele><time>2026-05-01T09:44:20Z</time></trkpt><trkpt lat="39.87270872232164" lon="9.220456919101869"><ele>762.3333333333333</ele><time>2026-05-01T09:44:21Z</time></trkpt><trkpt lat="39.872876856502685" lon="9.220338408608962"><ele>760.6666666666666</ele><time>2026-05-01T09:44:22Z</time></trkpt><trkpt lat="39.87303504098745" lon="9.220219093046257"><ele>759.0</ele><time>2026-05-01T09:44:23Z</time></trkpt><trkpt lat="39.87318051098387" lon="9.220087602381497"><ele>759.0</ele><time>2026-05-01T09:44:24Z</time></trkpt><trkpt lat="39.87330412524288" lon="9.219939273187547"><ele>759.0</ele><time>2026-05-01T09:44:25Z</time></trkpt><trkpt lat="39.873396675027706" lon="9.21976604122182"><ele>759.0</ele><time>2026-05-01T09:44:26Z</time></trkpt><trkpt lat="39.87344847783677" lon="9.219567741293275"><ele>759.0</ele><time>2026-05-01T09:44:27Z</time></trkpt><trkpt lat="39.87345510628284" lon="9.219355010269183"><ele>759.0</ele><time>2026-05-01T09:44:28Z</time></trkpt><trkpt lat="39.87343957180855" lon="9.219150967844266"><ele>759.0</ele><time>2026-05-01T09:44:29Z</time></trkpt><trkpt lat="39.87342793528149" lon="9.218959528920875"><ele>759.0</ele><time>2026-05-01T09:44:30Z</time></trkpt><trkpt lat="39.87341704976752" lon="9.218780445338057"><ele>759.0</ele><time>2026-05-01T09:44:31Z</time></trkpt><trkpt lat="39.873117736790746" lon="9.218657406404533"><ele>759.0</ele><time>2026-05-01T09:44:32Z</time></trkpt><trkpt lat="39.87296186225792" lon="9.218541962432594"><ele>759.0</ele><time>2026-05-01T09:44:33Z</time></trkpt><trkpt lat="39.87279874316188" lon="9.2184217825424"><ele>759.0</ele><time>2026-05-01T09:44:34Z</time></trkpt><trkpt lat="39.8726435348562" lon="9.218288499088107"><ele>753.0</ele><time>2026-05-01T09:44:35Z</time></trkpt><trkpt lat="39.87250613132077" lon="9.218134342995931"><ele>747.0</ele><time>2026-05-01T09:44:36Z</time></trkpt><trkpt lat="39.87240075708155" lon="9.217946401987083"><ele>741.0</ele><time>2026-05-01T09:44:37Z</time></trkpt><trkpt lat="39.87233884449344" lon="9.217732502222587"><ele>741.0</ele><time>2026-05-01T09:44:38Z</time></trkpt><trkpt lat="39.87232198165837" lon="9.21750208769897"><ele>741.0</ele><time>2026-05-01T09:44:39Z</time></trkpt><trkpt lat="39.87233584269366" lon="9.217256335680904"><ele>741.0</ele><time>2026-05-01T09:44:40Z</time></trkpt><trkpt lat="39.87234326247713" lon="9.217001227895285"><ele>740.6666666666666</ele><time>2026-05-01T09:44:41Z</time></trkpt><trkpt lat="39.87234156734979" lon="9.216735322127354"><ele>740.3333333333333</ele><time>2026-05-01T09:44:42Z</time></trkpt><trkpt lat="39.872341256756584" lon="9.216467884182688"><ele>740.0</ele><time>2026-05-01T09:44:43Z</time></trkpt><trkpt lat="39.87234554672152" lon="9.216202928964492"><ele>737.6666666666666</ele><time>2026-05-01T09:44:44Z</time></trkpt><trkpt lat="39.872361596038985" lon="9.215947693880763"><ele>735.3333333333334</ele><time>2026-05-01T09:44:45Z</time></trkpt><trkpt lat="39.87240089331459" lon="9.215701050946095"><ele>733.0</ele><time>2026-05-01T09:44:46Z</time></trkpt><trkpt lat="39.87246100268498" lon="9.215464961642262"><ele>733.0</ele><time>2026-05-01T09:44:47Z</time></trkpt><trkpt lat="39.8725374312813" lon="9.215254354594627"><ele>733.0</ele><time>2026-05-01T09:44:48Z</time></trkpt><trkpt lat="39.8726334990948" lon="9.215065020696176"><ele>733.0</ele><time>2026-05-01T09:44:49Z</time></trkpt><trkpt lat="39.87275735085948" lon="9.214922935686282"><ele>733.0</ele><time>2026-05-01T09:44:50Z</time></trkpt><trkpt lat="39.87291047377594" lon="9.21482888136505"><ele>733.0</ele><time>2026-05-01T09:44:51Z</time></trkpt><trkpt lat="39.87308494834635" lon="9.214760395994888"><ele>733.0</ele><time>2026-05-01T09:44:52Z</time></trkpt><trkpt lat="39.87326182429617" lon="9.214686411497865"><ele>730.6666666666667</ele><time>2026-05-01T09:44:53Z</time></trkpt><trkpt lat="39.873429624414136" lon="9.214597639510043"><ele>728.3333333333334</ele><time>2026-05-01T09:44:54Z</time></trkpt><trkpt lat="39.87357346415504" lon="9.214479391272894"><ele>726.0</ele><time>2026-05-01T09:44:55Z</time></trkpt><trkpt lat="39.873684977119126" lon="9.21432007646192"><ele>726.0</ele><time>2026-05-01T09:44:56Z</time></trkpt><trkpt lat="39.87376012631423" lon="9.21414898918309"><ele>726.0</ele><time>2026-05-01T09:44:57Z</time></trkpt><trkpt lat="39.87380231922998" lon="9.213966622200996"><ele>726.0</ele><time>2026-05-01T09:44:58Z</time></trkpt><trkpt lat="39.873808057445544" lon="9.213768867930044"><ele>726.0</ele><time>2026-05-01T09:44:59Z</time></trkpt><trkpt lat="39.87376793189078" lon="9.213558559571833"><ele>723.3333333333334</ele><time>2026-05-01T09:45:00Z</time></trkpt><trkpt lat="39.873684918204994" lon="9.213356602065916"><ele>720.6666666666667</ele><time>2026-05-01T09:45:01Z</time></trkpt><trkpt lat="39.87357171781967" lon="9.213180768065484"><ele>718.0</ele><time>2026-05-01T09:45:02Z</time></trkpt><trkpt lat="39.87343294603422" lon="9.213052981311964"><ele>724.0</ele><time>2026-05-01T09:45:03Z</time></trkpt><trkpt lat="39.87327303634396" lon="9.212973639460674"><ele>730.0</ele><time>2026-05-01T09:45:04Z</time></trkpt><trkpt lat="39.873099065008375" lon="9.21292649052692"><ele>736.0</ele><time>2026-05-01T09:45:05Z</time></trkpt><trkpt lat="39.87292526690906" lon="9.21287010104427"><ele>736.0</ele><time>2026-05-01T09:45:06Z</time></trkpt><trkpt lat="39.872758430243096" lon="9.212776824793911"><ele>736.0</ele><time>2026-05-01T09:45:07Z</time></trkpt><trkpt lat="39.872596428924105" lon="9.212651138861911"><ele>736.0</ele><time>2026-05-01T09:45:08Z</time></trkpt><trkpt lat="39.87244683092939" lon="9.212499779453054"><ele>737.6666666666667</ele><time>2026-05-01T09:45:09Z</time></trkpt><trkpt lat="39.87230374465387" lon="9.212323093893843"><ele>739.3333333333334</ele><time>2026-05-01T09:45:10Z</time></trkpt><trkpt lat="39.87216718287405" lon="9.212134947981303"><ele>741.0</ele><time>2026-05-01T09:45:11Z</time></trkpt><trkpt lat="39.872028046504596" lon="9.211946044895624"><ele>741.0</ele><time>2026-05-01T09:45:12Z</time></trkpt><trkpt lat="39.87188765385823" lon="9.21176069611407"><ele>741.0</ele><time>2026-05-01T09:45:13Z</time></trkpt><trkpt lat="39.87174788359165" lon="9.211576721994767"><ele>741.0</ele><time>2026-05-01T09:45:14Z</time></trkpt><trkpt lat="39.87161258437263" lon="9.211392937035443"><ele>734.0</ele><time>2026-05-01T09:45:15Z</time></trkpt><trkpt lat="39.87149124217619" lon="9.211200516728452"><ele>727.0</ele><time>2026-05-01T09:45:16Z</time></trkpt><trkpt lat="39.871393915880994" lon="9.210986766622566"><ele>720.0</ele><time>2026-05-01T09:45:17Z</time></trkpt><trkpt lat="39.87131790952669" lon="9.210755996299712"><ele>727.3333333333334</ele><time>2026-05-01T09:45:18Z</time></trkpt><trkpt lat="39.87124507492928" lon="9.210520164135092"><ele>734.6666666666667</ele><time>2026-05-01T09:45:19Z</time></trkpt><trkpt lat="39.87115216584687" lon="9.210292796091332"><ele>742.0</ele><time>2026-05-01T09:45:20Z</time></trkpt><trkpt lat="39.87102801199407" lon="9.210088637729031"><ele>739.0</ele><time>2026-05-01T09:45:21Z</time></trkpt><trkpt lat="39.87087756574966" lon="9.20990819013045"><ele>736.0</ele><time>2026-05-01T09:45:22Z</time></trkpt><trkpt lat="39.87071141728278" lon="9.2097509055978"><ele>733.0</ele><time>2026-05-01T09:45:23Z</time></trkpt><trkpt lat="39.87054753212033" lon="9.20960505589409"><ele>733.0</ele><time>2026-05-01T09:45:24Z</time></trkpt><trkpt lat="39.87039071358667" lon="9.209461268008928"><ele>733.0</ele><time>2026-05-01T09:45:25Z</time></trkpt><trkpt lat="39.870246393458785" lon="9.209314024435603"><ele>733.0</ele><time>2026-05-01T09:45:26Z</time></trkpt><trkpt lat="39.87011600189889" lon="9.209157874445232"><ele>723.6666666666667</ele><time>2026-05-01T09:45:27Z</time></trkpt><trkpt lat="39.87000573958672" lon="9.208976976481058"><ele>714.3333333333334</ele><time>2026-05-01T09:45:28Z</time></trkpt><trkpt lat="39.86992025973154" lon="9.208759429146907"><ele>705.0</ele><time>2026-05-01T09:45:29Z</time></trkpt><trkpt lat="39.869858703733094" lon="9.208520872973196"><ele>705.0</ele><time>2026-05-01T09:45:30Z</time></trkpt><trkpt lat="39.869793521097584" lon="9.208279695568665"><ele>705.0</ele><time>2026-05-01T09:45:31Z</time></trkpt><trkpt lat="39.86970699358521" lon="9.208047802985694"><ele>705.0</ele><time>2026-05-01T09:45:32Z</time></trkpt><trkpt lat="39.86959615686751" lon="9.207832399403683"><ele>708.6666666666666</ele><time>2026-05-01T09:45:33Z</time></trkpt><trkpt lat="39.86948225699905" lon="9.207621991609532"><ele>712.3333333333333</ele><time>2026-05-01T09:45:34Z</time></trkpt><trkpt lat="39.86939070443452" lon="9.207410531366655"><ele>716.0</ele><time>2026-05-01T09:45:35Z</time></trkpt><trkpt lat="39.869323446102854" lon="9.207196487706563"><ele>716.0</ele><time>2026-05-01T09:45:36Z</time></trkpt><trkpt lat="39.86927901422965" lon="9.206984724471639"><ele>716.0</ele><time>2026-05-01T09:45:37Z</time></trkpt><trkpt lat="39.869267404534334" lon="9.206770642367195"><ele>716.0</ele><time>2026-05-01T09:45:38Z</time></trkpt><trkpt lat="39.869293908237886" lon="9.206548653878686"><ele>707.3333333333333</ele><time>2026-05-01T09:45:39Z</time></trkpt><trkpt lat="39.869336541291126" lon="9.20632665347377"><ele>698.6666666666666</ele><time>2026-05-01T09:45:40Z</time></trkpt><trkpt lat="39.869389162551904" lon="9.206119243439987"><ele>690.0</ele><time>2026-05-01T09:45:41Z</time></trkpt><trkpt lat="39.869480738655334" lon="9.205927740823277"><ele>690.0</ele><time>2026-05-01T09:45:42Z</time></trkpt><trkpt lat="39.86960629713954" lon="9.205758278801405"><ele>690.0</ele><time>2026-05-01T09:45:43Z</time></trkpt><trkpt lat="39.86975578781017" lon="9.205619834658355"><ele>690.0</ele><time>2026-05-01T09:45:44Z</time></trkpt><trkpt lat="39.869925393610515" lon="9.205520580500055"><ele>684.0</ele><time>2026-05-01T09:45:45Z</time></trkpt><trkpt lat="39.87011100274152" lon="9.205438190046237"><ele>678.0</ele><time>2026-05-01T09:45:46Z</time></trkpt><trkpt lat="39.87029972416001" lon="9.205350503013316"><ele>672.0</ele><time>2026-05-01T09:45:47Z</time></trkpt><trkpt lat="39.870492536935146" lon="9.205257932492684"><ele>672.0</ele><time>2026-05-01T09:45:48Z</time></trkpt><trkpt lat="39.87068853037599" lon="9.205153617947214"><ele>672.0</ele><time>2026-05-01T09:45:49Z</time></trkpt><trkpt lat="39.870879184388585" lon="9.205033230918398"><ele>672.0</ele><time>2026-05-01T09:45:50Z</time></trkpt><trkpt lat="39.87106424868838" lon="9.204891917599456"><ele>670.0</ele><time>2026-05-01T09:45:51Z</time></trkpt><trkpt lat="39.871243169227775" lon="9.204735509905701"><ele>668.0</ele><time>2026-05-01T09:45:52Z</time></trkpt><trkpt lat="39.87141976073574" lon="9.204573941126206"><ele>666.0</ele><time>2026-05-01T09:45:53Z</time></trkpt><trkpt lat="39.871599705277" lon="9.204411562670943"><ele>666.3333333333334</ele><time>2026-05-01T09:45:54Z</time></trkpt><trkpt lat="39.87178059083628" lon="9.204248224997055"><ele>666.6666666666667</ele><time>2026-05-01T09:45:55Z</time></trkpt><trkpt lat="39.87196116056392" lon="9.204086772361757"><ele>667.0</ele><time>2026-05-01T09:45:56Z</time></trkpt><trkpt lat="39.872140531984684" lon="9.203925197019963"><ele>667.0</ele><time>2026-05-01T09:45:57Z</time></trkpt><trkpt lat="39.872315196752616" lon="9.203764461817869"><ele>667.0</ele><time>2026-05-01T09:45:58Z</time></trkpt><trkpt lat="39.87248239754622" lon="9.20361050094434"><ele>667.0</ele><time>2026-05-01T09:45:59Z</time></trkpt><trkpt lat="39.87264684783707" lon="9.203468518409421"><ele>669.0</ele><time>2026-05-01T09:46:00Z</time></trkpt><trkpt lat="39.87282059056865" lon="9.203342447015153"><ele>671.0</ele><time>2026-05-01T09:46:01Z</time></trkpt><trkpt lat="39.87300834831103" lon="9.203231023888137"><ele>673.0</ele><time>2026-05-01T09:46:02Z</time></trkpt><trkpt lat="39.87320117028137" lon="9.203123060668078"><ele>666.6666666666667</ele><time>2026-05-01T09:46:03Z</time></trkpt><trkpt lat="39.873396770987085" lon="9.203003094316728"><ele>660.3333333333334</ele><time>2026-05-01T09:46:04Z</time></trkpt><trkpt lat="39.873591265657566" lon="9.202882240004984"><ele>654.0</ele><time>2026-05-01T09:46:05Z</time></trkpt><trkpt lat="39.8737840814382" lon="9.202767613685857"><ele>654.0</ele><time>2026-05-01T09:46:06Z</time></trkpt><trkpt lat="39.873965744423" lon="9.202662263413709"><ele>654.0</ele><time>2026-05-01T09:46:07Z</time></trkpt><trkpt lat="39.87414072130258" lon="9.202564556887088"><ele>654.0</ele><time>2026-05-01T09:46:08Z</time></trkpt><trkpt lat="39.8743225942914" lon="9.202483185070985"><ele>653.6666666666666</ele><time>2026-05-01T09:46:09Z</time></trkpt><trkpt lat="39.874507076441624" lon="9.202443353504362"><ele>653.3333333333333</ele><time>2026-05-01T09:46:10Z</time></trkpt><trkpt lat="39.874693443842666" lon="9.202498641969274"><ele>653.0</ele><time>2026-05-01T09:46:11Z</time></trkpt><trkpt lat="39.874893316000524" lon="9.202531732306724"><ele>653.0</ele><time>2026-05-01T09:46:12Z</time></trkpt><trkpt lat="39.87509209592487" lon="9.202602032164613"><ele>653.0</ele><time>2026-05-01T09:46:13Z</time></trkpt><trkpt lat="39.87529357445096" lon="9.202638945681388"><ele>653.0</ele><time>2026-05-01T09:46:14Z</time></trkpt><trkpt lat="39.87549942192692" lon="9.202642378036245"><ele>652.0</ele><time>2026-05-01T09:46:15Z</time></trkpt><trkpt lat="39.87570233187553" lon="9.202620089738154"><ele>651.0</ele><time>2026-05-01T09:46:16Z</time></trkpt><trkpt lat="39.87590877087766" lon="9.202578890474014"><ele>650.0</ele><time>2026-05-01T09:46:17Z</time></trkpt><trkpt lat="39.87611726725655" lon="9.202535780763505"><ele>650.0</ele><time>2026-05-01T09:46:18Z</time></trkpt><trkpt lat="39.87632755489232" lon="9.202502420358268"><ele>650.0</ele><time>2026-05-01T09:46:19Z</time></trkpt><trkpt lat="39.87654238107054" lon="9.202476234186983"><ele>650.0</ele><time>2026-05-01T09:46:20Z</time></trkpt><trkpt lat="39.87675555469122" lon="9.202445799450297"><ele>650.6666666666666</ele><time>2026-05-01T09:46:21Z</time></trkpt><trkpt lat="39.876968131673365" lon="9.202399076478427"><ele>651.3333333333334</ele><time>2026-05-01T09:46:22Z</time></trkpt><trkpt lat="39.8771788448283" lon="9.20233436716073"><ele>652.0</ele><time>2026-05-01T09:46:23Z</time></trkpt><trkpt lat="39.87739010974423" lon="9.2022630248126"><ele>640.0</ele><time>2026-05-01T09:46:24Z</time></trkpt><trkpt lat="39.87760188115867" lon="9.202191150649488"><ele>628.0</ele><time>2026-05-01T09:46:25Z</time></trkpt><trkpt lat="39.87781092733522" lon="9.202112955200775"><ele>616.0</ele><time>2026-05-01T09:46:26Z</time></trkpt><trkpt lat="39.878018304721024" lon="9.202033979118504"><ele>616.0</ele><time>2026-05-01T09:46:27Z</time></trkpt><trkpt lat="39.878159307724104" lon="9.201976599475186"><ele>616.0</ele><time>2026-05-01T09:46:28Z</time></trkpt><trkpt lat="39.87834931463377" lon="9.201977280105517"><ele>616.0</ele><time>2026-05-01T09:46:29Z</time></trkpt><trkpt lat="39.87853415494052" lon="9.202028598760819"><ele>612.6666666666667</ele><time>2026-05-01T09:46:30Z</time></trkpt><trkpt lat="39.87872055176138" lon="9.202107633475286"><ele>609.3333333333334</ele><time>2026-05-01T09:46:31Z</time></trkpt><trkpt lat="39.87891360822725" lon="9.202193946700024"><ele>606.0</ele><time>2026-05-01T09:46:32Z</time></trkpt><trkpt lat="39.87909708011886" lon="9.202287248978022"><ele>604.6666666666666</ele><time>2026-05-01T09:46:33Z</time></trkpt><trkpt lat="39.87926220716913" lon="9.202396499943475"><ele>603.3333333333333</ele><time>2026-05-01T09:46:34Z</time></trkpt><trkpt lat="39.8794067234215" lon="9.202519390834578"><ele>602.0</ele><time>2026-05-01T09:46:35Z</time></trkpt><trkpt lat="39.87950028566923" lon="9.202671056093088"><ele>602.0</ele><time>2026-05-01T09:46:36Z</time></trkpt><trkpt lat="39.87955972631665" lon="9.202838987746112"><ele>602.0</ele><time>2026-05-01T09:46:37Z</time></trkpt><trkpt lat="39.87958920770942" lon="9.20303679395037"><ele>602.0</ele><time>2026-05-01T09:46:38Z</time></trkpt><trkpt lat="39.87961434558549" lon="9.203274519705511"><ele>603.3333333333333</ele><time>2026-05-01T09:46:39Z</time></trkpt><trkpt lat="39.87964170204678" lon="9.203523191286223"><ele>604.6666666666666</ele><time>2026-05-01T09:46:40Z</time></trkpt><trkpt lat="39.8796685002934" lon="9.203781334044049"><ele>606.0</ele><time>2026-05-01T09:46:41Z</time></trkpt><trkpt lat="39.87969796261301" lon="9.204051762845035"><ele>608.3333333333334</ele><time>2026-05-01T09:46:42Z</time></trkpt><trkpt lat="39.879739416130896" lon="9.204327218680273"><ele>610.6666666666667</ele><time>2026-05-01T09:46:43Z</time></trkpt><trkpt lat="39.879806484486735" lon="9.204596286220655"><ele>613.0</ele><time>2026-05-01T09:46:44Z</time></trkpt><trkpt lat="39.87987310963729" lon="9.204868799613957"><ele>615.3333333333334</ele><time>2026-05-01T09:46:45Z</time></trkpt><trkpt lat="39.879950947430586" lon="9.205140383374804"><ele>617.6666666666666</ele><time>2026-05-01T09:46:46Z</time></trkpt><trkpt lat="39.88003565138082" lon="9.205394489422982"><ele>620.0</ele><time>2026-05-01T09:46:47Z</time></trkpt><trkpt lat="39.88012594918228" lon="9.205647320071328"><ele>610.0</ele><time>2026-05-01T09:46:48Z</time></trkpt><trkpt lat="39.880227452611116" lon="9.205894653009727"><ele>600.0</ele><time>2026-05-01T09:46:49Z</time></trkpt><trkpt lat="39.88035534257095" lon="9.206110867108695"><ele>590.0</ele><time>2026-05-01T09:46:50Z</time></trkpt><trkpt lat="39.880476141287694" lon="9.206323441390614"><ele>596.3333333333333</ele><time>2026-05-01T09:46:51Z</time></trkpt><trkpt lat="39.88058974926259" lon="9.20652827547046"><ele>602.6666666666666</ele><time>2026-05-01T09:46:52Z</time></trkpt><trkpt lat="39.88072424106203" lon="9.206699214548845"><ele>609.0</ele><time>2026-05-01T09:46:53Z</time></trkpt><trkpt lat="39.88088221479135" lon="9.20683265561449"><ele>606.0</ele><time>2026-05-01T09:46:54Z</time></trkpt><trkpt lat="39.88107118606679" lon="9.206917225050868"><ele>603.0</ele><time>2026-05-01T09:46:55Z</time></trkpt><trkpt lat="39.88128052122692" lon="9.206968188469379"><ele>600.0</ele><time>2026-05-01T09:46:56Z</time></trkpt><trkpt lat="39.88148252897437" lon="9.207007399056707"><ele>600.0</ele><time>2026-05-01T09:46:57Z</time></trkpt><trkpt lat="39.88167629258027" lon="9.207049273765676"><ele>600.0</ele><time>2026-05-01T09:46:58Z</time></trkpt><trkpt lat="39.88187014286255" lon="9.207053413558828"><ele>600.0</ele><time>2026-05-01T09:46:59Z</time></trkpt><trkpt lat="39.88205964801279" lon="9.206990301857575"><ele>601.0</ele><time>2026-05-01T09:47:00Z</time></trkpt><trkpt lat="39.88224647989197" lon="9.20687929813851"><ele>602.0</ele><time>2026-05-01T09:47:01Z</time></trkpt><trkpt lat="39.88243001762835" lon="9.206761822517565"><ele>603.0</ele><time>2026-05-01T09:47:02Z</time></trkpt><trkpt lat="39.88261922712305" lon="9.20667342630432"><ele>603.6666666666666</ele><time>2026-05-01T09:47:03Z</time></trkpt><trkpt lat="39.88280490279192" lon="9.206597833341128"><ele>604.3333333333333</ele><time>2026-05-01T09:47:04Z</time></trkpt><trkpt lat="39.88297500131704" lon="9.20652014080008"><ele>605.0</ele><time>2026-05-01T09:47:05Z</time></trkpt><trkpt lat="39.88312400681827" lon="9.206412527764725"><ele>605.0</ele><time>2026-05-01T09:47:06Z</time></trkpt><trkpt lat="39.8832399026218" lon="9.206259415258435"><ele>605.0</ele><time>2026-05-01T09:47:07Z</time></trkpt><trkpt lat="39.88331998304226" lon="9.206058837610325"><ele>605.0</ele><time>2026-05-01T09:47:08Z</time></trkpt><trkpt lat="39.88337715169415" lon="9.205836237529208"><ele>604.3333333333333</ele><time>2026-05-01T09:47:09Z</time></trkpt><trkpt lat="39.88340905171652" lon="9.205602962329056"><ele>603.6666666666666</ele><time>2026-05-01T09:47:10Z</time></trkpt><trkpt lat="39.883403600772276" lon="9.205366744599702"><ele>603.0</ele><time>2026-05-01T09:47:11Z</time></trkpt><trkpt lat="39.88335181673906" lon="9.205124385497118"><ele>603.0</ele><time>2026-05-01T09:47:12Z</time></trkpt><trkpt lat="39.88329301994049" lon="9.204880127751556"><ele>603.0</ele><time>2026-05-01T09:47:13Z</time></trkpt><trkpt lat="39.8832462496687" lon="9.204629232353508"><ele>603.0</ele><time>2026-05-01T09:47:14Z</time></trkpt><trkpt lat="39.88321401758442" lon="9.204376980454809"><ele>603.6666666666666</ele><time>2026-05-01T09:47:15Z</time></trkpt><trkpt lat="39.88318005034858" lon="9.20412051014854"><ele>604.3333333333333</ele><time>2026-05-01T09:47:16Z</time></trkpt><trkpt lat="39.883141439425515" lon="9.203860790106171"><ele>605.0</ele><time>2026-05-01T09:47:17Z</time></trkpt><trkpt lat="39.88309903074484" lon="9.203600752634522"><ele>605.0</ele><time>2026-05-01T09:47:18Z</time></trkpt><trkpt lat="39.88305854614345" lon="9.203354979360125"><ele>605.0</ele><time>2026-05-01T09:47:19Z</time></trkpt><trkpt lat="39.883023871192634" lon="9.203115991914824"><ele>605.0</ele><time>2026-05-01T09:47:20Z</time></trkpt><trkpt lat="39.883013720252706" lon="9.202888057688767"><ele>602.3333333333333</ele><time>2026-05-01T09:47:21Z</time></trkpt><trkpt lat="39.88304925868053" lon="9.202659160722042"><ele>599.6666666666666</ele><time>2026-05-01T09:47:22Z</time></trkpt><trkpt lat="39.883126524767114" lon="9.202424898031754"><ele>597.0</ele><time>2026-05-01T09:47:23Z</time></trkpt><trkpt lat="39.88322696974986" lon="9.20218797632401"><ele>589.6666666666666</ele><time>2026-05-01T09:47:24Z</time></trkpt><trkpt lat="39.88332645499167" lon="9.201948783956643"><ele>582.3333333333333</ele><time>2026-05-01T09:47:25Z</time></trkpt><trkpt lat="39.883420740339" lon="9.201704967784373"><ele>575.0</ele><time>2026-05-01T09:47:26Z</time></trkpt><trkpt lat="39.883510038395364" lon="9.201460152240962"><ele>590.3333333333333</ele><time>2026-05-01T09:47:27Z</time></trkpt><trkpt lat="39.883587137360045" lon="9.201215802225452"><ele>605.6666666666666</ele><time>2026-05-01T09:47:28Z</time></trkpt><trkpt lat="39.88363425032649" lon="9.200972627663342"><ele>621.0</ele><time>2026-05-01T09:47:29Z</time></trkpt><trkpt lat="39.88363690337956" lon="9.200727930055047"><ele>617.3333333333334</ele><time>2026-05-01T09:47:30Z</time></trkpt><trkpt lat="39.8835975576342" lon="9.200489048223933"><ele>613.6666666666667</ele><time>2026-05-01T09:47:31Z</time></trkpt><trkpt lat="39.883552431402165" lon="9.200251043546247"><ele>610.0</ele><time>2026-05-01T09:47:32Z</time></trkpt><trkpt lat="39.883539544010624" lon="9.200007964061236"><ele>604.3333333333334</ele><time>2026-05-01T09:47:33Z</time></trkpt><trkpt lat="39.88356023588994" lon="9.199759269975042"><ele>598.6666666666666</ele><time>2026-05-01T09:47:34Z</time></trkpt><trkpt lat="39.88361531571189" lon="9.19951010371901"><ele>593.0</ele><time>2026-05-01T09:47:35Z</time></trkpt><trkpt lat="39.883691916963734" lon="9.199272271753584"><ele>593.0</ele><time>2026-05-01T09:47:36Z</time></trkpt><trkpt lat="39.88377336710968" lon="9.199035268348759"><ele>593.0</ele><time>2026-05-01T09:47:37Z</time></trkpt><trkpt lat="39.883830751097264" lon="9.198790865853733"><ele>593.0</ele><time>2026-05-01T09:47:38Z</time></trkpt><trkpt lat="39.88383151831009" lon="9.198538986550707"><ele>589.6666666666666</ele><time>2026-05-01T09:47:39Z</time></trkpt><trkpt lat="39.883790982526726" lon="9.198296353002586"><ele>586.3333333333334</ele><time>2026-05-01T09:47:40Z</time></trkpt><trkpt lat="39.88374272189554" lon="9.198059255939937"><ele>583.0</ele><time>2026-05-01T09:47:41Z</time></trkpt><trkpt lat="39.88372245430519" lon="9.197832522023305"><ele>578.6666666666667</ele><time>2026-05-01T09:47:42Z</time></trkpt><trkpt lat="39.88373250064023" lon="9.197622847914573"><ele>574.3333333333334</ele><time>2026-05-01T09:47:43Z</time></trkpt><trkpt lat="39.883767838193556" lon="9.197431791048153"><ele>570.0</ele><time>2026-05-01T09:47:44Z</time></trkpt><trkpt lat="39.883848168690335" lon="9.197264926787977"><ele>563.0</ele><time>2026-05-01T09:47:45Z</time></trkpt><trkpt lat="39.88398668371046" lon="9.197141337294394"><ele>556.0</ele><time>2026-05-01T09:47:46Z</time></trkpt><trkpt lat="39.884130980644045" lon="9.197011125742721"><ele>549.0</ele><time>2026-05-01T09:47:47Z</time></trkpt><trkpt lat="39.88428738203227" lon="9.196905119419613"><ele>549.0</ele><time>2026-05-01T09:47:48Z</time></trkpt><trkpt lat="39.88444142810641" lon="9.196796029989967"><ele>549.0</ele><time>2026-05-01T09:47:49Z</time></trkpt><trkpt lat="39.884596538334094" lon="9.19667926498945"><ele>549.0</ele><time>2026-05-01T09:47:50Z</time></trkpt><trkpt lat="39.88475391524824" lon="9.196557225825712"><ele>546.6666666666666</ele><time>2026-05-01T09:47:51Z</time></trkpt><trkpt lat="39.88491242858493" lon="9.19643649000635"><ele>544.3333333333333</ele><time>2026-05-01T09:47:52Z</time></trkpt><trkpt lat="39.88507320885478" lon="9.196312241551542"><ele>542.0</ele><time>2026-05-01T09:47:53Z</time></trkpt><trkpt lat="39.885235720029144" lon="9.19619247136375"><ele>542.0</ele><time>2026-05-01T09:47:54Z</time></trkpt><trkpt lat="39.885398545965764" lon="9.19607561891024"><ele>542.0</ele><time>2026-05-01T09:47:55Z</time></trkpt><trkpt lat="39.88555978938865" lon="9.195955733686931"><ele>542.0</ele><time>2026-05-01T09:47:56Z</time></trkpt><trkpt lat="39.88571760101989" lon="9.19583090565017"><ele>542.0</ele><time>2026-05-01T09:47:57Z</time></trkpt><trkpt lat="39.88586729898524" lon="9.195709228467777"><ele>542.0</ele><time>2026-05-01T09:47:58Z</time></trkpt><trkpt lat="39.886009241593854" lon="9.195598318958545"><ele>542.0</ele><time>2026-05-01T09:47:59Z</time></trkpt><trkpt lat="39.88614685299621" lon="9.195507291705168"><ele>534.3333333333333</ele><time>2026-05-01T09:48:00Z</time></trkpt><trkpt lat="39.88628826258308" lon="9.195451094831462"><ele>526.6666666666666</ele><time>2026-05-01T09:48:01Z</time></trkpt><trkpt lat="39.8864450006391" lon="9.195429250865265"><ele>519.0</ele><time>2026-05-01T09:48:02Z</time></trkpt><trkpt lat="39.886607763992465" lon="9.195436220509036"><ele>511.66666666666663</ele><time>2026-05-01T09:48:03Z</time></trkpt><trkpt lat="39.88677072229033" lon="9.19548040235268"><ele>504.3333333333333</ele><time>2026-05-01T09:48:04Z</time></trkpt><trkpt lat="39.88691943715379" lon="9.195585841795458"><ele>497.0</ele><time>2026-05-01T09:48:05Z</time></trkpt><trkpt lat="39.887078161335765" lon="9.195669799381113"><ele>503.75</ele><time>2026-05-01T09:48:06Z</time></trkpt><trkpt lat="39.88721406325914" lon="9.195759633668102"><ele>510.5</ele><time>2026-05-01T09:48:07Z</time></trkpt><trkpt lat="39.88734583753271" lon="9.195838291249705"><ele>517.25</ele><time>2026-05-01T09:48:08Z</time></trkpt><trkpt lat="39.887470033350326" lon="9.195917529621578"><ele>524.0</ele><time>2026-05-01T09:48:09Z</time></trkpt><trkpt lat="39.88759219791217" lon="9.195995194610825"><ele>517.25</ele><time>2026-05-01T09:48:10Z</time></trkpt><trkpt lat="39.88770911398855" lon="9.196069992446148"><ele>510.5</ele><time>2026-05-01T09:48:11Z</time></trkpt><trkpt lat="39.88782297112185" lon="9.196142423952356"><ele>503.75</ele><time>2026-05-01T09:48:12Z</time></trkpt><trkpt lat="39.88793537327144" lon="9.196219408073969"><ele>497.0</ele><time>2026-05-01T09:48:13Z</time></trkpt><trkpt lat="39.88803948973728" lon="9.196315948472163"><ele>497.0</ele><time>2026-05-01T09:48:14Z</time></trkpt><trkpt lat="39.888104249097765" lon="9.196462487150146"><ele>497.0</ele><time>2026-05-01T09:48:15Z</time></trkpt><trkpt lat="39.88815662883226" lon="9.196618640815501"><ele>497.0</ele><time>2026-05-01T09:48:16Z</time></trkpt><trkpt lat="39.88818308861905" lon="9.196803576606802"><ele>497.0</ele><time>2026-05-01T09:48:17Z</time></trkpt><trkpt lat="39.88824598454556" lon="9.196973417732144"><ele>501.25</ele><time>2026-05-01T09:48:18Z</time></trkpt><trkpt lat="39.88831815441772" lon="9.197130581098897"><ele>505.5</ele><time>2026-05-01T09:48:19Z</time></trkpt><trkpt lat="39.888426141709985" lon="9.197250403248233"><ele>509.75</ele><time>2026-05-01T09:48:20Z</time></trkpt><trkpt lat="39.88855919250219" lon="9.197315359944488"><ele>514.0</ele><time>2026-05-01T09:48:21Z</time></trkpt><trkpt lat="39.88870457042021" lon="9.19732503731499"><ele>515.0</ele><time>2026-05-01T09:48:22Z</time></trkpt><trkpt lat="39.88884905415814" lon="9.197284257621051"><ele>516.0</ele><time>2026-05-01T09:48:23Z</time></trkpt><trkpt lat="39.88898239322987" lon="9.19719371126778"><ele>517.0</ele><time>2026-05-01T09:48:24Z</time></trkpt><trkpt lat="39.8890990578386" lon="9.197062507315755"><ele>517.0</ele><time>2026-05-01T09:48:25Z</time></trkpt><trkpt lat="39.889206817741716" lon="9.196915848246936"><ele>517.0</ele><time>2026-05-01T09:48:26Z</time></trkpt><trkpt lat="39.88931036883969" lon="9.196764006278977"><ele>517.0</ele><time>2026-05-01T09:48:27Z</time></trkpt><trkpt lat="39.889387244347375" lon="9.196596226831417"><ele>525.25</ele><time>2026-05-01T09:48:28Z</time></trkpt><trkpt lat="39.88943062825349" lon="9.196410678399964"><ele>533.5</ele><time>2026-05-01T09:48:29Z</time></trkpt><trkpt lat="39.889440678533305" lon="9.196224810034073"><ele>541.75</ele><time>2026-05-01T09:48:30Z</time></trkpt><trkpt lat="39.889425120807154" lon="9.19603697596774"><ele>550.0</ele><time>2026-05-01T09:48:31Z</time></trkpt><trkpt lat="39.88938056536522" lon="9.19585216285964"><ele>549.6666666666667</ele><time>2026-05-01T09:48:32Z</time></trkpt><trkpt lat="39.88932207597249" lon="9.195668676128603"><ele>549.3333333333334</ele><time>2026-05-01T09:48:33Z</time></trkpt><trkpt lat="39.88926627855893" lon="9.195479325677086"><ele>549.0</ele><time>2026-05-01T09:48:34Z</time></trkpt><trkpt lat="39.88921573455473" lon="9.195283359636536"><ele>536.0</ele><time>2026-05-01T09:48:35Z</time></trkpt><trkpt lat="39.88916690695461" lon="9.195084748524463"><ele>523.0</ele><time>2026-05-01T09:48:36Z</time></trkpt><trkpt lat="39.88911598011499" lon="9.19488858347561"><ele>510.0</ele><time>2026-05-01T09:48:37Z</time></trkpt><trkpt lat="39.88907067115073" lon="9.194696973078662"><ele>506.0</ele><time>2026-05-01T09:48:38Z</time></trkpt><trkpt lat="39.889051604016856" lon="9.194512427973436"><ele>502.0</ele><time>2026-05-01T09:48:39Z</time></trkpt><trkpt lat="39.8890767978796" lon="9.194331281028946"><ele>498.0</ele><time>2026-05-01T09:48:40Z</time></trkpt><trkpt lat="39.88914734870118" lon="9.194170113470024"><ele>494.0</ele><time>2026-05-01T09:48:41Z</time></trkpt><trkpt lat="39.88927279990271" lon="9.194072820900852"><ele>492.0</ele><time>2026-05-01T09:48:42Z</time></trkpt><trkpt lat="39.88939633628359" lon="9.193946445587422"><ele>490.0</ele><time>2026-05-01T09:48:43Z</time></trkpt><trkpt lat="39.88953856900587" lon="9.193846257147497"><ele>488.0</ele><time>2026-05-01T09:48:44Z</time></trkpt><trkpt lat="39.889676595470604" lon="9.193732707945083"><ele>488.0</ele><time>2026-05-01T09:48:45Z</time></trkpt><trkpt lat="39.88981634793245" lon="9.193608343151647"><ele>488.0</ele><time>2026-05-01T09:48:46Z</time></trkpt><trkpt lat="39.88996184596515" lon="9.19347925158998"><ele>488.0</ele><time>2026-05-01T09:48:47Z</time></trkpt><trkpt lat="39.89011030967075" lon="9.19334815511523"><ele>484.3333333333333</ele><time>2026-05-01T09:48:48Z</time></trkpt><trkpt lat="39.89026220749292" lon="9.193217888163932"><ele>480.66666666666663</ele><time>2026-05-01T09:48:49Z</time></trkpt><trkpt lat="39.8904209102607" lon="9.193086582613592"><ele>477.0</ele><time>2026-05-01T09:48:50Z</time></trkpt><trkpt lat="39.89058517587607" lon="9.192955624858024"><ele>477.0</ele><time>2026-05-01T09:48:51Z</time></trkpt><trkpt lat="39.89075479969698" lon="9.192826398625094"><ele>477.0</ele><time>2026-05-01T09:48:52Z</time></trkpt><trkpt lat="39.890921461385446" lon="9.19270940492382"><ele>477.0</ele><time>2026-05-01T09:48:53Z</time></trkpt><trkpt lat="39.89107361684154" lon="9.192612164845075"><ele>480.25</ele><time>2026-05-01T09:48:54Z</time></trkpt><trkpt lat="39.89120903249205" lon="9.192524205585842"><ele>483.5</ele><time>2026-05-01T09:48:55Z</time></trkpt><trkpt lat="39.89133459815831" lon="9.192432476394544"><ele>486.75</ele><time>2026-05-01T09:48:56Z</time></trkpt><trkpt lat="39.89145710796226" lon="9.192335284682454"><ele>490.0</ele><time>2026-05-01T09:48:57Z</time></trkpt><trkpt lat="39.89157926258352" lon="9.19224266431716"><ele>481.0</ele><time>2026-05-01T09:48:58Z</time></trkpt><trkpt lat="39.891712062634724" lon="9.192166832103206"><ele>472.0</ele><time>2026-05-01T09:48:59Z</time></trkpt><trkpt lat="39.891868185608274" lon="9.192134092056072"><ele>463.0</ele><time>2026-05-01T09:49:00Z</time></trkpt><trkpt lat="39.89203537391628" lon="9.192131524065614"><ele>460.33333333333337</ele><time>2026-05-01T09:49:01Z</time></trkpt><trkpt lat="39.8922041561137" lon="9.192159185837014"><ele>457.66666666666663</ele><time>2026-05-01T09:49:02Z</time></trkpt><trkpt lat="39.89237526269143" lon="9.192227800275898"><ele>455.0</ele><time>2026-05-01T09:49:03Z</time></trkpt><trkpt lat="39.89255374519922" lon="9.192309391353811"><ele>443.3333333333333</ele><time>2026-05-01T09:49:04Z</time></trkpt><trkpt lat="39.89272712175992" lon="9.19238642654468"><ele>431.66666666666663</ele><time>2026-05-01T09:49:05Z</time></trkpt><trkpt lat="39.89290335421198" lon="9.192459116347452"><ele>420.0</ele><time>2026-05-01T09:49:06Z</time></trkpt><trkpt lat="39.89308174118322" lon="9.192528229482187"><ele>420.0</ele><time>2026-05-01T09:49:07Z</time></trkpt><trkpt lat="39.893262423614715" lon="9.192599865640958"><ele>420.0</ele><time>2026-05-01T09:49:08Z</time></trkpt><trkpt lat="39.8934433241427" lon="9.19267291006499"><ele>420.0</ele><time>2026-05-01T09:49:09Z</time></trkpt><trkpt lat="39.89362260012464" lon="9.192745417558715"><ele>407.6666666666667</ele><time>2026-05-01T09:49:10Z</time></trkpt><trkpt lat="39.893804070494475" lon="9.192818512947158"><ele>395.33333333333337</ele><time>2026-05-01T09:49:11Z</time></trkpt><trkpt lat="39.893984019229066" lon="9.192889810799478"><ele>383.0</ele><time>2026-05-01T09:49:12Z</time></trkpt><trkpt lat="39.89415827365888" lon="9.192958048451215"><ele>386.0</ele><time>2026-05-01T09:49:13Z</time></trkpt><trkpt lat="39.894329014158956" lon="9.193025351102142"><ele>389.0</ele><time>2026-05-01T09:49:14Z</time></trkpt><trkpt lat="39.89449499577613" lon="9.193090820754822"><ele>392.0</ele><time>2026-05-01T09:49:15Z</time></trkpt><trkpt lat="39.89465928082839" lon="9.193157012412843"><ele>392.0</ele><time>2026-05-01T09:49:16Z</time></trkpt><trkpt lat="39.89481913328366" lon="9.193222093526378"><ele>392.0</ele><time>2026-05-01T09:49:17Z</time></trkpt><trkpt lat="39.89497798001759" lon="9.193286730600201"><ele>392.0</ele><time>2026-05-01T09:49:18Z</time></trkpt><trkpt lat="39.89513785367346" lon="9.193351707100625"><ele>396.0</ele><time>2026-05-01T09:49:19Z</time></trkpt><trkpt lat="39.89529687696935" lon="9.193416938912225"><ele>400.0</ele><time>2026-05-01T09:49:20Z</time></trkpt><trkpt lat="39.89545831269036" lon="9.19347954239926"><ele>404.0</ele><time>2026-05-01T09:49:21Z</time></trkpt><trkpt lat="39.89562291864148" lon="9.193541783896235"><ele>404.0</ele><time>2026-05-01T09:49:22Z</time></trkpt><trkpt lat="39.89578555996808" lon="9.1936066452805"><ele>404.0</ele><time>2026-05-01T09:49:23Z</time></trkpt><trkpt lat="39.895946016548606" lon="9.193675541563582"><ele>404.0</ele><time>2026-05-01T09:49:24Z</time></trkpt><trkpt lat="39.896106714577996" lon="9.193745330165179"><ele>410.0</ele><time>2026-05-01T09:49:25Z</time></trkpt><trkpt lat="39.89626758534342" lon="9.193813291488722"><ele>416.0</ele><time>2026-05-01T09:49:26Z</time></trkpt><trkpt lat="39.89642929919239" lon="9.193872574693074"><ele>422.0</ele><time>2026-05-01T09:49:27Z</time></trkpt><trkpt lat="39.89658385226963" lon="9.19392603567004"><ele>422.0</ele><time>2026-05-01T09:49:28Z</time></trkpt><trkpt lat="39.89673428504194" lon="9.193981336734586"><ele>422.0</ele><time>2026-05-01T09:49:29Z</time></trkpt><trkpt lat="39.89688512037799" lon="9.19402677371863"><ele>422.0</ele><time>2026-05-01T09:49:30Z</time></trkpt><trkpt lat="39.89703650873431" lon="9.194042562523293"><ele>429.0</ele><time>2026-05-01T09:49:31Z</time></trkpt><trkpt lat="39.897184517171056" lon="9.194029912327856"><ele>436.0</ele><time>2026-05-01T09:49:32Z</time></trkpt><trkpt lat="39.89733069189137" lon="9.19398812313707"><ele>443.0</ele><time>2026-05-01T09:49:33Z</time></trkpt><trkpt lat="39.897474795234864" lon="9.193916108698113"><ele>452.0</ele><time>2026-05-01T09:49:34Z</time></trkpt><trkpt lat="39.897614365939575" lon="9.193823554302238"><ele>461.0</ele><time>2026-05-01T09:49:35Z</time></trkpt><trkpt lat="39.8977548508268" lon="9.193717041051068"><ele>470.0</ele><time>2026-05-01T09:49:36Z</time></trkpt><trkpt lat="39.89789883786893" lon="9.193608904012489"><ele>470.0</ele><time>2026-05-01T09:49:37Z</time></trkpt><trkpt lat="39.89804974955527" lon="9.193501554581319"><ele>470.0</ele><time>2026-05-01T09:49:38Z</time></trkpt><trkpt lat="39.89820195657209" lon="9.19339575362795"><ele>470.0</ele><time>2026-05-01T09:49:39Z</time></trkpt><trkpt lat="39.898351865610564" lon="9.193290477951482"><ele>467.0</ele><time>2026-05-01T09:49:40Z</time></trkpt><trkpt lat="39.898500568784904" lon="9.19318690205193"><ele>464.0</ele><time>2026-05-01T09:49:41Z</time></trkpt><trkpt lat="39.89864872349337" lon="9.19307973575143"><ele>461.0</ele><time>2026-05-01T09:49:42Z</time></trkpt><trkpt lat="39.89878735567313" lon="9.192952877826919"><ele>461.0</ele><time>2026-05-01T09:49:43Z</time></trkpt><trkpt lat="39.89893154972419" lon="9.192846814908258"><ele>461.0</ele><time>2026-05-01T09:49:44Z</time></trkpt><trkpt lat="39.89907872855571" lon="9.192744809056618"><ele>461.0</ele><time>2026-05-01T09:49:45Z</time></trkpt><trkpt lat="39.89922407076561" lon="9.192635689690343"><ele>467.3333333333333</ele><time>2026-05-01T09:49:46Z</time></trkpt><trkpt lat="39.89935924127299" lon="9.192506224747438"><ele>473.66666666666663</ele><time>2026-05-01T09:49:47Z</time></trkpt><trkpt lat="39.899487843472365" lon="9.192355734493757"><ele>480.0</ele><time>2026-05-01T09:49:48Z</time></trkpt><trkpt lat="39.899602244054726" lon="9.192185900140874"><ele>480.0</ele><time>2026-05-01T09:49:49Z</time></trkpt><trkpt lat="39.899701805196756" lon="9.191993873295548"><ele>480.0</ele><time>2026-05-01T09:49:50Z</time></trkpt><trkpt lat="39.89977975118753" lon="9.191784235494485"><ele>480.0</ele><time>2026-05-01T09:49:51Z</time></trkpt><trkpt lat="39.89984148005677" lon="9.191561550180099"><ele>477.0</ele><time>2026-05-01T09:49:52Z</time></trkpt><trkpt lat="39.899901470569226" lon="9.191335634815868"><ele>474.0</ele><time>2026-05-01T09:49:53Z</time></trkpt><trkpt lat="39.89997214849178" lon="9.191120955199054"><ele>471.0</ele><time>2026-05-01T09:49:54Z</time></trkpt><trkpt lat="39.90004441907199" lon="9.190910844462097"><ele>476.66666666666663</ele><time>2026-05-01T09:49:55Z</time></trkpt><trkpt lat="39.90011310568613" lon="9.190710373002284"><ele>482.3333333333333</ele><time>2026-05-01T09:49:56Z</time></trkpt><trkpt lat="39.900203069376744" lon="9.190535480967913"><ele>488.0</ele><time>2026-05-01T09:49:57Z</time></trkpt><trkpt lat="39.90032211612862" lon="9.19040434214972"><ele>488.0</ele><time>2026-05-01T09:49:58Z</time></trkpt><trkpt lat="39.900454688346755" lon="9.190303503431663"><ele>488.0</ele><time>2026-05-01T09:49:59Z</time></trkpt><trkpt lat="39.90055536596433" lon="9.190165437481511"><ele>488.0</ele><time>2026-05-01T09:50:00Z</time></trkpt><trkpt lat="39.900666230995185" lon="9.19003795256786"><ele>488.0</ele><time>2026-05-01T09:50:01Z</time></trkpt><trkpt lat="39.900740316073126" lon="9.189862072685496"><ele>485.0</ele><time>2026-05-01T09:50:02Z</time></trkpt><trkpt lat="39.90080281993455" lon="9.189671088746424"><ele>482.0</ele><time>2026-05-01T09:50:03Z</time></trkpt><trkpt lat="39.900860129368574" lon="9.189470443809908"><ele>479.0</ele><time>2026-05-01T09:50:04Z</time></trkpt><trkpt lat="39.90091479199395" lon="9.189270565067147"><ele>487.66666666666663</ele><time>2026-05-01T09:50:05Z</time></trkpt><trkpt lat="39.90096732797581" lon="9.189070083175222"><ele>496.33333333333337</ele><time>2026-05-01T09:50:06Z</time></trkpt><trkpt lat="39.901017083244" lon="9.188863836434649"><ele>505.0</ele><time>2026-05-01T09:50:07Z</time></trkpt><trkpt lat="39.90106601791823" lon="9.188659965581058"><ele>505.6666666666667</ele><time>2026-05-01T09:50:08Z</time></trkpt><trkpt lat="39.90112006028447" lon="9.188457129577545"><ele>506.33333333333337</ele><time>2026-05-01T09:50:09Z</time></trkpt><trkpt lat="39.90116516544962" lon="9.188261541074084"><ele>507.0</ele><time>2026-05-01T09:50:10Z</time></trkpt><trkpt lat="39.90118071715292" lon="9.188062014249766"><ele>508.66666666666663</ele><time>2026-05-01T09:50:11Z</time></trkpt><trkpt lat="39.90115850949043" lon="9.187859463604243"><ele>510.3333333333333</ele><time>2026-05-01T09:50:12Z</time></trkpt><trkpt lat="39.90111285058726" lon="9.187665679687235"><ele>512.0</ele><time>2026-05-01T09:50:13Z</time></trkpt><trkpt lat="39.90107418611529" lon="9.187487355786145"><ele>513.8000000000001</ele><time>2026-05-01T09:50:14Z</time></trkpt><trkpt lat="39.9010528118399" lon="9.187333821643488"><ele>515.6</ele><time>2026-05-01T09:50:15Z</time></trkpt><trkpt lat="39.901061245380156" lon="9.187211557857418"><ele>517.4000000000001</ele><time>2026-05-01T09:50:16Z</time></trkpt><trkpt lat="39.90111076837165" lon="9.187129546723519"><ele>519.2</ele><time>2026-05-01T09:50:17Z</time></trkpt><trkpt lat="39.901187556971216" lon="9.18709567121698"><ele>521.0</ele><time>2026-05-01T09:50:18Z</time></trkpt><trkpt lat="39.9012726188025" lon="9.187120574199858"><ele>521.0</ele><time>2026-05-01T09:50:19Z</time></trkpt><trkpt lat="39.90132231564413" lon="9.18722672035584"><ele>521.0</ele><time>2026-05-01T09:50:20Z</time></trkpt><trkpt lat="39.90134952997104" lon="9.18735100115546"><ele>521.0</ele><time>2026-05-01T09:50:21Z</time></trkpt><trkpt lat="39.90139933922261" lon="9.187485607821518"><ele>521.0</ele><time>2026-05-01T09:50:22Z</time></trkpt><trkpt lat="39.90142850531295" lon="9.187646124966795"><ele>521.0</ele><time>2026-05-01T09:50:23Z</time></trkpt><trkpt lat="39.9014722619257" lon="9.187809387775953"><ele>518.0</ele><time>2026-05-01T09:50:24Z</time></trkpt><trkpt lat="39.901530272794844" lon="9.187981278810701"><ele>515.0</ele><time>2026-05-01T09:50:25Z</time></trkpt><trkpt lat="39.901579930913556" lon="9.188168846507923"><ele>512.0</ele><time>2026-05-01T09:50:26Z</time></trkpt><trkpt lat="39.90162519639386" lon="9.188366309450913"><ele>510.3333333333333</ele><time>2026-05-01T09:50:27Z</time></trkpt><trkpt lat="39.901681545780384" lon="9.188566407413855"><ele>508.66666666666663</ele><time>2026-05-01T09:50:28Z</time></trkpt><trkpt lat="39.90173242952702" lon="9.188770485786979"><ele>507.0</ele><time>2026-05-01T09:50:29Z</time></trkpt><trkpt lat="39.90176723086755" lon="9.188976296622604"><ele>506.33333333333337</ele><time>2026-05-01T09:50:30Z</time></trkpt><trkpt lat="39.90178359990777" lon="9.189187381702638"><ele>505.6666666666667</ele><time>2026-05-01T09:50:31Z</time></trkpt><trkpt lat="39.90177208261623" lon="9.189404392928141"><ele>505.0</ele><time>2026-05-01T09:50:32Z</time></trkpt><trkpt lat="39.901732952576275" lon="9.189623234063617"><ele>508.33333333333337</ele><time>2026-05-01T09:50:33Z</time></trkpt><trkpt lat="39.901709313177015" lon="9.189844687489414"><ele>511.66666666666663</ele><time>2026-05-01T09:50:34Z</time></trkpt><trkpt lat="39.90167104332512" lon="9.19005366918609"><ele>515.0</ele><time>2026-05-01T09:50:35Z</time></trkpt><trkpt lat="39.90160026070832" lon="9.190249571305534"><ele>515.0</ele><time>2026-05-01T09:50:36Z</time></trkpt><trkpt lat="39.90152712356705" lon="9.190446138281594"><ele>515.0</ele><time>2026-05-01T09:50:37Z</time></trkpt><trkpt lat="39.90143613581112" lon="9.190628593938674"><ele>515.0</ele><time>2026-05-01T09:50:38Z</time></trkpt><trkpt lat="39.90135276860315" lon="9.190798611195042"><ele>518.25</ele><time>2026-05-01T09:50:39Z</time></trkpt><trkpt lat="39.90126875226699" lon="9.190950885820037"><ele>521.5</ele><time>2026-05-01T09:50:40Z</time></trkpt><trkpt lat="39.9011905721142" lon="9.191087467803117"><ele>524.75</ele><time>2026-05-01T09:50:41Z</time></trkpt><trkpt lat="39.90114327450209" lon="9.191215569712165"><ele>528.0</ele><time>2026-05-01T09:50:42Z</time></trkpt><trkpt lat="39.90114110456763" lon="9.191333661022911"><ele>528.0</ele><time>2026-05-01T09:50:43Z</time></trkpt><trkpt lat="39.901156875603064" lon="9.191433365883757"><ele>528.0</ele><time>2026-05-01T09:50:44Z</time></trkpt><trkpt lat="39.901278083096614" lon="9.191460165562386"><ele>528.0</ele><time>2026-05-01T09:50:45Z</time></trkpt><trkpt lat="39.90137746524805" lon="9.191418263242392"><ele>528.0</ele><time>2026-05-01T09:50:46Z</time></trkpt><trkpt lat="39.90144155123751" lon="9.191315347757914"><ele>528.0</ele><time>2026-05-01T09:50:47Z</time></trkpt><trkpt lat="39.90148096622783" lon="9.19116639621274"><ele>528.0</ele><time>2026-05-01T09:50:48Z</time></trkpt><trkpt lat="39.90153678017162" lon="9.19101557251978"><ele>528.0</ele><time>2026-05-01T09:50:49Z</time></trkpt><trkpt lat="39.90161019383582" lon="9.190863157709936"><ele>528.0</ele><time>2026-05-01T09:50:50Z</time></trkpt><trkpt lat="39.90169707571103" lon="9.19069193890724"><ele>528.0</ele><time>2026-05-01T09:50:51Z</time></trkpt><trkpt lat="39.90178522119114" lon="9.190504459660108"><ele>532.0</ele><time>2026-05-01T09:50:52Z</time></trkpt><trkpt lat="39.90187821895131" lon="9.190306159585328"><ele>536.0</ele><time>2026-05-01T09:50:53Z</time></trkpt><trkpt lat="39.9019662180795" lon="9.190116481652504"><ele>540.0</ele><time>2026-05-01T09:50:54Z</time></trkpt><trkpt lat="39.902056110486335" lon="9.189924643501076"><ele>536.3333333333334</ele><time>2026-05-01T09:50:55Z</time></trkpt><trkpt lat="39.9021595338375" lon="9.189742899343308"><ele>532.6666666666667</ele><time>2026-05-01T09:50:56Z</time></trkpt><trkpt lat="39.90228615984301" lon="9.189585990397768"><ele>529.0</ele><time>2026-05-01T09:50:57Z</time></trkpt><trkpt lat="39.90242167247811" lon="9.189448361987377"><ele>529.0</ele><time>2026-05-01T09:50:58Z</time></trkpt><trkpt lat="39.90255222694806" lon="9.189312747129234"><ele>529.0</ele><time>2026-05-01T09:50:59Z</time></trkpt><trkpt lat="39.902680224521745" lon="9.189181190640282"><ele>529.0</ele><time>2026-05-01T09:51:00Z</time></trkpt><trkpt lat="39.902793446041706" lon="9.18904808907054"><ele>537.25</ele><time>2026-05-01T09:51:01Z</time></trkpt><trkpt lat="39.90286312375891" lon="9.18888911766741"><ele>545.5</ele><time>2026-05-01T09:51:02Z</time></trkpt><trkpt lat="39.90288734778886" lon="9.18871108145525"><ele>553.75</ele><time>2026-05-01T09:51:03Z</time></trkpt><trkpt lat="39.902857753989394" lon="9.188539491889621"><ele>562.0</ele><time>2026-05-01T09:51:04Z</time></trkpt><trkpt lat="39.90278511442486" lon="9.188373120938078"><ele>562.0</ele><time>2026-05-01T09:51:05Z</time></trkpt><trkpt lat="39.90268205055314" lon="9.18821083362802"><ele>562.0</ele><time>2026-05-01T09:51:06Z</time></trkpt><trkpt lat="39.90260516649173" lon="9.18801571509822"><ele>562.0</ele><time>2026-05-01T09:51:07Z</time></trkpt><trkpt lat="39.90251394691305" lon="9.187817838906247"><ele>558.0</ele><time>2026-05-01T09:51:08Z</time></trkpt><trkpt lat="39.90244646470433" lon="9.187612497279346"><ele>554.0</ele><time>2026-05-01T09:51:09Z</time></trkpt><trkpt lat="39.902380427983246" lon="9.187424218161969"><ele>550.0</ele><time>2026-05-01T09:51:10Z</time></trkpt><trkpt lat="39.90233200049252" lon="9.187262570003899"><ele>550.0</ele><time>2026-05-01T09:51:11Z</time></trkpt><trkpt lat="39.902318764092655" lon="9.187123790436168"><ele>550.0</ele><time>2026-05-01T09:51:12Z</time></trkpt><trkpt lat="39.90234936801104" lon="9.187003774846195"><ele>550.0</ele><time>2026-05-01T09:51:13Z</time></trkpt><trkpt lat="39.90242675519057" lon="9.186919060760712"><ele>550.0</ele><time>2026-05-01T09:51:14Z</time></trkpt><trkpt lat="39.902531087008896" lon="9.186900646876106"><ele>550.0</ele><time>2026-05-01T09:51:15Z</time></trkpt><trkpt lat="39.9026285875688" lon="9.186962907591594"><ele>556.0</ele><time>2026-05-01T09:51:16Z</time></trkpt><trkpt lat="39.902665608394514" lon="9.187095081111282"><ele>562.0</ele><time>2026-05-01T09:51:17Z</time></trkpt><trkpt lat="39.902682293222604" lon="9.187246737572686"><ele>568.0</ele><time>2026-05-01T09:51:18Z</time></trkpt><trkpt lat="39.90270440594718" lon="9.187424656681916"><ele>574.0</ele><time>2026-05-01T09:51:19Z</time></trkpt><trkpt lat="39.902743794047815" lon="9.187601562023513"><ele>574.6666666666667</ele><time>2026-05-01T09:51:20Z</time></trkpt><trkpt lat="39.902780126726995" lon="9.187787812634431"><ele>575.3333333333334</ele><time>2026-05-01T09:51:21Z</time></trkpt><trkpt lat="39.902847363802415" lon="9.187987850418608"><ele>576.0</ele><time>2026-05-01T09:51:22Z</time></trkpt><trkpt lat="39.902944484237935" lon="9.188169792531006"><ele>571.3333333333334</ele><time>2026-05-01T09:51:23Z</time></trkpt><trkpt lat="39.90304904588458" lon="9.188331105676564"><ele>566.6666666666667</ele><time>2026-05-01T09:51:24Z</time></trkpt><trkpt lat="39.90313393136032" lon="9.188498905628222"><ele>562.0</ele><time>2026-05-01T09:51:25Z</time></trkpt><trkpt lat="39.90320911589843" lon="9.188657743462699"><ele>562.0</ele><time>2026-05-01T09:51:26Z</time></trkpt><trkpt lat="39.90322544527773" lon="9.188839283525155"><ele>562.0</ele><time>2026-05-01T09:51:27Z</time></trkpt><trkpt lat="39.90318702412661" lon="9.18902129194945"><ele>562.0</ele><time>2026-05-01T09:51:28Z</time></trkpt><trkpt lat="39.90314248949191" lon="9.189217612233595"><ele>562.0</ele><time>2026-05-01T09:51:29Z</time></trkpt><trkpt lat="39.90311220786022" lon="9.189420747724498"><ele>562.0</ele><time>2026-05-01T09:51:30Z</time></trkpt><trkpt lat="39.90305020242541" lon="9.189624438030584"><ele>562.0</ele><time>2026-05-01T09:51:31Z</time></trkpt><trkpt lat="39.902997165185496" lon="9.189828620521162"><ele>562.0</ele><time>2026-05-01T09:51:32Z</time></trkpt><trkpt lat="39.90292843920236" lon="9.190020069799067"><ele>565.0</ele><time>2026-05-01T09:51:33Z</time></trkpt><trkpt lat="39.90284780785549" lon="9.190193342487794"><ele>568.0</ele><time>2026-05-01T09:51:34Z</time></trkpt><trkpt lat="39.90277196234776" lon="9.19035431504658"><ele>571.0</ele><time>2026-05-01T09:51:35Z</time></trkpt><trkpt lat="39.90269490514847" lon="9.190484600940795"><ele>574.0</ele><time>2026-05-01T09:51:36Z</time></trkpt><trkpt lat="39.90264487138379" lon="9.19060889403632"><ele>578.0</ele><time>2026-05-01T09:51:37Z</time></trkpt><trkpt lat="39.90265409442967" lon="9.190737829485311"><ele>582.0</ele><time>2026-05-01T09:51:38Z</time></trkpt><trkpt lat="39.902710761693264" lon="9.190846222938994"><ele>586.0</ele><time>2026-05-01T09:51:39Z</time></trkpt><trkpt lat="39.90280526307135" lon="9.190901660128201"><ele>590.0</ele><time>2026-05-01T09:51:40Z</time></trkpt><trkpt lat="39.90291150305871" lon="9.190870836953996"><ele>594.0</ele><time>2026-05-01T09:51:41Z</time></trkpt><trkpt lat="39.90299103462792" lon="9.19076695219387"><ele>589.0</ele><time>2026-05-01T09:51:42Z</time></trkpt><trkpt lat="39.90301998324377" lon="9.190616637902027"><ele>584.0</ele><time>2026-05-01T09:51:43Z</time></trkpt><trkpt lat="39.903047699445445" lon="9.190449899860983"><ele>579.0</ele><time>2026-05-01T09:51:44Z</time></trkpt><trkpt lat="39.90312051118345" lon="9.190281070529503"><ele>574.0</ele><time>2026-05-01T09:51:45Z</time></trkpt><trkpt lat="39.903204319788856" lon="9.190102424873036"><ele>574.0</ele><time>2026-05-01T09:51:46Z</time></trkpt><trkpt lat="39.90328988527514" lon="9.18989568024853"><ele>574.0</ele><time>2026-05-01T09:51:47Z</time></trkpt><trkpt lat="39.90337508568567" lon="9.189679298553028"><ele>574.0</ele><time>2026-05-01T09:51:48Z</time></trkpt><trkpt lat="39.9034617264324" lon="9.189462156024183"><ele>582.0</ele><time>2026-05-01T09:51:49Z</time></trkpt><trkpt lat="39.903552997342814" lon="9.189248507343402"><ele>590.0</ele><time>2026-05-01T09:51:50Z</time></trkpt><trkpt lat="39.90363590214089" lon="9.18905574908621"><ele>598.0</ele><time>2026-05-01T09:51:51Z</time></trkpt><trkpt lat="39.90369905214755" lon="9.188875144407318"><ele>598.0</ele><time>2026-05-01T09:51:52Z</time></trkpt><trkpt lat="39.903723010136616" lon="9.188697644801646"><ele>598.0</ele><time>2026-05-01T09:51:53Z</time></trkpt><trkpt lat="39.903689938743184" lon="9.188533235859014"><ele>598.0</ele><time>2026-05-01T09:51:54Z</time></trkpt><trkpt lat="39.903603552680245" lon="9.188395742010917"><ele>598.0</ele><time>2026-05-01T09:51:55Z</time></trkpt><trkpt lat="39.903484577866074" lon="9.188276056005128"><ele>590.6666666666667</ele><time>2026-05-01T09:51:56Z</time></trkpt><trkpt lat="39.903373437971986" lon="9.18813759937454"><ele>583.3333333333334</ele><time>2026-05-01T09:51:57Z</time></trkpt><trkpt lat="39.903298854543806" lon="9.187961668989177"><ele>576.0</ele><time>2026-05-01T09:51:58Z</time></trkpt><trkpt lat="39.90324750534292" lon="9.18776097962838"><ele>576.0</ele><time>2026-05-01T09:51:59Z</time></trkpt><trkpt lat="39.90321777950842" lon="9.187547494801812"><ele>576.0</ele><time>2026-05-01T09:52:00Z</time></trkpt><trkpt lat="39.9032191295607" lon="9.187336939462979"><ele>576.0</ele><time>2026-05-01T09:52:01Z</time></trkpt><trkpt lat="39.90325090598059" lon="9.187131835356638"><ele>575.3333333333334</ele><time>2026-05-01T09:52:02Z</time></trkpt><trkpt lat="39.90331290135456" lon="9.186938278577305"><ele>574.6666666666667</ele><time>2026-05-01T09:52:03Z</time></trkpt><trkpt lat="39.903405242652525" lon="9.186775190535586"><ele>574.0</ele><time>2026-05-01T09:52:04Z</time></trkpt><trkpt lat="39.903530827218546" lon="9.18667294833236"><ele>578.25</ele><time>2026-05-01T09:52:05Z</time></trkpt><trkpt lat="39.903682323898394" lon="9.18663018413438"><ele>582.5</ele><time>2026-05-01T09:52:06Z</time></trkpt><trkpt lat="39.90383120894703" lon="9.186623664922898"><ele>586.75</ele><time>2026-05-01T09:52:07Z</time></trkpt><trkpt lat="39.90395775715904" lon="9.186572214079495"><ele>591.0</ele><time>2026-05-01T09:52:08Z</time></trkpt><trkpt lat="39.904058620991044" lon="9.186456886457087"><ele>591.0</ele><time>2026-05-01T09:52:09Z</time></trkpt><trkpt lat="39.90411855863801" lon="9.186290257491434"><ele>591.0</ele><time>2026-05-01T09:52:10Z</time></trkpt><trkpt lat="39.90414714565925" lon="9.186096363619018"><ele>591.0</ele><time>2026-05-01T09:52:11Z</time></trkpt><trkpt lat="39.90412527684915" lon="9.185896028846866"><ele>591.0</ele><time>2026-05-01T09:52:12Z</time></trkpt><trkpt lat="39.90408567574688" lon="9.185682758048234"><ele>590.6</ele><time>2026-05-01T09:52:13Z</time></trkpt><trkpt lat="39.90406539938925" lon="9.185493308677934"><ele>590.2</ele><time>2026-05-01T09:52:14Z</time></trkpt><trkpt lat="39.90407458488353" lon="9.185338074852316"><ele>589.8</ele><time>2026-05-01T09:52:15Z</time></trkpt><trkpt lat="39.90412938383702" lon="9.18524466148767"><ele>589.4</ele><time>2026-05-01T09:52:16Z</time></trkpt><trkpt lat="39.9042116252631" lon="9.185217916727064"><ele>589.0</ele><time>2026-05-01T09:52:17Z</time></trkpt><trkpt lat="39.90430428799285" lon="9.185274748313374"><ele>594.75</ele><time>2026-05-01T09:52:18Z</time></trkpt><trkpt lat="39.90431956198392" lon="9.185411474985894"><ele>600.5</ele><time>2026-05-01T09:52:19Z</time></trkpt><trkpt lat="39.90430012246868" lon="9.18553884055538"><ele>606.25</ele><time>2026-05-01T09:52:20Z</time></trkpt><trkpt lat="39.90428570948026" lon="9.185731847050054"><ele>612.0</ele><time>2026-05-01T09:52:21Z</time></trkpt><trkpt lat="39.90429369297741" lon="9.185948046281581"><ele>618.0</ele><time>2026-05-01T09:52:22Z</time></trkpt><trkpt lat="39.90432761460254" lon="9.186172675339929"><ele>624.0</ele><time>2026-05-01T09:52:23Z</time></trkpt><trkpt lat="39.904333644026224" lon="9.186392951035641"><ele>630.0</ele><time>2026-05-01T09:52:24Z</time></trkpt><trkpt lat="39.90428118091047" lon="9.18659774879293"><ele>619.3333333333334</ele><time>2026-05-01T09:52:25Z</time></trkpt><trkpt lat="39.90422614531474" lon="9.186795630650582"><ele>608.6666666666667</ele><time>2026-05-01T09:52:26Z</time></trkpt><trkpt lat="39.90413089217371" lon="9.18697541095363"><ele>598.0</ele><time>2026-05-01T09:52:27Z</time></trkpt><trkpt lat="39.904041879186735" lon="9.187150474309073"><ele>598.0</ele><time>2026-05-01T09:52:28Z</time></trkpt><trkpt lat="39.903975524700385" lon="9.187319660381828"><ele>598.0</ele><time>2026-05-01T09:52:29Z</time></trkpt><trkpt lat="39.90394619868763" lon="9.187501244580838"><ele>598.0</ele><time>2026-05-01T09:52:30Z</time></trkpt><trkpt lat="39.90396149712404" lon="9.187683324228134"><ele>598.0</ele><time>2026-05-01T09:52:31Z</time></trkpt><trkpt lat="39.90402709768455" lon="9.187842010696482"><ele>600.5</ele><time>2026-05-01T09:52:32Z</time></trkpt><trkpt lat="39.90413805478487" lon="9.187955683400585"><ele>603.0</ele><time>2026-05-01T09:52:33Z</time></trkpt><trkpt lat="39.90427412099467" lon="9.188023967538184"><ele>605.5</ele><time>2026-05-01T09:52:34Z</time></trkpt><trkpt lat="39.90438588577031" lon="9.188110232826515"><ele>608.0</ele><time>2026-05-01T09:52:35Z</time></trkpt><trkpt lat="39.90444521224381" lon="9.188248046294003"><ele>612.0</ele><time>2026-05-01T09:52:36Z</time></trkpt><trkpt lat="39.904452507569644" lon="9.188411299351072"><ele>616.0</ele><time>2026-05-01T09:52:37Z</time></trkpt><trkpt lat="39.904458370678974" lon="9.188544366914176"><ele>620.0</ele><time>2026-05-01T09:52:38Z</time></trkpt><trkpt lat="39.90452107382637" lon="9.188647234749126"><ele>624.0</ele><time>2026-05-01T09:52:39Z</time></trkpt><trkpt lat="39.904618386115814" lon="9.188670753676341"><ele>628.0</ele><time>2026-05-01T09:52:40Z</time></trkpt><trkpt lat="39.90471634161006" lon="9.188628397113783"><ele>628.0</ele><time>2026-05-01T09:52:41Z</time></trkpt><trkpt lat="39.904780493043795" lon="9.18851893739259"><ele>628.0</ele><time>2026-05-01T09:52:42Z</time></trkpt><trkpt lat="39.90479306448967" lon="9.188364432340084"><ele>628.0</ele><time>2026-05-01T09:52:43Z</time></trkpt><trkpt lat="39.90475949986511" lon="9.188181797242054"><ele>628.0</ele><time>2026-05-01T09:52:44Z</time></trkpt><trkpt lat="39.90468415133055" lon="9.188010831086746"><ele>629.5</ele><time>2026-05-01T09:52:45Z</time></trkpt><trkpt lat="39.90457209359942" lon="9.187875285953032"><ele>631.0</ele><time>2026-05-01T09:52:46Z</time></trkpt><trkpt lat="39.90448770470091" lon="9.187730232750297"><ele>632.5</ele><time>2026-05-01T09:52:47Z</time></trkpt><trkpt lat="39.90442120667093" lon="9.1875867947912"><ele>634.0</ele><time>2026-05-01T09:52:48Z</time></trkpt><trkpt lat="39.90443176056535" lon="9.187410977064557"><ele>633.75</ele><time>2026-05-01T09:52:49Z</time></trkpt><trkpt lat="39.9045021176539" lon="9.187257297814531"><ele>633.5</ele><time>2026-05-01T09:52:50Z</time></trkpt><trkpt lat="39.904614658679726" lon="9.187129978133424"><ele>633.25</ele><time>2026-05-01T09:52:51Z</time></trkpt><trkpt lat="39.904728836469246" lon="9.186991559279742"><ele>633.0</ele><time>2026-05-01T09:52:52Z</time></trkpt><trkpt lat="39.904831889739775" lon="9.186798738849516"><ele>633.0</ele><time>2026-05-01T09:52:53Z</time></trkpt><trkpt lat="39.90490555059413" lon="9.186573941267692"><ele>633.0</ele><time>2026-05-01T09:52:54Z</time></trkpt><trkpt lat="39.90493863593139" lon="9.186347752440758"><ele>633.0</ele><time>2026-05-01T09:52:55Z</time></trkpt><trkpt lat="39.90492692715474" lon="9.186124656477526"><ele>632.0</ele><time>2026-05-01T09:52:56Z</time></trkpt><trkpt lat="39.90490268539111" lon="9.185903798069862"><ele>631.0</ele><time>2026-05-01T09:52:57Z</time></trkpt><trkpt lat="39.90492352569841" lon="9.185707046006755"><ele>630.0</ele><time>2026-05-01T09:52:58Z</time></trkpt><trkpt lat="39.90500673014153" lon="9.18555319408889"><ele>628.3333333333334</ele><time>2026-05-01T09:52:59Z</time></trkpt><trkpt lat="39.905103674859255" lon="9.185413492556311"><ele>626.6666666666667</ele><time>2026-05-01T09:53:00Z</time></trkpt><trkpt lat="39.905242721888435" lon="9.185328902042533"><ele>625.0</ele><time>2026-05-01T09:53:01Z</time></trkpt><trkpt lat="39.90540736686297" lon="9.185325514300992"><ele>625.0</ele><time>2026-05-01T09:53:02Z</time></trkpt><trkpt lat="39.90559350140721" lon="9.185311348392442"><ele>625.0</ele><time>2026-05-01T09:53:03Z</time></trkpt><trkpt lat="39.90577126711609" lon="9.185286520205704"><ele>625.0</ele><time>2026-05-01T09:53:04Z</time></trkpt><trkpt lat="39.90596414708957" lon="9.18523580338048"><ele>628.6666666666667</ele><time>2026-05-01T09:53:05Z</time></trkpt><trkpt lat="39.906139271125724" lon="9.185166149262109"><ele>632.3333333333334</ele><time>2026-05-01T09:53:06Z</time></trkpt><trkpt lat="39.90629823793689" lon="9.185103679009826"><ele>636.0</ele><time>2026-05-01T09:53:07Z</time></trkpt><trkpt lat="39.906455512108515" lon="9.18509623817188"><ele>636.0</ele><time>2026-05-01T09:53:08Z</time></trkpt><trkpt lat="39.906612525161584" lon="9.185161090523108"><ele>636.0</ele><time>2026-05-01T09:53:09Z</time></trkpt><trkpt lat="39.90676559386739" lon="9.185271448726814"><ele>636.0</ele><time>2026-05-01T09:53:10Z</time></trkpt><trkpt lat="39.90690588021359" lon="9.185410707050679"><ele>634.0</ele><time>2026-05-01T09:53:11Z</time></trkpt><trkpt lat="39.907042196599114" lon="9.18551010384622"><ele>632.0</ele><time>2026-05-01T09:53:12Z</time></trkpt><trkpt lat="39.907176467546435" lon="9.185603590138301"><ele>630.0</ele><time>2026-05-01T09:53:13Z</time></trkpt><trkpt lat="39.907307989426464" lon="9.185696737990773"><ele>636.25</ele><time>2026-05-01T09:53:14Z</time></trkpt><trkpt lat="39.907435019281756" lon="9.185792702888072"><ele>642.5</ele><time>2026-05-01T09:53:15Z</time></trkpt><trkpt lat="39.90755117043853" lon="9.18589970821481"><ele>648.75</ele><time>2026-05-01T09:53:16Z</time></trkpt><trkpt lat="39.907653568211224" lon="9.186015743300274"><ele>655.0</ele><time>2026-05-01T09:53:17Z</time></trkpt><trkpt lat="39.90775167133449" lon="9.186114415520336"><ele>658.4</ele><time>2026-05-01T09:53:18Z</time></trkpt><trkpt lat="39.90784482083385" lon="9.186174982861811"><ele>661.8</ele><time>2026-05-01T09:53:19Z</time></trkpt><trkpt lat="39.907932613997225" lon="9.186179928720279"><ele>665.2</ele><time>2026-05-01T09:53:20Z</time></trkpt><trkpt lat="39.90801479814369" lon="9.186147387850108"><ele>668.6</ele><time>2026-05-01T09:53:21Z</time></trkpt><trkpt lat="39.90806758716445" lon="9.18603894852368"><ele>672.0</ele><time>2026-05-01T09:53:22Z</time></trkpt><trkpt lat="39.908053119911614" lon="9.185884800987383"><ele>672.0</ele><time>2026-05-01T09:53:23Z</time></trkpt><trkpt lat="39.90806373529855" lon="9.185748330288686"><ele>672.0</ele><time>2026-05-01T09:53:24Z</time></trkpt><trkpt lat="39.90808468331714" lon="9.18558052679579"><ele>672.0</ele><time>2026-05-01T09:53:25Z</time></trkpt><trkpt lat="39.90812314904621" lon="9.185418250466649"><ele>672.0</ele><time>2026-05-01T09:53:26Z</time></trkpt><trkpt lat="39.90816427459001" lon="9.18527166964579"><ele>671.25</ele><time>2026-05-01T09:53:27Z</time></trkpt><trkpt lat="39.908212036992374" lon="9.185116112472413"><ele>670.5</ele><time>2026-05-01T09:53:28Z</time></trkpt><trkpt lat="39.90828050219361" lon="9.184974498863564"><ele>669.75</ele><time>2026-05-01T09:53:29Z</time></trkpt><trkpt lat="39.90837238385507" lon="9.184852643645621"><ele>669.0</ele><time>2026-05-01T09:53:30Z</time></trkpt><trkpt lat="39.90846495415781" lon="9.18472828001921"><ele>669.0</ele><time>2026-05-01T09:53:31Z</time></trkpt><trkpt lat="39.90857926598601" lon="9.18463574021138"><ele>669.0</ele><time>2026-05-01T09:53:32Z</time></trkpt><trkpt lat="39.90868614580483" lon="9.184517627212719"><ele>669.0</ele><time>2026-05-01T09:53:33Z</time></trkpt><trkpt lat="39.90880443253821" lon="9.18442084870031"><ele>669.0</ele><time>2026-05-01T09:53:34Z</time></trkpt><trkpt lat="39.9089039303014" lon="9.184313859445165"><ele>669.0</ele><time>2026-05-01T09:53:35Z</time></trkpt><trkpt lat="39.908987436263324" lon="9.184206024161162"><ele>669.0</ele><time>2026-05-01T09:53:36Z</time></trkpt><trkpt lat="39.909073333002404" lon="9.184117633155099"><ele>669.0</ele><time>2026-05-01T09:53:37Z</time></trkpt><trkpt lat="39.90915038236956" lon="9.184044693651641"><ele>669.0</ele><time>2026-05-01T09:53:38Z</time></trkpt><trkpt lat="39.90923295148275" lon="9.184000910578463"><ele>669.0</ele><time>2026-05-01T09:53:39Z</time></trkpt><trkpt lat="39.90931494765895" lon="9.18399495561439"><ele>669.0</ele><time>2026-05-01T09:53:40Z</time></trkpt><trkpt lat="39.90940792656814" lon="9.18401586107938"><ele>669.0</ele><time>2026-05-01T09:53:41Z</time></trkpt><trkpt lat="39.90950079465951" lon="9.184042406202805"><ele>669.0</ele><time>2026-05-01T09:53:42Z</time></trkpt><trkpt lat="39.90959509606252" lon="9.184083040544913"><ele>669.0</ele><time>2026-05-01T09:53:43Z</time></trkpt><trkpt lat="39.909685598135056" lon="9.184146429230383"><ele>669.0</ele><time>2026-05-01T09:53:44Z</time></trkpt><trkpt lat="39.90977120561064" lon="9.184230835106666"><ele>669.0</ele><time>2026-05-01T09:53:45Z</time></trkpt><trkpt lat="39.90984703423119" lon="9.184336937468364"><ele>669.0</ele><time>2026-05-01T09:53:46Z</time></trkpt><trkpt lat="39.90993340866117" lon="9.184429408375376"><ele>669.0</ele><time>2026-05-01T09:53:47Z</time></trkpt><trkpt lat="39.91002069327341" lon="9.184522854063296"><ele>669.0</ele><time>2026-05-01T09:53:48Z</time></trkpt><trkpt lat="39.91011159873962" lon="9.184620754342893"><ele>668.0</ele><time>2026-05-01T09:53:49Z</time></trkpt><trkpt lat="39.91020276813751" lon="9.184720056125457"><ele>667.0</ele><time>2026-05-01T09:53:50Z</time></trkpt><trkpt lat="39.91029780674502" lon="9.18480491074805"><ele>666.0</ele><time>2026-05-01T09:53:51Z</time></trkpt><trkpt lat="39.91038477499577" lon="9.184891984579687"><ele>665.0</ele><time>2026-05-01T09:53:52Z</time></trkpt><trkpt lat="39.91048253000277" lon="9.184937147089853"><ele>664.0</ele><time>2026-05-01T09:53:53Z</time></trkpt><trkpt lat="39.91057834022411" lon="9.184956494798186"><ele>668.8000000000001</ele><time>2026-05-01T09:53:54Z</time></trkpt><trkpt lat="39.91068182019029" lon="9.184961684296507"><ele>673.6</ele><time>2026-05-01T09:53:55Z</time></trkpt><trkpt lat="39.91077916667673" lon="9.184953048491739"><ele>678.4</ele><time>2026-05-01T09:53:56Z</time></trkpt><trkpt lat="39.910873689470435" lon="9.18491582860713"><ele>683.2</ele><time>2026-05-01T09:53:57Z</time></trkpt><trkpt lat="39.91097147777629" lon="9.184885662717488"><ele>688.0</ele><time>2026-05-01T09:53:58Z</time></trkpt><trkpt lat="39.911069515739115" lon="9.184860817200354"><ele>686.0</ele><time>2026-05-01T09:53:59Z</time></trkpt><trkpt lat="39.91116986626128" lon="9.184827528596882"><ele>684.0</ele><time>2026-05-01T09:54:00Z</time></trkpt><trkpt lat="39.91127611156421" lon="9.184796044862825"><ele>682.0</ele><time>2026-05-01T09:54:01Z</time></trkpt><trkpt lat="39.91137870880812" lon="9.18475453188093"><ele>680.0</ele><time>2026-05-01T09:54:02Z</time></trkpt><trkpt lat="39.91148386054139" lon="9.184714111521743"><ele>678.0</ele><time>2026-05-01T09:54:03Z</time></trkpt><trkpt lat="39.91159132793128" lon="9.184671079335015"><ele>678.0</ele><time>2026-05-01T09:54:04Z</time></trkpt><trkpt lat="39.911702306407605" lon="9.184640452136101"><ele>678.0</ele><time>2026-05-01T09:54:05Z</time></trkpt><trkpt lat="39.911813012635946" lon="9.184639485078982"><ele>678.0</ele><time>2026-05-01T09:54:06Z</time></trkpt><trkpt lat="39.91192003168689" lon="9.18467121684086"><ele>678.0</ele><time>2026-05-01T09:54:07Z</time></trkpt><trkpt lat="39.9120167907488" lon="9.184725044100597"><ele>678.0</ele><time>2026-05-01T09:54:08Z</time></trkpt><trkpt lat="39.91210661876701" lon="9.184779236197473"><ele>680.3333333333334</ele><time>2026-05-01T09:54:09Z</time></trkpt><trkpt lat="39.9121872939495" lon="9.184813567158622"><ele>682.6666666666666</ele><time>2026-05-01T09:54:10Z</time></trkpt><trkpt lat="39.912260388306" lon="9.184805171015249"><ele>685.0</ele><time>2026-05-01T09:54:11Z</time></trkpt><trkpt lat="39.91234442438454" lon="9.184741135126476"><ele>687.3333333333333</ele><time>2026-05-01T09:54:12Z</time></trkpt><trkpt lat="39.91243381185329" lon="9.184705854707842"><ele>689.6666666666666</ele><time>2026-05-01T09:54:13Z</time></trkpt><trkpt lat="39.91251543721008" lon="9.184657253121511"><ele>692.0</ele><time>2026-05-01T09:54:14Z</time></trkpt><trkpt lat="39.91260388671282" lon="9.1846034950057"><ele>692.0</ele><time>2026-05-01T09:54:15Z</time></trkpt><trkpt lat="39.912688332466224" lon="9.18454634245336"><ele>692.0</ele><time>2026-05-01T09:54:16Z</time></trkpt><trkpt lat="39.91277732338909" lon="9.184493849435139"><ele>692.0</ele><time>2026-05-01T09:54:17Z</time></trkpt><trkpt lat="39.9128633151108" lon="9.184443638855795"><ele>692.0</ele><time>2026-05-01T09:54:18Z</time></trkpt><trkpt lat="39.91294055279627" lon="9.184403238806194"><ele>692.0</ele><time>2026-05-01T09:54:19Z</time></trkpt><trkpt lat="39.91300441951497" lon="9.18437245307834"><ele>692.0</ele><time>2026-05-01T09:54:20Z</time></trkpt><trkpt lat="39.91306719624493" lon="9.184346445665247"><ele>692.0</ele><time>2026-05-01T09:54:23Z</time></trkpt><trkpt lat="39.913132161769504" lon="9.184427769649393"><ele>692.0</ele><time>2026-05-01T09:54:27Z</time></trkpt><trkpt lat="39.913187096799994" lon="9.184492599829646"><ele>692.0</ele><time>2026-05-01T09:54:29Z</time></trkpt><trkpt lat="39.91326077062315" lon="9.184594882755905"><ele>692.0</ele><time>2026-05-01T09:54:31Z</time></trkpt><trkpt lat="39.913343334237645" lon="9.184696281887344"><ele>692.0</ele><time>2026-05-01T09:54:33Z</time></trkpt><trkpt lat="39.91342136211478" lon="9.184775546467105"><ele>693.0</ele><time>2026-05-01T09:54:35Z</time></trkpt><trkpt lat="39.91348194466382" lon="9.184860272112767"><ele>694.0</ele><time>2026-05-01T09:54:37Z</time></trkpt><trkpt lat="39.91356814251892" lon="9.184962983523402"><ele>695.0</ele><time>2026-05-01T09:54:39Z</time></trkpt><trkpt lat="39.913626872490845" lon="9.185009576762027"><ele>696.0</ele><time>2026-05-01T09:54:40Z</time></trkpt><trkpt lat="39.91369420733023" lon="9.185042804174731"><ele>697.0</ele><time>2026-05-01T09:54:41Z</time></trkpt><trkpt lat="39.91377644665248" lon="9.185085386629298"><ele>698.0</ele><time>2026-05-01T09:54:42Z</time></trkpt><trkpt lat="39.913861319986125" lon="9.185137134192955"><ele>698.0</ele><time>2026-05-01T09:54:43Z</time></trkpt><trkpt lat="39.913941690327235" lon="9.185192952086362"><ele>698.0</ele><time>2026-05-01T09:54:44Z</time></trkpt><trkpt lat="39.914023665443594" lon="9.18526482372627"><ele>698.0</ele><time>2026-05-01T09:54:45Z</time></trkpt><trkpt lat="39.914101045698445" lon="9.185345073546578"><ele>698.0</ele><time>2026-05-01T09:54:46Z</time></trkpt><trkpt lat="39.91418692929752" lon="9.18541856855176"><ele>698.0</ele><time>2026-05-01T09:54:47Z</time></trkpt><trkpt lat="39.914281450067556" lon="9.18547455393642"><ele>696.0</ele><time>2026-05-01T09:54:48Z</time></trkpt><trkpt lat="39.91438391889355" lon="9.185522128663624"><ele>694.0</ele><time>2026-05-01T09:54:49Z</time></trkpt><trkpt lat="39.91448653890887" lon="9.185562422356632"><ele>692.0</ele><time>2026-05-01T09:54:50Z</time></trkpt><trkpt lat="39.91459321655838" lon="9.185587365363471"><ele>690.0</ele><time>2026-05-01T09:54:51Z</time></trkpt><trkpt lat="39.91470221600051" lon="9.18560130474417"><ele>688.0</ele><time>2026-05-01T09:54:52Z</time></trkpt><trkpt lat="39.91481299556127" lon="9.185614592210046"><ele>688.0</ele><time>2026-05-01T09:54:53Z</time></trkpt><trkpt lat="39.914921792796704" lon="9.18563473095755"><ele>688.0</ele><time>2026-05-01T09:54:54Z</time></trkpt><trkpt lat="39.91502834748574" lon="9.185653144139186"><ele>688.0</ele><time>2026-05-01T09:54:55Z</time></trkpt><trkpt lat="39.915132851029" lon="9.185663305332358"><ele>688.0</ele><time>2026-05-01T09:54:56Z</time></trkpt><trkpt lat="39.91523265835508" lon="9.185687177143524"><ele>688.0</ele><time>2026-05-01T09:54:57Z</time></trkpt><trkpt lat="39.91533587937259" lon="9.18569708966915"><ele>693.0</ele><time>2026-05-01T09:54:58Z</time></trkpt><trkpt lat="39.91544473517634" lon="9.185694603927338"><ele>698.0</ele><time>2026-05-01T09:54:59Z</time></trkpt><trkpt lat="39.91555367585295" lon="9.185717811688432"><ele>703.0</ele><time>2026-05-01T09:55:00Z</time></trkpt><trkpt lat="39.915664155563135" lon="9.18572461202517"><ele>708.0</ele><time>2026-05-01T09:55:01Z</time></trkpt><trkpt lat="39.91577524963004" lon="9.185709937301862"><ele>713.0</ele><time>2026-05-01T09:55:02Z</time></trkpt><trkpt lat="39.91588783475391" lon="9.1856867330359"><ele>709.5</ele><time>2026-05-01T09:55:03Z</time></trkpt><trkpt lat="39.91600072817406" lon="9.185660113666499"><ele>706.0</ele><time>2026-05-01T09:55:04Z</time></trkpt><trkpt lat="39.91611412033066" lon="9.185629755780214"><ele>702.5</ele><time>2026-05-01T09:55:05Z</time></trkpt><trkpt lat="39.916227922314484" lon="9.18559736223246"><ele>699.0</ele><time>2026-05-01T09:55:06Z</time></trkpt><trkpt lat="39.916342570043426" lon="9.185565925870824"><ele>699.0</ele><time>2026-05-01T09:55:07Z</time></trkpt><trkpt lat="39.91645839968749" lon="9.185535510834242"><ele>699.0</ele><time>2026-05-01T09:55:08Z</time></trkpt><trkpt lat="39.91657339240081" lon="9.185501154006703"><ele>699.0</ele><time>2026-05-01T09:55:09Z</time></trkpt><trkpt lat="39.91668463600228" lon="9.185465982346315"><ele>699.0</ele><time>2026-05-01T09:55:10Z</time></trkpt><trkpt lat="39.916795284793494" lon="9.185433046071214"><ele>702.0</ele><time>2026-05-01T09:55:11Z</time></trkpt><trkpt lat="39.9169044794098" lon="9.185396176480424"><ele>705.0</ele><time>2026-05-01T09:55:12Z</time></trkpt><trkpt lat="39.9170114399099" lon="9.185343658192721"><ele>708.0</ele><time>2026-05-01T09:55:13Z</time></trkpt><trkpt lat="39.917117460363286" lon="9.185281067364949"><ele>711.0</ele><time>2026-05-01T09:55:14Z</time></trkpt><trkpt lat="39.91722345742786" lon="9.185213656478775"><ele>711.0</ele><time>2026-05-01T09:55:15Z</time></trkpt><trkpt lat="39.9173332448778" lon="9.185140380388596"><ele>711.0</ele><time>2026-05-01T09:55:16Z</time></trkpt><trkpt lat="39.91744624819422" lon="9.185071638203107"><ele>711.0</ele><time>2026-05-01T09:55:17Z</time></trkpt><trkpt lat="39.91757238317463" lon="9.18502715141533"><ele>711.0</ele><time>2026-05-01T09:55:18Z</time></trkpt><trkpt lat="39.91771109255705" lon="9.185005262670314"><ele>711.5</ele><time>2026-05-01T09:55:19Z</time></trkpt><trkpt lat="39.91785163248915" lon="9.185014930054251"><ele>712.0</ele><time>2026-05-01T09:55:20Z</time></trkpt><trkpt lat="39.91798342547952" lon="9.185063916363463"><ele>712.5</ele><time>2026-05-01T09:55:21Z</time></trkpt><trkpt lat="39.918096522169655" lon="9.185166679684174"><ele>713.0</ele><time>2026-05-01T09:55:22Z</time></trkpt><trkpt lat="39.918187321479664" lon="9.185311132600416"><ele>713.0</ele><time>2026-05-01T09:55:23Z</time></trkpt><trkpt lat="39.91829193584664" lon="9.185427546710235"><ele>713.0</ele><time>2026-05-01T09:55:24Z</time></trkpt><trkpt lat="39.91842792283728" lon="9.185501097885187"><ele>713.0</ele><time>2026-05-01T09:55:25Z</time></trkpt><trkpt lat="39.91858249956683" lon="9.185545243425684"><ele>713.0</ele><time>2026-05-01T09:55:26Z</time></trkpt><trkpt lat="39.918740120676446" lon="9.185596046534052"><ele>710.3333333333333</ele><time>2026-05-01T09:55:27Z</time></trkpt><trkpt lat="39.91889950797518" lon="9.185639474975256"><ele>707.6666666666666</ele><time>2026-05-01T09:55:28Z</time></trkpt><trkpt lat="39.91906424945599" lon="9.185683823940336"><ele>705.0</ele><time>2026-05-01T09:55:29Z</time></trkpt><trkpt lat="39.919229086045185" lon="9.185723658113895"><ele>711.0</ele><time>2026-05-01T09:55:30Z</time></trkpt><trkpt lat="39.91939463425774" lon="9.185763894910103"><ele>717.0</ele><time>2026-05-01T09:55:31Z</time></trkpt><trkpt lat="39.919557710306314" lon="9.185802777593292"><ele>723.0</ele><time>2026-05-01T09:55:32Z</time></trkpt><trkpt lat="39.919719487312925" lon="9.185848059031928"><ele>723.0</ele><time>2026-05-01T09:55:33Z</time></trkpt><trkpt lat="39.91988247283196" lon="9.18590444573833"><ele>723.0</ele><time>2026-05-01T09:55:34Z</time></trkpt><trkpt lat="39.92004518263817" lon="9.185971264409078"><ele>723.0</ele><time>2026-05-01T09:55:35Z</time></trkpt><trkpt lat="39.920211177885264" lon="9.18604279021678"><ele>721.6666666666666</ele><time>2026-05-01T09:55:36Z</time></trkpt><trkpt lat="39.920377776905205" lon="9.186118943904294"><ele>720.3333333333333</ele><time>2026-05-01T09:55:37Z</time></trkpt><trkpt lat="39.92054667561926" lon="9.186197292392205"><ele>719.0</ele><time>2026-05-01T09:55:38Z</time></trkpt><trkpt lat="39.92071912139947" lon="9.186273766886533"><ele>719.0</ele><time>2026-05-01T09:55:39Z</time></trkpt><trkpt lat="39.920896054777984" lon="9.186343219244945"><ele>719.0</ele><time>2026-05-01T09:55:40Z</time></trkpt><trkpt lat="39.92107662390402" lon="9.186402774399134"><ele>719.0</ele><time>2026-05-01T09:55:41Z</time></trkpt><trkpt lat="39.92126016581082" lon="9.186455165871632"><ele>720.0</ele><time>2026-05-01T09:55:42Z</time></trkpt><trkpt lat="39.921438536593676" lon="9.186498670768326"><ele>721.0</ele><time>2026-05-01T09:55:43Z</time></trkpt><trkpt lat="39.921604552361615" lon="9.186536745775545"><ele>722.0</ele><time>2026-05-01T09:55:44Z</time></trkpt><trkpt lat="39.92175651618406" lon="9.186576662310987"><ele>722.0</ele><time>2026-05-01T09:55:45Z</time></trkpt><trkpt lat="39.92189129995293" lon="9.186630282271565"><ele>722.0</ele><time>2026-05-01T09:55:46Z</time></trkpt><trkpt lat="39.92201085731797" lon="9.186718315551483"><ele>722.0</ele><time>2026-05-01T09:55:47Z</time></trkpt><trkpt lat="39.92209350916149" lon="9.186872295549618"><ele>722.0</ele><time>2026-05-01T09:55:48Z</time></trkpt><trkpt lat="39.92218287350946" lon="9.187029999799368"><ele>722.0</ele><time>2026-05-01T09:55:49Z</time></trkpt><trkpt lat="39.92226156863486" lon="9.187209360376794"><ele>722.0</ele><time>2026-05-01T09:55:50Z</time></trkpt><trkpt lat="39.92235861650477" lon="9.187360682533692"><ele>722.0</ele><time>2026-05-01T09:55:51Z</time></trkpt><trkpt lat="39.92249154158457" lon="9.187476165893033"><ele>721.6666666666666</ele><time>2026-05-01T09:55:52Z</time></trkpt><trkpt lat="39.922645590154374" lon="9.187541633289053"><ele>721.3333333333334</ele><time>2026-05-01T09:55:53Z</time></trkpt><trkpt lat="39.92279242884886" lon="9.187632930022854"><ele>721.0</ele><time>2026-05-01T09:55:54Z</time></trkpt><trkpt lat="39.92293623950288" lon="9.187732475739024"><ele>721.0</ele><time>2026-05-01T09:55:55Z</time></trkpt><trkpt lat="39.92308721861288" lon="9.187846664166717"><ele>721.0</ele><time>2026-05-01T09:55:56Z</time></trkpt><trkpt lat="39.92321658089536" lon="9.18798806478658"><ele>721.0</ele><time>2026-05-01T09:55:57Z</time></trkpt><trkpt lat="39.92332903920631" lon="9.18815839224349"><ele>720.3333333333334</ele><time>2026-05-01T09:55:58Z</time></trkpt><trkpt lat="39.92342944181502" lon="9.188344571200489"><ele>719.6666666666666</ele><time>2026-05-01T09:55:59Z</time></trkpt><trkpt lat="39.92352687542562" lon="9.188531298508833"><ele>719.0</ele><time>2026-05-01T09:56:00Z</time></trkpt><trkpt lat="39.92363812701957" lon="9.1886960219101"><ele>719.0</ele><time>2026-05-01T09:56:01Z</time></trkpt><trkpt lat="39.9237654930928" lon="9.188842437830475"><ele>719.0</ele><time>2026-05-01T09:56:02Z</time></trkpt><trkpt lat="39.92390933879715" lon="9.188964349385573"><ele>719.0</ele><time>2026-05-01T09:56:03Z</time></trkpt><trkpt lat="39.924061784226936" lon="9.189068648485138"><ele>723.3333333333333</ele><time>2026-05-01T09:56:04Z</time></trkpt><trkpt lat="39.924219826891" lon="9.189164325667923"><ele>727.6666666666666</ele><time>2026-05-01T09:56:05Z</time></trkpt><trkpt lat="39.924379327429094" lon="9.189257018864236"><ele>732.0</ele><time>2026-05-01T09:56:06Z</time></trkpt><trkpt lat="39.924541622296644" lon="9.189345799672555"><ele>732.0</ele><time>2026-05-01T09:56:07Z</time></trkpt><trkpt lat="39.92470876412749" lon="9.189428908521876"><ele>732.0</ele><time>2026-05-01T09:56:08Z</time></trkpt><trkpt lat="39.92487754038681" lon="9.189507046226575"><ele>732.0</ele><time>2026-05-01T09:56:09Z</time></trkpt><trkpt lat="39.92504306078913" lon="9.189592873750776"><ele>735.0</ele><time>2026-05-01T09:56:10Z</time></trkpt><trkpt lat="39.925209427142654" lon="9.189679581813612"><ele>738.0</ele><time>2026-05-01T09:56:11Z</time></trkpt><trkpt lat="39.9253751294239" lon="9.189765390527485"><ele>741.0</ele><time>2026-05-01T09:56:12Z</time></trkpt><trkpt lat="39.92553438269803" lon="9.189845558788631"><ele>744.0</ele><time>2026-05-01T09:56:13Z</time></trkpt><trkpt lat="39.925688612616945" lon="9.18989861823301"><ele>747.0</ele><time>2026-05-01T09:56:14Z</time></trkpt><trkpt lat="39.92583365460861" lon="9.189886894511138"><ele>750.0</ele><time>2026-05-01T09:56:15Z</time></trkpt><trkpt lat="39.92597184993415" lon="9.189835050072512"><ele>753.0</ele><time>2026-05-01T09:56:16Z</time></trkpt><trkpt lat="39.926088945698666" lon="9.18978211597395"><ele>757.5999999999999</ele><time>2026-05-01T09:56:17Z</time></trkpt><trkpt lat="39.92618221835701" lon="9.18971413902913"><ele>762.1999999999999</ele><time>2026-05-01T09:56:18Z</time></trkpt><trkpt lat="39.92623791555307" lon="9.189600884564964"><ele>766.8</ele><time>2026-05-01T09:56:19Z</time></trkpt><trkpt lat="39.9262396747082" lon="9.189460193987628"><ele>771.4</ele><time>2026-05-01T09:56:20Z</time></trkpt><trkpt lat="39.92618354649056" lon="9.189316772835577"><ele>776.0</ele><time>2026-05-01T09:56:21Z</time></trkpt><trkpt lat="39.92608904934461" lon="9.189166623709907"><ele>776.0</ele><time>2026-05-01T09:56:22Z</time></trkpt><trkpt lat="39.92599451338745" lon="9.189016898896565"><ele>776.0</ele><time>2026-05-01T09:56:23Z</time></trkpt><trkpt lat="39.92589840671189" lon="9.188849045813537"><ele>776.0</ele><time>2026-05-01T09:56:24Z</time></trkpt><trkpt lat="39.92580221743914" lon="9.188684123586693"><ele>770.6666666666667</ele><time>2026-05-01T09:56:25Z</time></trkpt><trkpt lat="39.92570387848156" lon="9.188522685046378"><ele>765.3333333333334</ele><time>2026-05-01T09:56:26Z</time></trkpt><trkpt lat="39.92560313558601" lon="9.188360569058815"><ele>760.0</ele><time>2026-05-01T09:56:27Z</time></trkpt><trkpt lat="39.925511673625586" lon="9.188183328171172"><ele>763.6666666666667</ele><time>2026-05-01T09:56:28Z</time></trkpt><trkpt lat="39.92543413222004" lon="9.187992084527341"><ele>767.3333333333334</ele><time>2026-05-01T09:56:29Z</time></trkpt><trkpt lat="39.92536849710836" lon="9.187782141233338"><ele>771.0</ele><time>2026-05-01T09:56:30Z</time></trkpt><trkpt lat="39.92531189672789" lon="9.187570615056023"><ele>771.0</ele><time>2026-05-01T09:56:31Z</time></trkpt><trkpt lat="39.92525359186366" lon="9.187378581408716"><ele>771.0</ele><time>2026-05-01T09:56:32Z</time></trkpt><trkpt lat="39.92520222873516" lon="9.18720502870517"><ele>771.0</ele><time>2026-05-01T09:56:33Z</time></trkpt><trkpt lat="39.925176833265866" lon="9.187043983103722"><ele>771.0</ele><time>2026-05-01T09:56:34Z</time></trkpt><trkpt lat="39.9252048732092" lon="9.186890390018482"><ele>771.0</ele><time>2026-05-01T09:56:35Z</time></trkpt><trkpt lat="39.925257855773026" lon="9.186756595576508"><ele>771.0</ele><time>2026-05-01T09:56:36Z</time></trkpt><trkpt lat="39.92534172743364" lon="9.186632047433083"><ele>771.0</ele><time>2026-05-01T09:56:37Z</time></trkpt><trkpt lat="39.925474828299144" lon="9.186538478135413"><ele>771.0</ele><time>2026-05-01T09:56:38Z</time></trkpt><trkpt lat="39.92560964852036" lon="9.186427997621523"><ele>771.6666666666667</ele><time>2026-05-01T09:56:39Z</time></trkpt><trkpt lat="39.92572327572688" lon="9.186268529553043"><ele>772.3333333333334</ele><time>2026-05-01T09:56:40Z</time></trkpt><trkpt lat="39.925834598509645" lon="9.186074349719835"><ele>773.0</ele><time>2026-05-01T09:56:41Z</time></trkpt><trkpt lat="39.92596052342989" lon="9.185876526952264"><ele>773.0</ele><time>2026-05-01T09:56:42Z</time></trkpt><trkpt lat="39.926116226767085" lon="9.185719366623998"><ele>773.0</ele><time>2026-05-01T09:56:43Z</time></trkpt><trkpt lat="39.92625747946137" lon="9.18556590508845"><ele>773.0</ele><time>2026-05-01T09:56:44Z</time></trkpt><trkpt lat="39.92640679454387" lon="9.185437347087047"><ele>770.3333333333334</ele><time>2026-05-01T09:56:45Z</time></trkpt><trkpt lat="39.926558019211896" lon="9.185321600897433"><ele>767.6666666666667</ele><time>2026-05-01T09:56:46Z</time></trkpt><trkpt lat="39.92672663139432" lon="9.185248254262314"><ele>765.0</ele><time>2026-05-01T09:56:47Z</time></trkpt><trkpt lat="39.92690595215693" lon="9.185207739444513"><ele>765.0</ele><time>2026-05-01T09:56:48Z</time></trkpt><trkpt lat="39.92708293124623" lon="9.185151985074159"><ele>765.0</ele><time>2026-05-01T09:56:49Z</time></trkpt><trkpt lat="39.927260121889546" lon="9.185060844901981"><ele>765.0</ele><time>2026-05-01T09:56:50Z</time></trkpt><trkpt lat="39.92743002032169" lon="9.184934437722811"><ele>767.6666666666667</ele><time>2026-05-01T09:56:51Z</time></trkpt><trkpt lat="39.927589353128276" lon="9.18479121857608"><ele>770.3333333333334</ele><time>2026-05-01T09:56:52Z</time></trkpt><trkpt lat="39.92774056161768" lon="9.184654464986993"><ele>773.0</ele><time>2026-05-01T09:56:53Z</time></trkpt><trkpt lat="39.92788324873878" lon="9.18454293658718"><ele>773.0</ele><time>2026-05-01T09:56:54Z</time></trkpt><trkpt lat="39.92800657622592" lon="9.184447845816166"><ele>773.0</ele><time>2026-05-01T09:56:55Z</time></trkpt><trkpt lat="39.92810306751748" lon="9.184342830547664"><ele>773.0</ele><time>2026-05-01T09:56:56Z</time></trkpt><trkpt lat="39.928147655437606" lon="9.184212733179011"><ele>773.0</ele><time>2026-05-01T09:56:57Z</time></trkpt><trkpt lat="39.928133289317735" lon="9.184063518773481"><ele>779.5</ele><time>2026-05-01T09:56:58Z</time></trkpt><trkpt lat="39.92804895977039" lon="9.183935632703655"><ele>786.0</ele><time>2026-05-01T09:56:59Z</time></trkpt><trkpt lat="39.927925207445604" lon="9.18386233470991"><ele>792.5</ele><time>2026-05-01T09:57:00Z</time></trkpt><trkpt lat="39.92776978942663" lon="9.18384487652746"><ele>799.0</ele><time>2026-05-01T09:57:01Z</time></trkpt><trkpt lat="39.9276168386343" lon="9.183827762433626"><ele>793.3333333333333</ele><time>2026-05-01T09:57:02Z</time></trkpt><trkpt lat="39.92743973710757" lon="9.183802507476999"><ele>787.6666666666667</ele><time>2026-05-01T09:57:03Z</time></trkpt><trkpt lat="39.92726593357666" lon="9.183761766276449"><ele>782.0</ele><time>2026-05-01T09:57:04Z</time></trkpt><trkpt lat="39.927075929210424" lon="9.183697956885748"><ele>782.0</ele><time>2026-05-01T09:57:05Z</time></trkpt><trkpt lat="39.92687428014067" lon="9.183619553479017"><ele>782.0</ele><time>2026-05-01T09:57:06Z</time></trkpt><trkpt lat="39.926657916989846" lon="9.183542096955993"><ele>782.0</ele><time>2026-05-01T09:57:07Z</time></trkpt><trkpt lat="39.92644152560993" lon="9.183469205474319"><ele>777.0</ele><time>2026-05-01T09:57:08Z</time></trkpt><trkpt lat="39.92623237071114" lon="9.183396240908742"><ele>772.0</ele><time>2026-05-01T09:57:09Z</time></trkpt><trkpt lat="39.926029934607286" lon="9.183322467838636"><ele>767.0</ele><time>2026-05-01T09:57:10Z</time></trkpt><trkpt lat="39.92584245265873" lon="9.18325403161697"><ele>765.0</ele><time>2026-05-01T09:57:11Z</time></trkpt><trkpt lat="39.92566780572347" lon="9.183182720917358"><ele>763.0</ele><time>2026-05-01T09:57:12Z</time></trkpt><trkpt lat="39.925515122162125" lon="9.183079460911278"><ele>761.0</ele><time>2026-05-01T09:57:13Z</time></trkpt><trkpt lat="39.92539245622973" lon="9.182892184749267"><ele>762.6666666666666</ele><time>2026-05-01T09:57:14Z</time></trkpt><trkpt lat="39.92526823819976" lon="9.182689965016586"><ele>764.3333333333334</ele><time>2026-05-01T09:57:15Z</time></trkpt><trkpt lat="39.92514186841041" lon="9.182517565340046"><ele>766.0</ele><time>2026-05-01T09:57:16Z</time></trkpt><trkpt lat="39.925008022300496" lon="9.18236524867831"><ele>773.0</ele><time>2026-05-01T09:57:17Z</time></trkpt><trkpt lat="39.924830069193945" lon="9.18227523993034"><ele>780.0</ele><time>2026-05-01T09:57:18Z</time></trkpt><trkpt lat="39.92463567472948" lon="9.182214004941414"><ele>787.0</ele><time>2026-05-01T09:57:19Z</time></trkpt><trkpt lat="39.92445050243012" lon="9.18216153478828"><ele>787.0</ele><time>2026-05-01T09:57:20Z</time></trkpt><trkpt lat="39.924279615025604" lon="9.182103817948176"><ele>787.0</ele><time>2026-05-01T09:57:21Z</time></trkpt><trkpt lat="39.92412415113065" lon="9.182040831756668"><ele>787.0</ele><time>2026-05-01T09:57:22Z</time></trkpt><trkpt lat="39.92398782791024" lon="9.181968708119365"><ele>783.0</ele><time>2026-05-01T09:57:23Z</time></trkpt><trkpt lat="39.92388936117471" lon="9.181858263703322"><ele>779.0</ele><time>2026-05-01T09:57:24Z</time></trkpt><trkpt lat="39.923842859766424" lon="9.181700247916655"><ele>775.0</ele><time>2026-05-01T09:57:25Z</time></trkpt><trkpt lat="39.92385817093573" lon="9.18153382314398"><ele>771.0</ele><time>2026-05-01T09:57:26Z</time></trkpt><trkpt lat="39.92392959494696" lon="9.181374283221519"><ele>767.0</ele><time>2026-05-01T09:57:27Z</time></trkpt><trkpt lat="39.92403860872143" lon="9.181231594775184"><ele>763.0</ele><time>2026-05-01T09:57:28Z</time></trkpt><trkpt lat="39.92417633711839" lon="9.181064363114421"><ele>759.0</ele><time>2026-05-01T09:57:29Z</time></trkpt><trkpt lat="39.92432121156306" lon="9.180930731339124"><ele>760.0</ele><time>2026-05-01T09:57:30Z</time></trkpt><trkpt lat="39.92448606959175" lon="9.180808517705465"><ele>761.0</ele><time>2026-05-01T09:57:31Z</time></trkpt><trkpt lat="39.924655918078855" lon="9.180676342325215"><ele>762.0</ele><time>2026-05-01T09:57:32Z</time></trkpt><trkpt lat="39.924825694434816" lon="9.180534624529189"><ele>762.0</ele><time>2026-05-01T09:57:33Z</time></trkpt><trkpt lat="39.92497935228693" lon="9.180376954894307"><ele>762.0</ele><time>2026-05-01T09:57:34Z</time></trkpt><trkpt lat="39.92511033579542" lon="9.180182202299429"><ele>762.0</ele><time>2026-05-01T09:57:35Z</time></trkpt><trkpt lat="39.9252252626557" lon="9.179969076205623"><ele>766.0</ele><time>2026-05-01T09:57:36Z</time></trkpt><trkpt lat="39.92534527863593" lon="9.17976849035891"><ele>770.0</ele><time>2026-05-01T09:57:37Z</time></trkpt><trkpt lat="39.92549410513718" lon="9.179604499473621"><ele>774.0</ele><time>2026-05-01T09:57:38Z</time></trkpt><trkpt lat="39.92566148967888" lon="9.179467077305091"><ele>774.0</ele><time>2026-05-01T09:57:39Z</time></trkpt><trkpt lat="39.925806784303475" lon="9.179303247617595"><ele>774.0</ele><time>2026-05-01T09:57:40Z</time></trkpt><trkpt lat="39.925921511548054" lon="9.179102083926969"><ele>774.0</ele><time>2026-05-01T09:57:41Z</time></trkpt><trkpt lat="39.926021211006145" lon="9.178897043829327"><ele>773.0</ele><time>2026-05-01T09:57:42Z</time></trkpt><trkpt lat="39.926136836238626" lon="9.178720502729446"><ele>772.0</ele><time>2026-05-01T09:57:43Z</time></trkpt><trkpt lat="39.92627093815166" lon="9.178574148885586"><ele>771.0</ele><time>2026-05-01T09:57:44Z</time></trkpt><trkpt lat="39.9264188733129" lon="9.178452750186674"><ele>771.0</ele><time>2026-05-01T09:57:45Z</time></trkpt><trkpt lat="39.92658904750234" lon="9.178365696408074"><ele>771.0</ele><time>2026-05-01T09:57:46Z</time></trkpt><trkpt lat="39.926767723588235" lon="9.178295355244629"><ele>771.0</ele><time>2026-05-01T09:57:47Z</time></trkpt><trkpt lat="39.9269371664434" lon="9.178224999676877"><ele>773.0</ele><time>2026-05-01T09:57:48Z</time></trkpt><trkpt lat="39.927094094366744" lon="9.178138396924853"><ele>775.0</ele><time>2026-05-01T09:57:49Z</time></trkpt><trkpt lat="39.9272219641843" lon="9.178008187122272"><ele>777.0</ele><time>2026-05-01T09:57:50Z</time></trkpt><trkpt lat="39.92730535609748" lon="9.177828981642078"><ele>777.0</ele><time>2026-05-01T09:57:51Z</time></trkpt><trkpt lat="39.927346014231325" lon="9.177621801006593"><ele>777.0</ele><time>2026-05-01T09:57:52Z</time></trkpt><trkpt lat="39.9273510714353" lon="9.177428612631129"><ele>777.0</ele><time>2026-05-01T09:57:53Z</time></trkpt><trkpt lat="39.927375351173744" lon="9.177266293409124"><ele>777.0</ele><time>2026-05-01T09:57:54Z</time></trkpt><trkpt lat="39.92745603938026" lon="9.177122996868546"><ele>774.0</ele><time>2026-05-01T09:57:55Z</time></trkpt><trkpt lat="39.927587734375315" lon="9.177040875614658"><ele>771.0</ele><time>2026-05-01T09:57:56Z</time></trkpt><trkpt lat="39.927736324767885" lon="9.177019191057216"><ele>768.0</ele><time>2026-05-01T09:57:57Z</time></trkpt><trkpt lat="39.927897165909506" lon="9.177007628063366"><ele>768.0</ele><time>2026-05-01T09:57:58Z</time></trkpt><trkpt lat="39.928065422044234" lon="9.176965559593992"><ele>768.0</ele><time>2026-05-01T09:57:59Z</time></trkpt><trkpt lat="39.92824137209194" lon="9.176885862920239"><ele>768.0</ele><time>2026-05-01T09:58:00Z</time></trkpt><trkpt lat="39.928411718932914" lon="9.176765972652694"><ele>770.3333333333333</ele><time>2026-05-01T09:58:01Z</time></trkpt><trkpt lat="39.92857548779948" lon="9.176647241945538"><ele>772.6666666666666</ele><time>2026-05-01T09:58:02Z</time></trkpt><trkpt lat="39.92875335195947" lon="9.1765973577533"><ele>775.0</ele><time>2026-05-01T09:58:03Z</time></trkpt><trkpt lat="39.92892066418863" lon="9.176555183980293"><ele>775.0</ele><time>2026-05-01T09:58:04Z</time></trkpt><trkpt lat="39.929073253776416" lon="9.176582737832154"><ele>775.0</ele><time>2026-05-01T09:58:05Z</time></trkpt><trkpt lat="39.929208718357536" lon="9.176676004961474"><ele>775.0</ele><time>2026-05-01T09:58:06Z</time></trkpt><trkpt lat="39.929322164234264" lon="9.176821799502605"><ele>771.0</ele><time>2026-05-01T09:58:07Z</time></trkpt><trkpt lat="39.929434646278565" lon="9.17697925088184"><ele>767.0</ele><time>2026-05-01T09:58:08Z</time></trkpt><trkpt lat="39.92952826980403" lon="9.177152207210263"><ele>763.0</ele><time>2026-05-01T09:58:09Z</time></trkpt><trkpt lat="39.92963041077556" lon="9.177299780442482"><ele>771.0</ele><time>2026-05-01T09:58:10Z</time></trkpt><trkpt lat="39.92975514926727" lon="9.177401828014379"><ele>779.0</ele><time>2026-05-01T09:58:11Z</time></trkpt><trkpt lat="39.929906973397564" lon="9.17743255336303"><ele>787.0</ele><time>2026-05-01T09:58:12Z</time></trkpt><trkpt lat="39.93006352252574" lon="9.17739905967657"><ele>781.0</ele><time>2026-05-01T09:58:13Z</time></trkpt><trkpt lat="39.93021840426035" lon="9.1773468778327"><ele>775.0</ele><time>2026-05-01T09:58:14Z</time></trkpt><trkpt lat="39.930385776212724" lon="9.177324232399984"><ele>769.0</ele><time>2026-05-01T09:58:15Z</time></trkpt><trkpt lat="39.93055739843307" lon="9.17727509224297"><ele>769.0</ele><time>2026-05-01T09:58:16Z</time></trkpt><trkpt lat="39.930745873676344" lon="9.177267169910865"><ele>769.0</ele><time>2026-05-01T09:58:17Z</time></trkpt><trkpt lat="39.930931483125" lon="9.17726001196049"><ele>769.0</ele><time>2026-05-01T09:58:18Z</time></trkpt><trkpt lat="39.93112841684543" lon="9.177244870558201"><ele>770.0</ele><time>2026-05-01T09:58:19Z</time></trkpt><trkpt lat="39.93132989901985" lon="9.177230912060836"><ele>771.0</ele><time>2026-05-01T09:58:20Z</time></trkpt><trkpt lat="39.93152117018125" lon="9.177241588434821"><ele>772.0</ele><time>2026-05-01T09:58:21Z</time></trkpt><trkpt lat="39.931693791480534" lon="9.17724013612482"><ele>770.75</ele><time>2026-05-01T09:58:22Z</time></trkpt><trkpt lat="39.931848719645494" lon="9.177244556749562"><ele>769.5</ele><time>2026-05-01T09:58:23Z</time></trkpt><trkpt lat="39.93196656224085" lon="9.17735438857084"><ele>768.25</ele><time>2026-05-01T09:58:24Z</time></trkpt><trkpt lat="39.93206523599599" lon="9.177491312553625"><ele>767.0</ele><time>2026-05-01T09:58:25Z</time></trkpt><trkpt lat="39.932171243760386" lon="9.177642928296343"><ele>768.6666666666666</ele><time>2026-05-01T09:58:26Z</time></trkpt><trkpt lat="39.93229746106973" lon="9.17776489515087"><ele>770.3333333333333</ele><time>2026-05-01T09:58:27Z</time></trkpt><trkpt lat="39.93245766741716" lon="9.17781734168903"><ele>772.0</ele><time>2026-05-01T09:58:28Z</time></trkpt><trkpt lat="39.93261450941786" lon="9.177813097537967"><ele>772.0</ele><time>2026-05-01T09:58:29Z</time></trkpt><trkpt lat="39.93275298279622" lon="9.17781847984851"><ele>772.0</ele><time>2026-05-01T09:58:30Z</time></trkpt><trkpt lat="39.93287558067463" lon="9.177898052236003"><ele>772.0</ele><time>2026-05-01T09:58:31Z</time></trkpt><trkpt lat="39.932978393478045" lon="9.1780431683001"><ele>772.0</ele><time>2026-05-01T09:58:32Z</time></trkpt><trkpt lat="39.93306717173782" lon="9.178228807666837"><ele>777.3333333333333</ele><time>2026-05-01T09:58:33Z</time></trkpt><trkpt lat="39.933150401556915" lon="9.17841978896644"><ele>782.6666666666667</ele><time>2026-05-01T09:58:34Z</time></trkpt><trkpt lat="39.93323150540673" lon="9.178615163192378"><ele>788.0</ele><time>2026-05-01T09:58:35Z</time></trkpt><trkpt lat="39.93330279680788" lon="9.17880527810134"><ele>788.0</ele><time>2026-05-01T09:58:36Z</time></trkpt><trkpt lat="39.93333558467504" lon="9.179003116636423"><ele>788.0</ele><time>2026-05-01T09:58:37Z</time></trkpt><trkpt lat="39.93337558517969" lon="9.179179481931632"><ele>788.0</ele><time>2026-05-01T09:58:38Z</time></trkpt><trkpt lat="39.93342630120078" lon="9.179325643112282"><ele>788.0</ele><time>2026-05-01T09:58:39Z</time></trkpt><trkpt lat="39.9335349157737" lon="9.179435404388405"><ele>791.3333333333334</ele><time>2026-05-01T09:58:40Z</time></trkpt><trkpt lat="39.93367419427899" lon="9.17949932360372"><ele>794.6666666666667</ele><time>2026-05-01T09:58:41Z</time></trkpt><trkpt lat="39.933826109826775" lon="9.179501368579716"><ele>798.0</ele><time>2026-05-01T09:58:42Z</time></trkpt><trkpt lat="39.933973180301635" lon="9.179462550192197"><ele>798.0</ele><time>2026-05-01T09:58:43Z</time></trkpt><trkpt lat="39.934096429799496" lon="9.17938913341915"><ele>798.0</ele><time>2026-05-01T09:58:44Z</time></trkpt><trkpt lat="39.934196511897945" lon="9.179251925837349"><ele>798.0</ele><time>2026-05-01T09:58:45Z</time></trkpt><trkpt lat="39.93426008044114" lon="9.179060975489515"><ele>798.0</ele><time>2026-05-01T09:58:46Z</time></trkpt><trkpt lat="39.934305418420486" lon="9.17885228189911"><ele>805.3333333333333</ele><time>2026-05-01T09:58:47Z</time></trkpt><trkpt lat="39.93437595371808" lon="9.17864323094746"><ele>812.6666666666666</ele><time>2026-05-01T09:58:48Z</time></trkpt><trkpt lat="39.93443932997073" lon="9.178421895640819"><ele>820.0</ele><time>2026-05-01T09:58:49Z</time></trkpt><trkpt lat="39.934502727502846" lon="9.178190602312467"><ele>817.0</ele><time>2026-05-01T09:58:50Z</time></trkpt><trkpt lat="39.934545398008545" lon="9.177948077015921"><ele>814.0</ele><time>2026-05-01T09:58:51Z</time></trkpt><trkpt lat="39.934593560643975" lon="9.177712779879002"><ele>811.0</ele><time>2026-05-01T09:58:52Z</time></trkpt><trkpt lat="39.93465548182322" lon="9.177484998688527"><ele>805.6666666666666</ele><time>2026-05-01T09:58:53Z</time></trkpt><trkpt lat="39.93470412876759" lon="9.177263606700029"><ele>800.3333333333333</ele><time>2026-05-01T09:58:54Z</time></trkpt><trkpt lat="39.934738692434216" lon="9.177057944423579"><ele>795.0</ele><time>2026-05-01T09:58:55Z</time></trkpt><trkpt lat="39.934811639734846" lon="9.176887018376735"><ele>795.0</ele><time>2026-05-01T09:58:56Z</time></trkpt><trkpt lat="39.93494042348075" lon="9.176770821742132"><ele>795.0</ele><time>2026-05-01T09:58:57Z</time></trkpt><trkpt lat="39.935080507487626" lon="9.176693099023266"><ele>795.0</ele><time>2026-05-01T09:58:58Z</time></trkpt><trkpt lat="39.93524492286889" lon="9.176649237274232"><ele>796.0</ele><time>2026-05-01T09:58:59Z</time></trkpt><trkpt lat="39.935426755170525" lon="9.176652638332927"><ele>797.0</ele><time>2026-05-01T09:59:00Z</time></trkpt><trkpt lat="39.93558367965114" lon="9.176662029065074"><ele>798.0</ele><time>2026-05-01T09:59:01Z</time></trkpt><trkpt lat="39.935736593998165" lon="9.17673154420221"><ele>793.3333333333333</ele><time>2026-05-01T09:59:02Z</time></trkpt><trkpt lat="39.935900149345294" lon="9.17681544180682"><ele>788.6666666666666</ele><time>2026-05-01T09:59:03Z</time></trkpt><trkpt lat="39.936042125715105" lon="9.176956132485152"><ele>784.0</ele><time>2026-05-01T09:59:04Z</time></trkpt><trkpt lat="39.936179404261864" lon="9.177129223347361"><ele>784.0</ele><time>2026-05-01T09:59:05Z</time></trkpt><trkpt lat="39.936312437694035" lon="9.177338547080574"><ele>784.0</ele><time>2026-05-01T09:59:06Z</time></trkpt><trkpt lat="39.936446158153906" lon="9.177537783792738"><ele>784.0</ele><time>2026-05-01T09:59:07Z</time></trkpt><trkpt lat="39.936582759351765" lon="9.17772108293847"><ele>784.6666666666666</ele><time>2026-05-01T09:59:08Z</time></trkpt><trkpt lat="39.93673270988382" lon="9.177872197961012"><ele>785.3333333333333</ele><time>2026-05-01T09:59:09Z</time></trkpt><trkpt lat="39.936890510391585" lon="9.17799592373422"><ele>786.0</ele><time>2026-05-01T09:59:10Z</time></trkpt><trkpt lat="39.93704219912961" lon="9.178118347697769"><ele>791.3333333333333</ele><time>2026-05-01T09:59:11Z</time></trkpt><trkpt lat="39.93717247518218" lon="9.178273329019083"><ele>796.6666666666666</ele><time>2026-05-01T09:59:12Z</time></trkpt><trkpt lat="39.937282471620094" lon="9.178460519393512"><ele>802.0</ele><time>2026-05-01T09:59:13Z</time></trkpt><trkpt lat="39.93737373935373" lon="9.178661010236874"><ele>802.0</ele><time>2026-05-01T09:59:14Z</time></trkpt><trkpt lat="39.93744784498742" lon="9.178882644210043"><ele>802.0</ele><time>2026-05-01T09:59:15Z</time></trkpt><trkpt lat="39.937496557751544" lon="9.1791182988016"><ele>802.0</ele><time>2026-05-01T09:59:16Z</time></trkpt><trkpt lat="39.937523347462296" lon="9.179331215928146"><ele>798.6666666666666</ele><time>2026-05-01T09:59:17Z</time></trkpt><trkpt lat="39.93756907055009" lon="9.179523772650558"><ele>795.3333333333333</ele><time>2026-05-01T09:59:18Z</time></trkpt><trkpt lat="39.93767059612826" lon="9.179689129734031"><ele>792.0</ele><time>2026-05-01T09:59:19Z</time></trkpt><trkpt lat="39.93780608753109" lon="9.17981250883077"><ele>796.6666666666667</ele><time>2026-05-01T09:59:20Z</time></trkpt><trkpt lat="39.93793997422433" lon="9.179929644188897"><ele>801.3333333333334</ele><time>2026-05-01T09:59:21Z</time></trkpt><trkpt lat="39.93803858051603" lon="9.180066113690897"><ele>806.0</ele><time>2026-05-01T09:59:22Z</time></trkpt><trkpt lat="39.9380897768649" lon="9.180250230316837"><ele>806.0</ele><time>2026-05-01T09:59:23Z</time></trkpt><trkpt lat="39.93809512900089" lon="9.180461207485003"><ele>806.0</ele><time>2026-05-01T09:59:24Z</time></trkpt><trkpt lat="39.93807790844382" lon="9.180673123879213"><ele>806.0</ele><time>2026-05-01T09:59:25Z</time></trkpt><trkpt lat="39.938089414577185" lon="9.180863949473443"><ele>803.6666666666667</ele><time>2026-05-01T09:59:26Z</time></trkpt><trkpt lat="39.938153345857245" lon="9.181026803916305"><ele>801.3333333333333</ele><time>2026-05-01T09:59:27Z</time></trkpt><trkpt lat="39.93827584724773" lon="9.181165531670038"><ele>799.0</ele><time>2026-05-01T09:59:28Z</time></trkpt><trkpt lat="39.938428359353374" lon="9.181266351990098"><ele>799.0</ele><time>2026-05-01T09:59:29Z</time></trkpt><trkpt lat="39.93857884307573" lon="9.1813142419064"><ele>799.0</ele><time>2026-05-01T09:59:30Z</time></trkpt><trkpt lat="39.93872670522973" lon="9.181300394320923"><ele>799.0</ele><time>2026-05-01T09:59:31Z</time></trkpt><trkpt lat="39.938861508281505" lon="9.181311494055716"><ele>799.0</ele><time>2026-05-01T09:59:32Z</time></trkpt><trkpt lat="39.938991478672634" lon="9.18139342897885"><ele>803.5</ele><time>2026-05-01T09:59:33Z</time></trkpt><trkpt lat="39.939074703194414" lon="9.181557658964111"><ele>808.0</ele><time>2026-05-01T09:59:34Z</time></trkpt><trkpt lat="39.93911361276455" lon="9.181741340632827"><ele>812.5</ele><time>2026-05-01T09:59:35Z</time></trkpt><trkpt lat="39.93908690423345" lon="9.18192178631016"><ele>817.0</ele><time>2026-05-01T09:59:36Z</time></trkpt><trkpt lat="39.939029712637506" lon="9.182122099694276"><ele>817.0</ele><time>2026-05-01T09:59:37Z</time></trkpt><trkpt lat="39.938962576537236" lon="9.18230601895902"><ele>817.0</ele><time>2026-05-01T09:59:38Z</time></trkpt><trkpt lat="39.938926306092725" lon="9.182479133495207"><ele>817.0</ele><time>2026-05-01T09:59:39Z</time></trkpt><trkpt lat="39.93894278737152" lon="9.182654906928658"><ele>817.0</ele><time>2026-05-01T09:59:40Z</time></trkpt><trkpt lat="39.939014577614564" lon="9.1828203716698"><ele>816.0</ele><time>2026-05-01T09:59:41Z</time></trkpt><trkpt lat="39.93913316499547" lon="9.182940283169652"><ele>815.0</ele><time>2026-05-01T09:59:42Z</time></trkpt><trkpt lat="39.939287816080345" lon="9.182991106432402"><ele>814.0</ele><time>2026-05-01T09:59:43Z</time></trkpt><trkpt lat="39.93945687604064" lon="9.182983376737786"><ele>814.0</ele><time>2026-05-01T09:59:44Z</time></trkpt><trkpt lat="39.939594406230974" lon="9.18294053633785"><ele>814.0</ele><time>2026-05-01T09:59:45Z</time></trkpt><trkpt lat="39.93973069004231" lon="9.182919870607527"><ele>814.0</ele><time>2026-05-01T09:59:46Z</time></trkpt><trkpt lat="39.939879459524" lon="9.182987579514432"><ele>814.0</ele><time>2026-05-01T09:59:47Z</time></trkpt><trkpt lat="39.94003354600691" lon="9.183092019584755"><ele>813.0</ele><time>2026-05-01T09:59:48Z</time></trkpt><trkpt lat="39.94017565795665" lon="9.183206802969389"><ele>812.0</ele><time>2026-05-01T09:59:49Z</time></trkpt><trkpt lat="39.94028717126291" lon="9.183360702743034"><ele>811.0</ele><time>2026-05-01T09:59:50Z</time></trkpt><trkpt lat="39.94036588919018" lon="9.183562676202104"><ele>811.0</ele><time>2026-05-01T09:59:51Z</time></trkpt><trkpt lat="39.940410216607894" lon="9.183781735212204"><ele>811.0</ele><time>2026-05-01T09:59:52Z</time></trkpt><trkpt lat="39.94040779918194" lon="9.18400245422209"><ele>811.0</ele><time>2026-05-01T09:59:53Z</time></trkpt><trkpt lat="39.94037226822037" lon="9.184238008332574"><ele>814.0</ele><time>2026-05-01T09:59:54Z</time></trkpt><trkpt lat="39.940342388648425" lon="9.18448554276417"><ele>817.0</ele><time>2026-05-01T09:59:55Z</time></trkpt><trkpt lat="39.94031388835745" lon="9.18472489774925"><ele>820.0</ele><time>2026-05-01T09:59:56Z</time></trkpt><trkpt lat="39.940298214811676" lon="9.184948090958663"><ele>822.3333333333333</ele><time>2026-05-01T09:59:57Z</time></trkpt><trkpt lat="39.94031696966147" lon="9.1851594003908"><ele>824.6666666666667</ele><time>2026-05-01T09:59:58Z</time></trkpt><trkpt lat="39.94038708062327" lon="9.185344597827727"><ele>827.0</ele><time>2026-05-01T09:59:59Z</time></trkpt><trkpt lat="39.94049861182651" lon="9.185473372126273"><ele>827.0</ele><time>2026-05-01T10:00:00Z</time></trkpt><trkpt lat="39.9406348249913" lon="9.185529487907806"><ele>827.0</ele><time>2026-05-01T10:00:01Z</time></trkpt><trkpt lat="39.94078741360966" lon="9.185547962862524"><ele>827.0</ele><time>2026-05-01T10:00:02Z</time></trkpt><trkpt lat="39.94091822535932" lon="9.185610564577415"><ele>827.0</ele><time>2026-05-01T10:00:03Z</time></trkpt><trkpt lat="39.94103417862449" lon="9.185744337908147"><ele>825.6666666666667</ele><time>2026-05-01T10:00:04Z</time></trkpt><trkpt lat="39.94111931021" lon="9.185936349006486"><ele>824.3333333333333</ele><time>2026-05-01T10:00:05Z</time></trkpt><trkpt lat="39.94115679032989" lon="9.186146321962267"><ele>823.0</ele><time>2026-05-01T10:00:06Z</time></trkpt><trkpt lat="39.941147539339774" lon="9.186334647035421"><ele>823.0</ele><time>2026-05-01T10:00:07Z</time></trkpt><trkpt lat="39.941081390627495" lon="9.186506245985681"><ele>823.0</ele><time>2026-05-01T10:00:08Z</time></trkpt><trkpt lat="39.940950540064215" lon="9.18662342984661"><ele>823.0</ele><time>2026-05-01T10:00:09Z</time></trkpt><trkpt lat="39.940812181439256" lon="9.186751834552215"><ele>829.0</ele><time>2026-05-01T10:00:10Z</time></trkpt><trkpt lat="39.940669082349466" lon="9.186875968272801"><ele>835.0</ele><time>2026-05-01T10:00:11Z</time></trkpt><trkpt lat="39.940545199079985" lon="9.187026168154834"><ele>841.0</ele><time>2026-05-01T10:00:12Z</time></trkpt><trkpt lat="39.94045498121934" lon="9.187209750288147"><ele>839.0</ele><time>2026-05-01T10:00:13Z</time></trkpt><trkpt lat="39.940387728586025" lon="9.187402284932588"><ele>837.0</ele><time>2026-05-01T10:00:14Z</time></trkpt><trkpt lat="39.94033317398769" lon="9.18758380821741"><ele>835.0</ele><time>2026-05-01T10:00:15Z</time></trkpt><trkpt lat="39.940304221023474" lon="9.187751593755113"><ele>833.0</ele><time>2026-05-01T10:00:16Z</time></trkpt><trkpt lat="39.940316485898265" lon="9.187905389023262"><ele>833.0</ele><time>2026-05-01T10:00:17Z</time></trkpt><trkpt lat="39.940377440711394" lon="9.188041187268054"><ele>833.0</ele><time>2026-05-01T10:00:18Z</time></trkpt><trkpt lat="39.940482730516194" lon="9.18813398078007"><ele>833.0</ele><time>2026-05-01T10:00:19Z</time></trkpt><trkpt lat="39.940620850819364" lon="9.188160623134957"><ele>833.0</ele><time>2026-05-01T10:00:20Z</time></trkpt><trkpt lat="39.9407670166027" lon="9.188121399108205"><ele>831.3333333333334</ele><time>2026-05-01T10:00:21Z</time></trkpt><trkpt lat="39.940903018738" lon="9.188051074911554"><ele>829.6666666666667</ele><time>2026-05-01T10:00:22Z</time></trkpt><trkpt lat="39.941054448972025" lon="9.187983315407601"><ele>828.0</ele><time>2026-05-01T10:00:23Z</time></trkpt><trkpt lat="39.94121713400505" lon="9.187941082602107"><ele>828.0</ele><time>2026-05-01T10:00:24Z</time></trkpt><trkpt lat="39.9413865158413" lon="9.187949031927863"><ele>828.0</ele><time>2026-05-01T10:00:25Z</time></trkpt><trkpt lat="39.94156507847697" lon="9.187984945112426"><ele>828.0</ele><time>2026-05-01T10:00:26Z</time></trkpt><trkpt lat="39.94174784782686" lon="9.18802035893743"><ele>826.3333333333333</ele><time>2026-05-01T10:00:27Z</time></trkpt><trkpt lat="39.94192870357413" lon="9.188050763698422"><ele>824.6666666666666</ele><time>2026-05-01T10:00:28Z</time></trkpt><trkpt lat="39.94208918234125" lon="9.188085769066737"><ele>823.0</ele><time>2026-05-01T10:00:29Z</time></trkpt><trkpt lat="39.94223969979053" lon="9.18814225368468"><ele>827.6666666666666</ele><time>2026-05-01T10:00:30Z</time></trkpt><trkpt lat="39.94236210772032" lon="9.188248689640671"><ele>832.3333333333333</ele><time>2026-05-01T10:00:31Z</time></trkpt><trkpt lat="39.942495118494634" lon="9.188389985370259"><ele>837.0</ele><time>2026-05-01T10:00:32Z</time></trkpt><trkpt lat="39.942617223501664" lon="9.188556880427422"><ele>839.0</ele><time>2026-05-01T10:00:33Z</time></trkpt><trkpt lat="39.94273556195931" lon="9.188716421772764"><ele>841.0</ele><time>2026-05-01T10:00:34Z</time></trkpt><trkpt lat="39.9428403471232" lon="9.188860805309051"><ele>843.0</ele><time>2026-05-01T10:00:35Z</time></trkpt><trkpt lat="39.942956377926514" lon="9.188952455513416"><ele>843.0</ele><time>2026-05-01T10:00:36Z</time></trkpt><trkpt lat="39.9430778659446" lon="9.188968893052984"><ele>843.0</ele><time>2026-05-01T10:00:37Z</time></trkpt><trkpt lat="39.94319283025285" lon="9.188907541713967"><ele>843.0</ele><time>2026-05-01T10:00:38Z</time></trkpt><trkpt lat="39.94327185045641" lon="9.188773839417054"><ele>843.0</ele><time>2026-05-01T10:00:39Z</time></trkpt><trkpt lat="39.94329507297001" lon="9.188592341507732"><ele>843.0</ele><time>2026-05-01T10:00:40Z</time></trkpt><trkpt lat="39.94325647569593" lon="9.188371241868596"><ele>843.0</ele><time>2026-05-01T10:00:41Z</time></trkpt><trkpt lat="39.94323789307781" lon="9.188167962785792"><ele>843.0</ele><time>2026-05-01T10:00:42Z</time></trkpt><trkpt lat="39.9432362997079" lon="9.187971645625748"><ele>842.0</ele><time>2026-05-01T10:00:43Z</time></trkpt><trkpt lat="39.94327158759607" lon="9.187793274860464"><ele>841.0</ele><time>2026-05-01T10:00:44Z</time></trkpt><trkpt lat="39.94335387490361" lon="9.187636748095594"><ele>840.0</ele><time>2026-05-01T10:00:45Z</time></trkpt><trkpt lat="39.943440608586165" lon="9.187474524234336"><ele>839.0</ele><time>2026-05-01T10:00:46Z</time></trkpt><trkpt lat="39.94347518749405" lon="9.187277199600532"><ele>850.6666666666667</ele><time>2026-05-01T10:00:47Z</time></trkpt><trkpt lat="39.94345621947617" lon="9.18705813895865"><ele>862.3333333333333</ele><time>2026-05-01T10:00:48Z</time></trkpt><trkpt lat="39.94342375990082" lon="9.186828102833879"><ele>874.0</ele><time>2026-05-01T10:00:49Z</time></trkpt><trkpt lat="39.943389058934265" lon="9.186603463085593"><ele>865.6666666666666</ele><time>2026-05-01T10:00:50Z</time></trkpt><trkpt lat="39.94333382907691" lon="9.186388996547974"><ele>857.3333333333333</ele><time>2026-05-01T10:00:51Z</time></trkpt><trkpt lat="39.943281968737324" lon="9.186179038955343"><ele>849.0</ele><time>2026-05-01T10:00:52Z</time></trkpt><trkpt lat="39.94326651733437" lon="9.1859603472737"><ele>849.0</ele><time>2026-05-01T10:00:53Z</time></trkpt><trkpt lat="39.94327987945243" lon="9.185728423550174"><ele>849.0</ele><time>2026-05-01T10:00:54Z</time></trkpt><trkpt lat="39.943306288628634" lon="9.185496681464862"><ele>849.0</ele><time>2026-05-01T10:00:55Z</time></trkpt><trkpt lat="39.94331370913793" lon="9.185263608189793"><ele>850.3333333333333</ele><time>2026-05-01T10:00:56Z</time></trkpt><trkpt lat="39.9432850786005" lon="9.185030543068393"><ele>851.6666666666666</ele><time>2026-05-01T10:00:57Z</time></trkpt><trkpt lat="39.94323029027734" lon="9.18481968039884"><ele>853.0</ele><time>2026-05-01T10:00:58Z</time></trkpt><trkpt lat="39.94313994161648" lon="9.184636254839216"><ele>856.0</ele><time>2026-05-01T10:00:59Z</time></trkpt><trkpt lat="39.9430042494759" lon="9.184496066320863"><ele>859.0</ele><time>2026-05-01T10:01:00Z</time></trkpt><trkpt lat="39.942860424767005" lon="9.18440289425155"><ele>862.0</ele><time>2026-05-01T10:01:01Z</time></trkpt><trkpt lat="39.942728583260305" lon="9.184349422883587"><ele>862.0</ele><time>2026-05-01T10:01:02Z</time></trkpt><trkpt lat="39.942622625560126" lon="9.184267263254798"><ele>862.0</ele><time>2026-05-01T10:01:03Z</time></trkpt><trkpt lat="39.94255279080091" lon="9.184114394064638"><ele>862.0</ele><time>2026-05-01T10:01:04Z</time></trkpt><trkpt lat="39.942527200701974" lon="9.183921102592363"><ele>862.0</ele><time>2026-05-01T10:01:05Z</time></trkpt><trkpt lat="39.94257877817167" lon="9.183745201440663"><ele>864.0</ele><time>2026-05-01T10:01:06Z</time></trkpt><trkpt lat="39.942637549723685" lon="9.18355570318467"><ele>866.0</ele><time>2026-05-01T10:01:07Z</time></trkpt><trkpt lat="39.94271892285454" lon="9.183372367485688"><ele>868.0</ele><time>2026-05-01T10:01:08Z</time></trkpt><trkpt lat="39.94279536128567" lon="9.183174027124993"><ele>868.0</ele><time>2026-05-01T10:01:09Z</time></trkpt><trkpt lat="39.942865344841586" lon="9.182962430897504"><ele>868.0</ele><time>2026-05-01T10:01:10Z</time></trkpt><trkpt lat="39.94291742876298" lon="9.182741844414815"><ele>868.0</ele><time>2026-05-01T10:01:11Z</time></trkpt><trkpt lat="39.942947007004925" lon="9.182521635560924"><ele>865.3333333333333</ele><time>2026-05-01T10:01:12Z</time></trkpt><trkpt lat="39.94296867602944" lon="9.182307109938714"><ele>862.6666666666667</ele><time>2026-05-01T10:01:13Z</time></trkpt><trkpt lat="39.94298511316898" lon="9.182105239449683"><ele>860.0</ele><time>2026-05-01T10:01:14Z</time></trkpt><trkpt lat="39.9429820055942" lon="9.181925926575312"><ele>860.0</ele><time>2026-05-01T10:01:15Z</time></trkpt><trkpt lat="39.94295957790638" lon="9.18177196436603"><ele>860.0</ele><time>2026-05-01T10:01:16Z</time></trkpt><trkpt lat="39.942947321722" lon="9.181630089926866"><ele>860.0</ele><time>2026-05-01T10:01:17Z</time></trkpt><trkpt lat="39.9429334750461" lon="9.181517575769309"><ele>860.0</ele><time>2026-05-01T10:01:18Z</time></trkpt><trkpt lat="39.9429614362906" lon="9.181389020762966"><ele>860.0</ele><time>2026-05-01T10:01:20Z</time></trkpt><trkpt lat="39.942978912922825" lon="9.181287617893117"><ele>860.0</ele><time>2026-05-01T10:01:22Z</time></trkpt><trkpt lat="39.94317705359518" lon="9.18148499184992"><ele>860.0</ele><time>2026-05-01T10:01:25Z</time></trkpt><trkpt lat="39.94327575020916" lon="9.181563669140221"><ele>860.0</ele><time>2026-05-01T10:01:26Z</time></trkpt><trkpt lat="39.94337568626738" lon="9.181675637295761"><ele>854.3333333333334</ele><time>2026-05-01T10:01:27Z</time></trkpt><trkpt lat="39.943471345744825" lon="9.18182019496946"><ele>848.6666666666667</ele><time>2026-05-01T10:01:28Z</time></trkpt><trkpt lat="39.94359185192754" lon="9.181945566041858"><ele>843.0</ele><time>2026-05-01T10:01:29Z</time></trkpt><trkpt lat="39.94370772596118" lon="9.182092041623287"><ele>843.0</ele><time>2026-05-01T10:01:30Z</time></trkpt><trkpt lat="39.94382466946085" lon="9.182233422460909"><ele>843.0</ele><time>2026-05-01T10:01:31Z</time></trkpt><trkpt lat="39.94393256038242" lon="9.182389961070092"><ele>843.0</ele><time>2026-05-01T10:01:32Z</time></trkpt><trkpt lat="39.944002978790834" lon="9.182565227994234"><ele>846.6666666666667</ele><time>2026-05-01T10:01:33Z</time></trkpt><trkpt lat="39.944029124101256" lon="9.182765133009735"><ele>850.3333333333334</ele><time>2026-05-01T10:01:34Z</time></trkpt><trkpt lat="39.943995519644844" lon="9.182967968638309"><ele>854.0</ele><time>2026-05-01T10:01:35Z</time></trkpt><trkpt lat="39.943975515620224" lon="9.183176601433665"><ele>855.6666666666667</ele><time>2026-05-01T10:01:36Z</time></trkpt><trkpt lat="39.94398459077888" lon="9.183393072058758"><ele>857.3333333333333</ele><time>2026-05-01T10:01:37Z</time></trkpt><trkpt lat="39.944024100872994" lon="9.18361242179585"><ele>859.0</ele><time>2026-05-01T10:01:38Z</time></trkpt><trkpt lat="39.944083782945036" lon="9.18383201694885"><ele>859.3333333333333</ele><time>2026-05-01T10:01:39Z</time></trkpt><trkpt lat="39.94414154817738" lon="9.184049405311654"><ele>859.6666666666667</ele><time>2026-05-01T10:01:40Z</time></trkpt><trkpt lat="39.94418367708006" lon="9.1842604150628"><ele>860.0</ele><time>2026-05-01T10:01:41Z</time></trkpt><trkpt lat="39.944247410382864" lon="9.18446177217892"><ele>860.3333333333334</ele><time>2026-05-01T10:01:42Z</time></trkpt><trkpt lat="39.94435123001525" lon="9.184638408419021"><ele>860.6666666666667</ele><time>2026-05-01T10:01:43Z</time></trkpt><trkpt lat="39.94449511168368" lon="9.184764636332996"><ele>861.0</ele><time>2026-05-01T10:01:44Z</time></trkpt><trkpt lat="39.9446588028802" lon="9.184850482213644"><ele>861.0</ele><time>2026-05-01T10:01:45Z</time></trkpt><trkpt lat="39.94482750161089" lon="9.18492537775998"><ele>861.0</ele><time>2026-05-01T10:01:46Z</time></trkpt><trkpt lat="39.94499081158838" lon="9.185001280950019"><ele>861.0</ele><time>2026-05-01T10:01:47Z</time></trkpt><trkpt lat="39.94514438393475" lon="9.18509178482171"><ele>855.3333333333333</ele><time>2026-05-01T10:01:48Z</time></trkpt><trkpt lat="39.94527650720339" lon="9.185226931942212"><ele>849.6666666666666</ele><time>2026-05-01T10:01:49Z</time></trkpt><trkpt lat="39.94538279291306" lon="9.185402843790508"><ele>844.0</ele><time>2026-05-01T10:01:50Z</time></trkpt><trkpt lat="39.9454823059845" lon="9.185589774965827"><ele>844.6666666666666</ele><time>2026-05-01T10:01:51Z</time></trkpt><trkpt lat="39.94559410984513" lon="9.185756982943937"><ele>845.3333333333333</ele><time>2026-05-01T10:01:52Z</time></trkpt><trkpt lat="39.94573618436422" lon="9.185868348196024"><ele>846.0</ele><time>2026-05-01T10:01:53Z</time></trkpt><trkpt lat="39.94590168337771" lon="9.185913644540548"><ele>846.0</ele><time>2026-05-01T10:01:54Z</time></trkpt><trkpt lat="39.94607750142023" lon="9.185893857610465"><ele>846.0</ele><time>2026-05-01T10:01:55Z</time></trkpt><trkpt lat="39.946241151838635" lon="9.185899652530377"><ele>846.0</ele><time>2026-05-01T10:01:56Z</time></trkpt><trkpt lat="39.94638764437817" lon="9.185979631645422"><ele>846.0</ele><time>2026-05-01T10:01:57Z</time></trkpt><trkpt lat="39.94651530790055" lon="9.186103372466587"><ele>846.0</ele><time>2026-05-01T10:01:58Z</time></trkpt><trkpt lat="39.946647757809544" lon="9.18619525080381"><ele>846.0</ele><time>2026-05-01T10:01:59Z</time></trkpt><trkpt lat="39.946806836285425" lon="9.186213485392472"><ele>845.0</ele><time>2026-05-01T10:02:00Z</time></trkpt><trkpt lat="39.94696682442251" lon="9.18615672096049"><ele>844.0</ele><time>2026-05-01T10:02:01Z</time></trkpt><trkpt lat="39.94711752825407" lon="9.186064811816316"><ele>843.0</ele><time>2026-05-01T10:02:02Z</time></trkpt><trkpt lat="39.94726939810962" lon="9.185986121119308"><ele>843.0</ele><time>2026-05-01T10:02:03Z</time></trkpt><trkpt lat="39.94741320162212" lon="9.185970087271839"><ele>843.0</ele><time>2026-05-01T10:02:04Z</time></trkpt><trkpt lat="39.947534354544494" lon="9.186006809697957"><ele>843.0</ele><time>2026-05-01T10:02:05Z</time></trkpt><trkpt lat="39.94762556023023" lon="9.186105354877128"><ele>843.0</ele><time>2026-05-01T10:02:06Z</time></trkpt><trkpt lat="39.94764056352881" lon="9.186256374445287"><ele>842.0</ele><time>2026-05-01T10:02:07Z</time></trkpt><trkpt lat="39.94764810222252" lon="9.186412204970269"><ele>841.0</ele><time>2026-05-01T10:02:08Z</time></trkpt><trkpt lat="39.94766958771208" lon="9.186578696487041"><ele>840.0</ele><time>2026-05-01T10:02:09Z</time></trkpt><trkpt lat="39.947746216945646" lon="9.186728278705534"><ele>839.0</ele><time>2026-05-01T10:02:10Z</time></trkpt><trkpt lat="39.94787024513286" lon="9.186852142347181"><ele>839.0</ele><time>2026-05-01T10:02:11Z</time></trkpt><trkpt lat="39.948012812659115" lon="9.186954637413168"><ele>839.0</ele><time>2026-05-01T10:02:12Z</time></trkpt><trkpt lat="39.94817446071963" lon="9.187050969892049"><ele>839.0</ele><time>2026-05-01T10:02:13Z</time></trkpt><trkpt lat="39.94833535336234" lon="9.18715326626704"><ele>838.0</ele><time>2026-05-01T10:02:14Z</time></trkpt><trkpt lat="39.948491828840005" lon="9.187273844986898"><ele>837.0</ele><time>2026-05-01T10:02:15Z</time></trkpt><trkpt lat="39.948645302916226" lon="9.187409295031932"><ele>836.0</ele><time>2026-05-01T10:02:16Z</time></trkpt><trkpt lat="39.9487912364773" lon="9.187543934768911"><ele>836.0</ele><time>2026-05-01T10:02:17Z</time></trkpt><trkpt lat="39.94891958321553" lon="9.187687624253515"><ele>836.0</ele><time>2026-05-01T10:02:18Z</time></trkpt><trkpt lat="39.94901449956082" lon="9.187859886459801"><ele>836.0</ele><time>2026-05-01T10:02:19Z</time></trkpt><trkpt lat="39.94908950787899" lon="9.188053335407458"><ele>838.3333333333334</ele><time>2026-05-01T10:02:20Z</time></trkpt><trkpt lat="39.94916389997936" lon="9.188231552750011"><ele>840.6666666666667</ele><time>2026-05-01T10:02:21Z</time></trkpt><trkpt lat="39.94924173664623" lon="9.188408425659564"><ele>843.0</ele><time>2026-05-01T10:02:22Z</time></trkpt><trkpt lat="39.94930009404456" lon="9.188597441426925"><ele>838.3333333333333</ele><time>2026-05-01T10:02:23Z</time></trkpt><trkpt lat="39.94933439990078" lon="9.188800974713203"><ele>833.6666666666666</ele><time>2026-05-01T10:02:24Z</time></trkpt><trkpt lat="39.94936891993796" lon="9.189005709143983"><ele>829.0</ele><time>2026-05-01T10:02:25Z</time></trkpt><trkpt lat="39.94942554254104" lon="9.18920810579351"><ele>829.0</ele><time>2026-05-01T10:02:26Z</time></trkpt><trkpt lat="39.94950902014062" lon="9.18938737815895"><ele>829.0</ele><time>2026-05-01T10:02:27Z</time></trkpt><trkpt lat="39.9496094788811" lon="9.189545309901082"><ele>829.0</ele><time>2026-05-01T10:02:28Z</time></trkpt><trkpt lat="39.949711910771754" lon="9.189692247738616"><ele>829.0</ele><time>2026-05-01T10:02:29Z</time></trkpt><trkpt lat="39.94981070701829" lon="9.189833382145927"><ele>829.0</ele><time>2026-05-01T10:02:30Z</time></trkpt><trkpt lat="39.949907284951806" lon="9.189961911384929"><ele>829.0</ele><time>2026-05-01T10:02:31Z</time></trkpt><trkpt lat="39.949993870488846" lon="9.190093595742816"><ele>829.0</ele><time>2026-05-01T10:02:32Z</time></trkpt><trkpt lat="39.95011274079965" lon="9.190171793930604"><ele>826.25</ele><time>2026-05-01T10:02:33Z</time></trkpt><trkpt lat="39.95021714890536" lon="9.190258875802892"><ele>823.5</ele><time>2026-05-01T10:02:34Z</time></trkpt><trkpt lat="39.950317240176304" lon="9.190348203139042"><ele>820.75</ele><time>2026-05-01T10:02:35Z</time></trkpt><trkpt lat="39.95040087246851" lon="9.19045110596052"><ele>818.0</ele><time>2026-05-01T10:02:36Z</time></trkpt><trkpt lat="39.95046192120506" lon="9.190578475443237"><ele>820.4</ele><time>2026-05-01T10:02:37Z</time></trkpt><trkpt lat="39.950507049184885" lon="9.190715583878873"><ele>822.8</ele><time>2026-05-01T10:02:38Z</time></trkpt><trkpt lat="39.95055643940152" lon="9.190844447512383"><ele>825.2</ele><time>2026-05-01T10:02:39Z</time></trkpt><trkpt lat="39.95061979749651" lon="9.190961960671109"><ele>827.6</ele><time>2026-05-01T10:02:40Z</time></trkpt><trkpt lat="39.95069919052383" lon="9.191063219504366"><ele>830.0</ele><time>2026-05-01T10:02:41Z</time></trkpt><trkpt lat="39.95078742512059" lon="9.191155903143114"><ele>828.25</ele><time>2026-05-01T10:02:42Z</time></trkpt><trkpt lat="39.95087526845502" lon="9.191250825404643"><ele>826.5</ele><time>2026-05-01T10:02:43Z</time></trkpt><trkpt lat="39.95096038162038" lon="9.191350444839607"><ele>824.75</ele><time>2026-05-01T10:02:44Z</time></trkpt><trkpt lat="39.951042141952975" lon="9.191448397991957"><ele>823.0</ele><time>2026-05-01T10:02:45Z</time></trkpt><trkpt lat="39.95112515824277" lon="9.191544017049367"><ele>823.0</ele><time>2026-05-01T10:02:46Z</time></trkpt><trkpt lat="39.951209638246844" lon="9.191635042592157"><ele>823.0</ele><time>2026-05-01T10:02:47Z</time></trkpt><trkpt lat="39.95129809274308" lon="9.191719607377232"><ele>823.0</ele><time>2026-05-01T10:02:48Z</time></trkpt><trkpt lat="39.95138791204939" lon="9.191799277461232"><ele>823.0</ele><time>2026-05-01T10:02:49Z</time></trkpt><trkpt lat="39.95147535321423" lon="9.19187973606856"><ele>823.0</ele><time>2026-05-01T10:02:50Z</time></trkpt><trkpt lat="39.95156175902328" lon="9.1919564224129"><ele>823.0</ele><time>2026-05-01T10:02:51Z</time></trkpt><trkpt lat="39.95164330882935" lon="9.192037952716863"><ele>823.0</ele><time>2026-05-01T10:02:52Z</time></trkpt><trkpt lat="39.9517165661615" lon="9.192130620434364"><ele>823.0</ele><time>2026-05-01T10:02:53Z</time></trkpt><trkpt lat="39.9517779766408" lon="9.192235745922414"><ele>823.0</ele><time>2026-05-01T10:02:54Z</time></trkpt><trkpt lat="39.95182364208101" lon="9.192353201474361"><ele>823.0</ele><time>2026-05-01T10:02:55Z</time></trkpt><trkpt lat="39.95186826547029" lon="9.19246875519193"><ele>820.2</ele><time>2026-05-01T10:02:56Z</time></trkpt><trkpt lat="39.95192386449483" lon="9.19257685664495"><ele>817.4</ele><time>2026-05-01T10:02:57Z</time></trkpt><trkpt lat="39.951988904274735" lon="9.192675340012983"><ele>814.6</ele><time>2026-05-01T10:02:58Z</time></trkpt><trkpt lat="39.95205582241814" lon="9.192772103203305"><ele>811.8000000000001</ele><time>2026-05-01T10:02:59Z</time></trkpt><trkpt lat="39.952111583649014" lon="9.192878474329394"><ele>809.0</ele><time>2026-05-01T10:03:00Z</time></trkpt><trkpt lat="39.95215336751257" lon="9.19300021541366"><ele>809.0</ele><time>2026-05-01T10:03:01Z</time></trkpt><trkpt lat="39.95217487255518" lon="9.193129336656614"><ele>809.0</ele><time>2026-05-01T10:03:02Z</time></trkpt><trkpt lat="39.95218004708902" lon="9.193262321881818"><ele>809.0</ele><time>2026-05-01T10:03:03Z</time></trkpt><trkpt lat="39.95217191369392" lon="9.19339826126052"><ele>809.0</ele><time>2026-05-01T10:03:04Z</time></trkpt><trkpt lat="39.952173257882784" lon="9.19353580114455"><ele>809.0</ele><time>2026-05-01T10:03:05Z</time></trkpt><trkpt lat="39.95219474653155" lon="9.193676507599879"><ele>809.75</ele><time>2026-05-01T10:03:06Z</time></trkpt><trkpt lat="39.95222345767827" lon="9.19381839459268"><ele>810.5</ele><time>2026-05-01T10:03:07Z</time></trkpt><trkpt lat="39.95224777922407" lon="9.19396537214594"><ele>811.25</ele><time>2026-05-01T10:03:08Z</time></trkpt><trkpt lat="39.952261720447915" lon="9.194114911389068"><ele>812.0</ele><time>2026-05-01T10:03:09Z</time></trkpt><trkpt lat="39.952263421522474" lon="9.194267974494048"><ele>812.2</ele><time>2026-05-01T10:03:10Z</time></trkpt><trkpt lat="39.95225252780049" lon="9.194421452243684"><ele>812.4000000000001</ele><time>2026-05-01T10:03:11Z</time></trkpt><trkpt lat="39.95224774218475" lon="9.19457283366115"><ele>812.5999999999999</ele><time>2026-05-01T10:03:12Z</time></trkpt><trkpt lat="39.95226519312821" lon="9.194713858984347"><ele>812.8</ele><time>2026-05-01T10:03:13Z</time></trkpt><trkpt lat="39.952308739943454" lon="9.19482464218708"><ele>813.0</ele><time>2026-05-01T10:03:14Z</time></trkpt><trkpt lat="39.9523907838116" lon="9.194890061218441"><ele>814.75</ele><time>2026-05-01T10:03:15Z</time></trkpt><trkpt lat="39.9524924037149" lon="9.194933242264879"><ele>816.5</ele><time>2026-05-01T10:03:16Z</time></trkpt><trkpt lat="39.95259064938884" lon="9.194997000616457"><ele>818.25</ele><time>2026-05-01T10:03:17Z</time></trkpt><trkpt lat="39.95268286453205" lon="9.19508831246784"><ele>820.0</ele><time>2026-05-01T10:03:18Z</time></trkpt><trkpt lat="39.95276527354769" lon="9.195199573289402"><ele>815.25</ele><time>2026-05-01T10:03:19Z</time></trkpt><trkpt lat="39.952830330104405" lon="9.19533408576779"><ele>810.5</ele><time>2026-05-01T10:03:20Z</time></trkpt><trkpt lat="39.95286368000593" lon="9.195492950367324"><ele>805.75</ele><time>2026-05-01T10:03:21Z</time></trkpt><trkpt lat="39.95286385747029" lon="9.195658868107948"><ele>801.0</ele><time>2026-05-01T10:03:22Z</time></trkpt><trkpt lat="39.95280668770789" lon="9.195797323857521"><ele>801.0</ele><time>2026-05-01T10:03:23Z</time></trkpt><trkpt lat="39.95279017192082" lon="9.195937872397337"><ele>801.0</ele><time>2026-05-01T10:03:24Z</time></trkpt><trkpt lat="39.95280861420212" lon="9.196062275556406"><ele>801.0</ele><time>2026-05-01T10:03:25Z</time></trkpt><trkpt lat="39.952861283665456" lon="9.196181556972896"><ele>801.0</ele><time>2026-05-01T10:03:26Z</time></trkpt><trkpt lat="39.9529096403647" lon="9.196307945473695"><ele>801.0</ele><time>2026-05-01T10:03:27Z</time></trkpt><trkpt lat="39.95293765459586" lon="9.196448202612547"><ele>801.5999999999999</ele><time>2026-05-01T10:03:28Z</time></trkpt><trkpt lat="39.95293895269724" lon="9.19659831966561"><ele>802.2</ele><time>2026-05-01T10:03:29Z</time></trkpt><trkpt lat="39.952928125345075" lon="9.196748188982234"><ele>802.8</ele><time>2026-05-01T10:03:30Z</time></trkpt><trkpt lat="39.95291420830407" lon="9.19688625734673"><ele>803.4000000000001</ele><time>2026-05-01T10:03:31Z</time></trkpt><trkpt lat="39.952926182834666" lon="9.197010541029352"><ele>804.0</ele><time>2026-05-01T10:03:32Z</time></trkpt><trkpt lat="39.95298821524636" lon="9.197106228066232"><ele>804.0</ele><time>2026-05-01T10:03:33Z</time></trkpt><trkpt lat="39.95307682885341" lon="9.19716693860078"><ele>804.0</ele><time>2026-05-01T10:03:34Z</time></trkpt><trkpt lat="39.9531628045447" lon="9.197220967844656"><ele>804.0</ele><time>2026-05-01T10:03:35Z</time></trkpt><trkpt lat="39.9532388561189" lon="9.197277137529667"><ele>804.0</ele><time>2026-05-01T10:03:36Z</time></trkpt><trkpt lat="39.95329594707541" lon="9.197351851225282"><ele>804.0</ele><time>2026-05-01T10:03:37Z</time></trkpt><trkpt lat="39.95335710355274" lon="9.197416638723565"><ele>804.0</ele><time>2026-05-01T10:03:38Z</time></trkpt><trkpt lat="39.953412679142474" lon="9.197481551060593"><ele>803.7142857142857</ele><time>2026-05-01T10:03:39Z</time></trkpt><trkpt lat="39.95346423160553" lon="9.197543661091702"><ele>803.4285714285714</ele><time>2026-05-01T10:03:40Z</time></trkpt><trkpt lat="39.953516670027" lon="9.197606873902895"><ele>803.1428571428571</ele><time>2026-05-01T10:03:41Z</time></trkpt><trkpt lat="39.953568275197384" lon="9.197669082088513"><ele>802.8571428571429</ele><time>2026-05-01T10:03:42Z</time></trkpt><trkpt lat="39.95363105046764" lon="9.197714369566587"><ele>802.5714285714287</ele><time>2026-05-01T10:03:43Z</time></trkpt><trkpt lat="39.95367568283468" lon="9.19779260186155"><ele>802.2857142857143</ele><time>2026-05-01T10:03:44Z</time></trkpt><trkpt lat="39.953732228610164" lon="9.197856069872985"><ele>802.0</ele><time>2026-05-01T10:03:45Z</time></trkpt><trkpt lat="39.95379226085201" lon="9.197918747190652"><ele>801.9999999999999</ele><time>2026-05-01T10:03:46Z</time></trkpt><trkpt lat="39.95385294553036" lon="9.197983769338396"><ele>802.0</ele><time>2026-05-01T10:03:47Z</time></trkpt><trkpt lat="39.953923200780885" lon="9.19803611878193"><ele>802.0</ele><time>2026-05-01T10:03:48Z</time></trkpt><trkpt lat="39.95397799881497" lon="9.198111015630966"><ele>802.0</ele><time>2026-05-01T10:03:49Z</time></trkpt><trkpt lat="39.95402775388346" lon="9.198190356990805"><ele>801.9999999999999</ele><time>2026-05-01T10:03:50Z</time></trkpt><trkpt lat="39.954069419148404" lon="9.198274409162574"><ele>802.0</ele><time>2026-05-01T10:03:51Z</time></trkpt><trkpt lat="39.95410215996245" lon="9.198366801365953"><ele>803.5714285714286</ele><time>2026-05-01T10:03:52Z</time></trkpt><trkpt lat="39.95413232694886" lon="9.198457805600404"><ele>805.1428571428571</ele><time>2026-05-01T10:03:53Z</time></trkpt><trkpt lat="39.95417021200229" lon="9.19853661513805"><ele>806.7142857142858</ele><time>2026-05-01T10:03:54Z</time></trkpt><trkpt lat="39.95423196605298" lon="9.198568553042259"><ele>808.2857142857142</ele><time>2026-05-01T10:03:55Z</time></trkpt><trkpt lat="39.95429882269" lon="9.19857900643771"><ele>809.8571428571428</ele><time>2026-05-01T10:03:56Z</time></trkpt><trkpt lat="39.954363911620455" lon="9.198577255805974"><ele>811.4285714285714</ele><time>2026-05-01T10:03:57Z</time></trkpt><trkpt lat="39.954434016108735" lon="9.198542069487349"><ele>813.0</ele><time>2026-05-01T10:03:58Z</time></trkpt><trkpt lat="39.95448841676745" lon="9.198476515943957"><ele>812.8333333333334</ele><time>2026-05-01T10:03:59Z</time></trkpt><trkpt lat="39.9545462092462" lon="9.198421082095305"><ele>812.6666666666667</ele><time>2026-05-01T10:04:00Z</time></trkpt><trkpt lat="39.95455949347831" lon="9.19829813165037"><ele>812.5</ele><time>2026-05-01T10:04:01Z</time></trkpt><trkpt lat="39.954598853161805" lon="9.198217594097617"><ele>812.3333333333334</ele><time>2026-05-01T10:04:02Z</time></trkpt><trkpt lat="39.95463872679442" lon="9.198133760576503"><ele>812.1666666666667</ele><time>2026-05-01T10:04:03Z</time></trkpt><trkpt lat="39.954671057821194" lon="9.19805593668049"><ele>812.0</ele><time>2026-05-01T10:04:04Z</time></trkpt><trkpt lat="39.95472172102957" lon="9.197916784366145"><ele>812.0</ele><time>2026-05-01T10:04:06Z</time></trkpt><trkpt lat="39.954776461218636" lon="9.197793056565596"><ele>812.0</ele><time>2026-05-01T10:04:08Z</time></trkpt><trkpt lat="39.95483196506739" lon="9.197657016000836"><ele>812.0</ele><time>2026-05-01T10:04:10Z</time></trkpt><trkpt lat="39.9548663164171" lon="9.197587338605535"><ele>812.0</ele><time>2026-05-01T10:04:11Z</time></trkpt><trkpt lat="39.95490305087315" lon="9.197513973502351"><ele>812.0</ele><time>2026-05-01T10:04:12Z</time></trkpt><trkpt lat="39.95498386902491" lon="9.19738643517951"><ele>810.2857142857143</ele><time>2026-05-01T10:04:14Z</time></trkpt><trkpt lat="39.955027211640505" lon="9.197324606003901"><ele>808.5714285714286</ele><time>2026-05-01T10:04:15Z</time></trkpt><trkpt lat="39.95507516372939" lon="9.197268261505995"><ele>806.8571428571429</ele><time>2026-05-01T10:04:16Z</time></trkpt><trkpt lat="39.95512370992629" lon="9.197212745072065"><ele>805.1428571428571</ele><time>2026-05-01T10:04:17Z</time></trkpt><trkpt lat="39.95517044407135" lon="9.19715557560897"><ele>803.4285714285714</ele><time>2026-05-01T10:04:18Z</time></trkpt><trkpt lat="39.955221203283365" lon="9.197104512246478"><ele>801.7142857142858</ele><time>2026-05-01T10:04:19Z</time></trkpt><trkpt lat="39.95528544927244" lon="9.197077689834694"><ele>800.0</ele><time>2026-05-01T10:04:20Z</time></trkpt><trkpt lat="39.95538728189363" lon="9.19701246908643"><ele>800.0000000000001</ele><time>2026-05-01T10:04:22Z</time></trkpt><trkpt lat="39.95545324829707" lon="9.19697860828927"><ele>800.0</ele><time>2026-05-01T10:04:26Z</time></trkpt><trkpt lat="39.95552678862344" lon="9.19694460122981"><ele>800.0</ele><time>2026-05-01T10:04:50Z</time></trkpt><trkpt lat="39.95559096084349" lon="9.196915012105025"><ele>800.0</ele><time>2026-05-01T10:04:52Z</time></trkpt><trkpt lat="39.95567843704304" lon="9.196872476269935"><ele>800.0000000000001</ele><time>2026-05-01T10:04:54Z</time></trkpt><trkpt lat="39.9557569437254" lon="9.196780789001416"><ele>800.0</ele><time>2026-05-01T10:04:56Z</time></trkpt><trkpt lat="39.95584902423077" lon="9.196711931060857"><ele>800.75</ele><time>2026-05-01T10:04:58Z</time></trkpt><trkpt lat="39.9559601305659" lon="9.196681150433625"><ele>801.5</ele><time>2026-05-01T10:05:00Z</time></trkpt><trkpt lat="39.95605745743278" lon="9.19661131113215"><ele>802.25</ele><time>2026-05-01T10:05:02Z</time></trkpt><trkpt lat="39.95616133716671" lon="9.196563573451213"><ele>803.0</ele><time>2026-05-01T10:05:04Z</time></trkpt><trkpt lat="39.95627521654445" lon="9.196524364909285"><ele>798.5999999999999</ele><time>2026-05-01T10:05:06Z</time></trkpt><trkpt lat="39.95639226226256" lon="9.196491976678086"><ele>794.1999999999999</ele><time>2026-05-01T10:05:08Z</time></trkpt><trkpt lat="39.956510920094985" lon="9.196470194760515"><ele>789.8</ele><time>2026-05-01T10:05:10Z</time></trkpt><trkpt lat="39.95662887780223" lon="9.196453698646893"><ele>785.4</ele><time>2026-05-01T10:05:12Z</time></trkpt><trkpt lat="39.956698935173584" lon="9.196444698300706"><ele>781.0</ele><time>2026-05-01T10:05:13Z</time></trkpt><trkpt lat="39.95676853220249" lon="9.196441436254302"><ele>779.9999999999999</ele><time>2026-05-01T10:05:14Z</time></trkpt><trkpt lat="39.95683311278955" lon="9.196421750383612"><ele>779.0</ele><time>2026-05-01T10:05:15Z</time></trkpt><trkpt lat="39.956896719444465" lon="9.196427558364784"><ele>778.0</ele><time>2026-05-01T10:05:16Z</time></trkpt><trkpt lat="39.9570294827612" lon="9.19643472469017"><ele>777.0</ele><time>2026-05-01T10:05:18Z</time></trkpt><trkpt lat="39.95709775708423" lon="9.19643503323718"><ele>775.9999999999999</ele><time>2026-05-01T10:05:19Z</time></trkpt><trkpt lat="39.95716517195857" lon="9.19643556507227"><ele>775.0</ele><time>2026-05-01T10:05:20Z</time></trkpt><trkpt lat="39.95722997967592" lon="9.196433583786074"><ele>775.0</ele><time>2026-05-01T10:05:21Z</time></trkpt><trkpt lat="39.95735020239475" lon="9.196443292871747"><ele>775.0</ele><time>2026-05-01T10:05:23Z</time></trkpt><trkpt lat="39.95746273404015" lon="9.19645355962582"><ele>775.0</ele><time>2026-05-01T10:05:25Z</time></trkpt><trkpt lat="39.9575735780964" lon="9.196473951283517"><ele>775.0</ele><time>2026-05-01T10:05:27Z</time></trkpt><trkpt lat="39.957683505913664" lon="9.196516782937032"><ele>775.8571428571428</ele><time>2026-05-01T10:05:29Z</time></trkpt><trkpt lat="39.95774446871925" lon="9.196542300125442"><ele>776.7142857142857</ele><time>2026-05-01T10:05:30Z</time></trkpt><trkpt lat="39.95780512721595" lon="9.196580172196855"><ele>777.5714285714286</ele><time>2026-05-01T10:05:31Z</time></trkpt><trkpt lat="39.957863722329805" lon="9.196625663866316"><ele>778.4285714285713</ele><time>2026-05-01T10:05:32Z</time></trkpt><trkpt lat="39.95791858506634" lon="9.19668070632073"><ele>779.2857142857143</ele><time>2026-05-01T10:05:33Z</time></trkpt><trkpt lat="39.957970118094664" lon="9.19674073987109"><ele>780.1428571428571</ele><time>2026-05-01T10:05:34Z</time></trkpt><trkpt lat="39.958021316597794" lon="9.196801543318996"><ele>781.0</ele><time>2026-05-01T10:05:35Z</time></trkpt><trkpt lat="39.95807268504479" lon="9.196864389598044"><ele>781.0</ele><time>2026-05-01T10:05:36Z</time></trkpt><trkpt lat="39.95812507083245" lon="9.196927689743227"><ele>781.0</ele><time>2026-05-01T10:05:37Z</time></trkpt><trkpt lat="39.958181042871594" lon="9.196987916068272"><ele>781.0</ele><time>2026-05-01T10:05:38Z</time></trkpt><trkpt lat="39.958239937781045" lon="9.197046280951282"><ele>781.0</ele><time>2026-05-01T10:05:39Z</time></trkpt><trkpt lat="39.95829857411796" lon="9.197104512358537"><ele>781.0</ele><time>2026-05-01T10:05:40Z</time></trkpt><trkpt lat="39.958355535220946" lon="9.197168523314279"><ele>781.0</ele><time>2026-05-01T10:05:41Z</time></trkpt><trkpt lat="39.9584067605404" lon="9.1972388122453"><ele>781.0</ele><time>2026-05-01T10:05:42Z</time></trkpt><trkpt lat="39.958458118100566" lon="9.197312807042977"><ele>782.1666666666666</ele><time>2026-05-01T10:05:43Z</time></trkpt><trkpt lat="39.958511536231576" lon="9.197381367637707"><ele>783.3333333333333</ele><time>2026-05-01T10:05:44Z</time></trkpt><trkpt lat="39.958572168258854" lon="9.19744399701149"><ele>784.5</ele><time>2026-05-01T10:05:45Z</time></trkpt><trkpt lat="39.95863230512393" lon="9.197504182395205"><ele>785.6666666666667</ele><time>2026-05-01T10:05:46Z</time></trkpt><trkpt lat="39.95868976093916" lon="9.197560330442409"><ele>786.8333333333334</ele><time>2026-05-01T10:05:47Z</time></trkpt><trkpt lat="39.95874057493616" lon="9.197614569070371"><ele>788.0</ele><time>2026-05-01T10:05:48Z</time></trkpt><trkpt lat="39.95882294044302" lon="9.19772710990072"><ele>788.0000000000001</ele><time>2026-05-01T10:05:50Z</time></trkpt><trkpt lat="39.95889819293254" lon="9.197827475830625"><ele>788.0</ele><time>2026-05-01T10:05:52Z</time></trkpt><trkpt lat="39.95897684244189" lon="9.197903028788312"><ele>788.0</ele><time>2026-05-01T10:05:54Z</time></trkpt><trkpt lat="39.95906325308176" lon="9.197921934192571"><ele>788.0</ele><time>2026-05-01T10:05:56Z</time></trkpt><trkpt lat="39.959118369856625" lon="9.197873071027807"><ele>788.0000000000001</ele><time>2026-05-01T10:05:58Z</time></trkpt><trkpt lat="39.959147083588206" lon="9.197789946143992"><ele>788.0</ele><time>2026-05-01T10:06:01Z</time></trkpt><trkpt lat="39.95915457259028" lon="9.197614282907866"><ele>788.0000000000001</ele><time>2026-05-01T10:08:48Z</time></trkpt><trkpt lat="39.95916534398635" lon="9.197532492318619"><ele>788.0</ele><time>2026-05-01T10:09:13Z</time></trkpt><trkpt lat="39.959179818287225" lon="9.197441274787446"><ele>788.0</ele><time>2026-05-01T10:09:28Z</time></trkpt><trkpt lat="39.95907674905742" lon="9.197365585994008"><ele>788.0</ele><time>2026-05-01T10:24:16Z</time></trkpt><trkpt lat="39.959143557451625" lon="9.197384108391418"><ele>788.0000000000001</ele><time>2026-05-01T10:45:16Z</time></trkpt><trkpt lat="39.95913425633503" lon="9.197501924332903"><ele>788.0</ele><time>2026-05-01T10:45:57Z</time></trkpt><trkpt lat="39.95911188618544" lon="9.197578872303625"><ele>788.0</ele><time>2026-05-01T10:46:06Z</time></trkpt><trkpt lat="39.95909432256783" lon="9.197658356542973"><ele>788.0</ele><time>2026-05-01T10:53:45Z</time></trkpt><trkpt lat="39.959051247309176" lon="9.197719867988646"><ele>788.0</ele><time>2026-05-01T10:54:02Z</time></trkpt><trkpt lat="39.959123013667636" lon="9.197738573868648"><ele>788.0</ele><time>2026-05-01T10:56:07Z</time></trkpt><trkpt lat="39.95910778156196" lon="9.197632935900959"><ele>788.0</ele><time>2026-05-01T10:57:25Z</time></trkpt><trkpt lat="39.95911878840746" lon="9.197549021057807"><ele>788.0</ele><time>2026-05-01T10:57:26Z</time></trkpt><trkpt lat="39.95914621333877" lon="9.197468756266334"><ele>788.0</ele><time>2026-05-01T10:57:27Z</time></trkpt><trkpt lat="39.959167753096715" lon="9.197391084262314"><ele>790.5</ele><time>2026-05-01T10:57:28Z</time></trkpt><trkpt lat="39.95922972523103" lon="9.197219721169445"><ele>793.0</ele><time>2026-05-01T10:57:30Z</time></trkpt><trkpt lat="39.9592909296268" lon="9.197092433241266"><ele>795.5</ele><time>2026-05-01T10:57:31Z</time></trkpt><trkpt lat="39.95936551477868" lon="9.19696731091192"><ele>798.0</ele><time>2026-05-01T10:57:32Z</time></trkpt><trkpt lat="39.95942961721823" lon="9.196848927706624"><ele>798.0</ele><time>2026-05-01T10:57:33Z</time></trkpt><trkpt lat="39.95948988980489" lon="9.196739638120864"><ele>798.0</ele><time>2026-05-01T10:57:34Z</time></trkpt><trkpt lat="39.95955035304637" lon="9.196638508108826"><ele>798.0</ele><time>2026-05-01T10:57:35Z</time></trkpt><trkpt lat="39.95960780818083" lon="9.19653867066593"><ele>798.0</ele><time>2026-05-01T10:57:36Z</time></trkpt><trkpt lat="39.959660836723586" lon="9.196437386507684"><ele>798.0</ele><time>2026-05-01T10:57:37Z</time></trkpt><trkpt lat="39.95970390743231" lon="9.196330581954843"><ele>795.5999999999999</ele><time>2026-05-01T10:57:38Z</time></trkpt><trkpt lat="39.95972857182942" lon="9.196208294768741"><ele>793.1999999999999</ele><time>2026-05-01T10:57:39Z</time></trkpt><trkpt lat="39.95971507583583" lon="9.196070188378796"><ele>790.8</ele><time>2026-05-01T10:57:40Z</time></trkpt><trkpt lat="39.959694424104214" lon="9.195943025513584"><ele>788.4</ele><time>2026-05-01T10:57:41Z</time></trkpt><trkpt lat="39.959675497702335" lon="9.195811592571511"><ele>786.0</ele><time>2026-05-01T10:57:42Z</time></trkpt><trkpt lat="39.95959781063865" lon="9.195704830992518"><ele>786.8</ele><time>2026-05-01T10:57:43Z</time></trkpt><trkpt lat="39.959526590356035" lon="9.195607865169585"><ele>787.5999999999999</ele><time>2026-05-01T10:57:44Z</time></trkpt><trkpt lat="39.9594566399093" lon="9.195510298855266"><ele>788.4</ele><time>2026-05-01T10:57:45Z</time></trkpt><trkpt lat="39.959389078775224" lon="9.195412557064493"><ele>789.2</ele><time>2026-05-01T10:57:46Z</time></trkpt><trkpt lat="39.95932414856748" lon="9.195313992383117"><ele>790.0</ele><time>2026-05-01T10:57:47Z</time></trkpt><trkpt lat="39.95926373204865" lon="9.19521334777836"><ele>790.0</ele><time>2026-05-01T10:57:48Z</time></trkpt><trkpt lat="39.95920609229628" lon="9.195109342011037"><ele>790.0</ele><time>2026-05-01T10:57:49Z</time></trkpt><trkpt lat="39.95915282810626" lon="9.19500582515466"><ele>790.0</ele><time>2026-05-01T10:57:50Z</time></trkpt><trkpt lat="39.95910052885263" lon="9.19490223469633"><ele>790.0</ele><time>2026-05-01T10:57:51Z</time></trkpt><trkpt lat="39.95904574286009" lon="9.194802751439525"><ele>790.0</ele><time>2026-05-01T10:57:52Z</time></trkpt><trkpt lat="39.95898747880531" lon="9.194708066523745"><ele>788.4</ele><time>2026-05-01T10:57:53Z</time></trkpt><trkpt lat="39.95892478924541" lon="9.194622677065123"><ele>786.8</ele><time>2026-05-01T10:57:54Z</time></trkpt><trkpt lat="39.95885939355344" lon="9.194539835935776"><ele>785.2</ele><time>2026-05-01T10:57:55Z</time></trkpt><trkpt lat="39.958792565064854" lon="9.194456817250106"><ele>783.6</ele><time>2026-05-01T10:57:56Z</time></trkpt><trkpt lat="39.95872170661188" lon="9.194369142567991"><ele>782.0</ele><time>2026-05-01T10:57:57Z</time></trkpt><trkpt lat="39.95864901969423" lon="9.1942793752144"><ele>782.0</ele><time>2026-05-01T10:57:58Z</time></trkpt><trkpt lat="39.95857236246514" lon="9.194189168406556"><ele>782.0</ele><time>2026-05-01T10:57:59Z</time></trkpt><trkpt lat="39.95849064378076" lon="9.19410045997217"><ele>782.0</ele><time>2026-05-01T10:58:00Z</time></trkpt><trkpt lat="39.95840496864554" lon="9.194011365962284"><ele>782.0</ele><time>2026-05-01T10:58:01Z</time></trkpt><trkpt lat="39.958322317710774" lon="9.193920973141726"><ele>782.0</ele><time>2026-05-01T10:58:02Z</time></trkpt><trkpt lat="39.95823985238253" lon="9.19382702568375"><ele>780.2</ele><time>2026-05-01T10:58:03Z</time></trkpt><trkpt lat="39.958157980245154" lon="9.193734739824935"><ele>778.4000000000001</ele><time>2026-05-01T10:58:04Z</time></trkpt><trkpt lat="39.95807232222137" lon="9.193647521052167"><ele>776.5999999999999</ele><time>2026-05-01T10:58:05Z</time></trkpt><trkpt lat="39.957985390237134" lon="9.193557902793634"><ele>774.8</ele><time>2026-05-01T10:58:06Z</time></trkpt><trkpt lat="39.95789610989475" lon="9.19347125881785"><ele>773.0</ele><time>2026-05-01T10:58:07Z</time></trkpt><trkpt lat="39.957804428323904" lon="9.193388380569552"><ele>773.0</ele><time>2026-05-01T10:58:08Z</time></trkpt><trkpt lat="39.95771352055777" lon="9.193303854253942"><ele>773.0</ele><time>2026-05-01T10:58:09Z</time></trkpt><trkpt lat="39.95763339850342" lon="9.193199908239459"><ele>773.0</ele><time>2026-05-01T10:58:10Z</time></trkpt><trkpt lat="39.95756437663109" lon="9.193081881324622"><ele>773.0</ele><time>2026-05-01T10:58:11Z</time></trkpt><trkpt lat="39.95750609802462" lon="9.192953586036799"><ele>768.25</ele><time>2026-05-01T10:58:12Z</time></trkpt><trkpt lat="39.957456857294986" lon="9.19281501704018"><ele>763.5</ele><time>2026-05-01T10:58:13Z</time></trkpt><trkpt lat="39.95741017681271" lon="9.192670919078543"><ele>758.75</ele><time>2026-05-01T10:58:14Z</time></trkpt><trkpt lat="39.95736454656247" lon="9.192526314152827"><ele>754.0</ele><time>2026-05-01T10:58:15Z</time></trkpt><trkpt lat="39.95732094876849" lon="9.192379455434242"><ele>755.75</ele><time>2026-05-01T10:58:16Z</time></trkpt><trkpt lat="39.957273780250155" lon="9.192232162847985"><ele>757.5</ele><time>2026-05-01T10:58:17Z</time></trkpt><trkpt lat="39.95721823775866" lon="9.192088217317739"><ele>759.25</ele><time>2026-05-01T10:58:18Z</time></trkpt><trkpt lat="39.957149448661276" lon="9.19195667958066"><ele>761.0</ele><time>2026-05-01T10:58:19Z</time></trkpt><trkpt lat="39.95705422917512" lon="9.19185392267678"><ele>761.0</ele><time>2026-05-01T10:58:20Z</time></trkpt><trkpt lat="39.95694445690793" lon="9.191779334352931"><ele>761.0</ele><time>2026-05-01T10:58:21Z</time></trkpt><trkpt lat="39.956838821624" lon="9.19169479115508"><ele>761.0</ele><time>2026-05-01T10:58:22Z</time></trkpt><trkpt lat="39.95672681632926" lon="9.191643362936865"><ele>761.0</ele><time>2026-05-01T10:58:23Z</time></trkpt><trkpt lat="39.95664200260798" lon="9.191549870269856"><ele>755.5</ele><time>2026-05-01T10:58:24Z</time></trkpt><trkpt lat="39.95658946007139" lon="9.191423984513923"><ele>750.0</ele><time>2026-05-01T10:58:25Z</time></trkpt><trkpt lat="39.95658168154677" lon="9.191281296483549"><ele>744.5</ele><time>2026-05-01T10:58:26Z</time></trkpt><trkpt lat="39.956613112851116" lon="9.191129220877327"><ele>739.0</ele><time>2026-05-01T10:58:27Z</time></trkpt><trkpt lat="39.95666078412499" lon="9.19097210609668"><ele>739.0</ele><time>2026-05-01T10:58:28Z</time></trkpt><trkpt lat="39.956684904391636" lon="9.190817612088894"><ele>739.0</ele><time>2026-05-01T10:58:29Z</time></trkpt><trkpt lat="39.95666033596139" lon="9.190671636303883"><ele>739.0</ele><time>2026-05-01T10:58:30Z</time></trkpt><trkpt lat="39.95658873835002" lon="9.190560866965425"><ele>739.0</ele><time>2026-05-01T10:58:31Z</time></trkpt><trkpt lat="39.95651809308194" lon="9.190449439916337"><ele>740.25</ele><time>2026-05-01T10:58:32Z</time></trkpt><trkpt lat="39.95648144733179" lon="9.190304242747791"><ele>741.5</ele><time>2026-05-01T10:58:33Z</time></trkpt><trkpt lat="39.956477447243635" lon="9.190134329308702"><ele>742.75</ele><time>2026-05-01T10:58:34Z</time></trkpt><trkpt lat="39.95645591824306" lon="9.189966227850741"><ele>744.0</ele><time>2026-05-01T10:58:35Z</time></trkpt><trkpt lat="39.956401235725345" lon="9.189795434501754"><ele>744.0</ele><time>2026-05-01T10:58:36Z</time></trkpt><trkpt lat="39.95635277112969" lon="9.189607956676197"><ele>744.0</ele><time>2026-05-01T10:58:37Z</time></trkpt><trkpt lat="39.95633261769427" lon="9.189402875652204"><ele>744.0</ele><time>2026-05-01T10:58:38Z</time></trkpt><trkpt lat="39.956329378711175" lon="9.189191634698227"><ele>744.0</ele><time>2026-05-01T10:58:39Z</time></trkpt><trkpt lat="39.95633361868448" lon="9.188975257594105"><ele>744.0</ele><time>2026-05-01T10:58:40Z</time></trkpt><trkpt lat="39.95633143373002" lon="9.18875270123814"><ele>744.0</ele><time>2026-05-01T10:58:41Z</time></trkpt><trkpt lat="39.95631548006272" lon="9.188534450585054"><ele>744.0</ele><time>2026-05-01T10:58:42Z</time></trkpt><trkpt lat="39.956289231067345" lon="9.188321078355425"><ele>744.0</ele><time>2026-05-01T10:58:43Z</time></trkpt><trkpt lat="39.95625719452835" lon="9.188111242255989"><ele>744.0</ele><time>2026-05-01T10:58:44Z</time></trkpt><trkpt lat="39.95621846567562" lon="9.187912696074042"><ele>744.0</ele><time>2026-05-01T10:58:45Z</time></trkpt><trkpt lat="39.95616913516308" lon="9.187722937256709"><ele>744.0</ele><time>2026-05-01T10:58:46Z</time></trkpt><trkpt lat="39.95611355924626" lon="9.187543236765087"><ele>744.0</ele><time>2026-05-01T10:58:47Z</time></trkpt><trkpt lat="39.95606468250744" lon="9.187365307794806"><ele>744.0</ele><time>2026-05-01T10:58:48Z</time></trkpt><trkpt lat="39.95603104845373" lon="9.187184747845604"><ele>743.5</ele><time>2026-05-01T10:58:49Z</time></trkpt><trkpt lat="39.95601807299833" lon="9.187000909831783"><ele>743.0</ele><time>2026-05-01T10:58:50Z</time></trkpt><trkpt lat="39.95603004332257" lon="9.186816183668014"><ele>742.5</ele><time>2026-05-01T10:58:51Z</time></trkpt><trkpt lat="39.95607376816067" lon="9.18662589131752"><ele>742.0</ele><time>2026-05-01T10:58:52Z</time></trkpt><trkpt lat="39.95613570395938" lon="9.186437879637623"><ele>741.5</ele><time>2026-05-01T10:58:53Z</time></trkpt><trkpt lat="39.95618695072808" lon="9.186257275016823"><ele>741.0</ele><time>2026-05-01T10:58:54Z</time></trkpt><trkpt lat="39.95619723814644" lon="9.1860776338285"><ele>740.5</ele><time>2026-05-01T10:58:55Z</time></trkpt><trkpt lat="39.95614522898114" lon="9.185897177848274"><ele>740.0</ele><time>2026-05-01T10:58:56Z</time></trkpt><trkpt lat="39.95607588176444" lon="9.185723122757208"><ele>737.6666666666666</ele><time>2026-05-01T10:58:57Z</time></trkpt><trkpt lat="39.95602740504693" lon="9.18554226889963"><ele>735.3333333333334</ele><time>2026-05-01T10:58:58Z</time></trkpt><trkpt lat="39.95601412277268" lon="9.185340123448995"><ele>733.0</ele><time>2026-05-01T10:58:59Z</time></trkpt><trkpt lat="39.95600415016323" lon="9.185142140423826"><ele>733.0</ele><time>2026-05-01T10:59:00Z</time></trkpt><trkpt lat="39.955974436002535" lon="9.184953658392704"><ele>733.0</ele><time>2026-05-01T10:59:01Z</time></trkpt><trkpt lat="39.95594478158673" lon="9.184774423408578"><ele>733.0</ele><time>2026-05-01T10:59:02Z</time></trkpt><trkpt lat="39.95594236966932" lon="9.18459817651574"><ele>733.0</ele><time>2026-05-01T10:59:03Z</time></trkpt><trkpt lat="39.95598075500919" lon="9.184430717131857"><ele>729.5</ele><time>2026-05-01T10:59:04Z</time></trkpt><trkpt lat="39.956051600600226" lon="9.184276421920993"><ele>726.0</ele><time>2026-05-01T10:59:05Z</time></trkpt><trkpt lat="39.95614430093672" lon="9.184136108850836"><ele>722.5</ele><time>2026-05-01T10:59:06Z</time></trkpt><trkpt lat="39.95626296719043" lon="9.184028282023618"><ele>719.0</ele><time>2026-05-01T10:59:07Z</time></trkpt><trkpt lat="39.956391421848835" lon="9.183945323241215"><ele>716.0</ele><time>2026-05-01T10:59:08Z</time></trkpt><trkpt lat="39.95647913929687" lon="9.18380540795251"><ele>713.0</ele><time>2026-05-01T10:59:09Z</time></trkpt><trkpt lat="39.956531019858815" lon="9.183628015581714"><ele>710.0</ele><time>2026-05-01T10:59:10Z</time></trkpt><trkpt lat="39.956550057769505" lon="9.183442956943612"><ele>707.0</ele><time>2026-05-01T10:59:11Z</time></trkpt><trkpt lat="39.95655182482776" lon="9.183245150884249"><ele>705.0</ele><time>2026-05-01T10:59:12Z</time></trkpt><trkpt lat="39.956531117588284" lon="9.183055564827002"><ele>703.0</ele><time>2026-05-01T10:59:13Z</time></trkpt><trkpt lat="39.95648613742837" lon="9.182880305145575"><ele>701.0</ele><time>2026-05-01T10:59:14Z</time></trkpt><trkpt lat="39.956446684629654" lon="9.182715342062693"><ele>699.0</ele><time>2026-05-01T10:59:15Z</time></trkpt><trkpt lat="39.9564534814422" lon="9.18255303059316"><ele>699.0</ele><time>2026-05-01T10:59:16Z</time></trkpt><trkpt lat="39.95651684448883" lon="9.182410273646356"><ele>699.0</ele><time>2026-05-01T10:59:17Z</time></trkpt><trkpt lat="39.95661770799603" lon="9.18230386837304"><ele>699.0</ele><time>2026-05-01T10:59:18Z</time></trkpt><trkpt lat="39.95672669037184" lon="9.182209710403106"><ele>699.0</ele><time>2026-05-01T10:59:19Z</time></trkpt><trkpt lat="39.95682610146056" lon="9.182115581350294"><ele>697.0</ele><time>2026-05-01T10:59:20Z</time></trkpt><trkpt lat="39.9569112133984" lon="9.182026342344393"><ele>695.0</ele><time>2026-05-01T10:59:21Z</time></trkpt><trkpt lat="39.95699306170472" lon="9.181954451837148"><ele>693.0</ele><time>2026-05-01T10:59:22Z</time></trkpt><trkpt lat="39.95706844846809" lon="9.181897727534759"><ele>691.0</ele><time>2026-05-01T10:59:23Z</time></trkpt><trkpt lat="39.95713659966346" lon="9.181859664605675"><ele>689.0</ele><time>2026-05-01T10:59:24Z</time></trkpt><trkpt lat="39.95720384152206" lon="9.181837402681017"><ele>687.0</ele><time>2026-05-01T10:59:25Z</time></trkpt><trkpt lat="39.95727356106364" lon="9.181831788248171"><ele>687.0</ele><time>2026-05-01T10:59:26Z</time></trkpt><trkpt lat="39.95733839296014" lon="9.181846677360607"><ele>687.0</ele><time>2026-05-01T10:59:27Z</time></trkpt><trkpt lat="39.95743538621901" lon="9.181912763432834"><ele>687.0</ele><time>2026-05-01T10:59:29Z</time></trkpt><trkpt lat="39.95748122896377" lon="9.181988122965166"><ele>687.0</ele><time>2026-05-01T10:59:31Z</time></trkpt><trkpt lat="39.95752653044663" lon="9.182064678114827"><ele>687.0</ele><time>2026-05-01T10:59:34Z</time></trkpt><trkpt lat="39.95759081732595" lon="9.182170880046467"><ele>687.0</ele><time>2026-05-01T11:01:34Z</time></trkpt><trkpt lat="39.95773656352735" lon="9.182136871013357"><ele>682.8333333333334</ele><time>2026-05-01T11:02:11Z</time></trkpt><trkpt lat="39.95781768500117" lon="9.182112724992033"><ele>678.6666666666666</ele><time>2026-05-01T11:02:55Z</time></trkpt><trkpt lat="39.95775365168815" lon="9.182141329055463"><ele>674.5</ele><time>2026-05-01T12:19:39Z</time></trkpt><trkpt lat="39.957845048692064" lon="9.182130985472119"><ele>670.3333333333333</ele><time>2026-05-01T12:58:22Z</time></trkpt><trkpt lat="39.957794698277155" lon="9.182077368910788"><ele>666.1666666666666</ele><time>2026-05-01T12:59:23Z</time></trkpt><trkpt lat="39.95772394823053" lon="9.18213557793435"><ele>662.0</ele><time>2026-05-01T13:00:06.3Z</time></trkpt><trkpt lat="39.95770567372879" lon="9.182053795398126"><ele>662.0</ele><time>2026-05-01T13:00:51Z</time></trkpt><trkpt lat="39.95763295032555" lon="9.182109507026187"><ele>662.0</ele><time>2026-05-01T13:00:56Z</time></trkpt><trkpt lat="39.957608726658535" lon="9.182186618248796"><ele>662.0</ele><time>2026-05-01T13:01:04Z</time></trkpt><trkpt lat="39.95767083548851" lon="9.182168781711471"><ele>662.0</ele><time>2026-05-01T13:01:53Z</time></trkpt><trkpt lat="39.95771118351939" lon="9.182098085908153"><ele>662.0</ele><time>2026-05-01T13:02:00Z</time></trkpt><trkpt lat="39.95777137376843" lon="9.182133503982929"><ele>662.0</ele><time>2026-05-01T13:02:14Z</time></trkpt><trkpt lat="39.957700567528406" lon="9.18210350464252"><ele>662.0</ele><time>2026-05-01T13:02:22Z</time></trkpt><trkpt lat="39.957653960644436" lon="9.18217495314279"><ele>662.0</ele><time>2026-05-01T13:02:47Z</time></trkpt><trkpt lat="39.957715131806545" lon="9.18215504071639"><ele>662.0</ele><time>2026-05-01T13:03:58.024Z</time></trkpt><trkpt lat="39.95774006198062" lon="9.182233006748843"><ele>662.0</ele><time>2026-05-01T13:04:35Z</time></trkpt><trkpt lat="39.957634725483025" lon="9.182207406227784"><ele>662.0</ele><time>2026-05-01T13:04:59Z</time></trkpt><trkpt lat="39.95756098919971" lon="9.182257005204054"><ele>662.0</ele><time>2026-05-01T13:08:07Z</time></trkpt><trkpt lat="39.95749099633765" lon="9.182332646482147"><ele>662.0</ele><time>2026-05-01T13:08:43Z</time></trkpt><trkpt lat="39.95755183333659" lon="9.182294587227124"><ele>662.0</ele><time>2026-05-01T13:09:05Z</time></trkpt><trkpt lat="39.957632626197814" lon="9.182148404884042"><ele>662.0</ele><time>2026-05-01T13:10:00Z</time></trkpt><trkpt lat="39.957564566044354" lon="9.182212220153836"><ele>662.0</ele><time>2026-05-01T13:10:09Z</time></trkpt><trkpt lat="39.957513097850544" lon="9.182314207218301"><ele>662.0</ele><time>2026-05-01T13:11:24Z</time></trkpt><trkpt lat="39.957617610915825" lon="9.182165248176982"><ele>662.0</ele><time>2026-05-01T13:13:48Z</time></trkpt><trkpt lat="39.95756235183233" lon="9.182237607433178"><ele>662.0</ele><time>2026-05-01T13:14:53Z</time></trkpt><trkpt lat="39.95759832455593" lon="9.182165680234013"><ele>662.0</ele><time>2026-05-01T13:15:43Z</time></trkpt><trkpt lat="39.95760674115632" lon="9.1820785752151"><ele>662.0</ele><time>2026-05-01T13:17:13Z</time></trkpt><trkpt lat="39.95752914057536" lon="9.181987450931766"><ele>662.0</ele><time>2026-05-01T13:22:03.001Z</time></trkpt><trkpt lat="39.95745581112349" lon="9.181885973704203"><ele>662.0</ele><time>2026-05-01T13:22:05.001Z</time></trkpt><trkpt lat="39.95735448060884" lon="9.181805674744199"><ele>665.5714285714286</ele><time>2026-05-01T13:22:07.001Z</time></trkpt><trkpt lat="39.95729202366541" lon="9.181787954672343"><ele>669.1428571428571</ele><time>2026-05-01T13:22:08.001Z</time></trkpt><trkpt lat="39.95722616472434" lon="9.181786015868884"><ele>672.7142857142858</ele><time>2026-05-01T13:22:09.001Z</time></trkpt><trkpt lat="39.957160390405086" lon="9.181796703115223"><ele>676.2857142857142</ele><time>2026-05-01T13:22:10.001Z</time></trkpt><trkpt lat="39.95709769171652" lon="9.18182622748084"><ele>679.8571428571428</ele><time>2026-05-01T13:22:11.001Z</time></trkpt><trkpt lat="39.95704237228494" lon="9.18187101550561"><ele>683.4285714285714</ele><time>2026-05-01T13:22:12.001Z</time></trkpt><trkpt lat="39.956984315389256" lon="9.181924174948664"><ele>687.0</ele><time>2026-05-01T13:22:13.001Z</time></trkpt><trkpt lat="39.956920461201925" lon="9.18198145234923"><ele>687.0</ele><time>2026-05-01T13:22:14.001Z</time></trkpt><trkpt lat="39.956850965705584" lon="9.182041477766434"><ele>687.0</ele><time>2026-05-01T13:22:15.001Z</time></trkpt><trkpt lat="39.956783135606635" lon="9.182100212186278"><ele>687.0</ele><time>2026-05-01T13:22:16.001Z</time></trkpt><trkpt lat="39.95671135707116" lon="9.182159071367797"><ele>687.0</ele><time>2026-05-01T13:22:17.001Z</time></trkpt><trkpt lat="39.95664212952401" lon="9.182219018524442"><ele>687.0</ele><time>2026-05-01T13:22:18.001Z</time></trkpt><trkpt lat="39.95657245150982" lon="9.182287252425711"><ele>687.0</ele><time>2026-05-01T13:22:19.001Z</time></trkpt><trkpt lat="39.95651111264095" lon="9.18236629028489"><ele>689.4000000000001</ele><time>2026-05-01T13:22:20.001Z</time></trkpt><trkpt lat="39.95645852291586" lon="9.182458433417844"><ele>691.8000000000001</ele><time>2026-05-01T13:22:21.001Z</time></trkpt><trkpt lat="39.956424697257184" lon="9.182563990192355"><ele>694.2</ele><time>2026-05-01T13:22:22.001Z</time></trkpt><trkpt lat="39.95641860640974" lon="9.182682870451305"><ele>696.6</ele><time>2026-05-01T13:22:23.001Z</time></trkpt><trkpt lat="39.95644072565536" lon="9.182805146585792"><ele>699.0</ele><time>2026-05-01T13:22:24.001Z</time></trkpt><trkpt lat="39.95647262135544" lon="9.18292270599402"><ele>699.0</ele><time>2026-05-01T13:22:25.001Z</time></trkpt><trkpt lat="39.95650174063773" lon="9.183041333609703"><ele>699.0</ele><time>2026-05-01T13:22:26.001Z</time></trkpt><trkpt lat="39.95652326435698" lon="9.183162755280303"><ele>699.0</ele><time>2026-05-01T13:22:27.001Z</time></trkpt><trkpt lat="39.9565277708778" lon="9.183291007896175"><ele>699.0</ele><time>2026-05-01T13:22:28.001Z</time></trkpt><trkpt lat="39.95651821744225" lon="9.183417582881159"><ele>699.0</ele><time>2026-05-01T13:22:29.001Z</time></trkpt><trkpt lat="39.95649931928792" lon="9.183549083666206"><ele>700.6</ele><time>2026-05-01T13:22:30.001Z</time></trkpt><trkpt lat="39.956473542470036" lon="9.183681422600412"><ele>702.2</ele><time>2026-05-01T13:22:31.001Z</time></trkpt><trkpt lat="39.95642846990056" lon="9.18380746029216"><ele>703.8000000000001</ele><time>2026-05-01T13:22:32.001Z</time></trkpt><trkpt lat="39.956355169686425" lon="9.183912486751115"><ele>705.4000000000001</ele><time>2026-05-01T13:22:33.001Z</time></trkpt><trkpt lat="39.95626659620719" lon="9.183996557163034"><ele>707.0</ele><time>2026-05-01T13:22:34.001Z</time></trkpt><trkpt lat="39.95616901602906" lon="9.184063319341842"><ele>710.0</ele><time>2026-05-01T13:22:35.001Z</time></trkpt><trkpt lat="39.95608368572644" lon="9.184149593699935"><ele>713.0</ele><time>2026-05-01T13:22:36.001Z</time></trkpt><trkpt lat="39.956015219695296" lon="9.184270145748172"><ele>716.0</ele><time>2026-05-01T13:22:37.001Z</time></trkpt><trkpt lat="39.95596065656908" lon="9.184405512785483"><ele>719.0</ele><time>2026-05-01T13:22:38.001Z</time></trkpt><trkpt lat="39.9559210996094" lon="9.184554259120041"><ele>719.0</ele><time>2026-05-01T13:22:39.001Z</time></trkpt><trkpt lat="39.95590754235032" lon="9.184711890412759"><ele>719.0</ele><time>2026-05-01T13:22:40.001Z</time></trkpt><trkpt lat="39.95592416061148" lon="9.184873229955864"><ele>719.0</ele><time>2026-05-01T13:22:41.001Z</time></trkpt><trkpt lat="39.95595901475522" lon="9.185030279872992"><ele>719.0</ele><time>2026-05-01T13:22:42.001Z</time></trkpt><trkpt lat="39.95598345913982" lon="9.185188621149686"><ele>722.5</ele><time>2026-05-01T13:22:43.001Z</time></trkpt><trkpt lat="39.95598844784167" lon="9.185348454741447"><ele>726.0</ele><time>2026-05-01T13:22:44.001Z</time></trkpt><trkpt lat="39.95598941948201" lon="9.185507181837583"><ele>729.5</ele><time>2026-05-01T13:22:45.001Z</time></trkpt><trkpt lat="39.95600953368293" lon="9.185660178354121"><ele>733.0</ele><time>2026-05-01T13:22:46.001Z</time></trkpt><trkpt lat="39.956055988711896" lon="9.185803394863264"><ele>734.75</ele><time>2026-05-01T13:22:47.001Z</time></trkpt><trkpt lat="39.95611126084645" lon="9.185940234742324"><ele>736.5</ele><time>2026-05-01T13:22:48.001Z</time></trkpt><trkpt lat="39.95614293909174" lon="9.18608623463373"><ele>738.25</ele><time>2026-05-01T13:22:49.001Z</time></trkpt><trkpt lat="39.956134547645746" lon="9.186239793278089"><ele>740.0</ele><time>2026-05-01T13:22:50.001Z</time></trkpt><trkpt lat="39.956094199266424" lon="9.186384956858896"><ele>740.5</ele><time>2026-05-01T13:22:51Z</time></trkpt><trkpt lat="39.95605008378781" lon="9.186529169002693"><ele>741.0</ele><time>2026-05-01T13:22:52Z</time></trkpt><trkpt lat="39.95601246676168" lon="9.186676131037924"><ele>741.5</ele><time>2026-05-01T13:22:53Z</time></trkpt><trkpt lat="39.95598684795232" lon="9.186829660149712"><ele>742.0</ele><time>2026-05-01T13:22:54Z</time></trkpt><trkpt lat="39.955978185849986" lon="9.186983621018818"><ele>742.0</ele><time>2026-05-01T13:22:55Z</time></trkpt><trkpt lat="39.95598848948684" lon="9.18713586635508"><ele>742.0</ele><time>2026-05-01T13:22:56Z</time></trkpt><trkpt lat="39.95601428871136" lon="9.187289066069534"><ele>742.0</ele><time>2026-05-01T13:22:57Z</time></trkpt><trkpt lat="39.956051757772514" lon="9.187438545685094"><ele>742.0</ele><time>2026-05-01T13:22:58Z</time></trkpt><trkpt lat="39.95609629129473" lon="9.187583808511285"><ele>742.5</ele><time>2026-05-01T13:22:59Z</time></trkpt><trkpt lat="39.95614211849321" lon="9.187729130115233"><ele>743.0</ele><time>2026-05-01T13:23:00Z</time></trkpt><trkpt lat="39.95618385265814" lon="9.187878291908877"><ele>743.5</ele><time>2026-05-01T13:23:01Z</time></trkpt><trkpt lat="39.956215634656736" lon="9.188032549380049"><ele>744.0</ele><time>2026-05-01T13:23:02Z</time></trkpt><trkpt lat="39.9562363607037" lon="9.188193560861027"><ele>744.0</ele><time>2026-05-01T13:23:03Z</time></trkpt><trkpt lat="39.9562535853045" lon="9.188355228963147"><ele>744.0</ele><time>2026-05-01T13:23:04Z</time></trkpt><trkpt lat="39.956270134368964" lon="9.188519802075886"><ele>744.0</ele><time>2026-05-01T13:23:05Z</time></trkpt><trkpt lat="39.95627973935141" lon="9.188684896765743"><ele>744.0</ele><time>2026-05-01T13:23:06Z</time></trkpt><trkpt lat="39.956285491128355" lon="9.188854546068878"><ele>744.0</ele><time>2026-05-01T13:23:07Z</time></trkpt><trkpt lat="39.95628858542272" lon="9.189024705416774"><ele>744.0</ele><time>2026-05-01T13:23:08Z</time></trkpt><trkpt lat="39.956290110565455" lon="9.189193612294453"><ele>744.0</ele><time>2026-05-01T13:23:09Z</time></trkpt><trkpt lat="39.95629058778035" lon="9.189363954809146"><ele>744.0</ele><time>2026-05-01T13:23:10Z</time></trkpt><trkpt lat="39.95630332957065" lon="9.18953527318768"><ele>744.0</ele><time>2026-05-01T13:23:11Z</time></trkpt><trkpt lat="39.95633878301903" lon="9.189703676106191"><ele>744.0</ele><time>2026-05-01T13:23:12Z</time></trkpt><trkpt lat="39.95638531068934" lon="9.189864567820266"><ele>744.0</ele><time>2026-05-01T13:23:13Z</time></trkpt><trkpt lat="39.95642504848359" lon="9.190027346929321"><ele>744.0</ele><time>2026-05-01T13:23:14Z</time></trkpt><trkpt lat="39.95644590505354" lon="9.19018984660868"><ele>744.0</ele><time>2026-05-01T13:23:15Z</time></trkpt><trkpt lat="39.956458278571645" lon="9.190347999383023"><ele>744.0</ele><time>2026-05-01T13:23:16Z</time></trkpt><trkpt lat="39.95649486186859" lon="9.190494352593845"><ele>744.0</ele><time>2026-05-01T13:23:17.001Z</time></trkpt><trkpt lat="39.95656676409486" lon="9.19061242980291"><ele>744.0</ele><time>2026-05-01T13:23:18.001Z</time></trkpt><trkpt lat="39.95663531325235" lon="9.190721669292348"><ele>743.0</ele><time>2026-05-01T13:23:19.001Z</time></trkpt><trkpt lat="39.956659847303314" lon="9.190843404114517"><ele>742.0</ele><time>2026-05-01T13:23:20.001Z</time></trkpt><trkpt lat="39.95661526882294" lon="9.190959687909821"><ele>741.0</ele><time>2026-05-01T13:23:21.001Z</time></trkpt><trkpt lat="39.95658664604429" lon="9.191084055000415"><ele>740.0</ele><time>2026-05-01T13:23:22.001Z</time></trkpt><trkpt lat="39.95655192157821" lon="9.191206136297723"><ele>739.0</ele><time>2026-05-01T13:23:23.001Z</time></trkpt><trkpt lat="39.95654531347679" lon="9.191343992473776"><ele>739.0</ele><time>2026-05-01T13:23:24.001Z</time></trkpt><trkpt lat="39.95656800870275" lon="9.191483357966442"><ele>739.0</ele><time>2026-05-01T13:23:25.001Z</time></trkpt><trkpt lat="39.956625539272025" lon="9.191604634314414"><ele>739.0</ele><time>2026-05-01T13:23:26.001Z</time></trkpt><trkpt lat="39.956718232515726" lon="9.191689400224423"><ele>739.0</ele><time>2026-05-01T13:23:27.001Z</time></trkpt><trkpt lat="39.95682976199189" lon="9.19173546983674"><ele>739.0</ele><time>2026-05-01T13:23:28.001Z</time></trkpt><trkpt lat="39.956942752851646" lon="9.19178926113569"><ele>744.5</ele><time>2026-05-01T13:23:29.001Z</time></trkpt><trkpt lat="39.957045425449515" lon="9.191872453515606"><ele>750.0</ele><time>2026-05-01T13:23:30.001Z</time></trkpt><trkpt lat="39.95713754811536" lon="9.191982032501313"><ele>755.5</ele><time>2026-05-01T13:23:31.001Z</time></trkpt><trkpt lat="39.95721249753939" lon="9.192114543306934"><ele>761.0</ele><time>2026-05-01T13:23:32.001Z</time></trkpt><trkpt lat="39.9572675188931" lon="9.192262893375943"><ele>759.25</ele><time>2026-05-01T13:23:33.001Z</time></trkpt><trkpt lat="39.95730791497558" lon="9.192419145434892"><ele>757.5</ele><time>2026-05-01T13:23:34.001Z</time></trkpt><trkpt lat="39.95734698332885" lon="9.19257230510032"><ele>755.75</ele><time>2026-05-01T13:23:35.001Z</time></trkpt><trkpt lat="39.95739026024625" lon="9.192723506768422"><ele>754.0</ele><time>2026-05-01T13:23:36.001Z</time></trkpt><trkpt lat="39.957437691946964" lon="9.192872291165743"><ele>754.0</ele><time>2026-05-01T13:23:37.001Z</time></trkpt><trkpt lat="39.95749338503069" lon="9.193013372625344"><ele>754.0</ele><time>2026-05-01T13:23:38.001Z</time></trkpt><trkpt lat="39.957559364503624" lon="9.193142762840651"><ele>754.0</ele><time>2026-05-01T13:23:39.001Z</time></trkpt><trkpt lat="39.957639898034444" lon="9.193261163490039"><ele>754.0</ele><time>2026-05-01T13:23:40.001Z</time></trkpt><trkpt lat="39.957735004970495" lon="9.193363228850568"><ele>758.75</ele><time>2026-05-01T13:23:41.001Z</time></trkpt><trkpt lat="39.95783949390187" lon="9.19345257185767"><ele>763.5</ele><time>2026-05-01T13:23:42.001Z</time></trkpt><trkpt lat="39.95794313968398" lon="9.193541142383125"><ele>768.25</ele><time>2026-05-01T13:23:43.001Z</time></trkpt><trkpt lat="39.958041288671716" lon="9.193639801622739"><ele>773.0</ele><time>2026-05-01T13:23:44.001Z</time></trkpt><trkpt lat="39.95813395907099" lon="9.193741247782798"><ele>773.0</ele><time>2026-05-01T13:23:45.001Z</time></trkpt><trkpt lat="39.95822684842456" lon="9.19384563745649"><ele>773.0</ele><time>2026-05-01T13:23:46.001Z</time></trkpt><trkpt lat="39.95832064053629" lon="9.193947611326461"><ele>773.0</ele><time>2026-05-01T13:23:47.001Z</time></trkpt><trkpt lat="39.95841449581818" lon="9.194048593734001"><ele>773.0</ele><time>2026-05-01T13:23:48.001Z</time></trkpt><trkpt lat="39.95850691926871" lon="9.194149983554103"><ele>775.25</ele><time>2026-05-01T13:23:49.001Z</time></trkpt><trkpt lat="39.95859802552017" lon="9.19425022441086"><ele>777.5</ele><time>2026-05-01T13:23:50.001Z</time></trkpt><trkpt lat="39.95868482178223" lon="9.194349263015686"><ele>779.75</ele><time>2026-05-01T13:23:51.001Z</time></trkpt><trkpt lat="39.95877310852588" lon="9.194452991407362"><ele>782.0</ele><time>2026-05-01T13:23:52.001Z</time></trkpt><trkpt lat="39.95885887411053" lon="9.194556640614561"><ele>782.0</ele><time>2026-05-01T13:23:53.001Z</time></trkpt><trkpt lat="39.958939799324526" lon="9.194669461124155"><ele>782.0</ele><time>2026-05-01T13:23:54.001Z</time></trkpt><trkpt lat="39.959014635172416" lon="9.194787845053044"><ele>782.0</ele><time>2026-05-01T13:23:55.001Z</time></trkpt><trkpt lat="39.95908068290216" lon="9.194914448274197"><ele>782.0</ele><time>2026-05-01T13:23:56.001Z</time></trkpt><trkpt lat="39.9591445239553" lon="9.195042051082094"><ele>784.0</ele><time>2026-05-01T13:23:57.001Z</time></trkpt><trkpt lat="39.95920555525115" lon="9.195168511125125"><ele>786.0</ele><time>2026-05-01T13:23:58.001Z</time></trkpt><trkpt lat="39.9592743012693" lon="9.195285683586267"><ele>788.0</ele><time>2026-05-01T13:23:59.001Z</time></trkpt><trkpt lat="39.95935229296163" lon="9.195391694584712"><ele>790.0</ele><time>2026-05-01T13:24:00.001Z</time></trkpt><trkpt lat="39.95943090162793" lon="9.195497162096588"><ele>790.0</ele><time>2026-05-01T13:24:01.001Z</time></trkpt><trkpt lat="39.95950608554884" lon="9.195607033493548"><ele>790.0</ele><time>2026-05-01T13:24:02.001Z</time></trkpt><trkpt lat="39.95957788917328" lon="9.195718746011265"><ele>790.0</ele><time>2026-05-01T13:24:03.001Z</time></trkpt><trkpt lat="39.959640704992246" lon="9.19583594218749"><ele>790.0</ele><time>2026-05-01T13:24:04.001Z</time></trkpt><trkpt lat="39.95967966147476" lon="9.195968772272005"><ele>790.0</ele><time>2026-05-01T13:24:05.001Z</time></trkpt><trkpt lat="39.959691649806935" lon="9.196110737721042"><ele>789.2</ele><time>2026-05-01T13:24:06.001Z</time></trkpt><trkpt lat="39.95967800808056" lon="9.196248685756668"><ele>788.4</ele><time>2026-05-01T13:24:07.001Z</time></trkpt><trkpt lat="39.95964127858155" lon="9.196376413700394"><ele>787.5999999999999</ele><time>2026-05-01T13:24:08.001Z</time></trkpt><trkpt lat="39.95957509653805" lon="9.196477889029302"><ele>786.8</ele><time>2026-05-01T13:24:09.001Z</time></trkpt><trkpt lat="39.95952216753236" lon="9.196590562385454"><ele>786.0</ele><time>2026-05-01T13:24:10.001Z</time></trkpt><trkpt lat="39.95945473935877" lon="9.196688020630846"><ele>788.4</ele><time>2026-05-01T13:24:11.001Z</time></trkpt><trkpt lat="39.95939105160067" lon="9.196787802466897"><ele>790.8</ele><time>2026-05-01T13:24:12.001Z</time></trkpt><trkpt lat="39.95933066885738" lon="9.196888903597253"><ele>793.1999999999999</ele><time>2026-05-01T13:24:13.001Z</time></trkpt><trkpt lat="39.95927198624805" lon="9.19699007613574"><ele>795.5999999999999</ele><time>2026-05-01T13:24:14.001Z</time></trkpt><trkpt lat="39.95921327183037" lon="9.197092824092403"><ele>798.0</ele><time>2026-05-01T13:24:15.001Z</time></trkpt><trkpt lat="39.95915464316696" lon="9.197190295213579"><ele>796.3333333333334</ele><time>2026-05-01T13:24:16.001Z</time></trkpt><trkpt lat="39.95909856009173" lon="9.197278752433986"><ele>794.6666666666667</ele><time>2026-05-01T13:24:17.001Z</time></trkpt><trkpt lat="39.95903914568161" lon="9.197360006611765"><ele>793.0</ele><time>2026-05-01T13:24:18.001Z</time></trkpt><trkpt lat="39.958971579223196" lon="9.197426309297086"><ele>791.3333333333334</ele><time>2026-05-01T13:24:19.001Z</time></trkpt><trkpt lat="39.95889578781052" lon="9.197475525730171"><ele>789.6666666666667</ele><time>2026-05-01T13:24:20.001Z</time></trkpt><trkpt lat="39.95880909794425" lon="9.197494167654563"><ele>788.0</ele><time>2026-05-01T13:24:21.001Z</time></trkpt><trkpt lat="39.95871700220505" lon="9.197475464919108"><ele>788.0</ele><time>2026-05-01T13:24:22.001Z</time></trkpt><trkpt lat="39.95862868226566" lon="9.197420834374077"><ele>788.0</ele><time>2026-05-01T13:24:23.001Z</time></trkpt><trkpt lat="39.958544533859104" lon="9.197348000376712"><ele>788.0</ele><time>2026-05-01T13:24:24.001Z</time></trkpt><trkpt lat="39.95846996627297" lon="9.197256659526932"><ele>788.0</ele><time>2026-05-01T13:24:25.001Z</time></trkpt><trkpt lat="39.95839306739828" lon="9.197173252865351"><ele>788.0</ele><time>2026-05-01T13:24:26.001Z</time></trkpt><trkpt lat="39.958329270665494" lon="9.197071232048588"><ele>786.5999999999999</ele><time>2026-05-01T13:24:27.001Z</time></trkpt><trkpt lat="39.95825185798313" lon="9.196987537313953"><ele>785.1999999999999</ele><time>2026-05-01T13:24:28.001Z</time></trkpt><trkpt lat="39.95817535107707" lon="9.196906117017582"><ele>783.8</ele><time>2026-05-01T13:24:29.001Z</time></trkpt><trkpt lat="39.95809979332983" lon="9.196821059626688"><ele>782.4</ele><time>2026-05-01T13:24:30.001Z</time></trkpt><trkpt lat="39.95802436808635" lon="9.196733725134186"><ele>781.0</ele><time>2026-05-01T13:24:31.001Z</time></trkpt><trkpt lat="39.95794832360267" lon="9.196646857049364"><ele>781.0</ele><time>2026-05-01T13:24:32.001Z</time></trkpt><trkpt lat="39.95785505803211" lon="9.196585468967855"><ele>781.0</ele><time>2026-05-01T13:24:33.001Z</time></trkpt><trkpt lat="39.957769311495284" lon="9.196516529260427"><ele>781.0</ele><time>2026-05-01T13:24:34.001Z</time></trkpt><trkpt lat="39.9576745806511" lon="9.196475291111947"><ele>781.0</ele><time>2026-05-01T13:24:35.001Z</time></trkpt><trkpt lat="39.95757676409795" lon="9.196430319514057"><ele>781.0</ele><time>2026-05-01T13:24:36.001Z</time></trkpt><trkpt lat="39.95747054015067" lon="9.196422562362363"><ele>779.8</ele><time>2026-05-01T13:24:37.001Z</time></trkpt><trkpt lat="39.95736535386761" lon="9.196419123500009"><ele>778.5999999999999</ele><time>2026-05-01T13:24:38.001Z</time></trkpt><trkpt lat="39.95725987170998" lon="9.196415674977246"><ele>777.4</ele><time>2026-05-01T13:24:39.001Z</time></trkpt><trkpt lat="39.957159332889404" lon="9.196416251598407"><ele>776.2</ele><time>2026-05-01T13:24:40.001Z</time></trkpt><trkpt lat="39.95706456135866" lon="9.196433344397112"><ele>775.0</ele><time>2026-05-01T13:24:41.001Z</time></trkpt><trkpt lat="39.95697156585615" lon="9.196429768290233"><ele>774.9999999999999</ele><time>2026-05-01T13:24:42.001Z</time></trkpt><trkpt lat="39.95688368068495" lon="9.196401901506814"><ele>775.0</ele><time>2026-05-01T13:24:43.001Z</time></trkpt><trkpt lat="39.956801361383945" lon="9.196397487406031"><ele>775.0</ele><time>2026-05-01T13:24:44.001Z</time></trkpt><trkpt lat="39.95672788798833" lon="9.196398939001034"><ele>775.0</ele><time>2026-05-01T13:24:45.001Z</time></trkpt><trkpt lat="39.95666100314178" lon="9.196428289023892"><ele>774.9999999999999</ele><time>2026-05-01T13:24:46.001Z</time></trkpt><trkpt lat="39.956538770915856" lon="9.196440401104756"><ele>775.0</ele><time>2026-05-01T13:24:48.001Z</time></trkpt><trkpt lat="39.95646814554146" lon="9.196454486721034"><ele>776.2</ele><time>2026-05-01T13:24:49.001Z</time></trkpt><trkpt lat="39.956390605017106" lon="9.196467815115923"><ele>777.4</ele><time>2026-05-01T13:24:50.001Z</time></trkpt><trkpt lat="39.95630412052596" lon="9.196485499287467"><ele>778.5999999999999</ele><time>2026-05-01T13:24:51.001Z</time></trkpt><trkpt lat="39.95621329911742" lon="9.196513809948932"><ele>779.8</ele><time>2026-05-01T13:24:52.001Z</time></trkpt><trkpt lat="39.95612039680986" lon="9.196551721052115"><ele>781.0</ele><time>2026-05-01T13:24:53.001Z</time></trkpt><trkpt lat="39.95602513265886" lon="9.196594605530237"><ele>784.8</ele><time>2026-05-01T13:24:54.001Z</time></trkpt><trkpt lat="39.95593600362261" lon="9.196652628551952"><ele>788.5999999999999</ele><time>2026-05-01T13:24:55.001Z</time></trkpt><trkpt lat="39.955848341581756" lon="9.196711925074824"><ele>792.4</ele><time>2026-05-01T13:24:56.001Z</time></trkpt><trkpt lat="39.95576293699614" lon="9.19677318928467"><ele>796.2</ele><time>2026-05-01T13:24:57.001Z</time></trkpt><trkpt lat="39.95568026748008" lon="9.196828733058835"><ele>800.0</ele><time>2026-05-01T13:24:58.001Z</time></trkpt><trkpt lat="39.95559427841951" lon="9.196880434885832"><ele>800.0000000000001</ele><time>2026-05-01T13:24:59.001Z</time></trkpt><trkpt lat="39.955507218194015" lon="9.196921436497426"><ele>800.0</ele><time>2026-05-01T13:25:00.001Z</time></trkpt><trkpt lat="39.9554231205965" lon="9.196962990702414"><ele>800.0</ele><time>2026-05-01T13:25:01.001Z</time></trkpt><trkpt lat="39.9553412669641" lon="9.197006730422304"><ele>800.0</ele><time>2026-05-01T13:25:02.001Z</time></trkpt><trkpt lat="39.95526577235574" lon="9.197059317319095"><ele>800.0000000000001</ele><time>2026-05-01T13:25:03.001Z</time></trkpt><trkpt lat="39.955194162733314" lon="9.197118801844727"><ele>800.0</ele><time>2026-05-01T13:25:04.001Z</time></trkpt><trkpt lat="39.95512935664729" lon="9.1971843533287"><ele>800.0000000000001</ele><time>2026-05-01T13:25:05.001Z</time></trkpt><trkpt lat="39.95506791490038" lon="9.197253736672424"><ele>800.0</ele><time>2026-05-01T13:25:06.001Z</time></trkpt><trkpt lat="39.95500660340871" lon="9.197320623294049"><ele>800.0</ele><time>2026-05-01T13:25:07.001Z</time></trkpt><trkpt lat="39.95495794148857" lon="9.197401707689462"><ele>800.0</ele><time>2026-05-01T13:25:08.001Z</time></trkpt><trkpt lat="39.95490207630033" lon="9.197469197159883"><ele>800.0000000000001</ele><time>2026-05-01T13:25:09.001Z</time></trkpt><trkpt lat="39.95486031492532" lon="9.19754997995609"><ele>800.0</ele><time>2026-05-01T13:25:10.001Z</time></trkpt><trkpt lat="39.95481986587426" lon="9.19763597068767"><ele>802.0000000000001</ele><time>2026-05-01T13:25:11.001Z</time></trkpt><trkpt lat="39.95477676479052" lon="9.197731216750213"><ele>804.0</ele><time>2026-05-01T13:25:12.001Z</time></trkpt><trkpt lat="39.95474395683703" lon="9.197837955795345"><ele>806.0</ele><time>2026-05-01T13:25:13.001Z</time></trkpt><trkpt lat="39.95469896511995" lon="9.197941370220327"><ele>808.0</ele><time>2026-05-01T13:25:14.001Z</time></trkpt><trkpt lat="39.95465682907099" lon="9.198043155070028"><ele>810.0000000000001</ele><time>2026-05-01T13:25:15.001Z</time></trkpt><trkpt lat="39.95461373302717" lon="9.198144512991362"><ele>812.0</ele><time>2026-05-01T13:25:16.001Z</time></trkpt><trkpt lat="39.95455722361926" lon="9.198235514198545"><ele>812.1666666666667</ele><time>2026-05-01T13:25:17.001Z</time></trkpt><trkpt lat="39.95453071328771" lon="9.198342642782688"><ele>812.3333333333334</ele><time>2026-05-01T13:25:18.001Z</time></trkpt><trkpt lat="39.95448076629134" lon="9.198428422140399"><ele>812.5</ele><time>2026-05-01T13:25:19.001Z</time></trkpt><trkpt lat="39.954420242787236" lon="9.198494475057501"><ele>812.6666666666667</ele><time>2026-05-01T13:25:20.001Z</time></trkpt><trkpt lat="39.95435028708097" lon="9.198540054204287"><ele>812.8333333333334</ele><time>2026-05-01T13:25:21.001Z</time></trkpt><trkpt lat="39.9542695118915" lon="9.19856067763474"><ele>813.0</ele><time>2026-05-01T13:25:22.001Z</time></trkpt><trkpt lat="39.95419238459609" lon="9.198529286976562"><ele>813.0</ele><time>2026-05-01T13:25:23.001Z</time></trkpt><trkpt lat="39.954141817846924" lon="9.198458507389466"><ele>813.0</ele><time>2026-05-01T13:25:24.001Z</time></trkpt><trkpt lat="39.95412122273645" lon="9.198343197854484"><ele>813.0</ele><time>2026-05-01T13:25:25.001Z</time></trkpt><trkpt lat="39.95407088812425" lon="9.19824630557518"><ele>813.0</ele><time>2026-05-01T13:25:26.001Z</time></trkpt><trkpt lat="39.95401498241695" lon="9.198149911651326"><ele>813.0</ele><time>2026-05-01T13:25:27.001Z</time></trkpt><trkpt lat="39.95395054053112" lon="9.19805958051329"><ele>813.0</ele><time>2026-05-01T13:25:28.001Z</time></trkpt><trkpt lat="39.953879182855985" lon="9.197974770455744"><ele>810.8</ele><time>2026-05-01T13:25:29.001Z</time></trkpt><trkpt lat="39.95380460303791" lon="9.197885587449282"><ele>808.5999999999999</ele><time>2026-05-01T13:25:30.001Z</time></trkpt><trkpt lat="39.953728112357176" lon="9.197797749592377"><ele>806.4000000000001</ele><time>2026-05-01T13:25:31.001Z</time></trkpt><trkpt lat="39.95364242828427" lon="9.19771401147106"><ele>804.2</ele><time>2026-05-01T13:25:32.001Z</time></trkpt><trkpt lat="39.95356280715831" lon="9.197618285779196"><ele>802.0</ele><time>2026-05-01T13:25:33.001Z</time></trkpt><trkpt lat="39.953479879433445" lon="9.197524632035051"><ele>802.0</ele><time>2026-05-01T13:25:34.001Z</time></trkpt><trkpt lat="39.953406567678094" lon="9.19741622843374"><ele>802.0</ele><time>2026-05-01T13:25:35.001Z</time></trkpt><trkpt lat="39.95332068829801" lon="9.197321940043835"><ele>802.0</ele><time>2026-05-01T13:25:36.001Z</time></trkpt><trkpt lat="39.953230218276865" lon="9.197237016851872"><ele>802.0</ele><time>2026-05-01T13:25:37.001Z</time></trkpt><trkpt lat="39.953131231733046" lon="9.197162960200313"><ele>802.0</ele><time>2026-05-01T13:25:38.001Z</time></trkpt><trkpt lat="39.95303601970479" lon="9.19709856349006"><ele>801.8333333333333</ele><time>2026-05-01T13:25:39.001Z</time></trkpt><trkpt lat="39.95295289967369" lon="9.197038149406623"><ele>801.6666666666666</ele><time>2026-05-01T13:25:40.001Z</time></trkpt><trkpt lat="39.95293753721975" lon="9.196925270981943"><ele>801.5</ele><time>2026-05-01T13:25:41.001Z</time></trkpt><trkpt lat="39.952940534514546" lon="9.19682308929746"><ele>801.3333333333333</ele><time>2026-05-01T13:25:42.001Z</time></trkpt><trkpt lat="39.95294132316906" lon="9.19670769303589"><ele>801.1666666666666</ele><time>2026-05-01T13:25:43.001Z</time></trkpt><trkpt lat="39.95295405630106" lon="9.19659075423451"><ele>801.0</ele><time>2026-05-01T13:25:44.001Z</time></trkpt><trkpt lat="39.952965550822825" lon="9.196467130182747"><ele>801.0</ele><time>2026-05-01T13:25:45.001Z</time></trkpt><trkpt lat="39.95292921739261" lon="9.196347613268095"><ele>801.0</ele><time>2026-05-01T13:25:46.001Z</time></trkpt><trkpt lat="39.95289262295891" lon="9.196226366531501"><ele>801.0</ele><time>2026-05-01T13:25:47.001Z</time></trkpt><trkpt lat="39.9528500034771" lon="9.19610449627953"><ele>801.0</ele><time>2026-05-01T13:25:48.001Z</time></trkpt><trkpt lat="39.95281542776047" lon="9.195975911979453"><ele>801.0</ele><time>2026-05-01T13:25:49.001Z</time></trkpt><trkpt lat="39.952809047425205" lon="9.195840078861389"><ele>801.0</ele><time>2026-05-01T13:25:50.001Z</time></trkpt><trkpt lat="39.95286965063471" lon="9.195720638665449"><ele>801.0</ele><time>2026-05-01T13:25:51.001Z</time></trkpt><trkpt lat="39.952884558792114" lon="9.195583240109677"><ele>801.0</ele><time>2026-05-01T13:25:52.001Z</time></trkpt><trkpt lat="39.952883798104935" lon="9.195445788233567"><ele>801.0</ele><time>2026-05-01T13:25:53.001Z</time></trkpt><trkpt lat="39.95284440853654" lon="9.195313227749297"><ele>801.0</ele><time>2026-05-01T13:25:54.001Z</time></trkpt><trkpt lat="39.9527892448515" lon="9.195193951751362"><ele>800.25</ele><time>2026-05-01T13:25:55.001Z</time></trkpt><trkpt lat="39.95272178768441" lon="9.195075594290037"><ele>799.5</ele><time>2026-05-01T13:25:56.001Z</time></trkpt><trkpt lat="39.9526246906138" lon="9.194987157512314"><ele>798.75</ele><time>2026-05-01T13:25:57.001Z</time></trkpt><trkpt lat="39.95252466851233" lon="9.194916801516763"><ele>798.0</ele><time>2026-05-01T13:25:58.001Z</time></trkpt><trkpt lat="39.952412571196206" lon="9.194875597556976"><ele>801.75</ele><time>2026-05-01T13:25:59.001Z</time></trkpt><trkpt lat="39.95231972366259" lon="9.194789984442036"><ele>805.5</ele><time>2026-05-01T13:26:00.001Z</time></trkpt><trkpt lat="39.952259407906844" lon="9.19466584321209"><ele>809.25</ele><time>2026-05-01T13:26:01.001Z</time></trkpt><trkpt lat="39.952270722205824" lon="9.19451723818381"><ele>813.0</ele><time>2026-05-01T13:26:02.001Z</time></trkpt><trkpt lat="39.95227168456815" lon="9.194365808180812"><ele>813.0</ele><time>2026-05-01T13:26:03.001Z</time></trkpt><trkpt lat="39.952282947546365" lon="9.19421773874109"><ele>813.0</ele><time>2026-05-01T13:26:04.001Z</time></trkpt><trkpt lat="39.95226542007172" lon="9.194062877397913"><ele>813.0</ele><time>2026-05-01T13:26:05.001Z</time></trkpt><trkpt lat="39.9522581884753" lon="9.193903447125024"><ele>813.0</ele><time>2026-05-01T13:26:06.001Z</time></trkpt><trkpt lat="39.95223345893924" lon="9.193747542259896"><ele>812.75</ele><time>2026-05-01T13:26:07.001Z</time></trkpt><trkpt lat="39.952211491397954" lon="9.193589127102111"><ele>812.5</ele><time>2026-05-01T13:26:08.001Z</time></trkpt><trkpt lat="39.95218483900101" lon="9.193433874688449"><ele>812.25</ele><time>2026-05-01T13:26:09.001Z</time></trkpt><trkpt lat="39.952191340128905" lon="9.193270560549156"><ele>812.0</ele><time>2026-05-01T13:26:10.001Z</time></trkpt><trkpt lat="39.952185641688985" lon="9.193110315907449"><ele>811.4000000000001</ele><time>2026-05-01T13:26:11.001Z</time></trkpt><trkpt lat="39.95215982193217" lon="9.192960475434216"><ele>810.8000000000001</ele><time>2026-05-01T13:26:12.001Z</time></trkpt><trkpt lat="39.95210782144677" lon="9.192829511793793"><ele>810.2</ele><time>2026-05-01T13:26:13.001Z</time></trkpt><trkpt lat="39.95203680630704" lon="9.192722984935038"><ele>809.6</ele><time>2026-05-01T13:26:14.001Z</time></trkpt><trkpt lat="39.95196330221442" lon="9.192617631534945"><ele>809.0</ele><time>2026-05-01T13:26:15.001Z</time></trkpt><trkpt lat="39.95189975458205" lon="9.19250078543252"><ele>809.0</ele><time>2026-05-01T13:26:16.001Z</time></trkpt><trkpt lat="39.951846646208644" lon="9.192364706691256"><ele>809.0</ele><time>2026-05-01T13:26:17.001Z</time></trkpt><trkpt lat="39.95179403195911" lon="9.192232510642881"><ele>809.0</ele><time>2026-05-01T13:26:18.001Z</time></trkpt><trkpt lat="39.951728114973896" lon="9.192110983173741"><ele>809.0</ele><time>2026-05-01T13:26:19.001Z</time></trkpt><trkpt lat="39.95164163624886" lon="9.19200989799884"><ele>812.5</ele><time>2026-05-01T13:26:20.001Z</time></trkpt><trkpt lat="39.951546466784556" lon="9.191920826716668"><ele>816.0</ele><time>2026-05-01T13:26:21.001Z</time></trkpt><trkpt lat="39.9514489947532" lon="9.191838826115678"><ele>819.5</ele><time>2026-05-01T13:26:22.001Z</time></trkpt><trkpt lat="39.95136288864623" lon="9.191736062287859"><ele>823.0</ele><time>2026-05-01T13:26:23.001Z</time></trkpt><trkpt lat="39.95127164153223" lon="9.191644527489442"><ele>823.0</ele><time>2026-05-01T13:26:24.001Z</time></trkpt><trkpt lat="39.95117188530185" lon="9.191567017548778"><ele>823.0</ele><time>2026-05-01T13:26:25.001Z</time></trkpt><trkpt lat="39.95108369046174" lon="9.191468724014571"><ele>823.0</ele><time>2026-05-01T13:26:26.001Z</time></trkpt><trkpt lat="39.951007078567166" lon="9.191355147640925"><ele>823.0</ele><time>2026-05-01T13:26:27.001Z</time></trkpt><trkpt lat="39.950908255032026" lon="9.191276071777418"><ele>824.4</ele><time>2026-05-01T13:26:28.001Z</time></trkpt><trkpt lat="39.950832421864526" lon="9.19116511851636"><ele>825.8</ele><time>2026-05-01T13:26:29.001Z</time></trkpt><trkpt lat="39.95074627546047" lon="9.191069386147145"><ele>827.2</ele><time>2026-05-01T13:26:30.001Z</time></trkpt><trkpt lat="39.950668380043055" lon="9.190970987384153"><ele>828.6</ele><time>2026-05-01T13:26:31.001Z</time></trkpt><trkpt lat="39.95058686565175" lon="9.190868333716066"><ele>830.0</ele><time>2026-05-01T13:26:32.001Z</time></trkpt><trkpt lat="39.95053177589152" lon="9.19073317916832"><ele>827.0</ele><time>2026-05-01T13:26:33.001Z</time></trkpt><trkpt lat="39.95048055770469" lon="9.19059245288792"><ele>824.0</ele><time>2026-05-01T13:26:34.001Z</time></trkpt><trkpt lat="39.95042500023781" lon="9.190454439502286"><ele>821.0</ele><time>2026-05-01T13:26:35.001Z</time></trkpt><trkpt lat="39.95034286241567" lon="9.190337047288272"><ele>818.0</ele><time>2026-05-01T13:26:36.001Z</time></trkpt><trkpt lat="39.950233126762924" lon="9.190252748588788"><ele>818.0</ele><time>2026-05-01T13:26:37.001Z</time></trkpt><trkpt lat="39.950124803751486" lon="9.190151711560931"><ele>818.0</ele><time>2026-05-01T13:26:38.001Z</time></trkpt><trkpt lat="39.95000344558571" lon="9.190069733983961"><ele>818.0</ele><time>2026-05-01T13:26:39.001Z</time></trkpt><trkpt lat="39.94991568533549" lon="9.189930227509455"><ele>818.0</ele><time>2026-05-01T13:26:40.001Z</time></trkpt><trkpt lat="39.9498058415673" lon="9.189810630821068"><ele>820.75</ele><time>2026-05-01T13:26:41.001Z</time></trkpt><trkpt lat="39.94970607246453" lon="9.189669663474714"><ele>823.5</ele><time>2026-05-01T13:26:42.001Z</time></trkpt><trkpt lat="39.94961953097073" lon="9.189510100170471"><ele>826.25</ele><time>2026-05-01T13:26:43.001Z</time></trkpt><trkpt lat="39.94952449149012" lon="9.189361149089672"><ele>829.0</ele><time>2026-05-01T13:26:44.001Z</time></trkpt><trkpt lat="39.94943378952296" lon="9.189212349693275"><ele>829.0</ele><time>2026-05-01T13:26:45.001Z</time></trkpt><trkpt lat="39.949382301471026" lon="9.18903251600613"><ele>829.0</ele><time>2026-05-01T13:26:46.001Z</time></trkpt><trkpt lat="39.94935197476751" lon="9.188842567935806"><ele>829.0</ele><time>2026-05-01T13:26:47.001Z</time></trkpt><trkpt lat="39.94932569211651" lon="9.18865393568935"><ele>829.0</ele><time>2026-05-01T13:26:48.001Z</time></trkpt><trkpt lat="39.94929558815065" lon="9.188462723363555"><ele>830.75</ele><time>2026-05-01T13:26:49.001Z</time></trkpt><trkpt lat="39.94920713355868" lon="9.188302173819412"><ele>832.5</ele><time>2026-05-01T13:26:50.001Z</time></trkpt><trkpt lat="39.949145350862196" lon="9.188126791093682"><ele>834.25</ele><time>2026-05-01T13:26:51.001Z</time></trkpt><trkpt lat="39.94908036748768" lon="9.187955268249837"><ele>836.0</ele><time>2026-05-01T13:26:52.001Z</time></trkpt><trkpt lat="39.94901561039925" lon="9.187781522518442"><ele>836.0</ele><time>2026-05-01T13:26:53.001Z</time></trkpt><trkpt lat="39.948921147956725" lon="9.187631027889417"><ele>836.0</ele><time>2026-05-01T13:26:54.001Z</time></trkpt><trkpt lat="39.948799848139565" lon="9.187505461842418"><ele>836.0</ele><time>2026-05-01T13:26:55.001Z</time></trkpt><trkpt lat="39.94868092751985" lon="9.187389446674327"><ele>836.75</ele><time>2026-05-01T13:26:56.001Z</time></trkpt><trkpt lat="39.94855702761265" lon="9.187280902621808"><ele>837.5</ele><time>2026-05-01T13:26:57.001Z</time></trkpt><trkpt lat="39.948427928254404" lon="9.18718057552883"><ele>838.25</ele><time>2026-05-01T13:26:58.001Z</time></trkpt><trkpt lat="39.94829992896043" lon="9.18708710080595"><ele>839.0</ele><time>2026-05-01T13:26:59.001Z</time></trkpt><trkpt lat="39.94816581614777" lon="9.187000454981964"><ele>839.0</ele><time>2026-05-01T13:27:00.001Z</time></trkpt><trkpt lat="39.94803520483844" lon="9.186916276087937"><ele>839.0</ele><time>2026-05-01T13:27:01.001Z</time></trkpt><trkpt lat="39.94791415816482" lon="9.186821275088363"><ele>839.0</ele><time>2026-05-01T13:27:02.001Z</time></trkpt><trkpt lat="39.94780216910107" lon="9.186705304176034"><ele>839.0</ele><time>2026-05-01T13:27:03.001Z</time></trkpt><trkpt lat="39.94771041745582" lon="9.186572080362893"><ele>836.25</ele><time>2026-05-01T13:27:04.001Z</time></trkpt><trkpt lat="39.94768116980206" lon="9.186419258726565"><ele>833.5</ele><time>2026-05-01T13:27:05.001Z</time></trkpt><trkpt lat="39.94767628623065" lon="9.186264687030398"><ele>830.75</ele><time>2026-05-01T13:27:06.001Z</time></trkpt><trkpt lat="39.947708678541176" lon="9.1861032446509"><ele>828.0</ele><time>2026-05-01T13:27:07.001Z</time></trkpt><trkpt lat="39.94768697952853" lon="9.185950225534864"><ele>833.0</ele><time>2026-05-01T13:27:08.001Z</time></trkpt><trkpt lat="39.94746044257034" lon="9.185914512437684"><ele>838.0</ele><time>2026-05-01T13:27:09.001Z</time></trkpt><trkpt lat="39.94733240907478" lon="9.185953364694557"><ele>843.0</ele><time>2026-05-01T13:27:10.001Z</time></trkpt><trkpt lat="39.94720231333126" lon="9.185974231496376"><ele>843.0</ele><time>2026-05-01T13:27:11.001Z</time></trkpt><trkpt lat="39.94707796834629" lon="9.18603157890039"><ele>843.0</ele><time>2026-05-01T13:27:12.001Z</time></trkpt><trkpt lat="39.94695591594353" lon="9.18610156386318"><ele>843.0</ele><time>2026-05-01T13:27:13.001Z</time></trkpt><trkpt lat="39.94682832165067" lon="9.186154432247319"><ele>843.0</ele><time>2026-05-01T13:27:14.001Z</time></trkpt><trkpt lat="39.946698386015086" lon="9.186167257008325"><ele>843.75</ele><time>2026-05-01T13:27:15.001Z</time></trkpt><trkpt lat="39.94657095946883" lon="9.186111958433264"><ele>844.5</ele><time>2026-05-01T13:27:16.001Z</time></trkpt><trkpt lat="39.94646692285155" lon="9.186016623345317"><ele>845.25</ele><time>2026-05-01T13:27:17.001Z</time></trkpt><trkpt lat="39.946354772163915" lon="9.185913246386418"><ele>846.0</ele><time>2026-05-01T13:27:18.001Z</time></trkpt><trkpt lat="39.94622533036932" lon="9.185866716925554"><ele>846.0</ele><time>2026-05-01T13:27:19.001Z</time></trkpt><trkpt lat="39.94608982138473" lon="9.185849875531504"><ele>846.0</ele><time>2026-05-01T13:27:20.001Z</time></trkpt><trkpt lat="39.945952945655726" lon="9.185849036838514"><ele>846.0</ele><time>2026-05-01T13:27:21.001Z</time></trkpt><trkpt lat="39.945822701696414" lon="9.185847023494821"><ele>846.0</ele><time>2026-05-01T13:27:22.001Z</time></trkpt><trkpt lat="39.94569933975461" lon="9.18579556230715"><ele>845.5</ele><time>2026-05-01T13:27:23.001Z</time></trkpt><trkpt lat="39.945594759193256" lon="9.18569605550343"><ele>845.0</ele><time>2026-05-01T13:27:24.001Z</time></trkpt><trkpt lat="39.94551136980713" lon="9.185563778103486"><ele>844.5</ele><time>2026-05-01T13:27:25.001Z</time></trkpt><trkpt lat="39.94543835595167" lon="9.185414760807918"><ele>844.0</ele><time>2026-05-01T13:27:26.001Z</time></trkpt><trkpt lat="39.94535956658175" lon="9.185267233031405"><ele>844.0</ele><time>2026-05-01T13:27:27.001Z</time></trkpt><trkpt lat="39.94525686620821" lon="9.185135535581058"><ele>844.0</ele><time>2026-05-01T13:27:28Z</time></trkpt><trkpt lat="39.945135672785305" lon="9.185030798043938"><ele>844.0</ele><time>2026-05-01T13:27:29.001Z</time></trkpt><trkpt lat="39.944998293040285" lon="9.184953322320633"><ele>844.0</ele><time>2026-05-01T13:27:30.001Z</time></trkpt><trkpt lat="39.944865176948376" lon="9.184884504840564"><ele>844.5</ele><time>2026-05-01T13:27:31.001Z</time></trkpt><trkpt lat="39.94472905933941" lon="9.184814135623572"><ele>845.0</ele><time>2026-05-01T13:27:32Z</time></trkpt><trkpt lat="39.94459442691693" lon="9.1847426293208"><ele>845.5</ele><time>2026-05-01T13:27:33.001Z</time></trkpt><trkpt lat="39.94446853872945" lon="9.184661429391925"><ele>846.0</ele><time>2026-05-01T13:27:34.001Z</time></trkpt><trkpt lat="39.94436016435701" lon="9.184551256006655"><ele>846.0</ele><time>2026-05-01T13:27:35.001Z</time></trkpt><trkpt lat="39.9442692553667" lon="9.184413104134274"><ele>846.0</ele><time>2026-05-01T13:27:36Z</time></trkpt><trkpt lat="39.944215503860654" lon="9.18424752584349"><ele>846.0</ele><time>2026-05-01T13:27:37.001Z</time></trkpt><trkpt lat="39.94417071633533" lon="9.184069063152553"><ele>846.0</ele><time>2026-05-01T13:27:38.001Z</time></trkpt><trkpt lat="39.9441272139778" lon="9.183893613330474"><ele>848.0</ele><time>2026-05-01T13:27:39.001Z</time></trkpt><trkpt lat="39.94408468040086" lon="9.183714610035832"><ele>850.0</ele><time>2026-05-01T13:27:40.001Z</time></trkpt><trkpt lat="39.944044736205896" lon="9.183531704237854"><ele>852.0</ele><time>2026-05-01T13:27:41.001Z</time></trkpt><trkpt lat="39.94400979332258" lon="9.183346699492366"><ele>854.0</ele><time>2026-05-01T13:27:42.001Z</time></trkpt><trkpt lat="39.943992552048975" lon="9.183161071160221"><ele>854.0</ele><time>2026-05-01T13:27:43.001Z</time></trkpt><trkpt lat="39.94401436808174" lon="9.182968239425259"><ele>854.0</ele><time>2026-05-01T13:27:44.001Z</time></trkpt><trkpt lat="39.94403738122335" lon="9.18278455430491"><ele>854.0</ele><time>2026-05-01T13:27:45.001Z</time></trkpt><trkpt lat="39.94402580980986" lon="9.182603991443006"><ele>854.0</ele><time>2026-05-01T13:27:46.001Z</time></trkpt><trkpt lat="39.94396832531373" lon="9.182431418663537"><ele>851.25</ele><time>2026-05-01T13:27:47.001Z</time></trkpt><trkpt lat="39.943881441212405" lon="9.18227479389418"><ele>848.5</ele><time>2026-05-01T13:27:48.001Z</time></trkpt><trkpt lat="39.943777877318006" lon="9.182135534764972"><ele>845.75</ele><time>2026-05-01T13:27:49.001Z</time></trkpt><trkpt lat="39.94366570022054" lon="9.182007312046355"><ele>843.0</ele><time>2026-05-01T13:27:50.001Z</time></trkpt><trkpt lat="39.943555924783595" lon="9.181881699422444"><ele>843.0</ele><time>2026-05-01T13:27:51.001Z</time></trkpt><trkpt lat="39.94345073930301" lon="9.181759932996208"><ele>843.0</ele><time>2026-05-01T13:27:52.001Z</time></trkpt><trkpt lat="39.94335127862117" lon="9.181643093541785"><ele>843.0</ele><time>2026-05-01T13:27:53.001Z</time></trkpt><trkpt lat="39.94326974626828" lon="9.181515568482945"><ele>843.0</ele><time>2026-05-01T13:27:54.001Z</time></trkpt><trkpt lat="39.94316856504057" lon="9.181417618368306"><ele>846.0</ele><time>2026-05-01T13:27:55.001Z</time></trkpt><trkpt lat="39.94308074642875" lon="9.18130065004919"><ele>849.0</ele><time>2026-05-01T13:27:56.001Z</time></trkpt><trkpt lat="39.943005224994515" lon="9.181168802659494"><ele>852.0</ele><time>2026-05-01T13:27:57.001Z</time></trkpt><trkpt lat="39.94295563824591" lon="9.18101406523599"><ele>855.0</ele><time>2026-05-01T13:27:58.001Z</time></trkpt><trkpt lat="39.94292700707409" lon="9.180847333698786"><ele>853.75</ele><time>2026-05-01T13:27:59.001Z</time></trkpt><trkpt lat="39.94289978105764" lon="9.180678145309301"><ele>852.5</ele><time>2026-05-01T13:28:00.001Z</time></trkpt><trkpt lat="39.94286859586025" lon="9.18050741211975"><ele>851.25</ele><time>2026-05-01T13:28:01.001Z</time></trkpt><trkpt lat="39.942834860368755" lon="9.180333980166989"><ele>850.0</ele><time>2026-05-01T13:28:02.001Z</time></trkpt><trkpt lat="39.94279671364601" lon="9.180160159631125"><ele>850.0</ele><time>2026-05-01T13:28:03.001Z</time></trkpt><trkpt lat="39.94275765682704" lon="9.179983748519108"><ele>850.0</ele><time>2026-05-01T13:28:04.001Z</time></trkpt><trkpt lat="39.94271798715639" lon="9.179803663934289"><ele>850.0</ele><time>2026-05-01T13:28:05.001Z</time></trkpt><trkpt lat="39.942676976898575" lon="9.179622665790696"><ele>850.0</ele><time>2026-05-01T13:28:06.001Z</time></trkpt><trkpt lat="39.942635272007344" lon="9.179439803012345"><ele>850.0</ele><time>2026-05-01T13:28:07.001Z</time></trkpt><trkpt lat="39.9426050728896" lon="9.179251268313006"><ele>850.0</ele><time>2026-05-01T13:28:08.001Z</time></trkpt><trkpt lat="39.94259883684421" lon="9.179056758801522"><ele>850.0</ele><time>2026-05-01T13:28:09.001Z</time></trkpt><trkpt lat="39.94261683943623" lon="9.178863995774543"><ele>850.0</ele><time>2026-05-01T13:28:10.001Z</time></trkpt><trkpt lat="39.94264958964356" lon="9.17867888949819"><ele>850.25</ele><time>2026-05-01T13:28:11.001Z</time></trkpt><trkpt lat="39.94269430167312" lon="9.178498367735653"><ele>850.5</ele><time>2026-05-01T13:28:12.001Z</time></trkpt><trkpt lat="39.94274326393626" lon="9.178326827918212"><ele>850.75</ele><time>2026-05-01T13:28:13.001Z</time></trkpt><trkpt lat="39.9428195252149" lon="9.178168017062266"><ele>851.0</ele><time>2026-05-01T13:28:14.001Z</time></trkpt><trkpt lat="39.94284659598794" lon="9.177970566014453"><ele>851.3333333333334</ele><time>2026-05-01T13:28:15.001Z</time></trkpt><trkpt lat="39.94283558533815" lon="9.177770151646653"><ele>851.6666666666667</ele><time>2026-05-01T13:28:16.001Z</time></trkpt><trkpt lat="39.942802501790055" lon="9.177575747666692"><ele>852.0</ele><time>2026-05-01T13:28:17.001Z</time></trkpt><trkpt lat="39.94275691486151" lon="9.177378928389205"><ele>851.0</ele><time>2026-05-01T13:28:18.001Z</time></trkpt><trkpt lat="39.942699098897776" lon="9.177183938704387"><ele>850.0</ele><time>2026-05-01T13:28:19.001Z</time></trkpt><trkpt lat="39.94261524118035" lon="9.176996039094444"><ele>849.0</ele><time>2026-05-01T13:28:20.001Z</time></trkpt><trkpt lat="39.94253329197848" lon="9.176843515116543"><ele>858.3333333333333</ele><time>2026-05-01T13:28:21.001Z</time></trkpt><trkpt lat="39.94246747455333" lon="9.17667234898597"><ele>867.6666666666666</ele><time>2026-05-01T13:28:22.001Z</time></trkpt><trkpt lat="39.9424209303039" lon="9.176486738697154"><ele>877.0</ele><time>2026-05-01T13:28:23.001Z</time></trkpt><trkpt lat="39.9423772941216" lon="9.176291142950179"><ele>877.0</ele><time>2026-05-01T13:28:24.001Z</time></trkpt><trkpt lat="39.94233170146182" lon="9.176094554723994"><ele>877.0</ele><time>2026-05-01T13:28:25.001Z</time></trkpt><trkpt lat="39.942286566410324" lon="9.175899939765449"><ele>877.0</ele><time>2026-05-01T13:28:26.001Z</time></trkpt><trkpt lat="39.9422424196183" lon="9.1757023097557"><ele>878.6666666666666</ele><time>2026-05-01T13:28:27.001Z</time></trkpt><trkpt lat="39.94220334032617" lon="9.175505085739493"><ele>880.3333333333333</ele><time>2026-05-01T13:28:28.001Z</time></trkpt><trkpt lat="39.9421704454012" lon="9.175306261402087"><ele>882.0</ele><time>2026-05-01T13:28:29.001Z</time></trkpt><trkpt lat="39.94218037622647" lon="9.175098713722962"><ele>882.0</ele><time>2026-05-01T13:28:30.001Z</time></trkpt><trkpt lat="39.94221470869369" lon="9.174896785596806"><ele>882.0</ele><time>2026-05-01T13:28:31.001Z</time></trkpt><trkpt lat="39.94227373496998" lon="9.174701627783506"><ele>882.0</ele><time>2026-05-01T13:28:32.001Z</time></trkpt><trkpt lat="39.94234088366032" lon="9.174514937854092"><ele>886.6666666666667</ele><time>2026-05-01T13:28:33.001Z</time></trkpt><trkpt lat="39.94240596113174" lon="9.174327255879113"><ele>891.3333333333334</ele><time>2026-05-01T13:28:34.001Z</time></trkpt><trkpt lat="39.942474906283095" lon="9.174146657337399"><ele>896.0</ele><time>2026-05-01T13:28:35.001Z</time></trkpt><trkpt lat="39.94256731000653" lon="9.173998042580568"><ele>898.3333333333334</ele><time>2026-05-01T13:28:36.001Z</time></trkpt><trkpt lat="39.94269467382527" lon="9.173886150349627"><ele>900.6666666666667</ele><time>2026-05-01T13:28:37.001Z</time></trkpt><trkpt lat="39.942836848391835" lon="9.173803117908951"><ele>903.0</ele><time>2026-05-01T13:28:38.001Z</time></trkpt><trkpt lat="39.942982493065166" lon="9.173725386576526"><ele>903.0</ele><time>2026-05-01T13:28:39.001Z</time></trkpt><trkpt lat="39.94313275009969" lon="9.17364522558621"><ele>903.0</ele><time>2026-05-01T13:28:40.001Z</time></trkpt><trkpt lat="39.943280773692514" lon="9.173555380678359"><ele>903.0</ele><time>2026-05-01T13:28:41.001Z</time></trkpt><trkpt lat="39.94342577591185" lon="9.173455731958885"><ele>897.3333333333333</ele><time>2026-05-01T13:28:42.001Z</time></trkpt><trkpt lat="39.94357610715309" lon="9.173363199861223"><ele>891.6666666666666</ele><time>2026-05-01T13:28:43.001Z</time></trkpt><trkpt lat="39.94370408824581" lon="9.173243243545878"><ele>886.0</ele><time>2026-05-01T13:28:44.001Z</time></trkpt><trkpt lat="39.94381217971303" lon="9.173112462523088"><ele>886.0</ele><time>2026-05-01T13:28:45.001Z</time></trkpt><trkpt lat="39.94387803625241" lon="9.17293369114531"><ele>886.0</ele><time>2026-05-01T13:28:46.001Z</time></trkpt><trkpt lat="39.94386240003578" lon="9.17271085424753"><ele>886.0</ele><time>2026-05-01T13:28:47.001Z</time></trkpt><trkpt lat="39.94382848146647" lon="9.172506132511884"><ele>883.3333333333333</ele><time>2026-05-01T13:28:48.001Z</time></trkpt><trkpt lat="39.94377316641024" lon="9.172291649129429"><ele>880.6666666666667</ele><time>2026-05-01T13:28:49.001Z</time></trkpt><trkpt lat="39.94369194836107" lon="9.172084873650828"><ele>878.0</ele><time>2026-05-01T13:28:50.001Z</time></trkpt><trkpt lat="39.94359593897308" lon="9.17188926458264"><ele>878.0</ele><time>2026-05-01T13:28:51.001Z</time></trkpt><trkpt lat="39.9434876769043" lon="9.171706634847684"><ele>878.0</ele><time>2026-05-01T13:28:52.001Z</time></trkpt><trkpt lat="39.94338358490143" lon="9.171523904379304"><ele>878.0</ele><time>2026-05-01T13:28:53.001Z</time></trkpt><trkpt lat="39.943282670414725" lon="9.1713411880384"><ele>887.0</ele><time>2026-05-01T13:28:54.001Z</time></trkpt><trkpt lat="39.94318351049649" lon="9.171158607223326"><ele>896.0</ele><time>2026-05-01T13:28:55.001Z</time></trkpt><trkpt lat="39.94308629246828" lon="9.170977367143422"><ele>905.0</ele><time>2026-05-01T13:28:56.001Z</time></trkpt><trkpt lat="39.94299334536091" lon="9.170796300626419"><ele>906.3333333333334</ele><time>2026-05-01T13:28:57.001Z</time></trkpt><trkpt lat="39.94290738073624" lon="9.170612161300612"><ele>907.6666666666667</ele><time>2026-05-01T13:28:58.001Z</time></trkpt><trkpt lat="39.942824589787605" lon="9.170421985927584"><ele>909.0</ele><time>2026-05-01T13:28:59.001Z</time></trkpt><trkpt lat="39.942755834550525" lon="9.17022867155139"><ele>909.0</ele><time>2026-05-01T13:29:00.001Z</time></trkpt><trkpt lat="39.94270500698257" lon="9.170023706006603"><ele>909.0</ele><time>2026-05-01T13:29:01.001Z</time></trkpt><trkpt lat="39.942663527734744" lon="9.169810217549916"><ele>909.0</ele><time>2026-05-01T13:29:02.001Z</time></trkpt><trkpt lat="39.94260770263702" lon="9.1695994231458"><ele>910.3333333333333</ele><time>2026-05-01T13:29:03.001Z</time></trkpt><trkpt lat="39.94258123988912" lon="9.16938122752307"><ele>911.6666666666666</ele><time>2026-05-01T13:29:04.001Z</time></trkpt><trkpt lat="39.942531351771756" lon="9.169170315513005"><ele>913.0</ele><time>2026-05-01T13:29:05Z</time></trkpt><trkpt lat="39.94247428750892" lon="9.168960186946714"><ele>917.3333333333333</ele><time>2026-05-01T13:29:06Z</time></trkpt><trkpt lat="39.942395914118386" lon="9.168761245709867"><ele>921.6666666666667</ele><time>2026-05-01T13:29:07Z</time></trkpt><trkpt lat="39.9423362620419" lon="9.168556762272123"><ele>926.0</ele><time>2026-05-01T13:29:08Z</time></trkpt><trkpt lat="39.942281462785395" lon="9.16835227990818"><ele>930.0</ele><time>2026-05-01T13:29:09Z</time></trkpt><trkpt lat="39.942230359661785" lon="9.168143578320846"><ele>934.0</ele><time>2026-05-01T13:29:10Z</time></trkpt><trkpt lat="39.94218179076916" lon="9.167936694817504"><ele>938.0</ele><time>2026-05-01T13:29:11Z</time></trkpt><trkpt lat="39.9421286070669" lon="9.167733454818507"><ele>938.0</ele><time>2026-05-01T13:29:12Z</time></trkpt><trkpt lat="39.94206111771696" lon="9.16753479455002"><ele>938.0</ele><time>2026-05-01T13:29:13Z</time></trkpt><trkpt lat="39.941980866463695" lon="9.167343235735366"><ele>938.0</ele><time>2026-05-01T13:29:14Z</time></trkpt><trkpt lat="39.941906346505725" lon="9.167152714248186"><ele>936.0</ele><time>2026-05-01T13:29:15Z</time></trkpt><trkpt lat="39.941837425486284" lon="9.166962138473924"><ele>934.0</ele><time>2026-05-01T13:29:16Z</time></trkpt><trkpt lat="39.94177038482017" lon="9.166795526039254"><ele>932.0</ele><time>2026-05-01T13:29:17Z</time></trkpt><trkpt lat="39.94167720611835" lon="9.16667412294473"><ele>930.0</ele><time>2026-05-01T13:29:18Z</time></trkpt><trkpt lat="39.94155773052098" lon="9.166614612301478"><ele>930.0</ele><time>2026-05-01T13:29:19Z</time></trkpt><trkpt lat="39.941414499749605" lon="9.166617377573841"><ele>930.0</ele><time>2026-05-01T13:29:20Z</time></trkpt><trkpt lat="39.94127652842186" lon="9.166636006876951"><ele>930.0</ele><time>2026-05-01T13:29:21Z</time></trkpt><trkpt lat="39.94113126451752" lon="9.16666206060133"><ele>930.0</ele><time>2026-05-01T13:29:22Z</time></trkpt><trkpt lat="39.94098393982379" lon="9.166701578618143"><ele>930.6666666666667</ele><time>2026-05-01T13:29:23Z</time></trkpt><trkpt lat="39.94083902135368" lon="9.16677143875651"><ele>931.3333333333334</ele><time>2026-05-01T13:29:24Z</time></trkpt><trkpt lat="39.94069463042959" lon="9.166852543961634"><ele>932.0</ele><time>2026-05-01T13:29:25Z</time></trkpt><trkpt lat="39.940547736188336" lon="9.16692618380303"><ele>932.0</ele><time>2026-05-01T13:29:26Z</time></trkpt><trkpt lat="39.94040582302056" lon="9.167010398259155"><ele>932.0</ele><time>2026-05-01T13:29:27Z</time></trkpt><trkpt lat="39.94028260036378" lon="9.167129435881005"><ele>932.0</ele><time>2026-05-01T13:29:28Z</time></trkpt><trkpt lat="39.94018691877071" lon="9.167278391047232"><ele>931.5</ele><time>2026-05-01T13:29:29Z</time></trkpt><trkpt lat="39.940094027330815" lon="9.167424348530055"><ele>931.0</ele><time>2026-05-01T13:29:30Z</time></trkpt><trkpt lat="39.93999839266783" lon="9.167549118147448"><ele>930.5</ele><time>2026-05-01T13:29:31Z</time></trkpt><trkpt lat="39.93989526761556" lon="9.167634110297072"><ele>930.0</ele><time>2026-05-01T13:29:32Z</time></trkpt><trkpt lat="39.93978508164033" lon="9.167649218695136"><ele>930.0</ele><time>2026-05-01T13:29:33Z</time></trkpt><trkpt lat="39.93968098043901" lon="9.167574901327132"><ele>930.0</ele><time>2026-05-01T13:29:34Z</time></trkpt><trkpt lat="39.93956322061915" lon="9.167525323718131"><ele>930.0</ele><time>2026-05-01T13:29:35Z</time></trkpt><trkpt lat="39.939447200533095" lon="9.1674599051666"><ele>930.0</ele><time>2026-05-01T13:29:36Z</time></trkpt><trkpt lat="39.939327471067266" lon="9.167387531264524"><ele>935.25</ele><time>2026-05-01T13:29:37Z</time></trkpt><trkpt lat="39.93921523015931" lon="9.167284433515636"><ele>940.5</ele><time>2026-05-01T13:29:38Z</time></trkpt><trkpt lat="39.93909473346259" lon="9.167188299239418"><ele>945.75</ele><time>2026-05-01T13:29:39Z</time></trkpt><trkpt lat="39.93896518198739" lon="9.167108247858343"><ele>951.0</ele><time>2026-05-01T13:29:40Z</time></trkpt><trkpt lat="39.93884243319011" lon="9.166996549777098"><ele>951.0</ele><time>2026-05-01T13:29:41.001Z</time></trkpt><trkpt lat="39.93871540855018" lon="9.166893184839223"><ele>951.0</ele><time>2026-05-01T13:29:42.001Z</time></trkpt><trkpt lat="39.93858068610221" lon="9.166800624673632"><ele>951.0</ele><time>2026-05-01T13:29:43.001Z</time></trkpt><trkpt lat="39.938435291501804" lon="9.166730510580136"><ele>948.3333333333333</ele><time>2026-05-01T13:29:44.001Z</time></trkpt><trkpt lat="39.938281600282664" lon="9.166689899659904"><ele>945.6666666666666</ele><time>2026-05-01T13:29:45.001Z</time></trkpt><trkpt lat="39.938122964021886" lon="9.166667172464157"><ele>943.0</ele><time>2026-05-01T13:29:46.001Z</time></trkpt><trkpt lat="39.93796692561418" lon="9.166648702900085"><ele>943.0</ele><time>2026-05-01T13:29:47.001Z</time></trkpt><trkpt lat="39.93781538852615" lon="9.166628708944604"><ele>943.0</ele><time>2026-05-01T13:29:48.001Z</time></trkpt><trkpt lat="39.93766387442871" lon="9.166606328576654"><ele>943.0</ele><time>2026-05-01T13:29:49.001Z</time></trkpt><trkpt lat="39.93752581608206" lon="9.166576421964693"><ele>943.0</ele><time>2026-05-01T13:29:50.001Z</time></trkpt><trkpt lat="39.937411347273915" lon="9.166507784471536"><ele>944.75</ele><time>2026-05-01T13:29:51.001Z</time></trkpt><trkpt lat="39.937354353691326" lon="9.166371151955543"><ele>946.5</ele><time>2026-05-01T13:29:52.001Z</time></trkpt><trkpt lat="39.93734355240016" lon="9.166221631501053"><ele>948.25</ele><time>2026-05-01T13:29:53.001Z</time></trkpt><trkpt lat="39.93735744735226" lon="9.166058019824433"><ele>950.0</ele><time>2026-05-01T13:29:54.001Z</time></trkpt><trkpt lat="39.937359179751034" lon="9.165878140725981"><ele>955.0</ele><time>2026-05-01T13:29:55.001Z</time></trkpt><trkpt lat="39.93735606606585" lon="9.165693800099701"><ele>960.0</ele><time>2026-05-01T13:29:56.001Z</time></trkpt><trkpt lat="39.937329346748" lon="9.16549698827773"><ele>965.0</ele><time>2026-05-01T13:29:57.001Z</time></trkpt><trkpt lat="39.93728938065004" lon="9.165294101065161"><ele>965.0</ele><time>2026-05-01T13:29:58.001Z</time></trkpt><trkpt lat="39.93723047680827" lon="9.165087885167175"><ele>965.0</ele><time>2026-05-01T13:29:59.001Z</time></trkpt><trkpt lat="39.93715418227606" lon="9.164884834707884"><ele>965.0</ele><time>2026-05-01T13:30:00.001Z</time></trkpt><trkpt lat="39.93707442083578" lon="9.16469150817354"><ele>970.3333333333334</ele><time>2026-05-01T13:30:01.001Z</time></trkpt><trkpt lat="39.93702086401341" lon="9.16448418104922"><ele>975.6666666666667</ele><time>2026-05-01T13:30:02.001Z</time></trkpt><trkpt lat="39.936971330304196" lon="9.164278864827875"><ele>981.0</ele><time>2026-05-01T13:30:03.001Z</time></trkpt><trkpt lat="39.9369151128417" lon="9.164071561401197"><ele>982.6666666666667</ele><time>2026-05-01T13:30:04.001Z</time></trkpt><trkpt lat="39.93688297485171" lon="9.163854038421999"><ele>984.3333333333334</ele><time>2026-05-01T13:30:05.001Z</time></trkpt><trkpt lat="39.936859997025664" lon="9.16363253747514"><ele>986.0</ele><time>2026-05-01T13:30:06.001Z</time></trkpt><trkpt lat="39.93684909962539" lon="9.163411989489362"><ele>988.3333333333334</ele><time>2026-05-01T13:30:07.001Z</time></trkpt><trkpt lat="39.93684845323758" lon="9.163188922800117"><ele>990.6666666666667</ele><time>2026-05-01T13:30:08.001Z</time></trkpt><trkpt lat="39.936852388520464" lon="9.162965281691717"><ele>993.0</ele><time>2026-05-01T13:30:09.001Z</time></trkpt><trkpt lat="39.93685313417291" lon="9.162739340163258"><ele>993.0</ele><time>2026-05-01T13:30:10.001Z</time></trkpt><trkpt lat="39.9368464362175" lon="9.162513207336302"><ele>993.0</ele><time>2026-05-01T13:30:11.001Z</time></trkpt><trkpt lat="39.936821662750326" lon="9.162293066337638"><ele>993.0</ele><time>2026-05-01T13:30:12.001Z</time></trkpt><trkpt lat="39.936762406494985" lon="9.162084873021534"><ele>986.6666666666667</ele><time>2026-05-01T13:30:13.001Z</time></trkpt><trkpt lat="39.93666135549751" lon="9.161898288328924"><ele>980.3333333333334</ele><time>2026-05-01T13:30:14.001Z</time></trkpt><trkpt lat="39.936531921644296" lon="9.161746106348813"><ele>974.0</ele><time>2026-05-01T13:30:15.001Z</time></trkpt><trkpt lat="39.936384761315935" lon="9.161632400625665"><ele>981.6666666666667</ele><time>2026-05-01T13:30:16.001Z</time></trkpt><trkpt lat="39.93623868557811" lon="9.161518045428872"><ele>989.3333333333333</ele><time>2026-05-01T13:30:17.001Z</time></trkpt><trkpt lat="39.936112135686614" lon="9.161366554928156"><ele>997.0</ele><time>2026-05-01T13:30:18.001Z</time></trkpt><trkpt lat="39.93600752460784" lon="9.161184287457193"><ele>997.0</ele><time>2026-05-01T13:30:19.001Z</time></trkpt><trkpt lat="39.93592674875296" lon="9.160981033908115"><ele>997.0</ele><time>2026-05-01T13:30:20.001Z</time></trkpt><trkpt lat="39.935871444341714" lon="9.160764856820498"><ele>997.0</ele><time>2026-05-01T13:30:21.001Z</time></trkpt><trkpt lat="39.93581327778712" lon="9.160556320760826"><ele>994.0</ele><time>2026-05-01T13:30:22.001Z</time></trkpt><trkpt lat="39.93571243652622" lon="9.160379898405441"><ele>991.0</ele><time>2026-05-01T13:30:23.001Z</time></trkpt><trkpt lat="39.93557729365093" lon="9.160232324584891"><ele>988.0</ele><time>2026-05-01T13:30:24.001Z</time></trkpt><trkpt lat="39.93543562707741" lon="9.160098691262537"><ele>988.0</ele><time>2026-05-01T13:30:25.001Z</time></trkpt><trkpt lat="39.93530254016969" lon="9.159954283240186"><ele>988.0</ele><time>2026-05-01T13:30:26.001Z</time></trkpt><trkpt lat="39.935181967524755" lon="9.15979688553528"><ele>988.0</ele><time>2026-05-01T13:30:27.001Z</time></trkpt><trkpt lat="39.93508277430471" lon="9.159620868540639"><ele>987.75</ele><time>2026-05-01T13:30:28.001Z</time></trkpt><trkpt lat="39.9350168505713" lon="9.159437985984129"><ele>987.5</ele><time>2026-05-01T13:30:29.001Z</time></trkpt><trkpt lat="39.93494939427966" lon="9.15927433576142"><ele>987.25</ele><time>2026-05-01T13:30:30.001Z</time></trkpt><trkpt lat="39.93483523948697" lon="9.15915861016806"><ele>987.0</ele><time>2026-05-01T13:30:31.001Z</time></trkpt><trkpt lat="39.93468137367519" lon="9.159095045717464"><ele>987.0</ele><time>2026-05-01T13:30:32.001Z</time></trkpt><trkpt lat="39.934518288559005" lon="9.15905923620258"><ele>987.0</ele><time>2026-05-01T13:30:33.001Z</time></trkpt><trkpt lat="39.93435423104641" lon="9.159019184209336"><ele>987.0</ele><time>2026-05-01T13:30:34.001Z</time></trkpt><trkpt lat="39.9341888423351" lon="9.158970923054213"><ele>992.0</ele><time>2026-05-01T13:30:35.001Z</time></trkpt><trkpt lat="39.934025684853374" lon="9.158916120007174"><ele>997.0</ele><time>2026-05-01T13:30:36.001Z</time></trkpt><trkpt lat="39.93386852652866" lon="9.158840578461449"><ele>1002.0</ele><time>2026-05-01T13:30:37.001Z</time></trkpt><trkpt lat="39.933720679728886" lon="9.158736195659648"><ele>1002.0</ele><time>2026-05-01T13:30:38.001Z</time></trkpt><trkpt lat="39.93361074650058" lon="9.158581200679775"><ele>1002.0</ele><time>2026-05-01T13:30:39.001Z</time></trkpt><trkpt lat="39.933520910976505" lon="9.158407047464106"><ele>1002.0</ele><time>2026-05-01T13:30:40.001Z</time></trkpt><trkpt lat="39.93343885972522" lon="9.158220551649471"><ele>1000.0</ele><time>2026-05-01T13:30:41.001Z</time></trkpt><trkpt lat="39.933338529798256" lon="9.158052154395646"><ele>998.0</ele><time>2026-05-01T13:30:42.001Z</time></trkpt><trkpt lat="39.933229898353744" lon="9.15790389984788"><ele>996.0</ele><time>2026-05-01T13:30:43.001Z</time></trkpt><trkpt lat="39.93313028277497" lon="9.15774640085909"><ele>996.0</ele><time>2026-05-01T13:30:44.001Z</time></trkpt><trkpt lat="39.933025792479754" lon="9.157605633804428"><ele>996.0</ele><time>2026-05-01T13:30:45.001Z</time></trkpt><trkpt lat="39.932920022385005" lon="9.157470768126435"><ele>996.0</ele><time>2026-05-01T13:30:46.001Z</time></trkpt><trkpt lat="39.932850476014444" lon="9.157303346303348"><ele>996.0</ele><time>2026-05-01T13:30:47.001Z</time></trkpt><trkpt lat="39.93281690562004" lon="9.15711345299645"><ele>992.6666666666667</ele><time>2026-05-01T13:30:48.001Z</time></trkpt><trkpt lat="39.93282038147074" lon="9.156914128400706"><ele>989.3333333333334</ele><time>2026-05-01T13:30:49.001Z</time></trkpt><trkpt lat="39.93283323834877" lon="9.15671126810248"><ele>986.0</ele><time>2026-05-01T13:30:50.001Z</time></trkpt><trkpt lat="39.93284370521551" lon="9.156505007667295"><ele>982.6666666666667</ele><time>2026-05-01T13:30:51.001Z</time></trkpt><trkpt lat="39.932849927719786" lon="9.156290971664141"><ele>979.3333333333333</ele><time>2026-05-01T13:30:52.001Z</time></trkpt><trkpt lat="39.93285089649244" lon="9.156072434638107"><ele>976.0</ele><time>2026-05-01T13:30:53.001Z</time></trkpt><trkpt lat="39.932856230190495" lon="9.155848246634262"><ele>976.0</ele><time>2026-05-01T13:30:54.001Z</time></trkpt><trkpt lat="39.932886824805564" lon="9.155630237392435"><ele>976.0</ele><time>2026-05-01T13:30:55.001Z</time></trkpt><trkpt lat="39.93294843810913" lon="9.155422987690963"><ele>976.0</ele><time>2026-05-01T13:30:56.001Z</time></trkpt><trkpt lat="39.933026212944675" lon="9.155222018079638"><ele>976.0</ele><time>2026-05-01T13:30:57.001Z</time></trkpt><trkpt lat="39.933100015088854" lon="9.155015665855748"><ele>976.0</ele><time>2026-05-01T13:30:58.001Z</time></trkpt><trkpt lat="39.93315145309465" lon="9.154796169504808"><ele>976.0</ele><time>2026-05-01T13:30:59.001Z</time></trkpt><trkpt lat="39.933181542971866" lon="9.154571109983346"><ele>976.3333333333333</ele><time>2026-05-01T13:31:00.001Z</time></trkpt><trkpt lat="39.93319544789162" lon="9.154341210139329"><ele>976.6666666666667</ele><time>2026-05-01T13:31:01.001Z</time></trkpt><trkpt lat="39.933173002153524" lon="9.154112835900422"><ele>977.0</ele><time>2026-05-01T13:31:02.001Z</time></trkpt><trkpt lat="39.933109501504816" lon="9.153902745623942"><ele>972.6666666666667</ele><time>2026-05-01T13:31:03.001Z</time></trkpt><trkpt lat="39.93301957285195" lon="9.1537118239878"><ele>968.3333333333333</ele><time>2026-05-01T13:31:04.001Z</time></trkpt><trkpt lat="39.932947522807574" lon="9.153524378677822"><ele>964.0</ele><time>2026-05-01T13:31:05.001Z</time></trkpt><trkpt lat="39.93290923279983" lon="9.153309821510007"><ele>964.0</ele><time>2026-05-01T13:31:06.001Z</time></trkpt><trkpt lat="39.93291496477874" lon="9.153082091699334"><ele>964.0</ele><time>2026-05-01T13:31:07.001Z</time></trkpt><trkpt lat="39.932931911137416" lon="9.15285035746924"><ele>964.0</ele><time>2026-05-01T13:31:08.001Z</time></trkpt><trkpt lat="39.93294832915415" lon="9.152618234696263"><ele>964.0</ele><time>2026-05-01T13:31:09.001Z</time></trkpt><trkpt lat="39.93295865125145" lon="9.15238755977018"><ele>964.0</ele><time>2026-05-01T13:31:10.001Z</time></trkpt><trkpt lat="39.9329709221712" lon="9.152167553241554"><ele>964.0</ele><time>2026-05-01T13:31:11Z</time></trkpt><trkpt lat="39.932977176734816" lon="9.151957181576087"><ele>964.0</ele><time>2026-05-01T13:31:12Z</time></trkpt><trkpt lat="39.932949400920684" lon="9.151771354522534"><ele>964.0</ele><time>2026-05-01T13:31:13Z</time></trkpt><trkpt lat="39.932863259142664" lon="9.15162989458096"><ele>964.0</ele><time>2026-05-01T13:31:14Z</time></trkpt><trkpt lat="39.932741054074526" lon="9.151508666467054"><ele>964.0</ele><time>2026-05-01T13:31:15Z</time></trkpt><trkpt lat="39.932610544088526" lon="9.15138737078134"><ele>965.3333333333333</ele><time>2026-05-01T13:31:16Z</time></trkpt><trkpt lat="39.932481309166036" lon="9.15125846299751"><ele>966.6666666666667</ele><time>2026-05-01T13:31:17Z</time></trkpt><trkpt lat="39.932351394170944" lon="9.15112229135308"><ele>968.0</ele><time>2026-05-01T13:31:18Z</time></trkpt><trkpt lat="39.9322121352064" lon="9.150994997038307"><ele>968.0</ele><time>2026-05-01T13:31:19Z</time></trkpt><trkpt lat="39.93206265849672" lon="9.150913826116101"><ele>968.0</ele><time>2026-05-01T13:31:20Z</time></trkpt><trkpt lat="39.93189436452174" lon="9.1508824439715"><ele>968.0</ele><time>2026-05-01T13:31:21Z</time></trkpt><trkpt lat="39.931728469463714" lon="9.150862647337357"><ele>972.6666666666667</ele><time>2026-05-01T13:31:22Z</time></trkpt><trkpt lat="39.93156371701619" lon="9.150813223861077"><ele>977.3333333333333</ele><time>2026-05-01T13:31:23Z</time></trkpt><trkpt lat="39.931417959922214" lon="9.150680165604678"><ele>982.0</ele><time>2026-05-01T13:31:24Z</time></trkpt><trkpt lat="39.931279349941114" lon="9.150535654427726"><ele>972.0</ele><time>2026-05-01T13:31:25Z</time></trkpt><trkpt lat="39.93113545347474" lon="9.150405518611041"><ele>962.0</ele><time>2026-05-01T13:31:26Z</time></trkpt><trkpt lat="39.93101090397116" lon="9.150259748400538"><ele>952.0</ele><time>2026-05-01T13:31:27Z</time></trkpt><trkpt lat="39.93090418562332" lon="9.150105015627412"><ele>958.6666666666666</ele><time>2026-05-01T13:31:28Z</time></trkpt><trkpt lat="39.93083379959502" lon="9.149918679380443"><ele>965.3333333333333</ele><time>2026-05-01T13:31:29Z</time></trkpt><trkpt lat="39.93080161897756" lon="9.149707635074993"><ele>972.0</ele><time>2026-05-01T13:31:30Z</time></trkpt><trkpt lat="39.93078997999656" lon="9.149501777239097"><ele>972.0</ele><time>2026-05-01T13:31:31Z</time></trkpt><trkpt lat="39.93076512059655" lon="9.149315558715308"><ele>972.0</ele><time>2026-05-01T13:31:32Z</time></trkpt><trkpt lat="39.93070723820775" lon="9.14915355053309"><ele>972.0</ele><time>2026-05-01T13:31:33Z</time></trkpt><trkpt lat="39.93061066756519" lon="9.149036489607118"><ele>972.0</ele><time>2026-05-01T13:31:34Z</time></trkpt><trkpt lat="39.93048207000358" lon="9.14899112849806"><ele>969.0</ele><time>2026-05-01T13:31:35Z</time></trkpt><trkpt lat="39.93033687157968" lon="9.14900410220284"><ele>966.0</ele><time>2026-05-01T13:31:36Z</time></trkpt><trkpt lat="39.93018769954585" lon="9.149002479377716"><ele>963.0</ele><time>2026-05-01T13:31:37Z</time></trkpt><trkpt lat="39.930033218739666" lon="9.148984794159217"><ele>963.0</ele><time>2026-05-01T13:31:38Z</time></trkpt><trkpt lat="39.92989979643572" lon="9.148867521202787"><ele>963.0</ele><time>2026-05-01T13:31:39Z</time></trkpt><trkpt lat="39.92975894566271" lon="9.14873896621965"><ele>963.0</ele><time>2026-05-01T13:31:40Z</time></trkpt><trkpt lat="39.9296332516476" lon="9.14858339990247"><ele>963.0</ele><time>2026-05-01T13:31:41Z</time></trkpt><trkpt lat="39.92949835436634" lon="9.148436955342422"><ele>963.0</ele><time>2026-05-01T13:31:42Z</time></trkpt><trkpt lat="39.92934724218271" lon="9.148313939781854"><ele>963.0</ele><time>2026-05-01T13:31:43Z</time></trkpt><trkpt lat="39.92918573592067" lon="9.148209255071363"><ele>960.3333333333333</ele><time>2026-05-01T13:31:44Z</time></trkpt><trkpt lat="39.92902235305758" lon="9.148110172705575"><ele>957.6666666666666</ele><time>2026-05-01T13:31:45Z</time></trkpt><trkpt lat="39.92885747251171" lon="9.148018455849765"><ele>955.0</ele><time>2026-05-01T13:31:46Z</time></trkpt><trkpt lat="39.92868828069219" lon="9.147940301484613"><ele>955.0</ele><time>2026-05-01T13:31:47Z</time></trkpt><trkpt lat="39.92851763604672" lon="9.147868509075291"><ele>955.0</ele><time>2026-05-01T13:31:48Z</time></trkpt><trkpt lat="39.928354043042496" lon="9.147780962841352"><ele>955.0</ele><time>2026-05-01T13:31:49Z</time></trkpt><trkpt lat="39.928199242555785" lon="9.147669715179308"><ele>955.6666666666666</ele><time>2026-05-01T13:31:50Z</time></trkpt><trkpt lat="39.92804733816532" lon="9.147556399214242"><ele>956.3333333333333</ele><time>2026-05-01T13:31:51Z</time></trkpt><trkpt lat="39.927909552244614" lon="9.147431593401743"><ele>957.0</ele><time>2026-05-01T13:31:52Z</time></trkpt><trkpt lat="39.927774695514486" lon="9.147329642081461"><ele>957.0</ele><time>2026-05-01T13:31:53Z</time></trkpt><trkpt lat="39.92765245315812" lon="9.147234228138263"><ele>957.0</ele><time>2026-05-01T13:31:54Z</time></trkpt><trkpt lat="39.92754990794784" lon="9.147132623919044"><ele>957.0</ele><time>2026-05-01T13:31:55Z</time></trkpt><trkpt lat="39.927510726959774" lon="9.146985971511699"><ele>957.0</ele><time>2026-05-01T13:31:56Z</time></trkpt><trkpt lat="39.92753078768632" lon="9.146835598476239"><ele>957.0</ele><time>2026-05-01T13:31:57Z</time></trkpt><trkpt lat="39.927613234599065" lon="9.146694715646145"><ele>957.0</ele><time>2026-05-01T13:31:58Z</time></trkpt><trkpt lat="39.92769142327502" lon="9.14654580992837"><ele>957.0</ele><time>2026-05-01T13:31:59Z</time></trkpt><trkpt lat="39.92773836825047" lon="9.146391063531002"><ele>957.0</ele><time>2026-05-01T13:32:00Z</time></trkpt><trkpt lat="39.92773494858427" lon="9.146223869593452"><ele>955.0</ele><time>2026-05-01T13:32:01Z</time></trkpt><trkpt lat="39.92768698081779" lon="9.146057249847695"><ele>953.0</ele><time>2026-05-01T13:32:02Z</time></trkpt><trkpt lat="39.927628776134505" lon="9.145893024645442"><ele>951.0</ele><time>2026-05-01T13:32:03Z</time></trkpt><trkpt lat="39.92755424447121" lon="9.145728431706544"><ele>949.0</ele><time>2026-05-01T13:32:04Z</time></trkpt><trkpt lat="39.92746739650032" lon="9.145566262886174"><ele>955.3333333333333</ele><time>2026-05-01T13:32:05Z</time></trkpt><trkpt lat="39.92737722889749" lon="9.145399111303112"><ele>961.6666666666667</ele><time>2026-05-01T13:32:06Z</time></trkpt><trkpt lat="39.92728698943688" lon="9.145230107600097"><ele>968.0</ele><time>2026-05-01T13:32:07Z</time></trkpt><trkpt lat="39.927199279717634" lon="9.145067096591701"><ele>968.0</ele><time>2026-05-01T13:32:08Z</time></trkpt><trkpt lat="39.92710408976088" lon="9.144896350797122"><ele>968.0</ele><time>2026-05-01T13:32:09Z</time></trkpt><trkpt lat="39.92701665579957" lon="9.144713308459968"><ele>968.0</ele><time>2026-05-01T13:32:10Z</time></trkpt><trkpt lat="39.92695468272931" lon="9.14450520674648"><ele>965.3333333333334</ele><time>2026-05-01T13:32:11Z</time></trkpt><trkpt lat="39.92692369831931" lon="9.144272117536632"><ele>962.6666666666667</ele><time>2026-05-01T13:32:12Z</time></trkpt><trkpt lat="39.92691063909773" lon="9.144033017341744"><ele>960.0</ele><time>2026-05-01T13:32:13Z</time></trkpt><trkpt lat="39.92689525405196" lon="9.143796247560246"><ele>958.6666666666667</ele><time>2026-05-01T13:32:14Z</time></trkpt><trkpt lat="39.92685111132369" lon="9.143556007078846"><ele>957.3333333333334</ele><time>2026-05-01T13:32:15Z</time></trkpt><trkpt lat="39.92680115498746" lon="9.14331694365744"><ele>956.0</ele><time>2026-05-01T13:32:16Z</time></trkpt><trkpt lat="39.92675968569391" lon="9.143081012289672"><ele>963.0</ele><time>2026-05-01T13:32:17Z</time></trkpt><trkpt lat="39.926715287287486" lon="9.142857735931598"><ele>970.0</ele><time>2026-05-01T13:32:18Z</time></trkpt><trkpt lat="39.92665916898777" lon="9.142650587062572"><ele>977.0</ele><time>2026-05-01T13:32:19Z</time></trkpt><trkpt lat="39.92661606518375" lon="9.142452383303448"><ele>977.6666666666667</ele><time>2026-05-01T13:32:20Z</time></trkpt><trkpt lat="39.9266189921146" lon="9.142249277995466"><ele>978.3333333333333</ele><time>2026-05-01T13:32:21Z</time></trkpt><trkpt lat="39.926668493436026" lon="9.142036266809011"><ele>979.0</ele><time>2026-05-01T13:32:22Z</time></trkpt><trkpt lat="39.92674311163116" lon="9.141838748720426"><ele>970.0</ele><time>2026-05-01T13:32:23Z</time></trkpt><trkpt lat="39.92679863092336" lon="9.141633664198798"><ele>961.0</ele><time>2026-05-01T13:32:24Z</time></trkpt><trkpt lat="39.92682066362053" lon="9.141411817182496"><ele>952.0</ele><time>2026-05-01T13:32:25Z</time></trkpt><trkpt lat="39.926824848680106" lon="9.14118478896077"><ele>952.0</ele><time>2026-05-01T13:32:26Z</time></trkpt><trkpt lat="39.92681125726881" lon="9.140965533494809"><ele>952.0</ele><time>2026-05-01T13:32:27Z</time></trkpt><trkpt lat="39.92677214712856" lon="9.140767608252503"><ele>952.0</ele><time>2026-05-01T13:32:28Z</time></trkpt><trkpt lat="39.92670026396774" lon="9.140603915627137"><ele>962.0</ele><time>2026-05-01T13:32:29Z</time></trkpt><trkpt lat="39.92659065534613" lon="9.140480277221625"><ele>972.0</ele><time>2026-05-01T13:32:30Z</time></trkpt><trkpt lat="39.92645296360317" lon="9.140379578846684"><ele>982.0</ele><time>2026-05-01T13:32:31Z</time></trkpt><trkpt lat="39.92631766559731" lon="9.140281883486136"><ele>982.0</ele><time>2026-05-01T13:32:32Z</time></trkpt><trkpt lat="39.92618278796786" lon="9.140180925508444"><ele>982.0</ele><time>2026-05-01T13:32:33Z</time></trkpt><trkpt lat="39.926041831007616" lon="9.140099379853172"><ele>982.0</ele><time>2026-05-01T13:32:34Z</time></trkpt><trkpt lat="39.92588706796569" lon="9.140063176654504"><ele>985.0</ele><time>2026-05-01T13:32:35Z</time></trkpt><trkpt lat="39.92572887913526" lon="9.140070335666524"><ele>988.0</ele><time>2026-05-01T13:32:36Z</time></trkpt><trkpt lat="39.92556552811278" lon="9.140083006796841"><ele>991.0</ele><time>2026-05-01T13:32:37Z</time></trkpt><trkpt lat="39.925413554299006" lon="9.140163159319881"><ele>991.0</ele><time>2026-05-01T13:32:38Z</time></trkpt><trkpt lat="39.92526227977098" lon="9.140247624415577"><ele>991.0</ele><time>2026-05-01T13:32:39Z</time></trkpt><trkpt lat="39.92510446572326" lon="9.140318938146228"><ele>991.0</ele><time>2026-05-01T13:32:40Z</time></trkpt><trkpt lat="39.924953701140936" lon="9.140405877705382"><ele>992.3333333333333</ele><time>2026-05-01T13:32:41Z</time></trkpt><trkpt lat="39.92480957989023" lon="9.14050794697046"><ele>993.6666666666667</ele><time>2026-05-01T13:32:42Z</time></trkpt><trkpt lat="39.92465683512124" lon="9.140586498385174"><ele>995.0</ele><time>2026-05-01T13:32:43Z</time></trkpt><trkpt lat="39.92449887960645" lon="9.140638768529923"><ele>995.0</ele><time>2026-05-01T13:32:44Z</time></trkpt><trkpt lat="39.92434317925906" lon="9.140700338808346"><ele>995.0</ele><time>2026-05-01T13:32:45Z</time></trkpt><trkpt lat="39.924186307828506" lon="9.140742456584327"><ele>995.0</ele><time>2026-05-01T13:32:46Z</time></trkpt><trkpt lat="39.92402799018028" lon="9.14078810769753"><ele>993.0</ele><time>2026-05-01T13:32:47Z</time></trkpt><trkpt lat="39.923879096342525" lon="9.140776269671218"><ele>991.0</ele><time>2026-05-01T13:32:48Z</time></trkpt><trkpt lat="39.92376063278442" lon="9.140715523536812"><ele>989.0</ele><time>2026-05-01T13:32:49Z</time></trkpt><trkpt lat="39.92369925682276" lon="9.140586290255131"><ele>987.0</ele><time>2026-05-01T13:32:50Z</time></trkpt><trkpt lat="39.92366584520774" lon="9.140451033636056"><ele>991.0</ele><time>2026-05-01T13:32:51Z</time></trkpt><trkpt lat="39.92363679227534" lon="9.140285703191376"><ele>995.0</ele><time>2026-05-01T13:32:52Z</time></trkpt><trkpt lat="39.923615895447206" lon="9.14011675371396"><ele>999.0</ele><time>2026-05-01T13:32:53Z</time></trkpt><trkpt lat="39.923586957984206" lon="9.139934267730018"><ele>1003.0</ele><time>2026-05-01T13:32:54Z</time></trkpt><trkpt lat="39.92356678328499" lon="9.139742268411982"><ele>1003.5</ele><time>2026-05-01T13:32:55Z</time></trkpt><trkpt lat="39.9235546322844" lon="9.139553609893065"><ele>1004.0</ele><time>2026-05-01T13:32:56Z</time></trkpt><trkpt lat="39.92352856104903" lon="9.139383980484482"><ele>1004.5</ele><time>2026-05-01T13:32:57Z</time></trkpt><trkpt lat="39.92345685418598" lon="9.139243239001997"><ele>1005.0</ele><time>2026-05-01T13:32:58Z</time></trkpt><trkpt lat="39.923347552215695" lon="9.139146561984854"><ele>1005.0</ele><time>2026-05-01T13:32:59Z</time></trkpt><trkpt lat="39.92321938905565" lon="9.139123555091507"><ele>1005.0</ele><time>2026-05-01T13:33:00Z</time></trkpt><trkpt lat="39.923087541635184" lon="9.139165471487516"><ele>1005.0</ele><time>2026-05-01T13:33:01Z</time></trkpt><trkpt lat="39.92295183065412" lon="9.139207036192213"><ele>1005.0</ele><time>2026-05-01T13:33:02Z</time></trkpt><trkpt lat="39.92281782024919" lon="9.139268451275633"><ele>1005.0</ele><time>2026-05-01T13:33:03Z</time></trkpt><trkpt lat="39.92268248858332" lon="9.139330381073767"><ele>1005.0</ele><time>2026-05-01T13:33:04Z</time></trkpt><trkpt lat="39.92255001324588" lon="9.139380669675196"><ele>1005.0</ele><time>2026-05-01T13:33:05Z</time></trkpt><trkpt lat="39.92242710519098" lon="9.139415701068174"><ele>1005.0</ele><time>2026-05-01T13:33:06Z</time></trkpt><trkpt lat="39.92230631445298" lon="9.139378176057324"><ele>1005.25</ele><time>2026-05-01T13:33:07Z</time></trkpt><trkpt lat="39.92221092847448" lon="9.139278834389087"><ele>1005.5</ele><time>2026-05-01T13:33:08Z</time></trkpt><trkpt lat="39.922153816436456" lon="9.139128492995617"><ele>1005.75</ele><time>2026-05-01T13:33:09Z</time></trkpt><trkpt lat="39.922142450921996" lon="9.13895124015368"><ele>1006.0</ele><time>2026-05-01T13:33:10Z</time></trkpt><trkpt lat="39.92214795652022" lon="9.138768677223856"><ele>1008.5</ele><time>2026-05-01T13:33:11Z</time></trkpt><trkpt lat="39.922151040553814" lon="9.13857788206245"><ele>1011.0</ele><time>2026-05-01T13:33:12.001Z</time></trkpt><trkpt lat="39.92216746632326" lon="9.138385183318768"><ele>1013.5</ele><time>2026-05-01T13:33:13.001Z</time></trkpt><trkpt lat="39.92220623693057" lon="9.138197667815971"><ele>1016.0</ele><time>2026-05-01T13:33:14.001Z</time></trkpt><trkpt lat="39.92225962145441" lon="9.138024543440181"><ele>1017.25</ele><time>2026-05-01T13:33:15.001Z</time></trkpt><trkpt lat="39.92230425323371" lon="9.137866646421035"><ele>1018.5</ele><time>2026-05-01T13:33:16.001Z</time></trkpt><trkpt lat="39.92232404978786" lon="9.137714832150623"><ele>1019.75</ele><time>2026-05-01T13:33:17Z</time></trkpt><trkpt lat="39.922312604625496" lon="9.137581965645193"><ele>1021.0</ele><time>2026-05-01T13:33:18Z</time></trkpt><trkpt lat="39.922215493074305" lon="9.137501331334576"><ele>1021.0</ele><time>2026-05-01T13:33:19Z</time></trkpt><trkpt lat="39.92211020427732" lon="9.137489665816979"><ele>1021.0</ele><time>2026-05-01T13:33:20Z</time></trkpt><trkpt lat="39.922002169797" lon="9.137553891663643"><ele>1021.0</ele><time>2026-05-01T13:33:21Z</time></trkpt><trkpt lat="39.921898106498304" lon="9.137648190391003"><ele>1021.0</ele><time>2026-05-01T13:33:22Z</time></trkpt><trkpt lat="39.92177804423402" lon="9.137722770174543"><ele>1020.5</ele><time>2026-05-01T13:33:23Z</time></trkpt><trkpt lat="39.92165440981751" lon="9.137794438518002"><ele>1020.0</ele><time>2026-05-01T13:33:24Z</time></trkpt><trkpt lat="39.92152557591239" lon="9.13784553259654"><ele>1019.5</ele><time>2026-05-01T13:33:25Z</time></trkpt><trkpt lat="39.921397819711075" lon="9.137861105534917"><ele>1019.0</ele><time>2026-05-01T13:33:26Z</time></trkpt><trkpt lat="39.9212838731998" lon="9.137792033237956"><ele>1019.0</ele><time>2026-05-01T13:33:27Z</time></trkpt><trkpt lat="39.92121108289472" lon="9.137669535781068"><ele>1019.0</ele><time>2026-05-01T13:33:28Z</time></trkpt><trkpt lat="39.921211950175774" lon="9.137515784750414"><ele>1019.0</ele><time>2026-05-01T13:33:29Z</time></trkpt><trkpt lat="39.9212152089204" lon="9.137353080816618"><ele>1019.0</ele><time>2026-05-01T13:33:30Z</time></trkpt><trkpt lat="39.92121996316119" lon="9.137172825678112"><ele>1023.0</ele><time>2026-05-01T13:33:31Z</time></trkpt><trkpt lat="39.92120073337876" lon="9.13698002494984"><ele>1027.0</ele><time>2026-05-01T13:33:32Z</time></trkpt><trkpt lat="39.92115481504007" lon="9.136786610444059"><ele>1031.0</ele><time>2026-05-01T13:33:33Z</time></trkpt><trkpt lat="39.921075413437606" lon="9.136602888565635"><ele>1030.6666666666667</ele><time>2026-05-01T13:33:34Z</time></trkpt><trkpt lat="39.92098071002547" lon="9.136437515470789"><ele>1030.3333333333333</ele><time>2026-05-01T13:33:35Z</time></trkpt><trkpt lat="39.92089369116814" lon="9.13625856219789"><ele>1030.0</ele><time>2026-05-01T13:33:36Z</time></trkpt><trkpt lat="39.92082360829673" lon="9.13605568757751"><ele>1030.0</ele><time>2026-05-01T13:33:37Z</time></trkpt><trkpt lat="39.920759412392314" lon="9.135848252735851"><ele>1030.0</ele><time>2026-05-01T13:33:38Z</time></trkpt><trkpt lat="39.92068739202215" lon="9.135638484471015"><ele>1030.0</ele><time>2026-05-01T13:33:39Z</time></trkpt><trkpt lat="39.92061260005099" lon="9.135440493589286"><ele>1033.0</ele><time>2026-05-01T13:33:40Z</time></trkpt><trkpt lat="39.920532849794334" lon="9.13526567012572"><ele>1036.0</ele><time>2026-05-01T13:33:41Z</time></trkpt><trkpt lat="39.92041886470917" lon="9.135129155483474"><ele>1039.0</ele><time>2026-05-01T13:33:42Z</time></trkpt><trkpt lat="39.92026657993524" lon="9.13503870966756"><ele>1039.0</ele><time>2026-05-01T13:33:43Z</time></trkpt><trkpt lat="39.92010177159806" lon="9.134984933087328"><ele>1039.0</ele><time>2026-05-01T13:33:44Z</time></trkpt><trkpt lat="39.91994045381268" lon="9.13493861652667"><ele>1039.0</ele><time>2026-05-01T13:33:45Z</time></trkpt><trkpt lat="39.91977905915952" lon="9.134865765062715"><ele>1042.0</ele><time>2026-05-01T13:33:46Z</time></trkpt><trkpt lat="39.919610402809994" lon="9.13480899434125"><ele>1045.0</ele><time>2026-05-01T13:33:47Z</time></trkpt><trkpt lat="39.91944030602812" lon="9.134751738657366"><ele>1048.0</ele><time>2026-05-01T13:33:48Z</time></trkpt><trkpt lat="39.919264810198015" lon="9.134708115181589"><ele>1047.3333333333333</ele><time>2026-05-01T13:33:49Z</time></trkpt><trkpt lat="39.91909537382304" lon="9.13464206758606"><ele>1046.6666666666667</ele><time>2026-05-01T13:33:50Z</time></trkpt><trkpt lat="39.91893149950731" lon="9.134564966637681"><ele>1046.0</ele><time>2026-05-01T13:33:51Z</time></trkpt><trkpt lat="39.91877845581592" lon="9.134468590992817"><ele>1046.0</ele><time>2026-05-01T13:33:52Z</time></trkpt><trkpt lat="39.91863605028436" lon="9.134342086732028"><ele>1046.0</ele><time>2026-05-01T13:33:53Z</time></trkpt><trkpt lat="39.918507522761566" lon="9.134186482915291"><ele>1046.0</ele><time>2026-05-01T13:33:54Z</time></trkpt><trkpt lat="39.91839225788717" lon="9.134006184011646"><ele>1042.6666666666667</ele><time>2026-05-01T13:33:55Z</time></trkpt><trkpt lat="39.91828059793646" lon="9.133816287366379"><ele>1039.3333333333333</ele><time>2026-05-01T13:33:56Z</time></trkpt><trkpt lat="39.91817699381691" lon="9.13361519153874"><ele>1036.0</ele><time>2026-05-01T13:33:57Z</time></trkpt><trkpt lat="39.91810153507018" lon="9.133393944978751"><ele>1035.0</ele><time>2026-05-01T13:33:58Z</time></trkpt><trkpt lat="39.91805891530484" lon="9.133166120717744"><ele>1034.0</ele><time>2026-05-01T13:33:59Z</time></trkpt><trkpt lat="39.91804439425457" lon="9.132947729316513"><ele>1033.0</ele><time>2026-05-01T13:34:00Z</time></trkpt><trkpt lat="39.918026824493595" lon="9.132755803391829"><ele>1033.0</ele><time>2026-05-01T13:34:01Z</time></trkpt><trkpt lat="39.91796405368983" lon="9.132596971476007"><ele>1033.0</ele><time>2026-05-01T13:34:02Z</time></trkpt><trkpt lat="39.917847986091594" lon="9.132492725098063"><ele>1033.0</ele><time>2026-05-01T13:34:03Z</time></trkpt><trkpt lat="39.91769328779533" lon="9.132434328598682"><ele>1033.0</ele><time>2026-05-01T13:34:04Z</time></trkpt><trkpt lat="39.91754731676935" lon="9.132372234276708"><ele>1029.3333333333333</ele><time>2026-05-01T13:34:05Z</time></trkpt><trkpt lat="39.917388697149676" lon="9.132300394256585"><ele>1025.6666666666667</ele><time>2026-05-01T13:34:06.001Z</time></trkpt><trkpt lat="39.91722618567704" lon="9.132244090636906"><ele>1022.0</ele><time>2026-05-01T13:34:07Z</time></trkpt><trkpt lat="39.9170640802339" lon="9.132229899635862"><ele>1022.0</ele><time>2026-05-01T13:34:08Z</time></trkpt><trkpt lat="39.91689665820034" lon="9.132260788748496"><ele>1022.0</ele><time>2026-05-01T13:34:09Z</time></trkpt><trkpt lat="39.91674185258015" lon="9.132343042097032"><ele>1022.0</ele><time>2026-05-01T13:34:10Z</time></trkpt><trkpt lat="39.91661775351094" lon="9.132478686745195"><ele>1020.0</ele><time>2026-05-01T13:34:11Z</time></trkpt><trkpt lat="39.916524342360084" lon="9.132657856393674"><ele>1018.0</ele><time>2026-05-01T13:34:12Z</time></trkpt><trkpt lat="39.91645801063731" lon="9.132846248556792"><ele>1016.0</ele><time>2026-05-01T13:34:13Z</time></trkpt><trkpt lat="39.91636950690575" lon="9.133017288689365"><ele>1016.0</ele><time>2026-05-01T13:34:14Z</time></trkpt><trkpt lat="39.91626795879186" lon="9.133177302489475"><ele>1016.0</ele><time>2026-05-01T13:34:15Z</time></trkpt><trkpt lat="39.91614775539629" lon="9.13331674805047"><ele>1016.0</ele><time>2026-05-01T13:34:16Z</time></trkpt><trkpt lat="39.91600465042048" lon="9.13342189447321"><ele>1016.6666666666667</ele><time>2026-05-01T13:34:17Z</time></trkpt><trkpt lat="39.91584828220077" lon="9.133466570684426"><ele>1017.3333333333333</ele><time>2026-05-01T13:34:18Z</time></trkpt><trkpt lat="39.91569614150611" lon="9.133514610784625"><ele>1018.0</ele><time>2026-05-01T13:34:19Z</time></trkpt><trkpt lat="39.915553894399025" lon="9.133559591646797"><ele>1018.0</ele><time>2026-05-01T13:34:20Z</time></trkpt><trkpt lat="39.91545324728159" lon="9.133710662068113"><ele>1018.0</ele><time>2026-05-01T13:34:21Z</time></trkpt><trkpt lat="39.91539529572508" lon="9.13388745633371"><ele>1018.0</ele><time>2026-05-01T13:34:22Z</time></trkpt><trkpt lat="39.915357506601765" lon="9.134063945301698"><ele>1018.0</ele><time>2026-05-01T13:34:23Z</time></trkpt><trkpt lat="39.915263933051214" lon="9.134194485540965"><ele>1017.6666666666666</ele><time>2026-05-01T13:34:24Z</time></trkpt><trkpt lat="39.91515212128363" lon="9.134323454875492"><ele>1017.3333333333333</ele><time>2026-05-01T13:34:25Z</time></trkpt><trkpt lat="39.91503010113586" lon="9.13444602569351"><ele>1017.0</ele><time>2026-05-01T13:34:26Z</time></trkpt><trkpt lat="39.914886340350904" lon="9.134522599185077"><ele>1017.0</ele><time>2026-05-01T13:34:27Z</time></trkpt><trkpt lat="39.91472444700845" lon="9.134534684545361"><ele>1017.0</ele><time>2026-05-01T13:34:28Z</time></trkpt><trkpt lat="39.914562376211826" lon="9.134519968073686"><ele>1017.0</ele><time>2026-05-01T13:34:29Z</time></trkpt><trkpt lat="39.91440137723555" lon="9.134501966143093"><ele>1017.0</ele><time>2026-05-01T13:34:30Z</time></trkpt><trkpt lat="39.91424435619357" lon="9.134562774176278"><ele>1017.0</ele><time>2026-05-01T13:34:31Z</time></trkpt><trkpt lat="39.914095895833924" lon="9.134609694935074"><ele>1017.0</ele><time>2026-05-01T13:34:32Z</time></trkpt><trkpt lat="39.91395344083422" lon="9.134625366139288"><ele>1018.5</ele><time>2026-05-01T13:34:33Z</time></trkpt><trkpt lat="39.91381376548434" lon="9.13457964564038"><ele>1020.0</ele><time>2026-05-01T13:34:34Z</time></trkpt><trkpt lat="39.9136741186679" lon="9.134544843082121"><ele>1021.5</ele><time>2026-05-01T13:34:35Z</time></trkpt><trkpt lat="39.91354094541226" lon="9.134527108821679"><ele>1023.0</ele><time>2026-05-01T13:34:36Z</time></trkpt><trkpt lat="39.913411511452544" lon="9.134577378338756"><ele>1022.0</ele><time>2026-05-01T13:34:37Z</time></trkpt><trkpt lat="39.913300815467835" lon="9.134686203133139"><ele>1021.0</ele><time>2026-05-01T13:34:38Z</time></trkpt><trkpt lat="39.913227420846404" lon="9.134843922275625"><ele>1020.0</ele><time>2026-05-01T13:34:39Z</time></trkpt><trkpt lat="39.91319611986761" lon="9.135012738397448"><ele>1019.0</ele><time>2026-05-01T13:34:40Z</time></trkpt><trkpt lat="39.913158585944466" lon="9.1351665494541"><ele>1017.25</ele><time>2026-05-01T13:34:41Z</time></trkpt><trkpt lat="39.91307473215655" lon="9.135277873387036"><ele>1015.5</ele><time>2026-05-01T13:34:42Z</time></trkpt><trkpt lat="39.912949785660444" lon="9.13534246027967"><ele>1013.75</ele><time>2026-05-01T13:34:43Z</time></trkpt><trkpt lat="39.912802432896505" lon="9.135368189596523"><ele>1012.0</ele><time>2026-05-01T13:34:44Z</time></trkpt><trkpt lat="39.91265504672755" lon="9.135413758532371"><ele>1013.3333333333333</ele><time>2026-05-01T13:34:45Z</time></trkpt><trkpt lat="39.91251155618042" lon="9.135491083344546"><ele>1014.6666666666667</ele><time>2026-05-01T13:34:46Z</time></trkpt><trkpt lat="39.91236859353193" lon="9.135555915098742"><ele>1016.0</ele><time>2026-05-01T13:34:47Z</time></trkpt><trkpt lat="39.91221685762136" lon="9.135559487364056"><ele>1016.0</ele><time>2026-05-01T13:34:48Z</time></trkpt><trkpt lat="39.91208345267051" lon="9.135471825530157"><ele>1016.0</ele><time>2026-05-01T13:34:49Z</time></trkpt><trkpt lat="39.911957409104424" lon="9.135424919228733"><ele>1016.0</ele><time>2026-05-01T13:34:50Z</time></trkpt><trkpt lat="39.911830432123026" lon="9.135407612945247"><ele>1016.0</ele><time>2026-05-01T13:34:51Z</time></trkpt><trkpt lat="39.91171971705936" lon="9.135514651686224"><ele>1016.25</ele><time>2026-05-01T13:34:52Z</time></trkpt><trkpt lat="39.911650572091204" lon="9.135659820227877"><ele>1016.5</ele><time>2026-05-01T13:34:53Z</time></trkpt><trkpt lat="39.91160062866321" lon="9.135818952260882"><ele>1016.75</ele><time>2026-05-01T13:34:54Z</time></trkpt><trkpt lat="39.91152188688303" lon="9.135945200140451"><ele>1017.0</ele><time>2026-05-01T13:34:55Z</time></trkpt><trkpt lat="39.9114075011171" lon="9.136011185989455"><ele>1013.5</ele><time>2026-05-01T13:34:56Z</time></trkpt><trkpt lat="39.91127488799127" lon="9.136003922673067"><ele>1010.0</ele><time>2026-05-01T13:34:57Z</time></trkpt><trkpt lat="39.91113418292091" lon="9.135956334862227"><ele>1006.5</ele><time>2026-05-01T13:34:58Z</time></trkpt><trkpt lat="39.91099248096151" lon="9.135908766998867"><ele>1003.0</ele><time>2026-05-01T13:34:59Z</time></trkpt><trkpt lat="39.91084815577603" lon="9.135865986577809"><ele>1003.0</ele><time>2026-05-01T13:35:00Z</time></trkpt><trkpt lat="39.91070881959066" lon="9.1358422612178"><ele>1003.0</ele><time>2026-05-01T13:35:01Z</time></trkpt><trkpt lat="39.910574328243044" lon="9.135865375553173"><ele>1003.0</ele><time>2026-05-01T13:35:02Z</time></trkpt><trkpt lat="39.910450308875966" lon="9.135952075630545"><ele>1003.0</ele><time>2026-05-01T13:35:03Z</time></trkpt><trkpt lat="39.910340165290634" lon="9.136085304072436"><ele>1003.0</ele><time>2026-05-01T13:35:04Z</time></trkpt><trkpt lat="39.910240942780085" lon="9.136232377582932"><ele>1003.0</ele><time>2026-05-01T13:35:05Z</time></trkpt><trkpt lat="39.910131990996284" lon="9.136362286181189"><ele>1003.0</ele><time>2026-05-01T13:35:06Z</time></trkpt><trkpt lat="39.91002389069351" lon="9.136478244105634"><ele>1003.0</ele><time>2026-05-01T13:35:07Z</time></trkpt><trkpt lat="39.90989992388306" lon="9.136554693471599"><ele>999.75</ele><time>2026-05-01T13:35:08Z</time></trkpt><trkpt lat="39.90976876096771" lon="9.13659521069378"><ele>996.5</ele><time>2026-05-01T13:35:09.001Z</time></trkpt><trkpt lat="39.90963621427754" lon="9.13659261070306"><ele>993.25</ele><time>2026-05-01T13:35:10.001Z</time></trkpt><trkpt lat="39.909514702646874" lon="9.136639425593424"><ele>990.0</ele><time>2026-05-01T13:35:11.001Z</time></trkpt><trkpt lat="39.909415584606634" lon="9.136761014541648"><ele>990.0</ele><time>2026-05-01T13:35:12.001Z</time></trkpt><trkpt lat="39.909347504192986" lon="9.136922206369915"><ele>990.0</ele><time>2026-05-01T13:35:13.001Z</time></trkpt><trkpt lat="39.90927949786894" lon="9.137092585431962"><ele>990.0</ele><time>2026-05-01T13:35:14.001Z</time></trkpt><trkpt lat="39.90917981377646" lon="9.137243757756048"><ele>990.0</ele><time>2026-05-01T13:35:15.001Z</time></trkpt><trkpt lat="39.90904742392325" lon="9.137363311003408"><ele>987.3333333333333</ele><time>2026-05-01T13:35:16.001Z</time></trkpt><trkpt lat="39.90892400561719" lon="9.137508865465046"><ele>984.6666666666666</ele><time>2026-05-01T13:35:17.001Z</time></trkpt><trkpt lat="39.90878110337012" lon="9.137616381157978"><ele>982.0</ele><time>2026-05-01T13:35:18.001Z</time></trkpt><trkpt lat="39.9086317240683" lon="9.137695220786458"><ele>982.0</ele><time>2026-05-01T13:35:19.001Z</time></trkpt><trkpt lat="39.90849276633718" lon="9.137785089591745"><ele>982.0</ele><time>2026-05-01T13:35:20.001Z</time></trkpt><trkpt lat="39.90838504942278" lon="9.13793030082696"><ele>982.0</ele><time>2026-05-01T13:35:21.001Z</time></trkpt><trkpt lat="39.90831669010596" lon="9.138127116810402"><ele>980.6666666666666</ele><time>2026-05-01T13:35:22.001Z</time></trkpt><trkpt lat="39.908259667809126" lon="9.138332039887095"><ele>979.3333333333333</ele><time>2026-05-01T13:35:23Z</time></trkpt><trkpt lat="39.908175548361314" lon="9.138520399659686"><ele>978.0</ele><time>2026-05-01T13:35:24Z</time></trkpt><trkpt lat="39.90810459689183" lon="9.138726458597997"><ele>978.0</ele><time>2026-05-01T13:35:25Z</time></trkpt><trkpt lat="39.9080191701608" lon="9.138922648615361"><ele>978.0</ele><time>2026-05-01T13:35:26Z</time></trkpt><trkpt lat="39.90793252803969" lon="9.139120829937292"><ele>978.0</ele><time>2026-05-01T13:35:27Z</time></trkpt><trkpt lat="39.90784318073391" lon="9.139309231506784"><ele>979.0</ele><time>2026-05-01T13:35:28Z</time></trkpt><trkpt lat="39.907751297694624" lon="9.139484588837437"><ele>980.0</ele><time>2026-05-01T13:35:29Z</time></trkpt><trkpt lat="39.90765418289552" lon="9.139642305962536"><ele>981.0</ele><time>2026-05-01T13:35:30Z</time></trkpt><trkpt lat="39.907560124463174" lon="9.139778400186048"><ele>977.75</ele><time>2026-05-01T13:35:31Z</time></trkpt><trkpt lat="39.907463956489515" lon="9.139891795063102"><ele>974.5</ele><time>2026-05-01T13:35:32Z</time></trkpt><trkpt lat="39.90735476137903" lon="9.139965631351842"><ele>971.25</ele><time>2026-05-01T13:35:33Z</time></trkpt><trkpt lat="39.90724258027007" lon="9.139969708606097"><ele>968.0</ele><time>2026-05-01T13:35:34Z</time></trkpt><trkpt lat="39.90715096928038" lon="9.139898334668622"><ele>971.25</ele><time>2026-05-01T13:35:35Z</time></trkpt><trkpt lat="39.90711523516875" lon="9.139753725566523"><ele>974.5</ele><time>2026-05-01T13:35:36Z</time></trkpt><trkpt lat="39.90705245420514" lon="9.139606337525594"><ele>977.75</ele><time>2026-05-01T13:35:37Z</time></trkpt><trkpt lat="39.90698285850075" lon="9.139446839385126"><ele>981.0</ele><time>2026-05-01T13:35:38Z</time></trkpt><trkpt lat="39.906903028330255" lon="9.139279039712257"><ele>981.0</ele><time>2026-05-01T13:35:39Z</time></trkpt><trkpt lat="39.9068207384256" lon="9.139094922625668"><ele>981.0</ele><time>2026-05-01T13:35:40Z</time></trkpt><trkpt lat="39.9067397784656" lon="9.138898896928502"><ele>981.0</ele><time>2026-05-01T13:35:41Z</time></trkpt><trkpt lat="39.90665174368437" lon="9.138705230390334"><ele>980.0</ele><time>2026-05-01T13:35:42Z</time></trkpt><trkpt lat="39.90653631522036" lon="9.138531778267586"><ele>979.0</ele><time>2026-05-01T13:35:43Z</time></trkpt><trkpt lat="39.90638367001161" lon="9.138400813238572"><ele>978.0</ele><time>2026-05-01T13:35:44Z</time></trkpt><trkpt lat="39.9062113697397" lon="9.138308532518483"><ele>976.6666666666667</ele><time>2026-05-01T13:35:45Z</time></trkpt><trkpt lat="39.90605015342571" lon="9.138214529517763"><ele>975.3333333333334</ele><time>2026-05-01T13:35:46Z</time></trkpt><trkpt lat="39.90589423628699" lon="9.138129008028256"><ele>974.0</ele><time>2026-05-01T13:35:47Z</time></trkpt><trkpt lat="39.90573808518617" lon="9.138086173416069"><ele>974.0</ele><time>2026-05-01T13:35:48Z</time></trkpt><trkpt lat="39.9055820390748" lon="9.138109397448785"><ele>974.0</ele><time>2026-05-01T13:35:49Z</time></trkpt><trkpt lat="39.905445016859645" lon="9.138158655414442"><ele>974.0</ele><time>2026-05-01T13:35:50Z</time></trkpt><trkpt lat="39.905318407636344" lon="9.138155998887788"><ele>974.0</ele><time>2026-05-01T13:35:51Z</time></trkpt><trkpt lat="39.90521077360249" lon="9.1380608546485"><ele>974.0</ele><time>2026-05-01T13:35:52Z</time></trkpt><trkpt lat="39.90510265176605" lon="9.137954243333175"><ele>974.0</ele><time>2026-05-01T13:35:53Z</time></trkpt><trkpt lat="39.905018271662605" lon="9.137782911328914"><ele>974.0</ele><time>2026-05-01T13:35:54Z</time></trkpt><trkpt lat="39.90495565964325" lon="9.137598570705242"><ele>974.0</ele><time>2026-05-01T13:35:55Z</time></trkpt><trkpt lat="39.90492301708528" lon="9.137392387269493"><ele>967.0</ele><time>2026-05-01T13:35:56Z</time></trkpt><trkpt lat="39.90492812858413" lon="9.13717634849291"><ele>960.0</ele><time>2026-05-01T13:35:57Z</time></trkpt><trkpt lat="39.90495746287128" lon="9.136958122555223"><ele>953.0</ele><time>2026-05-01T13:35:58Z</time></trkpt><trkpt lat="39.904998332063755" lon="9.136740753676833"><ele>950.6666666666667</ele><time>2026-05-01T13:35:59Z</time></trkpt><trkpt lat="39.90505566796808" lon="9.13652832468118"><ele>948.3333333333333</ele><time>2026-05-01T13:36:00Z</time></trkpt><trkpt lat="39.90513256564625" lon="9.136336008366769"><ele>946.0</ele><time>2026-05-01T13:36:01Z</time></trkpt><trkpt lat="39.90521369861713" lon="9.136159440628852"><ele>951.25</ele><time>2026-05-01T13:36:02Z</time></trkpt><trkpt lat="39.9052782775579" lon="9.135991301838116"><ele>956.5</ele><time>2026-05-01T13:36:03Z</time></trkpt><trkpt lat="39.90530875130495" lon="9.135813041886557"><ele>961.75</ele><time>2026-05-01T13:36:04Z</time></trkpt><trkpt lat="39.90528034973773" lon="9.13563030157196"><ele>967.0</ele><time>2026-05-01T13:36:05Z</time></trkpt><trkpt lat="39.905201864990794" lon="9.13546194912757"><ele>967.0</ele><time>2026-05-01T13:36:06Z</time></trkpt><trkpt lat="39.905095107457136" lon="9.135321775148368"><ele>967.0</ele><time>2026-05-01T13:36:07Z</time></trkpt><trkpt lat="39.90500679044702" lon="9.135176110300765"><ele>967.0</ele><time>2026-05-01T13:36:08Z</time></trkpt><trkpt lat="39.9049553907226" lon="9.135002464969265"><ele>967.0</ele><time>2026-05-01T13:36:09Z</time></trkpt><trkpt lat="39.904939502893285" lon="9.134803507945769"><ele>957.3333333333333</ele><time>2026-05-01T13:36:10Z</time></trkpt><trkpt lat="39.904944139184934" lon="9.13460257326831"><ele>947.6666666666667</ele><time>2026-05-01T13:36:11Z</time></trkpt><trkpt lat="39.90497651971417" lon="9.134398509860892"><ele>938.0</ele><time>2026-05-01T13:36:12Z</time></trkpt><trkpt lat="39.905045898321006" lon="9.134200442506433"><ele>935.0</ele><time>2026-05-01T13:36:13Z</time></trkpt><trkpt lat="39.90513758304029" lon="9.134016920801589"><ele>932.0</ele><time>2026-05-01T13:36:14Z</time></trkpt><trkpt lat="39.905252174653306" lon="9.133865569247165"><ele>929.0</ele><time>2026-05-01T13:36:15Z</time></trkpt><trkpt lat="39.90539089734273" lon="9.13374273202903"><ele>929.0</ele><time>2026-05-01T13:36:16Z</time></trkpt><trkpt lat="39.90554057977515" lon="9.133639610214063"><ele>929.0</ele><time>2026-05-01T13:36:17Z</time></trkpt><trkpt lat="39.90569490955399" lon="9.13353948090084"><ele>929.0</ele><time>2026-05-01T13:36:18Z</time></trkpt><trkpt lat="39.90585449047668" lon="9.133440691036297"><ele>925.3333333333334</ele><time>2026-05-01T13:36:19Z</time></trkpt><trkpt lat="39.90601867102443" lon="9.133344036237991"><ele>921.6666666666667</ele><time>2026-05-01T13:36:20Z</time></trkpt><trkpt lat="39.906187352026684" lon="9.133247289697444"><ele>918.0</ele><time>2026-05-01T13:36:21Z</time></trkpt><trkpt lat="39.90635720942529" lon="9.133150285588039"><ele>918.0</ele><time>2026-05-01T13:36:22Z</time></trkpt><trkpt lat="39.906525852667826" lon="9.133048061262677"><ele>918.0</ele><time>2026-05-01T13:36:23Z</time></trkpt><trkpt lat="39.90668902768257" lon="9.132933564931852"><ele>918.0</ele><time>2026-05-01T13:36:24Z</time></trkpt><trkpt lat="39.90684543668782" lon="9.132803065680898"><ele>922.0</ele><time>2026-05-01T13:36:25Z</time></trkpt><trkpt lat="39.906990814090044" lon="9.132661170266596"><ele>926.0</ele><time>2026-05-01T13:36:26Z</time></trkpt><trkpt lat="39.907128373549064" lon="9.132517029868831"><ele>930.0</ele><time>2026-05-01T13:36:27Z</time></trkpt><trkpt lat="39.907258275523155" lon="9.132392901596065"><ele>923.3333333333333</ele><time>2026-05-01T13:36:28Z</time></trkpt><trkpt lat="39.9073946283189" lon="9.132302057982375"><ele>916.6666666666666</ele><time>2026-05-01T13:36:29Z</time></trkpt><trkpt lat="39.907544546068884" lon="9.132255667413963"><ele>910.0</ele><time>2026-05-01T13:36:30Z</time></trkpt><trkpt lat="39.907697504519994" lon="9.132261961986496"><ele>910.0</ele><time>2026-05-01T13:36:31Z</time></trkpt><trkpt lat="39.90784577297946" lon="9.13232471992196"><ele>910.0</ele><time>2026-05-01T13:36:32Z</time></trkpt><trkpt lat="39.90797940141979" lon="9.132396824314862"><ele>910.0</ele><time>2026-05-01T13:36:33Z</time></trkpt><trkpt lat="39.90810733769878" lon="9.13242252397037"><ele>910.0</ele><time>2026-05-01T13:36:34Z</time></trkpt><trkpt lat="39.908218842394014" lon="9.132381464942576"><ele>910.0</ele><time>2026-05-01T13:36:35Z</time></trkpt><trkpt lat="39.9083059072809" lon="9.132268433350806"><ele>910.0</ele><time>2026-05-01T13:36:36Z</time></trkpt><trkpt lat="39.90835730138149" lon="9.132101706870605"><ele>910.0</ele><time>2026-05-01T13:36:37Z</time></trkpt><trkpt lat="39.908398474594485" lon="9.131915570854098"><ele>910.0</ele><time>2026-05-01T13:36:38Z</time></trkpt><trkpt lat="39.908470831392044" lon="9.131742508245534"><ele>910.0</ele><time>2026-05-01T13:36:39Z</time></trkpt><trkpt lat="39.90856683084356" lon="9.131577830066325"><ele>910.0</ele><time>2026-05-01T13:36:40Z</time></trkpt><trkpt lat="39.90868362005623" lon="9.131433829642107"><ele>910.0</ele><time>2026-05-01T13:36:41Z</time></trkpt><trkpt lat="39.90881954303313" lon="9.131315316190124"><ele>910.0</ele><time>2026-05-01T13:36:42Z</time></trkpt><trkpt lat="39.90895935137857" lon="9.131202006604587"><ele>910.0</ele><time>2026-05-01T13:36:43Z</time></trkpt><trkpt lat="39.90908874287786" lon="9.131082522471086"><ele>910.0</ele><time>2026-05-01T13:36:44Z</time></trkpt><trkpt lat="39.90918907896751" lon="9.130928558283086"><ele>914.3333333333333</ele><time>2026-05-01T13:36:45Z</time></trkpt><trkpt lat="39.9092615286405" lon="9.130734246267032"><ele>918.6666666666667</ele><time>2026-05-01T13:36:46Z</time></trkpt><trkpt lat="39.909329848510694" lon="9.130531912129308"><ele>923.0</ele><time>2026-05-01T13:36:47Z</time></trkpt><trkpt lat="39.90939361848807" lon="9.130335459738173"><ele>923.0</ele><time>2026-05-01T13:36:48Z</time></trkpt><trkpt lat="39.90942733541627" lon="9.130130033038105"><ele>923.0</ele><time>2026-05-01T13:36:49Z</time></trkpt><trkpt lat="39.909407993006496" lon="9.12991755524125"><ele>923.0</ele><time>2026-05-01T13:36:50Z</time></trkpt><trkpt lat="39.90936352072438" lon="9.12971619761235"><ele>918.5</ele><time>2026-05-01T13:36:51Z</time></trkpt><trkpt lat="39.90931040359287" lon="9.129530920989005"><ele>914.0</ele><time>2026-05-01T13:36:52Z</time></trkpt><trkpt lat="39.909251807396046" lon="9.129369214470943"><ele>909.5</ele><time>2026-05-01T13:36:53Z</time></trkpt><trkpt lat="39.909220698035035" lon="9.12922597217776"><ele>905.0</ele><time>2026-05-01T13:36:54Z</time></trkpt><trkpt lat="39.90923659769419" lon="9.129092914613576"><ele>901.0</ele><time>2026-05-01T13:36:55Z</time></trkpt><trkpt lat="39.909309911513546" lon="9.128997840393318"><ele>897.0</ele><time>2026-05-01T13:36:56Z</time></trkpt><trkpt lat="39.90941619170901" lon="9.128967594228406"><ele>893.0</ele><time>2026-05-01T13:36:57Z</time></trkpt><trkpt lat="39.90953971240127" lon="9.128981423779392"><ele>889.0</ele><time>2026-05-01T13:36:58Z</time></trkpt><trkpt lat="39.909679682143704" lon="9.12900178096808"><ele>889.0</ele><time>2026-05-01T13:36:59Z</time></trkpt><trkpt lat="39.909830503526614" lon="9.12901196612734"><ele>889.0</ele><time>2026-05-01T13:37:00Z</time></trkpt><trkpt lat="39.90997763331521" lon="9.129023454261622"><ele>889.0</ele><time>2026-05-01T13:37:01Z</time></trkpt><trkpt lat="39.910126840815494" lon="9.129042428955126"><ele>889.0</ele><time>2026-05-01T13:37:02Z</time></trkpt><trkpt lat="39.910267735848656" lon="9.129050625820346"><ele>896.75</ele><time>2026-05-01T13:37:03Z</time></trkpt><trkpt lat="39.91039087530246" lon="9.129017138655339"><ele>904.5</ele><time>2026-05-01T13:37:04Z</time></trkpt><trkpt lat="39.9104806754739" lon="9.128928690675805"><ele>912.25</ele><time>2026-05-01T13:37:05Z</time></trkpt><trkpt lat="39.9105258323151" lon="9.128791567684944"><ele>920.0</ele><time>2026-05-01T13:37:06Z</time></trkpt><trkpt lat="39.910506059761836" lon="9.12863902155215"><ele>920.0</ele><time>2026-05-01T13:37:07Z</time></trkpt><trkpt lat="39.91042521366909" lon="9.128509536033373"><ele>920.0</ele><time>2026-05-01T13:37:08Z</time></trkpt><trkpt lat="39.910314215119314" lon="9.12840395394239"><ele>920.0</ele><time>2026-05-01T13:37:09Z</time></trkpt><trkpt lat="39.91020477914787" lon="9.128286898773506"><ele>920.0</ele><time>2026-05-01T13:37:10Z</time></trkpt><trkpt lat="39.910115218144" lon="9.128128531476527"><ele>922.3333333333334</ele><time>2026-05-01T13:37:11Z</time></trkpt><trkpt lat="39.91009566242037" lon="9.127929207675596"><ele>924.6666666666667</ele><time>2026-05-01T13:37:12Z</time></trkpt><trkpt lat="39.91009083258896" lon="9.12772174116662"><ele>927.0</ele><time>2026-05-01T13:37:13Z</time></trkpt><trkpt lat="39.91006705316974" lon="9.127517522260595"><ele>920.25</ele><time>2026-05-01T13:37:14Z</time></trkpt><trkpt lat="39.91003352563394" lon="9.127312955010176"><ele>913.5</ele><time>2026-05-01T13:37:15Z</time></trkpt><trkpt lat="39.90995782264665" lon="9.127145572302899"><ele>906.75</ele><time>2026-05-01T13:37:16Z</time></trkpt><trkpt lat="39.90985129215615" lon="9.127041591036404"><ele>900.0</ele><time>2026-05-01T13:37:17Z</time></trkpt><trkpt lat="39.909722453146095" lon="9.126989487467931"><ele>900.0</ele><time>2026-05-01T13:37:18Z</time></trkpt><trkpt lat="39.909612398708475" lon="9.126906439411655"><ele>900.0</ele><time>2026-05-01T13:37:19Z</time></trkpt><trkpt lat="39.90954700722154" lon="9.12675607794379"><ele>900.0</ele><time>2026-05-01T13:37:20Z</time></trkpt><trkpt lat="39.90951245322568" lon="9.12657379934991"><ele>900.0</ele><time>2026-05-01T13:37:21Z</time></trkpt><trkpt lat="39.90948105390466" lon="9.126385136221542"><ele>901.0</ele><time>2026-05-01T13:37:22Z</time></trkpt><trkpt lat="39.909445098656334" lon="9.12619182845098"><ele>902.0</ele><time>2026-05-01T13:37:23Z</time></trkpt><trkpt lat="39.909408321589865" lon="9.125999584352758"><ele>903.0</ele><time>2026-05-01T13:37:24Z</time></trkpt><trkpt lat="39.90937758590438" lon="9.12580936205674"><ele>900.5</ele><time>2026-05-01T13:37:25Z</time></trkpt><trkpt lat="39.90937188061273" lon="9.12561825280915"><ele>898.0</ele><time>2026-05-01T13:37:26Z</time></trkpt><trkpt lat="39.90941723969429" lon="9.125437589326241"><ele>895.5</ele><time>2026-05-01T13:37:27Z</time></trkpt><trkpt lat="39.90948624984662" lon="9.125261665232479"><ele>893.0</ele><time>2026-05-01T13:37:28Z</time></trkpt><trkpt lat="39.90954789679515" lon="9.125078313090002"><ele>887.6666666666667</ele><time>2026-05-01T13:37:29Z</time></trkpt><trkpt lat="39.90959054424221" lon="9.12488315450218"><ele>882.3333333333333</ele><time>2026-05-01T13:37:30Z</time></trkpt><trkpt lat="39.90961455013471" lon="9.124684970176245"><ele>877.0</ele><time>2026-05-01T13:37:31Z</time></trkpt><trkpt lat="39.909659984719" lon="9.124495485676965"><ele>877.0</ele><time>2026-05-01T13:37:32Z</time></trkpt><trkpt lat="39.909749700145404" lon="9.124319871804412"><ele>877.0</ele><time>2026-05-01T13:37:33Z</time></trkpt><trkpt lat="39.909861910352646" lon="9.124162855329121"><ele>877.0</ele><time>2026-05-01T13:37:34Z</time></trkpt><trkpt lat="39.909974962471324" lon="9.123999210568547"><ele>876.6666666666666</ele><time>2026-05-01T13:37:35Z</time></trkpt><trkpt lat="39.910065718658885" lon="9.123817694768682"><ele>876.3333333333333</ele><time>2026-05-01T13:37:36Z</time></trkpt><trkpt lat="39.91015249888317" lon="9.123631373356503"><ele>876.0</ele><time>2026-05-01T13:37:37Z</time></trkpt><trkpt lat="39.9102586225675" lon="9.123468426393586"><ele>876.0</ele><time>2026-05-01T13:37:38Z</time></trkpt><trkpt lat="39.9103992007925" lon="9.123330299533748"><ele>876.0</ele><time>2026-05-01T13:37:39Z</time></trkpt><trkpt lat="39.91055486641632" lon="9.123206116262862"><ele>876.0</ele><time>2026-05-01T13:37:40Z</time></trkpt><trkpt lat="39.91070923793821" lon="9.12306611663793"><ele>872.3333333333333</ele><time>2026-05-01T13:37:41Z</time></trkpt><trkpt lat="39.91085804682302" lon="9.122909396148964"><ele>868.6666666666666</ele><time>2026-05-01T13:37:42Z</time></trkpt><trkpt lat="39.91100347646334" lon="9.122744931789962"><ele>865.0</ele><time>2026-05-01T13:37:43Z</time></trkpt><trkpt lat="39.91115282674965" lon="9.122585227873262"><ele>865.0</ele><time>2026-05-01T13:37:44Z</time></trkpt><trkpt lat="39.91131012456046" lon="9.122445750037143"><ele>865.0</ele><time>2026-05-01T13:37:45Z</time></trkpt><trkpt lat="39.911477549615356" lon="9.12233555638332"><ele>865.0</ele><time>2026-05-01T13:37:46Z</time></trkpt><trkpt lat="39.91165240914111" lon="9.122248398934758"><ele>857.6666666666666</ele><time>2026-05-01T13:37:47Z</time></trkpt><trkpt lat="39.91183385377001" lon="9.12218411972884"><ele>850.3333333333333</ele><time>2026-05-01T13:37:48Z</time></trkpt><trkpt lat="39.91201311305958" lon="9.122159201604346"><ele>843.0</ele><time>2026-05-01T13:37:49Z</time></trkpt><trkpt lat="39.91216721410587" lon="9.12217178878891"><ele>843.0</ele><time>2026-05-01T13:37:50Z</time></trkpt><trkpt lat="39.91229368131646" lon="9.122209009021923"><ele>843.0</ele><time>2026-05-01T13:37:51Z</time></trkpt><trkpt lat="39.91239771326861" lon="9.122217054544072"><ele>843.0</ele><time>2026-05-01T13:37:52Z</time></trkpt><trkpt lat="39.91247612291675" lon="9.122154137097457"><ele>843.0</ele><time>2026-05-01T13:37:53Z</time></trkpt><trkpt lat="39.91250854562634" lon="9.122034626843224"><ele>843.0</ele><time>2026-05-01T13:37:54Z</time></trkpt><trkpt lat="39.912477312291" lon="9.121906226278966"><ele>843.0</ele><time>2026-05-01T13:37:55Z</time></trkpt><trkpt lat="39.91239551176216" lon="9.121824060255364"><ele>843.0</ele><time>2026-05-01T13:37:56Z</time></trkpt><trkpt lat="39.912279420786724" lon="9.121796894844673"><ele>843.0</ele><time>2026-05-01T13:37:57Z</time></trkpt><trkpt lat="39.91215264721045" lon="9.121784994122136"><ele>843.0</ele><time>2026-05-01T13:37:58Z</time></trkpt><trkpt lat="39.91201489156358" lon="9.121761777510706"><ele>843.0</ele><time>2026-05-01T13:37:59Z</time></trkpt><trkpt lat="39.91186598147871" lon="9.121748005309152"><ele>843.0</ele><time>2026-05-01T13:38:00Z</time></trkpt><trkpt lat="39.91170599108109" lon="9.121766791332158"><ele>843.0</ele><time>2026-05-01T13:38:01Z</time></trkpt><trkpt lat="39.911543397367105" lon="9.121805772948994"><ele>845.0</ele><time>2026-05-01T13:38:02Z</time></trkpt><trkpt lat="39.91137835452059" lon="9.121848076696297"><ele>847.0</ele><time>2026-05-01T13:38:03Z</time></trkpt><trkpt lat="39.911236724055236" lon="9.12196893891384"><ele>849.0</ele><time>2026-05-01T13:38:04Z</time></trkpt><trkpt lat="39.91108708136687" lon="9.122066488490965"><ele>849.0</ele><time>2026-05-01T13:38:05Z</time></trkpt><trkpt lat="39.91094309648767" lon="9.122166926111165"><ele>849.0</ele><time>2026-05-01T13:38:06Z</time></trkpt><trkpt lat="39.91079152994744" lon="9.12226254033583"><ele>849.0</ele><time>2026-05-01T13:38:07Z</time></trkpt><trkpt lat="39.91063166686707" lon="9.122306107872513"><ele>845.6666666666667</ele><time>2026-05-01T13:38:08Z</time></trkpt><trkpt lat="39.91047253614539" lon="9.122306546299189"><ele>842.3333333333334</ele><time>2026-05-01T13:38:09Z</time></trkpt><trkpt lat="39.9103250979657" lon="9.122245991254564"><ele>839.0</ele><time>2026-05-01T13:38:10Z</time></trkpt><trkpt lat="39.91020254076102" lon="9.122130317706228"><ele>839.0</ele><time>2026-05-01T13:38:11Z</time></trkpt><trkpt lat="39.91012643050797" lon="9.121968113611683"><ele>839.0</ele><time>2026-05-01T13:38:12Z</time></trkpt><trkpt lat="39.91011456062917" lon="9.121788314223688"><ele>839.0</ele><time>2026-05-01T13:38:13Z</time></trkpt><trkpt lat="39.910069633866364" lon="9.1216531653087"><ele>839.0</ele><time>2026-05-01T13:38:14Z</time></trkpt><trkpt lat="39.909970345698646" lon="9.121585516641987"><ele>839.25</ele><time>2026-05-01T13:38:15Z</time></trkpt><trkpt lat="39.9098680705023" lon="9.121559153735275"><ele>839.5</ele><time>2026-05-01T13:38:16Z</time></trkpt><trkpt lat="39.90977077555298" lon="9.12165901526463"><ele>839.75</ele><time>2026-05-01T13:38:17Z</time></trkpt><trkpt lat="39.90967886474753" lon="9.121771475994832"><ele>840.0</ele><time>2026-05-01T13:38:18Z</time></trkpt><trkpt lat="39.90963014112808" lon="9.121942845049615"><ele>840.0</ele><time>2026-05-01T13:38:19Z</time></trkpt><trkpt lat="39.90956919786646" lon="9.122118322460059"><ele>840.0</ele><time>2026-05-01T13:38:20Z</time></trkpt><trkpt lat="39.90950751918854" lon="9.122296470969781"><ele>840.0</ele><time>2026-05-01T13:38:21Z</time></trkpt><trkpt lat="39.909448380149485" lon="9.122471351820584"><ele>840.0</ele><time>2026-05-01T13:38:22Z</time></trkpt><trkpt lat="39.909390715221186" lon="9.122636362678708"><ele>838.75</ele><time>2026-05-01T13:38:23Z</time></trkpt><trkpt lat="39.90931179775293" lon="9.122777078868197"><ele>837.5</ele><time>2026-05-01T13:38:24Z</time></trkpt><trkpt lat="39.90919685857338" lon="9.12285453915438"><ele>836.25</ele><time>2026-05-01T13:38:25Z</time></trkpt><trkpt lat="39.90907006286356" lon="9.122803265164595"><ele>835.0</ele><time>2026-05-01T13:38:26Z</time></trkpt><trkpt lat="39.908951572817884" lon="9.122763115541265"><ele>835.0</ele><time>2026-05-01T13:38:27Z</time></trkpt><trkpt lat="39.90882099401014" lon="9.122755410398838"><ele>835.0</ele><time>2026-05-01T13:38:28Z</time></trkpt><trkpt lat="39.908689366317624" lon="9.122783922930315"><ele>835.0</ele><time>2026-05-01T13:38:29Z</time></trkpt><trkpt lat="39.90857516542511" lon="9.122871347930053"><ele>835.0</ele><time>2026-05-01T13:38:30Z</time></trkpt><trkpt lat="39.90849215712214" lon="9.123013385548976"><ele>835.0</ele><time>2026-05-01T13:38:31Z</time></trkpt><trkpt lat="39.90845423999848" lon="9.123191019760915"><ele>835.0</ele><time>2026-05-01T13:38:32Z</time></trkpt><trkpt lat="39.908461241978245" lon="9.123378234996336"><ele>835.0</ele><time>2026-05-01T13:38:33Z</time></trkpt><trkpt lat="39.90848294478567" lon="9.12355951571379"><ele>835.0</ele><time>2026-05-01T13:38:34Z</time></trkpt><trkpt lat="39.90847007200303" lon="9.123738571961319"><ele>835.25</ele><time>2026-05-01T13:38:35Z</time></trkpt><trkpt lat="39.9083972168555" lon="9.123901169098241"><ele>835.5</ele><time>2026-05-01T13:38:36Z</time></trkpt><trkpt lat="39.908261424640784" lon="9.123979988723065"><ele>835.75</ele><time>2026-05-01T13:38:37Z</time></trkpt><trkpt lat="39.908133694830084" lon="9.124086934548446"><ele>836.0</ele><time>2026-05-01T13:38:38Z</time></trkpt><trkpt lat="39.907998730593725" lon="9.1241767865508"><ele>836.0</ele><time>2026-05-01T13:38:39Z</time></trkpt><trkpt lat="39.90786329738277" lon="9.124280428435616"><ele>836.0</ele><time>2026-05-01T13:38:40Z</time></trkpt><trkpt lat="39.90772766070545" lon="9.124387680138504"><ele>836.0</ele><time>2026-05-01T13:38:41Z</time></trkpt><trkpt lat="39.907585163458485" lon="9.1244679253282"><ele>832.0</ele><time>2026-05-01T13:38:42Z</time></trkpt><trkpt lat="39.90746000176427" lon="9.124565901587786"><ele>828.0</ele><time>2026-05-01T13:38:43Z</time></trkpt><trkpt lat="39.90731967624118" lon="9.124601387383569"><ele>824.0</ele><time>2026-05-01T13:38:44Z</time></trkpt><trkpt lat="39.907176037265636" lon="9.124570925577945"><ele>820.0</ele><time>2026-05-01T13:38:45Z</time></trkpt><trkpt lat="39.907035045970886" lon="9.124489839196778"><ele>820.0</ele><time>2026-05-01T13:38:46Z</time></trkpt><trkpt lat="39.90692941392414" lon="9.12433821119078"><ele>820.0</ele><time>2026-05-01T13:38:47Z</time></trkpt><trkpt lat="39.90686137287322" lon="9.12415825981667"><ele>820.0</ele><time>2026-05-01T13:38:48Z</time></trkpt><trkpt lat="39.90678999304934" lon="9.123965626339178"><ele>817.6666666666666</ele><time>2026-05-01T13:38:49Z</time></trkpt><trkpt lat="39.90674518079948" lon="9.123759611108985"><ele>815.3333333333333</ele><time>2026-05-01T13:38:50Z</time></trkpt><trkpt lat="39.906698263132775" lon="9.123564318814026"><ele>813.0</ele><time>2026-05-01T13:38:51Z</time></trkpt><trkpt lat="39.906649054774896" lon="9.12338693282345"><ele>813.0</ele><time>2026-05-01T13:38:52Z</time></trkpt><trkpt lat="39.90657533888212" lon="9.123245245018522"><ele>813.0</ele><time>2026-05-01T13:38:53.001Z</time></trkpt><trkpt lat="39.90647141456171" lon="9.123155780862508"><ele>813.0</ele><time>2026-05-01T13:38:54.001Z</time></trkpt><trkpt lat="39.906351887449674" lon="9.123141756968675"><ele>813.0</ele><time>2026-05-01T13:38:55.001Z</time></trkpt><trkpt lat="39.906232729305536" lon="9.123202079024088"><ele>813.0</ele><time>2026-05-01T13:38:56.001Z</time></trkpt><trkpt lat="39.90612870797288" lon="9.12332428008304"><ele>813.0</ele><time>2026-05-01T13:38:57.001Z</time></trkpt><trkpt lat="39.90603320233214" lon="9.123475322513121"><ele>813.0</ele><time>2026-05-01T13:38:58.001Z</time></trkpt><trkpt lat="39.905925633708016" lon="9.123626017253263"><ele>813.0</ele><time>2026-05-01T13:38:59.001Z</time></trkpt><trkpt lat="39.905799916885094" lon="9.123765160074928"><ele>814.6666666666667</ele><time>2026-05-01T13:39:00.001Z</time></trkpt><trkpt lat="39.905654823580996" lon="9.123891249261572"><ele>816.3333333333334</ele><time>2026-05-01T13:39:01.001Z</time></trkpt><trkpt lat="39.90549807121267" lon="9.124013949168496"><ele>818.0</ele><time>2026-05-01T13:39:02.001Z</time></trkpt><trkpt lat="39.90534379043761" lon="9.124141245446072"><ele>818.0</ele><time>2026-05-01T13:39:03.001Z</time></trkpt><trkpt lat="39.90519735739065" lon="9.124271233894818"><ele>818.0</ele><time>2026-05-01T13:39:04.001Z</time></trkpt><trkpt lat="39.9050622015948" lon="9.12440776101199"><ele>818.0</ele><time>2026-05-01T13:39:05.001Z</time></trkpt><trkpt lat="39.904944423742" lon="9.124543777488455"><ele>815.75</ele><time>2026-05-01T13:39:06.001Z</time></trkpt><trkpt lat="39.90482548182811" lon="9.124649155268141"><ele>813.5</ele><time>2026-05-01T13:39:07.001Z</time></trkpt><trkpt lat="39.904698715453826" lon="9.124686317287331"><ele>811.25</ele><time>2026-05-01T13:39:08.001Z</time></trkpt><trkpt lat="39.90457774416551" lon="9.124644368685939"><ele>809.0</ele><time>2026-05-01T13:39:09.001Z</time></trkpt><trkpt lat="39.90448738300605" lon="9.124507678965536"><ele>809.0</ele><time>2026-05-01T13:39:10.001Z</time></trkpt><trkpt lat="39.90438171934817" lon="9.124358356355167"><ele>809.0</ele><time>2026-05-01T13:39:11.001Z</time></trkpt><trkpt lat="39.904290254992574" lon="9.124180814908142"><ele>809.0</ele><time>2026-05-01T13:39:12.001Z</time></trkpt><trkpt lat="39.90420700702691" lon="9.123992157312033"><ele>807.0</ele><time>2026-05-01T13:39:13.001Z</time></trkpt><trkpt lat="39.904139301868106" lon="9.123804390881181"><ele>805.0</ele><time>2026-05-01T13:39:14.001Z</time></trkpt><trkpt lat="39.904091689882684" lon="9.12360432631425"><ele>803.0</ele><time>2026-05-01T13:39:15.001Z</time></trkpt><trkpt lat="39.90407369250484" lon="9.12340486633572"><ele>802.25</ele><time>2026-05-01T13:39:16.001Z</time></trkpt><trkpt lat="39.90407329843389" lon="9.123207500477154"><ele>801.5</ele><time>2026-05-01T13:39:17.001Z</time></trkpt><trkpt lat="39.90405829958923" lon="9.123019767695634"><ele>800.75</ele><time>2026-05-01T13:39:18.001Z</time></trkpt><trkpt lat="39.903999402963436" lon="9.1228611276191"><ele>800.0</ele><time>2026-05-01T13:39:19.001Z</time></trkpt><trkpt lat="39.90390711908907" lon="9.122748555859669"><ele>800.0</ele><time>2026-05-01T13:39:20.001Z</time></trkpt><trkpt lat="39.903819492276355" lon="9.122655258207814"><ele>800.0</ele><time>2026-05-01T13:39:21.001Z</time></trkpt><trkpt lat="39.90375126846976" lon="9.122560452675726"><ele>800.0</ele><time>2026-05-01T13:39:22.001Z</time></trkpt><trkpt lat="39.903699805234446" lon="9.122459726633712"><ele>800.0</ele><time>2026-05-01T13:39:23.001Z</time></trkpt><trkpt lat="39.90365711969092" lon="9.122395562651635"><ele>800.0</ele><time>2026-05-01T13:39:24.001Z</time></trkpt><trkpt lat="39.90356412562323" lon="9.122306742627561"><ele>799.5</ele><time>2026-05-01T13:39:26.001Z</time></trkpt><trkpt lat="39.903433333444006" lon="9.122365156499397"><ele>799.0</ele><time>2026-05-01T13:39:27.001Z</time></trkpt><trkpt lat="39.90332201493461" lon="9.12239637611596"><ele>798.5</ele><time>2026-05-01T13:39:28.001Z</time></trkpt><trkpt lat="39.90319765765703" lon="9.12241965836669"><ele>798.0</ele><time>2026-05-01T13:39:29.001Z</time></trkpt><trkpt lat="39.903068165401905" lon="9.122426714565401"><ele>798.5</ele><time>2026-05-01T13:39:30.001Z</time></trkpt><trkpt lat="39.90293092887038" lon="9.122387116982177"><ele>799.0</ele><time>2026-05-01T13:39:31.001Z</time></trkpt><trkpt lat="39.90281778399561" lon="9.122267198461543"><ele>799.5</ele><time>2026-05-01T13:39:32.001Z</time></trkpt><trkpt lat="39.902692472030104" lon="9.122164167823314"><ele>800.0</ele><time>2026-05-01T13:39:33.001Z</time></trkpt><trkpt lat="39.902572243306196" lon="9.12203017257753"><ele>800.0</ele><time>2026-05-01T13:39:34.001Z</time></trkpt><trkpt lat="39.90244146847129" lon="9.121890584684065"><ele>800.0</ele><time>2026-05-01T13:39:35Z</time></trkpt><trkpt lat="39.90230140935983" lon="9.121752015621775"><ele>800.0</ele><time>2026-05-01T13:39:36Z</time></trkpt><trkpt lat="39.90215398116177" lon="9.121612202737765"><ele>800.0</ele><time>2026-05-01T13:39:37Z</time></trkpt><trkpt lat="39.902005738122625" lon="9.121467503952482"><ele>800.0</ele><time>2026-05-01T13:39:38Z</time></trkpt><trkpt lat="39.901855560670334" lon="9.121315273489996"><ele>800.0</ele><time>2026-05-01T13:39:39Z</time></trkpt><trkpt lat="39.90170360718933" lon="9.12115809873914"><ele>800.0</ele><time>2026-05-01T13:39:40Z</time></trkpt><trkpt lat="39.90154819806154" lon="9.120998457817503"><ele>800.0</ele><time>2026-05-01T13:39:41Z</time></trkpt><trkpt lat="39.9013941952836" lon="9.120841092554757"><ele>800.0</ele><time>2026-05-01T13:39:42Z</time></trkpt><trkpt lat="39.901241249026825" lon="9.120689581374325"><ele>801.0</ele><time>2026-05-01T13:39:43Z</time></trkpt><trkpt lat="39.901087071985124" lon="9.120537706443733"><ele>802.0</ele><time>2026-05-01T13:39:44Z</time></trkpt><trkpt lat="39.900936905460945" lon="9.12038978802068"><ele>803.0</ele><time>2026-05-01T13:39:45Z</time></trkpt><trkpt lat="39.90078828240978" lon="9.120240060407694"><ele>803.0</ele><time>2026-05-01T13:39:46Z</time></trkpt><trkpt lat="39.90064116747683" lon="9.120086674483261"><ele>803.0</ele><time>2026-05-01T13:39:47Z</time></trkpt><trkpt lat="39.90049348404712" lon="9.119929193471714"><ele>803.0</ele><time>2026-05-01T13:39:48Z</time></trkpt><trkpt lat="39.90034512694328" lon="9.119774984474201"><ele>803.6666666666667</ele><time>2026-05-01T13:39:49Z</time></trkpt><trkpt lat="39.90019161880441" lon="9.11962083356874"><ele>804.3333333333333</ele><time>2026-05-01T13:39:50Z</time></trkpt><trkpt lat="39.90003576374684" lon="9.119468684654958"><ele>805.0</ele><time>2026-05-01T13:39:51Z</time></trkpt><trkpt lat="39.899880234920275" lon="9.119315012260762"><ele>805.0</ele><time>2026-05-01T13:39:52Z</time></trkpt><trkpt lat="39.89972716101803" lon="9.119160102071266"><ele>805.0</ele><time>2026-05-01T13:39:53Z</time></trkpt><trkpt lat="39.899578852095416" lon="9.119004660769585"><ele>805.0</ele><time>2026-05-01T13:39:54Z</time></trkpt><trkpt lat="39.899431583507955" lon="9.118848459324484"><ele>807.6666666666666</ele><time>2026-05-01T13:39:55Z</time></trkpt><trkpt lat="39.89928681931893" lon="9.11870698593618"><ele>810.3333333333333</ele><time>2026-05-01T13:39:56Z</time></trkpt><trkpt lat="39.899130658928634" lon="9.118601054366332"><ele>813.0</ele><time>2026-05-01T13:39:57Z</time></trkpt><trkpt lat="39.89895079477014" lon="9.118546335900156"><ele>813.0</ele><time>2026-05-01T13:39:58Z</time></trkpt><trkpt lat="39.8987579298393" lon="9.118533691498847"><ele>813.0</ele><time>2026-05-01T13:39:59Z</time></trkpt><trkpt lat="39.89856321317006" lon="9.118522124896579"><ele>813.0</ele><time>2026-05-01T13:40:00Z</time></trkpt><trkpt lat="39.89836480341613" lon="9.118504847798663"><ele>814.0</ele><time>2026-05-01T13:40:01Z</time></trkpt><trkpt lat="39.898164602226366" lon="9.118486725723443"><ele>815.0</ele><time>2026-05-01T13:40:02Z</time></trkpt><trkpt lat="39.89796262270435" lon="9.118468979025627"><ele>816.0</ele><time>2026-05-01T13:40:03Z</time></trkpt><trkpt lat="39.897757769772355" lon="9.11845119575803"><ele>818.0</ele><time>2026-05-01T13:40:04Z</time></trkpt><trkpt lat="39.897551075666215" lon="9.118433927457467"><ele>820.0</ele><time>2026-05-01T13:40:05Z</time></trkpt><trkpt lat="39.89734126816186" lon="9.118417044594981"><ele>822.0</ele><time>2026-05-01T13:40:06Z</time></trkpt><trkpt lat="39.897129438462194" lon="9.11839870216168"><ele>822.0</ele><time>2026-05-01T13:40:07Z</time></trkpt><trkpt lat="39.896915586274666" lon="9.118378353467008"><ele>822.0</ele><time>2026-05-01T13:40:08Z</time></trkpt><trkpt lat="39.89670472535684" lon="9.118358720765384"><ele>822.0</ele><time>2026-05-01T13:40:09Z</time></trkpt><trkpt lat="39.896497525517994" lon="9.118340047823201"><ele>822.6666666666667</ele><time>2026-05-01T13:40:10Z</time></trkpt><trkpt lat="39.89629203857389" lon="9.118322403534009"><ele>823.3333333333334</ele><time>2026-05-01T13:40:11Z</time></trkpt><trkpt lat="39.89608729660266" lon="9.118305455331026"><ele>824.0</ele><time>2026-05-01T13:40:12Z</time></trkpt><trkpt lat="39.89587788174252" lon="9.118293170236223"><ele>825.0</ele><time>2026-05-01T13:40:13Z</time></trkpt><trkpt lat="39.89566691423767" lon="9.118269196986887"><ele>826.0</ele><time>2026-05-01T13:40:14Z</time></trkpt><trkpt lat="39.89544913979284" lon="9.118279140164253"><ele>827.0</ele><time>2026-05-01T13:40:15Z</time></trkpt><trkpt lat="39.89523139000288" lon="9.118301990864788"><ele>828.0</ele><time>2026-05-01T13:40:16Z</time></trkpt><trkpt lat="39.895009061914095" lon="9.118331189749156"><ele>829.0</ele><time>2026-05-01T13:40:17Z</time></trkpt><trkpt lat="39.89478928637241" lon="9.118360197437655"><ele>830.0</ele><time>2026-05-01T13:40:18Z</time></trkpt><trkpt lat="39.89457074200759" lon="9.118409845743674"><ele>830.0</ele><time>2026-05-01T13:40:19Z</time></trkpt><trkpt lat="39.894350320421374" lon="9.118436200480787"><ele>830.0</ele><time>2026-05-01T13:40:20Z</time></trkpt><trkpt lat="39.89413318508412" lon="9.1184619752157"><ele>830.0</ele><time>2026-05-01T13:40:21Z</time></trkpt><trkpt lat="39.893915649895874" lon="9.118489207310377"><ele>831.3333333333334</ele><time>2026-05-01T13:40:22Z</time></trkpt><trkpt lat="39.893700724461176" lon="9.118517959935437"><ele>832.6666666666667</ele><time>2026-05-01T13:40:23Z</time></trkpt><trkpt lat="39.89348689770589" lon="9.118547218193878"><ele>834.0</ele><time>2026-05-01T13:40:24Z</time></trkpt><trkpt lat="39.89327318760264" lon="9.118576495596683"><ele>835.0</ele><time>2026-05-01T13:40:25Z</time></trkpt><trkpt lat="39.8930590556856" lon="9.11860692973883"><ele>836.0</ele><time>2026-05-01T13:40:26Z</time></trkpt><trkpt lat="39.89284742555632" lon="9.118614830417547"><ele>837.0</ele><time>2026-05-01T13:40:27Z</time></trkpt><trkpt lat="39.89264117869924" lon="9.11864213670025"><ele>837.3333333333333</ele><time>2026-05-01T13:40:28Z</time></trkpt><trkpt lat="39.892445439110965" lon="9.118667721426513"><ele>837.6666666666666</ele><time>2026-05-01T13:40:29Z</time></trkpt><trkpt lat="39.89226565671214" lon="9.118712400747741"><ele>838.0</ele><time>2026-05-01T13:40:30Z</time></trkpt><trkpt lat="39.89209099789449" lon="9.118734367732136"><ele>838.0</ele><time>2026-05-01T13:40:31Z</time></trkpt><trkpt lat="39.89192396990177" lon="9.118754870104366"><ele>838.0</ele><time>2026-05-01T13:40:32Z</time></trkpt><trkpt lat="39.891767310936906" lon="9.118773953088914"><ele>838.0</ele><time>2026-05-01T13:40:33Z</time></trkpt><trkpt lat="39.891616667133704" lon="9.118792386615544"><ele>838.0</ele><time>2026-05-01T13:40:34Z</time></trkpt><trkpt lat="39.89148008275356" lon="9.118811630861856"><ele>838.0</ele><time>2026-05-01T13:40:35Z</time></trkpt><trkpt lat="39.89136408279499" lon="9.118832928815014"><ele>838.0</ele><time>2026-05-01T13:40:36Z</time></trkpt><trkpt lat="39.89126718843536" lon="9.118827244626743"><ele>838.0</ele><time>2026-05-01T13:40:37Z</time></trkpt><trkpt lat="39.89118413015234" lon="9.11883851635926"><ele>838.0</ele><time>2026-05-01T13:40:38Z</time></trkpt><trkpt lat="39.89111278110141" lon="9.118848199191186"><ele>838.0</ele><time>2026-05-01T13:40:39Z</time></trkpt><trkpt lat="39.891083151355964" lon="9.119067328867342"><ele>838.0</ele><time>2026-05-01T13:40:40Z</time></trkpt><trkpt lat="39.89106903844743" lon="9.119199687208377"><ele>838.0</ele><time>2026-05-01T13:40:41Z</time></trkpt><trkpt lat="39.89104735346714" lon="9.119355027684652"><ele>838.0</ele><time>2026-05-01T13:40:42Z</time></trkpt><trkpt lat="39.89100128811346" lon="9.119512867703849"><ele>839.0</ele><time>2026-05-01T13:40:43Z</time></trkpt><trkpt lat="39.89091933151098" lon="9.119662039613207"><ele>840.0</ele><time>2026-05-01T13:40:44Z</time></trkpt><trkpt lat="39.890819612030334" lon="9.119793387000023"><ele>841.0</ele><time>2026-05-01T13:40:45Z</time></trkpt><trkpt lat="39.89071948930332" lon="9.11993264921461"><ele>842.0</ele><time>2026-05-01T13:40:46Z</time></trkpt><trkpt lat="39.89061203499623" lon="9.120087100602078"><ele>843.6666666666667</ele><time>2026-05-01T13:40:47Z</time></trkpt><trkpt lat="39.89050085374519" lon="9.120246246202582"><ele>845.3333333333333</ele><time>2026-05-01T13:40:48Z</time></trkpt><trkpt lat="39.89039005779164" lon="9.120404279621459"><ele>847.0</ele><time>2026-05-01T13:40:49Z</time></trkpt><trkpt lat="39.89027959615464" lon="9.120561824260175"><ele>847.0</ele><time>2026-05-01T13:40:50Z</time></trkpt><trkpt lat="39.89016308534172" lon="9.120723942040927"><ele>847.0</ele><time>2026-05-01T13:40:51Z</time></trkpt><trkpt lat="39.89004750313306" lon="9.120886350233599"><ele>847.0</ele><time>2026-05-01T13:40:52Z</time></trkpt><trkpt lat="39.88991610575941" lon="9.121035751980898"><ele>849.6666666666666</ele><time>2026-05-01T13:40:53Z</time></trkpt><trkpt lat="39.889805877287515" lon="9.121214672325241"><ele>852.3333333333333</ele><time>2026-05-01T13:40:54Z</time></trkpt><trkpt lat="39.889672414180524" lon="9.121365014559387"><ele>855.0</ele><time>2026-05-01T13:40:55Z</time></trkpt><trkpt lat="39.88952504905669" lon="9.121500203314714"><ele>856.3333333333333</ele><time>2026-05-01T13:40:56Z</time></trkpt><trkpt lat="39.88936751041836" lon="9.121621474414097"><ele>857.6666666666666</ele><time>2026-05-01T13:40:57Z</time></trkpt><trkpt lat="39.88919990885354" lon="9.121722333069176"><ele>859.0</ele><time>2026-05-01T13:40:58Z</time></trkpt><trkpt lat="39.88902348173409" lon="9.12180792179742"><ele>859.3333333333333</ele><time>2026-05-01T13:40:59Z</time></trkpt><trkpt lat="39.888841423003214" lon="9.121877745856025"><ele>859.6666666666667</ele><time>2026-05-01T13:41:00Z</time></trkpt><trkpt lat="39.88865274984413" lon="9.121940996894272"><ele>860.0</ele><time>2026-05-01T13:41:01Z</time></trkpt><trkpt lat="39.88845990065348" lon="9.122009492644473"><ele>858.6666666666667</ele><time>2026-05-01T13:41:02Z</time></trkpt><trkpt lat="39.88825919445289" lon="9.122058096258217"><ele>857.3333333333333</ele><time>2026-05-01T13:41:03Z</time></trkpt><trkpt lat="39.88806797694666" lon="9.122146008834624"><ele>856.0</ele><time>2026-05-01T13:41:04Z</time></trkpt><trkpt lat="39.88787084768144" lon="9.122212853230224"><ele>856.0</ele><time>2026-05-01T13:41:05Z</time></trkpt><trkpt lat="39.88767158887343" lon="9.122282071809462"><ele>856.0</ele><time>2026-05-01T13:41:06Z</time></trkpt><trkpt lat="39.88746905495051" lon="9.122352178945848"><ele>856.0</ele><time>2026-05-01T13:41:07Z</time></trkpt><trkpt lat="39.88726373148401" lon="9.12242390560465"><ele>855.0</ele><time>2026-05-01T13:41:08Z</time></trkpt><trkpt lat="39.88705629806154" lon="9.122495413892626"><ele>854.0</ele><time>2026-05-01T13:41:09Z</time></trkpt><trkpt lat="39.886846119119724" lon="9.122567690554872"><ele>853.0</ele><time>2026-05-01T13:41:10Z</time></trkpt><trkpt lat="39.886635176864054" lon="9.122641242021057"><ele>852.0</ele><time>2026-05-01T13:41:11Z</time></trkpt><trkpt lat="39.88642424188935" lon="9.122715630412715"><ele>851.0</ele><time>2026-05-01T13:41:12Z</time></trkpt><trkpt lat="39.88621041223144" lon="9.12279057674361"><ele>850.0</ele><time>2026-05-01T13:41:13Z</time></trkpt><trkpt lat="39.8859962429729" lon="9.122864635402085"><ele>848.5</ele><time>2026-05-01T13:41:14Z</time></trkpt><trkpt lat="39.8857772594486" lon="9.122940798339224"><ele>847.0</ele><time>2026-05-01T13:41:15Z</time></trkpt><trkpt lat="39.8855546423446" lon="9.123017106730115"><ele>847.0</ele><time>2026-05-01T13:41:16Z</time></trkpt><trkpt lat="39.8853309352736" lon="9.123093162367882"><ele>847.0</ele><time>2026-05-01T13:41:17Z</time></trkpt><trkpt lat="39.88510322848949" lon="9.123167818521953"><ele>844.5</ele><time>2026-05-01T13:41:18Z</time></trkpt><trkpt lat="39.884874058745545" lon="9.123250866339003"><ele>842.0</ele><time>2026-05-01T13:41:19Z</time></trkpt><trkpt lat="39.88464001642887" lon="9.123333966135894"><ele>842.0</ele><time>2026-05-01T13:41:20Z</time></trkpt><trkpt lat="39.88440181535207" lon="9.123418841359541"><ele>842.0</ele><time>2026-05-01T13:41:21Z</time></trkpt><trkpt lat="39.884161481533205" lon="9.123505316161202"><ele>841.0</ele><time>2026-05-01T13:41:22Z</time></trkpt><trkpt lat="39.88392216315882" lon="9.123589449291085"><ele>840.0</ele><time>2026-05-01T13:41:23Z</time></trkpt><trkpt lat="39.88368451614704" lon="9.123674236243044"><ele>840.0</ele><time>2026-05-01T13:41:24Z</time></trkpt><trkpt lat="39.883447327854434" lon="9.12375655860279"><ele>840.0</ele><time>2026-05-01T13:41:25Z</time></trkpt><trkpt lat="39.88321156040096" lon="9.123836328656532"><ele>840.0</ele><time>2026-05-01T13:41:26Z</time></trkpt><trkpt lat="39.8829782164728" lon="9.123913688845436"><ele>840.0</ele><time>2026-05-01T13:41:27Z</time></trkpt><trkpt lat="39.88274419336963" lon="9.123993510159286"><ele>839.5</ele><time>2026-05-01T13:41:28Z</time></trkpt><trkpt lat="39.882514296251706" lon="9.124077719550643"><ele>839.0</ele><time>2026-05-01T13:41:29Z</time></trkpt><trkpt lat="39.882282633083186" lon="9.124156577857294"><ele>839.0</ele><time>2026-05-01T13:41:30Z</time></trkpt><trkpt lat="39.88205036813681" lon="9.124238537449425"><ele>839.0</ele><time>2026-05-01T13:41:31Z</time></trkpt><trkpt lat="39.88181863385151" lon="9.124324553349345"><ele>838.0</ele><time>2026-05-01T13:41:32Z</time></trkpt><trkpt lat="39.88158277243264" lon="9.12440788471118"><ele>837.0</ele><time>2026-05-01T13:41:33Z</time></trkpt><trkpt lat="39.881347323033076" lon="9.12448597270143"><ele>837.0</ele><time>2026-05-01T13:41:34Z</time></trkpt><trkpt lat="39.881113035331275" lon="9.124568306625665"><ele>837.0</ele><time>2026-05-01T13:41:35Z</time></trkpt><trkpt lat="39.880881879310316" lon="9.124651949440166"><ele>836.5</ele><time>2026-05-01T13:41:36Z</time></trkpt><trkpt lat="39.88065635175822" lon="9.124732213441508"><ele>836.0</ele><time>2026-05-01T13:41:37Z</time></trkpt><trkpt lat="39.88043234907658" lon="9.124808493228276"><ele>836.0</ele><time>2026-05-01T13:41:38Z</time></trkpt><trkpt lat="39.880209356492074" lon="9.124886288860115"><ele>836.0</ele><time>2026-05-01T13:41:39Z</time></trkpt><trkpt lat="39.87998853432918" lon="9.124967803727758"><ele>836.0</ele><time>2026-05-01T13:41:40Z</time></trkpt><trkpt lat="39.87976761023601" lon="9.125056804964464"><ele>836.0</ele><time>2026-05-01T13:41:41Z</time></trkpt><trkpt lat="39.87955608197781" lon="9.12517800614564"><ele>836.0</ele><time>2026-05-01T13:41:42Z</time></trkpt><trkpt lat="39.879353074811576" lon="9.125333401302823"><ele>836.0</ele><time>2026-05-01T13:41:43Z</time></trkpt><trkpt lat="39.87915891005769" lon="9.125514680300569"><ele>834.5</ele><time>2026-05-01T13:41:44Z</time></trkpt><trkpt lat="39.87895534741143" lon="9.125685075254907"><ele>833.0</ele><time>2026-05-01T13:41:45Z</time></trkpt><trkpt lat="39.8787640051735" lon="9.125868192239585"><ele>833.0</ele><time>2026-05-01T13:41:46Z</time></trkpt><trkpt lat="39.87857375448863" lon="9.12605224249586"><ele>833.0</ele><time>2026-05-01T13:41:47Z</time></trkpt><trkpt lat="39.8783834042238" lon="9.126236389389954"><ele>832.0</ele><time>2026-05-01T13:41:48Z</time></trkpt><trkpt lat="39.87820126396218" lon="9.126439339371675"><ele>831.0</ele><time>2026-05-01T13:41:49Z</time></trkpt><trkpt lat="39.87800818778847" lon="9.126624959123468"><ele>831.0</ele><time>2026-05-01T13:41:50Z</time></trkpt><trkpt lat="39.87780208225036" lon="9.126796486937085"><ele>831.0</ele><time>2026-05-01T13:41:51Z</time></trkpt><trkpt lat="39.87760371274147" lon="9.126986211318714"><ele>828.5</ele><time>2026-05-01T13:41:52Z</time></trkpt><trkpt lat="39.87741398780941" lon="9.127192889563878"><ele>826.0</ele><time>2026-05-01T13:41:53Z</time></trkpt><trkpt lat="39.877213816076456" lon="9.127380344385976"><ele>827.0</ele><time>2026-05-01T13:41:54Z</time></trkpt><trkpt lat="39.87701250235877" lon="9.127567882814816"><ele>828.0</ele><time>2026-05-01T13:41:55Z</time></trkpt><trkpt lat="39.87681128703167" lon="9.127758518974263"><ele>825.5</ele><time>2026-05-01T13:41:56Z</time></trkpt><trkpt lat="39.876613416060415" lon="9.12795392545619"><ele>823.0</ele><time>2026-05-01T13:41:57Z</time></trkpt><trkpt lat="39.87641283688792" lon="9.1281516584715"><ele>823.5</ele><time>2026-05-01T13:41:58Z</time></trkpt><trkpt lat="39.87620175701174" lon="9.12833111442989"><ele>824.0</ele><time>2026-05-01T13:41:59Z</time></trkpt><trkpt lat="39.87599860227366" lon="9.128526594804319"><ele>822.0</ele><time>2026-05-01T13:42:00Z</time></trkpt><trkpt lat="39.875805027415566" lon="9.128737752310263"><ele>820.0</ele><time>2026-05-01T13:42:01Z</time></trkpt><trkpt lat="39.8756000131369" lon="9.12893159546201"><ele>822.5</ele><time>2026-05-01T13:42:02Z</time></trkpt><trkpt lat="39.875394011099026" lon="9.129128407938062"><ele>825.0</ele><time>2026-05-01T13:42:03Z</time></trkpt><trkpt lat="39.87519006535047" lon="9.129325917366915"><ele>824.5</ele><time>2026-05-01T13:42:04Z</time></trkpt><trkpt lat="39.874987631754905" lon="9.129523367423223"><ele>824.0</ele><time>2026-05-01T13:42:05Z</time></trkpt><trkpt lat="39.874783463141945" lon="9.129719606607884"><ele>824.5</ele><time>2026-05-01T13:42:06Z</time></trkpt><trkpt lat="39.87458339113979" lon="9.129910218771247"><ele>825.0</ele><time>2026-05-01T13:42:07Z</time></trkpt><trkpt lat="39.87438856831011" lon="9.13009693926235"><ele>823.5</ele><time>2026-05-01T13:42:08Z</time></trkpt><trkpt lat="39.87420009495309" lon="9.13027875616352"><ele>822.0</ele><time>2026-05-01T13:42:09Z</time></trkpt><trkpt lat="39.8740168811498" lon="9.13045344362331"><ele>822.0</ele><time>2026-05-01T13:42:10Z</time></trkpt><trkpt lat="39.87383239538848" lon="9.130614733203535"><ele>822.0</ele><time>2026-05-01T13:42:11Z</time></trkpt><trkpt lat="39.873634294725406" lon="9.130744653371988"><ele>822.0</ele><time>2026-05-01T13:42:12Z</time></trkpt><trkpt lat="39.87341876923822" lon="9.13084638794165"><ele>822.0</ele><time>2026-05-01T13:42:13Z</time></trkpt><trkpt lat="39.87319545280324" lon="9.130919471898197"><ele>822.0</ele><time>2026-05-01T13:42:14Z</time></trkpt><trkpt lat="39.87296646655892" lon="9.130954511900624"><ele>822.0</ele><time>2026-05-01T13:42:15Z</time></trkpt><trkpt lat="39.87272919031716" lon="9.130955200370384"><ele>822.0</ele><time>2026-05-01T13:42:16Z</time></trkpt><trkpt lat="39.872489456879826" lon="9.130945928354048"><ele>820.5</ele><time>2026-05-01T13:42:17Z</time></trkpt><trkpt lat="39.87225192662315" lon="9.13094466106391"><ele>819.0</ele><time>2026-05-01T13:42:18Z</time></trkpt><trkpt lat="39.87201299004801" lon="9.130949399340711"><ele>819.0</ele><time>2026-05-01T13:42:19Z</time></trkpt><trkpt lat="39.8717758314673" lon="9.130954136472202"><ele>819.0</ele><time>2026-05-01T13:42:20Z</time></trkpt><trkpt lat="39.87153862711547" lon="9.130959472274077"><ele>818.0</ele><time>2026-05-01T13:42:21Z</time></trkpt><trkpt lat="39.87130428819468" lon="9.130964152826312"><ele>817.0</ele><time>2026-05-01T13:42:22Z</time></trkpt><trkpt lat="39.87107251572241" lon="9.130967583974122"><ele>815.5</ele><time>2026-05-01T13:42:23Z</time></trkpt><trkpt lat="39.870842675202304" lon="9.130970921466975"><ele>814.0</ele><time>2026-05-01T13:42:24Z</time></trkpt><trkpt lat="39.870612201580045" lon="9.13097605589215"><ele>814.0</ele><time>2026-05-01T13:42:25Z</time></trkpt><trkpt lat="39.870380972858" lon="9.13097930070481"><ele>814.0</ele><time>2026-05-01T13:42:26Z</time></trkpt><trkpt lat="39.870152501593594" lon="9.130980740945025"><ele>813.5</ele><time>2026-05-01T13:42:27Z</time></trkpt><trkpt lat="39.8699258312701" lon="9.130982094574932"><ele>813.0</ele><time>2026-05-01T13:42:28Z</time></trkpt><trkpt lat="39.86969679120283" lon="9.13098504641597"><ele>813.0</ele><time>2026-05-01T13:42:29Z</time></trkpt><trkpt lat="39.86947020103341" lon="9.130985552731675"><ele>813.0</ele><time>2026-05-01T13:42:30Z</time></trkpt><trkpt lat="39.86924631292568" lon="9.130974784435598"><ele>814.0</ele><time>2026-05-01T13:42:31Z</time></trkpt><trkpt lat="39.86901785270983" lon="9.130930916084502"><ele>815.0</ele><time>2026-05-01T13:42:32Z</time></trkpt><trkpt lat="39.86879524167421" lon="9.13086036837089"><ele>815.0</ele><time>2026-05-01T13:42:33Z</time></trkpt><trkpt lat="39.86857720939597" lon="9.130775177810927"><ele>815.0</ele><time>2026-05-01T13:42:34Z</time></trkpt><trkpt lat="39.868361711074975" lon="9.13066611641554"><ele>812.5</ele><time>2026-05-01T13:42:35Z</time></trkpt><trkpt lat="39.86815332812075" lon="9.13053375958498"><ele>810.0</ele><time>2026-05-01T13:42:36Z</time></trkpt><trkpt lat="39.867955218806955" lon="9.130375514846634"><ele>810.0</ele><time>2026-05-01T13:42:37Z</time></trkpt><trkpt lat="39.867769292925196" lon="9.13019156803256"><ele>810.0</ele><time>2026-05-01T13:42:38Z</time></trkpt><trkpt lat="39.86759768968636" lon="9.129990133730946"><ele>810.0</ele><time>2026-05-01T13:42:39Z</time></trkpt><trkpt lat="39.86744144051042" lon="9.129773335169785"><ele>810.0</ele><time>2026-05-01T13:42:40Z</time></trkpt><trkpt lat="39.86729846416709" lon="9.12954278358347"><ele>810.0</ele><time>2026-05-01T13:42:41Z</time></trkpt><trkpt lat="39.86716063420499" lon="9.129305214405122"><ele>810.0</ele><time>2026-05-01T13:42:42Z</time></trkpt><trkpt lat="39.86702083396413" lon="9.129069007031795"><ele>809.0</ele><time>2026-05-01T13:42:43Z</time></trkpt><trkpt lat="39.8668776232111" lon="9.12883054282352"><ele>808.0</ele><time>2026-05-01T13:42:44Z</time></trkpt><trkpt lat="39.86673533173964" lon="9.128591617163307"><ele>807.5</ele><time>2026-05-01T13:42:45Z</time></trkpt><trkpt lat="39.86659105721773" lon="9.12834886749303"><ele>807.0</ele><time>2026-05-01T13:42:46Z</time></trkpt><trkpt lat="39.866447241775276" lon="9.128104781982405"><ele>806.0</ele><time>2026-05-01T13:42:47Z</time></trkpt><trkpt lat="39.86630329765636" lon="9.127860038119994"><ele>805.0</ele><time>2026-05-01T13:42:48Z</time></trkpt><trkpt lat="39.86616053270931" lon="9.127614909412358"><ele>802.5</ele><time>2026-05-01T13:42:49Z</time></trkpt><trkpt lat="39.866019018534686" lon="9.127372889058227"><ele>800.0</ele><time>2026-05-01T13:42:50Z</time></trkpt><trkpt lat="39.865876112747785" lon="9.127128552625416"><ele>799.0</ele><time>2026-05-01T13:42:51Z</time></trkpt><trkpt lat="39.86573406905817" lon="9.126886609554372"><ele>798.0</ele><time>2026-05-01T13:42:52Z</time></trkpt><trkpt lat="39.865591538450495" lon="9.126644031965828"><ele>795.0</ele><time>2026-05-01T13:42:53Z</time></trkpt><trkpt lat="39.86544715099682" lon="9.12640035171893"><ele>792.0</ele><time>2026-05-01T13:42:54Z</time></trkpt><trkpt lat="39.865302475064425" lon="9.126157280912793"><ele>792.0</ele><time>2026-05-01T13:42:55Z</time></trkpt><trkpt lat="39.86515699132987" lon="9.125912690526093"><ele>792.0</ele><time>2026-05-01T13:42:56Z</time></trkpt><trkpt lat="39.86501288692312" lon="9.125667943871267"><ele>787.0</ele><time>2026-05-01T13:42:57Z</time></trkpt><trkpt lat="39.86486905537281" lon="9.125421091592388"><ele>782.0</ele><time>2026-05-01T13:42:58Z</time></trkpt><trkpt lat="39.864724360043056" lon="9.125175264930952"><ele>782.0</ele><time>2026-05-01T13:42:59Z</time></trkpt><trkpt lat="39.86457823317488" lon="9.1249305960448"><ele>782.0</ele><time>2026-05-01T13:43:00Z</time></trkpt><trkpt lat="39.86443383320175" lon="9.124684692120576"><ele>779.5</ele><time>2026-05-01T13:43:01Z</time></trkpt><trkpt lat="39.86429059114581" lon="9.124438105686052"><ele>777.0</ele><time>2026-05-01T13:43:02Z</time></trkpt><trkpt lat="39.864146778411815" lon="9.124191722070012"><ele>775.0</ele><time>2026-05-01T13:43:03Z</time></trkpt><trkpt lat="39.86400189183133" lon="9.123947353753444"><ele>773.0</ele><time>2026-05-01T13:43:04Z</time></trkpt><trkpt lat="39.86385675784447" lon="9.123706451070518"><ele>773.0</ele><time>2026-05-01T13:43:05Z</time></trkpt><trkpt lat="39.86371191154237" lon="9.123466009487233"><ele>773.0</ele><time>2026-05-01T13:43:06Z</time></trkpt><trkpt lat="39.86356936569151" lon="9.123224593524112"><ele>771.5</ele><time>2026-05-01T13:43:07Z</time></trkpt><trkpt lat="39.863427675438466" lon="9.122982846889515"><ele>770.0</ele><time>2026-05-01T13:43:08Z</time></trkpt><trkpt lat="39.86328758517569" lon="9.12274512990256"><ele>770.0</ele><time>2026-05-01T13:43:09Z</time></trkpt><trkpt lat="39.86314890789704" lon="9.122507999183426"><ele>770.0</ele><time>2026-05-01T13:43:10Z</time></trkpt><trkpt lat="39.86301217018189" lon="9.122272981614644"><ele>769.6666666666667</ele><time>2026-05-01T13:43:11Z</time></trkpt><trkpt lat="39.86287494521681" lon="9.122046715292102"><ele>769.3333333333333</ele><time>2026-05-01T13:43:12Z</time></trkpt><trkpt lat="39.862738755709216" lon="9.121820595281482"><ele>769.0</ele><time>2026-05-01T13:43:13Z</time></trkpt><trkpt lat="39.862608419455306" lon="9.121595353900139"><ele>770.3333333333333</ele><time>2026-05-01T13:43:14Z</time></trkpt><trkpt lat="39.862479642939746" lon="9.121374353787665"><ele>771.6666666666667</ele><time>2026-05-01T13:43:15Z</time></trkpt><trkpt lat="39.86235239296447" lon="9.121159700040142"><ele>773.0</ele><time>2026-05-01T13:43:16Z</time></trkpt><trkpt lat="39.86222675115842" lon="9.12094589783884"><ele>773.0</ele><time>2026-05-01T13:43:17Z</time></trkpt><trkpt lat="39.86210413792776" lon="9.120737226717935"><ele>773.0</ele><time>2026-05-01T13:43:18Z</time></trkpt><trkpt lat="39.861979768275056" lon="9.1205295644326"><ele>773.0</ele><time>2026-05-01T13:43:19Z</time></trkpt><trkpt lat="39.86185477967968" lon="9.120323291797499"><ele>773.3333333333334</ele><time>2026-05-01T13:43:20Z</time></trkpt><trkpt lat="39.86172885008294" lon="9.120105984913513"><ele>773.6666666666667</ele><time>2026-05-01T13:43:21Z</time></trkpt><trkpt lat="39.861598486311415" lon="9.119877825732354"><ele>774.0</ele><time>2026-05-01T13:43:22Z</time></trkpt><trkpt lat="39.861459351250694" lon="9.119641935591467"><ele>774.0</ele><time>2026-05-01T13:43:23Z</time></trkpt><trkpt lat="39.86131474508513" lon="9.119401595525495"><ele>774.0</ele><time>2026-05-01T13:43:24Z</time></trkpt><trkpt lat="39.8611684874552" lon="9.119161587275805"><ele>773.0</ele><time>2026-05-01T13:43:25Z</time></trkpt><trkpt lat="39.86102554635152" lon="9.118922753426991"><ele>772.0</ele><time>2026-05-01T13:43:26Z</time></trkpt><trkpt lat="39.860885797511166" lon="9.118686628058548"><ele>772.0</ele><time>2026-05-01T13:43:27Z</time></trkpt><trkpt lat="39.860747172165986" lon="9.118447415869346"><ele>772.0</ele><time>2026-05-01T13:43:28Z</time></trkpt><trkpt lat="39.86060657511609" lon="9.11820777741596"><ele>771.0</ele><time>2026-05-01T13:43:29Z</time></trkpt><trkpt lat="39.86046410780937" lon="9.117966786580583"><ele>770.0</ele><time>2026-05-01T13:43:30Z</time></trkpt><trkpt lat="39.86031745395364" lon="9.117724105758866"><ele>770.0</ele><time>2026-05-01T13:43:31Z</time></trkpt><trkpt lat="39.860169315071744" lon="9.117478681003806"><ele>770.0</ele><time>2026-05-01T13:43:32Z</time></trkpt><trkpt lat="39.86001896698006" lon="9.117228202629764"><ele>769.5</ele><time>2026-05-01T13:43:33Z</time></trkpt><trkpt lat="39.859866694805895" lon="9.116974746191028"><ele>769.0</ele><time>2026-05-01T13:43:34Z</time></trkpt><trkpt lat="39.85971475731107" lon="9.116721791541986"><ele>769.0</ele><time>2026-05-01T13:43:35Z</time></trkpt><trkpt lat="39.859562271881174" lon="9.116467717615176"><ele>769.0</ele><time>2026-05-01T13:43:36Z</time></trkpt><trkpt lat="39.8594115587552" lon="9.116214523926235"><ele>769.0</ele><time>2026-05-01T13:43:37Z</time></trkpt><trkpt lat="39.85926253019169" lon="9.11596216366798"><ele>769.0</ele><time>2026-05-01T13:43:38Z</time></trkpt><trkpt lat="39.85911272747866" lon="9.115709630327022"><ele>768.0</ele><time>2026-05-01T13:43:39Z</time></trkpt><trkpt lat="39.85896482529116" lon="9.115459021940083"><ele>767.0</ele><time>2026-05-01T13:43:40Z</time></trkpt><trkpt lat="39.85881531964651" lon="9.11520673824817"><ele>767.0</ele><time>2026-05-01T13:43:41Z</time></trkpt><trkpt lat="39.85866517263116" lon="9.114954804855502"><ele>767.0</ele><time>2026-05-01T13:43:42Z</time></trkpt><trkpt lat="39.85851455237055" lon="9.114706047969582"><ele>769.0</ele><time>2026-05-01T13:43:43Z</time></trkpt><trkpt lat="39.85836210067221" lon="9.114462747370943"><ele>771.0</ele><time>2026-05-01T13:43:44Z</time></trkpt><trkpt lat="39.85821417484709" lon="9.114216782650924"><ele>770.5</ele><time>2026-05-01T13:43:45Z</time></trkpt><trkpt lat="39.8580377922823" lon="9.114005041369104"><ele>770.0</ele><time>2026-05-01T13:43:46Z</time></trkpt><trkpt lat="39.857871682193796" lon="9.113785942001503"><ele>770.0</ele><time>2026-05-01T13:43:47Z</time></trkpt><trkpt lat="39.85767516457478" lon="9.113609003502056"><ele>770.0</ele><time>2026-05-01T13:43:48Z</time></trkpt><trkpt lat="39.85747992923421" lon="9.113439104222408"><ele>774.5</ele><time>2026-05-01T13:43:49Z</time></trkpt><trkpt lat="39.85728552590142" lon="9.113267344285937"><ele>779.0</ele><time>2026-05-01T13:43:50Z</time></trkpt><trkpt lat="39.85707635336819" lon="9.113135625779183"><ele>782.5</ele><time>2026-05-01T13:43:51Z</time></trkpt><trkpt lat="39.85686241201442" lon="9.113023517803988"><ele>786.0</ele><time>2026-05-01T13:43:52Z</time></trkpt><trkpt lat="39.85665031071478" lon="9.112929853287358"><ele>788.5</ele><time>2026-05-01T13:43:53Z</time></trkpt><trkpt lat="39.85643288014469" lon="9.11284649780785"><ele>791.0</ele><time>2026-05-01T13:43:54Z</time></trkpt><trkpt lat="39.856210766910735" lon="9.11276945928395"><ele>791.0</ele><time>2026-05-01T13:43:55Z</time></trkpt><trkpt lat="39.855999979318575" lon="9.112710245710161"><ele>791.0</ele><time>2026-05-01T13:43:56Z</time></trkpt><trkpt lat="39.85578231031375" lon="9.112629764397555"><ele>791.0</ele><time>2026-05-01T13:43:57Z</time></trkpt><trkpt lat="39.855562183258655" lon="9.112552510007365"><ele>789.5</ele><time>2026-05-01T13:43:58Z</time></trkpt><trkpt lat="39.85534315697678" lon="9.11247338708591"><ele>788.0</ele><time>2026-05-01T13:43:59Z</time></trkpt><trkpt lat="39.855123735716404" lon="9.112397268766564"><ele>788.5</ele><time>2026-05-01T13:44:00Z</time></trkpt><trkpt lat="39.854903093661804" lon="9.11231896829078"><ele>789.0</ele><time>2026-05-01T13:44:01Z</time></trkpt><trkpt lat="39.85468207666597" lon="9.112242904453716"><ele>789.0</ele><time>2026-05-01T13:44:02Z</time></trkpt><trkpt lat="39.85446593807995" lon="9.11214074855573"><ele>789.0</ele><time>2026-05-01T13:44:03Z</time></trkpt><trkpt lat="39.85424273371983" lon="9.11206313131508"><ele>783.0</ele><time>2026-05-01T13:44:04Z</time></trkpt><trkpt lat="39.854037023678394" lon="9.111920810550252"><ele>777.0</ele><time>2026-05-01T13:44:05Z</time></trkpt><trkpt lat="39.85382446013124" lon="9.11179729033508"><ele>777.0</ele><time>2026-05-01T13:44:06Z</time></trkpt><trkpt lat="39.853624459906186" lon="9.11163699892878"><ele>777.0</ele><time>2026-05-01T13:44:07Z</time></trkpt><trkpt lat="39.85343066091495" lon="9.111461516268964"><ele>771.5</ele><time>2026-05-01T13:44:08Z</time></trkpt><trkpt lat="39.853242203305335" lon="9.111269802595585"><ele>766.0</ele><time>2026-05-01T13:44:09Z</time></trkpt><trkpt lat="39.85306017126058" lon="9.111064628265927"><ele>766.0</ele><time>2026-05-01T13:44:10Z</time></trkpt><trkpt lat="39.85286996617267" lon="9.110870649759153"><ele>766.0</ele><time>2026-05-01T13:44:11Z</time></trkpt><trkpt lat="39.85269876598019" lon="9.110636432515863"><ele>764.0</ele><time>2026-05-01T13:44:12Z</time></trkpt><trkpt lat="39.852512764108475" lon="9.110421166224617"><ele>762.0</ele><time>2026-05-01T13:44:13Z</time></trkpt><trkpt lat="39.852325677429775" lon="9.110206668360863"><ele>762.0</ele><time>2026-05-01T13:44:14Z</time></trkpt><trkpt lat="39.852137364683834" lon="9.10998806916323"><ele>762.0</ele><time>2026-05-01T13:44:15Z</time></trkpt><trkpt lat="39.85194690984538" lon="9.10976651541605"><ele>760.0</ele><time>2026-05-01T13:44:16Z</time></trkpt><trkpt lat="39.851755432526765" lon="9.109543559567237"><ele>758.0</ele><time>2026-05-01T13:44:17Z</time></trkpt><trkpt lat="39.85156351328941" lon="9.109320872060808"><ele>758.0</ele><time>2026-05-01T13:44:18Z</time></trkpt><trkpt lat="39.85137486204302" lon="9.10910287613599"><ele>758.0</ele><time>2026-05-01T13:44:19Z</time></trkpt><trkpt lat="39.85119195071398" lon="9.108890654590565"><ele>757.0</ele><time>2026-05-01T13:44:20Z</time></trkpt><trkpt lat="39.851015535169594" lon="9.108684804902541"><ele>756.0</ele><time>2026-05-01T13:44:21Z</time></trkpt><trkpt lat="39.85084312029877" lon="9.108483604390917"><ele>754.5</ele><time>2026-05-01T13:44:22Z</time></trkpt><trkpt lat="39.85067142077957" lon="9.108284207339786"><ele>753.0</ele><time>2026-05-01T13:44:23Z</time></trkpt><trkpt lat="39.85045871215579" lon="9.108032292969648"><ele>751.5</ele><time>2026-05-01T13:44:24Z</time></trkpt><trkpt lat="39.850279499581724" lon="9.107823480865338"><ele>750.0</ele><time>2026-05-01T13:44:25Z</time></trkpt><trkpt lat="39.850104403016886" lon="9.107614099398885"><ele>748.0</ele><time>2026-05-01T13:44:26Z</time></trkpt><trkpt lat="39.84993427422961" lon="9.107401572870357"><ele>746.0</ele><time>2026-05-01T13:44:27Z</time></trkpt><trkpt lat="39.849773538286456" lon="9.10717802954806"><ele>746.0</ele><time>2026-05-01T13:44:28Z</time></trkpt><trkpt lat="39.84962895060173" lon="9.106936992902732"><ele>746.0</ele><time>2026-05-01T13:44:29Z</time></trkpt><trkpt lat="39.849498160458815" lon="9.106679314335816"><ele>744.5</ele><time>2026-05-01T13:44:30Z</time></trkpt><trkpt lat="39.84938256145556" lon="9.106402468636722"><ele>743.0</ele><time>2026-05-01T13:44:31Z</time></trkpt><trkpt lat="39.849283076403765" lon="9.106112422263816"><ele>742.0</ele><time>2026-05-01T13:44:32Z</time></trkpt><trkpt lat="39.849195477047765" lon="9.1058123705882"><ele>741.0</ele><time>2026-05-01T13:44:33Z</time></trkpt><trkpt lat="39.84912215955299" lon="9.10550721618379"><ele>740.5</ele><time>2026-05-01T13:44:34Z</time></trkpt><trkpt lat="39.84906295564779" lon="9.105196649358353"><ele>740.0</ele><time>2026-05-01T13:44:35Z</time></trkpt><trkpt lat="39.849032154982645" lon="9.104878806135023"><ele>739.0</ele><time>2026-05-01T13:44:36Z</time></trkpt><trkpt lat="39.849025698000865" lon="9.104558595413634"><ele>738.0</ele><time>2026-05-01T13:44:37Z</time></trkpt><trkpt lat="39.849023754742866" lon="9.104238016303746"><ele>737.5</ele><time>2026-05-01T13:44:38Z</time></trkpt><trkpt lat="39.84901498173775" lon="9.103918383478513"><ele>737.0</ele><time>2026-05-01T13:44:39Z</time></trkpt><trkpt lat="39.84899781761754" lon="9.103595606673538"><ele>737.0</ele><time>2026-05-01T13:44:40Z</time></trkpt><trkpt lat="39.84898003362623" lon="9.103276471538406"><ele>737.0</ele><time>2026-05-01T13:44:41Z</time></trkpt><trkpt lat="39.8489626992026" lon="9.102955763792341"><ele>734.5</ele><time>2026-05-01T13:44:42Z</time></trkpt><trkpt lat="39.84894616344866" lon="9.102631511958315"><ele>732.0</ele><time>2026-05-01T13:44:43Z</time></trkpt><trkpt lat="39.848929232176424" lon="9.102302624103757"><ele>730.0</ele><time>2026-05-01T13:44:44Z</time></trkpt><trkpt lat="39.84891342452302" lon="9.101972844727312"><ele>728.0</ele><time>2026-05-01T13:44:45Z</time></trkpt><trkpt lat="39.84889855100563" lon="9.101642465929203"><ele>727.0</ele><time>2026-05-01T13:44:46Z</time></trkpt><trkpt lat="39.848883218194075" lon="9.101312202346653"><ele>726.0</ele><time>2026-05-01T13:44:47Z</time></trkpt><trkpt lat="39.84886520823793" lon="9.100980523844978"><ele>724.5</ele><time>2026-05-01T13:44:48Z</time></trkpt><trkpt lat="39.84884530964139" lon="9.10064764461516"><ele>723.0</ele><time>2026-05-01T13:44:49Z</time></trkpt><trkpt lat="39.84882668880533" lon="9.10031808994631"><ele>723.0</ele><time>2026-05-01T13:44:50Z</time></trkpt><trkpt lat="39.84880840810012" lon="9.09998510364809"><ele>723.0</ele><time>2026-05-01T13:44:51Z</time></trkpt><trkpt lat="39.84878989686421" lon="9.099656036051616"><ele>722.0</ele><time>2026-05-01T13:44:52Z</time></trkpt><trkpt lat="39.84877281637099" lon="9.09932796493181"><ele>721.0</ele><time>2026-05-01T13:44:53Z</time></trkpt><trkpt lat="39.84875497700134" lon="9.09899766127638"><ele>720.0</ele><time>2026-05-01T13:44:54Z</time></trkpt><trkpt lat="39.848739886908" lon="9.098669832909207"><ele>719.0</ele><time>2026-05-01T13:44:55Z</time></trkpt><trkpt lat="39.848725189925844" lon="9.098343002029095"><ele>718.0</ele><time>2026-05-01T13:44:56Z</time></trkpt><trkpt lat="39.84870787938475" lon="9.09801636064001"><ele>717.0</ele><time>2026-05-01T13:44:57Z</time></trkpt><trkpt lat="39.8486908528367" lon="9.097690610685284"><ele>717.0</ele><time>2026-05-01T13:44:58Z</time></trkpt><trkpt lat="39.84867314147515" lon="9.097364715830965"><ele>717.0</ele><time>2026-05-01T13:44:59Z</time></trkpt><trkpt lat="39.84865534935986" lon="9.097038828489579"><ele>717.0</ele><time>2026-05-01T13:45:00Z</time></trkpt><trkpt lat="39.848640277738035" lon="9.096712423036374"><ele>717.0</ele><time>2026-05-01T13:45:01Z</time></trkpt><trkpt lat="39.84862349453509" lon="9.096385001405512"><ele>716.5</ele><time>2026-05-01T13:45:02Z</time></trkpt><trkpt lat="39.848604320544176" lon="9.096058122140938"><ele>716.0</ele><time>2026-05-01T13:45:03Z</time></trkpt><trkpt lat="39.84858488606511" lon="9.095730260336524"><ele>715.0</ele><time>2026-05-01T13:45:04Z</time></trkpt><trkpt lat="39.84856583760953" lon="9.095405454213243"><ele>714.0</ele><time>2026-05-01T13:45:05Z</time></trkpt><trkpt lat="39.84854785149612" lon="9.095080336763376"><ele>714.0</ele><time>2026-05-01T13:45:06Z</time></trkpt><trkpt lat="39.84853025049961" lon="9.094759008900663"><ele>714.0</ele><time>2026-05-01T13:45:07Z</time></trkpt><trkpt lat="39.848513410846174" lon="9.094437843462712"><ele>714.0</ele><time>2026-05-01T13:45:08Z</time></trkpt><trkpt lat="39.84849694093751" lon="9.09412048898841"><ele>714.0</ele><time>2026-05-01T13:45:09Z</time></trkpt><trkpt lat="39.848479497489976" lon="9.093803142500484"><ele>714.0</ele><time>2026-05-01T13:45:10Z</time></trkpt><trkpt lat="39.84846049845118" lon="9.093487553774517"><ele>714.0</ele><time>2026-05-01T13:45:11Z</time></trkpt><trkpt lat="39.84844221900442" lon="9.093173890331224"><ele>712.0</ele><time>2026-05-01T13:45:12Z</time></trkpt><trkpt lat="39.84842461518606" lon="9.092860829494528"><ele>710.0</ele><time>2026-05-01T13:45:13Z</time></trkpt><trkpt lat="39.848414524283676" lon="9.092553697427892"><ele>709.0</ele><time>2026-05-01T13:45:14Z</time></trkpt><trkpt lat="39.84841032134095" lon="9.092248090510912"><ele>708.0</ele><time>2026-05-01T13:45:15Z</time></trkpt><trkpt lat="39.84843127819644" lon="9.09193906238317"><ele>707.5</ele><time>2026-05-01T13:45:16Z</time></trkpt><trkpt lat="39.84847555718527" lon="9.091632667801946"><ele>707.0</ele><time>2026-05-01T13:45:17Z</time></trkpt><trkpt lat="39.84853184875696" lon="9.091326730142663"><ele>707.0</ele><time>2026-05-01T13:45:18Z</time></trkpt><trkpt lat="39.84861320834701" lon="9.091023730417811"><ele>707.0</ele><time>2026-05-01T13:45:19Z</time></trkpt><trkpt lat="39.8486670992077" lon="9.09070870166381"><ele>705.5</ele><time>2026-05-01T13:45:20Z</time></trkpt><trkpt lat="39.84873780265926" lon="9.090399772269807"><ele>704.0</ele><time>2026-05-01T13:45:21Z</time></trkpt><trkpt lat="39.84880569245725" lon="9.090087427482596"><ele>704.5</ele><time>2026-05-01T13:45:22Z</time></trkpt><trkpt lat="39.848872278724365" lon="9.089778627877035"><ele>705.0</ele><time>2026-05-01T13:45:23Z</time></trkpt><trkpt lat="39.84893753731323" lon="9.089476944154535"><ele>705.0</ele><time>2026-05-01T13:45:24Z</time></trkpt><trkpt lat="39.84900042087985" lon="9.089184770997349"><ele>705.0</ele><time>2026-05-01T13:45:25Z</time></trkpt><trkpt lat="39.849061813007296" lon="9.088900654808157"><ele>705.0</ele><time>2026-05-01T13:45:26Z</time></trkpt><trkpt lat="39.849108780134074" lon="9.088619792529187"><ele>705.0</ele><time>2026-05-01T13:45:27Z</time></trkpt><trkpt lat="39.84913856835026" lon="9.088341031099667"><ele>705.0</ele><time>2026-05-01T13:45:28Z</time></trkpt><trkpt lat="39.849148405693846" lon="9.088060004897214"><ele>705.3333333333334</ele><time>2026-05-01T13:45:29Z</time></trkpt><trkpt lat="39.84914387838186" lon="9.087779010890651"><ele>705.6666666666667</ele><time>2026-05-01T13:45:30Z</time></trkpt><trkpt lat="39.849127375096295" lon="9.087497771583367"><ele>706.0</ele><time>2026-05-01T13:45:31Z</time></trkpt><trkpt lat="39.8491024106564" lon="9.087220264858509"><ele>706.0</ele><time>2026-05-01T13:45:32Z</time></trkpt><trkpt lat="39.849078259755125" lon="9.08694512741376"><ele>706.0</ele><time>2026-05-01T13:45:33Z</time></trkpt><trkpt lat="39.84905619510145" lon="9.086676195340383"><ele>706.0</ele><time>2026-05-01T13:45:34Z</time></trkpt><trkpt lat="39.849037631072825" lon="9.086420306903499"><ele>705.0</ele><time>2026-05-01T13:45:35Z</time></trkpt><trkpt lat="39.849023630537225" lon="9.08617671951213"><ele>704.0</ele><time>2026-05-01T13:45:36Z</time></trkpt><trkpt lat="39.84902887803923" lon="9.085939214243549"><ele>703.0</ele><time>2026-05-01T13:45:37Z</time></trkpt><trkpt lat="39.849080050572894" lon="9.085710387037755"><ele>701.0</ele><time>2026-05-01T13:45:38Z</time></trkpt><trkpt lat="39.84915814894133" lon="9.085486705330835"><ele>699.0</ele><time>2026-05-01T13:45:39Z</time></trkpt><trkpt lat="39.84927198904085" lon="9.0852730402134"><ele>697.0</ele><time>2026-05-01T13:45:40Z</time></trkpt><trkpt lat="39.84938239387318" lon="9.085044528821651"><ele>698.0</ele><time>2026-05-01T13:45:41Z</time></trkpt><trkpt lat="39.84951432178285" lon="9.084835310856521"><ele>699.0</ele><time>2026-05-01T13:45:42Z</time></trkpt><trkpt lat="39.84964093128249" lon="9.0846164530812"><ele>700.0</ele><time>2026-05-01T13:45:43Z</time></trkpt><trkpt lat="39.849767771333326" lon="9.08439215315831"><ele>700.0</ele><time>2026-05-01T13:45:44Z</time></trkpt><trkpt lat="39.84988979113136" lon="9.08417054995859"><ele>700.0</ele><time>2026-05-01T13:45:45Z</time></trkpt><trkpt lat="39.849999262930694" lon="9.08394764389461"><ele>700.0</ele><time>2026-05-01T13:45:46Z</time></trkpt><trkpt lat="39.85007870708764" lon="9.083701313002386"><ele>702.0</ele><time>2026-05-01T13:45:47Z</time></trkpt><trkpt lat="39.850127875437565" lon="9.083436673943064"><ele>704.0</ele><time>2026-05-01T13:45:48Z</time></trkpt><trkpt lat="39.85014434887696" lon="9.083158484409624"><ele>706.0</ele><time>2026-05-01T13:45:49Z</time></trkpt><trkpt lat="39.85014102177082" lon="9.082877653967618"><ele>706.0</ele><time>2026-05-01T13:45:50Z</time></trkpt><trkpt lat="39.85013423307042" lon="9.082598032483597"><ele>706.0</ele><time>2026-05-01T13:45:51Z</time></trkpt><trkpt lat="39.850133667173466" lon="9.082323512761054"><ele>706.0</ele><time>2026-05-01T13:45:52Z</time></trkpt><trkpt lat="39.8501401034978" lon="9.082051804602843"><ele>704.6666666666667</ele><time>2026-05-01T13:45:53Z</time></trkpt><trkpt lat="39.85014814419575" lon="9.081782359806907"><ele>703.3333333333334</ele><time>2026-05-01T13:45:54Z</time></trkpt><trkpt lat="39.85015808870137" lon="9.081513674911095"><ele>702.0</ele><time>2026-05-01T13:45:55Z</time></trkpt><trkpt lat="39.85018234178561" lon="9.081244950214334"><ele>701.0</ele><time>2026-05-01T13:45:56Z</time></trkpt><trkpt lat="39.85026398400396" lon="9.080995013862669"><ele>700.0</ele><time>2026-05-01T13:45:57Z</time></trkpt><trkpt lat="39.850336759723724" lon="9.080730592963889"><ele>699.0</ele><time>2026-05-01T13:45:58Z</time></trkpt><trkpt lat="39.850433641872115" lon="9.080474572448226"><ele>695.6666666666666</ele><time>2026-05-01T13:45:59Z</time></trkpt><trkpt lat="39.85052598216936" lon="9.080210314293236"><ele>692.3333333333333</ele><time>2026-05-01T13:46:00Z</time></trkpt><trkpt lat="39.85061509802839" lon="9.079942682618885"><ele>689.0</ele><time>2026-05-01T13:46:01Z</time></trkpt><trkpt lat="39.85070712363575" lon="9.079673448978012"><ele>685.0</ele><time>2026-05-01T13:46:02Z</time></trkpt><trkpt lat="39.85080155210177" lon="9.079404154966305"><ele>681.0</ele><time>2026-05-01T13:46:03Z</time></trkpt><trkpt lat="39.850895453672514" lon="9.07913493021175"><ele>685.0</ele><time>2026-05-01T13:46:04Z</time></trkpt><trkpt lat="39.85098933230123" lon="9.078864392031846"><ele>689.0</ele><time>2026-05-01T13:46:05Z</time></trkpt><trkpt lat="39.85108274093993" lon="9.078592789217682"><ele>689.0</ele><time>2026-05-01T13:46:06Z</time></trkpt><trkpt lat="39.85117695622529" lon="9.078319612654392"><ele>689.0</ele><time>2026-05-01T13:46:07Z</time></trkpt><trkpt lat="39.85127013537184" lon="9.078047752797985"><ele>683.0</ele><time>2026-05-01T13:46:08Z</time></trkpt><trkpt lat="39.85136177216605" lon="9.077774038738808"><ele>677.0</ele><time>2026-05-01T13:46:09Z</time></trkpt><trkpt lat="39.851453145968364" lon="9.07750167628002"><ele>673.0</ele><time>2026-05-01T13:46:10Z</time></trkpt><trkpt lat="39.85154504535458" lon="9.077231875405051"><ele>669.0</ele><time>2026-05-01T13:46:11Z</time></trkpt><trkpt lat="39.85163288679135" lon="9.076961885725863"><ele>669.0</ele><time>2026-05-01T13:46:12Z</time></trkpt><trkpt lat="39.85169946042241" lon="9.076689780873563"><ele>669.0</ele><time>2026-05-01T13:46:13Z</time></trkpt><trkpt lat="39.85173397852143" lon="9.07640207274521"><ele>669.0</ele><time>2026-05-01T13:46:14Z</time></trkpt><trkpt lat="39.85174116462025" lon="9.076103472805285"><ele>666.5</ele><time>2026-05-01T13:46:15Z</time></trkpt><trkpt lat="39.8517261502043" lon="9.07580174624589"><ele>664.0</ele><time>2026-05-01T13:46:16Z</time></trkpt><trkpt lat="39.85170245065191" lon="9.075496626169091"><ele>662.0</ele><time>2026-05-01T13:46:17Z</time></trkpt><trkpt lat="39.851681559812086" lon="9.075191975313105"><ele>660.0</ele><time>2026-05-01T13:46:18Z</time></trkpt><trkpt lat="39.85166706672117" lon="9.074883826465955"><ele>659.5</ele><time>2026-05-01T13:46:19Z</time></trkpt><trkpt lat="39.85165755430871" lon="9.074574659966459"><ele>659.0</ele><time>2026-05-01T13:46:20Z</time></trkpt><trkpt lat="39.85164719927843" lon="9.074261701949242"><ele>658.5</ele><time>2026-05-01T13:46:21Z</time></trkpt><trkpt lat="39.85163460756794" lon="9.07394974499988"><ele>658.0</ele><time>2026-05-01T13:46:22Z</time></trkpt><trkpt lat="39.851620540059315" lon="9.073637789405483"><ele>658.0</ele><time>2026-05-01T13:46:23Z</time></trkpt><trkpt lat="39.85160827714131" lon="9.073329692103973"><ele>658.0</ele><time>2026-05-01T13:46:24Z</time></trkpt><trkpt lat="39.85159565164817" lon="9.073025057333806"><ele>658.0</ele><time>2026-05-01T13:46:25Z</time></trkpt><trkpt lat="39.85158252982188" lon="9.072721122922697"><ele>658.0</ele><time>2026-05-01T13:46:26Z</time></trkpt><trkpt lat="39.85156939265051" lon="9.072420517686906"><ele>658.5</ele><time>2026-05-01T13:46:27Z</time></trkpt><trkpt lat="39.85155811353556" lon="9.072121765820672"><ele>659.0</ele><time>2026-05-01T13:46:28Z</time></trkpt><trkpt lat="39.85154868723811" lon="9.071822249853714"><ele>657.0</ele><time>2026-05-01T13:46:29Z</time></trkpt><trkpt lat="39.85154231629895" lon="9.071522141852592"><ele>655.0</ele><time>2026-05-01T13:46:30Z</time></trkpt><trkpt lat="39.85153853770033" lon="9.071223450182607"><ele>655.0</ele><time>2026-05-01T13:46:31Z</time></trkpt><trkpt lat="39.85154252817013" lon="9.070923767300998"><ele>655.0</ele><time>2026-05-01T13:46:32Z</time></trkpt><trkpt lat="39.85156773083098" lon="9.070629261022658"><ele>653.5</ele><time>2026-05-01T13:46:33Z</time></trkpt><trkpt lat="39.85162851427524" lon="9.07034278035519"><ele>652.0</ele><time>2026-05-01T13:46:34Z</time></trkpt><trkpt lat="39.85171963956846" lon="9.070075395584876"><ele>654.0</ele><time>2026-05-01T13:46:35Z</time></trkpt><trkpt lat="39.85183316705062" lon="9.069824415135512"><ele>656.0</ele><time>2026-05-01T13:46:36Z</time></trkpt><trkpt lat="39.85196371931829" lon="9.069592860914497"><ele>658.0</ele><time>2026-05-01T13:46:37Z</time></trkpt><trkpt lat="39.85211400109269" lon="9.069368657642434"><ele>658.0</ele><time>2026-05-01T13:46:38Z</time></trkpt><trkpt lat="39.852268818071664" lon="9.0691542865197"><ele>658.0</ele><time>2026-05-01T13:46:39Z</time></trkpt><trkpt lat="39.8524238386834" lon="9.068933633997155"><ele>658.5</ele><time>2026-05-01T13:46:40Z</time></trkpt><trkpt lat="39.8525775526049" lon="9.06870752750818"><ele>659.0</ele><time>2026-05-01T13:46:41Z</time></trkpt><trkpt lat="39.85273184498868" lon="9.068482303080255"><ele>654.5</ele><time>2026-05-01T13:46:42Z</time></trkpt><trkpt lat="39.852889128074295" lon="9.068256992329188"><ele>650.0</ele><time>2026-05-01T13:46:43Z</time></trkpt><trkpt lat="39.85304545191484" lon="9.068030687632884"><ele>650.0</ele><time>2026-05-01T13:46:44Z</time></trkpt><trkpt lat="39.85320065924636" lon="9.067804702175877"><ele>650.0</ele><time>2026-05-01T13:46:45Z</time></trkpt><trkpt lat="39.853353613817106" lon="9.067575684844188"><ele>653.5</ele><time>2026-05-01T13:46:46Z</time></trkpt><trkpt lat="39.853498188724714" lon="9.06733802746038"><ele>657.0</ele><time>2026-05-01T13:46:47Z</time></trkpt><trkpt lat="39.85362124758125" lon="9.067082311176385"><ele>657.0</ele><time>2026-05-01T13:46:48Z</time></trkpt><trkpt lat="39.85372946173419" lon="9.066809510631707"><ele>657.0</ele><time>2026-05-01T13:46:49Z</time></trkpt><trkpt lat="39.85383530526603" lon="9.066535297077513"><ele>655.5</ele><time>2026-05-01T13:46:50Z</time></trkpt><trkpt lat="39.85394622602742" lon="9.066266192859613"><ele>654.0</ele><time>2026-05-01T13:46:51Z</time></trkpt><trkpt lat="39.85405916781173" lon="9.066003349596608"><ele>652.5</ele><time>2026-05-01T13:46:52Z</time></trkpt><trkpt lat="39.85417296107988" lon="9.065742705122927"><ele>651.0</ele><time>2026-05-01T13:46:53Z</time></trkpt><trkpt lat="39.85428428183987" lon="9.065482259944856"><ele>652.0</ele><time>2026-05-01T13:46:54Z</time></trkpt><trkpt lat="39.85438923527282" lon="9.065222884905749"><ele>653.0</ele><time>2026-05-01T13:46:55Z</time></trkpt><trkpt lat="39.85449157788281" lon="9.064971972078355"><ele>654.0</ele><time>2026-05-01T13:46:56Z</time></trkpt><trkpt lat="39.85459621236426" lon="9.064728012236436"><ele>654.0</ele><time>2026-05-01T13:46:57Z</time></trkpt><trkpt lat="39.85470394117654" lon="9.064479804369267"><ele>654.0</ele><time>2026-05-01T13:46:58Z</time></trkpt><trkpt lat="39.85480712633694" lon="9.064229361253123"><ele>654.0</ele><time>2026-05-01T13:46:59Z</time></trkpt><trkpt lat="39.85490347975695" lon="9.063981531316113"><ele>653.3333333333334</ele><time>2026-05-01T13:47:00Z</time></trkpt><trkpt lat="39.85499758161712" lon="9.063729535456835"><ele>652.6666666666667</ele><time>2026-05-01T13:47:01Z</time></trkpt><trkpt lat="39.855086522019214" lon="9.063475362373286"><ele>652.0</ele><time>2026-05-01T13:47:02Z</time></trkpt><trkpt lat="39.85516947916207" lon="9.063219417895315"><ele>654.6666666666667</ele><time>2026-05-01T13:47:03Z</time></trkpt><trkpt lat="39.855255201345564" lon="9.06295817410375"><ele>657.3333333333334</ele><time>2026-05-01T13:47:04Z</time></trkpt><trkpt lat="39.8553394945634" lon="9.062704244590016"><ele>660.0</ele><time>2026-05-01T13:47:05Z</time></trkpt><trkpt lat="39.85542768780082" lon="9.062457917932345"><ele>660.3333333333334</ele><time>2026-05-01T13:47:06Z</time></trkpt><trkpt lat="39.8555132608036" lon="9.062213162863003"><ele>660.6666666666667</ele><time>2026-05-01T13:47:07Z</time></trkpt><trkpt lat="39.85559568013875" lon="9.061969199874516"><ele>661.0</ele><time>2026-05-01T13:47:08Z</time></trkpt><trkpt lat="39.855675956673785" lon="9.06172427803635"><ele>661.3333333333334</ele><time>2026-05-01T13:47:09Z</time></trkpt><trkpt lat="39.855753814473836" lon="9.061482309580922"><ele>661.6666666666666</ele><time>2026-05-01T13:47:10Z</time></trkpt><trkpt lat="39.85583037611783" lon="9.061244284949165"><ele>662.0</ele><time>2026-05-01T13:47:11Z</time></trkpt><trkpt lat="39.85590686422923" lon="9.061021761481722"><ele>662.0</ele><time>2026-05-01T13:47:12Z</time></trkpt><trkpt lat="39.856000222625354" lon="9.060820643625606"><ele>662.0</ele><time>2026-05-01T13:47:13Z</time></trkpt><trkpt lat="39.85612727514539" lon="9.060657918875735"><ele>662.0</ele><time>2026-05-01T13:47:14Z</time></trkpt><trkpt lat="39.85627876415749" lon="9.060534008207945"><ele>660.0</ele><time>2026-05-01T13:47:15Z</time></trkpt><trkpt lat="39.85644961035664" lon="9.060453498009151"><ele>658.0</ele><time>2026-05-01T13:47:16Z</time></trkpt><trkpt lat="39.85662585687441" lon="9.06037975950886"><ele>656.0</ele><time>2026-05-01T13:47:17Z</time></trkpt><trkpt lat="39.8567994447101" lon="9.060293266386116"><ele>655.3333333333333</ele><time>2026-05-01T13:47:18Z</time></trkpt><trkpt lat="39.85698004772048" lon="9.060204059746162"><ele>654.6666666666666</ele><time>2026-05-01T13:47:19Z</time></trkpt><trkpt lat="39.85716318870465" lon="9.060115871249277"><ele>654.0</ele><time>2026-05-01T13:47:20Z</time></trkpt><trkpt lat="39.857351367123485" lon="9.060030818919785"><ele>654.0</ele><time>2026-05-01T13:47:21Z</time></trkpt><trkpt lat="39.85754629501849" lon="9.059961071837963"><ele>654.0</ele><time>2026-05-01T13:47:22Z</time></trkpt><trkpt lat="39.85774865968454" lon="9.05990915299702"><ele>654.0</ele><time>2026-05-01T13:47:23Z</time></trkpt><trkpt lat="39.857957344170536" lon="9.059862578382772"><ele>653.0</ele><time>2026-05-01T13:47:24Z</time></trkpt><trkpt lat="39.85816950270404" lon="9.059810590740158"><ele>652.0</ele><time>2026-05-01T13:47:25Z</time></trkpt><trkpt lat="39.85838712063786" lon="9.059758284954059"><ele>651.0</ele><time>2026-05-01T13:47:26Z</time></trkpt><trkpt lat="39.85857176391706" lon="9.059696318667914"><ele>651.0</ele><time>2026-05-01T13:47:27Z</time></trkpt><trkpt lat="39.858735311054964" lon="9.059595697563122"><ele>651.0</ele><time>2026-05-01T13:47:28Z</time></trkpt><trkpt lat="39.85890564418159" lon="9.05946004294499"><ele>651.0</ele><time>2026-05-01T13:47:29Z</time></trkpt><trkpt lat="39.859065773509194" lon="9.059299824530171"><ele>651.0</ele><time>2026-05-01T13:47:30Z</time></trkpt><trkpt lat="39.8592231328189" lon="9.059132004735398"><ele>651.0</ele><time>2026-05-01T13:47:31Z</time></trkpt><trkpt lat="39.85938335255846" lon="9.058963170607129"><ele>651.0</ele><time>2026-05-01T13:47:32Z</time></trkpt><trkpt lat="39.85954601866056" lon="9.058800950000746"><ele>653.3333333333334</ele><time>2026-05-01T13:47:33Z</time></trkpt><trkpt lat="39.85970831572219" lon="9.058634674589277"><ele>655.6666666666667</ele><time>2026-05-01T13:47:34Z</time></trkpt><trkpt lat="39.85986790251554" lon="9.058466515373727"><ele>658.0</ele><time>2026-05-01T13:47:35Z</time></trkpt><trkpt lat="39.86002861744105" lon="9.058299554363806"><ele>655.3333333333334</ele><time>2026-05-01T13:47:36Z</time></trkpt><trkpt lat="39.86018743537504" lon="9.058134872788917"><ele>652.6666666666666</ele><time>2026-05-01T13:47:37Z</time></trkpt><trkpt lat="39.86034213810785" lon="9.057975794516345"><ele>650.0</ele><time>2026-05-01T13:47:38Z</time></trkpt><trkpt lat="39.86049167705474" lon="9.057825622150009"><ele>650.0</ele><time>2026-05-01T13:47:39Z</time></trkpt><trkpt lat="39.86064518121358" lon="9.057689831719884"><ele>650.0</ele><time>2026-05-01T13:47:40Z</time></trkpt><trkpt lat="39.860812298946605" lon="9.057585411044696"><ele>650.0</ele><time>2026-05-01T13:47:41Z</time></trkpt><trkpt lat="39.86099812364458" lon="9.057513283948975"><ele>646.6666666666666</ele><time>2026-05-01T13:47:42Z</time></trkpt><trkpt lat="39.86118810852968" lon="9.057446566298825"><ele>643.3333333333334</ele><time>2026-05-01T13:47:43Z</time></trkpt><trkpt lat="39.86137892597658" lon="9.05738093719888"><ele>640.0</ele><time>2026-05-01T13:47:44Z</time></trkpt><trkpt lat="39.861563634970594" lon="9.057321548999317"><ele>640.0</ele><time>2026-05-01T13:47:45Z</time></trkpt><trkpt lat="39.86174367494365" lon="9.057258541832697"><ele>640.0</ele><time>2026-05-01T13:47:46Z</time></trkpt><trkpt lat="39.86191402337347" lon="9.057176873433873"><ele>640.0</ele><time>2026-05-01T13:47:47Z</time></trkpt><trkpt lat="39.862060625612926" lon="9.05706825102165"><ele>640.0</ele><time>2026-05-01T13:47:48Z</time></trkpt><trkpt lat="39.862173630267044" lon="9.056926911019476"><ele>640.0</ele><time>2026-05-01T13:47:49Z</time></trkpt><trkpt lat="39.86224474628757" lon="9.056740620674287"><ele>640.0</ele><time>2026-05-01T13:47:50Z</time></trkpt><trkpt lat="39.862281009397606" lon="9.056534542394871"><ele>640.0</ele><time>2026-05-01T13:47:51Z</time></trkpt><trkpt lat="39.86226786588358" lon="9.056348393501404"><ele>640.0</ele><time>2026-05-01T13:47:52Z</time></trkpt><trkpt lat="39.862214235533074" lon="9.056167850443945"><ele>640.0</ele><time>2026-05-01T13:47:53Z</time></trkpt><trkpt lat="39.86211982253592" lon="9.056007581883877"><ele>640.0</ele><time>2026-05-01T13:47:54Z</time></trkpt><trkpt lat="39.8619967224331" lon="9.055888204174519"><ele>640.0</ele><time>2026-05-01T13:47:55Z</time></trkpt><trkpt lat="39.86184641875179" lon="9.055805184675542"><ele>640.0</ele><time>2026-05-01T13:47:56Z</time></trkpt><trkpt lat="39.86168489301997" lon="9.055767410707748"><ele>640.0</ele><time>2026-05-01T13:47:57Z</time></trkpt><trkpt lat="39.861522937103565" lon="9.055725563343925"><ele>634.3333333333334</ele><time>2026-05-01T13:47:58Z</time></trkpt><trkpt lat="39.861354802695764" lon="9.055678113197626"><ele>628.6666666666666</ele><time>2026-05-01T13:47:59Z</time></trkpt><trkpt lat="39.86118421398766" lon="9.055624581937504"><ele>623.0</ele><time>2026-05-01T13:48:00Z</time></trkpt><trkpt lat="39.86102168743924" lon="9.05557418959152"><ele>624.25</ele><time>2026-05-01T13:48:01Z</time></trkpt><trkpt lat="39.86090145147779" lon="9.055525811022589"><ele>625.5</ele><time>2026-05-01T13:48:02Z</time></trkpt><trkpt lat="39.860793607370425" lon="9.055441626019185"><ele>626.75</ele><time>2026-05-01T13:48:03Z</time></trkpt><trkpt lat="39.86071680052853" lon="9.055318798579137"><ele>628.0</ele><time>2026-05-01T13:48:04Z</time></trkpt><trkpt lat="39.860690565559835" lon="9.05515665410439"><ele>628.0</ele><time>2026-05-01T13:48:05Z</time></trkpt><trkpt lat="39.860671627052156" lon="9.054993446619859"><ele>628.0</ele><time>2026-05-01T13:48:06Z</time></trkpt><trkpt lat="39.86071789459568" lon="9.054834644380438"><ele>628.0</ele><time>2026-05-01T13:48:07Z</time></trkpt><trkpt lat="39.86078386089296" lon="9.054690824803773"><ele>628.0</ele><time>2026-05-01T13:48:08Z</time></trkpt><trkpt lat="39.860899451478666" lon="9.054600261197393"><ele>622.3333333333334</ele><time>2026-05-01T13:48:09Z</time></trkpt><trkpt lat="39.86103788510111" lon="9.054553362483201"><ele>616.6666666666666</ele><time>2026-05-01T13:48:10Z</time></trkpt><trkpt lat="39.86119029083921" lon="9.05454524316344"><ele>611.0</ele><time>2026-05-01T13:48:11Z</time></trkpt><trkpt lat="39.86135060964087" lon="9.054562693736862"><ele>611.0</ele><time>2026-05-01T13:48:12Z</time></trkpt><trkpt lat="39.86151153548007" lon="9.054579765210917"><ele>611.0</ele><time>2026-05-01T13:48:13Z</time></trkpt><trkpt lat="39.8616729972744" lon="9.054592863569365"><ele>611.0</ele><time>2026-05-01T13:48:14Z</time></trkpt><trkpt lat="39.86183323684163" lon="9.054600677400167"><ele>610.3333333333333</ele><time>2026-05-01T13:48:15Z</time></trkpt><trkpt lat="39.8619857829147" lon="9.054594103988583"><ele>609.6666666666666</ele><time>2026-05-01T13:48:16Z</time></trkpt><trkpt lat="39.862129296922674" lon="9.05455763990727"><ele>609.0</ele><time>2026-05-01T13:48:17Z</time></trkpt><trkpt lat="39.86227188386869" lon="9.05448378860113"><ele>609.0</ele><time>2026-05-01T13:48:18Z</time></trkpt><trkpt lat="39.862401111892076" lon="9.054385064392793"><ele>609.0</ele><time>2026-05-01T13:48:19Z</time></trkpt><trkpt lat="39.86252274054664" lon="9.054275762328947"><ele>609.0</ele><time>2026-05-01T13:48:20Z</time></trkpt><trkpt lat="39.86263886399865" lon="9.054165047947079"><ele>609.0</ele><time>2026-05-01T13:48:21Z</time></trkpt><trkpt lat="39.86275246684235" lon="9.05405435200601"><ele>607.5</ele><time>2026-05-01T13:48:22Z</time></trkpt><trkpt lat="39.862865516785014" lon="9.053948990766143"><ele>606.0</ele><time>2026-05-01T13:48:23Z</time></trkpt><trkpt lat="39.86297896490052" lon="9.053851162207224"><ele>604.5</ele><time>2026-05-01T13:48:24Z</time></trkpt><trkpt lat="39.86308754654404" lon="9.053754085597854"><ele>603.0</ele><time>2026-05-01T13:48:25Z</time></trkpt><trkpt lat="39.86318852018058" lon="9.053655445326076"><ele>603.0</ele><time>2026-05-01T13:48:26Z</time></trkpt><trkpt lat="39.86327138374567" lon="9.053562254773635"><ele>603.0</ele><time>2026-05-01T13:48:27Z</time></trkpt><trkpt lat="39.863340327515" lon="9.053471871628615"><ele>603.0</ele><time>2026-05-01T13:48:28Z</time></trkpt><trkpt lat="39.86340665641739" lon="9.053416259458944"><ele>603.0</ele><time>2026-05-01T13:48:29Z</time></trkpt><trkpt lat="39.86344918227123" lon="9.053350538228342"><ele>603.0</ele><time>2026-05-01T13:48:31Z</time></trkpt><trkpt lat="39.8634647392559" lon="9.05326836292643"><ele>603.0</ele><time>2026-05-01T13:48:33Z</time></trkpt><trkpt lat="39.863299782918084" lon="9.053219255904565"><ele>603.0</ele><time>2026-05-01T13:48:35Z</time></trkpt><trkpt lat="39.86321130130697" lon="9.05330170504178"><ele>603.0</ele><time>2026-05-01T13:48:36Z</time></trkpt><trkpt lat="39.863115056656525" lon="9.053377625724641"><ele>603.0</ele><time>2026-05-01T13:48:37Z</time></trkpt><trkpt lat="39.862992821162464" lon="9.053430644378196"><ele>603.0</ele><time>2026-05-01T13:48:38Z</time></trkpt><trkpt lat="39.86284577120059" lon="9.053423726035248"><ele>603.0</ele><time>2026-05-01T13:48:39Z</time></trkpt><trkpt lat="39.86268819160413" lon="9.053433910303522"><ele>603.0</ele><time>2026-05-01T13:48:40Z</time></trkpt><trkpt lat="39.86252581094397" lon="9.053401867153916"><ele>603.0</ele><time>2026-05-01T13:48:41Z</time></trkpt><trkpt lat="39.862379480788675" lon="9.05332653948465"><ele>598.25</ele><time>2026-05-01T13:48:42Z</time></trkpt><trkpt lat="39.86223039685347" lon="9.053264943091225"><ele>593.5</ele><time>2026-05-01T13:48:43Z</time></trkpt><trkpt lat="39.862094967694375" lon="9.053192200173084"><ele>588.75</ele><time>2026-05-01T13:48:44Z</time></trkpt><trkpt lat="39.861990398902755" lon="9.053090821987091"><ele>584.0</ele><time>2026-05-01T13:48:45Z</time></trkpt><trkpt lat="39.861906305294866" lon="9.052977475716926"><ele>584.0</ele><time>2026-05-01T13:48:46Z</time></trkpt><trkpt lat="39.861878507281546" lon="9.052805673554762"><ele>584.0</ele><time>2026-05-01T13:48:47Z</time></trkpt><trkpt lat="39.86187758795562" lon="9.052623476684804"><ele>584.0</ele><time>2026-05-01T13:48:48Z</time></trkpt><trkpt lat="39.86185296898554" lon="9.052453696110273"><ele>584.0</ele><time>2026-05-01T13:48:49Z</time></trkpt><trkpt lat="39.8617827162551" lon="9.052301489065298"><ele>580.6666666666666</ele><time>2026-05-01T13:48:50Z</time></trkpt><trkpt lat="39.86166855852861" lon="9.0521731507414"><ele>577.3333333333334</ele><time>2026-05-01T13:48:51Z</time></trkpt><trkpt lat="39.86154259010155" lon="9.052081890884006"><ele>574.0</ele><time>2026-05-01T13:48:52Z</time></trkpt><trkpt lat="39.861378440629274" lon="9.052064776297337"><ele>574.0</ele><time>2026-05-01T13:48:53Z</time></trkpt><trkpt lat="39.86121622869929" lon="9.052075821240715"><ele>574.0</ele><time>2026-05-01T13:48:54Z</time></trkpt><trkpt lat="39.8610468373532" lon="9.052088079156583"><ele>574.0</ele><time>2026-05-01T13:48:55Z</time></trkpt><trkpt lat="39.860871764937485" lon="9.052108134611785"><ele>573.0</ele><time>2026-05-01T13:48:56Z</time></trkpt><trkpt lat="39.86069919445927" lon="9.052138529896563"><ele>572.0</ele><time>2026-05-01T13:48:57Z</time></trkpt><trkpt lat="39.86052936914794" lon="9.052176322256624"><ele>571.0</ele><time>2026-05-01T13:48:58Z</time></trkpt><trkpt lat="39.860364211202786" lon="9.052223426118513"><ele>571.0</ele><time>2026-05-01T13:48:59Z</time></trkpt><trkpt lat="39.86021161205401" lon="9.052269832397313"><ele>571.0</ele><time>2026-05-01T13:49:00Z</time></trkpt><trkpt lat="39.86007247263331" lon="9.052309355426694"><ele>571.0</ele><time>2026-05-01T13:49:01Z</time></trkpt><trkpt lat="39.859945770170754" lon="9.052332146996"><ele>571.0</ele><time>2026-05-01T13:49:02Z</time></trkpt><trkpt lat="39.85983478437154" lon="9.052264770599741"><ele>570.75</ele><time>2026-05-01T13:49:03Z</time></trkpt><trkpt lat="39.85978213515021" lon="9.052128604660844"><ele>570.5</ele><time>2026-05-01T13:49:04Z</time></trkpt><trkpt lat="39.85976245720391" lon="9.051965005474091"><ele>570.25</ele><time>2026-05-01T13:49:05Z</time></trkpt><trkpt lat="39.85973928595224" lon="9.051773855596679"><ele>570.0</ele><time>2026-05-01T13:49:06Z</time></trkpt><trkpt lat="39.85973895628252" lon="9.051567400905107"><ele>566.3333333333334</ele><time>2026-05-01T13:49:07Z</time></trkpt><trkpt lat="39.85972623652024" lon="9.05134030498454"><ele>562.6666666666667</ele><time>2026-05-01T13:49:08Z</time></trkpt><trkpt lat="39.85971051675554" lon="9.051127262952477"><ele>559.0</ele><time>2026-05-01T13:49:09Z</time></trkpt><trkpt lat="39.859697981860826" lon="9.050930195811654"><ele>556.5</ele><time>2026-05-01T13:49:10Z</time></trkpt><trkpt lat="39.85967178062048" lon="9.050755064651222"><ele>554.0</ele><time>2026-05-01T13:49:11Z</time></trkpt><trkpt lat="39.8596053927114" lon="9.050603166466427"><ele>551.5</ele><time>2026-05-01T13:49:12Z</time></trkpt><trkpt lat="39.85948578571994" lon="9.050484168913506"><ele>549.0</ele><time>2026-05-01T13:49:13Z</time></trkpt><trkpt lat="39.85935513391856" lon="9.050369248110787"><ele>550.5</ele><time>2026-05-01T13:49:14Z</time></trkpt><trkpt lat="39.85925718057057" lon="9.050212476281155"><ele>552.0</ele><time>2026-05-01T13:49:15Z</time></trkpt><trkpt lat="39.85916259780597" lon="9.050061362097907"><ele>553.5</ele><time>2026-05-01T13:49:16Z</time></trkpt><trkpt lat="39.859084394647454" lon="9.049928623199177"><ele>555.0</ele><time>2026-05-01T13:49:17Z</time></trkpt><trkpt lat="39.85897953179552" lon="9.04983999674719"><ele>555.0</ele><time>2026-05-01T13:49:18Z</time></trkpt><trkpt lat="39.85885545140003" lon="9.049808873525231"><ele>555.0</ele><time>2026-05-01T13:49:19Z</time></trkpt><trkpt lat="39.85872829108227" lon="9.049845860388434"><ele>555.0</ele><time>2026-05-01T13:49:20Z</time></trkpt><trkpt lat="39.85861314477203" lon="9.049945255380207"><ele>555.0</ele><time>2026-05-01T13:49:21Z</time></trkpt><trkpt lat="39.85851664014941" lon="9.05009203048901"><ele>554.25</ele><time>2026-05-01T13:49:22Z</time></trkpt><trkpt lat="39.85841164944883" lon="9.05022572182129"><ele>553.5</ele><time>2026-05-01T13:49:23Z</time></trkpt><trkpt lat="39.8583192357044" lon="9.050353520048647"><ele>552.75</ele><time>2026-05-01T13:49:24Z</time></trkpt><trkpt lat="39.858236280764615" lon="9.050491068376393"><ele>552.0</ele><time>2026-05-01T13:49:25Z</time></trkpt><trkpt lat="39.85814315968269" lon="9.0506089583306"><ele>552.0</ele><time>2026-05-01T13:49:26Z</time></trkpt><trkpt lat="39.85807163251415" lon="9.050740014813664"><ele>552.0</ele><time>2026-05-01T13:49:27Z</time></trkpt><trkpt lat="39.85802280244824" lon="9.050882824237341"><ele>552.0</ele><time>2026-05-01T13:49:28Z</time></trkpt><trkpt lat="39.85799487653417" lon="9.051029820574112"><ele>552.0</ele><time>2026-05-01T13:49:29Z</time></trkpt><trkpt lat="39.85797095337413" lon="9.051174204301619"><ele>554.2</ele><time>2026-05-01T13:49:30Z</time></trkpt><trkpt lat="39.857955317065375" lon="9.051313361321414"><ele>556.4000000000001</ele><time>2026-05-01T13:49:31Z</time></trkpt><trkpt lat="39.85796318758126" lon="9.051451203051805"><ele>558.5999999999999</ele><time>2026-05-01T13:49:32Z</time></trkpt><trkpt lat="39.85799453937347" lon="9.051584126915223"><ele>560.8</ele><time>2026-05-01T13:49:33Z</time></trkpt><trkpt lat="39.85803676463241" lon="9.051707164767564"><ele>563.0</ele><time>2026-05-01T13:49:34Z</time></trkpt><trkpt lat="39.858077967406636" lon="9.051824227078685"><ele>563.4</ele><time>2026-05-01T13:49:35Z</time></trkpt><trkpt lat="39.85811325371196" lon="9.051941297146328"><ele>563.8</ele><time>2026-05-01T13:49:36Z</time></trkpt><trkpt lat="39.858141240732266" lon="9.052056024825035"><ele>564.2</ele><time>2026-05-01T13:49:37Z</time></trkpt><trkpt lat="39.85816999697507" lon="9.05216828728027"><ele>564.6</ele><time>2026-05-01T13:49:38Z</time></trkpt><trkpt lat="39.85819059517463" lon="9.052281336028983"><ele>565.0</ele><time>2026-05-01T13:49:39Z</time></trkpt><trkpt lat="39.858193778219785" lon="9.052396982532803"><ele>564.0</ele><time>2026-05-01T13:49:40Z</time></trkpt><trkpt lat="39.85816842901238" lon="9.0525079801125"><ele>563.0</ele><time>2026-05-01T13:49:41Z</time></trkpt><trkpt lat="39.858121295924036" lon="9.052598241318753"><ele>562.0</ele><time>2026-05-01T13:49:42Z</time></trkpt><trkpt lat="39.85804707741523" lon="9.052644991792786"><ele>561.0</ele><time>2026-05-01T13:49:43Z</time></trkpt><trkpt lat="39.85795738952585" lon="9.052614881928784"><ele>560.0</ele><time>2026-05-01T13:49:44Z</time></trkpt><trkpt lat="39.857868005644434" lon="9.052577119457402"><ele>559.0</ele><time>2026-05-01T13:49:45Z</time></trkpt><trkpt lat="39.857765134786284" lon="9.052566649331663"><ele>559.0</ele><time>2026-05-01T13:49:46Z</time></trkpt><trkpt lat="39.85766283855612" lon="9.052517430796323"><ele>559.0</ele><time>2026-05-01T13:49:47Z</time></trkpt><trkpt lat="39.85755412852821" lon="9.052485804086906"><ele>559.0</ele><time>2026-05-01T13:49:48Z</time></trkpt><trkpt lat="39.857440880507895" lon="9.052453407757854"><ele>559.0</ele><time>2026-05-01T13:49:49Z</time></trkpt><trkpt lat="39.85732984976792" lon="9.052422954684687"><ele>555.6</ele><time>2026-05-01T13:49:50Z</time></trkpt><trkpt lat="39.857218937799004" lon="9.052394428522483"><ele>552.2</ele><time>2026-05-01T13:49:51Z</time></trkpt><trkpt lat="39.85710970983378" lon="9.052367100310208"><ele>548.8000000000001</ele><time>2026-05-01T13:49:52Z</time></trkpt><trkpt lat="39.857002447004334" lon="9.052339256665931"><ele>545.4</ele><time>2026-05-01T13:49:53Z</time></trkpt><trkpt lat="39.85689346656689" lon="9.05230919872192"><ele>542.0</ele><time>2026-05-01T13:49:54Z</time></trkpt><trkpt lat="39.85678802513674" lon="9.052293504318863"><ele>540.4</ele><time>2026-05-01T13:49:55Z</time></trkpt><trkpt lat="39.85668304735194" lon="9.05228247945473"><ele>538.8000000000001</ele><time>2026-05-01T13:49:56Z</time></trkpt><trkpt lat="39.85657851967915" lon="9.052295487717991"><ele>537.2</ele><time>2026-05-01T13:49:57Z</time></trkpt><trkpt lat="39.85648173863567" lon="9.05225580246237"><ele>535.6</ele><time>2026-05-01T13:49:58Z</time></trkpt><trkpt lat="39.85639495726945" lon="9.05218784558436"><ele>534.0</ele><time>2026-05-01T13:49:59Z</time></trkpt><trkpt lat="39.856318784610195" lon="9.052109931385074"><ele>534.0</ele><time>2026-05-01T13:50:00Z</time></trkpt><trkpt lat="39.856232111009966" lon="9.052052152543808"><ele>534.0</ele><time>2026-05-01T13:50:01Z</time></trkpt><trkpt lat="39.85613674825883" lon="9.052009965676222"><ele>534.0</ele><time>2026-05-01T13:50:02Z</time></trkpt><trkpt lat="39.856040767212534" lon="9.051944610148833"><ele>534.0</ele><time>2026-05-01T13:50:03Z</time></trkpt><trkpt lat="39.855937037024454" lon="9.051908673585626"><ele>534.0</ele><time>2026-05-01T13:50:04Z</time></trkpt><trkpt lat="39.85583058367389" lon="9.051878014171907"><ele>534.4</ele><time>2026-05-01T13:50:05Z</time></trkpt><trkpt lat="39.85573102575012" lon="9.05180612248152"><ele>534.8</ele><time>2026-05-01T13:50:06Z</time></trkpt><trkpt lat="39.85564041867426" lon="9.051717538654527"><ele>535.2</ele><time>2026-05-01T13:50:07Z</time></trkpt><trkpt lat="39.855561581880835" lon="9.05161459280064"><ele>535.6</ele><time>2026-05-01T13:50:08Z</time></trkpt><trkpt lat="39.855481573284486" lon="9.051515437337752"><ele>536.0</ele><time>2026-05-01T13:50:09Z</time></trkpt><trkpt lat="39.85539464888128" lon="9.05143198868448"><ele>535.5</ele><time>2026-05-01T13:50:10Z</time></trkpt><trkpt lat="39.85530646969397" lon="9.051364781063713"><ele>535.0</ele><time>2026-05-01T13:50:11Z</time></trkpt><trkpt lat="39.85522148693055" lon="9.051322086122777"><ele>534.5</ele><time>2026-05-01T13:50:12Z</time></trkpt><trkpt lat="39.85515994050105" lon="9.051274617928366"><ele>534.0</ele><time>2026-05-01T13:50:13Z</time></trkpt><trkpt lat="39.855080514166055" lon="9.051256593372027"><ele>533.5</ele><time>2026-05-01T13:50:15Z</time></trkpt><trkpt lat="39.85502179716683" lon="9.051192134046723"><ele>533.0</ele><time>2026-05-01T13:50:20Z</time></trkpt><trkpt lat="39.85504019292676" lon="9.051103344894797"><ele>533.0</ele><time>2026-05-01T13:50:21Z</time></trkpt><trkpt lat="39.855055505670734" lon="9.051014626056078"><ele>533.0</ele><time>2026-05-01T13:50:22Z</time></trkpt><trkpt lat="39.85506845232383" lon="9.050895692081067"><ele>533.0</ele><time>2026-05-01T13:50:23Z</time></trkpt><trkpt lat="39.855073903499516" lon="9.0507784996559"><ele>533.0</ele><time>2026-05-01T13:50:24Z</time></trkpt><trkpt lat="39.855072240493676" lon="9.050663128226018"><ele>533.0</ele><time>2026-05-01T13:50:25Z</time></trkpt><trkpt lat="39.855091390947706" lon="9.050554121420058"><ele>533.0</ele><time>2026-05-01T13:50:26Z</time></trkpt><trkpt lat="39.85511044254532" lon="9.050442899804926"><ele>531.6666666666666</ele><time>2026-05-01T13:50:27Z</time></trkpt><trkpt lat="39.85512575416108" lon="9.050331831183058"><ele>530.3333333333333</ele><time>2026-05-01T13:50:28Z</time></trkpt><trkpt lat="39.855133195825495" lon="9.050221914201437"><ele>529.0</ele><time>2026-05-01T13:50:29Z</time></trkpt><trkpt lat="39.85514030966839" lon="9.050106220660885"><ele>527.6666666666666</ele><time>2026-05-01T13:50:30Z</time></trkpt><trkpt lat="39.855130150499804" lon="9.04999345202246"><ele>526.3333333333334</ele><time>2026-05-01T13:50:31Z</time></trkpt><trkpt lat="39.85511909443932" lon="9.049893632095522"><ele>525.0</ele><time>2026-05-01T13:50:32Z</time></trkpt><trkpt lat="39.85509318962427" lon="9.049790253199147"><ele>525.0</ele><time>2026-05-01T13:50:33Z</time></trkpt><trkpt lat="39.85507121515908" lon="9.049692410106607"><ele>525.0</ele><time>2026-05-01T13:50:34Z</time></trkpt><trkpt lat="39.855058319339946" lon="9.049605319037864"><ele>525.0</ele><time>2026-05-01T13:50:35Z</time></trkpt><trkpt lat="39.855041517463526" lon="9.049449779916353"><ele>525.0</ele><time>2026-05-01T13:50:37Z</time></trkpt><trkpt lat="39.85504543262752" lon="9.049283883978696"><ele>525.0</ele><time>2026-05-01T13:50:39Z</time></trkpt><trkpt lat="39.85505160196209" lon="9.049200933228166"><ele>524.1666666666666</ele><time>2026-05-01T13:50:40Z</time></trkpt><trkpt lat="39.855052543959964" lon="9.04910716365226"><ele>523.3333333333334</ele><time>2026-05-01T13:50:41Z</time></trkpt><trkpt lat="39.855083625823085" lon="9.049020459915909"><ele>522.5</ele><time>2026-05-01T13:50:42Z</time></trkpt><trkpt lat="39.85509814881224" lon="9.048926915281681"><ele>521.6666666666667</ele><time>2026-05-01T13:50:43Z</time></trkpt><trkpt lat="39.85506250244631" lon="9.048812604783263"><ele>520.8333333333334</ele><time>2026-05-01T13:50:44Z</time></trkpt><trkpt lat="39.85506290101536" lon="9.048706335933895"><ele>520.0</ele><time>2026-05-01T13:50:45Z</time></trkpt><trkpt lat="39.855045535180636" lon="9.048600291005515"><ele>520.0</ele><time>2026-05-01T13:50:46Z</time></trkpt><trkpt lat="39.85502063770875" lon="9.048489320770178"><ele>520.0</ele><time>2026-05-01T13:50:47Z</time></trkpt><trkpt lat="39.85499369459065" lon="9.048382326150495"><ele>520.0</ele><time>2026-05-01T13:50:48Z</time></trkpt><trkpt lat="39.85496946497673" lon="9.048272675715626"><ele>520.0</ele><time>2026-05-01T13:50:49Z</time></trkpt><trkpt lat="39.8549551194585" lon="9.048156705580565"><ele>520.0</ele><time>2026-05-01T13:50:50Z</time></trkpt><trkpt lat="39.854944484646815" lon="9.04804979852825"><ele>520.0</ele><time>2026-05-01T13:50:51Z</time></trkpt><trkpt lat="39.854932406907736" lon="9.047957774700906"><ele>518.0</ele><time>2026-05-01T13:50:52Z</time></trkpt><trkpt lat="39.8549219616666" lon="9.047868484978018"><ele>516.0</ele><time>2026-05-01T13:50:53Z</time></trkpt><trkpt lat="39.85487933051371" lon="9.047760987985138"><ele>514.0</ele><time>2026-05-01T13:50:55Z</time></trkpt><trkpt lat="39.854734275401086" lon="9.047800769678584"><ele>512.0</ele><time>2026-05-01T13:51:00Z</time></trkpt><trkpt lat="39.85467336780037" lon="9.047938868307028"><ele>510.0</ele><time>2026-05-01T13:51:02Z</time></trkpt><trkpt lat="39.85462268754017" lon="9.048074990682974"><ele>510.0</ele><time>2026-05-01T13:51:04Z</time></trkpt><trkpt lat="39.854570686567904" lon="9.04820722481868"><ele>510.0</ele><time>2026-05-01T13:51:06Z</time></trkpt><trkpt lat="39.85453967606678" lon="9.04828032098071"><ele>510.0</ele><time>2026-05-01T13:51:07Z</time></trkpt><trkpt lat="39.85447791943712" lon="9.048422264046595"><ele>510.0</ele><time>2026-05-01T13:51:09Z</time></trkpt><trkpt lat="39.85445080809435" lon="9.048513933732362"><ele>510.0</ele><time>2026-05-01T13:51:10Z</time></trkpt><trkpt lat="39.85440899033983" lon="9.048581393030483"><ele>510.0</ele><time>2026-05-01T13:51:11Z</time></trkpt><trkpt lat="39.85439177360514" lon="9.04873118396416"><ele>512.0</ele><time>2026-05-01T13:51:13Z</time></trkpt><trkpt lat="39.85438410930274" lon="9.0488851870166"><ele>514.0</ele><time>2026-05-01T13:51:15Z</time></trkpt><trkpt lat="39.85437337930334" lon="9.048973575579383"><ele>516.0</ele><time>2026-05-01T13:51:16Z</time></trkpt><trkpt lat="39.85434832011876" lon="9.049125599540991"><ele>518.0</ele><time>2026-05-01T13:51:18Z</time></trkpt><trkpt lat="39.8543118060394" lon="9.049294822701718"><ele>520.0</ele><time>2026-05-01T13:51:20Z</time></trkpt><trkpt lat="39.85429381298146" lon="9.04939610542336"><ele>520.2</ele><time>2026-05-01T13:51:21Z</time></trkpt><trkpt lat="39.85430286486598" lon="9.049506814008266"><ele>520.4</ele><time>2026-05-01T13:51:22Z</time></trkpt><trkpt lat="39.854301924022806" lon="9.04961185469833"><ele>520.6</ele><time>2026-05-01T13:51:23Z</time></trkpt><trkpt lat="39.85430103766782" lon="9.049710812082731"><ele>520.8</ele><time>2026-05-01T13:51:24Z</time></trkpt><trkpt lat="39.85429207818258" lon="9.049857966637289"><ele>521.0</ele><time>2026-05-01T13:51:26Z</time></trkpt><trkpt lat="39.85423374536024" lon="9.04997359706591"><ele>521.0</ele><time>2026-05-01T13:51:28Z</time></trkpt><trkpt lat="39.854205580150285" lon="9.05004968385986"><ele>521.0</ele><time>2026-05-01T13:51:29Z</time></trkpt><trkpt lat="39.854212410332345" lon="9.05018875151964"><ele>521.0</ele><time>2026-05-01T13:51:31Z</time></trkpt><trkpt lat="39.854215351183136" lon="9.050275002631908"><ele>521.0</ele><time>2026-05-01T13:51:35Z</time></trkpt><trkpt lat="39.854266018951606" lon="9.05038661241304"><ele>521.0</ele><time>2026-05-01T13:51:42Z</time></trkpt><trkpt lat="39.854280448390796" lon="9.050533227799296"><ele>522.4</ele><time>2026-05-01T13:51:44Z</time></trkpt><trkpt lat="39.85431622300581" lon="9.05061145794682"><ele>523.8</ele><time>2026-05-01T13:51:45Z</time></trkpt><trkpt lat="39.85435798003908" lon="9.050787106907576"><ele>525.1999999999999</ele><time>2026-05-01T13:51:47Z</time></trkpt><trkpt lat="39.85438719272992" lon="9.050874474226317"><ele>526.6</ele><time>2026-05-01T13:51:48Z</time></trkpt><trkpt lat="39.854419584179375" lon="9.050968180330656"><ele>528.0</ele><time>2026-05-01T13:51:49Z</time></trkpt><trkpt lat="39.85448286627403" lon="9.051076013031569"><ele>528.7142857142857</ele><time>2026-05-01T13:51:51Z</time></trkpt><trkpt lat="39.854499008557276" lon="9.051169741318898"><ele>529.4285714285714</ele><time>2026-05-01T13:51:54Z</time></trkpt><trkpt lat="39.85448972734383" lon="9.051255859384003"><ele>530.1428571428571</ele><time>2026-05-01T13:51:57Z</time></trkpt><trkpt lat="39.85450173731304" lon="9.05133638417427"><ele>530.8571428571429</ele><time>2026-05-01T13:51:59Z</time></trkpt><trkpt lat="39.85452987699695" lon="9.05142425716093"><ele>531.5714285714286</ele><time>2026-05-01T13:52:07Z</time></trkpt><trkpt lat="39.85454793948665" lon="9.051509964746534"><ele>532.2857142857142</ele><time>2026-05-01T13:52:09Z</time></trkpt><trkpt lat="39.85450371211839" lon="9.051574559980605"><ele>533.0</ele><time>2026-05-01T13:52:10Z</time></trkpt><trkpt lat="39.854473888417154" lon="9.05169449332475"><ele>532.5</ele><time>2026-05-01T13:52:12Z</time></trkpt><trkpt lat="39.85442179898106" lon="9.05175982790373"><ele>532.0</ele><time>2026-05-01T13:52:13Z</time></trkpt><trkpt lat="39.85440665227399" lon="9.051841100576196"><ele>531.5</ele><time>2026-05-01T13:52:14Z</time></trkpt><trkpt lat="39.85435885449451" lon="9.051897548956978"><ele>531.0</ele><time>2026-05-01T13:52:15Z</time></trkpt><trkpt lat="39.854307794848275" lon="9.051981029626086"><ele>530.5</ele><time>2026-05-01T13:52:16Z</time></trkpt><trkpt lat="39.85424978342328" lon="9.052075875926056"><ele>530.0</ele><time>2026-05-01T13:52:17Z</time></trkpt><trkpt lat="39.85419488778588" lon="9.052166868430952"><ele>530.0</ele><time>2026-05-01T13:52:18Z</time></trkpt><trkpt lat="39.85414153810305" lon="9.052255031060067"><ele>530.0</ele><time>2026-05-01T13:52:19Z</time></trkpt><trkpt lat="39.85408507702774" lon="9.052348335375688"><ele>530.0</ele><time>2026-05-01T13:52:20Z</time></trkpt><trkpt lat="39.854026728570595" lon="9.052444758683201"><ele>530.0</ele><time>2026-05-01T13:52:21Z</time></trkpt><trkpt lat="39.853973069754666" lon="9.052533432146765"><ele>530.0</ele><time>2026-05-01T13:52:22Z</time></trkpt><trkpt lat="39.85392484011761" lon="9.05261259407155"><ele>530.0</ele><time>2026-05-01T13:52:23Z</time></trkpt><trkpt lat="39.85388246265239" lon="9.0526819472722"><ele>530.4</ele><time>2026-05-01T13:52:24Z</time></trkpt><trkpt lat="39.85380897686552" lon="9.052797587725912"><ele>530.8</ele><time>2026-05-01T13:52:26Z</time></trkpt><trkpt lat="39.853732984415196" lon="9.052922348787261"><ele>531.2</ele><time>2026-05-01T13:52:28Z</time></trkpt><trkpt lat="39.85369945975152" lon="9.053005455144941"><ele>531.6</ele><time>2026-05-01T13:52:29Z</time></trkpt><trkpt lat="39.853636914625525" lon="9.053080071984917"><ele>532.0</ele><time>2026-05-01T13:52:30Z</time></trkpt><trkpt lat="39.853589144553645" lon="9.053158498803505"><ele>532.0</ele><time>2026-05-01T13:52:31Z</time></trkpt><trkpt lat="39.853534232263314" lon="9.053248651419946"><ele>532.0</ele><time>2026-05-01T13:52:32Z</time></trkpt><trkpt lat="39.8534814170816" lon="9.053336624397103"><ele>532.0</ele><time>2026-05-01T13:52:33Z</time></trkpt><trkpt lat="39.85343304876066" lon="9.053418053482853"><ele>532.0</ele><time>2026-05-01T13:52:34Z</time></trkpt><trkpt lat="39.85338390782497" lon="9.05350078329772"><ele>532.0</ele><time>2026-05-01T13:52:35Z</time></trkpt><trkpt lat="39.8533324468016" lon="9.05358741901945"><ele>532.0</ele><time>2026-05-01T13:52:36Z</time></trkpt><trkpt lat="39.85328124501541" lon="9.053673618322755"><ele>531.5</ele><time>2026-05-01T13:52:37Z</time></trkpt><trkpt lat="39.8532404567558" lon="9.053772838010959"><ele>531.0</ele><time>2026-05-01T13:52:38Z</time></trkpt><trkpt lat="39.85318341431202" lon="9.053850971903184"><ele>530.5</ele><time>2026-05-01T13:52:39Z</time></trkpt><trkpt lat="39.85313724847762" lon="9.053934794171925"><ele>530.0</ele><time>2026-05-01T13:52:40Z</time></trkpt><trkpt lat="39.85308170081512" lon="9.054001976519798"><ele>529.5</ele><time>2026-05-01T13:52:41Z</time></trkpt><trkpt lat="39.85303260006395" lon="9.054081910213336"><ele>529.0</ele><time>2026-05-01T13:52:42Z</time></trkpt><trkpt lat="39.85298395150709" lon="9.05416110716596"><ele>529.0</ele><time>2026-05-01T13:52:43Z</time></trkpt><trkpt lat="39.852940391596256" lon="9.054249252345992"><ele>529.0</ele><time>2026-05-01T13:52:44Z</time></trkpt><trkpt lat="39.85289790858945" lon="9.054338017039926"><ele>529.0</ele><time>2026-05-01T13:52:45Z</time></trkpt><trkpt lat="39.85285945768967" lon="9.054435218362876"><ele>529.0</ele><time>2026-05-01T13:52:46Z</time></trkpt><trkpt lat="39.85284284524521" lon="9.05453066496906"><ele>529.0</ele><time>2026-05-01T13:52:47Z</time></trkpt><trkpt lat="39.85280495064362" lon="9.054606213139389"><ele>529.0</ele><time>2026-05-01T13:52:48Z</time></trkpt><trkpt lat="39.852762073432444" lon="9.054732111745013"><ele>529.0</ele><time>2026-05-01T13:52:50Z</time></trkpt><trkpt lat="39.85266991769325" lon="9.054769412016192"><ele>529.0</ele><time>2026-05-01T13:52:51Z</time></trkpt><trkpt lat="39.85259902167558" lon="9.05478360074549"><ele>529.0</ele><time>2026-05-01T13:52:52Z</time></trkpt><trkpt lat="39.852457953962244" lon="9.0547577012051"><ele>529.0</ele><time>2026-05-01T13:52:54Z</time></trkpt><trkpt lat="39.85239799606508" lon="9.054720492476491"><ele>529.0</ele><time>2026-05-01T13:52:55Z</time></trkpt><trkpt lat="39.85234278461965" lon="9.054665916285018"><ele>529.0</ele><time>2026-05-01T13:52:56Z</time></trkpt><trkpt lat="39.852298348090045" lon="9.054581835323425"><ele>528.0</ele><time>2026-05-01T13:52:57Z</time></trkpt><trkpt lat="39.85227739769245" lon="9.05449519172178"><ele>527.0</ele><time>2026-05-01T13:52:58Z</time></trkpt><trkpt lat="39.85226336595984" lon="9.054391876226871"><ele>526.0</ele><time>2026-05-01T13:52:59Z</time></trkpt><trkpt lat="39.85226340349053" lon="9.054296222585302"><ele>525.0</ele><time>2026-05-01T13:53:00Z</time></trkpt><trkpt lat="39.85225863120691" lon="9.05420157461141"><ele>524.0</ele><time>2026-05-01T13:53:01Z</time></trkpt><trkpt lat="39.8522576437734" lon="9.054103271535796"><ele>523.0</ele><time>2026-05-01T13:53:02Z</time></trkpt><trkpt lat="39.85225103154967" lon="9.054007006738232"><ele>522.0</ele><time>2026-05-01T13:53:03Z</time></trkpt><trkpt lat="39.852238455061816" lon="9.053897974850065"><ele>521.5</ele><time>2026-05-01T13:53:04Z</time></trkpt><trkpt lat="39.852203582397536" lon="9.053812429437466"><ele>521.0</ele><time>2026-05-01T13:53:05Z</time></trkpt><trkpt lat="39.852159457931336" lon="9.053741437837997"><ele>520.5</ele><time>2026-05-01T13:53:06Z</time></trkpt><trkpt lat="39.85210810311963" lon="9.053691541176825"><ele>520.0</ele><time>2026-05-01T13:53:07Z</time></trkpt><trkpt lat="39.85199835634724" lon="9.053609501865015"><ele>519.5</ele><time>2026-05-01T13:53:09Z</time></trkpt><trkpt lat="39.8519338837564" lon="9.053577655020733"><ele>519.0</ele><time>2026-05-01T13:53:10Z</time></trkpt><trkpt lat="39.851866603155884" lon="9.053550738378435"><ele>519.0</ele><time>2026-05-01T13:53:11Z</time></trkpt><trkpt lat="39.851796692822" lon="9.05352232602115"><ele>519.0</ele><time>2026-05-01T13:53:12Z</time></trkpt><trkpt lat="39.85172435546162" lon="9.053493020829574"><ele>519.0</ele><time>2026-05-01T13:53:13Z</time></trkpt><trkpt lat="39.85164909858876" lon="9.053468582937382"><ele>519.0</ele><time>2026-05-01T13:53:14Z</time></trkpt><trkpt lat="39.851572244777266" lon="9.053444354269816"><ele>519.0</ele><time>2026-05-01T13:53:15Z</time></trkpt><trkpt lat="39.85149280373004" lon="9.053417433784414"><ele>519.0</ele><time>2026-05-01T13:53:16Z</time></trkpt><trkpt lat="39.851413022863944" lon="9.053395532960867"><ele>518.0</ele><time>2026-05-01T13:53:17Z</time></trkpt><trkpt lat="39.851333292511434" lon="9.053350846475936"><ele>517.0</ele><time>2026-05-01T13:53:18Z</time></trkpt><trkpt lat="39.851252927262074" lon="9.053324859792507"><ele>516.0</ele><time>2026-05-01T13:53:19Z</time></trkpt><trkpt lat="39.85116582355681" lon="9.05331760442283"><ele>515.0</ele><time>2026-05-01T13:53:20Z</time></trkpt><trkpt lat="39.85108541475982" lon="9.053287889180828"><ele>514.0</ele><time>2026-05-01T13:53:21Z</time></trkpt><trkpt lat="39.8510074977825" lon="9.05326345822757"><ele>513.0</ele><time>2026-05-01T13:53:22Z</time></trkpt><trkpt lat="39.850924118879206" lon="9.053229622441938"><ele>512.5</ele><time>2026-05-01T13:53:23Z</time></trkpt><trkpt lat="39.850852795768766" lon="9.053197481195355"><ele>512.0</ele><time>2026-05-01T13:53:24Z</time></trkpt><trkpt lat="39.85078344406415" lon="9.053138425347637"><ele>511.5</ele><time>2026-05-01T13:53:25Z</time></trkpt><trkpt lat="39.85072129160203" lon="9.053067873910516"><ele>511.0</ele><time>2026-05-01T13:53:26Z</time></trkpt><trkpt lat="39.85068135839826" lon="9.052961771218246"><ele>510.5</ele><time>2026-05-01T13:53:27Z</time></trkpt><trkpt lat="39.85066357254631" lon="9.052843281802286"><ele>510.0</ele><time>2026-05-01T13:53:28Z</time></trkpt><trkpt lat="39.85066183838531" lon="9.05271580823014"><ele>510.0</ele><time>2026-05-01T13:53:29Z</time></trkpt><trkpt lat="39.85068423604639" lon="9.052595977529151"><ele>510.0</ele><time>2026-05-01T13:53:30Z</time></trkpt><trkpt lat="39.85073208894276" lon="9.052472821703823"><ele>510.0</ele><time>2026-05-01T13:53:31Z</time></trkpt><trkpt lat="39.85078218040976" lon="9.052362722258216"><ele>510.0</ele><time>2026-05-01T13:53:32Z</time></trkpt><trkpt lat="39.850838833724154" lon="9.052246651348064"><ele>510.0</ele><time>2026-05-01T13:53:33Z</time></trkpt><trkpt lat="39.85089049676282" lon="9.052132972402527"><ele>509.8</ele><time>2026-05-01T13:53:34Z</time></trkpt><trkpt lat="39.850942029882425" lon="9.052002076870622"><ele>509.6</ele><time>2026-05-01T13:53:35Z</time></trkpt><trkpt lat="39.850991533173854" lon="9.051872635570492"><ele>509.4</ele><time>2026-05-01T13:53:36Z</time></trkpt><trkpt lat="39.8510315763574" lon="9.05174227963178"><ele>509.2</ele><time>2026-05-01T13:53:37Z</time></trkpt><trkpt lat="39.85106385614733" lon="9.051611621673862"><ele>509.0</ele><time>2026-05-01T13:53:38Z</time></trkpt><trkpt lat="39.85109035130579" lon="9.051480972678501"><ele>506.79999999999995</ele><time>2026-05-01T13:53:39Z</time></trkpt><trkpt lat="39.85111039291508" lon="9.051345471002247"><ele>504.59999999999997</ele><time>2026-05-01T13:53:40Z</time></trkpt><trkpt lat="39.85112366250926" lon="9.05120182559617"><ele>502.4</ele><time>2026-05-01T13:53:41Z</time></trkpt><trkpt lat="39.851131256932256" lon="9.051055095640852"><ele>500.2</ele><time>2026-05-01T13:53:42Z</time></trkpt><trkpt lat="39.85114017231074" lon="9.050903214993054"><ele>498.0</ele><time>2026-05-01T13:53:43Z</time></trkpt><trkpt lat="39.8511516517146" lon="9.050746250551487"><ele>497.5</ele><time>2026-05-01T13:53:44Z</time></trkpt><trkpt lat="39.85116589233661" lon="9.050586292557547"><ele>497.0</ele><time>2026-05-01T13:53:45Z</time></trkpt><trkpt lat="39.8511787824736" lon="9.05042461680216"><ele>496.5</ele><time>2026-05-01T13:53:46Z</time></trkpt><trkpt lat="39.85119203237912" lon="9.05026680439785"><ele>496.0</ele><time>2026-05-01T13:53:47Z</time></trkpt><trkpt lat="39.85120884281964" lon="9.05010967808933"><ele>495.25</ele><time>2026-05-01T13:53:48Z</time></trkpt><trkpt lat="39.85123704727548" lon="9.049948178690494"><ele>494.5</ele><time>2026-05-01T13:53:49Z</time></trkpt><trkpt lat="39.851288028773666" lon="9.04979044620335"><ele>493.75</ele><time>2026-05-01T13:53:50Z</time></trkpt><trkpt lat="39.85135288507267" lon="9.049638153502203"><ele>493.0</ele><time>2026-05-01T13:53:51Z</time></trkpt><trkpt lat="39.85142233709016" lon="9.049493508857768"><ele>493.0</ele><time>2026-05-01T13:53:52Z</time></trkpt><trkpt lat="39.851478369603285" lon="9.049355712365406"><ele>492.99999999999994</ele><time>2026-05-01T13:53:53Z</time></trkpt><trkpt lat="39.85152762776391" lon="9.0492376483964"><ele>492.99999999999994</ele><time>2026-05-01T13:53:54Z</time></trkpt><trkpt lat="39.851570100690125" lon="9.049134831946695"><ele>493.0</ele><time>2026-05-01T13:53:55Z</time></trkpt><trkpt lat="39.851610506069065" lon="9.0490658306553"><ele>493.0</ele><time>2026-05-01T13:53:56Z</time></trkpt><trkpt lat="39.85168331383621" lon="9.04902005563995"><ele>493.00000000000006</ele><time>2026-05-01T13:53:58Z</time></trkpt><trkpt lat="39.85175438314065" lon="9.049075690488165"><ele>493.0</ele><time>2026-05-01T13:54:00Z</time></trkpt><trkpt lat="39.851772714333116" lon="9.04915438292085"><ele>493.0</ele><time>2026-05-01T13:54:01Z</time></trkpt><trkpt lat="39.8517882463419" lon="9.049238605273041"><ele>493.0</ele><time>2026-05-01T13:54:02Z</time></trkpt><trkpt lat="39.85181446932619" lon="9.049333899287628"><ele>493.00000000000006</ele><time>2026-05-01T13:54:03Z</time></trkpt><trkpt lat="39.85184727981044" lon="9.049439189409606"><ele>493.0</ele><time>2026-05-01T13:54:04Z</time></trkpt><trkpt lat="39.851878505346065" lon="9.049555316837765"><ele>492.6666666666667</ele><time>2026-05-01T13:54:05Z</time></trkpt><trkpt lat="39.85190833786316" lon="9.049670002628254"><ele>492.33333333333337</ele><time>2026-05-01T13:54:06Z</time></trkpt><trkpt lat="39.851936289405494" lon="9.049777089348796"><ele>492.0</ele><time>2026-05-01T13:54:07Z</time></trkpt><trkpt lat="39.8519644282757" lon="9.049869135226524"><ele>491.66666666666663</ele><time>2026-05-01T13:54:08Z</time></trkpt><trkpt lat="39.85199498813271" lon="9.049956188647357"><ele>491.3333333333333</ele><time>2026-05-01T13:54:09Z</time></trkpt><trkpt lat="39.852030043412476" lon="9.050042462741624"><ele>491.0</ele><time>2026-05-01T13:54:10Z</time></trkpt><trkpt lat="39.85206993428948" lon="9.050119376897463"><ele>491.71428571428567</ele><time>2026-05-01T13:54:11Z</time></trkpt><trkpt lat="39.85211485602406" lon="9.050184166429764"><ele>492.4285714285714</ele><time>2026-05-01T13:54:12Z</time></trkpt><trkpt lat="39.852172013082686" lon="9.050226454908406"><ele>493.1428571428571</ele><time>2026-05-01T13:54:13Z</time></trkpt><trkpt lat="39.85223684012421" lon="9.050242893279224"><ele>493.8571428571429</ele><time>2026-05-01T13:54:14Z</time></trkpt><trkpt lat="39.852306628373206" lon="9.050230324196601"><ele>494.5714285714286</ele><time>2026-05-01T13:54:15Z</time></trkpt><trkpt lat="39.85237329183518" lon="9.050198253256692"><ele>495.28571428571433</ele><time>2026-05-01T13:54:16Z</time></trkpt><trkpt lat="39.85244081184954" lon="9.050161031970234"><ele>496.0</ele><time>2026-05-01T13:54:17Z</time></trkpt><trkpt lat="39.85250843884752" lon="9.050120930719839"><ele>496.00000000000006</ele><time>2026-05-01T13:54:18Z</time></trkpt><trkpt lat="39.852619681313264" lon="9.050128998733795"><ele>496.0</ele><time>2026-05-01T13:54:20Z</time></trkpt><trkpt lat="39.85264073191104" lon="9.050243277000282"><ele>496.0</ele><time>2026-05-01T13:54:22Z</time></trkpt><trkpt lat="39.85261156854176" lon="9.050382518962266"><ele>496.0</ele><time>2026-05-01T13:54:24Z</time></trkpt><trkpt lat="39.85260581164965" lon="9.050468913287412"><ele>496.00000000000006</ele><time>2026-05-01T13:54:25Z</time></trkpt><trkpt lat="39.85260905150686" lon="9.050557801344167"><ele>496.0</ele><time>2026-05-01T13:54:26Z</time></trkpt><trkpt lat="39.85262618767948" lon="9.0506431073873"><ele>497.6666666666667</ele><time>2026-05-01T13:54:27Z</time></trkpt><trkpt lat="39.852658190298655" lon="9.050726930278687"><ele>499.33333333333337</ele><time>2026-05-01T13:54:28Z</time></trkpt><trkpt lat="39.852683665238715" lon="9.050811244723029"><ele>501.0</ele><time>2026-05-01T13:54:29Z</time></trkpt><trkpt lat="39.85270667996879" lon="9.05089388722181"><ele>502.66666666666663</ele><time>2026-05-01T13:54:30Z</time></trkpt><trkpt lat="39.85273079915009" lon="9.050974823433236"><ele>504.3333333333333</ele><time>2026-05-01T13:54:31Z</time></trkpt><trkpt lat="39.852769579347104" lon="9.051119060797816"><ele>506.0</ele><time>2026-05-01T13:54:33Z</time></trkpt><trkpt lat="39.85279814081871" lon="9.051246655700258"><ele>506.8333333333333</ele><time>2026-05-01T13:54:35Z</time></trkpt><trkpt lat="39.852807138729226" lon="9.05135897459703"><ele>507.66666666666663</ele><time>2026-05-01T13:54:38Z</time></trkpt><trkpt lat="39.8528028514797" lon="9.051449058431519"><ele>508.5</ele><time>2026-05-01T13:54:42Z</time></trkpt><trkpt lat="39.8528379765796" lon="9.051518400905197"><ele>509.33333333333337</ele><time>2026-05-01T13:54:45Z</time></trkpt><trkpt lat="39.8528405818537" lon="9.051619214836853"><ele>510.1666666666667</ele><time>2026-05-01T13:54:47Z</time></trkpt><trkpt lat="39.852850739812475" lon="9.051711819164204"><ele>511.0</ele><time>2026-05-01T13:54:49Z</time></trkpt><trkpt lat="39.852758634316615" lon="9.05178863672749"><ele>511.6666666666667</ele><time>2026-05-01T13:54:50Z</time></trkpt><trkpt lat="39.85271776500897" lon="9.05194499422236"><ele>512.3333333333334</ele><time>2026-05-01T13:54:52Z</time></trkpt><trkpt lat="39.85267679633642" lon="9.052027037532598"><ele>513.0</ele><time>2026-05-01T13:54:53Z</time></trkpt><trkpt lat="39.8526387769359" lon="9.052104374533563"><ele>513.6666666666666</ele><time>2026-05-01T13:54:54Z</time></trkpt><trkpt lat="39.85259704916351" lon="9.05218137592364"><ele>514.3333333333333</ele><time>2026-05-01T13:54:55Z</time></trkpt><trkpt lat="39.852553552432376" lon="9.052259029091447"><ele>515.0</ele><time>2026-05-01T13:54:56Z</time></trkpt><trkpt lat="39.85248824386925" lon="9.052337898579662"><ele>514.8333333333333</ele><time>2026-05-01T13:54:57Z</time></trkpt><trkpt lat="39.852434413080736" lon="9.052423255113403"><ele>514.6666666666666</ele><time>2026-05-01T13:54:58Z</time></trkpt><trkpt lat="39.85238408496637" lon="9.052503057661978"><ele>514.5</ele><time>2026-05-01T13:54:59Z</time></trkpt><trkpt lat="39.852333646642805" lon="9.052581835735772"><ele>514.3333333333334</ele><time>2026-05-01T13:55:00Z</time></trkpt><trkpt lat="39.8522942045735" lon="9.052667329813971"><ele>514.1666666666667</ele><time>2026-05-01T13:55:01Z</time></trkpt><trkpt lat="39.85224598783036" lon="9.052746539191052"><ele>514.0</ele><time>2026-05-01T13:55:02Z</time></trkpt><trkpt lat="39.852200072558084" lon="9.052830457356398"><ele>514.0</ele><time>2026-05-01T13:55:03Z</time></trkpt><trkpt lat="39.852137336642635" lon="9.052907343566268"><ele>514.0</ele><time>2026-05-01T13:55:04Z</time></trkpt><trkpt lat="39.8520872676374" lon="9.05299388453864"><ele>514.0</ele><time>2026-05-01T13:55:05Z</time></trkpt><trkpt lat="39.85203548557554" lon="9.05308327596501"><ele>514.0</ele><time>2026-05-01T13:55:06Z</time></trkpt><trkpt lat="39.8519861332858" lon="9.053168472886059"><ele>514.0</ele><time>2026-05-01T13:55:07Z</time></trkpt><trkpt lat="39.85193824143983" lon="9.05325114861034"><ele>514.0</ele><time>2026-05-01T13:55:08Z</time></trkpt><trkpt lat="39.85189562864406" lon="9.053328402124752"><ele>515.0</ele><time>2026-05-01T13:55:09Z</time></trkpt><trkpt lat="39.851858944172385" lon="9.053430191485289"><ele>516.0</ele><time>2026-05-01T13:55:11Z</time></trkpt><trkpt lat="39.851807464304976" lon="9.053496382170014"><ele>517.0</ele><time>2026-05-01T13:55:14Z</time></trkpt><trkpt lat="39.85193455601069" lon="9.05361769410604"><ele>518.0</ele><time>2026-05-01T13:55:16Z</time></trkpt><trkpt lat="39.852011018675704" lon="9.053639596075048"><ele>519.0</ele><time>2026-05-01T13:55:17Z</time></trkpt><trkpt lat="39.85207057098901" lon="9.053684098946686"><ele>519.0</ele><time>2026-05-01T13:55:18Z</time></trkpt><trkpt lat="39.85213295958691" lon="9.053746678666105"><ele>519.0</ele><time>2026-05-01T13:55:19Z</time></trkpt><trkpt lat="39.852189018582386" lon="9.053833934285903"><ele>519.0</ele><time>2026-05-01T13:55:20Z</time></trkpt><trkpt lat="39.85221969847188" lon="9.053944933892813"><ele>519.0</ele><time>2026-05-01T13:55:21Z</time></trkpt><trkpt lat="39.85221547743856" lon="9.05406659671652"><ele>519.0</ele><time>2026-05-01T13:55:22Z</time></trkpt><trkpt lat="39.852233595369995" lon="9.054197724990898"><ele>519.6</ele><time>2026-05-01T13:55:23Z</time></trkpt><trkpt lat="39.85223080607754" lon="9.054334514109978"><ele>520.2</ele><time>2026-05-01T13:55:24Z</time></trkpt><trkpt lat="39.85224626517022" lon="9.054470972520825"><ele>520.8000000000001</ele><time>2026-05-01T13:55:25Z</time></trkpt><trkpt lat="39.852284090173974" lon="9.054596627618317"><ele>521.4</ele><time>2026-05-01T13:55:26Z</time></trkpt><trkpt lat="39.852345306347395" lon="9.054699350404833"><ele>522.0</ele><time>2026-05-01T13:55:27Z</time></trkpt><trkpt lat="39.85241443749152" lon="9.05479246078728"><ele>522.0</ele><time>2026-05-01T13:55:28Z</time></trkpt><trkpt lat="39.85251560086387" lon="9.054829907081889"><ele>522.0</ele><time>2026-05-01T13:55:29Z</time></trkpt><trkpt lat="39.85261058996019" lon="9.05482692488785"><ele>522.0</ele><time>2026-05-01T13:55:30Z</time></trkpt><trkpt lat="39.85268132631834" lon="9.054809146445873"><ele>522.0</ele><time>2026-05-01T13:55:31Z</time></trkpt><trkpt lat="39.852778896290395" lon="9.054863706145637"><ele>522.0</ele><time>2026-05-01T13:55:33Z</time></trkpt><trkpt lat="39.85284694895853" lon="9.055031960070817"><ele>523.4</ele><time>2026-05-01T13:55:35Z</time></trkpt><trkpt lat="39.852881976376565" lon="9.055151050668183"><ele>524.8000000000001</ele><time>2026-05-01T13:55:36Z</time></trkpt><trkpt lat="39.852914771956925" lon="9.055268367921958"><ele>526.2</ele><time>2026-05-01T13:55:37Z</time></trkpt><trkpt lat="39.85295460395524" lon="9.055400693883119"><ele>527.6</ele><time>2026-05-01T13:55:38Z</time></trkpt><trkpt lat="39.85299598920449" lon="9.055539351011777"><ele>529.0</ele><time>2026-05-01T13:55:39Z</time></trkpt><trkpt lat="39.85304233217292" lon="9.05568853342947"><ele>527.0</ele><time>2026-05-01T13:55:40Z</time></trkpt><trkpt lat="39.853087011086025" lon="9.055845747687757"><ele>525.0</ele><time>2026-05-01T13:55:41Z</time></trkpt><trkpt lat="39.853128617122756" lon="9.055997294436212"><ele>523.0</ele><time>2026-05-01T13:55:42Z</time></trkpt><trkpt lat="39.85317093848912" lon="9.056144878411237"><ele>521.0</ele><time>2026-05-01T13:55:43Z</time></trkpt><trkpt lat="39.853215346211265" lon="9.056289663313486"><ele>521.0</ele><time>2026-05-01T13:55:44Z</time></trkpt><trkpt lat="39.85323172286093" lon="9.056436545200901"><ele>521.0</ele><time>2026-05-01T13:55:45Z</time></trkpt><trkpt lat="39.85321181869091" lon="9.056585617056365"><ele>521.0</ele><time>2026-05-01T13:55:46Z</time></trkpt><trkpt lat="39.853165039063434" lon="9.056730484354729"><ele>521.0</ele><time>2026-05-01T13:55:47Z</time></trkpt><trkpt lat="39.853083732361526" lon="9.056861394580325"><ele>522.25</ele><time>2026-05-01T13:55:48Z</time></trkpt><trkpt lat="39.85296840238815" lon="9.056962725366262"><ele>523.5</ele><time>2026-05-01T13:55:49Z</time></trkpt><trkpt lat="39.85283508721361" lon="9.057026633886109"><ele>524.75</ele><time>2026-05-01T13:55:50Z</time></trkpt><trkpt lat="39.85268865010249" lon="9.057074085792356"><ele>526.0</ele><time>2026-05-01T13:55:51Z</time></trkpt><trkpt lat="39.852561899873045" lon="9.0571007535273"><ele>522.0</ele><time>2026-05-01T13:55:52Z</time></trkpt><trkpt lat="39.852426000384455" lon="9.057111175789514"><ele>518.0</ele><time>2026-05-01T13:55:53Z</time></trkpt><trkpt lat="39.8522822767366" lon="9.057092766747976"><ele>514.0</ele><time>2026-05-01T13:55:54Z</time></trkpt><trkpt lat="39.852135041820084" lon="9.057052648824472"><ele>510.0</ele><time>2026-05-01T13:55:55Z</time></trkpt><trkpt lat="39.85198530320822" lon="9.05699439029841"><ele>510.0</ele><time>2026-05-01T13:55:56Z</time></trkpt><trkpt lat="39.8518484125634" lon="9.056922822984534"><ele>510.0</ele><time>2026-05-01T13:55:57Z</time></trkpt><trkpt lat="39.851714622610025" lon="9.056830157769886"><ele>510.0</ele><time>2026-05-01T13:55:58Z</time></trkpt><trkpt lat="39.851592855387075" lon="9.056710909092795"><ele>507.75</ele><time>2026-05-01T13:55:59Z</time></trkpt><trkpt lat="39.8514901226927" lon="9.056579676243816"><ele>505.5</ele><time>2026-05-01T13:56:00Z</time></trkpt><trkpt lat="39.85138637182943" lon="9.056462303786827"><ele>503.25</ele><time>2026-05-01T13:56:01Z</time></trkpt><trkpt lat="39.851267635288806" lon="9.05636471884466"><ele>501.0</ele><time>2026-05-01T13:56:02Z</time></trkpt><trkpt lat="39.851132788945385" lon="9.056302536364193"><ele>501.0</ele><time>2026-05-01T13:56:03Z</time></trkpt><trkpt lat="39.850986763617954" lon="9.056295629146568"><ele>501.0</ele><time>2026-05-01T13:56:04Z</time></trkpt><trkpt lat="39.850851830766814" lon="9.056352377999293"><ele>501.0</ele><time>2026-05-01T13:56:05Z</time></trkpt><trkpt lat="39.85074624587197" lon="9.056465242308198"><ele>501.0</ele><time>2026-05-01T13:56:06Z</time></trkpt><trkpt lat="39.850682458968656" lon="9.056616581758922"><ele>503.33333333333337</ele><time>2026-05-01T13:56:07Z</time></trkpt><trkpt lat="39.850637109128876" lon="9.056797836600238"><ele>505.6666666666667</ele><time>2026-05-01T13:56:08Z</time></trkpt><trkpt lat="39.850575548086375" lon="9.056970749960383"><ele>508.0</ele><time>2026-05-01T13:56:09Z</time></trkpt><trkpt lat="39.85047662269505" lon="9.057130662781194"><ele>508.0</ele><time>2026-05-01T13:56:10Z</time></trkpt><trkpt lat="39.8503717270079" lon="9.057275637133383"><ele>508.0</ele><time>2026-05-01T13:56:11Z</time></trkpt><trkpt lat="39.85027766599243" lon="9.057430153114803"><ele>508.0</ele><time>2026-05-01T13:56:12Z</time></trkpt><trkpt lat="39.85021794855126" lon="9.057600168218856"><ele>508.0</ele><time>2026-05-01T13:56:13Z</time></trkpt><trkpt lat="39.850205774703376" lon="9.0577856527327"><ele>509.5</ele><time>2026-05-01T13:56:14Z</time></trkpt><trkpt lat="39.85023461068899" lon="9.05796410938158"><ele>511.0</ele><time>2026-05-01T13:56:15Z</time></trkpt><trkpt lat="39.85026794749487" lon="9.058139321235753"><ele>512.5</ele><time>2026-05-01T13:56:16Z</time></trkpt><trkpt lat="39.850267400634365" lon="9.058312454747064"><ele>514.0</ele><time>2026-05-01T13:56:17Z</time></trkpt><trkpt lat="39.85022398542146" lon="9.058473625689334"><ele>514.75</ele><time>2026-05-01T13:56:18Z</time></trkpt><trkpt lat="39.850138075510294" lon="9.058593209125695"><ele>515.5</ele><time>2026-05-01T13:56:19Z</time></trkpt><trkpt lat="39.850016976928636" lon="9.058668940533316"><ele>516.25</ele><time>2026-05-01T13:56:20Z</time></trkpt><trkpt lat="39.849877414103254" lon="9.058662696897645"><ele>517.0</ele><time>2026-05-01T13:56:21Z</time></trkpt><trkpt lat="39.849737120389726" lon="9.058617025316675"><ele>508.6666666666667</ele><time>2026-05-01T13:56:22Z</time></trkpt><trkpt lat="39.8495888893217" lon="9.058542192707868"><ele>500.33333333333337</ele><time>2026-05-01T13:56:23Z</time></trkpt><trkpt lat="39.84943327729184" lon="9.058476758798484"><ele>492.0</ele><time>2026-05-01T13:56:24Z</time></trkpt><trkpt lat="39.849275109206566" lon="9.058393654300422"><ele>491.0</ele><time>2026-05-01T13:56:25Z</time></trkpt><trkpt lat="39.84912660185182" lon="9.058309984762722"><ele>490.0</ele><time>2026-05-01T13:56:26Z</time></trkpt><trkpt lat="39.848986195464605" lon="9.058221112822938"><ele>489.0</ele><time>2026-05-01T13:56:27Z</time></trkpt><trkpt lat="39.84888766002444" lon="9.058083773307489"><ele>484.25</ele><time>2026-05-01T13:56:28Z</time></trkpt><trkpt lat="39.84878141322935" lon="9.057976098286968"><ele>479.5</ele><time>2026-05-01T13:56:29Z</time></trkpt><trkpt lat="39.84868558038042" lon="9.057901715108994"><ele>474.75</ele><time>2026-05-01T13:56:30Z</time></trkpt><trkpt lat="39.84857213239196" lon="9.05790765024237"><ele>470.0</ele><time>2026-05-01T13:56:31Z</time></trkpt><trkpt lat="39.8484509200639" lon="9.057991337141903"><ele>468.75</ele><time>2026-05-01T13:56:32Z</time></trkpt><trkpt lat="39.848345846805124" lon="9.05811788795503"><ele>467.5</ele><time>2026-05-01T13:56:33Z</time></trkpt><trkpt lat="39.8482423027769" lon="9.058241694213015"><ele>466.25</ele><time>2026-05-01T13:56:34Z</time></trkpt><trkpt lat="39.84815259922298" lon="9.058368854267782"><ele>465.0</ele><time>2026-05-01T13:56:35Z</time></trkpt><trkpt lat="39.84809972943926" lon="9.05852023273372"><ele>469.5</ele><time>2026-05-01T13:56:36Z</time></trkpt><trkpt lat="39.848097724263724" lon="9.058696658832087"><ele>474.0</ele><time>2026-05-01T13:56:37Z</time></trkpt><trkpt lat="39.84814611340592" lon="9.058877278495656"><ele>478.5</ele><time>2026-05-01T13:56:38Z</time></trkpt><trkpt lat="39.84822089457174" lon="9.059043660073517"><ele>483.0</ele><time>2026-05-01T13:56:39Z</time></trkpt><trkpt lat="39.848258476582735" lon="9.059212797087904"><ele>483.5</ele><time>2026-05-01T13:56:40Z</time></trkpt><trkpt lat="39.84825177801537" lon="9.059402303593814"><ele>484.0</ele><time>2026-05-01T13:56:41Z</time></trkpt><trkpt lat="39.848206849379665" lon="9.05958661475683"><ele>484.5</ele><time>2026-05-01T13:56:42Z</time></trkpt><trkpt lat="39.84811163512471" lon="9.059731701739697"><ele>485.0</ele><time>2026-05-01T13:56:43Z</time></trkpt><trkpt lat="39.848010581509705" lon="9.059847529686618"><ele>485.0</ele><time>2026-05-01T13:56:44Z</time></trkpt><trkpt lat="39.84789045109595" lon="9.059891570898063"><ele>485.0</ele><time>2026-05-01T13:56:45Z</time></trkpt><trkpt lat="39.84775681322393" lon="9.05989706948303"><ele>485.0</ele><time>2026-05-01T13:56:46Z</time></trkpt><trkpt lat="39.84761556025667" lon="9.059870308290641"><ele>485.0</ele><time>2026-05-01T13:56:47Z</time></trkpt><trkpt lat="39.84748121934725" lon="9.059804413649703"><ele>479.3333333333333</ele><time>2026-05-01T13:56:48Z</time></trkpt><trkpt lat="39.8473389131141" lon="9.059746478382593"><ele>473.66666666666663</ele><time>2026-05-01T13:56:49Z</time></trkpt><trkpt lat="39.847196430802356" lon="9.059685649668214"><ele>468.0</ele><time>2026-05-01T13:56:50Z</time></trkpt><trkpt lat="39.847052839357005" lon="9.059623697253176"><ele>468.0</ele><time>2026-05-01T13:56:51Z</time></trkpt><trkpt lat="39.84691649506944" lon="9.059566081433598"><ele>468.0</ele><time>2026-05-01T13:56:52Z</time></trkpt><trkpt lat="39.84678414026242" lon="9.05951330643588"><ele>468.0</ele><time>2026-05-01T13:56:53Z</time></trkpt><trkpt lat="39.846664433731455" lon="9.059449510484631"><ele>468.0</ele><time>2026-05-01T13:56:54Z</time></trkpt><trkpt lat="39.846548348304815" lon="9.059376579325919"><ele>468.25</ele><time>2026-05-01T13:56:55Z</time></trkpt><trkpt lat="39.8464575495697" lon="9.059250761386584"><ele>468.5</ele><time>2026-05-01T13:56:56Z</time></trkpt><trkpt lat="39.846390023650635" lon="9.059091183050223"><ele>468.75</ele><time>2026-05-01T13:56:57Z</time></trkpt><trkpt lat="39.8463656572775" lon="9.058903070567379"><ele>469.0</ele><time>2026-05-01T13:56:58Z</time></trkpt><trkpt lat="39.84637255993756" lon="9.058704631017777"><ele>469.0</ele><time>2026-05-01T13:56:59Z</time></trkpt><trkpt lat="39.846391017044354" lon="9.058503646362794"><ele>469.0</ele><time>2026-05-01T13:57:00Z</time></trkpt><trkpt lat="39.84641390858368" lon="9.058292813471938"><ele>469.0</ele><time>2026-05-01T13:57:01Z</time></trkpt><trkpt lat="39.84644705500916" lon="9.058082649390322"><ele>470.6666666666667</ele><time>2026-05-01T13:57:02Z</time></trkpt><trkpt lat="39.84648004237558" lon="9.057867821280045"><ele>472.33333333333337</ele><time>2026-05-01T13:57:03Z</time></trkpt><trkpt lat="39.846536563955624" lon="9.05766980342445"><ele>474.0</ele><time>2026-05-01T13:57:04Z</time></trkpt><trkpt lat="39.84661770884801" lon="9.05749330120162"><ele>473.25</ele><time>2026-05-01T13:57:05Z</time></trkpt><trkpt lat="39.84673144654789" lon="9.05735587891142"><ele>472.5</ele><time>2026-05-01T13:57:06Z</time></trkpt><trkpt lat="39.84685745740981" lon="9.057274581701142"><ele>471.75</ele><time>2026-05-01T13:57:07Z</time></trkpt><trkpt lat="39.84696305417792" lon="9.057198008138739"><ele>471.0</ele><time>2026-05-01T13:57:08Z</time></trkpt><trkpt lat="39.84701999578569" lon="9.057082148868957"><ele>465.25</ele><time>2026-05-01T13:57:09Z</time></trkpt><trkpt lat="39.84701467188482" lon="9.056933728147168"><ele>459.5</ele><time>2026-05-01T13:57:10Z</time></trkpt><trkpt lat="39.84696709377932" lon="9.056772677489711"><ele>453.75</ele><time>2026-05-01T13:57:11Z</time></trkpt><trkpt lat="39.846898373156584" lon="9.056600014986072"><ele>448.0</ele><time>2026-05-01T13:57:12Z</time></trkpt><trkpt lat="39.84683193778498" lon="9.056430840972189"><ele>449.0</ele><time>2026-05-01T13:57:13Z</time></trkpt><trkpt lat="39.846735425233476" lon="9.056298782848973"><ele>450.0</ele><time>2026-05-01T13:57:14Z</time></trkpt><trkpt lat="39.84660554506016" lon="9.056239781451858"><ele>451.0</ele><time>2026-05-01T13:57:15Z</time></trkpt><trkpt lat="39.84648353260751" lon="9.056195398852344"><ele>452.0</ele><time>2026-05-01T13:57:16Z</time></trkpt><trkpt lat="39.84637234953548" lon="9.05615091591004"><ele>452.0</ele><time>2026-05-01T13:57:17Z</time></trkpt><trkpt lat="39.846278571936715" lon="9.056065411140944"><ele>452.0</ele><time>2026-05-01T13:57:18Z</time></trkpt><trkpt lat="39.84626380510832" lon="9.05589963657962"><ele>452.0</ele><time>2026-05-01T13:57:19Z</time></trkpt><trkpt lat="39.84622592273407" lon="9.055729857223268"><ele>452.0</ele><time>2026-05-01T13:57:20Z</time></trkpt><trkpt lat="39.846202852814436" lon="9.055551314712899"><ele>448.0</ele><time>2026-05-01T13:57:21Z</time></trkpt><trkpt lat="39.84615951473248" lon="9.05537049828274"><ele>444.0</ele><time>2026-05-01T13:57:22Z</time></trkpt><trkpt lat="39.846119119952526" lon="9.055168503698981"><ele>440.0</ele><time>2026-05-01T13:57:23Z</time></trkpt><trkpt lat="39.846108578708794" lon="9.054962106993438"><ele>439.3333333333333</ele><time>2026-05-01T13:57:24Z</time></trkpt><trkpt lat="39.84611916237977" lon="9.054751536129931"><ele>438.66666666666663</ele><time>2026-05-01T13:57:25Z</time></trkpt><trkpt lat="39.84614354228171" lon="9.05454367981776"><ele>438.0</ele><time>2026-05-01T13:57:26Z</time></trkpt><trkpt lat="39.846180915622234" lon="9.054339894028132"><ele>438.0</ele><time>2026-05-01T13:57:27Z</time></trkpt><trkpt lat="39.8462393702494" lon="9.054139557164858"><ele>438.0</ele><time>2026-05-01T13:57:28Z</time></trkpt><trkpt lat="39.846313410690094" lon="9.053949553183205"><ele>438.0</ele><time>2026-05-01T13:57:29Z</time></trkpt><trkpt lat="39.84638221811237" lon="9.053759584338016"><ele>438.66666666666663</ele><time>2026-05-01T13:57:30Z</time></trkpt><trkpt lat="39.846428322641" lon="9.05356305705761"><ele>439.3333333333333</ele><time>2026-05-01T13:57:31Z</time></trkpt><trkpt lat="39.84644320672123" lon="9.053350018548716"><ele>440.0</ele><time>2026-05-01T13:57:32Z</time></trkpt><trkpt lat="39.846425193205214" lon="9.05314162259895"><ele>437.66666666666663</ele><time>2026-05-01T13:57:33Z</time></trkpt><trkpt lat="39.84638368203268" lon="9.052932742064904"><ele>435.33333333333337</ele><time>2026-05-01T13:57:34Z</time></trkpt><trkpt lat="39.846311584827" lon="9.052740801182578"><ele>433.0</ele><time>2026-05-01T13:57:35Z</time></trkpt><trkpt lat="39.84620749889795" lon="9.052573402806637"><ele>433.0</ele><time>2026-05-01T13:57:36Z</time></trkpt><trkpt lat="39.846091570501606" lon="9.052415993537394"><ele>433.0</ele><time>2026-05-01T13:57:37Z</time></trkpt><trkpt lat="39.84597662516282" lon="9.052247062572885"><ele>433.0</ele><time>2026-05-01T13:57:38Z</time></trkpt><trkpt lat="39.845865552951395" lon="9.052066476467022"><ele>433.0</ele><time>2026-05-01T13:57:39Z</time></trkpt><trkpt lat="39.84574701313087" lon="9.051891085431858"><ele>433.0</ele><time>2026-05-01T13:57:40Z</time></trkpt><trkpt lat="39.845617496257404" lon="9.051730031786791"><ele>433.0</ele><time>2026-05-01T13:57:41Z</time></trkpt><trkpt lat="39.84548990352684" lon="9.051567717803492"><ele>435.0</ele><time>2026-05-01T13:57:42Z</time></trkpt><trkpt lat="39.845342096820104" lon="9.05145195311327"><ele>437.0</ele><time>2026-05-01T13:57:43Z</time></trkpt><trkpt lat="39.845197819454036" lon="9.051346774062196"><ele>439.0</ele><time>2026-05-01T13:57:44Z</time></trkpt><trkpt lat="39.84508861014612" lon="9.05119000871186"><ele>439.0</ele><time>2026-05-01T13:57:45Z</time></trkpt><trkpt lat="39.84502148054141" lon="9.050987089243266"><ele>439.0</ele><time>2026-05-01T13:57:46Z</time></trkpt><trkpt lat="39.84495873610918" lon="9.050793984256781"><ele>439.0</ele><time>2026-05-01T13:57:47Z</time></trkpt><trkpt lat="39.844865844139" lon="9.050608618725315"><ele>432.6666666666667</ele><time>2026-05-01T13:57:48Z</time></trkpt><trkpt lat="39.8447638618855" lon="9.050432716442064"><ele>426.33333333333337</ele><time>2026-05-01T13:57:49Z</time></trkpt><trkpt lat="39.84465777340275" lon="9.050266990807664"><ele>420.0</ele><time>2026-05-01T13:57:50Z</time></trkpt><trkpt lat="39.84454345909726" lon="9.050114951884824"><ele>420.0</ele><time>2026-05-01T13:57:51Z</time></trkpt><trkpt lat="39.84441912500195" lon="9.049987837583593"><ele>420.0</ele><time>2026-05-01T13:57:52Z</time></trkpt><trkpt lat="39.84427989730794" lon="9.049899071878473"><ele>420.0</ele><time>2026-05-01T13:57:53Z</time></trkpt><trkpt lat="39.84413158177766" lon="9.049856970448658"><ele>417.75</ele><time>2026-05-01T13:57:54Z</time></trkpt><trkpt lat="39.843985808170196" lon="9.049873364346375"><ele>415.5</ele><time>2026-05-01T13:57:55Z</time></trkpt><trkpt lat="39.84384739682576" lon="9.049903799859104"><ele>413.25</ele><time>2026-05-01T13:57:56Z</time></trkpt><trkpt lat="39.84372873869907" lon="9.04984795903972"><ele>411.0</ele><time>2026-05-01T13:57:57Z</time></trkpt><trkpt lat="39.843634941970826" lon="9.049765719457241"><ele>411.0</ele><time>2026-05-01T13:57:58Z</time></trkpt><trkpt lat="39.843576638699815" lon="9.049608240412827"><ele>411.0</ele><time>2026-05-01T13:57:59Z</time></trkpt><trkpt lat="39.84350067216583" lon="9.049447125347676"><ele>411.0</ele><time>2026-05-01T13:58:00Z</time></trkpt><trkpt lat="39.84339129787541" lon="9.049312648501981"><ele>411.0</ele><time>2026-05-01T13:58:01Z</time></trkpt><trkpt lat="39.84325352804396" lon="9.049205776746065"><ele>409.0</ele><time>2026-05-01T13:58:02Z</time></trkpt><trkpt lat="39.843117062554576" lon="9.049083901077033"><ele>407.0</ele><time>2026-05-01T13:58:03Z</time></trkpt><trkpt lat="39.84296981228141" lon="9.048976349951445"><ele>405.0</ele><time>2026-05-01T13:58:04Z</time></trkpt><trkpt lat="39.84282229891381" lon="9.048857121376068"><ele>405.0</ele><time>2026-05-01T13:58:05Z</time></trkpt><trkpt lat="39.842692028948434" lon="9.048693455416478"><ele>405.0</ele><time>2026-05-01T13:58:06Z</time></trkpt><trkpt lat="39.842568726133216" lon="9.048520302404386"><ele>405.0</ele><time>2026-05-01T13:58:07Z</time></trkpt><trkpt lat="39.84244450472581" lon="9.0483463644071"><ele>404.0</ele><time>2026-05-01T13:58:08Z</time></trkpt><trkpt lat="39.84232689968717" lon="9.048176615111672"><ele>403.0</ele><time>2026-05-01T13:58:09Z</time></trkpt><trkpt lat="39.84221455767646" lon="9.048012742963358"><ele>402.0</ele><time>2026-05-01T13:58:10Z</time></trkpt><trkpt lat="39.84210011241185" lon="9.047875726967915"><ele>402.0</ele><time>2026-05-01T13:58:11Z</time></trkpt><trkpt lat="39.84197312989543" lon="9.047795402311795"><ele>402.0</ele><time>2026-05-01T13:58:12Z</time></trkpt><trkpt lat="39.84183207321602" lon="9.04778643491368"><ele>402.0</ele><time>2026-05-01T13:58:13Z</time></trkpt><trkpt lat="39.84168832756601" lon="9.04783701860211"><ele>402.0</ele><time>2026-05-01T13:58:14Z</time></trkpt><trkpt lat="39.84153586242048" lon="9.047850128260635"><ele>404.66666666666663</ele><time>2026-05-01T13:58:15Z</time></trkpt><trkpt lat="39.84138156573043" lon="9.047852544983265"><ele>407.3333333333333</ele><time>2026-05-01T13:58:16Z</time></trkpt><trkpt lat="39.84122041064297" lon="9.047811513008805"><ele>410.0</ele><time>2026-05-01T13:58:17Z</time></trkpt><trkpt lat="39.84105729109719" lon="9.047793475601953"><ele>406.3333333333333</ele><time>2026-05-01T13:58:18Z</time></trkpt><trkpt lat="39.840894360303366" lon="9.04783052514143"><ele>402.66666666666663</ele><time>2026-05-01T13:58:19Z</time></trkpt><trkpt lat="39.84073933036287" lon="9.04787304156083"><ele>399.0</ele><time>2026-05-01T13:58:20Z</time></trkpt><trkpt lat="39.84059287225265" lon="9.047918948744563"><ele>399.0</ele><time>2026-05-01T13:58:21Z</time></trkpt><trkpt lat="39.84044714237336" lon="9.04794703090374"><ele>399.0</ele><time>2026-05-01T13:58:22Z</time></trkpt><trkpt lat="39.84031695025437" lon="9.047960262388072"><ele>399.0</ele><time>2026-05-01T13:58:23Z</time></trkpt><trkpt lat="39.84021055148089" lon="9.047892113131219"><ele>399.0</ele><time>2026-05-01T13:58:24Z</time></trkpt><trkpt lat="39.840148841284076" lon="9.047766739751653"><ele>399.0</ele><time>2026-05-01T13:58:25Z</time></trkpt><trkpt lat="39.840141375803455" lon="9.047611431661155"><ele>399.0</ele><time>2026-05-01T13:58:26Z</time></trkpt><trkpt lat="39.84018705891128" lon="9.047454368365674"><ele>399.0</ele><time>2026-05-01T13:58:27Z</time></trkpt><trkpt lat="39.84026153156966" lon="9.047294400592794"><ele>399.0</ele><time>2026-05-01T13:58:28Z</time></trkpt><trkpt lat="39.84032273966011" lon="9.047117723059362"><ele>397.75</ele><time>2026-05-01T13:58:29Z</time></trkpt><trkpt lat="39.840378578558976" lon="9.046930851966472"><ele>396.5</ele><time>2026-05-01T13:58:30Z</time></trkpt><trkpt lat="39.84043604477702" lon="9.046747429760279"><ele>395.25</ele><time>2026-05-01T13:58:31Z</time></trkpt><trkpt lat="39.840468740754986" lon="9.046570781226098"><ele>394.0</ele><time>2026-05-01T13:58:32Z</time></trkpt><trkpt lat="39.84045115760537" lon="9.046399261552526"><ele>394.25</ele><time>2026-05-01T13:58:33Z</time></trkpt><trkpt lat="39.84037823106076" lon="9.046233047003696"><ele>394.5</ele><time>2026-05-01T13:58:34Z</time></trkpt><trkpt lat="39.84026525815896" lon="9.046088811922223"><ele>394.75</ele><time>2026-05-01T13:58:35Z</time></trkpt><trkpt lat="39.84018129476385" lon="9.045937584234368"><ele>395.0</ele><time>2026-05-01T13:58:36Z</time></trkpt><trkpt lat="39.84011794837882" lon="9.04576224760742"><ele>395.0</ele><time>2026-05-01T13:58:37Z</time></trkpt><trkpt lat="39.84006596927982" lon="9.045594337905174"><ele>395.0</ele><time>2026-05-01T13:58:38Z</time></trkpt><trkpt lat="39.83997065294981" lon="9.045447286338655"><ele>395.0</ele><time>2026-05-01T13:58:39Z</time></trkpt><trkpt lat="39.83984632279233" lon="9.04532069422288"><ele>395.0</ele><time>2026-05-01T13:58:40Z</time></trkpt><trkpt lat="39.839725627522554" lon="9.045227436069428"><ele>395.0</ele><time>2026-05-01T13:58:41Z</time></trkpt><trkpt lat="39.839606622439426" lon="9.045166459864255"><ele>395.0</ele><time>2026-05-01T13:58:42Z</time></trkpt><trkpt lat="39.83947728111391" lon="9.045201060309466"><ele>395.0</ele><time>2026-05-01T13:58:43Z</time></trkpt><trkpt lat="39.839365610238836" lon="9.045332935410311"><ele>395.0</ele><time>2026-05-01T13:58:44Z</time></trkpt><trkpt lat="39.83925087189779" lon="9.045465067723185"><ele>397.0</ele><time>2026-05-01T13:58:45Z</time></trkpt><trkpt lat="39.83914470422955" lon="9.045592739795318"><ele>399.0</ele><time>2026-05-01T13:58:46Z</time></trkpt><trkpt lat="39.83903082598342" lon="9.045675993241282"><ele>401.0</ele><time>2026-05-01T13:58:47Z</time></trkpt><trkpt lat="39.83890186573602" lon="9.045677787614835"><ele>403.0</ele><time>2026-05-01T13:58:48Z</time></trkpt><trkpt lat="39.838778775935985" lon="9.04561109098576"><ele>403.0</ele><time>2026-05-01T13:58:49Z</time></trkpt><trkpt lat="39.83864719628698" lon="9.045527154840387"><ele>403.0</ele><time>2026-05-01T13:58:50Z</time></trkpt><trkpt lat="39.838507813371365" lon="9.045458703622987"><ele>403.0</ele><time>2026-05-01T13:58:51Z</time></trkpt><trkpt lat="39.83835330294275" lon="9.045465930437652"><ele>400.0</ele><time>2026-05-01T13:58:52Z</time></trkpt><trkpt lat="39.83820521457001" lon="9.045539751848272"><ele>397.0</ele><time>2026-05-01T13:58:53Z</time></trkpt><trkpt lat="39.83806692120928" lon="9.045663326437472"><ele>394.0</ele><time>2026-05-01T13:58:54Z</time></trkpt><trkpt lat="39.83792621373001" lon="9.045730070208313"><ele>394.0</ele><time>2026-05-01T13:58:55Z</time></trkpt><trkpt lat="39.837776828496274" lon="9.045701669636689"><ele>394.0</ele><time>2026-05-01T13:58:56Z</time></trkpt><trkpt lat="39.837651280873835" lon="9.04562887475145"><ele>394.0</ele><time>2026-05-01T13:58:57Z</time></trkpt><trkpt lat="39.837512387710305" lon="9.045532299775587"><ele>394.0</ele><time>2026-05-01T13:58:58Z</time></trkpt><trkpt lat="39.83738298485992" lon="9.045421019012132"><ele>395.0</ele><time>2026-05-01T13:58:59Z</time></trkpt><trkpt lat="39.83723432513367" lon="9.04535533629298"><ele>396.0</ele><time>2026-05-01T13:59:00Z</time></trkpt><trkpt lat="39.83708496509634" lon="9.045357098778661"><ele>397.0</ele><time>2026-05-01T13:59:01Z</time></trkpt><trkpt lat="39.836948339669846" lon="9.04542441484878"><ele>397.0</ele><time>2026-05-01T13:59:02Z</time></trkpt><trkpt lat="39.83681943764866" lon="9.045543319022151"><ele>397.0</ele><time>2026-05-01T13:59:03Z</time></trkpt><trkpt lat="39.8366939933796" lon="9.04567503385882"><ele>397.0</ele><time>2026-05-01T13:59:04Z</time></trkpt><trkpt lat="39.8365757146505" lon="9.04581884028173"><ele>399.33333333333337</ele><time>2026-05-01T13:59:05Z</time></trkpt><trkpt lat="39.83646560552937" lon="9.04597823939224"><ele>401.66666666666663</ele><time>2026-05-01T13:59:06Z</time></trkpt><trkpt lat="39.83639886048239" lon="9.046161345689999"><ele>404.0</ele><time>2026-05-01T13:59:07Z</time></trkpt><trkpt lat="39.83636197238805" lon="9.046329317717058"><ele>404.0</ele><time>2026-05-01T13:59:08Z</time></trkpt><trkpt lat="39.83627818831088" lon="9.04644156003693"><ele>404.0</ele><time>2026-05-01T13:59:09Z</time></trkpt><trkpt lat="39.8361555549937" lon="9.04644656045074"><ele>404.0</ele><time>2026-05-01T13:59:10Z</time></trkpt><trkpt lat="39.83602162957257" lon="9.046437341953522"><ele>404.0</ele><time>2026-05-01T13:59:11Z</time></trkpt><trkpt lat="39.83587056197917" lon="9.046443239946095"><ele>401.66666666666663</ele><time>2026-05-01T13:59:12Z</time></trkpt><trkpt lat="39.83572104618713" lon="9.046481999832558"><ele>399.33333333333337</ele><time>2026-05-01T13:59:13Z</time></trkpt><trkpt lat="39.83555921866874" lon="9.046532964647511"><ele>397.0</ele><time>2026-05-01T13:59:14Z</time></trkpt><trkpt lat="39.83539363104432" lon="9.046579094852369"><ele>397.0</ele><time>2026-05-01T13:59:15Z</time></trkpt><trkpt lat="39.83522600509606" lon="9.046624675372078"><ele>397.0</ele><time>2026-05-01T13:59:16Z</time></trkpt><trkpt lat="39.83506880223067" lon="9.046667505245022"><ele>397.0</ele><time>2026-05-01T13:59:17Z</time></trkpt><trkpt lat="39.834918335862326" lon="9.046713547752878"><ele>396.0</ele><time>2026-05-01T13:59:18Z</time></trkpt><trkpt lat="39.83477314854391" lon="9.046790991346558"><ele>395.0</ele><time>2026-05-01T13:59:19Z</time></trkpt><trkpt lat="39.834635453052265" lon="9.046921606060005"><ele>394.0</ele><time>2026-05-01T13:59:20Z</time></trkpt><trkpt lat="39.83452044242024" lon="9.047082065468738"><ele>394.0</ele><time>2026-05-01T13:59:21Z</time></trkpt><trkpt lat="39.83440221495445" lon="9.047221754834124"><ele>394.0</ele><time>2026-05-01T13:59:22Z</time></trkpt><trkpt lat="39.83430276186859" lon="9.047355798327214"><ele>394.0</ele><time>2026-05-01T13:59:23Z</time></trkpt><trkpt lat="39.834175032704145" lon="9.047430161312032"><ele>394.0</ele><time>2026-05-01T13:59:24Z</time></trkpt><trkpt lat="39.83402340011552" lon="9.047434853187056"><ele>391.33333333333337</ele><time>2026-05-01T13:59:25Z</time></trkpt><trkpt lat="39.83385928961196" lon="9.047394068919566"><ele>388.66666666666663</ele><time>2026-05-01T13:59:26Z</time></trkpt><trkpt lat="39.833688031501886" lon="9.047345665994156"><ele>386.0</ele><time>2026-05-01T13:59:27Z</time></trkpt><trkpt lat="39.83352059632178" lon="9.047304102511921"><ele>384.3333333333333</ele><time>2026-05-01T13:59:28Z</time></trkpt><trkpt lat="39.83335226609696" lon="9.047263950345066"><ele>382.66666666666663</ele><time>2026-05-01T13:59:29Z</time></trkpt><trkpt lat="39.833182059796286" lon="9.04721445454739"><ele>381.0</ele><time>2026-05-01T13:59:30Z</time></trkpt><trkpt lat="39.833014364042924" lon="9.047147842338457"><ele>381.0</ele><time>2026-05-01T13:59:31Z</time></trkpt><trkpt lat="39.83284702544392" lon="9.047056889602757"><ele>381.0</ele><time>2026-05-01T13:59:32Z</time></trkpt><trkpt lat="39.83268087978644" lon="9.046953416884598"><ele>381.0</ele><time>2026-05-01T13:59:33Z</time></trkpt><trkpt lat="39.83250377646785" lon="9.046873470676095"><ele>380.3333333333333</ele><time>2026-05-01T13:59:34Z</time></trkpt><trkpt lat="39.83231120349943" lon="9.04684042436001"><ele>379.66666666666663</ele><time>2026-05-01T13:59:35Z</time></trkpt><trkpt lat="39.832119291833784" lon="9.046820506748398"><ele>379.0</ele><time>2026-05-01T13:59:36Z</time></trkpt><trkpt lat="39.8319369362638" lon="9.046803122182936"><ele>378.66666666666663</ele><time>2026-05-01T13:59:37Z</time></trkpt><trkpt lat="39.831763376626704" lon="9.046785486882666"><ele>378.3333333333333</ele><time>2026-05-01T13:59:38Z</time></trkpt><trkpt lat="39.83159807988376" lon="9.046777183750024"><ele>378.0</ele><time>2026-05-01T13:59:39Z</time></trkpt><trkpt lat="39.831449557243296" lon="9.046772608773576"><ele>378.0</ele><time>2026-05-01T13:59:40Z</time></trkpt><trkpt lat="39.83129919659616" lon="9.046879963107315"><ele>378.0</ele><time>2026-05-01T13:59:41Z</time></trkpt><trkpt lat="39.83116560735135" lon="9.047012071813775"><ele>378.0</ele><time>2026-05-01T13:59:42Z</time></trkpt><trkpt lat="39.83105603754057" lon="9.047174151171177"><ele>377.0</ele><time>2026-05-01T13:59:43Z</time></trkpt><trkpt lat="39.83095269448736" lon="9.04732325275795"><ele>376.0</ele><time>2026-05-01T13:59:44Z</time></trkpt><trkpt lat="39.83083350716232" lon="9.047415715252768"><ele>375.0</ele><time>2026-05-01T13:59:45Z</time></trkpt><trkpt lat="39.83070035770813" lon="9.047417310196904"><ele>374.0</ele><time>2026-05-01T13:59:46Z</time></trkpt><trkpt lat="39.83056596946747" lon="9.04737924202401"><ele>374.0</ele><time>2026-05-01T13:59:47Z</time></trkpt><trkpt lat="39.83041064731373" lon="9.047347227676738"><ele>374.0</ele><time>2026-05-01T13:59:48Z</time></trkpt><trkpt lat="39.83025875359711" lon="9.047281750349846"><ele>374.0</ele><time>2026-05-01T13:59:49Z</time></trkpt><trkpt lat="39.830095780724626" lon="9.047220079538011"><ele>373.6666666666667</ele><time>2026-05-01T13:59:50Z</time></trkpt><trkpt lat="39.82993576070703" lon="9.047171561262216"><ele>373.3333333333333</ele><time>2026-05-01T13:59:51Z</time></trkpt><trkpt lat="39.82978027432939" lon="9.047162675806218"><ele>373.0</ele><time>2026-05-01T13:59:52Z</time></trkpt><trkpt lat="39.8296353164346" lon="9.04721583881521"><ele>373.0</ele><time>2026-05-01T13:59:53Z</time></trkpt><trkpt lat="39.829513770293985" lon="9.047330235610092"><ele>373.0</ele><time>2026-05-01T13:59:54Z</time></trkpt><trkpt lat="39.829402615533" lon="9.047441769181349"><ele>373.0</ele><time>2026-05-01T13:59:55Z</time></trkpt><trkpt lat="39.829299492315" lon="9.047554638136704"><ele>373.0</ele><time>2026-05-01T13:59:56Z</time></trkpt><trkpt lat="39.829162599313314" lon="9.047588424795322"><ele>373.0</ele><time>2026-05-01T13:59:57Z</time></trkpt><trkpt lat="39.8290221372907" lon="9.047524005811379"><ele>373.0</ele><time>2026-05-01T13:59:58Z</time></trkpt><trkpt lat="39.82888704518505" lon="9.04743532759211"><ele>373.0</ele><time>2026-05-01T13:59:59Z</time></trkpt><trkpt lat="39.82873805213529" lon="9.047361660515312"><ele>373.0</ele><time>2026-05-01T14:00:00Z</time></trkpt><trkpt lat="39.828597529155566" lon="9.047297777777795"><ele>373.0</ele><time>2026-05-01T14:00:01Z</time></trkpt><trkpt lat="39.82846455431322" lon="9.047294689188703"><ele>373.0</ele><time>2026-05-01T14:00:02Z</time></trkpt><trkpt lat="39.8283488326391" lon="9.047368556988209"><ele>373.0</ele><time>2026-05-01T14:00:03Z</time></trkpt><trkpt lat="39.828266881902266" lon="9.047504330090046"><ele>374.5</ele><time>2026-05-01T14:00:04Z</time></trkpt><trkpt lat="39.828237970984105" lon="9.04768022943946"><ele>376.0</ele><time>2026-05-01T14:00:05Z</time></trkpt><trkpt lat="39.82822603904113" lon="9.047875808755855"><ele>377.5</ele><time>2026-05-01T14:00:06Z</time></trkpt><trkpt lat="39.8282301940316" lon="9.04806935451569"><ele>379.0</ele><time>2026-05-01T14:00:07Z</time></trkpt><trkpt lat="39.828228479844476" lon="9.048247094566243"><ele>379.75</ele><time>2026-05-01T14:00:08Z</time></trkpt><trkpt lat="39.8281811079708" lon="9.048391890882632"><ele>380.5</ele><time>2026-05-01T14:00:09Z</time></trkpt><trkpt lat="39.82808737800436" lon="9.048473028130582"><ele>381.25</ele><time>2026-05-01T14:00:10Z</time></trkpt><trkpt lat="39.82796608193398" lon="9.048496373405992"><ele>382.0</ele><time>2026-05-01T14:00:11Z</time></trkpt><trkpt lat="39.82783135499462" lon="9.048539182063175"><ele>382.0</ele><time>2026-05-01T14:00:12Z</time></trkpt><trkpt lat="39.827683918642904" lon="9.048564894193436"><ele>382.0</ele><time>2026-05-01T14:00:13Z</time></trkpt><trkpt lat="39.82753808818317" lon="9.04861199349489"><ele>382.0</ele><time>2026-05-01T14:00:14Z</time></trkpt><trkpt lat="39.82741567720426" lon="9.04872006390382"><ele>382.0</ele><time>2026-05-01T14:00:15Z</time></trkpt><trkpt lat="39.82730804817103" lon="9.048880367966587"><ele>380.3333333333333</ele><time>2026-05-01T14:00:16Z</time></trkpt><trkpt lat="39.82723019828547" lon="9.049078998397801"><ele>378.6666666666667</ele><time>2026-05-01T14:00:17Z</time></trkpt><trkpt lat="39.82714576825925" lon="9.04927436756216"><ele>377.0</ele><time>2026-05-01T14:00:18Z</time></trkpt><trkpt lat="39.827060702263964" lon="9.049449935640714"><ele>377.75</ele><time>2026-05-01T14:00:19Z</time></trkpt><trkpt lat="39.82695934328409" lon="9.049577928693736"><ele>378.5</ele><time>2026-05-01T14:00:20Z</time></trkpt><trkpt lat="39.82684054733062" lon="9.049643565521484"><ele>379.25</ele><time>2026-05-01T14:00:21Z</time></trkpt><trkpt lat="39.826725558130164" lon="9.049617090572308"><ele>380.0</ele><time>2026-05-01T14:00:22Z</time></trkpt><trkpt lat="39.82662485432514" lon="9.04953992789478"><ele>380.0</ele><time>2026-05-01T14:00:23Z</time></trkpt><trkpt lat="39.82650116543013" lon="9.049433343755608"><ele>380.0</ele><time>2026-05-01T14:00:24Z</time></trkpt><trkpt lat="39.82636325600656" lon="9.04931659118117"><ele>380.0</ele><time>2026-05-01T14:00:25Z</time></trkpt><trkpt lat="39.82622128809356" lon="9.049196402599245"><ele>381.0</ele><time>2026-05-01T14:00:26Z</time></trkpt><trkpt lat="39.826075423989444" lon="9.04907326113966"><ele>382.0</ele><time>2026-05-01T14:00:27Z</time></trkpt><trkpt lat="39.825926143490875" lon="9.048947541585946"><ele>383.0</ele><time>2026-05-01T14:00:28Z</time></trkpt><trkpt lat="39.82577347635985" lon="9.048840785500426"><ele>383.0</ele><time>2026-05-01T14:00:29Z</time></trkpt><trkpt lat="39.825635040393934" lon="9.04873619891507"><ele>383.0</ele><time>2026-05-01T14:00:30Z</time></trkpt><trkpt lat="39.825488706618266" lon="9.048694801227638"><ele>383.0</ele><time>2026-05-01T14:00:31Z</time></trkpt><trkpt lat="39.82535159344459" lon="9.048723770128628"><ele>383.0</ele><time>2026-05-01T14:00:32Z</time></trkpt><trkpt lat="39.82522036425303" lon="9.048815945713866"><ele>383.0</ele><time>2026-05-01T14:00:33Z</time></trkpt><trkpt lat="39.82510223520873" lon="9.048971305310033"><ele>383.0</ele><time>2026-05-01T14:00:34Z</time></trkpt><trkpt lat="39.82498562932973" lon="9.04914683543347"><ele>383.0</ele><time>2026-05-01T14:00:35Z</time></trkpt><trkpt lat="39.82485729347759" lon="9.049312315733452"><ele>383.6666666666667</ele><time>2026-05-01T14:00:36Z</time></trkpt><trkpt lat="39.82471567139875" lon="9.049489308210996"><ele>384.33333333333337</ele><time>2026-05-01T14:00:37Z</time></trkpt><trkpt lat="39.824591664923815" lon="9.049658678232506"><ele>385.0</ele><time>2026-05-01T14:00:38Z</time></trkpt><trkpt lat="39.82449810769689" lon="9.049851546866352"><ele>385.0</ele><time>2026-05-01T14:00:39Z</time></trkpt><trkpt lat="39.82441956371449" lon="9.050045811942075"><ele>385.0</ele><time>2026-05-01T14:00:40Z</time></trkpt><trkpt lat="39.82435419564225" lon="9.050228449912833"><ele>385.0</ele><time>2026-05-01T14:00:41Z</time></trkpt><trkpt lat="39.82426242069973" lon="9.05036589655959"><ele>382.75</ele><time>2026-05-01T14:00:42Z</time></trkpt><trkpt lat="39.82413795473691" lon="9.050436804356785"><ele>380.5</ele><time>2026-05-01T14:00:43Z</time></trkpt><trkpt lat="39.82399336753322" lon="9.050452442608723"><ele>378.25</ele><time>2026-05-01T14:00:44Z</time></trkpt><trkpt lat="39.82383826585712" lon="9.050491552577128"><ele>376.0</ele><time>2026-05-01T14:00:45Z</time></trkpt><trkpt lat="39.82368750801822" lon="9.050572831578153"><ele>376.0</ele><time>2026-05-01T14:00:46Z</time></trkpt><trkpt lat="39.823531143483535" lon="9.050667389559157"><ele>376.0</ele><time>2026-05-01T14:00:47Z</time></trkpt><trkpt lat="39.82338575831481" lon="9.050779909081516"><ele>376.0</ele><time>2026-05-01T14:00:48Z</time></trkpt><trkpt lat="39.82324522486272" lon="9.05090333441719"><ele>375.3333333333333</ele><time>2026-05-01T14:00:49Z</time></trkpt><trkpt lat="39.82312041880786" lon="9.051041258658952"><ele>374.6666666666667</ele><time>2026-05-01T14:00:50Z</time></trkpt><trkpt lat="39.82299959503747" lon="9.05117985102141"><ele>374.0</ele><time>2026-05-01T14:00:51Z</time></trkpt><trkpt lat="39.82289324101877" lon="9.051332241230943"><ele>374.0</ele><time>2026-05-01T14:00:52Z</time></trkpt><trkpt lat="39.82279758264962" lon="9.051480265265482"><ele>374.0</ele><time>2026-05-01T14:00:53Z</time></trkpt><trkpt lat="39.82270520648776" lon="9.05158640937792"><ele>374.0</ele><time>2026-05-01T14:00:54Z</time></trkpt><trkpt lat="39.82260347763509" lon="9.051640635807995"><ele>374.0</ele><time>2026-05-01T14:00:55Z</time></trkpt><trkpt lat="39.822510248662475" lon="9.051586167551298"><ele>373.25</ele><time>2026-05-01T14:00:56Z</time></trkpt><trkpt lat="39.82245807024443" lon="9.051477512220766"><ele>372.5</ele><time>2026-05-01T14:00:57Z</time></trkpt><trkpt lat="39.822373171050025" lon="9.051324688858545"><ele>371.75</ele><time>2026-05-01T14:00:58Z</time></trkpt><trkpt lat="39.82226136856415" lon="9.051188718340978"><ele>371.0</ele><time>2026-05-01T14:00:59Z</time></trkpt><trkpt lat="39.82212331948875" lon="9.05110723224716"><ele>371.0</ele><time>2026-05-01T14:01:00Z</time></trkpt><trkpt lat="39.82195556185564" lon="9.051091154540687"><ele>371.0</ele><time>2026-05-01T14:01:01Z</time></trkpt><trkpt lat="39.82178926454796" lon="9.051135339927336"><ele>371.0</ele><time>2026-05-01T14:01:02Z</time></trkpt><trkpt lat="39.82165508279394" lon="9.051235484567044"><ele>373.0</ele><time>2026-05-01T14:01:03Z</time></trkpt><trkpt lat="39.821558476056275" lon="9.051379811124352"><ele>375.0</ele><time>2026-05-01T14:01:04Z</time></trkpt><trkpt lat="39.82149796731035" lon="9.051564594915646"><ele>377.0</ele><time>2026-05-01T14:01:05Z</time></trkpt><trkpt lat="39.821462539125804" lon="9.051768222755783"><ele>377.0</ele><time>2026-05-01T14:01:06Z</time></trkpt><trkpt lat="39.8214543278515" lon="9.051979019371778"><ele>377.0</ele><time>2026-05-01T14:01:07Z</time></trkpt><trkpt lat="39.82140905983283" lon="9.052144706036113"><ele>377.0</ele><time>2026-05-01T14:01:08Z</time></trkpt><trkpt lat="39.82133364363335" lon="9.052271473006114"><ele>377.0</ele><time>2026-05-01T14:01:09Z</time></trkpt><trkpt lat="39.82121451342522" lon="9.052317472295302"><ele>377.0</ele><time>2026-05-01T14:01:10Z</time></trkpt><trkpt lat="39.82107901111704" lon="9.052295592104675"><ele>377.0</ele><time>2026-05-01T14:01:11Z</time></trkpt><trkpt lat="39.82093171773505" lon="9.052280581169695"><ele>377.0</ele><time>2026-05-01T14:01:12Z</time></trkpt><trkpt lat="39.8208021383306" lon="9.052318019448569"><ele>377.0</ele><time>2026-05-01T14:01:13Z</time></trkpt><trkpt lat="39.82068783535277" lon="9.052436065916455"><ele>375.0</ele><time>2026-05-01T14:01:14Z</time></trkpt><trkpt lat="39.82060251856874" lon="9.052592614061854"><ele>373.0</ele><time>2026-05-01T14:01:15Z</time></trkpt><trkpt lat="39.82050354535545" lon="9.052680331247789"><ele>371.0</ele><time>2026-05-01T14:01:16Z</time></trkpt><trkpt lat="39.8204048779773" lon="9.052670131536777"><ele>369.0</ele><time>2026-05-01T14:01:17Z</time></trkpt><trkpt lat="39.820310000110304" lon="9.05259482753404"><ele>369.0</ele><time>2026-05-01T14:01:18Z</time></trkpt><trkpt lat="39.820212965076784" lon="9.052481766905965"><ele>369.0</ele><time>2026-05-01T14:01:19Z</time></trkpt><trkpt lat="39.82009865354994" lon="9.052419426558272"><ele>369.0</ele><time>2026-05-01T14:01:20Z</time></trkpt><trkpt lat="39.81996890823525" lon="9.052420855553311"><ele>369.0</ele><time>2026-05-01T14:01:21Z</time></trkpt><trkpt lat="39.819832122261275" lon="9.052509347788114"><ele>368.0</ele><time>2026-05-01T14:01:22Z</time></trkpt><trkpt lat="39.81969779632235" lon="9.052634032506573"><ele>367.0</ele><time>2026-05-01T14:01:23Z</time></trkpt><trkpt lat="39.81957676716636" lon="9.052786299965788"><ele>366.0</ele><time>2026-05-01T14:01:24Z</time></trkpt><trkpt lat="39.81949642997447" lon="9.052963921224984"><ele>366.0</ele><time>2026-05-01T14:01:25Z</time></trkpt><trkpt lat="39.81944758389853" lon="9.053128069641078"><ele>366.0</ele><time>2026-05-01T14:01:26Z</time></trkpt><trkpt lat="39.81936195655895" lon="9.053234382874052"><ele>366.0</ele><time>2026-05-01T14:01:27Z</time></trkpt><trkpt lat="39.8192535485619" lon="9.05323919431082"><ele>366.0</ele><time>2026-05-01T14:01:28Z</time></trkpt><trkpt lat="39.819123712357325" lon="9.053227129564275"><ele>366.6666666666667</ele><time>2026-05-01T14:01:29Z</time></trkpt><trkpt lat="39.81897747434151" lon="9.053245542603847"><ele>367.33333333333337</ele><time>2026-05-01T14:01:30Z</time></trkpt><trkpt lat="39.81882872494061" lon="9.05328584680711"><ele>368.0</ele><time>2026-05-01T14:01:31Z</time></trkpt><trkpt lat="39.81868543319852" lon="9.053403562489898"><ele>368.0</ele><time>2026-05-01T14:01:32Z</time></trkpt><trkpt lat="39.81854920131892" lon="9.053560470704447"><ele>368.0</ele><time>2026-05-01T14:01:33Z</time></trkpt><trkpt lat="39.818403119531084" lon="9.05370754899722"><ele>368.0</ele><time>2026-05-01T14:01:34Z</time></trkpt><trkpt lat="39.81827234145591" lon="9.053875038679358"><ele>367.33333333333337</ele><time>2026-05-01T14:01:35Z</time></trkpt><trkpt lat="39.818128745889865" lon="9.054024855294681"><ele>366.6666666666667</ele><time>2026-05-01T14:01:36Z</time></trkpt><trkpt lat="39.81799181611473" lon="9.054201844179314"><ele>366.0</ele><time>2026-05-01T14:01:37Z</time></trkpt><trkpt lat="39.817872041250205" lon="9.054408180632741"><ele>366.0</ele><time>2026-05-01T14:01:38Z</time></trkpt><trkpt lat="39.81776408895665" lon="9.054630287654488"><ele>366.0</ele><time>2026-05-01T14:01:39Z</time></trkpt><trkpt lat="39.81763160304371" lon="9.054832163609756"><ele>366.0</ele><time>2026-05-01T14:01:40Z</time></trkpt><trkpt lat="39.81750653215191" lon="9.055040744971762"><ele>363.3333333333333</ele><time>2026-05-01T14:01:41Z</time></trkpt><trkpt lat="39.817373376497905" lon="9.055245066517662"><ele>360.66666666666663</ele><time>2026-05-01T14:01:42Z</time></trkpt><trkpt lat="39.81724290660127" lon="9.055458205407312"><ele>358.0</ele><time>2026-05-01T14:01:43Z</time></trkpt><trkpt lat="39.81707940273992" lon="9.055633881928607"><ele>357.3333333333333</ele><time>2026-05-01T14:01:44Z</time></trkpt><trkpt lat="39.81691917648032" lon="9.055810792663527"><ele>356.6666666666667</ele><time>2026-05-01T14:01:45Z</time></trkpt><trkpt lat="39.8167524585487" lon="9.055983917531298"><ele>356.0</ele><time>2026-05-01T14:01:46Z</time></trkpt><trkpt lat="39.816585506851645" lon="9.05615728500082"><ele>356.0</ele><time>2026-05-01T14:01:47Z</time></trkpt><trkpt lat="39.8164176699983" lon="9.056331571603481"><ele>356.0</ele><time>2026-05-01T14:01:48Z</time></trkpt><trkpt lat="39.81624814169246" lon="9.056507608341768"><ele>356.0</ele><time>2026-05-01T14:01:49Z</time></trkpt><trkpt lat="39.81607831755712" lon="9.05668383380604"><ele>356.6666666666667</ele><time>2026-05-01T14:01:50Z</time></trkpt><trkpt lat="39.815907390811546" lon="9.056861203265758"><ele>357.3333333333333</ele><time>2026-05-01T14:01:51Z</time></trkpt><trkpt lat="39.81573365512053" lon="9.057041252800042"><ele>358.0</ele><time>2026-05-01T14:01:52Z</time></trkpt><trkpt lat="39.81556148608403" lon="9.05721956667417"><ele>358.0</ele><time>2026-05-01T14:01:53Z</time></trkpt><trkpt lat="39.81539008547397" lon="9.057397084623775"><ele>358.0</ele><time>2026-05-01T14:01:54Z</time></trkpt><trkpt lat="39.815219245179534" lon="9.057574023172558"><ele>358.0</ele><time>2026-05-01T14:01:55Z</time></trkpt><trkpt lat="39.81504738919505" lon="9.057752226053381"><ele>360.3333333333333</ele><time>2026-05-01T14:01:56Z</time></trkpt><trkpt lat="39.81487887060887" lon="9.05792693512919"><ele>362.6666666666667</ele><time>2026-05-01T14:01:57Z</time></trkpt><trkpt lat="39.814719276539854" lon="9.058092391798796"><ele>365.0</ele><time>2026-05-01T14:01:58Z</time></trkpt><trkpt lat="39.814570495907084" lon="9.05824663790672"><ele>365.6666666666667</ele><time>2026-05-01T14:01:59Z</time></trkpt><trkpt lat="39.81442216194616" lon="9.058400420595921"><ele>366.3333333333333</ele><time>2026-05-01T14:02:00Z</time></trkpt><trkpt lat="39.814271259866345" lon="9.058557375096669"><ele>367.0</ele><time>2026-05-01T14:02:01Z</time></trkpt><trkpt lat="39.81412075053978" lon="9.058721290817155"><ele>369.0</ele><time>2026-05-01T14:02:02Z</time></trkpt><trkpt lat="39.813978448382606" lon="9.05891060772531"><ele>371.0</ele><time>2026-05-01T14:02:03Z</time></trkpt><trkpt lat="39.8138243605647" lon="9.059101096840434"><ele>373.0</ele><time>2026-05-01T14:02:04Z</time></trkpt><trkpt lat="39.813670756834426" lon="9.059303544873206"><ele>373.5</ele><time>2026-05-01T14:02:05Z</time></trkpt><trkpt lat="39.813500959191536" lon="9.059496303768134"><ele>374.0</ele><time>2026-05-01T14:02:06Z</time></trkpt><trkpt lat="39.81333801627178" lon="9.059705392861098"><ele>375.5</ele><time>2026-05-01T14:02:07Z</time></trkpt><trkpt lat="39.81317327195268" lon="9.059916361957065"><ele>377.0</ele><time>2026-05-01T14:02:08Z</time></trkpt><trkpt lat="39.81300865312532" lon="9.060127454335232"><ele>377.0</ele><time>2026-05-01T14:02:09Z</time></trkpt><trkpt lat="39.81284751000183" lon="9.06033408965732"><ele>377.0</ele><time>2026-05-01T14:02:10Z</time></trkpt><trkpt lat="39.812684233176505" lon="9.060543461158495"><ele>379.0</ele><time>2026-05-01T14:02:11Z</time></trkpt><trkpt lat="39.81252381703031" lon="9.060749164393496"><ele>381.0</ele><time>2026-05-01T14:02:12Z</time></trkpt><trkpt lat="39.81236723317134" lon="9.060949953341343"><ele>383.0</ele><time>2026-05-01T14:02:13Z</time></trkpt><trkpt lat="39.81221339729019" lon="9.061147218660121"><ele>383.0</ele><time>2026-05-01T14:02:14Z</time></trkpt><trkpt lat="39.81205985499208" lon="9.061345106226605"><ele>383.0</ele><time>2026-05-01T14:02:15Z</time></trkpt><trkpt lat="39.81190422004429" lon="9.061546879646457"><ele>383.0</ele><time>2026-05-01T14:02:16Z</time></trkpt><trkpt lat="39.81174394311024" lon="9.061752900391689"><ele>385.0</ele><time>2026-05-01T14:02:17Z</time></trkpt><trkpt lat="39.811580139266624" lon="9.061962558622845"><ele>387.0</ele><time>2026-05-01T14:02:18Z</time></trkpt><trkpt lat="39.81141571289305" lon="9.062173013706262"><ele>387.0</ele><time>2026-05-01T14:02:19Z</time></trkpt><trkpt lat="39.811247578569024" lon="9.062388216922812"><ele>387.0</ele><time>2026-05-01T14:02:20Z</time></trkpt><trkpt lat="39.8110800850038" lon="9.062602604925399"><ele>385.0</ele><time>2026-05-01T14:02:21Z</time></trkpt><trkpt lat="39.8109114069421" lon="9.062818509056664"><ele>383.0</ele><time>2026-05-01T14:02:22Z</time></trkpt><trkpt lat="39.810766310691605" lon="9.06306284337084"><ele>383.0</ele><time>2026-05-01T14:02:23Z</time></trkpt><trkpt lat="39.81059531229419" lon="9.063278191350939"><ele>383.0</ele><time>2026-05-01T14:02:24Z</time></trkpt><trkpt lat="39.8104239474849" lon="9.063489536328339"><ele>382.5</ele><time>2026-05-01T14:02:25Z</time></trkpt><trkpt lat="39.810251039908884" lon="9.063701352656743"><ele>382.0</ele><time>2026-05-01T14:02:26Z</time></trkpt><trkpt lat="39.81007933302041" lon="9.06391413169389"><ele>385.0</ele><time>2026-05-01T14:02:27Z</time></trkpt><trkpt lat="39.80990986414892" lon="9.064131428523687"><ele>388.0</ele><time>2026-05-01T14:02:28Z</time></trkpt><trkpt lat="39.8097390653521" lon="9.064348820270583"><ele>388.0</ele><time>2026-05-01T14:02:29Z</time></trkpt><trkpt lat="39.80956616615753" lon="9.06456483057769"><ele>388.0</ele><time>2026-05-01T14:02:30Z</time></trkpt><trkpt lat="39.80939285837016" lon="9.064780674594758"><ele>388.0</ele><time>2026-05-01T14:02:31Z</time></trkpt><trkpt lat="39.809222280201745" lon="9.064997854780433"><ele>388.0</ele><time>2026-05-01T14:02:32Z</time></trkpt><trkpt lat="39.80905522769337" lon="9.06521434029202"><ele>388.0</ele><time>2026-05-01T14:02:33Z</time></trkpt><trkpt lat="39.808885715036276" lon="9.065433858853636"><ele>388.0</ele><time>2026-05-01T14:02:34Z</time></trkpt><trkpt lat="39.80871508152309" lon="9.065654592713837"><ele>388.0</ele><time>2026-05-01T14:02:35Z</time></trkpt><trkpt lat="39.80854113918148" lon="9.0658788802044"><ele>388.0</ele><time>2026-05-01T14:02:36Z</time></trkpt><trkpt lat="39.80836445369725" lon="9.066106151666196"><ele>385.5</ele><time>2026-05-01T14:02:37Z</time></trkpt><trkpt lat="39.808184138433354" lon="9.066334515734802"><ele>383.0</ele><time>2026-05-01T14:02:38Z</time></trkpt><trkpt lat="39.80800049146724" lon="9.066566025768802"><ele>382.5</ele><time>2026-05-01T14:02:39Z</time></trkpt><trkpt lat="39.807816598297805" lon="9.066800523768602"><ele>382.0</ele><time>2026-05-01T14:02:40Z</time></trkpt><trkpt lat="39.80763494326198" lon="9.067033890273379"><ele>382.0</ele><time>2026-05-01T14:02:41Z</time></trkpt><trkpt lat="39.80745407834518" lon="9.06726912928447"><ele>382.0</ele><time>2026-05-01T14:02:42Z</time></trkpt><trkpt lat="39.80727365245012" lon="9.067502124876933"><ele>383.5</ele><time>2026-05-01T14:02:43Z</time></trkpt><trkpt lat="39.807091144438544" lon="9.067732654221585"><ele>385.0</ele><time>2026-05-01T14:02:44Z</time></trkpt><trkpt lat="39.806909874940736" lon="9.067960192879465"><ele>385.5</ele><time>2026-05-01T14:02:45Z</time></trkpt><trkpt lat="39.806730895330496" lon="9.068186657450688"><ele>386.0</ele><time>2026-05-01T14:02:46Z</time></trkpt><trkpt lat="39.80655304471455" lon="9.06841722266981"><ele>386.0</ele><time>2026-05-01T14:02:47Z</time></trkpt><trkpt lat="39.80638129280533" lon="9.068651394106956"><ele>386.0</ele><time>2026-05-01T14:02:48Z</time></trkpt><trkpt lat="39.80621829510598" lon="9.068909372743112"><ele>385.0</ele><time>2026-05-01T14:02:49Z</time></trkpt><trkpt lat="39.80607167749916" lon="9.069179111799203"><ele>384.0</ele><time>2026-05-01T14:02:50Z</time></trkpt><trkpt lat="39.8059258537477" lon="9.06945949101022"><ele>384.0</ele><time>2026-05-01T14:02:51Z</time></trkpt><trkpt lat="39.805783923797954" lon="9.06974245570561"><ele>384.0</ele><time>2026-05-01T14:02:52Z</time></trkpt><trkpt lat="39.80564284203956" lon="9.070027035024001"><ele>385.0</ele><time>2026-05-01T14:02:53Z</time></trkpt><trkpt lat="39.80550231526394" lon="9.070300449524657"><ele>386.0</ele><time>2026-05-01T14:02:54Z</time></trkpt><trkpt lat="39.80536184163959" lon="9.070568701383117"><ele>387.5</ele><time>2026-05-01T14:02:55Z</time></trkpt><trkpt lat="39.80522643998183" lon="9.070836196923812"><ele>389.0</ele><time>2026-05-01T14:02:56Z</time></trkpt><trkpt lat="39.80509333627056" lon="9.07110237700577"><ele>386.0</ele><time>2026-05-01T14:02:57Z</time></trkpt><trkpt lat="39.80496122425714" lon="9.071364787488323"><ele>383.0</ele><time>2026-05-01T14:02:58Z</time></trkpt><trkpt lat="39.80483039061688" lon="9.071619518874774"><ele>383.0</ele><time>2026-05-01T14:02:59Z</time></trkpt><trkpt lat="39.80469922681794" lon="9.071873704893427"><ele>383.0</ele><time>2026-05-01T14:03:00Z</time></trkpt><trkpt lat="39.80457232126253" lon="9.072126636122881"><ele>383.0</ele><time>2026-05-01T14:03:01Z</time></trkpt><trkpt lat="39.80444509167851" lon="9.072375082890481"><ele>383.0</ele><time>2026-05-01T14:03:02Z</time></trkpt><trkpt lat="39.804316372286955" lon="9.072620446648594"><ele>382.0</ele><time>2026-05-01T14:03:03Z</time></trkpt><trkpt lat="39.804191573172965" lon="9.072864758998193"><ele>381.0</ele><time>2026-05-01T14:03:04Z</time></trkpt><trkpt lat="39.80406463881006" lon="9.073111888840772"><ele>381.5</ele><time>2026-05-01T14:03:05Z</time></trkpt><trkpt lat="39.803939659067424" lon="9.073360961678816"><ele>382.0</ele><time>2026-05-01T14:03:06Z</time></trkpt><trkpt lat="39.80381092786473" lon="9.073615876542423"><ele>382.0</ele><time>2026-05-01T14:03:07Z</time></trkpt><trkpt lat="39.80367981286565" lon="9.073874954060408"><ele>382.0</ele><time>2026-05-01T14:03:08Z</time></trkpt><trkpt lat="39.8035441292029" lon="9.074135587107444"><ele>381.5</ele><time>2026-05-01T14:03:09Z</time></trkpt><trkpt lat="39.80341192597416" lon="9.074393952396047"><ele>381.0</ele><time>2026-05-01T14:03:10Z</time></trkpt><trkpt lat="39.80327852132259" lon="9.074653301452582"><ele>381.0</ele><time>2026-05-01T14:03:11Z</time></trkpt><trkpt lat="39.80314608447244" lon="9.074913925650904"><ele>381.0</ele><time>2026-05-01T14:03:12Z</time></trkpt><trkpt lat="39.80301390734091" lon="9.075172034388965"><ele>383.5</ele><time>2026-05-01T14:03:13Z</time></trkpt><trkpt lat="39.80288029316184" lon="9.075430305054423"><ele>386.0</ele><time>2026-05-01T14:03:14Z</time></trkpt><trkpt lat="39.80274929165235" lon="9.07568544012047"><ele>386.5</ele><time>2026-05-01T14:03:15Z</time></trkpt><trkpt lat="39.80261672095818" lon="9.075942456619389"><ele>387.0</ele><time>2026-05-01T14:03:16Z</time></trkpt><trkpt lat="39.80248217572095" lon="9.076196627224776"><ele>387.0</ele><time>2026-05-01T14:03:17Z</time></trkpt><trkpt lat="39.80233551763768" lon="9.07644568511051"><ele>387.0</ele><time>2026-05-01T14:03:18Z</time></trkpt><trkpt lat="39.802182136564305" lon="9.076675146510961"><ele>391.5</ele><time>2026-05-01T14:03:19Z</time></trkpt><trkpt lat="39.80201543068686" lon="9.076893754573314"><ele>396.0</ele><time>2026-05-01T14:03:20Z</time></trkpt><trkpt lat="39.80184262216073" lon="9.077109087188498"><ele>397.0</ele><time>2026-05-01T14:03:21Z</time></trkpt><trkpt lat="39.8016637310262" lon="9.07732673339855"><ele>398.0</ele><time>2026-05-01T14:03:22Z</time></trkpt><trkpt lat="39.801477338695975" lon="9.077537663794025"><ele>398.0</ele><time>2026-05-01T14:03:23Z</time></trkpt><trkpt lat="39.80128436672181" lon="9.077738482137976"><ele>398.0</ele><time>2026-05-01T14:03:24Z</time></trkpt><trkpt lat="39.801077588623016" lon="9.077914678399935"><ele>396.0</ele><time>2026-05-01T14:03:25Z</time></trkpt><trkpt lat="39.80086267581385" lon="9.078072117669384"><ele>394.0</ele><time>2026-05-01T14:03:26Z</time></trkpt><trkpt lat="39.800650698354424" lon="9.078226995366826"><ele>396.5</ele><time>2026-05-01T14:03:27Z</time></trkpt><trkpt lat="39.800435768695934" lon="9.078374040828503"><ele>399.0</ele><time>2026-05-01T14:03:28Z</time></trkpt><trkpt lat="39.80022952743649" lon="9.078537768848832"><ele>398.0</ele><time>2026-05-01T14:03:29Z</time></trkpt><trkpt lat="39.80002565649438" lon="9.078699318746704"><ele>397.0</ele><time>2026-05-01T14:03:30Z</time></trkpt><trkpt lat="39.79982500660237" lon="9.078857643459697"><ele>397.0</ele><time>2026-05-01T14:03:31Z</time></trkpt><trkpt lat="39.79962188512595" lon="9.079019602624543"><ele>397.0</ele><time>2026-05-01T14:03:32Z</time></trkpt><trkpt lat="39.79941728771055" lon="9.07918277796067"><ele>395.0</ele><time>2026-05-01T14:03:33Z</time></trkpt><trkpt lat="39.7992102911307" lon="9.07934786673519"><ele>393.0</ele><time>2026-05-01T14:03:34Z</time></trkpt><trkpt lat="39.79900332951914" lon="9.079512927621234"><ele>393.0</ele><time>2026-05-01T14:03:35Z</time></trkpt><trkpt lat="39.79879504904802" lon="9.079679040355414"><ele>393.0</ele><time>2026-05-01T14:03:36Z</time></trkpt><trkpt lat="39.79859031751268" lon="9.079842318641337"><ele>391.5</ele><time>2026-05-01T14:03:37Z</time></trkpt><trkpt lat="39.79838724003621" lon="9.080003075433625"><ele>390.0</ele><time>2026-05-01T14:03:38Z</time></trkpt><trkpt lat="39.798185513781526" lon="9.08016321077073"><ele>390.0</ele><time>2026-05-01T14:03:39Z</time></trkpt><trkpt lat="39.797986348749546" lon="9.08032203300334"><ele>390.0</ele><time>2026-05-01T14:03:40Z</time></trkpt><trkpt lat="39.79778918921017" lon="9.080479255973662"><ele>388.5</ele><time>2026-05-01T14:03:41Z</time></trkpt><trkpt lat="39.797591808158366" lon="9.080636655588698"><ele>387.0</ele><time>2026-05-01T14:03:42Z</time></trkpt><trkpt lat="39.797399609902044" lon="9.080789956120093"><ele>385.6666666666667</ele><time>2026-05-01T14:03:43Z</time></trkpt><trkpt lat="39.797210230509364" lon="9.080943032956435"><ele>384.33333333333337</ele><time>2026-05-01T14:03:44Z</time></trkpt><trkpt lat="39.797037642555615" lon="9.08112039070469"><ele>383.0</ele><time>2026-05-01T14:03:45Z</time></trkpt><trkpt lat="39.79685510636508" lon="9.081268080501914"><ele>382.0</ele><time>2026-05-01T14:03:46Z</time></trkpt><trkpt lat="39.796673023419565" lon="9.081413038955656"><ele>381.0</ele><time>2026-05-01T14:03:47Z</time></trkpt><trkpt lat="39.79649002068945" lon="9.081556755566973"><ele>380.0</ele><time>2026-05-01T14:03:48Z</time></trkpt><trkpt lat="39.79630844608556" lon="9.081699132401237"><ele>379.6666666666667</ele><time>2026-05-01T14:03:49Z</time></trkpt><trkpt lat="39.79612386317956" lon="9.081834442845086"><ele>379.3333333333333</ele><time>2026-05-01T14:03:50Z</time></trkpt><trkpt lat="39.79592860534179" lon="9.081922816802072"><ele>379.0</ele><time>2026-05-01T14:03:51Z</time></trkpt><trkpt lat="39.79573611984436" lon="9.08200320593545"><ele>378.66666666666663</ele><time>2026-05-01T14:03:52Z</time></trkpt><trkpt lat="39.79554056689057" lon="9.082077411420846"><ele>378.3333333333333</ele><time>2026-05-01T14:03:53Z</time></trkpt><trkpt lat="39.79533866525308" lon="9.082104964538402"><ele>378.0</ele><time>2026-05-01T14:03:54Z</time></trkpt><trkpt lat="39.79513594039443" lon="9.082084142347052"><ele>378.0</ele><time>2026-05-01T14:03:55Z</time></trkpt><trkpt lat="39.79493627771058" lon="9.082080660787046"><ele>378.0</ele><time>2026-05-01T14:03:56Z</time></trkpt><trkpt lat="39.7947383397543" lon="9.082025755026716"><ele>378.0</ele><time>2026-05-01T14:03:57Z</time></trkpt><trkpt lat="39.79454402243759" lon="9.081945071707775"><ele>378.0</ele><time>2026-05-01T14:03:58Z</time></trkpt><trkpt lat="39.7943541249905" lon="9.081841277686241"><ele>378.0</ele><time>2026-05-01T14:03:59Z</time></trkpt><trkpt lat="39.794168490844086" lon="9.081714886278343"><ele>378.0</ele><time>2026-05-01T14:04:00Z</time></trkpt><trkpt lat="39.793986311889434" lon="9.081571711580136"><ele>377.6666666666667</ele><time>2026-05-01T14:04:01Z</time></trkpt><trkpt lat="39.793812081362134" lon="9.081416166903335"><ele>377.33333333333337</ele><time>2026-05-01T14:04:02Z</time></trkpt><trkpt lat="39.793656422658955" lon="9.081261063022973"><ele>377.0</ele><time>2026-05-01T14:04:03Z</time></trkpt><trkpt lat="39.79351692311658" lon="9.081105582606646"><ele>378.33333333333337</ele><time>2026-05-01T14:04:04Z</time></trkpt><trkpt lat="39.793411054432404" lon="9.08093811822851"><ele>379.6666666666667</ele><time>2026-05-01T14:04:05Z</time></trkpt><trkpt lat="39.79330191324006" lon="9.080806029617504"><ele>381.0</ele><time>2026-05-01T14:04:06Z</time></trkpt><trkpt lat="39.79322095154889" lon="9.080654595556071"><ele>381.0</ele><time>2026-05-01T14:04:07Z</time></trkpt><trkpt lat="39.79314786972998" lon="9.080503788081872"><ele>381.0</ele><time>2026-05-01T14:04:08Z</time></trkpt><trkpt lat="39.793078743223944" lon="9.080351768081039"><ele>381.0</ele><time>2026-05-01T14:04:09Z</time></trkpt><trkpt lat="39.793010468871294" lon="9.080200340162902"><ele>381.0</ele><time>2026-05-01T14:04:10Z</time></trkpt><trkpt lat="39.79294359370215" lon="9.080049618297542"><ele>379.0</ele><time>2026-05-01T14:04:11Z</time></trkpt><trkpt lat="39.79287575044766" lon="9.079900840227673"><ele>377.0</ele><time>2026-05-01T14:04:12Z</time></trkpt><trkpt lat="39.79281043946823" lon="9.079752246771001"><ele>375.0</ele><time>2026-05-01T14:04:13Z</time></trkpt><trkpt lat="39.792748004396785" lon="9.079605862485682"><ele>373.0</ele><time>2026-05-01T14:04:14Z</time></trkpt><trkpt lat="39.79268885048541" lon="9.079461685238412"><ele>374.25</ele><time>2026-05-01T14:04:15Z</time></trkpt><trkpt lat="39.79263180811995" lon="9.079319848859681"><ele>375.5</ele><time>2026-05-01T14:04:16Z</time></trkpt><trkpt lat="39.792572273630945" lon="9.079182039150224"><ele>376.75</ele><time>2026-05-01T14:04:17Z</time></trkpt><trkpt lat="39.79251156419922" lon="9.079047433423936"><ele>378.0</ele><time>2026-05-01T14:04:18Z</time></trkpt><trkpt lat="39.79244579616458" lon="9.078922813576835"><ele>378.0</ele><time>2026-05-01T14:04:19Z</time></trkpt><trkpt lat="39.792359461651245" lon="9.07883974936422"><ele>378.0</ele><time>2026-05-01T14:04:20Z</time></trkpt><trkpt lat="39.79226339863839" lon="9.078793358066587"><ele>378.0</ele><time>2026-05-01T14:04:21Z</time></trkpt><trkpt lat="39.79216336339835" lon="9.078851871023922"><ele>378.0</ele><time>2026-05-01T14:04:22Z</time></trkpt><trkpt lat="39.79206929590206" lon="9.078935626634626"><ele>378.0</ele><time>2026-05-01T14:04:23Z</time></trkpt><trkpt lat="39.79196146074996" lon="9.0789934668934"><ele>378.0</ele><time>2026-05-01T14:04:24Z</time></trkpt><trkpt lat="39.79186103630012" lon="9.079073788620423"><ele>378.0</ele><time>2026-05-01T14:04:25Z</time></trkpt><trkpt lat="39.79175301414289" lon="9.079142916863624"><ele>378.0</ele><time>2026-05-01T14:04:26Z</time></trkpt><trkpt lat="39.79164023909739" lon="9.079194989458252"><ele>378.0</ele><time>2026-05-01T14:04:27Z</time></trkpt><trkpt lat="39.79152399264495" lon="9.079219993638088"><ele>382.75</ele><time>2026-05-01T14:04:28Z</time></trkpt><trkpt lat="39.791404200344104" lon="9.079200303116428"><ele>387.5</ele><time>2026-05-01T14:04:29Z</time></trkpt><trkpt lat="39.79128998431422" lon="9.079171084184186"><ele>392.25</ele><time>2026-05-01T14:04:30Z</time></trkpt><trkpt lat="39.79118286379123" lon="9.07914376798561"><ele>397.0</ele><time>2026-05-01T14:04:31Z</time></trkpt><trkpt lat="39.79107859442065" lon="9.0791438670096"><ele>397.0</ele><time>2026-05-01T14:04:32Z</time></trkpt><trkpt lat="39.79097857009571" lon="9.079177091358675"><ele>397.0</ele><time>2026-05-01T14:04:33Z</time></trkpt><trkpt lat="39.790881438214356" lon="9.079212975278006"><ele>397.0</ele><time>2026-05-01T14:04:34Z</time></trkpt><trkpt lat="39.79078427679876" lon="9.079246141366356"><ele>397.0</ele><time>2026-05-01T14:04:35Z</time></trkpt><trkpt lat="39.79068490481746" lon="9.079275292244981"><ele>397.0</ele><time>2026-05-01T14:04:36Z</time></trkpt><trkpt lat="39.79058437031712" lon="9.079301290946479"><ele>397.0</ele><time>2026-05-01T14:04:37Z</time></trkpt><trkpt lat="39.790480339798485" lon="9.07933368832816"><ele>397.0</ele><time>2026-05-01T14:04:38Z</time></trkpt><trkpt lat="39.790376933102046" lon="9.079365806303006"><ele>397.0</ele><time>2026-05-01T14:04:39Z</time></trkpt><trkpt lat="39.79027199688855" lon="9.079395127731342"><ele>397.0</ele><time>2026-05-01T14:04:40Z</time></trkpt><trkpt lat="39.79016464290844" lon="9.079423970497254"><ele>397.0</ele><time>2026-05-01T14:04:41Z</time></trkpt><trkpt lat="39.790054623058985" lon="9.079456732215036"><ele>396.0</ele><time>2026-05-01T14:04:42Z</time></trkpt><trkpt lat="39.78994553881862" lon="9.07948984803004"><ele>395.0</ele><time>2026-05-01T14:04:43Z</time></trkpt><trkpt lat="39.78983310359572" lon="9.079518035725187"><ele>394.0</ele><time>2026-05-01T14:04:44Z</time></trkpt><trkpt lat="39.78972168213294" lon="9.079546062928072"><ele>393.0</ele><time>2026-05-01T14:04:45Z</time></trkpt><trkpt lat="39.7896100607517" lon="9.079574251293034"><ele>393.0</ele><time>2026-05-01T14:04:46Z</time></trkpt><trkpt lat="39.7894997964349" lon="9.07960368930173"><ele>393.0</ele><time>2026-05-01T14:04:47Z</time></trkpt><trkpt lat="39.789388300558365" lon="9.079628021147107"><ele>393.0</ele><time>2026-05-01T14:04:48Z</time></trkpt><trkpt lat="39.789279964675394" lon="9.079643452479562"><ele>393.0</ele><time>2026-05-01T14:04:49Z</time></trkpt><trkpt lat="39.78917464502783" lon="9.079634134233782"><ele>393.0</ele><time>2026-05-01T14:04:50Z</time></trkpt><trkpt lat="39.789075603716256" lon="9.079590761553849"><ele>392.0</ele><time>2026-05-01T14:04:51Z</time></trkpt><trkpt lat="39.78899399038212" lon="9.079517252119308"><ele>391.0</ele><time>2026-05-01T14:04:52Z</time></trkpt><trkpt lat="39.78892655338255" lon="9.07942500287047"><ele>390.0</ele><time>2026-05-01T14:04:53Z</time></trkpt><trkpt lat="39.78886863427714" lon="9.07932573013231"><ele>389.0</ele><time>2026-05-01T14:04:54Z</time></trkpt><trkpt lat="39.788817681643" lon="9.079217221715636"><ele>388.0</ele><time>2026-05-01T14:04:55Z</time></trkpt><trkpt lat="39.78876385513564" lon="9.079105646506342"><ele>388.59999999999997</ele><time>2026-05-01T14:04:56Z</time></trkpt><trkpt lat="39.78870612847227" lon="9.078990695970203"><ele>389.2</ele><time>2026-05-01T14:04:57Z</time></trkpt><trkpt lat="39.78864570515045" lon="9.078873657978843"><ele>389.8</ele><time>2026-05-01T14:04:58Z</time></trkpt><trkpt lat="39.78857275764564" lon="9.078762189880964"><ele>390.4</ele><time>2026-05-01T14:04:59Z</time></trkpt><trkpt lat="39.78848599892029" lon="9.078662104312674"><ele>391.0</ele><time>2026-05-01T14:05:00Z</time></trkpt><trkpt lat="39.788395729748224" lon="9.078567941069622"><ele>389.0</ele><time>2026-05-01T14:05:01Z</time></trkpt><trkpt lat="39.788298963205655" lon="9.078477001905673"><ele>387.0</ele><time>2026-05-01T14:05:02Z</time></trkpt><trkpt lat="39.78820111513082" lon="9.078387392569764"><ele>385.0</ele><time>2026-05-01T14:05:03Z</time></trkpt><trkpt lat="39.788105110331" lon="9.078292730644428"><ele>383.0</ele><time>2026-05-01T14:05:04Z</time></trkpt><trkpt lat="39.78800849081382" lon="9.078197674334344"><ele>381.5</ele><time>2026-05-01T14:05:05Z</time></trkpt><trkpt lat="39.78790868430613" lon="9.078106265744138"><ele>380.0</ele><time>2026-05-01T14:05:06Z</time></trkpt><trkpt lat="39.78780419476011" lon="9.078022377800037"><ele>378.5</ele><time>2026-05-01T14:05:07Z</time></trkpt><trkpt lat="39.78769922616142" lon="9.077940296354289"><ele>377.0</ele><time>2026-05-01T14:05:08Z</time></trkpt><trkpt lat="39.78759506779878" lon="9.077855407547379"><ele>376.75</ele><time>2026-05-01T14:05:09Z</time></trkpt><trkpt lat="39.78749066355686" lon="9.077769715287713"><ele>376.5</ele><time>2026-05-01T14:05:10Z</time></trkpt><trkpt lat="39.787385409874844" lon="9.077682015278024"><ele>376.25</ele><time>2026-05-01T14:05:11Z</time></trkpt><trkpt lat="39.787280292052266" lon="9.077591947456893"><ele>376.0</ele><time>2026-05-01T14:05:12Z</time></trkpt><trkpt lat="39.78717560902478" lon="9.07750092126648"><ele>375.5</ele><time>2026-05-01T14:05:13Z</time></trkpt><trkpt lat="39.78707338478055" lon="9.077409896217397"><ele>375.0</ele><time>2026-05-01T14:05:14Z</time></trkpt><trkpt lat="39.78697217498101" lon="9.077324333158392"><ele>374.5</ele><time>2026-05-01T14:05:15Z</time></trkpt><trkpt lat="39.78687138737908" lon="9.07724384108552"><ele>374.0</ele><time>2026-05-01T14:05:16Z</time></trkpt><trkpt lat="39.786773258170946" lon="9.077166992349886"><ele>373.5</ele><time>2026-05-01T14:05:17Z</time></trkpt><trkpt lat="39.786673775429946" lon="9.077101671634418"><ele>373.0</ele><time>2026-05-01T14:05:18Z</time></trkpt><trkpt lat="39.7865672270063" lon="9.077069582248622"><ele>372.5</ele><time>2026-05-01T14:05:19Z</time></trkpt><trkpt lat="39.78645024400387" lon="9.077070888842481"><ele>372.0</ele><time>2026-05-01T14:05:20Z</time></trkpt><trkpt lat="39.78633031367504" lon="9.077104651512116"><ele>372.0</ele><time>2026-05-01T14:05:21Z</time></trkpt><trkpt lat="39.786211039126925" lon="9.077164786519345"><ele>372.0</ele><time>2026-05-01T14:05:22Z</time></trkpt><trkpt lat="39.78609325763265" lon="9.077237479690874"><ele>372.0</ele><time>2026-05-01T14:05:23Z</time></trkpt><trkpt lat="39.78597146772966" lon="9.077314022408638"><ele>372.0</ele><time>2026-05-01T14:05:24Z</time></trkpt><trkpt lat="39.78584779455792" lon="9.077391534811996"><ele>373.0</ele><time>2026-05-01T14:05:25Z</time></trkpt><trkpt lat="39.78571074243667" lon="9.077451780940295"><ele>374.0</ele><time>2026-05-01T14:05:26Z</time></trkpt><trkpt lat="39.78557760122471" lon="9.077533509561963"><ele>375.0</ele><time>2026-05-01T14:05:27Z</time></trkpt><trkpt lat="39.785439635259955" lon="9.07761758368164"><ele>376.0</ele><time>2026-05-01T14:05:28Z</time></trkpt><trkpt lat="39.78529781804923" lon="9.077704004770226"><ele>373.3333333333333</ele><time>2026-05-01T14:05:29Z</time></trkpt><trkpt lat="39.7851528239187" lon="9.077792361772701"><ele>370.6666666666667</ele><time>2026-05-01T14:05:30Z</time></trkpt><trkpt lat="39.78501238260236" lon="9.077901535280121"><ele>368.0</ele><time>2026-05-01T14:05:31Z</time></trkpt><trkpt lat="39.78485460332896" lon="9.077974092402604"><ele>368.0</ele><time>2026-05-01T14:05:32Z</time></trkpt><trkpt lat="39.78470066287241" lon="9.078067901128621"><ele>368.0</ele><time>2026-05-01T14:05:33Z</time></trkpt><trkpt lat="39.78454609738736" lon="9.07816133589374"><ele>368.0</ele><time>2026-05-01T14:05:34Z</time></trkpt><trkpt lat="39.784389527143865" lon="9.078255762630958"><ele>369.0</ele><time>2026-05-01T14:05:35Z</time></trkpt><trkpt lat="39.78423319045603" lon="9.078350048488037"><ele>370.0</ele><time>2026-05-01T14:05:36Z</time></trkpt><trkpt lat="39.7840741796224" lon="9.078446721639676"><ele>371.0</ele><time>2026-05-01T14:05:37Z</time></trkpt><trkpt lat="39.78391438120422" lon="9.078545344028838"><ele>371.0</ele><time>2026-05-01T14:05:38Z</time></trkpt><trkpt lat="39.78375552295463" lon="9.078659163092372"><ele>371.0</ele><time>2026-05-01T14:05:39Z</time></trkpt><trkpt lat="39.78360380741383" lon="9.078798213446152"><ele>371.0</ele><time>2026-05-01T14:05:40Z</time></trkpt><trkpt lat="39.7834630233279" lon="9.078957331076104"><ele>370.6666666666667</ele><time>2026-05-01T14:05:41Z</time></trkpt><trkpt lat="39.78332930009518" lon="9.079134367603512"><ele>370.3333333333333</ele><time>2026-05-01T14:05:42Z</time></trkpt><trkpt lat="39.78319985341328" lon="9.079315195527307"><ele>370.0</ele><time>2026-05-01T14:05:43Z</time></trkpt><trkpt lat="39.78306845656822" lon="9.079498358743024"><ele>370.0</ele><time>2026-05-01T14:05:44Z</time></trkpt><trkpt lat="39.78293514359508" lon="9.07968420932072"><ele>370.0</ele><time>2026-05-01T14:05:45Z</time></trkpt><trkpt lat="39.78281964625547" lon="9.079874909875622"><ele>370.0</ele><time>2026-05-01T14:05:46Z</time></trkpt><trkpt lat="39.78268395752694" lon="9.080055619490171"><ele>370.0</ele><time>2026-05-01T14:05:47Z</time></trkpt><trkpt lat="39.782551036852894" lon="9.080239853095765"><ele>370.0</ele><time>2026-05-01T14:05:48Z</time></trkpt><trkpt lat="39.78240836491471" lon="9.080413658403781"><ele>370.0</ele><time>2026-05-01T14:05:49Z</time></trkpt><trkpt lat="39.78227496574375" lon="9.080598664464983"><ele>372.3333333333333</ele><time>2026-05-01T14:05:50Z</time></trkpt><trkpt lat="39.782143576962504" lon="9.080780882609119"><ele>374.6666666666667</ele><time>2026-05-01T14:05:51Z</time></trkpt><trkpt lat="39.78200900571199" lon="9.080954137330785"><ele>377.0</ele><time>2026-05-01T14:05:52Z</time></trkpt><trkpt lat="39.78186073195906" lon="9.081105625738303"><ele>376.6666666666667</ele><time>2026-05-01T14:05:53Z</time></trkpt><trkpt lat="39.781695817776644" lon="9.0812189093779"><ele>376.3333333333333</ele><time>2026-05-01T14:05:54Z</time></trkpt><trkpt lat="39.78151721997208" lon="9.081279287783063"><ele>376.0</ele><time>2026-05-01T14:05:55Z</time></trkpt><trkpt lat="39.781334078161194" lon="9.081285336988287"><ele>376.0</ele><time>2026-05-01T14:05:56Z</time></trkpt><trkpt lat="39.781165390380444" lon="9.08128619668217"><ele>376.0</ele><time>2026-05-01T14:05:57Z</time></trkpt><trkpt lat="39.781006847100244" lon="9.081289764025998"><ele>376.0</ele><time>2026-05-01T14:05:58Z</time></trkpt><trkpt lat="39.78084299488674" lon="9.08131240461723"><ele>376.3333333333333</ele><time>2026-05-01T14:05:59Z</time></trkpt><trkpt lat="39.7806885604507" lon="9.08140294406325"><ele>376.6666666666667</ele><time>2026-05-01T14:06:00Z</time></trkpt><trkpt lat="39.78055572007804" lon="9.081551041580237"><ele>377.0</ele><time>2026-05-01T14:06:01Z</time></trkpt><trkpt lat="39.780427667084886" lon="9.081720348477958"><ele>377.33333333333337</ele><time>2026-05-01T14:06:02Z</time></trkpt><trkpt lat="39.780294454033246" lon="9.081897752791573"><ele>377.6666666666667</ele><time>2026-05-01T14:06:03Z</time></trkpt><trkpt lat="39.78017057613305" lon="9.082090240811562"><ele>378.0</ele><time>2026-05-01T14:06:04Z</time></trkpt><trkpt lat="39.78005023839125" lon="9.082278665370847"><ele>379.3333333333333</ele><time>2026-05-01T14:06:05Z</time></trkpt><trkpt lat="39.779925331409984" lon="9.082474244274282"><ele>380.66666666666663</ele><time>2026-05-01T14:06:06Z</time></trkpt><trkpt lat="39.779799295170655" lon="9.082670749332985"><ele>382.0</ele><time>2026-05-01T14:06:07Z</time></trkpt><trkpt lat="39.779673255768046" lon="9.082867303816368"><ele>382.0</ele><time>2026-05-01T14:06:08Z</time></trkpt><trkpt lat="39.77954543922781" lon="9.083065591454467"><ele>382.0</ele><time>2026-05-01T14:06:09Z</time></trkpt><trkpt lat="39.77941676107514" lon="9.083265081861208"><ele>382.0</ele><time>2026-05-01T14:06:10Z</time></trkpt><trkpt lat="39.77928682620343" lon="9.083466762091794"><ele>383.0</ele><time>2026-05-01T14:06:11Z</time></trkpt><trkpt lat="39.77915615938973" lon="9.083667048344996"><ele>384.0</ele><time>2026-05-01T14:06:12Z</time></trkpt><trkpt lat="39.77902533873764" lon="9.083867338040102"><ele>385.0</ele><time>2026-05-01T14:06:13Z</time></trkpt><trkpt lat="39.77888907781064" lon="9.084057999943829"><ele>385.33333333333337</ele><time>2026-05-01T14:06:14Z</time></trkpt><trkpt lat="39.778737629536984" lon="9.084234591545613"><ele>385.66666666666663</ele><time>2026-05-01T14:06:15Z</time></trkpt><trkpt lat="39.77857654333208" lon="9.08440028150898"><ele>386.0</ele><time>2026-05-01T14:06:16Z</time></trkpt><trkpt lat="39.7784129727311" lon="9.084565735456554"><ele>386.0</ele><time>2026-05-01T14:06:17Z</time></trkpt><trkpt lat="39.77825024439165" lon="9.084730268509668"><ele>386.0</ele><time>2026-05-01T14:06:18Z</time></trkpt><trkpt lat="39.778086690338604" lon="9.08489559343845"><ele>386.0</ele><time>2026-05-01T14:06:19Z</time></trkpt><trkpt lat="39.777924757787936" lon="9.085059279179776"><ele>386.0</ele><time>2026-05-01T14:06:20Z</time></trkpt><trkpt lat="39.77776682348599" lon="9.085216869850795"><ele>386.0</ele><time>2026-05-01T14:06:21Z</time></trkpt><trkpt lat="39.7776303158772" lon="9.085381073115242"><ele>386.0</ele><time>2026-05-01T14:06:22Z</time></trkpt><trkpt lat="39.777491292665964" lon="9.085518178605827"><ele>386.0</ele><time>2026-05-01T14:06:23Z</time></trkpt><trkpt lat="39.77735577725171" lon="9.085645377222562"><ele>386.0</ele><time>2026-05-01T14:06:24Z</time></trkpt><trkpt lat="39.77727373590827" lon="9.085841130003327"><ele>386.0</ele><time>2026-05-01T14:06:25Z</time></trkpt><trkpt lat="39.77721580821955" lon="9.086054917672596"><ele>387.3333333333333</ele><time>2026-05-01T14:06:26Z</time></trkpt><trkpt lat="39.77717886079558" lon="9.086284616581745"><ele>388.66666666666663</ele><time>2026-05-01T14:06:27Z</time></trkpt><trkpt lat="39.77711591043989" lon="9.086496068549591"><ele>390.0</ele><time>2026-05-01T14:06:28Z</time></trkpt><trkpt lat="39.77705046053036" lon="9.086708772792322"><ele>389.66666666666663</ele><time>2026-05-01T14:06:29Z</time></trkpt><trkpt lat="39.77692631537374" lon="9.086884960401619"><ele>389.3333333333333</ele><time>2026-05-01T14:06:30Z</time></trkpt><trkpt lat="39.776801434554656" lon="9.087060082583111"><ele>389.0</ele><time>2026-05-01T14:06:31Z</time></trkpt><trkpt lat="39.77667426043039" lon="9.087238290498405"><ele>390.66666666666663</ele><time>2026-05-01T14:06:32Z</time></trkpt><trkpt lat="39.77656201137175" lon="9.087441397971077"><ele>392.33333333333337</ele><time>2026-05-01T14:06:33Z</time></trkpt><trkpt lat="39.776430355248394" lon="9.087626462262664"><ele>394.0</ele><time>2026-05-01T14:06:34Z</time></trkpt><trkpt lat="39.77629635434911" lon="9.087810395887658"><ele>394.0</ele><time>2026-05-01T14:06:35Z</time></trkpt><trkpt lat="39.776158990235366" lon="9.08799448322834"><ele>394.0</ele><time>2026-05-01T14:06:36Z</time></trkpt><trkpt lat="39.77602079049" lon="9.088173249711895"><ele>394.0</ele><time>2026-05-01T14:06:37Z</time></trkpt><trkpt lat="39.77588293013989" lon="9.088354572293472"><ele>394.6666666666667</ele><time>2026-05-01T14:06:38Z</time></trkpt><trkpt lat="39.77575175290573" lon="9.0885399806437"><ele>395.33333333333337</ele><time>2026-05-01T14:06:39Z</time></trkpt><trkpt lat="39.7756060510124" lon="9.088713845557633"><ele>396.0</ele><time>2026-05-01T14:06:40Z</time></trkpt><trkpt lat="39.775483454151406" lon="9.088914008986622"><ele>396.33333333333337</ele><time>2026-05-01T14:06:41Z</time></trkpt><trkpt lat="39.7753463579504" lon="9.089097829444817"><ele>396.6666666666667</ele><time>2026-05-01T14:06:42Z</time></trkpt><trkpt lat="39.77520810387786" lon="9.08928546279273"><ele>397.0</ele><time>2026-05-01T14:06:43Z</time></trkpt><trkpt lat="39.77507132420704" lon="9.089467914984228"><ele>397.0</ele><time>2026-05-01T14:06:44Z</time></trkpt><trkpt lat="39.77495006519284" lon="9.08964875826881"><ele>397.0</ele><time>2026-05-01T14:06:45Z</time></trkpt><trkpt lat="39.77486118011281" lon="9.089836709175202"><ele>397.0</ele><time>2026-05-01T14:06:46Z</time></trkpt><trkpt lat="39.77482256546508" lon="9.090039898964864"><ele>396.6666666666667</ele><time>2026-05-01T14:06:47Z</time></trkpt><trkpt lat="39.77483042997619" lon="9.090257078680557"><ele>396.33333333333337</ele><time>2026-05-01T14:06:48Z</time></trkpt><trkpt lat="39.77488405003829" lon="9.090476504297841"><ele>396.0</ele><time>2026-05-01T14:06:49Z</time></trkpt><trkpt lat="39.77497041514907" lon="9.09068433481896"><ele>395.66666666666663</ele><time>2026-05-01T14:06:50Z</time></trkpt><trkpt lat="39.77507718470356" lon="9.090882215617702"><ele>395.3333333333333</ele><time>2026-05-01T14:06:51Z</time></trkpt><trkpt lat="39.77518888108895" lon="9.091081917812664"><ele>395.0</ele><time>2026-05-01T14:06:52Z</time></trkpt><trkpt lat="39.77528656081832" lon="9.091288468015163"><ele>398.0</ele><time>2026-05-01T14:06:53Z</time></trkpt><trkpt lat="39.775362470226554" lon="9.091494159751814"><ele>401.0</ele><time>2026-05-01T14:06:54Z</time></trkpt><trkpt lat="39.77540653269693" lon="9.091708074794157"><ele>404.0</ele><time>2026-05-01T14:06:55Z</time></trkpt><trkpt lat="39.77541344747158" lon="9.091932484799344"><ele>404.0</ele><time>2026-05-01T14:06:56Z</time></trkpt><trkpt lat="39.77538235020074" lon="9.092155167672688"><ele>404.0</ele><time>2026-05-01T14:06:57Z</time></trkpt><trkpt lat="39.775325258662576" lon="9.092378076160259"><ele>404.0</ele><time>2026-05-01T14:06:58Z</time></trkpt><trkpt lat="39.77526050281634" lon="9.092610908972517"><ele>404.0</ele><time>2026-05-01T14:06:59Z</time></trkpt><trkpt lat="39.775203787539354" lon="9.092853905913794"><ele>404.0</ele><time>2026-05-01T14:07:00Z</time></trkpt><trkpt lat="39.775147708054895" lon="9.093104042003903"><ele>404.0</ele><time>2026-05-01T14:07:01Z</time></trkpt><trkpt lat="39.77508928811208" lon="9.093360332801366"><ele>404.3333333333333</ele><time>2026-05-01T14:07:02Z</time></trkpt><trkpt lat="39.77502725612798" lon="9.0936211756206"><ele>404.66666666666663</ele><time>2026-05-01T14:07:03Z</time></trkpt><trkpt lat="39.77496627639812" lon="9.093872386505433"><ele>405.0</ele><time>2026-05-01T14:07:04Z</time></trkpt><trkpt lat="39.77490516414777" lon="9.094110696894408"><ele>404.33333333333337</ele><time>2026-05-01T14:07:05Z</time></trkpt><trkpt lat="39.77482166711612" lon="9.094317230171013"><ele>403.6666666666667</ele><time>2026-05-01T14:07:06Z</time></trkpt><trkpt lat="39.774699997998674" lon="9.094498233858827"><ele>403.0</ele><time>2026-05-01T14:07:07Z</time></trkpt><trkpt lat="39.77453281030415" lon="9.09462383148193"><ele>403.0</ele><time>2026-05-01T14:07:08Z</time></trkpt><trkpt lat="39.77438305864385" lon="9.094774650538149"><ele>403.0</ele><time>2026-05-01T14:07:09Z</time></trkpt><trkpt lat="39.774265115984626" lon="9.094952829165441"><ele>403.0</ele><time>2026-05-01T14:07:10Z</time></trkpt><trkpt lat="39.77415969183655" lon="9.095126058947866"><ele>404.75</ele><time>2026-05-01T14:07:11Z</time></trkpt><trkpt lat="39.77408508135356" lon="9.095333466161902"><ele>406.5</ele><time>2026-05-01T14:07:12Z</time></trkpt><trkpt lat="39.773981469808774" lon="9.095461203226828"><ele>408.25</ele><time>2026-05-01T14:07:13Z</time></trkpt><trkpt lat="39.77387240777591" lon="9.095548051053157"><ele>410.0</ele><time>2026-05-01T14:07:14Z</time></trkpt><trkpt lat="39.77374868951636" lon="9.095569386723886"><ele>410.0</ele><time>2026-05-01T14:07:15Z</time></trkpt><trkpt lat="39.77361009524747" lon="9.095557240879923"><ele>410.0</ele><time>2026-05-01T14:07:16Z</time></trkpt><trkpt lat="39.77344293739926" lon="9.095575749399547"><ele>410.0</ele><time>2026-05-01T14:07:17Z</time></trkpt><trkpt lat="39.7732814936013" lon="9.095654089965052"><ele>411.3333333333333</ele><time>2026-05-01T14:07:18Z</time></trkpt><trkpt lat="39.77311096714353" lon="9.09573968678856"><ele>412.66666666666663</ele><time>2026-05-01T14:07:19Z</time></trkpt><trkpt lat="39.77293913749986" lon="9.095851844637208"><ele>414.0</ele><time>2026-05-01T14:07:20Z</time></trkpt><trkpt lat="39.77276572388121" lon="9.095983815944003"><ele>415.33333333333337</ele><time>2026-05-01T14:07:21Z</time></trkpt><trkpt lat="39.77259808832721" lon="9.096132255454467"><ele>416.6666666666667</ele><time>2026-05-01T14:07:22Z</time></trkpt><trkpt lat="39.772439074502316" lon="9.096303336312504"><ele>418.0</ele><time>2026-05-01T14:07:23Z</time></trkpt><trkpt lat="39.772295446032" lon="9.096489744196973"><ele>417.33333333333337</ele><time>2026-05-01T14:07:24Z</time></trkpt><trkpt lat="39.772172116527386" lon="9.096685466988584"><ele>416.66666666666663</ele><time>2026-05-01T14:07:25Z</time></trkpt><trkpt lat="39.77207573299431" lon="9.096897030712567"><ele>416.0</ele><time>2026-05-01T14:07:26Z</time></trkpt><trkpt lat="39.77200497862233" lon="9.097118684852408"><ele>416.0</ele><time>2026-05-01T14:07:27Z</time></trkpt><trkpt lat="39.7719292886455" lon="9.097325979702195"><ele>416.0</ele><time>2026-05-01T14:07:28Z</time></trkpt><trkpt lat="39.77180333360645" lon="9.097481856188482"><ele>416.0</ele><time>2026-05-01T14:07:29Z</time></trkpt><trkpt lat="39.77167207862326" lon="9.097634971318405"><ele>417.0</ele><time>2026-05-01T14:07:30Z</time></trkpt><trkpt lat="39.771533368043336" lon="9.097787600139268"><ele>418.0</ele><time>2026-05-01T14:07:31Z</time></trkpt><trkpt lat="39.77139164409368" lon="9.097942879034727"><ele>419.0</ele><time>2026-05-01T14:07:32Z</time></trkpt><trkpt lat="39.771251474905604" lon="9.09809512022142"><ele>419.3333333333333</ele><time>2026-05-01T14:07:33Z</time></trkpt><trkpt lat="39.771103250365314" lon="9.098260697949994"><ele>419.66666666666663</ele><time>2026-05-01T14:07:34Z</time></trkpt><trkpt lat="39.770958871707236" lon="9.09842160956752"><ele>420.0</ele><time>2026-05-01T14:07:35Z</time></trkpt><trkpt lat="39.77081956233799" lon="9.098588267386518"><ele>421.0</ele><time>2026-05-01T14:07:36Z</time></trkpt><trkpt lat="39.77067162164659" lon="9.098752219593614"><ele>422.0</ele><time>2026-05-01T14:07:37Z</time></trkpt><trkpt lat="39.770523426070135" lon="9.098910742068021"><ele>423.0</ele><time>2026-05-01T14:07:38Z</time></trkpt><trkpt lat="39.77037658194161" lon="9.099070893696743"><ele>422.66666666666663</ele><time>2026-05-01T14:07:39Z</time></trkpt><trkpt lat="39.77022860983238" lon="9.099230042489644"><ele>422.3333333333333</ele><time>2026-05-01T14:07:40Z</time></trkpt><trkpt lat="39.77006393520071" lon="9.099362074638748"><ele>422.0</ele><time>2026-05-01T14:07:41Z</time></trkpt><trkpt lat="39.769910683592215" lon="9.099513773914365"><ele>424.3333333333333</ele><time>2026-05-01T14:07:42Z</time></trkpt><trkpt lat="39.76973783241907" lon="9.099631262404968"><ele>426.66666666666663</ele><time>2026-05-01T14:07:43Z</time></trkpt><trkpt lat="39.76956229066757" lon="9.099737411958492"><ele>429.0</ele><time>2026-05-01T14:07:44Z</time></trkpt><trkpt lat="39.769381396181714" lon="9.099836777118275"><ele>430.66666666666663</ele><time>2026-05-01T14:07:45Z</time></trkpt><trkpt lat="39.7691960564669" lon="9.099926019114438"><ele>432.3333333333333</ele><time>2026-05-01T14:07:46Z</time></trkpt><trkpt lat="39.76900736024605" lon="9.100003128352576"><ele>434.0</ele><time>2026-05-01T14:07:47Z</time></trkpt><trkpt lat="39.768813014684454" lon="9.100065116906663"><ele>434.0</ele><time>2026-05-01T14:07:48Z</time></trkpt><trkpt lat="39.76861729863839" lon="9.100120641276352"><ele>434.0</ele><time>2026-05-01T14:07:49Z</time></trkpt><trkpt lat="39.76842476089026" lon="9.100181630379245"><ele>434.0</ele><time>2026-05-01T14:07:50Z</time></trkpt><trkpt lat="39.7682349313078" lon="9.100249257250413"><ele>434.3333333333333</ele><time>2026-05-01T14:07:51Z</time></trkpt><trkpt lat="39.76805062510252" lon="9.100319469999622"><ele>434.66666666666663</ele><time>2026-05-01T14:07:52Z</time></trkpt><trkpt lat="39.76786691537006" lon="9.100388447688475"><ele>435.0</ele><time>2026-05-01T14:07:53Z</time></trkpt><trkpt lat="39.76768259366786" lon="9.100461142887715"><ele>435.0</ele><time>2026-05-01T14:07:54Z</time></trkpt><trkpt lat="39.76749434839216" lon="9.10053686961579"><ele>435.0</ele><time>2026-05-01T14:07:55Z</time></trkpt><trkpt lat="39.76731147321631" lon="9.100626586621258"><ele>435.0</ele><time>2026-05-01T14:07:56Z</time></trkpt><trkpt lat="39.767131699434366" lon="9.100730946165633"><ele>435.0</ele><time>2026-05-01T14:07:57Z</time></trkpt><trkpt lat="39.76695815051118" lon="9.10084833457403"><ele>435.0</ele><time>2026-05-01T14:07:58Z</time></trkpt><trkpt lat="39.76678950279312" lon="9.100977443977257"><ele>435.0</ele><time>2026-05-01T14:07:59Z</time></trkpt><trkpt lat="39.76662771414257" lon="9.101122942392008"><ele>434.33333333333337</ele><time>2026-05-01T14:08:00Z</time></trkpt><trkpt lat="39.76646860769795" lon="9.101286477870634"><ele>433.6666666666667</ele><time>2026-05-01T14:08:01Z</time></trkpt><trkpt lat="39.76631211561884" lon="9.101462723327959"><ele>433.0</ele><time>2026-05-01T14:08:02Z</time></trkpt><trkpt lat="39.76616571012066" lon="9.10164983186557"><ele>434.6666666666667</ele><time>2026-05-01T14:08:03Z</time></trkpt><trkpt lat="39.76601609945946" lon="9.101835899913436"><ele>436.33333333333337</ele><time>2026-05-01T14:08:04Z</time></trkpt><trkpt lat="39.765881865934915" lon="9.102047478656312"><ele>438.0</ele><time>2026-05-01T14:08:05Z</time></trkpt><trkpt lat="39.76576717686184" lon="9.102278585305607"><ele>438.33333333333337</ele><time>2026-05-01T14:08:06Z</time></trkpt><trkpt lat="39.76563639484399" lon="9.102492353626362"><ele>438.6666666666667</ele><time>2026-05-01T14:08:07Z</time></trkpt><trkpt lat="39.76550575824932" lon="9.102712849528617"><ele>439.0</ele><time>2026-05-01T14:08:08Z</time></trkpt><trkpt lat="39.76535895141614" lon="9.102923332283334"><ele>439.0</ele><time>2026-05-01T14:08:09Z</time></trkpt><trkpt lat="39.765238115209215" lon="9.103162109919603"><ele>439.0</ele><time>2026-05-01T14:08:10Z</time></trkpt><trkpt lat="39.76509837044239" lon="9.103391972842415"><ele>439.0</ele><time>2026-05-01T14:08:11Z</time></trkpt><trkpt lat="39.76495799781381" lon="9.103626623987612"><ele>438.5</ele><time>2026-05-01T14:08:12Z</time></trkpt><trkpt lat="39.76481363308125" lon="9.103868228537957"><ele>438.0</ele><time>2026-05-01T14:08:13Z</time></trkpt><trkpt lat="39.76466936659095" lon="9.104111127184455"><ele>437.5</ele><time>2026-05-01T14:08:14Z</time></trkpt><trkpt lat="39.76452827198478" lon="9.104349923495043"><ele>437.0</ele><time>2026-05-01T14:08:15Z</time></trkpt><trkpt lat="39.76438453029151" lon="9.104590688071669"><ele>436.0</ele><time>2026-05-01T14:08:16Z</time></trkpt><trkpt lat="39.76424051946053" lon="9.104826791997876"><ele>435.0</ele><time>2026-05-01T14:08:17Z</time></trkpt><trkpt lat="39.76409894507025" lon="9.105066144236538"><ele>435.0</ele><time>2026-05-01T14:08:18Z</time></trkpt><trkpt lat="39.76396311902537" lon="9.10530631871126"><ele>435.0</ele><time>2026-05-01T14:08:19Z</time></trkpt><trkpt lat="39.76382976420742" lon="9.105553434989893"><ele>434.5</ele><time>2026-05-01T14:08:20Z</time></trkpt><trkpt lat="39.763688950021205" lon="9.105798318020451"><ele>434.0</ele><time>2026-05-01T14:08:21Z</time></trkpt><trkpt lat="39.76357195446103" lon="9.106060625769109"><ele>428.5</ele><time>2026-05-01T14:08:22Z</time></trkpt><trkpt lat="39.76346237706714" lon="9.106332168264384"><ele>423.0</ele><time>2026-05-01T14:08:23Z</time></trkpt><trkpt lat="39.76335665987436" lon="9.106607196021153"><ele>423.0</ele><time>2026-05-01T14:08:24Z</time></trkpt><trkpt lat="39.763251655826934" lon="9.106880368494998"><ele>423.0</ele><time>2026-05-01T14:08:25Z</time></trkpt><trkpt lat="39.763145595194274" lon="9.107156289725127"><ele>424.0</ele><time>2026-05-01T14:08:26Z</time></trkpt><trkpt lat="39.76304212003991" lon="9.107424604890605"><ele>425.0</ele><time>2026-05-01T14:08:27Z</time></trkpt><trkpt lat="39.76293587953397" lon="9.107691173134613"><ele>425.0</ele><time>2026-05-01T14:08:28Z</time></trkpt><trkpt lat="39.762839555737536" lon="9.10795783540352"><ele>425.0</ele><time>2026-05-01T14:08:29Z</time></trkpt><trkpt lat="39.76271986015488" lon="9.108210578987856"><ele>421.5</ele><time>2026-05-01T14:08:30Z</time></trkpt><trkpt lat="39.762586319139785" lon="9.108449605258981"><ele>418.0</ele><time>2026-05-01T14:08:31Z</time></trkpt><trkpt lat="39.76244439294675" lon="9.10867635912388"><ele>418.0</ele><time>2026-05-01T14:08:32Z</time></trkpt><trkpt lat="39.76229365412728" lon="9.10889998690955"><ele>418.0</ele><time>2026-05-01T14:08:33Z</time></trkpt><trkpt lat="39.762138036688" lon="9.10910953394858"><ele>416.33333333333337</ele><time>2026-05-01T14:08:34Z</time></trkpt><trkpt lat="39.76197113588168" lon="9.109302778077797"><ele>414.66666666666663</ele><time>2026-05-01T14:08:35Z</time></trkpt><trkpt lat="39.76179261523929" lon="9.109480934908591"><ele>413.0</ele><time>2026-05-01T14:08:36Z</time></trkpt><trkpt lat="39.76161099248255" lon="9.109646232995205"><ele>413.0</ele><time>2026-05-01T14:08:37Z</time></trkpt><trkpt lat="39.761422924844204" lon="9.109800402734543"><ele>413.0</ele><time>2026-05-01T14:08:38Z</time></trkpt><trkpt lat="39.76122814427992" lon="9.109943024182435"><ele>413.0</ele><time>2026-05-01T14:08:39Z</time></trkpt><trkpt lat="39.761027136937294" lon="9.110073309618345"><ele>413.0</ele><time>2026-05-01T14:08:40Z</time></trkpt><trkpt lat="39.76081155957892" lon="9.110169734490427"><ele>413.0</ele><time>2026-05-01T14:08:41Z</time></trkpt><trkpt lat="39.760611147788886" lon="9.110294839411566"><ele>413.0</ele><time>2026-05-01T14:08:42Z</time></trkpt><trkpt lat="39.760397069712305" lon="9.110394144261546"><ele>413.0</ele><time>2026-05-01T14:08:43Z</time></trkpt><trkpt lat="39.760187027189744" lon="9.110494818616234"><ele>418.0</ele><time>2026-05-01T14:08:44Z</time></trkpt><trkpt lat="39.75997490415365" lon="9.110600610251987"><ele>423.0</ele><time>2026-05-01T14:08:45Z</time></trkpt><trkpt lat="39.759762496696524" lon="9.110709583770948"><ele>422.5</ele><time>2026-05-01T14:08:46Z</time></trkpt><trkpt lat="39.759553362301546" lon="9.11082179405134"><ele>422.0</ele><time>2026-05-01T14:08:47Z</time></trkpt><trkpt lat="39.759346451391664" lon="9.11093888603976"><ele>420.66666666666663</ele><time>2026-05-01T14:08:48Z</time></trkpt><trkpt lat="39.75913207292385" lon="9.111025992964638"><ele>419.33333333333337</ele><time>2026-05-01T14:08:49Z</time></trkpt><trkpt lat="39.75892447281739" lon="9.111132268365552"><ele>418.0</ele><time>2026-05-01T14:08:50Z</time></trkpt><trkpt lat="39.758728566403796" lon="9.111240197629531"><ele>418.0</ele><time>2026-05-01T14:08:51Z</time></trkpt><trkpt lat="39.75859534662618" lon="9.111548194207202"><ele>418.0</ele><time>2026-05-01T14:08:52Z</time></trkpt><trkpt lat="39.758437505805" lon="9.111748395001927"><ele>422.0</ele><time>2026-05-01T14:08:53Z</time></trkpt><trkpt lat="39.758289199497035" lon="9.111960347407797"><ele>426.0</ele><time>2026-05-01T14:08:54Z</time></trkpt><trkpt lat="39.7581474719752" lon="9.112184293749475"><ele>430.0</ele><time>2026-05-01T14:08:55Z</time></trkpt><trkpt lat="39.75800781669025" lon="9.112406324714145"><ele>427.6666666666667</ele><time>2026-05-01T14:08:56Z</time></trkpt><trkpt lat="39.75786439896205" lon="9.112623939138205"><ele>425.33333333333337</ele><time>2026-05-01T14:08:57Z</time></trkpt><trkpt lat="39.7577356121163" lon="9.11284864265577"><ele>423.0</ele><time>2026-05-01T14:08:58Z</time></trkpt><trkpt lat="39.75762537561887" lon="9.113090007711028"><ele>431.0</ele><time>2026-05-01T14:08:59Z</time></trkpt><trkpt lat="39.75754261035559" lon="9.11334593509404"><ele>439.0</ele><time>2026-05-01T14:09:00Z</time></trkpt><trkpt lat="39.75747337011423" lon="9.113603647499593"><ele>447.0</ele><time>2026-05-01T14:09:01Z</time></trkpt><trkpt lat="39.757422715613025" lon="9.113861688386153"><ele>443.33333333333337</ele><time>2026-05-01T14:09:02Z</time></trkpt><trkpt lat="39.75737281850118" lon="9.114110705867315"><ele>439.6666666666667</ele><time>2026-05-01T14:09:03Z</time></trkpt><trkpt lat="39.75729924158081" lon="9.11434195340212"><ele>436.0</ele><time>2026-05-01T14:09:04Z</time></trkpt><trkpt lat="39.757206976966444" lon="9.11453883050496"><ele>436.0</ele><time>2026-05-01T14:09:05Z</time></trkpt><trkpt lat="39.757109490093015" lon="9.114704512817235"><ele>436.0</ele><time>2026-05-01T14:09:06Z</time></trkpt><trkpt lat="39.75699435528351" lon="9.114841592064671"><ele>436.0</ele><time>2026-05-01T14:09:07Z</time></trkpt><trkpt lat="39.75685646489006" lon="9.114934700621495"><ele>436.33333333333337</ele><time>2026-05-01T14:09:08Z</time></trkpt><trkpt lat="39.75670721386084" lon="9.114966634134625"><ele>436.66666666666663</ele><time>2026-05-01T14:09:09Z</time></trkpt><trkpt lat="39.75655536980631" lon="9.114922203613236"><ele>437.0</ele><time>2026-05-01T14:09:10Z</time></trkpt><trkpt lat="39.75640662296439" lon="9.114842353123413"><ele>446.0</ele><time>2026-05-01T14:09:11Z</time></trkpt><trkpt lat="39.756249618455854" lon="9.114789887960551"><ele>455.0</ele><time>2026-05-01T14:09:12Z</time></trkpt><trkpt lat="39.75608688625827" lon="9.114762416111063"><ele>464.0</ele><time>2026-05-01T14:09:13Z</time></trkpt><trkpt lat="39.7559267900422" lon="9.114734123245066"><ele>466.3333333333333</ele><time>2026-05-01T14:09:14Z</time></trkpt><trkpt lat="39.7557574362308" lon="9.11473375556545"><ele>468.66666666666663</ele><time>2026-05-01T14:09:15Z</time></trkpt><trkpt lat="39.75558425508793" lon="9.114747926256785"><ele>471.0</ele><time>2026-05-01T14:09:16Z</time></trkpt><trkpt lat="39.755411719978774" lon="9.114748097597792"><ele>471.0</ele><time>2026-05-01T14:09:17Z</time></trkpt><trkpt lat="39.7552457437692" lon="9.114720186319566"><ele>471.0</ele><time>2026-05-01T14:09:18Z</time></trkpt><trkpt lat="39.755096153258684" lon="9.11471123888949"><ele>471.0</ele><time>2026-05-01T14:09:19Z</time></trkpt><trkpt lat="39.754967255629104" lon="9.114773676551284"><ele>465.0</ele><time>2026-05-01T14:09:20Z</time></trkpt><trkpt lat="39.75486271138275" lon="9.114915480588614"><ele>459.0</ele><time>2026-05-01T14:09:21Z</time></trkpt><trkpt lat="39.75476476633233" lon="9.115078788803"><ele>453.0</ele><time>2026-05-01T14:09:22Z</time></trkpt><trkpt lat="39.754660857719415" lon="9.11522568272809"><ele>453.0</ele><time>2026-05-01T14:09:23Z</time></trkpt><trkpt lat="39.754543801653504" lon="9.115356425180698"><ele>453.0</ele><time>2026-05-01T14:09:24Z</time></trkpt><trkpt lat="39.75442387689397" lon="9.11546354427003"><ele>453.0</ele><time>2026-05-01T14:09:25Z</time></trkpt><trkpt lat="39.75428910508598" lon="9.115530507504717"><ele>453.0</ele><time>2026-05-01T14:09:26Z</time></trkpt><trkpt lat="39.754139452599304" lon="9.115559157407295"><ele>453.25</ele><time>2026-05-01T14:09:27Z</time></trkpt><trkpt lat="39.75399041772693" lon="9.115574593152468"><ele>453.5</ele><time>2026-05-01T14:09:28Z</time></trkpt><trkpt lat="39.75384957118714" lon="9.11563167507461"><ele>453.75</ele><time>2026-05-01T14:09:29Z</time></trkpt><trkpt lat="39.75374143459998" lon="9.11574171618501"><ele>454.0</ele><time>2026-05-01T14:09:30Z</time></trkpt><trkpt lat="39.75367697079886" lon="9.115895444682355"><ele>454.0</ele><time>2026-05-01T14:09:31Z</time></trkpt><trkpt lat="39.75366149034611" lon="9.116074872500086"><ele>454.0</ele><time>2026-05-01T14:09:32Z</time></trkpt><trkpt lat="39.75364401283718" lon="9.116235577373775"><ele>454.0</ele><time>2026-05-01T14:09:33Z</time></trkpt><trkpt lat="39.75357309767138" lon="9.116374356048786"><ele>454.0</ele><time>2026-05-01T14:09:34Z</time></trkpt><trkpt lat="39.753464933370445" lon="9.11648773826842"><ele>458.0</ele><time>2026-05-01T14:09:35Z</time></trkpt><trkpt lat="39.75333506766815" lon="9.116575802468528"><ele>462.0</ele><time>2026-05-01T14:09:36Z</time></trkpt><trkpt lat="39.75319373330521" lon="9.116648560304478"><ele>466.0</ele><time>2026-05-01T14:09:37Z</time></trkpt><trkpt lat="39.753049366498715" lon="9.11673218124295"><ele>466.0</ele><time>2026-05-01T14:09:38Z</time></trkpt><trkpt lat="39.752909553370564" lon="9.116833868346506"><ele>466.0</ele><time>2026-05-01T14:09:39Z</time></trkpt><trkpt lat="39.752780165341726" lon="9.116959827667415"><ele>466.0</ele><time>2026-05-01T14:09:40Z</time></trkpt><trkpt lat="39.75266139855321" lon="9.117108458848064"><ele>468.0</ele><time>2026-05-01T14:09:41Z</time></trkpt><trkpt lat="39.75254790157148" lon="9.11726543091846"><ele>470.0</ele><time>2026-05-01T14:09:42Z</time></trkpt><trkpt lat="39.75242903905755" lon="9.117420880749332"><ele>472.0</ele><time>2026-05-01T14:09:43Z</time></trkpt><trkpt lat="39.75230273627401" lon="9.117566385342109"><ele>472.0</ele><time>2026-05-01T14:09:44Z</time></trkpt><trkpt lat="39.75216416752406" lon="9.117675406489296"><ele>472.0</ele><time>2026-05-01T14:09:45Z</time></trkpt><trkpt lat="39.75199958683751" lon="9.11774353763543"><ele>472.0</ele><time>2026-05-01T14:09:46Z</time></trkpt><trkpt lat="39.75182917289658" lon="9.117770920942272"><ele>473.33333333333337</ele><time>2026-05-01T14:09:47Z</time></trkpt><trkpt lat="39.75165531936762" lon="9.117779627345133"><ele>474.66666666666663</ele><time>2026-05-01T14:09:48Z</time></trkpt><trkpt lat="39.7514895472346" lon="9.117776711993828"><ele>476.0</ele><time>2026-05-01T14:09:49Z</time></trkpt><trkpt lat="39.75130476826653" lon="9.117746093304758"><ele>476.0</ele><time>2026-05-01T14:09:50Z</time></trkpt><trkpt lat="39.751128456939284" lon="9.117721587466505"><ele>476.0</ele><time>2026-05-01T14:09:51Z</time></trkpt><trkpt lat="39.75095304863431" lon="9.117698622322886"><ele>476.0</ele><time>2026-05-01T14:09:52Z</time></trkpt><trkpt lat="39.750779945869986" lon="9.117672666771977"><ele>475.66666666666663</ele><time>2026-05-01T14:09:53Z</time></trkpt><trkpt lat="39.75061661916999" lon="9.11761434619867"><ele>475.33333333333337</ele><time>2026-05-01T14:09:54Z</time></trkpt><trkpt lat="39.75047070447418" lon="9.117498359424571"><ele>475.0</ele><time>2026-05-01T14:09:55Z</time></trkpt><trkpt lat="39.750330700998774" lon="9.117352426021315"><ele>476.33333333333337</ele><time>2026-05-01T14:09:56Z</time></trkpt><trkpt lat="39.75021361187626" lon="9.117192261362048"><ele>477.66666666666663</ele><time>2026-05-01T14:09:57Z</time></trkpt><trkpt lat="39.75015339864765" lon="9.116975340841236"><ele>479.0</ele><time>2026-05-01T14:09:58Z</time></trkpt><trkpt lat="39.75006898606473" lon="9.116801755214277"><ele>477.25</ele><time>2026-05-01T14:09:59Z</time></trkpt><trkpt lat="39.750000727171475" lon="9.116636732606747"><ele>475.5</ele><time>2026-05-01T14:10:00Z</time></trkpt><trkpt lat="39.749968433703366" lon="9.116473177558673"><ele>473.75</ele><time>2026-05-01T14:10:01Z</time></trkpt><trkpt lat="39.749963935628344" lon="9.11630921287629"><ele>472.0</ele><time>2026-05-01T14:10:02Z</time></trkpt><trkpt lat="39.74998390975021" lon="9.116139053582652"><ele>472.0</ele><time>2026-05-01T14:10:03Z</time></trkpt><trkpt lat="39.75003358955928" lon="9.115970190979656"><ele>472.0</ele><time>2026-05-01T14:10:04Z</time></trkpt><trkpt lat="39.75010352348175" lon="9.115809331687391"><ele>472.0</ele><time>2026-05-01T14:10:05Z</time></trkpt><trkpt lat="39.75017549514736" lon="9.115635010218876"><ele>472.0</ele><time>2026-05-01T14:10:06Z</time></trkpt><trkpt lat="39.750241388276756" lon="9.115456270876738"><ele>476.33333333333337</ele><time>2026-05-01T14:10:07Z</time></trkpt><trkpt lat="39.75030478719857" lon="9.11527371637962"><ele>480.66666666666663</ele><time>2026-05-01T14:10:08Z</time></trkpt><trkpt lat="39.750348641357114" lon="9.115079734944993"><ele>485.0</ele><time>2026-05-01T14:10:09Z</time></trkpt><trkpt lat="39.75038316525132" lon="9.11487780335355"><ele>485.3333333333333</ele><time>2026-05-01T14:10:10Z</time></trkpt><trkpt lat="39.7504059751163" lon="9.114665955684357"><ele>485.66666666666663</ele><time>2026-05-01T14:10:11Z</time></trkpt><trkpt lat="39.75043292143471" lon="9.114458939765951"><ele>486.0</ele><time>2026-05-01T14:10:12Z</time></trkpt><trkpt lat="39.75046142862509" lon="9.114251675474776"><ele>486.0</ele><time>2026-05-01T14:10:13Z</time></trkpt><trkpt lat="39.75048261488188" lon="9.114039387567464"><ele>486.0</ele><time>2026-05-01T14:10:14Z</time></trkpt><trkpt lat="39.750488218731604" lon="9.11382297404002"><ele>486.0</ele><time>2026-05-01T14:10:15Z</time></trkpt><trkpt lat="39.75048775525614" lon="9.113608051654918"><ele>486.0</ele><time>2026-05-01T14:10:16Z</time></trkpt><trkpt lat="39.75048346209007" lon="9.113398638649512"><ele>486.0</ele><time>2026-05-01T14:10:17Z</time></trkpt><trkpt lat="39.7504840720064" lon="9.113192893524806"><ele>486.0</ele><time>2026-05-01T14:10:18Z</time></trkpt><trkpt lat="39.75047486169848" lon="9.11299964324445"><ele>487.33333333333337</ele><time>2026-05-01T14:10:19Z</time></trkpt><trkpt lat="39.750437524677366" lon="9.112813350330393"><ele>488.6666666666667</ele><time>2026-05-01T14:10:20Z</time></trkpt><trkpt lat="39.75036051600615" lon="9.11264269373403"><ele>490.0</ele><time>2026-05-01T14:10:21Z</time></trkpt><trkpt lat="39.750257720933845" lon="9.11249223271498"><ele>490.6666666666667</ele><time>2026-05-01T14:10:22Z</time></trkpt><trkpt lat="39.75013685412677" lon="9.11236899430824"><ele>491.33333333333337</ele><time>2026-05-01T14:10:23Z</time></trkpt><trkpt lat="39.7500086729344" lon="9.112261838454057"><ele>492.0</ele><time>2026-05-01T14:10:24Z</time></trkpt><trkpt lat="39.74989332041501" lon="9.112134481001219"><ele>492.0</ele><time>2026-05-01T14:10:25Z</time></trkpt><trkpt lat="39.749768788836654" lon="9.112014404623633"><ele>492.0</ele><time>2026-05-01T14:10:26Z</time></trkpt><trkpt lat="39.74963344105285" lon="9.11191033169201"><ele>492.0</ele><time>2026-05-01T14:10:27Z</time></trkpt><trkpt lat="39.74951001516019" lon="9.11178445581327"><ele>492.0</ele><time>2026-05-01T14:10:28Z</time></trkpt><trkpt lat="39.74938670130266" lon="9.111657597637299"><ele>492.0</ele><time>2026-05-01T14:10:29Z</time></trkpt><trkpt lat="39.74926052477505" lon="9.111533531686396"><ele>492.0</ele><time>2026-05-01T14:10:30Z</time></trkpt><trkpt lat="39.74913320925311" lon="9.111411233029177"><ele>492.0</ele><time>2026-05-01T14:10:31Z</time></trkpt><trkpt lat="39.74900457846292" lon="9.111293211627226"><ele>492.0</ele><time>2026-05-01T14:10:32Z</time></trkpt><trkpt lat="39.748883386638894" lon="9.111160232809674"><ele>492.0</ele><time>2026-05-01T14:10:33Z</time></trkpt><trkpt lat="39.748756162898204" lon="9.111038559068664"><ele>492.0</ele><time>2026-05-01T14:10:34Z</time></trkpt><trkpt lat="39.74862752204904" lon="9.11091585164132"><ele>492.0</ele><time>2026-05-01T14:10:35Z</time></trkpt><trkpt lat="39.7484926348474" lon="9.11080886542499"><ele>492.0</ele><time>2026-05-01T14:10:36Z</time></trkpt><trkpt lat="39.74836925692801" lon="9.110684533716713"><ele>492.66666666666663</ele><time>2026-05-01T14:10:37Z</time></trkpt><trkpt lat="39.74824456955356" lon="9.110566407199943"><ele>493.3333333333333</ele><time>2026-05-01T14:10:38Z</time></trkpt><trkpt lat="39.74813030852576" lon="9.110433842881324"><ele>494.0</ele><time>2026-05-01T14:10:39Z</time></trkpt><trkpt lat="39.748007257825506" lon="9.110315417753228"><ele>494.0</ele><time>2026-05-01T14:10:40Z</time></trkpt><trkpt lat="39.74787066318237" lon="9.110219792253917"><ele>494.0</ele><time>2026-05-01T14:10:41Z</time></trkpt><trkpt lat="39.74774626888102" lon="9.110099787761925"><ele>494.0</ele><time>2026-05-01T14:10:42Z</time></trkpt><trkpt lat="39.74762297853095" lon="9.109980523090842"><ele>494.66666666666663</ele><time>2026-05-01T14:10:43Z</time></trkpt><trkpt lat="39.747499039342394" lon="9.109862192861927"><ele>495.33333333333337</ele><time>2026-05-01T14:10:44Z</time></trkpt><trkpt lat="39.74737456929563" lon="9.109742566935724"><ele>496.0</ele><time>2026-05-01T14:10:45Z</time></trkpt><trkpt lat="39.74725009072908" lon="9.109623445886598"><ele>496.0</ele><time>2026-05-01T14:10:46Z</time></trkpt><trkpt lat="39.74713938633409" lon="9.109484401544876"><ele>496.0</ele><time>2026-05-01T14:10:47Z</time></trkpt><trkpt lat="39.74702148354792" lon="9.109372156125753"><ele>496.0</ele><time>2026-05-01T14:10:48Z</time></trkpt><trkpt lat="39.746910433895714" lon="9.109262414857003"><ele>496.0</ele><time>2026-05-01T14:10:49Z</time></trkpt><trkpt lat="39.74681761006868" lon="9.109154441083835"><ele>497.0</ele><time>2026-05-01T14:10:50Z</time></trkpt><trkpt lat="39.74673125916264" lon="9.109047209353578"><ele>498.0</ele><time>2026-05-01T14:10:51Z</time></trkpt><trkpt lat="39.74665814058948" lon="9.108947007459728"><ele>499.0</ele><time>2026-05-01T14:10:52Z</time></trkpt><trkpt lat="39.74660375467024" lon="9.108835208014026"><ele>500.0</ele><time>2026-05-01T14:10:53Z</time></trkpt><trkpt lat="39.746566896460926" lon="9.108704474666027"><ele>501.0</ele><time>2026-05-01T14:10:54Z</time></trkpt><trkpt lat="39.74653994185531" lon="9.108558828473402"><ele>501.0</ele><time>2026-05-01T14:10:55Z</time></trkpt><trkpt lat="39.746506863633456" lon="9.108418783943756"><ele>501.0</ele><time>2026-05-01T14:10:56Z</time></trkpt><trkpt lat="39.74649503685608" lon="9.108264464412015"><ele>501.0</ele><time>2026-05-01T14:10:57Z</time></trkpt><trkpt lat="39.746467502961224" lon="9.108115170310278"><ele>501.0</ele><time>2026-05-01T14:10:58Z</time></trkpt><trkpt lat="39.74643356316703" lon="9.107972302798593"><ele>501.25</ele><time>2026-05-01T14:10:59Z</time></trkpt><trkpt lat="39.74638189994795" lon="9.107832902725049"><ele>501.5</ele><time>2026-05-01T14:11:00Z</time></trkpt><trkpt lat="39.74631993135923" lon="9.107698912308134"><ele>501.75</ele><time>2026-05-01T14:11:01Z</time></trkpt><trkpt lat="39.74624839842017" lon="9.107571174292532"><ele>502.0</ele><time>2026-05-01T14:11:02Z</time></trkpt><trkpt lat="39.74617219243124" lon="9.107446917585994"><ele>502.0</ele><time>2026-05-01T14:11:03Z</time></trkpt><trkpt lat="39.746079450741604" lon="9.107340515457018"><ele>502.0</ele><time>2026-05-01T14:11:04Z</time></trkpt><trkpt lat="39.745979959276106" lon="9.107247274755021"><ele>502.0</ele><time>2026-05-01T14:11:05Z</time></trkpt><trkpt lat="39.74587973471339" lon="9.107160487332491"><ele>502.0</ele><time>2026-05-01T14:11:06Z</time></trkpt><trkpt lat="39.74575962752876" lon="9.107132990145754"><ele>502.6</ele><time>2026-05-01T14:11:07Z</time></trkpt><trkpt lat="39.74564784371278" lon="9.107104702026502"><ele>503.20000000000005</ele><time>2026-05-01T14:11:08Z</time></trkpt><trkpt lat="39.74553653165535" lon="9.107080649047216"><ele>503.8</ele><time>2026-05-01T14:11:09Z</time></trkpt><trkpt lat="39.745430581902696" lon="9.107047798248848"><ele>504.4</ele><time>2026-05-01T14:11:10Z</time></trkpt><trkpt lat="39.74532560532622" lon="9.107033098639906"><ele>505.0</ele><time>2026-05-01T14:11:11Z</time></trkpt><trkpt lat="39.7452217252256" lon="9.107038335350456"><ele>505.8</ele><time>2026-05-01T14:11:12Z</time></trkpt><trkpt lat="39.745116600918344" lon="9.107023538543002"><ele>506.6</ele><time>2026-05-01T14:11:13Z</time></trkpt><trkpt lat="39.745011002804475" lon="9.10700568569941"><ele>507.4</ele><time>2026-05-01T14:11:14Z</time></trkpt><trkpt lat="39.74490402374822" lon="9.106989228424885"><ele>508.2</ele><time>2026-05-01T14:11:15Z</time></trkpt><trkpt lat="39.74479288875354" lon="9.106975964959549"><ele>509.0</ele><time>2026-05-01T14:11:16Z</time></trkpt><trkpt lat="39.744682241049034" lon="9.106938570136794"><ele>509.0</ele><time>2026-05-01T14:11:17Z</time></trkpt><trkpt lat="39.74456744325095" lon="9.106921877187853"><ele>509.0</ele><time>2026-05-01T14:11:18Z</time></trkpt><trkpt lat="39.744454290552" lon="9.106904441760255"><ele>509.0</ele><time>2026-05-01T14:11:19Z</time></trkpt><trkpt lat="39.74433775594957" lon="9.106887864983381"><ele>509.0</ele><time>2026-05-01T14:11:20Z</time></trkpt><trkpt lat="39.744228041864645" lon="9.106872786534701"><ele>509.3333333333333</ele><time>2026-05-01T14:11:21Z</time></trkpt><trkpt lat="39.74412772597304" lon="9.106859014149714"><ele>509.66666666666663</ele><time>2026-05-01T14:11:22Z</time></trkpt><trkpt lat="39.7440413191901" lon="9.106847733958864"><ele>510.0</ele><time>2026-05-01T14:11:23Z</time></trkpt><trkpt lat="39.74395635313526" lon="9.106832601516631"><ele>510.33333333333337</ele><time>2026-05-01T14:11:24Z</time></trkpt><trkpt lat="39.74387845886669" lon="9.106811004903898"><ele>510.6666666666667</ele><time>2026-05-01T14:11:25Z</time></trkpt><trkpt lat="39.74380616087343" lon="9.10677945663729"><ele>511.0</ele><time>2026-05-01T14:11:26Z</time></trkpt><trkpt lat="39.743728992285746" lon="9.106730784792232"><ele>511.0</ele><time>2026-05-01T14:11:27Z</time></trkpt><trkpt lat="39.74365057782336" lon="9.10666977295629"><ele>511.0</ele><time>2026-05-01T14:11:28Z</time></trkpt><trkpt lat="39.743567625696635" lon="9.10661031109423"><ele>511.0</ele><time>2026-05-01T14:11:29Z</time></trkpt><trkpt lat="39.74348030420007" lon="9.106546601616623"><ele>511.0</ele><time>2026-05-01T14:11:30Z</time></trkpt><trkpt lat="39.743401109675254" lon="9.106476501927078"><ele>511.0</ele><time>2026-05-01T14:11:31Z</time></trkpt><trkpt lat="39.74332508549548" lon="9.106408874197122"><ele>511.4</ele><time>2026-05-01T14:11:32Z</time></trkpt><trkpt lat="39.74325919922845" lon="9.106344552832082"><ele>511.8</ele><time>2026-05-01T14:11:33Z</time></trkpt><trkpt lat="39.74320485854255" lon="9.106270624613735"><ele>512.1999999999999</ele><time>2026-05-01T14:11:34Z</time></trkpt><trkpt lat="39.743156179600646" lon="9.106182626894004"><ele>512.6</ele><time>2026-05-01T14:11:35Z</time></trkpt><trkpt lat="39.74309404408146" lon="9.106080427358819"><ele>513.0</ele><time>2026-05-01T14:11:36Z</time></trkpt><trkpt lat="39.74301122757906" lon="9.10599403983859"><ele>513.0</ele><time>2026-05-01T14:11:37Z</time></trkpt><trkpt lat="39.74291423538156" lon="9.105932265166647"><ele>513.0</ele><time>2026-05-01T14:11:38Z</time></trkpt><trkpt lat="39.74283246716712" lon="9.105847550001698"><ele>513.0</ele><time>2026-05-01T14:11:39Z</time></trkpt><trkpt lat="39.7427380241494" lon="9.10577397463415"><ele>513.0</ele><time>2026-05-01T14:11:40Z</time></trkpt><trkpt lat="39.74263269191871" lon="9.105720064134303"><ele>513.0</ele><time>2026-05-01T14:11:41Z</time></trkpt><trkpt lat="39.74252345852374" lon="9.105698682375879"><ele>510.79999999999995</ele><time>2026-05-01T14:11:42Z</time></trkpt><trkpt lat="39.74242259646085" lon="9.105678573497787"><ele>508.59999999999997</ele><time>2026-05-01T14:11:43Z</time></trkpt><trkpt lat="39.742322749660616" lon="9.10566154342159"><ele>506.40000000000003</ele><time>2026-05-01T14:11:44Z</time></trkpt><trkpt lat="39.74222741553569" lon="9.105650280508714"><ele>504.20000000000005</ele><time>2026-05-01T14:11:45Z</time></trkpt><trkpt lat="39.74213518448976" lon="9.105654381396663"><ele>502.0</ele><time>2026-05-01T14:11:46Z</time></trkpt><trkpt lat="39.74205611848068" lon="9.105716248603958"><ele>503.6666666666667</ele><time>2026-05-01T14:11:47Z</time></trkpt><trkpt lat="39.74199392953432" lon="9.1058073551178"><ele>505.33333333333337</ele><time>2026-05-01T14:11:48Z</time></trkpt><trkpt lat="39.741945222686944" lon="9.105903602052207"><ele>507.0</ele><time>2026-05-01T14:11:49Z</time></trkpt><trkpt lat="39.74189715443124" lon="9.105997597508836"><ele>508.66666666666663</ele><time>2026-05-01T14:11:50Z</time></trkpt><trkpt lat="39.74184948493498" lon="9.106090412926266"><ele>510.3333333333333</ele><time>2026-05-01T14:11:51Z</time></trkpt><trkpt lat="39.74179910661835" lon="9.106187677277083"><ele>512.0</ele><time>2026-05-01T14:11:52Z</time></trkpt><trkpt lat="39.741766740385295" lon="9.106301538357718"><ele>512.2</ele><time>2026-05-01T14:11:53Z</time></trkpt><trkpt lat="39.74170857325819" lon="9.106399152586938"><ele>512.4000000000001</ele><time>2026-05-01T14:11:54Z</time></trkpt><trkpt lat="39.741658357270516" lon="9.106503129612147"><ele>512.5999999999999</ele><time>2026-05-01T14:11:55Z</time></trkpt><trkpt lat="39.741609574827116" lon="9.10660998110352"><ele>512.8</ele><time>2026-05-01T14:11:56Z</time></trkpt><trkpt lat="39.741559880147186" lon="9.10672462688465"><ele>513.0</ele><time>2026-05-01T14:11:57Z</time></trkpt><trkpt lat="39.741507216125854" lon="9.106837495397228"><ele>513.1999999999999</ele><time>2026-05-01T14:11:58Z</time></trkpt><trkpt lat="39.741444227075085" lon="9.106953248664984"><ele>513.4</ele><time>2026-05-01T14:11:59Z</time></trkpt><trkpt lat="39.74139192582489" lon="9.107072638355469"><ele>513.5999999999999</ele><time>2026-05-01T14:12:00Z</time></trkpt><trkpt lat="39.74133619224068" lon="9.107187843387152"><ele>513.8</ele><time>2026-05-01T14:12:01Z</time></trkpt><trkpt lat="39.74127840695808" lon="9.107300976107576"><ele>514.0</ele><time>2026-05-01T14:12:02Z</time></trkpt><trkpt lat="39.74122359726875" lon="9.107417012521195"><ele>513.6</ele><time>2026-05-01T14:12:03Z</time></trkpt><trkpt lat="39.7411656665337" lon="9.107532046998024"><ele>513.2</ele><time>2026-05-01T14:12:04Z</time></trkpt><trkpt lat="39.74110658302639" lon="9.107647291114302"><ele>512.8000000000001</ele><time>2026-05-01T14:12:05Z</time></trkpt><trkpt lat="39.741050708683" lon="9.107762328190747"><ele>512.4</ele><time>2026-05-01T14:12:06Z</time></trkpt><trkpt lat="39.740988263983375" lon="9.10787839948279"><ele>512.0</ele><time>2026-05-01T14:12:07Z</time></trkpt><trkpt lat="39.74092967278204" lon="9.107993906507112"><ele>511.8</ele><time>2026-05-01T14:12:08Z</time></trkpt><trkpt lat="39.740870504205205" lon="9.108099438260263"><ele>511.6</ele><time>2026-05-01T14:12:09Z</time></trkpt><trkpt lat="39.74079451575634" lon="9.108192734377445"><ele>511.40000000000003</ele><time>2026-05-01T14:12:10Z</time></trkpt><trkpt lat="39.740737325333484" lon="9.10830562645819"><ele>511.20000000000005</ele><time>2026-05-01T14:12:11Z</time></trkpt><trkpt lat="39.74068293038308" lon="9.108414536351289"><ele>511.0</ele><time>2026-05-01T14:12:12Z</time></trkpt><trkpt lat="39.74064534915987" lon="9.108534403222214"><ele>510.8</ele><time>2026-05-01T14:12:13Z</time></trkpt><trkpt lat="39.74059174440568" lon="9.108644124691997"><ele>510.6</ele><time>2026-05-01T14:12:14Z</time></trkpt><trkpt lat="39.74053788908249" lon="9.10875126780628"><ele>510.4</ele><time>2026-05-01T14:12:15Z</time></trkpt><trkpt lat="39.74048482436846" lon="9.108860204968057"><ele>510.2</ele><time>2026-05-01T14:12:16Z</time></trkpt><trkpt lat="39.740410125539356" lon="9.108951338402113"><ele>510.0</ele><time>2026-05-01T14:12:17Z</time></trkpt><trkpt lat="39.74035518033982" lon="9.109059617597882"><ele>509.8</ele><time>2026-05-01T14:12:18Z</time></trkpt><trkpt lat="39.740301680834186" lon="9.109165047819522"><ele>509.6</ele><time>2026-05-01T14:12:19Z</time></trkpt><trkpt lat="39.74024409974294" lon="9.109278521840425"><ele>509.4</ele><time>2026-05-01T14:12:20Z</time></trkpt><trkpt lat="39.74019640184008" lon="9.109398524008459"><ele>509.2</ele><time>2026-05-01T14:12:21Z</time></trkpt><trkpt lat="39.74014068430668" lon="9.109511392488715"><ele>509.0</ele><time>2026-05-01T14:12:22Z</time></trkpt><trkpt lat="39.740077835638914" lon="9.10963796089353"><ele>508.79999999999995</ele><time>2026-05-01T14:12:23Z</time></trkpt><trkpt lat="39.74002398700064" lon="9.109752895092386"><ele>508.59999999999997</ele><time>2026-05-01T14:12:24Z</time></trkpt><trkpt lat="39.73996424919581" lon="9.109875214262349"><ele>508.4</ele><time>2026-05-01T14:12:25Z</time></trkpt><trkpt lat="39.739888193318706" lon="9.10998964429695"><ele>508.2</ele><time>2026-05-01T14:12:26Z</time></trkpt><trkpt lat="39.73982385670791" lon="9.11011835749205"><ele>508.0</ele><time>2026-05-01T14:12:27Z</time></trkpt><trkpt lat="39.7397578816592" lon="9.110249388940419"><ele>508.0</ele><time>2026-05-01T14:12:28Z</time></trkpt><trkpt lat="39.73970090543417" lon="9.110398950413336"><ele>508.0</ele><time>2026-05-01T14:12:29Z</time></trkpt><trkpt lat="39.73961824949327" lon="9.110521755727802"><ele>508.0</ele><time>2026-05-01T14:12:30Z</time></trkpt><trkpt lat="39.73954808772008" lon="9.110658613427841"><ele>508.0</ele><time>2026-05-01T14:12:31Z</time></trkpt><trkpt lat="39.73948015038856" lon="9.110791132111169"><ele>508.0</ele><time>2026-05-01T14:12:32Z</time></trkpt><trkpt lat="39.739413739606874" lon="9.110921628851273"><ele>508.0</ele><time>2026-05-01T14:12:33Z</time></trkpt><trkpt lat="39.73934896762068" lon="9.111051353174192"><ele>508.0</ele><time>2026-05-01T14:12:34Z</time></trkpt><trkpt lat="39.739283695136685" lon="9.111182354580553"><ele>508.0</ele><time>2026-05-01T14:12:35Z</time></trkpt><trkpt lat="39.73921789792325" lon="9.111314409125148"><ele>507.75</ele><time>2026-05-01T14:12:36Z</time></trkpt><trkpt lat="39.739150608129336" lon="9.111449283745678"><ele>507.5</ele><time>2026-05-01T14:12:37Z</time></trkpt><trkpt lat="39.73913623896184" lon="9.111632823453897"><ele>507.25</ele><time>2026-05-01T14:12:38Z</time></trkpt><trkpt lat="39.73907700237346" lon="9.111781842516372"><ele>507.0</ele><time>2026-05-01T14:12:39Z</time></trkpt><trkpt lat="39.73898612921468" lon="9.111856179069923"><ele>506.75</ele><time>2026-05-01T14:12:40Z</time></trkpt><trkpt lat="39.73891771904735" lon="9.11198081379876"><ele>506.5</ele><time>2026-05-01T14:12:41Z</time></trkpt><trkpt lat="39.73883324845201" lon="9.112089131513702"><ele>506.25</ele><time>2026-05-01T14:12:42Z</time></trkpt><trkpt lat="39.738776278419174" lon="9.112212332519652"><ele>506.0</ele><time>2026-05-01T14:12:43Z</time></trkpt><trkpt lat="39.73871363088182" lon="9.11240287180363"><ele>505.75</ele><time>2026-05-01T14:12:44Z</time></trkpt><trkpt lat="39.738634073776" lon="9.112547191509162"><ele>505.5</ele><time>2026-05-01T14:12:45Z</time></trkpt><trkpt lat="39.738567755441856" lon="9.112667856945967"><ele>505.25</ele><time>2026-05-01T14:12:46Z</time></trkpt><trkpt lat="39.73848258357971" lon="9.112795395552512"><ele>505.0</ele><time>2026-05-01T14:12:47Z</time></trkpt><trkpt lat="39.738410798352774" lon="9.11293904025569"><ele>505.0</ele><time>2026-05-01T14:12:48Z</time></trkpt><trkpt lat="39.73833786677106" lon="9.113084557761937"><ele>505.0</ele><time>2026-05-01T14:12:49Z</time></trkpt><trkpt lat="39.73826391322134" lon="9.11323209814714"><ele>505.0</ele><time>2026-05-01T14:12:50Z</time></trkpt><trkpt lat="39.73818946386143" lon="9.113380130027068"><ele>505.0</ele><time>2026-05-01T14:12:51Z</time></trkpt><trkpt lat="39.73812918161884" lon="9.1135387098519"><ele>505.0</ele><time>2026-05-01T14:12:52Z</time></trkpt><trkpt lat="39.738041345780196" lon="9.113674506340567"><ele>505.0</ele><time>2026-05-01T14:12:53Z</time></trkpt><trkpt lat="39.73797780932748" lon="9.113831284017675"><ele>505.0</ele><time>2026-05-01T14:12:54Z</time></trkpt><trkpt lat="39.73790567135485" lon="9.113977991908225"><ele>505.0</ele><time>2026-05-01T14:12:55Z</time></trkpt><trkpt lat="39.737817868516764" lon="9.114113829420035"><ele>504.5</ele><time>2026-05-01T14:12:56Z</time></trkpt><trkpt lat="39.73775872959234" lon="9.114261754260498"><ele>504.0</ele><time>2026-05-01T14:12:57Z</time></trkpt><trkpt lat="39.737687459135536" lon="9.11440733160868"><ele>503.5</ele><time>2026-05-01T14:12:58Z</time></trkpt><trkpt lat="39.73759964892842" lon="9.114543754711137"><ele>503.0</ele><time>2026-05-01T14:12:59Z</time></trkpt><trkpt lat="39.737534972712666" lon="9.114703876057773"><ele>503.75</ele><time>2026-05-01T14:13:00Z</time></trkpt><trkpt lat="39.73745152458163" lon="9.114853070073915"><ele>504.5</ele><time>2026-05-01T14:13:01Z</time></trkpt><trkpt lat="39.73736590561593" lon="9.115006014068094"><ele>505.25</ele><time>2026-05-01T14:13:02Z</time></trkpt><trkpt lat="39.737281528487394" lon="9.115162149618776"><ele>506.0</ele><time>2026-05-01T14:13:03Z</time></trkpt><trkpt lat="39.73720528676495" lon="9.115319753472937"><ele>506.0</ele><time>2026-05-01T14:13:04Z</time></trkpt><trkpt lat="39.737131863504274" lon="9.115491064906445"><ele>506.0</ele><time>2026-05-01T14:13:05Z</time></trkpt><trkpt lat="39.73706270247439" lon="9.115672821807323"><ele>506.0</ele><time>2026-05-01T14:13:06Z</time></trkpt><trkpt lat="39.73700589896208" lon="9.115867525508172"><ele>505.3333333333333</ele><time>2026-05-01T14:13:07Z</time></trkpt><trkpt lat="39.73695556290982" lon="9.116069403624083"><ele>504.66666666666663</ele><time>2026-05-01T14:13:08Z</time></trkpt><trkpt lat="39.736917522000915" lon="9.116281862267405"><ele>504.0</ele><time>2026-05-01T14:13:09Z</time></trkpt><trkpt lat="39.73688653492944" lon="9.11650145781084"><ele>504.33333333333337</ele><time>2026-05-01T14:13:10Z</time></trkpt><trkpt lat="39.73686607237685" lon="9.116717024839982"><ele>504.6666666666667</ele><time>2026-05-01T14:13:11Z</time></trkpt><trkpt lat="39.736856228025715" lon="9.116928234909283"><ele>505.0</ele><time>2026-05-01T14:13:12Z</time></trkpt><trkpt lat="39.73685313588922" lon="9.117143642194927"><ele>505.0</ele><time>2026-05-01T14:13:13Z</time></trkpt><trkpt lat="39.736846876700504" lon="9.11735988480804"><ele>505.0</ele><time>2026-05-01T14:13:14Z</time></trkpt><trkpt lat="39.73683881119048" lon="9.117576067882274"><ele>505.0</ele><time>2026-05-01T14:13:15Z</time></trkpt><trkpt lat="39.73683179055388" lon="9.117791688933034"><ele>505.33333333333337</ele><time>2026-05-01T14:13:16Z</time></trkpt><trkpt lat="39.73682434747164" lon="9.118007935726185"><ele>505.66666666666663</ele><time>2026-05-01T14:13:17Z</time></trkpt><trkpt lat="39.73681937689089" lon="9.118227395434884"><ele>506.0</ele><time>2026-05-01T14:13:18Z</time></trkpt><trkpt lat="39.736810715845166" lon="9.11844122892077"><ele>506.0</ele><time>2026-05-01T14:13:19Z</time></trkpt><trkpt lat="39.736799265778735" lon="9.118657376404242"><ele>506.0</ele><time>2026-05-01T14:13:20Z</time></trkpt><trkpt lat="39.73676838519224" lon="9.11887104171658"><ele>506.0</ele><time>2026-05-01T14:13:21Z</time></trkpt><trkpt lat="39.736737244894684" lon="9.119084671014525"><ele>506.3333333333333</ele><time>2026-05-01T14:13:22Z</time></trkpt><trkpt lat="39.73668688678185" lon="9.119291353339682"><ele>506.66666666666663</ele><time>2026-05-01T14:13:23Z</time></trkpt><trkpt lat="39.73662245645414" lon="9.119496909042903"><ele>507.0</ele><time>2026-05-01T14:13:24Z</time></trkpt><trkpt lat="39.73654013930092" lon="9.119685444228269"><ele>507.0</ele><time>2026-05-01T14:13:25Z</time></trkpt><trkpt lat="39.73644498536906" lon="9.11987582747352"><ele>507.0</ele><time>2026-05-01T14:13:26Z</time></trkpt><trkpt lat="39.73634261356176" lon="9.12005136285032"><ele>507.0</ele><time>2026-05-01T14:13:27Z</time></trkpt><trkpt lat="39.736237613912316" lon="9.120222093737846"><ele>506.66666666666663</ele><time>2026-05-01T14:13:28Z</time></trkpt><trkpt lat="39.73613378224866" lon="9.12039302986681"><ele>506.3333333333333</ele><time>2026-05-01T14:13:29Z</time></trkpt><trkpt lat="39.7360268473218" lon="9.120560713394964"><ele>506.0</ele><time>2026-05-01T14:13:30Z</time></trkpt><trkpt lat="39.73591407454613" lon="9.120722516441093"><ele>505.3333333333333</ele><time>2026-05-01T14:13:31Z</time></trkpt><trkpt lat="39.73579088073606" lon="9.1208754333399"><ele>504.66666666666663</ele><time>2026-05-01T14:13:32Z</time></trkpt><trkpt lat="39.73566230459078" lon="9.121018903841906"><ele>504.0</ele><time>2026-05-01T14:13:33Z</time></trkpt><trkpt lat="39.73553219363896" lon="9.121157438837988"><ele>504.0</ele><time>2026-05-01T14:13:34Z</time></trkpt><trkpt lat="39.7353986536168" lon="9.121301105818791"><ele>504.0</ele><time>2026-05-01T14:13:35Z</time></trkpt><trkpt lat="39.73526420312997" lon="9.121442053195677"><ele>504.0</ele><time>2026-05-01T14:13:36Z</time></trkpt><trkpt lat="39.73512716761063" lon="9.121585074543068"><ele>504.0</ele><time>2026-05-01T14:13:37Z</time></trkpt><trkpt lat="39.734988933404495" lon="9.12172853108409"><ele>504.0</ele><time>2026-05-01T14:13:38Z</time></trkpt><trkpt lat="39.73485058119134" lon="9.121872244605617"><ele>504.0</ele><time>2026-05-01T14:13:39Z</time></trkpt><trkpt lat="39.73471177139874" lon="9.122019731601688"><ele>504.0</ele><time>2026-05-01T14:13:40Z</time></trkpt><trkpt lat="39.73456857497501" lon="9.1221637343208"><ele>504.0</ele><time>2026-05-01T14:13:41Z</time></trkpt><trkpt lat="39.73442697136047" lon="9.122311472788478"><ele>504.0</ele><time>2026-05-01T14:13:42Z</time></trkpt><trkpt lat="39.7342876871541" lon="9.122457598188946"><ele>503.33333333333337</ele><time>2026-05-01T14:13:43Z</time></trkpt><trkpt lat="39.73414571102018" lon="9.122607905415567"><ele>502.6666666666667</ele><time>2026-05-01T14:13:44Z</time></trkpt><trkpt lat="39.734004568644956" lon="9.122752799493085"><ele>502.0</ele><time>2026-05-01T14:13:45Z</time></trkpt><trkpt lat="39.733863545897684" lon="9.122897154473167"><ele>502.0</ele><time>2026-05-01T14:13:46Z</time></trkpt><trkpt lat="39.73371025802801" lon="9.123026921708542"><ele>502.0</ele><time>2026-05-01T14:13:47Z</time></trkpt><trkpt lat="39.73356722286842" lon="9.12317518883493"><ele>502.0</ele><time>2026-05-01T14:13:48Z</time></trkpt><trkpt lat="39.733437305393885" lon="9.123335559613452"><ele>501.33333333333337</ele><time>2026-05-01T14:13:49Z</time></trkpt><trkpt lat="39.73329569821583" lon="9.123482538250409"><ele>500.66666666666663</ele><time>2026-05-01T14:13:50Z</time></trkpt><trkpt lat="39.73314143390909" lon="9.123616071806063"><ele>500.0</ele><time>2026-05-01T14:13:51Z</time></trkpt><trkpt lat="39.73299894426814" lon="9.123763751189166"><ele>500.0</ele><time>2026-05-01T14:13:52Z</time></trkpt><trkpt lat="39.732855363624594" lon="9.123916524299519"><ele>500.0</ele><time>2026-05-01T14:13:53Z</time></trkpt><trkpt lat="39.732729395477214" lon="9.124087071676525"><ele>500.0</ele><time>2026-05-01T14:13:54Z</time></trkpt><trkpt lat="39.73260736805424" lon="9.12426761322026"><ele>500.3333333333333</ele><time>2026-05-01T14:13:55Z</time></trkpt><trkpt lat="39.732525058818695" lon="9.124486316743287"><ele>500.66666666666663</ele><time>2026-05-01T14:13:56Z</time></trkpt><trkpt lat="39.73247685839354" lon="9.12471123159417"><ele>501.0</ele><time>2026-05-01T14:13:57Z</time></trkpt><trkpt lat="39.732458927639875" lon="9.124925524141917"><ele>499.75</ele><time>2026-05-01T14:13:58Z</time></trkpt><trkpt lat="39.73241549082958" lon="9.125107881110797"><ele>498.5</ele><time>2026-05-01T14:13:59Z</time></trkpt><trkpt lat="39.73232885241326" lon="9.125251955547949"><ele>497.25</ele><time>2026-05-01T14:14:00Z</time></trkpt><trkpt lat="39.732217770689026" lon="9.12537382475078"><ele>496.0</ele><time>2026-05-01T14:14:01Z</time></trkpt><trkpt lat="39.73207833562625" lon="9.125436071041184"><ele>496.0</ele><time>2026-05-01T14:14:02Z</time></trkpt><trkpt lat="39.73191786082196" lon="9.125388185397396"><ele>496.0</ele><time>2026-05-01T14:14:03Z</time></trkpt><trkpt lat="39.73176059440298" lon="9.125416378196876"><ele>496.0</ele><time>2026-05-01T14:14:04Z</time></trkpt><trkpt lat="39.73161205576549" lon="9.125457536557432"><ele>496.6666666666667</ele><time>2026-05-01T14:14:05Z</time></trkpt><trkpt lat="39.73147307129287" lon="9.125550133268288"><ele>497.33333333333337</ele><time>2026-05-01T14:14:06Z</time></trkpt><trkpt lat="39.731362354065" lon="9.125691986429366"><ele>498.0</ele><time>2026-05-01T14:14:07Z</time></trkpt><trkpt lat="39.73130101620139" lon="9.125879982044808"><ele>496.0</ele><time>2026-05-01T14:14:08Z</time></trkpt><trkpt lat="39.7312966394582" lon="9.12607236347269"><ele>494.0</ele><time>2026-05-01T14:14:09Z</time></trkpt><trkpt lat="39.73135249692082" lon="9.126255805235907"><ele>492.0</ele><time>2026-05-01T14:14:10Z</time></trkpt><trkpt lat="39.731451575006425" lon="9.126418077200952"><ele>491.0</ele><time>2026-05-01T14:14:11Z</time></trkpt><trkpt lat="39.73157077686481" lon="9.126574402470403"><ele>490.0</ele><time>2026-05-01T14:14:12Z</time></trkpt><trkpt lat="39.73169353170173" lon="9.126735340665167"><ele>489.0</ele><time>2026-05-01T14:14:13Z</time></trkpt><trkpt lat="39.73182081240872" lon="9.126905082685921"><ele>487.33333333333337</ele><time>2026-05-01T14:14:14Z</time></trkpt><trkpt lat="39.731954807842804" lon="9.12706611972607"><ele>485.6666666666667</ele><time>2026-05-01T14:14:15Z</time></trkpt><trkpt lat="39.73209334001265" lon="9.12721358934063"><ele>484.0</ele><time>2026-05-01T14:14:16Z</time></trkpt><trkpt lat="39.732232817436994" lon="9.127356324594468"><ele>484.33333333333337</ele><time>2026-05-01T14:14:17Z</time></trkpt><trkpt lat="39.732373380308715" lon="9.127475447362064"><ele>484.66666666666663</ele><time>2026-05-01T14:14:18Z</time></trkpt><trkpt lat="39.73252906373405" lon="9.12754747136887"><ele>485.0</ele><time>2026-05-01T14:14:19Z</time></trkpt><trkpt lat="39.73269005756383" lon="9.12756467478312"><ele>484.25</ele><time>2026-05-01T14:14:20Z</time></trkpt><trkpt lat="39.73284490158232" lon="9.127555935226113"><ele>483.5</ele><time>2026-05-01T14:14:21Z</time></trkpt><trkpt lat="39.732975522879585" lon="9.127558165332047"><ele>482.75</ele><time>2026-05-01T14:14:22Z</time></trkpt><trkpt lat="39.73308374456471" lon="9.1276064324404"><ele>482.0</ele><time>2026-05-01T14:14:23Z</time></trkpt><trkpt lat="39.7331752488476" lon="9.127686231461183"><ele>482.0</ele><time>2026-05-01T14:14:24Z</time></trkpt><trkpt lat="39.73323938588642" lon="9.12780657896705"><ele>482.0</ele><time>2026-05-01T14:14:25Z</time></trkpt><trkpt lat="39.73326293909177" lon="9.127961898788419"><ele>482.0</ele><time>2026-05-01T14:14:26Z</time></trkpt><trkpt lat="39.733213747898" lon="9.128126313350657"><ele>482.0</ele><time>2026-05-01T14:14:27Z</time></trkpt><trkpt lat="39.7331749302181" lon="9.12830636513391"><ele>481.66666666666663</ele><time>2026-05-01T14:14:28Z</time></trkpt><trkpt lat="39.73311330677368" lon="9.12848356706151"><ele>481.33333333333337</ele><time>2026-05-01T14:14:29Z</time></trkpt><trkpt lat="39.73305632030761" lon="9.128676162128414"><ele>481.0</ele><time>2026-05-01T14:14:30Z</time></trkpt><trkpt lat="39.73300001606285" lon="9.128876185088115"><ele>479.33333333333337</ele><time>2026-05-01T14:14:31Z</time></trkpt><trkpt lat="39.73294446942454" lon="9.129074959628511"><ele>477.66666666666663</ele><time>2026-05-01T14:14:32Z</time></trkpt><trkpt lat="39.73288743289385" lon="9.129280019165977"><ele>476.0</ele><time>2026-05-01T14:14:33Z</time></trkpt><trkpt lat="39.73282524272603" lon="9.129490644753428"><ele>476.0</ele><time>2026-05-01T14:14:34Z</time></trkpt><trkpt lat="39.73276357863991" lon="9.129699363684766"><ele>476.0</ele><time>2026-05-01T14:14:35Z</time></trkpt><trkpt lat="39.73272076627462" lon="9.12991286460085"><ele>476.0</ele><time>2026-05-01T14:14:36Z</time></trkpt><trkpt lat="39.732701593468526" lon="9.130131356165728"><ele>476.0</ele><time>2026-05-01T14:14:37Z</time></trkpt><trkpt lat="39.73268909533642" lon="9.13034898429878"><ele>476.0</ele><time>2026-05-01T14:14:38Z</time></trkpt><trkpt lat="39.7326617807264" lon="9.13056381645056"><ele>476.0</ele><time>2026-05-01T14:14:39Z</time></trkpt><trkpt lat="39.732582365868275" lon="9.130751489328865"><ele>476.0</ele><time>2026-05-01T14:14:40Z</time></trkpt><trkpt lat="39.732487003552" lon="9.13092145589083"><ele>476.0</ele><time>2026-05-01T14:14:41Z</time></trkpt><trkpt lat="39.7323532367208" lon="9.13102453124504"><ele>476.0</ele><time>2026-05-01T14:14:42Z</time></trkpt><trkpt lat="39.73222641056812" lon="9.131138275723988"><ele>476.0</ele><time>2026-05-01T14:14:43Z</time></trkpt><trkpt lat="39.732134288927604" lon="9.131276508889687"><ele>476.0</ele><time>2026-05-01T14:14:44Z</time></trkpt><trkpt lat="39.73206672852374" lon="9.131434865731194"><ele>476.0</ele><time>2026-05-01T14:14:45Z</time></trkpt><trkpt lat="39.73204598668699" lon="9.131625527421635"><ele>476.0</ele><time>2026-05-01T14:14:46Z</time></trkpt><trkpt lat="39.732066078555924" lon="9.131827877490519"><ele>474.66666666666663</ele><time>2026-05-01T14:14:47Z</time></trkpt><trkpt lat="39.732120613938896" lon="9.132023457724953"><ele>473.33333333333337</ele><time>2026-05-01T14:14:48Z</time></trkpt><trkpt lat="39.73219606035565" lon="9.132213271261023"><ele>472.0</ele><time>2026-05-01T14:14:49Z</time></trkpt><trkpt lat="39.732286907793544" lon="9.132386706878863"><ele>471.5</ele><time>2026-05-01T14:14:50Z</time></trkpt><trkpt lat="39.73239033174758" lon="9.132541346549223"><ele>471.0</ele><time>2026-05-01T14:14:51Z</time></trkpt><trkpt lat="39.732499775792604" lon="9.132680129452515"><ele>470.5</ele><time>2026-05-01T14:14:52Z</time></trkpt><trkpt lat="39.7325972787497" lon="9.132808430215105"><ele>470.0</ele><time>2026-05-01T14:14:53Z</time></trkpt><trkpt lat="39.73266004953359" lon="9.13294358581419"><ele>470.0</ele><time>2026-05-01T14:14:54Z</time></trkpt><trkpt lat="39.73266817208446" lon="9.133095600576496"><ele>470.0</ele><time>2026-05-01T14:14:55Z</time></trkpt><trkpt lat="39.7325824482989" lon="9.133227124004515"><ele>470.0</ele><time>2026-05-01T14:14:56Z</time></trkpt><trkpt lat="39.732497409194465" lon="9.133366988744765"><ele>470.0</ele><time>2026-05-01T14:14:57Z</time></trkpt><trkpt lat="39.73239486804618" lon="9.133509226792958"><ele>469.0</ele><time>2026-05-01T14:14:58Z</time></trkpt><trkpt lat="39.73227034850735" lon="9.13363900735251"><ele>468.0</ele><time>2026-05-01T14:14:59Z</time></trkpt><trkpt lat="39.73213883984615" lon="9.133765611419156"><ele>467.0</ele><time>2026-05-01T14:15:00Z</time></trkpt><trkpt lat="39.73198934201239" lon="9.133865989139938"><ele>466.3333333333333</ele><time>2026-05-01T14:15:01Z</time></trkpt><trkpt lat="39.73186037483051" lon="9.13399645819243"><ele>465.66666666666663</ele><time>2026-05-01T14:15:02Z</time></trkpt><trkpt lat="39.731740591034516" lon="9.134121260190398"><ele>465.0</ele><time>2026-05-01T14:15:03Z</time></trkpt><trkpt lat="39.7316649954703" lon="9.134283786197386"><ele>465.0</ele><time>2026-05-01T14:15:04Z</time></trkpt><trkpt lat="39.731648937504566" lon="9.13448172393298"><ele>465.0</ele><time>2026-05-01T14:15:05Z</time></trkpt><trkpt lat="39.73165177343768" lon="9.134682768967506"><ele>465.0</ele><time>2026-05-01T14:15:06Z</time></trkpt><trkpt lat="39.73166589089065" lon="9.134865320915425"><ele>465.0</ele><time>2026-05-01T14:15:07Z</time></trkpt><trkpt lat="39.73172126666086" lon="9.135016589591823"><ele>465.0</ele><time>2026-05-01T14:15:08Z</time></trkpt><trkpt lat="39.73182419641717" lon="9.135129350877406"><ele>465.0</ele><time>2026-05-01T14:15:09Z</time></trkpt><trkpt lat="39.73196012581795" lon="9.135194281012915"><ele>465.0</ele><time>2026-05-01T14:15:10Z</time></trkpt><trkpt lat="39.73210352290987" lon="9.135244592045836"><ele>465.0</ele><time>2026-05-01T14:15:11Z</time></trkpt><trkpt lat="39.73223136532965" lon="9.135324105940509"><ele>465.0</ele><time>2026-05-01T14:15:12Z</time></trkpt><trkpt lat="39.73232703173094" lon="9.135455822785193"><ele>465.0</ele><time>2026-05-01T14:15:13Z</time></trkpt><trkpt lat="39.732370914426255" lon="9.135620493849942"><ele>465.0</ele><time>2026-05-01T14:15:14Z</time></trkpt><trkpt lat="39.732352674551095" lon="9.135795444379903"><ele>465.0</ele><time>2026-05-01T14:15:15Z</time></trkpt><trkpt lat="39.732291777313236" lon="9.135966539236817"><ele>465.66666666666663</ele><time>2026-05-01T14:15:16Z</time></trkpt><trkpt lat="39.73222243913636" lon="9.13614390627282"><ele>466.3333333333333</ele><time>2026-05-01T14:15:17Z</time></trkpt><trkpt lat="39.73215251332332" lon="9.136328690985136"><ele>467.0</ele><time>2026-05-01T14:15:18Z</time></trkpt><trkpt lat="39.732049695333735" lon="9.136494305250753"><ele>467.3333333333333</ele><time>2026-05-01T14:15:19Z</time></trkpt><trkpt lat="39.73191974317384" lon="9.136642858443347"><ele>467.66666666666663</ele><time>2026-05-01T14:15:20Z</time></trkpt><trkpt lat="39.73177276713795" lon="9.13677874149618"><ele>468.0</ele><time>2026-05-01T14:15:21Z</time></trkpt><trkpt lat="39.731619182715185" lon="9.136923419492756"><ele>468.33333333333337</ele><time>2026-05-01T14:15:22Z</time></trkpt><trkpt lat="39.731469184879536" lon="9.137082200376636"><ele>468.6666666666667</ele><time>2026-05-01T14:15:23Z</time></trkpt><trkpt lat="39.7313093276893" lon="9.137231544080938"><ele>469.0</ele><time>2026-05-01T14:15:24Z</time></trkpt><trkpt lat="39.73114992242384" lon="9.137383807791407"><ele>469.0</ele><time>2026-05-01T14:15:25Z</time></trkpt><trkpt lat="39.73099318477029" lon="9.13753171156077"><ele>469.0</ele><time>2026-05-01T14:15:26Z</time></trkpt><trkpt lat="39.73083340619179" lon="9.13767909099351"><ele>469.0</ele><time>2026-05-01T14:15:27Z</time></trkpt><trkpt lat="39.73067161391334" lon="9.137826666613927"><ele>469.0</ele><time>2026-05-01T14:15:28Z</time></trkpt><trkpt lat="39.730509181979315" lon="9.137974708796486"><ele>469.0</ele><time>2026-05-01T14:15:29Z</time></trkpt><trkpt lat="39.73034742234089" lon="9.138124433941753"><ele>469.0</ele><time>2026-05-01T14:15:30Z</time></trkpt><trkpt lat="39.730186975068165" lon="9.138279861062967"><ele>468.6666666666667</ele><time>2026-05-01T14:15:31Z</time></trkpt><trkpt lat="39.73002837255403" lon="9.138434248869842"><ele>468.33333333333337</ele><time>2026-05-01T14:15:32Z</time></trkpt><trkpt lat="39.729868831313965" lon="9.13858777403658"><ele>468.0</ele><time>2026-05-01T14:15:33Z</time></trkpt><trkpt lat="39.72969864208061" lon="9.138720421706745"><ele>468.0</ele><time>2026-05-01T14:15:34Z</time></trkpt><trkpt lat="39.729537511641674" lon="9.138871152220835"><ele>468.0</ele><time>2026-05-01T14:15:35Z</time></trkpt><trkpt lat="39.72938625575599" lon="9.13903780009016"><ele>468.0</ele><time>2026-05-01T14:15:36Z</time></trkpt><trkpt lat="39.72922564499291" lon="9.139186190305528"><ele>467.66666666666663</ele><time>2026-05-01T14:15:37Z</time></trkpt><trkpt lat="39.72906495804267" lon="9.13933792185369"><ele>467.3333333333333</ele><time>2026-05-01T14:15:38Z</time></trkpt><trkpt lat="39.72890500881594" lon="9.139488473805091"><ele>467.0</ele><time>2026-05-01T14:15:39Z</time></trkpt><trkpt lat="39.728735088346355" lon="9.139621784268087"><ele>467.0</ele><time>2026-05-01T14:15:40Z</time></trkpt><trkpt lat="39.72858467206784" lon="9.139788129341024"><ele>467.0</ele><time>2026-05-01T14:15:41Z</time></trkpt><trkpt lat="39.72842467064608" lon="9.139936305452089"><ele>467.0</ele><time>2026-05-01T14:15:42Z</time></trkpt><trkpt lat="39.72826474368402" lon="9.140086096553906"><ele>467.3333333333333</ele><time>2026-05-01T14:15:43Z</time></trkpt><trkpt lat="39.72810492585842" lon="9.140236194427024"><ele>467.66666666666663</ele><time>2026-05-01T14:15:44Z</time></trkpt><trkpt lat="39.72793686004336" lon="9.140368579420622"><ele>468.0</ele><time>2026-05-01T14:15:45Z</time></trkpt><trkpt lat="39.727776694521346" lon="9.140518817788312"><ele>467.66666666666663</ele><time>2026-05-01T14:15:46Z</time></trkpt><trkpt lat="39.72762820959178" lon="9.140684262128081"><ele>467.3333333333333</ele><time>2026-05-01T14:15:47Z</time></trkpt><trkpt lat="39.72746887074883" lon="9.140831847943991"><ele>467.0</ele><time>2026-05-01T14:15:48Z</time></trkpt><trkpt lat="39.727310686990684" lon="9.140981227379651"><ele>467.0</ele><time>2026-05-01T14:15:49Z</time></trkpt><trkpt lat="39.72715407529024" lon="9.141129503220382"><ele>467.0</ele><time>2026-05-01T14:15:50Z</time></trkpt><trkpt lat="39.726996548053684" lon="9.14127547133429"><ele>467.0</ele><time>2026-05-01T14:15:51Z</time></trkpt><trkpt lat="39.726838375152134" lon="9.141422721494484"><ele>468.0</ele><time>2026-05-01T14:15:52Z</time></trkpt><trkpt lat="39.72668218379165" lon="9.141569223847902"><ele>469.0</ele><time>2026-05-01T14:15:53Z</time></trkpt><trkpt lat="39.72652392633262" lon="9.141716424279114"><ele>470.0</ele><time>2026-05-01T14:15:54Z</time></trkpt><trkpt lat="39.72636498065151" lon="9.141862510670581"><ele>470.0</ele><time>2026-05-01T14:15:55Z</time></trkpt><trkpt lat="39.726205205161406" lon="9.14201077765302"><ele>470.0</ele><time>2026-05-01T14:15:56Z</time></trkpt><trkpt lat="39.726044450301494" lon="9.14216188225684"><ele>470.0</ele><time>2026-05-01T14:15:57Z</time></trkpt><trkpt lat="39.725883227637446" lon="9.142315887549696"><ele>470.66666666666663</ele><time>2026-05-01T14:15:58Z</time></trkpt><trkpt lat="39.72572126442266" lon="9.142471226721945"><ele>471.33333333333337</ele><time>2026-05-01T14:15:59Z</time></trkpt><trkpt lat="39.72555624567629" lon="9.142628648274021"><ele>472.0</ele><time>2026-05-01T14:16:00Z</time></trkpt><trkpt lat="39.72539096643068" lon="9.14278465211978"><ele>472.0</ele><time>2026-05-01T14:16:01Z</time></trkpt><trkpt lat="39.725223128150766" lon="9.142941337983107"><ele>472.0</ele><time>2026-05-01T14:16:02Z</time></trkpt><trkpt lat="39.72505458424024" lon="9.143098169322698"><ele>472.0</ele><time>2026-05-01T14:16:03Z</time></trkpt><trkpt lat="39.724885085037094" lon="9.143255894021362"><ele>472.0</ele><time>2026-05-01T14:16:04Z</time></trkpt><trkpt lat="39.72471499313836" lon="9.14341463701051"><ele>472.0</ele><time>2026-05-01T14:16:05Z</time></trkpt><trkpt lat="39.72454406858545" lon="9.143575706217886"><ele>472.0</ele><time>2026-05-01T14:16:06Z</time></trkpt><trkpt lat="39.72437132910129" lon="9.143736707898348"><ele>472.33333333333337</ele><time>2026-05-01T14:16:07Z</time></trkpt><trkpt lat="39.72419599880438" lon="9.143887859159358"><ele>472.66666666666663</ele><time>2026-05-01T14:16:08Z</time></trkpt><trkpt lat="39.724011390185574" lon="9.144028034801893"><ele>473.0</ele><time>2026-05-01T14:16:09Z</time></trkpt><trkpt lat="39.723824931761285" lon="9.144154417878001"><ele>473.0</ele><time>2026-05-01T14:16:10Z</time></trkpt><trkpt lat="39.72363346596917" lon="9.144271272984524"><ele>473.0</ele><time>2026-05-01T14:16:11Z</time></trkpt><trkpt lat="39.72343848495958" lon="9.144371253164746"><ele>473.0</ele><time>2026-05-01T14:16:12Z</time></trkpt><trkpt lat="39.723238071636914" lon="9.144453071349696"><ele>475.0</ele><time>2026-05-01T14:16:13Z</time></trkpt><trkpt lat="39.72303578386001" lon="9.144521962706646"><ele>477.0</ele><time>2026-05-01T14:16:14Z</time></trkpt><trkpt lat="39.72283394874841" lon="9.144587568624626"><ele>479.0</ele><time>2026-05-01T14:16:15Z</time></trkpt><trkpt lat="39.722631465684266" lon="9.144654029848358"><ele>480.0</ele><time>2026-05-01T14:16:16Z</time></trkpt><trkpt lat="39.72242797150047" lon="9.14472204070141"><ele>481.0</ele><time>2026-05-01T14:16:17Z</time></trkpt><trkpt lat="39.722227401805675" lon="9.144790116840896"><ele>482.0</ele><time>2026-05-01T14:16:18Z</time></trkpt><trkpt lat="39.7220265953742" lon="9.144858970048748"><ele>482.0</ele><time>2026-05-01T14:16:19Z</time></trkpt><trkpt lat="39.7218253574115" lon="9.144926751788018"><ele>482.0</ele><time>2026-05-01T14:16:20Z</time></trkpt><trkpt lat="39.721623481821126" lon="9.144992138570096"><ele>482.0</ele><time>2026-05-01T14:16:21Z</time></trkpt><trkpt lat="39.72142126913647" lon="9.145056120740376"><ele>482.0</ele><time>2026-05-01T14:16:22Z</time></trkpt><trkpt lat="39.721218342110674" lon="9.145120574312696"><ele>482.0</ele><time>2026-05-01T14:16:23Z</time></trkpt><trkpt lat="39.72101381949958" lon="9.14518703969205"><ele>482.0</ele><time>2026-05-01T14:16:24Z</time></trkpt><trkpt lat="39.720809331762716" lon="9.145254904005098"><ele>482.3333333333333</ele><time>2026-05-01T14:16:25Z</time></trkpt><trkpt lat="39.720604387155355" lon="9.145323478384636"><ele>482.66666666666663</ele><time>2026-05-01T14:16:26Z</time></trkpt><trkpt lat="39.72039890175355" lon="9.145392244729967"><ele>483.0</ele><time>2026-05-01T14:16:27Z</time></trkpt><trkpt lat="39.72019118885596" lon="9.145462411590596"><ele>483.66666666666663</ele><time>2026-05-01T14:16:28Z</time></trkpt><trkpt lat="39.719980261977035" lon="9.145510273322254"><ele>484.3333333333333</ele><time>2026-05-01T14:16:29Z</time></trkpt><trkpt lat="39.7197734205769" lon="9.145577988201751"><ele>485.0</ele><time>2026-05-01T14:16:30Z</time></trkpt><trkpt lat="39.71956923084488" lon="9.145644834992172"><ele>484.66666666666663</ele><time>2026-05-01T14:16:31Z</time></trkpt><trkpt lat="39.719371599402585" lon="9.145728448528367"><ele>484.33333333333337</ele><time>2026-05-01T14:16:32Z</time></trkpt><trkpt lat="39.719170632639546" lon="9.145781600730354"><ele>484.0</ele><time>2026-05-01T14:16:33Z</time></trkpt><trkpt lat="39.718934219535576" lon="9.14577792070895"><ele>484.0</ele><time>2026-05-01T14:16:34Z</time></trkpt><trkpt lat="39.718722446399454" lon="9.145774138114932"><ele>484.0</ele><time>2026-05-01T14:16:35Z</time></trkpt><trkpt lat="39.71851056789716" lon="9.14576641498919"><ele>484.0</ele><time>2026-05-01T14:16:36Z</time></trkpt><trkpt lat="39.718315090506344" lon="9.14575826359547"><ele>484.6666666666667</ele><time>2026-05-01T14:16:37Z</time></trkpt><trkpt lat="39.71813290147686" lon="9.145738119008604"><ele>485.33333333333337</ele><time>2026-05-01T14:16:38Z</time></trkpt><trkpt lat="39.717961126904" lon="9.145670874532943"><ele>486.0</ele><time>2026-05-01T14:16:39Z</time></trkpt><trkpt lat="39.71777464711837" lon="9.145583309197505"><ele>487.66666666666663</ele><time>2026-05-01T14:16:40Z</time></trkpt><trkpt lat="39.71758384139859" lon="9.145520249082372"><ele>489.3333333333333</ele><time>2026-05-01T14:16:41Z</time></trkpt><trkpt lat="39.71738253106941" lon="9.145458110142222"><ele>491.0</ele><time>2026-05-01T14:16:42Z</time></trkpt><trkpt lat="39.71717777948915" lon="9.145394908983535"><ele>491.0</ele><time>2026-05-01T14:16:43Z</time></trkpt><trkpt lat="39.71697219517378" lon="9.145341006445756"><ele>491.0</ele><time>2026-05-01T14:16:44Z</time></trkpt><trkpt lat="39.71672472198233" lon="9.14557520728746"><ele>490.66666666666663</ele><time>2026-05-01T14:16:45Z</time></trkpt><trkpt lat="39.71652192307749" lon="9.145654664358673"><ele>490.33333333333337</ele><time>2026-05-01T14:16:46Z</time></trkpt><trkpt lat="39.71633391049074" lon="9.145727704464557"><ele>490.0</ele><time>2026-05-01T14:16:47Z</time></trkpt><trkpt lat="39.716154606903714" lon="9.145777073889327"><ele>490.6666666666667</ele><time>2026-05-01T14:16:48Z</time></trkpt><trkpt lat="39.715984338642734" lon="9.145773611259298"><ele>491.33333333333337</ele><time>2026-05-01T14:16:49Z</time></trkpt><trkpt lat="39.71582516147578" lon="9.145694569006837"><ele>492.0</ele><time>2026-05-01T14:16:50Z</time></trkpt><trkpt lat="39.715678679999264" lon="9.145561597495373"><ele>493.33333333333337</ele><time>2026-05-01T14:16:51Z</time></trkpt><trkpt lat="39.71553159421031" lon="9.145406782829944"><ele>494.6666666666667</ele><time>2026-05-01T14:16:52Z</time></trkpt><trkpt lat="39.71536475521531" lon="9.145313038522966"><ele>496.0</ele><time>2026-05-01T14:16:53Z</time></trkpt><trkpt lat="39.71517185962776" lon="9.14529049141669"><ele>496.33333333333337</ele><time>2026-05-01T14:16:54Z</time></trkpt><trkpt lat="39.71496833988617" lon="9.145337631340063"><ele>496.66666666666663</ele><time>2026-05-01T14:16:55Z</time></trkpt><trkpt lat="39.71476500771002" lon="9.145403536044345"><ele>497.0</ele><time>2026-05-01T14:16:56Z</time></trkpt><trkpt lat="39.71456350749513" lon="9.145497941138023"><ele>497.3333333333333</ele><time>2026-05-01T14:16:57Z</time></trkpt><trkpt lat="39.714374959374034" lon="9.14559867444305"><ele>497.66666666666663</ele><time>2026-05-01T14:16:58Z</time></trkpt><trkpt lat="39.71419202863611" lon="9.145718533877027"><ele>498.0</ele><time>2026-05-01T14:16:59Z</time></trkpt><trkpt lat="39.71401140874567" lon="9.14584009887832"><ele>498.0</ele><time>2026-05-01T14:17:00Z</time></trkpt><trkpt lat="39.71383063837306" lon="9.145950688458832"><ele>498.0</ele><time>2026-05-01T14:17:01Z</time></trkpt><trkpt lat="39.71364328544185" lon="9.146031152598175"><ele>498.0</ele><time>2026-05-01T14:17:02Z</time></trkpt><trkpt lat="39.713449440842105" lon="9.146077326129982"><ele>498.0</ele><time>2026-05-01T14:17:03Z</time></trkpt><trkpt lat="39.71325251739225" lon="9.146091236398359"><ele>498.0</ele><time>2026-05-01T14:17:04Z</time></trkpt><trkpt lat="39.71305637516396" lon="9.146071191073153"><ele>498.0</ele><time>2026-05-01T14:17:05Z</time></trkpt><trkpt lat="39.712864563841" lon="9.146053712619887"><ele>499.66666666666663</ele><time>2026-05-01T14:17:06Z</time></trkpt><trkpt lat="39.71267265028922" lon="9.146067090127776"><ele>501.3333333333333</ele><time>2026-05-01T14:17:07Z</time></trkpt><trkpt lat="39.7124826279582" lon="9.146122504309043"><ele>503.0</ele><time>2026-05-01T14:17:08Z</time></trkpt><trkpt lat="39.7122950080565" lon="9.14620702391377"><ele>503.0</ele><time>2026-05-01T14:17:09Z</time></trkpt><trkpt lat="39.71211377198315" lon="9.146320127603616"><ele>503.0</ele><time>2026-05-01T14:17:10Z</time></trkpt><trkpt lat="39.71193898307218" lon="9.14645385835358"><ele>503.0</ele><time>2026-05-01T14:17:11Z</time></trkpt><trkpt lat="39.71177177634963" lon="9.14660113340139"><ele>504.0</ele><time>2026-05-01T14:17:12Z</time></trkpt><trkpt lat="39.71161426317261" lon="9.146764253685904"><ele>505.0</ele><time>2026-05-01T14:17:13Z</time></trkpt><trkpt lat="39.71146756168223" lon="9.146941679330316"><ele>506.0</ele><time>2026-05-01T14:17:14Z</time></trkpt><trkpt lat="39.71134257304742" lon="9.147132464623144"><ele>506.0</ele><time>2026-05-01T14:17:15Z</time></trkpt><trkpt lat="39.71125394025512" lon="9.147348015163637"><ele>506.0</ele><time>2026-05-01T14:17:16Z</time></trkpt><trkpt lat="39.71120005331692" lon="9.147586172859086"><ele>506.0</ele><time>2026-05-01T14:17:17Z</time></trkpt><trkpt lat="39.711177548639945" lon="9.14783452216884"><ele>505.66666666666663</ele><time>2026-05-01T14:17:18Z</time></trkpt><trkpt lat="39.71117709285331" lon="9.148084067317109"><ele>505.33333333333337</ele><time>2026-05-01T14:17:19Z</time></trkpt><trkpt lat="39.71120027727894" lon="9.14832951766658"><ele>505.0</ele><time>2026-05-01T14:17:20Z</time></trkpt><trkpt lat="39.71122871248723" lon="9.148569231556024"><ele>505.6666666666667</ele><time>2026-05-01T14:17:21Z</time></trkpt><trkpt lat="39.71122403733814" lon="9.148804692883157"><ele>506.33333333333337</ele><time>2026-05-01T14:17:22Z</time></trkpt><trkpt lat="39.711176370454574" lon="9.149036572291248"><ele>507.0</ele><time>2026-05-01T14:17:23Z</time></trkpt><trkpt lat="39.71109725204851" lon="9.149263206334835"><ele>509.0</ele><time>2026-05-01T14:17:24Z</time></trkpt><trkpt lat="39.71099307381603" lon="9.149471165832807"><ele>511.0</ele><time>2026-05-01T14:17:25Z</time></trkpt><trkpt lat="39.710862592707045" lon="9.14965809946632"><ele>513.0</ele><time>2026-05-01T14:17:26Z</time></trkpt><trkpt lat="39.710709882524235" lon="9.149826886684233"><ele>513.3333333333334</ele><time>2026-05-01T14:17:27Z</time></trkpt><trkpt lat="39.71054282696351" lon="9.149991997619491"><ele>513.6666666666667</ele><time>2026-05-01T14:17:28Z</time></trkpt><trkpt lat="39.71037600688273" lon="9.150155514153536"><ele>514.0</ele><time>2026-05-01T14:17:29Z</time></trkpt><trkpt lat="39.71021256732942" lon="9.150333627642706"><ele>513.6666666666667</ele><time>2026-05-01T14:17:30Z</time></trkpt><trkpt lat="39.71004788422937" lon="9.150516732311326"><ele>513.3333333333334</ele><time>2026-05-01T14:17:31Z</time></trkpt><trkpt lat="39.709881709271144" lon="9.15069835220747"><ele>513.0</ele><time>2026-05-01T14:17:32Z</time></trkpt><trkpt lat="39.70970876414868" lon="9.150872442383319"><ele>513.0</ele><time>2026-05-01T14:17:33Z</time></trkpt><trkpt lat="39.70952310937116" lon="9.151024377833007"><ele>513.0</ele><time>2026-05-01T14:17:34Z</time></trkpt><trkpt lat="39.70931863485487" lon="9.151138671591498"><ele>513.0</ele><time>2026-05-01T14:17:35Z</time></trkpt><trkpt lat="39.70910197172519" lon="9.151224850649253"><ele>514.0</ele><time>2026-05-01T14:17:36Z</time></trkpt><trkpt lat="39.70888571249514" lon="9.15130270820594"><ele>515.0</ele><time>2026-05-01T14:17:37Z</time></trkpt><trkpt lat="39.70867354208854" lon="9.151384102506222"><ele>516.0</ele><time>2026-05-01T14:17:38Z</time></trkpt><trkpt lat="39.70846192238715" lon="9.151465711746928"><ele>516.3333333333334</ele><time>2026-05-01T14:17:39Z</time></trkpt><trkpt lat="39.70825213757214" lon="9.151547858312975"><ele>516.6666666666667</ele><time>2026-05-01T14:17:40Z</time></trkpt><trkpt lat="39.70804152737791" lon="9.151627458479663"><ele>517.0</ele><time>2026-05-01T14:17:41Z</time></trkpt><trkpt lat="39.70783069732701" lon="9.151698403508458"><ele>518.0</ele><time>2026-05-01T14:17:42Z</time></trkpt><trkpt lat="39.70761907395483" lon="9.151751780006153"><ele>519.0</ele><time>2026-05-01T14:17:43Z</time></trkpt><trkpt lat="39.7074036144041" lon="9.15177849237059"><ele>520.0</ele><time>2026-05-01T14:17:44Z</time></trkpt><trkpt lat="39.70719163663547" lon="9.151796748987834"><ele>520.0</ele><time>2026-05-01T14:17:45Z</time></trkpt><trkpt lat="39.706981406403" lon="9.151828845282639"><ele>520.0</ele><time>2026-05-01T14:17:46Z</time></trkpt><trkpt lat="39.706778575623694" lon="9.15187779440283"><ele>520.0</ele><time>2026-05-01T14:17:47Z</time></trkpt><trkpt lat="39.70657501367944" lon="9.151943480580194"><ele>522.3333333333334</ele><time>2026-05-01T14:17:48Z</time></trkpt><trkpt lat="39.70637254902054" lon="9.152029784533898"><ele>524.6666666666666</ele><time>2026-05-01T14:17:49Z</time></trkpt><trkpt lat="39.7061731268711" lon="9.152145855315599"><ele>527.0</ele><time>2026-05-01T14:17:50Z</time></trkpt><trkpt lat="39.7059794259108" lon="9.152275739947319"><ele>526.3333333333333</ele><time>2026-05-01T14:17:51Z</time></trkpt><trkpt lat="39.70579570577351" lon="9.152428728000334"><ele>525.6666666666666</ele><time>2026-05-01T14:17:52Z</time></trkpt><trkpt lat="39.70562802526864" lon="9.152610575267396"><ele>525.0</ele><time>2026-05-01T14:17:53Z</time></trkpt><trkpt lat="39.70547759349743" lon="9.152826887493493"><ele>525.0</ele><time>2026-05-01T14:17:54Z</time></trkpt><trkpt lat="39.705314683950476" lon="9.153011919141978"><ele>525.0</ele><time>2026-05-01T14:17:55Z</time></trkpt><trkpt lat="39.70514149207502" lon="9.153173303171785"><ele>525.0</ele><time>2026-05-01T14:17:56Z</time></trkpt><trkpt lat="39.704961372265736" lon="9.153318765231253"><ele>525.3333333333334</ele><time>2026-05-01T14:17:57Z</time></trkpt><trkpt lat="39.7047803840164" lon="9.153455028904801"><ele>525.6666666666667</ele><time>2026-05-01T14:17:58Z</time></trkpt><trkpt lat="39.70459983128769" lon="9.153576713084622"><ele>526.0</ele><time>2026-05-01T14:17:59Z</time></trkpt><trkpt lat="39.704422824670154" lon="9.153684680687734"><ele>528.0</ele><time>2026-05-01T14:18:00Z</time></trkpt><trkpt lat="39.704244984537546" lon="9.15375583221007"><ele>530.0</ele><time>2026-05-01T14:18:01Z</time></trkpt><trkpt lat="39.70405589986899" lon="9.153794517568116"><ele>532.0</ele><time>2026-05-01T14:18:02Z</time></trkpt><trkpt lat="39.70386398002936" lon="9.153793108562953"><ele>532.0</ele><time>2026-05-01T14:18:03Z</time></trkpt><trkpt lat="39.70367372313754" lon="9.153748099525293"><ele>532.0</ele><time>2026-05-01T14:18:04Z</time></trkpt><trkpt lat="39.7034843147447" lon="9.153672878006201"><ele>532.0</ele><time>2026-05-01T14:18:05Z</time></trkpt><trkpt lat="39.70329018684875" lon="9.153593154700003"><ele>534.0</ele><time>2026-05-01T14:18:06Z</time></trkpt><trkpt lat="39.703090814549824" lon="9.153541335123561"><ele>536.0</ele><time>2026-05-01T14:18:07Z</time></trkpt><trkpt lat="39.70289278017203" lon="9.153493812572455"><ele>538.0</ele><time>2026-05-01T14:18:08Z</time></trkpt><trkpt lat="39.70268958689959" lon="9.153478188356374"><ele>539.6666666666667</ele><time>2026-05-01T14:18:09Z</time></trkpt><trkpt lat="39.70248485874695" lon="9.153485893243204"><ele>541.3333333333334</ele><time>2026-05-01T14:18:10Z</time></trkpt><trkpt lat="39.70228531354972" lon="9.153509916345728"><ele>543.0</ele><time>2026-05-01T14:18:11Z</time></trkpt><trkpt lat="39.70208964784875" lon="9.153550741675708"><ele>544.6666666666666</ele><time>2026-05-01T14:18:12Z</time></trkpt><trkpt lat="39.70190043352376" lon="9.153623111805212"><ele>546.3333333333333</ele><time>2026-05-01T14:18:13Z</time></trkpt><trkpt lat="39.70172273580523" lon="9.153717047613945"><ele>548.0</ele><time>2026-05-01T14:18:14Z</time></trkpt><trkpt lat="39.70153870353958" lon="9.153775429263435"><ele>548.0</ele><time>2026-05-01T14:18:15Z</time></trkpt><trkpt lat="39.70136188088354" lon="9.153854072991777"><ele>548.0</ele><time>2026-05-01T14:18:16Z</time></trkpt><trkpt lat="39.701197727135344" lon="9.15393162023239"><ele>548.0</ele><time>2026-05-01T14:18:17Z</time></trkpt><trkpt lat="39.70101870226859" lon="9.154028105378368"><ele>547.3333333333333</ele><time>2026-05-01T14:18:18Z</time></trkpt><trkpt lat="39.70085270588444" lon="9.154136558083515"><ele>546.6666666666666</ele><time>2026-05-01T14:18:19Z</time></trkpt><trkpt lat="39.700693170641884" lon="9.154262018478713"><ele>546.0</ele><time>2026-05-01T14:18:20Z</time></trkpt><trkpt lat="39.70053519854582" lon="9.154397742567824"><ele>546.0</ele><time>2026-05-01T14:18:21Z</time></trkpt><trkpt lat="39.70037975376962" lon="9.15453903356412"><ele>546.0</ele><time>2026-05-01T14:18:22Z</time></trkpt><trkpt lat="39.70022142333336" lon="9.15466468055687"><ele>546.0</ele><time>2026-05-01T14:18:23Z</time></trkpt><trkpt lat="39.70005378047044" lon="9.15477076453931"><ele>545.6666666666666</ele><time>2026-05-01T14:18:24Z</time></trkpt><trkpt lat="39.69988475688052" lon="9.154866012501394"><ele>545.3333333333333</ele><time>2026-05-01T14:18:25Z</time></trkpt><trkpt lat="39.69970972115049" lon="9.154942293501607"><ele>545.0</ele><time>2026-05-01T14:18:26Z</time></trkpt><trkpt lat="39.69952836050732" lon="9.154997730606334"><ele>547.0</ele><time>2026-05-01T14:18:27Z</time></trkpt><trkpt lat="39.699349467583076" lon="9.15505298487087"><ele>549.0</ele><time>2026-05-01T14:18:28Z</time></trkpt><trkpt lat="39.69917263820985" lon="9.155105770544704"><ele>551.0</ele><time>2026-05-01T14:18:29Z</time></trkpt><trkpt lat="39.699000008096334" lon="9.155155501362284"><ele>551.0</ele><time>2026-05-01T14:18:30Z</time></trkpt><trkpt lat="39.69882663731377" lon="9.155205445562787"><ele>551.0</ele><time>2026-05-01T14:18:31Z</time></trkpt><trkpt lat="39.69865303076176" lon="9.15525573673039"><ele>551.0</ele><time>2026-05-01T14:18:32Z</time></trkpt><trkpt lat="39.698480853388446" lon="9.155303161572911"><ele>551.6666666666666</ele><time>2026-05-01T14:18:33Z</time></trkpt><trkpt lat="39.6983063908764" lon="9.155343914464122"><ele>552.3333333333334</ele><time>2026-05-01T14:18:34Z</time></trkpt><trkpt lat="39.698130472563186" lon="9.155382186081916"><ele>553.0</ele><time>2026-05-01T14:18:35Z</time></trkpt><trkpt lat="39.69796067294158" lon="9.155372208832462"><ele>553.0</ele><time>2026-05-01T14:18:36Z</time></trkpt><trkpt lat="39.69779893515884" lon="9.15532004788411"><ele>553.0</ele><time>2026-05-01T14:18:37Z</time></trkpt><trkpt lat="39.697660389518" lon="9.155198810894209"><ele>553.0</ele><time>2026-05-01T14:18:38Z</time></trkpt><trkpt lat="39.69751448970906" lon="9.155052601979994"><ele>552.6666666666667</ele><time>2026-05-01T14:18:39Z</time></trkpt><trkpt lat="39.69736180873075" lon="9.154907694767813"><ele>552.3333333333334</ele><time>2026-05-01T14:18:40Z</time></trkpt><trkpt lat="39.69722326430636" lon="9.154738590393007"><ele>552.0</ele><time>2026-05-01T14:18:41Z</time></trkpt><trkpt lat="39.697089020016406" lon="9.154568047203885"><ele>554.3333333333334</ele><time>2026-05-01T14:18:42Z</time></trkpt><trkpt lat="39.696993060643024" lon="9.154373963624082"><ele>556.6666666666667</ele><time>2026-05-01T14:18:43Z</time></trkpt><trkpt lat="39.6969228633496" lon="9.154170682800633"><ele>559.0</ele><time>2026-05-01T14:18:44Z</time></trkpt><trkpt lat="39.69687423442218" lon="9.15397127062756"><ele>559.0</ele><time>2026-05-01T14:18:45Z</time></trkpt><trkpt lat="39.696866403281525" lon="9.153781594043632"><ele>559.0</ele><time>2026-05-01T14:18:46Z</time></trkpt><trkpt lat="39.696862839683504" lon="9.153621253316125"><ele>559.0</ele><time>2026-05-01T14:18:47Z</time></trkpt><trkpt lat="39.69685685083142" lon="9.153483941694132"><ele>559.0</ele><time>2026-05-01T14:18:48Z</time></trkpt><trkpt lat="39.696853055651864" lon="9.153362708033224"><ele>559.0</ele><time>2026-05-01T14:18:49Z</time></trkpt><trkpt lat="39.69685248045062" lon="9.153237115524659"><ele>559.0</ele><time>2026-05-01T14:18:50Z</time></trkpt><trkpt lat="39.69682032396187" lon="9.15310710726327"><ele>559.0</ele><time>2026-05-01T14:18:51Z</time></trkpt><trkpt lat="39.69675146998625" lon="9.15296735196211"><ele>559.0</ele><time>2026-05-01T14:18:52Z</time></trkpt><trkpt lat="39.696648057063186" lon="9.152854535987476"><ele>560.75</ele><time>2026-05-01T14:18:53Z</time></trkpt><trkpt lat="39.69651674855028" lon="9.152780062198284"><ele>562.5</ele><time>2026-05-01T14:18:54Z</time></trkpt><trkpt lat="39.696370909105354" lon="9.152738702334057"><ele>564.25</ele><time>2026-05-01T14:18:55Z</time></trkpt><trkpt lat="39.69621976603561" lon="9.15270791822821"><ele>566.0</ele><time>2026-05-01T14:18:56Z</time></trkpt><trkpt lat="39.696060714515255" lon="9.152685937244993"><ele>566.0</ele><time>2026-05-01T14:18:57Z</time></trkpt><trkpt lat="39.69589691261997" lon="9.152674344079356"><ele>566.0</ele><time>2026-05-01T14:18:58Z</time></trkpt><trkpt lat="39.69572811677929" lon="9.152679171138821"><ele>566.0</ele><time>2026-05-01T14:18:59Z</time></trkpt><trkpt lat="39.69555684643812" lon="9.152703515463417"><ele>566.0</ele><time>2026-05-01T14:19:00Z</time></trkpt><trkpt lat="39.69538304833162" lon="9.152713641927777"><ele>566.0</ele><time>2026-05-01T14:19:01Z</time></trkpt><trkpt lat="39.69521748490187" lon="9.152749419861317"><ele>566.0</ele><time>2026-05-01T14:19:02Z</time></trkpt><trkpt lat="39.695061785888036" lon="9.152782032790213"><ele>566.6666666666666</ele><time>2026-05-01T14:19:03Z</time></trkpt><trkpt lat="39.694912249224124" lon="9.15279627873267"><ele>567.3333333333334</ele><time>2026-05-01T14:19:04Z</time></trkpt><trkpt lat="39.694763895531594" lon="9.152776443895961"><ele>568.0</ele><time>2026-05-01T14:19:05Z</time></trkpt><trkpt lat="39.694614673392586" lon="9.15271899690712"><ele>568.0</ele><time>2026-05-01T14:19:06Z</time></trkpt><trkpt lat="39.694461664394176" lon="9.152650683311528"><ele>568.0</ele><time>2026-05-01T14:19:07Z</time></trkpt><trkpt lat="39.69430929856407" lon="9.152575059855293"><ele>568.0</ele><time>2026-05-01T14:19:08Z</time></trkpt><trkpt lat="39.69415928687512" lon="9.152485182155857"><ele>567.3333333333334</ele><time>2026-05-01T14:19:09Z</time></trkpt><trkpt lat="39.694021009967074" lon="9.152379524311408"><ele>566.6666666666666</ele><time>2026-05-01T14:19:10Z</time></trkpt><trkpt lat="39.69389387219512" lon="9.15225506614266"><ele>566.0</ele><time>2026-05-01T14:19:11Z</time></trkpt><trkpt lat="39.69378563582392" lon="9.152114731664563"><ele>566.5</ele><time>2026-05-01T14:19:12Z</time></trkpt><trkpt lat="39.69369807044424" lon="9.151956750627164"><ele>567.0</ele><time>2026-05-01T14:19:13Z</time></trkpt><trkpt lat="39.69362935595271" lon="9.151786236008043"><ele>567.5</ele><time>2026-05-01T14:19:14Z</time></trkpt><trkpt lat="39.693574838753264" lon="9.151621844683843"><ele>568.0</ele><time>2026-05-01T14:19:15Z</time></trkpt><trkpt lat="39.69351784101911" lon="9.151456899757267"><ele>570.5</ele><time>2026-05-01T14:19:16Z</time></trkpt><trkpt lat="39.69345251634885" lon="9.151294350092753"><ele>573.0</ele><time>2026-05-01T14:19:17Z</time></trkpt><trkpt lat="39.693366823068125" lon="9.151142432934105"><ele>575.5</ele><time>2026-05-01T14:19:18Z</time></trkpt><trkpt lat="39.69324720217709" lon="9.151012918563806"><ele>578.0</ele><time>2026-05-01T14:19:19Z</time></trkpt><trkpt lat="39.693123479673446" lon="9.150877059713924"><ele>578.0</ele><time>2026-05-01T14:19:20Z</time></trkpt><trkpt lat="39.69299410519311" lon="9.150747749664387"><ele>578.0</ele><time>2026-05-01T14:19:21Z</time></trkpt><trkpt lat="39.69287234555226" lon="9.150599689964968"><ele>578.0</ele><time>2026-05-01T14:19:22Z</time></trkpt><trkpt lat="39.69273663657094" lon="9.150459634936986"><ele>578.6666666666666</ele><time>2026-05-01T14:19:23Z</time></trkpt><trkpt lat="39.692598432253725" lon="9.150320843087789"><ele>579.3333333333334</ele><time>2026-05-01T14:19:24Z</time></trkpt><trkpt lat="39.69244671691117" lon="9.150200347305592"><ele>580.0</ele><time>2026-05-01T14:19:25Z</time></trkpt><trkpt lat="39.69228428260221" lon="9.150095711969158"><ele>580.0</ele><time>2026-05-01T14:19:26Z</time></trkpt><trkpt lat="39.69211592675432" lon="9.150003432237257"><ele>580.0</ele><time>2026-05-01T14:19:27Z</time></trkpt><trkpt lat="39.691947704407404" lon="9.1499206058871"><ele>580.0</ele><time>2026-05-01T14:19:28Z</time></trkpt><trkpt lat="39.69177769885667" lon="9.149852450544046"><ele>582.0</ele><time>2026-05-01T14:19:29Z</time></trkpt><trkpt lat="39.691609620254056" lon="9.149781292676748"><ele>584.0</ele><time>2026-05-01T14:19:30Z</time></trkpt><trkpt lat="39.691433321977996" lon="9.149754203842908"><ele>586.0</ele><time>2026-05-01T14:19:31Z</time></trkpt><trkpt lat="39.69125854063133" lon="9.149763288202887"><ele>586.0</ele><time>2026-05-01T14:19:32Z</time></trkpt><trkpt lat="39.691093727320506" lon="9.14978893055889"><ele>586.0</ele><time>2026-05-01T14:19:33Z</time></trkpt><trkpt lat="39.690941932341396" lon="9.149747897866426"><ele>586.0</ele><time>2026-05-01T14:19:34Z</time></trkpt><trkpt lat="39.69079622326546" lon="9.149724872077613"><ele>585.0</ele><time>2026-05-01T14:19:35Z</time></trkpt><trkpt lat="39.6906630414608" lon="9.149672755692192"><ele>584.0</ele><time>2026-05-01T14:19:36Z</time></trkpt><trkpt lat="39.690529631835155" lon="9.14962174675446"><ele>583.0</ele><time>2026-05-01T14:19:37Z</time></trkpt><trkpt lat="39.69040570587529" lon="9.149551592817483"><ele>582.0</ele><time>2026-05-01T14:19:38Z</time></trkpt><trkpt lat="39.69027864152139" lon="9.149500846522853"><ele>581.0</ele><time>2026-05-01T14:19:39Z</time></trkpt><trkpt lat="39.69014931325474" lon="9.149453940016153"><ele>580.0</ele><time>2026-05-01T14:19:40Z</time></trkpt><trkpt lat="39.690018230752635" lon="9.149407387230799"><ele>579.0</ele><time>2026-05-01T14:19:41Z</time></trkpt><trkpt lat="39.68987913275469" lon="9.149359519761077"><ele>578.0</ele><time>2026-05-01T14:19:42Z</time></trkpt><trkpt lat="39.68973286338596" lon="9.149309155633272"><ele>578.0</ele><time>2026-05-01T14:19:43Z</time></trkpt><trkpt lat="39.68958115531842" lon="9.149254749147559"><ele>578.0</ele><time>2026-05-01T14:19:44Z</time></trkpt><trkpt lat="39.68941886454341" lon="9.149212018123025"><ele>578.0</ele><time>2026-05-01T14:19:45Z</time></trkpt><trkpt lat="39.68925646567589" lon="9.149146928876588"><ele>578.3333333333333</ele><time>2026-05-01T14:19:46Z</time></trkpt><trkpt lat="39.68909207467617" lon="9.149083544347024"><ele>578.6666666666666</ele><time>2026-05-01T14:19:47Z</time></trkpt><trkpt lat="39.688926838474394" lon="9.14901553381549"><ele>579.0</ele><time>2026-05-01T14:19:48Z</time></trkpt><trkpt lat="39.68876146040342" lon="9.148943716846777"><ele>576.3333333333334</ele><time>2026-05-01T14:19:49Z</time></trkpt><trkpt lat="39.68859651833815" lon="9.148864626550258"><ele>573.6666666666667</ele><time>2026-05-01T14:19:50Z</time></trkpt><trkpt lat="39.68844391875077" lon="9.148758657149243"><ele>571.0</ele><time>2026-05-01T14:19:51Z</time></trkpt><trkpt lat="39.68829029110634" lon="9.148666863499242"><ele>571.0</ele><time>2026-05-01T14:19:52Z</time></trkpt><trkpt lat="39.68813560095177" lon="9.1485985234632"><ele>571.0</ele><time>2026-05-01T14:19:53Z</time></trkpt><trkpt lat="39.68801577933685" lon="9.148469412622193"><ele>571.0</ele><time>2026-05-01T14:19:54Z</time></trkpt><trkpt lat="39.687927979677" lon="9.148315356617955"><ele>568.5</ele><time>2026-05-01T14:19:55Z</time></trkpt><trkpt lat="39.68787749433432" lon="9.14813785682081"><ele>566.0</ele><time>2026-05-01T14:19:56Z</time></trkpt><trkpt lat="39.68785063109548" lon="9.147961726569518"><ele>563.5</ele><time>2026-05-01T14:19:57Z</time></trkpt><trkpt lat="39.68782483483934" lon="9.147793538911875"><ele>561.0</ele><time>2026-05-01T14:19:58Z</time></trkpt><trkpt lat="39.687773455634165" lon="9.147626750901237"><ele>562.3333333333334</ele><time>2026-05-01T14:19:59Z</time></trkpt><trkpt lat="39.68769398994571" lon="9.147464866536582"><ele>563.6666666666667</ele><time>2026-05-01T14:20:00Z</time></trkpt><trkpt lat="39.687587695325085" lon="9.147318226954887"><ele>565.0</ele><time>2026-05-01T14:20:01Z</time></trkpt><trkpt lat="39.68746213459812" lon="9.147192432241178"><ele>565.0</ele><time>2026-05-01T14:20:02Z</time></trkpt><trkpt lat="39.68731511261413" lon="9.147087451769899"><ele>565.0</ele><time>2026-05-01T14:20:03Z</time></trkpt><trkpt lat="39.68716613041711" lon="9.146970708770343"><ele>565.0</ele><time>2026-05-01T14:20:04Z</time></trkpt><trkpt lat="39.68700322678356" lon="9.146875343457799"><ele>567.6666666666667</ele><time>2026-05-01T14:20:05Z</time></trkpt><trkpt lat="39.686837063566614" lon="9.146788451894167"><ele>570.3333333333334</ele><time>2026-05-01T14:20:06Z</time></trkpt><trkpt lat="39.68666518406232" lon="9.14671171891533"><ele>573.0</ele><time>2026-05-01T14:20:07Z</time></trkpt><trkpt lat="39.68648524478158" lon="9.146660947290341"><ele>573.0</ele><time>2026-05-01T14:20:08Z</time></trkpt><trkpt lat="39.686313483325414" lon="9.146576077798537"><ele>573.0</ele><time>2026-05-01T14:20:09Z</time></trkpt><trkpt lat="39.686154158626735" lon="9.14646357977953"><ele>573.0</ele><time>2026-05-01T14:20:10Z</time></trkpt><trkpt lat="39.68600035606957" lon="9.146342440329208"><ele>569.3333333333334</ele><time>2026-05-01T14:20:11Z</time></trkpt><trkpt lat="39.685838370260974" lon="9.146263305176593"><ele>565.6666666666667</ele><time>2026-05-01T14:20:12Z</time></trkpt><trkpt lat="39.68567213743995" lon="9.146246549472595"><ele>562.0</ele><time>2026-05-01T14:20:13Z</time></trkpt><trkpt lat="39.68550304816565" lon="9.146237833751071"><ele>562.0</ele><time>2026-05-01T14:20:14Z</time></trkpt><trkpt lat="39.685336434576605" lon="9.146292655981371"><ele>562.0</ele><time>2026-05-01T14:20:15Z</time></trkpt><trkpt lat="39.68518771528488" lon="9.146350196796162"><ele>562.0</ele><time>2026-05-01T14:20:16Z</time></trkpt><trkpt lat="39.68505042168169" lon="9.146393676854549"><ele>561.6666666666667</ele><time>2026-05-01T14:20:17Z</time></trkpt><trkpt lat="39.684901739054446" lon="9.14639736798616"><ele>561.3333333333334</ele><time>2026-05-01T14:20:18Z</time></trkpt><trkpt lat="39.684769800077575" lon="9.14628736446418"><ele>561.0</ele><time>2026-05-01T14:20:19Z</time></trkpt><trkpt lat="39.684650673678476" lon="9.146150245776381"><ele>561.0</ele><time>2026-05-01T14:20:20Z</time></trkpt><trkpt lat="39.68450889012096" lon="9.14602662355008"><ele>561.0</ele><time>2026-05-01T14:20:21Z</time></trkpt><trkpt lat="39.684355199411996" lon="9.145908031751624"><ele>561.0</ele><time>2026-05-01T14:20:22Z</time></trkpt><trkpt lat="39.684190645042754" lon="9.145787599314684"><ele>559.3333333333334</ele><time>2026-05-01T14:20:23Z</time></trkpt><trkpt lat="39.684012718470875" lon="9.145703082726708"><ele>557.6666666666667</ele><time>2026-05-01T14:20:24Z</time></trkpt><trkpt lat="39.68382552564418" lon="9.1456505375819"><ele>556.0</ele><time>2026-05-01T14:20:25Z</time></trkpt><trkpt lat="39.683631975020745" lon="9.145646149691306"><ele>555.0</ele><time>2026-05-01T14:20:26Z</time></trkpt><trkpt lat="39.6834488554845" lon="9.14569813493798"><ele>554.0</ele><time>2026-05-01T14:20:27Z</time></trkpt><trkpt lat="39.683280329587866" lon="9.145786615033483"><ele>553.0</ele><time>2026-05-01T14:20:28Z</time></trkpt><trkpt lat="39.68313021551536" lon="9.145909541327764"><ele>555.6666666666667</ele><time>2026-05-01T14:20:29Z</time></trkpt><trkpt lat="39.682993534691846" lon="9.146048435793933"><ele>558.3333333333334</ele><time>2026-05-01T14:20:30Z</time></trkpt><trkpt lat="39.68286597134452" lon="9.146187980016455"><ele>561.0</ele><time>2026-05-01T14:20:31Z</time></trkpt><trkpt lat="39.682746038122346" lon="9.146310682758193"><ele>561.0</ele><time>2026-05-01T14:20:32Z</time></trkpt><trkpt lat="39.68262250887974" lon="9.146410978944324"><ele>561.0</ele><time>2026-05-01T14:20:33Z</time></trkpt><trkpt lat="39.682482668862136" lon="9.146429999618189"><ele>561.0</ele><time>2026-05-01T14:20:34Z</time></trkpt><trkpt lat="39.68236009031281" lon="9.146380601254851"><ele>561.0</ele><time>2026-05-01T14:20:35Z</time></trkpt><trkpt lat="39.68226841874984" lon="9.146263351998718"><ele>561.0</ele><time>2026-05-01T14:20:36Z</time></trkpt><trkpt lat="39.6822128658259" lon="9.14610350311569"><ele>561.0</ele><time>2026-05-01T14:20:37Z</time></trkpt><trkpt lat="39.68216811056013" lon="9.145924604352599"><ele>561.0</ele><time>2026-05-01T14:20:38Z</time></trkpt><trkpt lat="39.68209140567209" lon="9.145755496003057"><ele>561.0</ele><time>2026-05-01T14:20:39Z</time></trkpt><trkpt lat="39.68197202446333" lon="9.145603232117884"><ele>559.6666666666666</ele><time>2026-05-01T14:20:40Z</time></trkpt><trkpt lat="39.68183457661637" lon="9.145467627447099"><ele>558.3333333333333</ele><time>2026-05-01T14:20:41Z</time></trkpt><trkpt lat="39.68168005856613" lon="9.145336775383782"><ele>557.0</ele><time>2026-05-01T14:20:42Z</time></trkpt><trkpt lat="39.68151656038271" lon="9.145218044811328"><ele>557.0</ele><time>2026-05-01T14:20:43Z</time></trkpt><trkpt lat="39.68134295124541" lon="9.145126085396031"><ele>557.0</ele><time>2026-05-01T14:20:44Z</time></trkpt><trkpt lat="39.68115926996381" lon="9.145061134831385"><ele>557.0</ele><time>2026-05-01T14:20:45Z</time></trkpt><trkpt lat="39.6809820942464" lon="9.144985563742054"><ele>556.6666666666666</ele><time>2026-05-01T14:20:46Z</time></trkpt><trkpt lat="39.68080045191043" lon="9.144948073712072"><ele>556.3333333333334</ele><time>2026-05-01T14:20:47Z</time></trkpt><trkpt lat="39.68062758645638" lon="9.144869895385135"><ele>556.0</ele><time>2026-05-01T14:20:48Z</time></trkpt><trkpt lat="39.680453510970914" lon="9.144795950054853"><ele>552.6666666666667</ele><time>2026-05-01T14:20:49Z</time></trkpt><trkpt lat="39.680277565542234" lon="9.144747649869002"><ele>549.3333333333334</ele><time>2026-05-01T14:20:50Z</time></trkpt><trkpt lat="39.680097451642226" lon="9.14474022413702"><ele>546.0</ele><time>2026-05-01T14:20:51Z</time></trkpt><trkpt lat="39.679922193851844" lon="9.144748329326479"><ele>544.3333333333334</ele><time>2026-05-01T14:20:52Z</time></trkpt><trkpt lat="39.679753947966326" lon="9.144814819787708"><ele>542.6666666666667</ele><time>2026-05-01T14:20:53Z</time></trkpt><trkpt lat="39.67959568878354" lon="9.144910853586758"><ele>541.0</ele><time>2026-05-01T14:20:54Z</time></trkpt><trkpt lat="39.67945427481032" lon="9.145016508935436"><ele>542.75</ele><time>2026-05-01T14:20:55Z</time></trkpt><trkpt lat="39.679324998320794" lon="9.14509070484226"><ele>544.5</ele><time>2026-05-01T14:20:56Z</time></trkpt><trkpt lat="39.67919572659002" lon="9.14510009475875"><ele>546.25</ele><time>2026-05-01T14:20:57Z</time></trkpt><trkpt lat="39.67908839691598" lon="9.145024697372701"><ele>548.0</ele><time>2026-05-01T14:20:58Z</time></trkpt><trkpt lat="39.67898939115043" lon="9.144914038084835"><ele>545.5</ele><time>2026-05-01T14:20:59Z</time></trkpt><trkpt lat="39.678923602880964" lon="9.144740670396873"><ele>543.0</ele><time>2026-05-01T14:21:00Z</time></trkpt><trkpt lat="39.678837559523714" lon="9.144585462687544"><ele>540.5</ele><time>2026-05-01T14:21:01Z</time></trkpt><trkpt lat="39.67872632819122" lon="9.14445893691676"><ele>538.0</ele><time>2026-05-01T14:21:02Z</time></trkpt><trkpt lat="39.67860071195712" lon="9.144375676744755"><ele>537.75</ele><time>2026-05-01T14:21:03Z</time></trkpt><trkpt lat="39.678467756308486" lon="9.144360425578887"><ele>537.5</ele><time>2026-05-01T14:21:04Z</time></trkpt><trkpt lat="39.67833859850007" lon="9.14441165419444"><ele>537.25</ele><time>2026-05-01T14:21:05Z</time></trkpt><trkpt lat="39.67820741667507" lon="9.144519033718904"><ele>537.0</ele><time>2026-05-01T14:21:06Z</time></trkpt><trkpt lat="39.6780658056205" lon="9.144641758530684"><ele>537.0</ele><time>2026-05-01T14:21:07Z</time></trkpt><trkpt lat="39.67793147483784" lon="9.144762593215571"><ele>537.0</ele><time>2026-05-01T14:21:08Z</time></trkpt><trkpt lat="39.677797423747855" lon="9.144882581750135"><ele>537.0</ele><time>2026-05-01T14:21:09Z</time></trkpt><trkpt lat="39.67766952042281" lon="9.14498763816811"><ele>537.25</ele><time>2026-05-01T14:21:10Z</time></trkpt><trkpt lat="39.67754095313138" lon="9.14506487217807"><ele>537.5</ele><time>2026-05-01T14:21:11Z</time></trkpt><trkpt lat="39.67740026834653" lon="9.145059866581908"><ele>537.75</ele><time>2026-05-01T14:21:12Z</time></trkpt><trkpt lat="39.677275600541435" lon="9.14497431581167"><ele>538.0</ele><time>2026-05-01T14:21:13Z</time></trkpt><trkpt lat="39.677174393691686" lon="9.144828162033907"><ele>535.3333333333334</ele><time>2026-05-01T14:21:14Z</time></trkpt><trkpt lat="39.67709305851743" lon="9.144648766462314"><ele>532.6666666666666</ele><time>2026-05-01T14:21:15Z</time></trkpt><trkpt lat="39.6769875550517" lon="9.144477852684055"><ele>530.0</ele><time>2026-05-01T14:21:16Z</time></trkpt><trkpt lat="39.67686140049534" lon="9.144341514543505"><ele>530.0</ele><time>2026-05-01T14:21:17Z</time></trkpt><trkpt lat="39.67670983008904" lon="9.14423151663763"><ele>530.0</ele><time>2026-05-01T14:21:18Z</time></trkpt><trkpt lat="39.676543240003944" lon="9.144150012142362"><ele>530.0</ele><time>2026-05-01T14:21:19Z</time></trkpt><trkpt lat="39.67637291548892" lon="9.144118879932739"><ele>530.0</ele><time>2026-05-01T14:21:20Z</time></trkpt><trkpt lat="39.67620917864006" lon="9.14409743447623"><ele>530.0</ele><time>2026-05-01T14:21:21Z</time></trkpt><trkpt lat="39.67605589510821" lon="9.144076698602426"><ele>530.0</ele><time>2026-05-01T14:21:22Z</time></trkpt><trkpt lat="39.675899087482534" lon="9.144026563933377"><ele>526.6666666666666</ele><time>2026-05-01T14:21:23Z</time></trkpt><trkpt lat="39.67575697055657" lon="9.143899614306518"><ele>523.3333333333334</ele><time>2026-05-01T14:21:24Z</time></trkpt><trkpt lat="39.67563734956248" lon="9.143723883726258"><ele>520.0</ele><time>2026-05-01T14:21:25Z</time></trkpt><trkpt lat="39.675538215778296" lon="9.1435253665021"><ele>520.0</ele><time>2026-05-01T14:21:26Z</time></trkpt><trkpt lat="39.67544758799368" lon="9.143324068431982"><ele>520.0</ele><time>2026-05-01T14:21:27Z</time></trkpt><trkpt lat="39.67534990436533" lon="9.143138022607049"><ele>520.0</ele><time>2026-05-01T14:21:28Z</time></trkpt><trkpt lat="39.67523069893963" lon="9.142996776351183"><ele>517.6666666666667</ele><time>2026-05-01T14:21:29Z</time></trkpt><trkpt lat="39.67508499551233" lon="9.142918435182905"><ele>515.3333333333334</ele><time>2026-05-01T14:21:30Z</time></trkpt><trkpt lat="39.674923408253996" lon="9.142872718125291"><ele>513.0</ele><time>2026-05-01T14:21:31Z</time></trkpt><trkpt lat="39.6747552944613" lon="9.142843992473296"><ele>513.0</ele><time>2026-05-01T14:21:32Z</time></trkpt><trkpt lat="39.67458222732646" lon="9.142811391852618"><ele>513.0</ele><time>2026-05-01T14:21:33Z</time></trkpt><trkpt lat="39.67441988913808" lon="9.142710275542619"><ele>513.0</ele><time>2026-05-01T14:21:34Z</time></trkpt><trkpt lat="39.67426422496289" lon="9.142578796900292"><ele>512.6666666666666</ele><time>2026-05-01T14:21:35Z</time></trkpt><trkpt lat="39.674111307873055" lon="9.142427451692562"><ele>512.3333333333333</ele><time>2026-05-01T14:21:36Z</time></trkpt><trkpt lat="39.673967326387114" lon="9.142267852271065"><ele>512.0</ele><time>2026-05-01T14:21:37Z</time></trkpt><trkpt lat="39.67382422723227" lon="9.142091149664646"><ele>511.0</ele><time>2026-05-01T14:21:38Z</time></trkpt><trkpt lat="39.67368524846674" lon="9.141909860324407"><ele>510.0</ele><time>2026-05-01T14:21:39Z</time></trkpt><trkpt lat="39.673542052307646" lon="9.141726821036281"><ele>509.0</ele><time>2026-05-01T14:21:40Z</time></trkpt><trkpt lat="39.67339034259088" lon="9.141559901730057"><ele>508.3333333333333</ele><time>2026-05-01T14:21:41Z</time></trkpt><trkpt lat="39.67323190152408" lon="9.141407838267126"><ele>507.66666666666663</ele><time>2026-05-01T14:21:42Z</time></trkpt><trkpt lat="39.67308927260374" lon="9.141246315077293"><ele>507.0</ele><time>2026-05-01T14:21:43Z</time></trkpt><trkpt lat="39.67294240705074" lon="9.14112826450505"><ele>507.0</ele><time>2026-05-01T14:21:44Z</time></trkpt><trkpt lat="39.67281461031782" lon="9.14100997566811"><ele>507.0</ele><time>2026-05-01T14:21:45Z</time></trkpt><trkpt lat="39.67269898467229" lon="9.140910313214714"><ele>507.0</ele><time>2026-05-01T14:21:46Z</time></trkpt><trkpt lat="39.67256705792304" lon="9.140893308162957"><ele>507.0</ele><time>2026-05-01T14:21:47Z</time></trkpt><trkpt lat="39.67245491421009" lon="9.140831058114873"><ele>507.0</ele><time>2026-05-01T14:21:48Z</time></trkpt><trkpt lat="39.672374637770616" lon="9.140694117949792"><ele>507.0</ele><time>2026-05-01T14:21:49Z</time></trkpt><trkpt lat="39.672284749067565" lon="9.140551533251795"><ele>507.0</ele><time>2026-05-01T14:21:50Z</time></trkpt><trkpt lat="39.67218496945079" lon="9.140410146752384"><ele>507.0</ele><time>2026-05-01T14:21:51Z</time></trkpt><trkpt lat="39.672062272854" lon="9.140290495578704"><ele>507.0</ele><time>2026-05-01T14:21:52Z</time></trkpt><trkpt lat="39.671940746174805" lon="9.140177454061803"><ele>507.0</ele><time>2026-05-01T14:21:53Z</time></trkpt><trkpt lat="39.67182158801727" lon="9.140066363837578"><ele>507.0</ele><time>2026-05-01T14:21:54Z</time></trkpt><trkpt lat="39.6717056913912" lon="9.139952250686322"><ele>507.0</ele><time>2026-05-01T14:21:55Z</time></trkpt><trkpt lat="39.67158691558819" lon="9.139838021610478"><ele>506.66666666666663</ele><time>2026-05-01T14:21:56Z</time></trkpt><trkpt lat="39.67146263575547" lon="9.139720316255529"><ele>506.3333333333333</ele><time>2026-05-01T14:21:57Z</time></trkpt><trkpt lat="39.67133354711761" lon="9.139600280064219"><ele>506.0</ele><time>2026-05-01T14:21:58Z</time></trkpt><trkpt lat="39.67120082892079" lon="9.139475190815075"><ele>505.3333333333333</ele><time>2026-05-01T14:21:59Z</time></trkpt><trkpt lat="39.67106082839558" lon="9.139348643918552"><ele>504.66666666666663</ele><time>2026-05-01T14:22:00Z</time></trkpt><trkpt lat="39.67091320088704" lon="9.139238946105337"><ele>504.0</ele><time>2026-05-01T14:22:01Z</time></trkpt><trkpt lat="39.6707533630161" lon="9.139143844485433"><ele>503.66666666666663</ele><time>2026-05-01T14:22:02Z</time></trkpt><trkpt lat="39.67058672904762" lon="9.139040685709933"><ele>503.3333333333333</ele><time>2026-05-01T14:22:03Z</time></trkpt><trkpt lat="39.670406493413644" lon="9.138966405439382"><ele>503.0</ele><time>2026-05-01T14:22:04Z</time></trkpt><trkpt lat="39.67021927775961" lon="9.138897116610888"><ele>502.0</ele><time>2026-05-01T14:22:05Z</time></trkpt><trkpt lat="39.67002612520931" lon="9.138846357408235"><ele>501.0</ele><time>2026-05-01T14:22:06Z</time></trkpt><trkpt lat="39.66983401680796" lon="9.138771548846123"><ele>500.0</ele><time>2026-05-01T14:22:07Z</time></trkpt><trkpt lat="39.66964195907268" lon="9.138696121381644"><ele>500.0</ele><time>2026-05-01T14:22:08Z</time></trkpt><trkpt lat="39.66944924684734" lon="9.13862168599802"><ele>500.0</ele><time>2026-05-01T14:22:09Z</time></trkpt><trkpt lat="39.66925851118073" lon="9.138548798113643"><ele>500.0</ele><time>2026-05-01T14:22:10Z</time></trkpt><trkpt lat="39.66906621902075" lon="9.138475752271221"><ele>501.0</ele><time>2026-05-01T14:22:11Z</time></trkpt><trkpt lat="39.66887154874312" lon="9.138403806092324"><ele>502.0</ele><time>2026-05-01T14:22:12Z</time></trkpt><trkpt lat="39.66867743670752" lon="9.138331070047444"><ele>503.0</ele><time>2026-05-01T14:22:13Z</time></trkpt><trkpt lat="39.66848088868114" lon="9.138259464224516"><ele>503.3333333333333</ele><time>2026-05-01T14:22:14Z</time></trkpt><trkpt lat="39.6682840389244" lon="9.13818752454865"><ele>503.66666666666663</ele><time>2026-05-01T14:22:15Z</time></trkpt><trkpt lat="39.668087360168286" lon="9.138116659024188"><ele>504.0</ele><time>2026-05-01T14:22:16Z</time></trkpt><trkpt lat="39.66788938130762" lon="9.138046661917082"><ele>504.33333333333337</ele><time>2026-05-01T14:22:17Z</time></trkpt><trkpt lat="39.667691658271366" lon="9.137980527876884"><ele>504.6666666666667</ele><time>2026-05-01T14:22:18Z</time></trkpt><trkpt lat="39.667491741579774" lon="9.137913859282623"><ele>505.0</ele><time>2026-05-01T14:22:19Z</time></trkpt><trkpt lat="39.66729183686932" lon="9.137843450772138"><ele>505.0</ele><time>2026-05-01T14:22:20Z</time></trkpt><trkpt lat="39.66709524186861" lon="9.137770514552004"><ele>505.0</ele><time>2026-05-01T14:22:21Z</time></trkpt><trkpt lat="39.66689970215521" lon="9.137695973094242"><ele>505.0</ele><time>2026-05-01T14:22:22Z</time></trkpt><trkpt lat="39.66670900981533" lon="9.137610999186954"><ele>504.6666666666667</ele><time>2026-05-01T14:22:23Z</time></trkpt><trkpt lat="39.666527960675616" lon="9.1375052957062"><ele>504.33333333333337</ele><time>2026-05-01T14:22:24Z</time></trkpt><trkpt lat="39.66635451690946" lon="9.13735482386536"><ele>504.0</ele><time>2026-05-01T14:22:25Z</time></trkpt><trkpt lat="39.6661979827774" lon="9.137179418683116"><ele>503.0</ele><time>2026-05-01T14:22:26Z</time></trkpt><trkpt lat="39.66605386047101" lon="9.136982087698597"><ele>502.0</ele><time>2026-05-01T14:22:27Z</time></trkpt><trkpt lat="39.665918066106975" lon="9.136778695900663"><ele>501.0</ele><time>2026-05-01T14:22:28Z</time></trkpt><trkpt lat="39.66578112316589" lon="9.136580027432178"><ele>499.0</ele><time>2026-05-01T14:22:29Z</time></trkpt><trkpt lat="39.665631081042825" lon="9.136393001098371"><ele>497.0</ele><time>2026-05-01T14:22:30Z</time></trkpt><trkpt lat="39.665464427166484" lon="9.136244700445742"><ele>495.0</ele><time>2026-05-01T14:22:31Z</time></trkpt><trkpt lat="39.66528380847375" lon="9.136137301813223"><ele>496.66666666666663</ele><time>2026-05-01T14:22:32Z</time></trkpt><trkpt lat="39.66509748485936" lon="9.136044597091747"><ele>498.3333333333333</ele><time>2026-05-01T14:22:33Z</time></trkpt><trkpt lat="39.66491990995366" lon="9.135951698822105"><ele>500.0</ele><time>2026-05-01T14:22:34Z</time></trkpt><trkpt lat="39.66475846865897" lon="9.135823194059936"><ele>500.3333333333333</ele><time>2026-05-01T14:22:35Z</time></trkpt><trkpt lat="39.66461846376139" lon="9.135642352779954"><ele>500.66666666666663</ele><time>2026-05-01T14:22:36Z</time></trkpt><trkpt lat="39.664499457158705" lon="9.135441060526908"><ele>501.0</ele><time>2026-05-01T14:22:37Z</time></trkpt><trkpt lat="39.66437623794437" lon="9.135241727601374"><ele>501.0</ele><time>2026-05-01T14:22:38Z</time></trkpt><trkpt lat="39.664241273263436" lon="9.135058255943264"><ele>501.0</ele><time>2026-05-01T14:22:39Z</time></trkpt><trkpt lat="39.66409582211795" lon="9.134876500969533"><ele>501.0</ele><time>2026-05-01T14:22:40Z</time></trkpt><trkpt lat="39.663950230474846" lon="9.134698414679022"><ele>500.66666666666663</ele><time>2026-05-01T14:22:41Z</time></trkpt><trkpt lat="39.66380360923358" lon="9.134521855770764"><ele>500.3333333333333</ele><time>2026-05-01T14:22:42Z</time></trkpt><trkpt lat="39.66365448446996" lon="9.134350332607623"><ele>500.0</ele><time>2026-05-01T14:22:43Z</time></trkpt><trkpt lat="39.66350113960184" lon="9.134180972838681"><ele>497.66666666666663</ele><time>2026-05-01T14:22:44Z</time></trkpt><trkpt lat="39.66334490969971" lon="9.134018642971947"><ele>495.33333333333337</ele><time>2026-05-01T14:22:45Z</time></trkpt><trkpt lat="39.663183083888626" lon="9.13386399428986"><ele>493.0</ele><time>2026-05-01T14:22:46Z</time></trkpt><trkpt lat="39.663019261849996" lon="9.133722666360667"><ele>493.0</ele><time>2026-05-01T14:22:47Z</time></trkpt><trkpt lat="39.66285588105033" lon="9.133605533773723"><ele>493.0</ele><time>2026-05-01T14:22:48Z</time></trkpt><trkpt lat="39.66269349040294" lon="9.133512421065372"><ele>493.0</ele><time>2026-05-01T14:22:49Z</time></trkpt><trkpt lat="39.66253670425239" lon="9.133429692395481"><ele>492.75</ele><time>2026-05-01T14:22:50Z</time></trkpt><trkpt lat="39.662393655359224" lon="9.13334692857288"><ele>492.5</ele><time>2026-05-01T14:22:51Z</time></trkpt><trkpt lat="39.66226720237026" lon="9.133253114381152"><ele>492.25</ele><time>2026-05-01T14:22:52Z</time></trkpt><trkpt lat="39.66215989891767" lon="9.133159199946213"><ele>492.0</ele><time>2026-05-01T14:22:53Z</time></trkpt><trkpt lat="39.66207184456574" lon="9.133054278618875"><ele>492.0</ele><time>2026-05-01T14:22:54Z</time></trkpt><trkpt lat="39.6619956611038" lon="9.132939455490142"><ele>492.00000000000006</ele><time>2026-05-01T14:22:55Z</time></trkpt><trkpt lat="39.66193518933616" lon="9.132820315568445"><ele>492.00000000000006</ele><time>2026-05-01T14:22:56Z</time></trkpt><trkpt lat="39.661885694590985" lon="9.132698056899692"><ele>492.0</ele><time>2026-05-01T14:22:57Z</time></trkpt><trkpt lat="39.661843402271" lon="9.132575371436735"><ele>492.0</ele><time>2026-05-01T14:22:58Z</time></trkpt><trkpt lat="39.66180296558952" lon="9.132459257733911"><ele>492.0</ele><time>2026-05-01T14:22:59Z</time></trkpt><trkpt lat="39.66176536555575" lon="9.132345202534486"><ele>492.0</ele><time>2026-05-01T14:23:00Z</time></trkpt><trkpt lat="39.661729395583826" lon="9.132234614070208"><ele>492.0</ele><time>2026-05-01T14:23:01Z</time></trkpt><trkpt lat="39.66169550250868" lon="9.132139786285162"><ele>492.0</ele><time>2026-05-01T14:23:02Z</time></trkpt><trkpt lat="39.66166924847911" lon="9.13206207900894"><ele>492.0</ele><time>2026-05-01T14:23:03Z</time></trkpt><trkpt lat="39.66161234817878" lon="9.131940310011288"><ele>492.0</ele><time>2026-05-01T14:23:05Z</time></trkpt><trkpt lat="39.6614778567129" lon="9.131902367155478"><ele>492.0</ele><time>2026-05-01T14:23:07Z</time></trkpt><trkpt lat="39.66139756594544" lon="9.131889010868862"><ele>492.00000000000006</ele><time>2026-05-01T14:23:08Z</time></trkpt><trkpt lat="39.66131074580242" lon="9.131866384778705"><ele>492.00000000000006</ele><time>2026-05-01T14:23:09Z</time></trkpt><trkpt lat="39.66121500872649" lon="9.1318373327402"><ele>492.0</ele><time>2026-05-01T14:23:10Z</time></trkpt><trkpt lat="39.66111169271717" lon="9.131813143641947"><ele>492.0</ele><time>2026-05-01T14:23:11Z</time></trkpt><trkpt lat="39.66100385293021" lon="9.131781207968247"><ele>492.0</ele><time>2026-05-01T14:23:12Z</time></trkpt><trkpt lat="39.66088763949128" lon="9.131751197702076"><ele>492.0</ele><time>2026-05-01T14:23:13Z</time></trkpt><trkpt lat="39.66076864585128" lon="9.131726425739087"><ele>492.0</ele><time>2026-05-01T14:23:14Z</time></trkpt><trkpt lat="39.66065852529667" lon="9.13170652787549"><ele>492.0</ele><time>2026-05-01T14:23:15Z</time></trkpt><trkpt lat="39.660544631315254" lon="9.13168042640752"><ele>492.0</ele><time>2026-05-01T14:23:16Z</time></trkpt><trkpt lat="39.660429844356784" lon="9.131647386861074"><ele>492.0</ele><time>2026-05-01T14:23:17Z</time></trkpt><trkpt lat="39.660313561008984" lon="9.131614150434544"><ele>492.0</ele><time>2026-05-01T14:23:18Z</time></trkpt><trkpt lat="39.66019902292729" lon="9.131580682439635"><ele>492.0</ele><time>2026-05-01T14:23:19Z</time></trkpt><trkpt lat="39.66009045066665" lon="9.13153037138411"><ele>491.8</ele><time>2026-05-01T14:23:20Z</time></trkpt><trkpt lat="39.65999563558042" lon="9.13145790744505"><ele>491.6</ele><time>2026-05-01T14:23:21Z</time></trkpt><trkpt lat="39.65991177831496" lon="9.131369330975998"><ele>491.40000000000003</ele><time>2026-05-01T14:23:22Z</time></trkpt><trkpt lat="39.65983131152842" lon="9.131283679781713"><ele>491.20000000000005</ele><time>2026-05-01T14:23:23Z</time></trkpt><trkpt lat="39.65975355939399" lon="9.13119832102675"><ele>491.0</ele><time>2026-05-01T14:23:24Z</time></trkpt><trkpt lat="39.659677648866484" lon="9.131112281159245"><ele>491.0</ele><time>2026-05-01T14:23:25Z</time></trkpt><trkpt lat="39.65960404931553" lon="9.131021899705773"><ele>491.0</ele><time>2026-05-01T14:23:26Z</time></trkpt><trkpt lat="39.6595240917242" lon="9.130928046443517"><ele>491.0</ele><time>2026-05-01T14:23:27Z</time></trkpt><trkpt lat="39.65944038028645" lon="9.130832340909253"><ele>491.0</ele><time>2026-05-01T14:23:28Z</time></trkpt><trkpt lat="39.65935485186509" lon="9.130732839705942"><ele>491.0</ele><time>2026-05-01T14:23:29Z</time></trkpt><trkpt lat="39.65926714733143" lon="9.130628147463804"><ele>490.75</ele><time>2026-05-01T14:23:30Z</time></trkpt><trkpt lat="39.65917804456115" lon="9.130518243051874"><ele>490.5</ele><time>2026-05-01T14:23:31Z</time></trkpt><trkpt lat="39.6590770343644" lon="9.130423103528143"><ele>490.25</ele><time>2026-05-01T14:23:32Z</time></trkpt><trkpt lat="39.658962381225535" lon="9.130357021749187"><ele>490.0</ele><time>2026-05-01T14:23:33Z</time></trkpt><trkpt lat="39.65884189877439" lon="9.130306101805953"><ele>490.0</ele><time>2026-05-01T14:23:34Z</time></trkpt><trkpt lat="39.658717697206725" lon="9.13025936376189"><ele>490.0</ele><time>2026-05-01T14:23:35Z</time></trkpt><trkpt lat="39.658594068981174" lon="9.130214734764955"><ele>490.0</ele><time>2026-05-01T14:23:36Z</time></trkpt><trkpt lat="39.658471689815876" lon="9.130170811719903"><ele>490.0</ele><time>2026-05-01T14:23:37Z</time></trkpt><trkpt lat="39.65834881751696" lon="9.130127833855909"><ele>489.5</ele><time>2026-05-01T14:23:38Z</time></trkpt><trkpt lat="39.658228438213115" lon="9.13008700988406"><ele>489.0</ele><time>2026-05-01T14:23:39Z</time></trkpt><trkpt lat="39.65811030865704" lon="9.130044665019339"><ele>488.5</ele><time>2026-05-01T14:23:40Z</time></trkpt><trkpt lat="39.65799946319589" lon="9.129980998838104"><ele>488.0</ele><time>2026-05-01T14:23:41Z</time></trkpt><trkpt lat="39.65788422395574" lon="9.129937095811037"><ele>488.0</ele><time>2026-05-01T14:23:42Z</time></trkpt><trkpt lat="39.65776854226191" lon="9.129893935713872"><ele>488.0</ele><time>2026-05-01T14:23:43Z</time></trkpt><trkpt lat="39.65765163525745" lon="9.129850997645944"><ele>488.0</ele><time>2026-05-01T14:23:44Z</time></trkpt><trkpt lat="39.657536368256324" lon="9.129808661923887"><ele>488.0</ele><time>2026-05-01T14:23:45Z</time></trkpt><trkpt lat="39.657418511237566" lon="9.129765374930948"><ele>488.25</ele><time>2026-05-01T14:23:46Z</time></trkpt><trkpt lat="39.65729917265651" lon="9.129721423628236"><ele>488.5</ele><time>2026-05-01T14:23:47Z</time></trkpt><trkpt lat="39.657179898892906" lon="9.129676798129568"><ele>488.75</ele><time>2026-05-01T14:23:48Z</time></trkpt><trkpt lat="39.65705924201297" lon="9.129631655098002"><ele>489.0</ele><time>2026-05-01T14:23:49Z</time></trkpt><trkpt lat="39.656940391329655" lon="9.129587017838045"><ele>488.0</ele><time>2026-05-01T14:23:50Z</time></trkpt><trkpt lat="39.65682330208055" lon="9.129544653082784"><ele>487.0</ele><time>2026-05-01T14:23:51Z</time></trkpt><trkpt lat="39.6567061467673" lon="9.129503028097782"><ele>486.0</ele><time>2026-05-01T14:23:52Z</time></trkpt><trkpt lat="39.65658970089667" lon="9.129462531825622"><ele>485.0</ele><time>2026-05-01T14:23:53Z</time></trkpt><trkpt lat="39.65647894937983" lon="9.129424458142202"><ele>485.0</ele><time>2026-05-01T14:23:54Z</time></trkpt><trkpt lat="39.6563667783995" lon="9.129412597540506"><ele>485.0</ele><time>2026-05-01T14:23:55Z</time></trkpt><trkpt lat="39.65626635659656" lon="9.129361782871358"><ele>485.0</ele><time>2026-05-01T14:23:56Z</time></trkpt><trkpt lat="39.65616680463815" lon="9.129336467883697"><ele>485.0</ele><time>2026-05-01T14:23:57Z</time></trkpt><trkpt lat="39.65607005038556" lon="9.129311864173816"><ele>485.0</ele><time>2026-05-01T14:23:58Z</time></trkpt><trkpt lat="39.65596775672314" lon="9.12931401787938"><ele>484.4</ele><time>2026-05-01T14:23:59Z</time></trkpt><trkpt lat="39.65587266753553" lon="9.129286715437742"><ele>483.8</ele><time>2026-05-01T14:24:00Z</time></trkpt><trkpt lat="39.655773664524894" lon="9.129269742308647"><ele>483.20000000000005</ele><time>2026-05-01T14:24:01Z</time></trkpt><trkpt lat="39.65567610558574" lon="9.129234866866124"><ele>482.6</ele><time>2026-05-01T14:24:02Z</time></trkpt><trkpt lat="39.655574886276504" lon="9.129214316699903"><ele>482.0</ele><time>2026-05-01T14:24:03Z</time></trkpt><trkpt lat="39.655474311677764" lon="9.129193897429257"><ele>482.0</ele><time>2026-05-01T14:24:04Z</time></trkpt><trkpt lat="39.655371789884306" lon="9.129196493667813"><ele>482.00000000000006</ele><time>2026-05-01T14:24:05Z</time></trkpt><trkpt lat="39.65527594545521" lon="9.129161731711596"><ele>482.00000000000006</ele><time>2026-05-01T14:24:06Z</time></trkpt><trkpt lat="39.655176634501544" lon="9.129163891606177"><ele>482.0</ele><time>2026-05-01T14:24:07Z</time></trkpt><trkpt lat="39.65508352670418" lon="9.129208844987284"><ele>482.0</ele><time>2026-05-01T14:24:08Z</time></trkpt><trkpt lat="39.6550009378715" lon="9.12926828610225"><ele>481.66666666666663</ele><time>2026-05-01T14:24:09Z</time></trkpt><trkpt lat="39.65492401468309" lon="9.129321854928541"><ele>481.3333333333333</ele><time>2026-05-01T14:24:10Z</time></trkpt><trkpt lat="39.654844927851634" lon="9.129374610160149"><ele>481.0</ele><time>2026-05-01T14:24:11Z</time></trkpt><trkpt lat="39.654770406133316" lon="9.129424320191175"><ele>480.66666666666663</ele><time>2026-05-01T14:24:12Z</time></trkpt><trkpt lat="39.654696826057524" lon="9.129473402103956"><ele>480.3333333333333</ele><time>2026-05-01T14:24:13Z</time></trkpt><trkpt lat="39.6546267093812" lon="9.129520173738822"><ele>480.0</ele><time>2026-05-01T14:24:14Z</time></trkpt><trkpt lat="39.654560282023176" lon="9.129564863630849"><ele>480.0</ele><time>2026-05-01T14:24:15Z</time></trkpt><trkpt lat="39.65449433757527" lon="9.129609313995225"><ele>480.0</ele><time>2026-05-01T14:24:16Z</time></trkpt><trkpt lat="39.65443092108766" lon="9.129651966593686"><ele>480.0</ele><time>2026-05-01T14:24:17Z</time></trkpt><trkpt lat="39.65436661350114" lon="9.129695188683524"><ele>480.0</ele><time>2026-05-01T14:24:18Z</time></trkpt><trkpt lat="39.65430087822766" lon="9.129740408528642"><ele>480.0</ele><time>2026-05-01T14:24:19Z</time></trkpt><trkpt lat="39.6542329484744" lon="9.129786827718522"><ele>480.0</ele><time>2026-05-01T14:24:20Z</time></trkpt><trkpt lat="39.65416151208476" lon="9.129834585136658"><ele>479.6666666666667</ele><time>2026-05-01T14:24:21Z</time></trkpt><trkpt lat="39.65408832108091" lon="9.129879163540663"><ele>479.33333333333337</ele><time>2026-05-01T14:24:22Z</time></trkpt><trkpt lat="39.65401702034099" lon="9.129911346701084"><ele>479.0</ele><time>2026-05-01T14:24:23Z</time></trkpt><trkpt lat="39.65394283042494" lon="9.129938960757265"><ele>478.6666666666667</ele><time>2026-05-01T14:24:24Z</time></trkpt><trkpt lat="39.6538708472405" lon="9.129976847422364"><ele>478.33333333333337</ele><time>2026-05-01T14:24:25Z</time></trkpt><trkpt lat="39.65378539743278" lon="9.129982612657166"><ele>478.0</ele><time>2026-05-01T14:24:26Z</time></trkpt><trkpt lat="39.65370437055205" lon="9.130002786062633"><ele>478.00000000000006</ele><time>2026-05-01T14:24:27Z</time></trkpt><trkpt lat="39.65362633434882" lon="9.130021728356526"><ele>478.0</ele><time>2026-05-01T14:24:28Z</time></trkpt><trkpt lat="39.653552227998574" lon="9.130048221993984"><ele>478.00000000000006</ele><time>2026-05-01T14:24:29Z</time></trkpt><trkpt lat="39.653488147273634" lon="9.130077615400166"><ele>478.00000000000006</ele><time>2026-05-01T14:24:30Z</time></trkpt><trkpt lat="39.65344153579523" lon="9.130153106803094"><ele>478.0</ele><time>2026-05-01T14:24:31Z</time></trkpt><trkpt lat="39.6533816249109" lon="9.130195569151176"><ele>478.00000000000006</ele><time>2026-05-01T14:24:32Z</time></trkpt><trkpt lat="39.65333506482747" lon="9.130257333206076"><ele>478.00000000000006</ele><time>2026-05-01T14:24:33Z</time></trkpt><trkpt lat="39.65328873078443" lon="9.130316827049459"><ele>477.1428571428572</ele><time>2026-05-01T14:24:34Z</time></trkpt><trkpt lat="39.65323925293525" lon="9.130373107964791"><ele>476.28571428571433</ele><time>2026-05-01T14:24:35Z</time></trkpt><trkpt lat="39.65318558829517" lon="9.130433605956934"><ele>475.42857142857144</ele><time>2026-05-01T14:24:36Z</time></trkpt><trkpt lat="39.65313056461397" lon="9.130495636480607"><ele>474.5714285714286</ele><time>2026-05-01T14:24:37Z</time></trkpt><trkpt lat="39.653074734764196" lon="9.130563942820777"><ele>473.7142857142858</ele><time>2026-05-01T14:24:38Z</time></trkpt><trkpt lat="39.65302998794277" lon="9.130642355057928"><ele>472.85714285714283</ele><time>2026-05-01T14:24:39Z</time></trkpt><trkpt lat="39.65296743864718" lon="9.130687549872775"><ele>472.0</ele><time>2026-05-01T14:24:40Z</time></trkpt><trkpt lat="39.65290029778372" lon="9.130717042702166"><ele>472.1666666666667</ele><time>2026-05-01T14:24:41Z</time></trkpt><trkpt lat="39.65282979316592" lon="9.13073738060307"><ele>472.33333333333337</ele><time>2026-05-01T14:24:42Z</time></trkpt><trkpt lat="39.65275512556386" lon="9.130726095612635"><ele>472.5</ele><time>2026-05-01T14:24:43Z</time></trkpt><trkpt lat="39.652680441330695" lon="9.130730665298179"><ele>472.66666666666663</ele><time>2026-05-01T14:24:44Z</time></trkpt><trkpt lat="39.652604280209374" lon="9.130748975670954"><ele>472.8333333333333</ele><time>2026-05-01T14:24:45Z</time></trkpt><trkpt lat="39.652529092568415" lon="9.130742580131137"><ele>473.0</ele><time>2026-05-01T14:24:46Z</time></trkpt><trkpt lat="39.65245373384218" lon="9.13071381364937"><ele>471.8333333333333</ele><time>2026-05-01T14:24:47Z</time></trkpt><trkpt lat="39.652375874412755" lon="9.130706365422602"><ele>470.66666666666663</ele><time>2026-05-01T14:24:48Z</time></trkpt><trkpt lat="39.65229745735871" lon="9.130698863789215"><ele>469.5</ele><time>2026-05-01T14:24:49Z</time></trkpt><trkpt lat="39.65222050248832" lon="9.130692925569045"><ele>468.33333333333337</ele><time>2026-05-01T14:24:50Z</time></trkpt><trkpt lat="39.65214151901458" lon="9.130686096700895"><ele>467.1666666666667</ele><time>2026-05-01T14:24:51Z</time></trkpt><trkpt lat="39.65206367146764" lon="9.13068135732246"><ele>466.0</ele><time>2026-05-01T14:24:52Z</time></trkpt><trkpt lat="39.65198597871861" lon="9.130685304396447"><ele>465.6666666666667</ele><time>2026-05-01T14:24:53Z</time></trkpt><trkpt lat="39.65190561349235" lon="9.130701905142447"><ele>465.33333333333337</ele><time>2026-05-01T14:24:54Z</time></trkpt><trkpt lat="39.65182886223565" lon="9.130728548775316"><ele>465.0</ele><time>2026-05-01T14:24:55Z</time></trkpt><trkpt lat="39.65174955300122" lon="9.130758350047941"><ele>464.66666666666663</ele><time>2026-05-01T14:24:56Z</time></trkpt><trkpt lat="39.65166723352557" lon="9.130787301499698"><ele>464.3333333333333</ele><time>2026-05-01T14:24:57Z</time></trkpt><trkpt lat="39.6515774189662" lon="9.130817309174542"><ele>464.0</ele><time>2026-05-01T14:24:58Z</time></trkpt><trkpt lat="39.65148211307385" lon="9.13084922833086"><ele>464.0</ele><time>2026-05-01T14:24:59Z</time></trkpt><trkpt lat="39.651385823281075" lon="9.130881521661909"><ele>464.0</ele><time>2026-05-01T14:25:00Z</time></trkpt><trkpt lat="39.65129305680312" lon="9.130912633305472"><ele>464.0</ele><time>2026-05-01T14:25:01Z</time></trkpt><trkpt lat="39.65120125198427" lon="9.130943422477193"><ele>464.0</ele><time>2026-05-01T14:25:02Z</time></trkpt><trkpt lat="39.65111229946404" lon="9.130973255142285"><ele>464.0</ele><time>2026-05-01T14:25:03Z</time></trkpt><trkpt lat="39.65102634516716" lon="9.131003885939492"><ele>463.2</ele><time>2026-05-01T14:25:04Z</time></trkpt><trkpt lat="39.65094778308897" lon="9.131031676978958"><ele>462.4</ele><time>2026-05-01T14:25:05Z</time></trkpt><trkpt lat="39.650882819819394" lon="9.131077339873984"><ele>461.6</ele><time>2026-05-01T14:25:06Z</time></trkpt><trkpt lat="39.65080165470812" lon="9.131154123924231"><ele>460.8</ele><time>2026-05-01T14:25:08Z</time></trkpt><trkpt lat="39.65078945056907" lon="9.131256716289975"><ele>460.0</ele><time>2026-05-01T14:25:10Z</time></trkpt><trkpt lat="39.650835737222714" lon="9.131417113093429"><ele>459.8</ele><time>2026-05-01T14:25:12Z</time></trkpt><trkpt lat="39.65088034166631" lon="9.13158387319436"><ele>459.6</ele><time>2026-05-01T14:25:14Z</time></trkpt><trkpt lat="39.650897202057365" lon="9.131708997940166"><ele>459.4</ele><time>2026-05-01T14:25:15Z</time></trkpt><trkpt lat="39.65091308628309" lon="9.131825618750547"><ele>459.2</ele><time>2026-05-01T14:25:16Z</time></trkpt><trkpt lat="39.65091345405625" lon="9.13192844472194"><ele>459.0</ele><time>2026-05-01T14:25:17Z</time></trkpt><trkpt lat="39.65089564259138" lon="9.132020713232366"><ele>459.0</ele><time>2026-05-01T14:25:18Z</time></trkpt><trkpt lat="39.65088083689054" lon="9.132122001703118"><ele>459.0</ele><time>2026-05-01T14:25:19Z</time></trkpt><trkpt lat="39.65086771773511" lon="9.132211752427269"><ele>459.0</ele><time>2026-05-01T14:25:20Z</time></trkpt><trkpt lat="39.65085385919861" lon="9.13230656113761"><ele>459.0</ele><time>2026-05-01T14:25:21Z</time></trkpt><trkpt lat="39.65083947022603" lon="9.132404998763267"><ele>459.0</ele><time>2026-05-01T14:25:22Z</time></trkpt><trkpt lat="39.65082546772756" lon="9.13250079290982"><ele>459.0</ele><time>2026-05-01T14:25:23Z</time></trkpt><trkpt lat="39.65081259288619" lon="9.132585429902404"><ele>459.0</ele><time>2026-05-01T14:25:24Z</time></trkpt><trkpt lat="39.65080027442268" lon="9.132667440872474"><ele>459.0</ele><time>2026-05-01T14:25:25Z</time></trkpt><trkpt lat="39.65077964833731" lon="9.132823215146436"><ele>459.0</ele><time>2026-05-01T14:25:27Z</time></trkpt><trkpt lat="39.65076259855195" lon="9.132964478405446"><ele>459.0</ele><time>2026-05-01T14:25:29Z</time></trkpt><trkpt lat="39.650751510565655" lon="9.133056346283103"><ele>459.0</ele><time>2026-05-01T14:25:34Z</time></trkpt><trkpt lat="39.650886471040536" lon="9.13308429145078"><ele>459.0</ele><time>2026-05-01T14:25:36Z</time></trkpt><trkpt lat="39.65095846044929" lon="9.133057705137393"><ele>459.0</ele><time>2026-05-01T14:25:37Z</time></trkpt><trkpt lat="39.651038705308416" lon="9.133068601590386"><ele>459.0</ele><time>2026-05-01T14:25:38Z</time></trkpt><trkpt lat="39.65114063598398" lon="9.133054310610133"><ele>459.0</ele><time>2026-05-01T14:25:39Z</time></trkpt><trkpt lat="39.65125638193049" lon="9.13306662067347"><ele>459.0</ele><time>2026-05-01T14:25:40Z</time></trkpt><trkpt lat="39.65137271206718" lon="9.133065562039285"><ele>459.0</ele><time>2026-05-01T14:25:41Z</time></trkpt><trkpt lat="39.65147460764443" lon="9.133068852236676"><ele>459.75</ele><time>2026-05-01T14:25:42Z</time></trkpt><trkpt lat="39.65156293316015" lon="9.133061260901009"><ele>460.5</ele><time>2026-05-01T14:25:43Z</time></trkpt><trkpt lat="39.6516303186678" lon="9.133092787856805"><ele>461.25</ele><time>2026-05-01T14:25:44Z</time></trkpt><trkpt lat="39.65153958888458" lon="9.133292333195044"><ele>462.0</ele><time>2026-05-01T14:25:49Z</time></trkpt><trkpt lat="39.65145152257344" lon="9.133382206175074"><ele>460.5</ele><time>2026-05-01T14:25:50Z</time></trkpt><trkpt lat="39.651358497139576" lon="9.133491208197775"><ele>459.0</ele><time>2026-05-01T14:25:51Z</time></trkpt><trkpt lat="39.651272293314776" lon="9.133624004196573"><ele>457.5</ele><time>2026-05-01T14:25:52Z</time></trkpt><trkpt lat="39.65118624806462" lon="9.13377521008472"><ele>456.0</ele><time>2026-05-01T14:25:53Z</time></trkpt><trkpt lat="39.65110571939879" lon="9.133934515397545"><ele>453.66666666666663</ele><time>2026-05-01T14:25:54Z</time></trkpt><trkpt lat="39.65102897313574" lon="9.13410145062358"><ele>451.3333333333333</ele><time>2026-05-01T14:25:55Z</time></trkpt><trkpt lat="39.65095812129486" lon="9.13429038916607"><ele>449.0</ele><time>2026-05-01T14:25:56Z</time></trkpt><trkpt lat="39.650894392350864" lon="9.134488359715606"><ele>449.0</ele><time>2026-05-01T14:25:57Z</time></trkpt><trkpt lat="39.650826034413406" lon="9.134687436812007"><ele>449.0</ele><time>2026-05-01T14:25:58Z</time></trkpt><trkpt lat="39.65076507399519" lon="9.134888348784548"><ele>449.0</ele><time>2026-05-01T14:25:59Z</time></trkpt><trkpt lat="39.65070376924135" lon="9.135087049406584"><ele>450.0</ele><time>2026-05-01T14:26:00Z</time></trkpt><trkpt lat="39.65063852618962" lon="9.135283565542817"><ele>451.0</ele><time>2026-05-01T14:26:01Z</time></trkpt><trkpt lat="39.650572735043625" lon="9.135474710983065"><ele>452.0</ele><time>2026-05-01T14:26:02Z</time></trkpt><trkpt lat="39.650507507568626" lon="9.135672534391288"><ele>452.66666666666663</ele><time>2026-05-01T14:26:03Z</time></trkpt><trkpt lat="39.6504439876366" lon="9.135865374799915"><ele>453.33333333333337</ele><time>2026-05-01T14:26:04Z</time></trkpt><trkpt lat="39.65036618604893" lon="9.136052704223275"><ele>454.0</ele><time>2026-05-01T14:26:05Z</time></trkpt><trkpt lat="39.65026715969446" lon="9.136227988923695"><ele>454.0</ele><time>2026-05-01T14:26:06Z</time></trkpt><trkpt lat="39.65014268697495" lon="9.136386293404426"><ele>454.0</ele><time>2026-05-01T14:26:07Z</time></trkpt><trkpt lat="39.65001168380791" lon="9.136537742392461"><ele>454.0</ele><time>2026-05-01T14:26:08Z</time></trkpt><trkpt lat="39.64988257420582" lon="9.136690899830954"><ele>454.6666666666667</ele><time>2026-05-01T14:26:09Z</time></trkpt><trkpt lat="39.64975615158835" lon="9.136850994656593"><ele>455.33333333333337</ele><time>2026-05-01T14:26:10Z</time></trkpt><trkpt lat="39.64963285146794" lon="9.137015535736733"><ele>456.0</ele><time>2026-05-01T14:26:11Z</time></trkpt><trkpt lat="39.64951238244967" lon="9.137189333697915"><ele>455.66666666666663</ele><time>2026-05-01T14:26:12Z</time></trkpt><trkpt lat="39.649400740513364" lon="9.1373710767822"><ele>455.3333333333333</ele><time>2026-05-01T14:26:13Z</time></trkpt><trkpt lat="39.64929383042034" lon="9.137559489939035"><ele>455.0</ele><time>2026-05-01T14:26:14Z</time></trkpt><trkpt lat="39.649184676065175" lon="9.137746967468068"><ele>455.0</ele><time>2026-05-01T14:26:15Z</time></trkpt><trkpt lat="39.64907149155989" lon="9.137933639542872"><ele>455.0</ele><time>2026-05-01T14:26:16Z</time></trkpt><trkpt lat="39.6489562020711" lon="9.138116359026908"><ele>455.0</ele><time>2026-05-01T14:26:17Z</time></trkpt><trkpt lat="39.64884284247247" lon="9.138299802808374"><ele>455.0</ele><time>2026-05-01T14:26:18Z</time></trkpt><trkpt lat="39.64873396807004" lon="9.138479908951304"><ele>455.0</ele><time>2026-05-01T14:26:19Z</time></trkpt><trkpt lat="39.64863024593594" lon="9.138659864066268"><ele>455.0</ele><time>2026-05-01T14:26:20Z</time></trkpt><trkpt lat="39.64853186757389" lon="9.13883134476523"><ele>455.0</ele><time>2026-05-01T14:26:21Z</time></trkpt><trkpt lat="39.64843772985096" lon="9.13898823353679"><ele>455.0</ele><time>2026-05-01T14:26:22Z</time></trkpt><trkpt lat="39.648348138946496" lon="9.13913282130138"><ele>455.0</ele><time>2026-05-01T14:26:23Z</time></trkpt><trkpt lat="39.648266464668495" lon="9.139272518243416"><ele>455.0</ele><time>2026-05-01T14:26:24Z</time></trkpt><trkpt lat="39.64819007007909" lon="9.139405317939866"><ele>456.25</ele><time>2026-05-01T14:26:25Z</time></trkpt><trkpt lat="39.648111818739444" lon="9.139524831814814"><ele>457.5</ele><time>2026-05-01T14:26:26Z</time></trkpt><trkpt lat="39.648039973926885" lon="9.139648079608548"><ele>458.75</ele><time>2026-05-01T14:26:27Z</time></trkpt><trkpt lat="39.64796187987048" lon="9.139773604922595"><ele>460.0</ele><time>2026-05-01T14:26:28Z</time></trkpt><trkpt lat="39.64787997885257" lon="9.139907121421828"><ele>460.6666666666667</ele><time>2026-05-01T14:26:29Z</time></trkpt><trkpt lat="39.64778893121705" lon="9.140050152950776"><ele>461.33333333333337</ele><time>2026-05-01T14:26:30Z</time></trkpt><trkpt lat="39.6476784840601" lon="9.14018540656214"><ele>462.0</ele><time>2026-05-01T14:26:31Z</time></trkpt><trkpt lat="39.647547239241575" lon="9.140309587727224"><ele>462.0</ele><time>2026-05-01T14:26:32Z</time></trkpt><trkpt lat="39.6473938097141" lon="9.140413348371519"><ele>462.0</ele><time>2026-05-01T14:26:33Z</time></trkpt><trkpt lat="39.64722047396416" lon="9.140488504431817"><ele>462.0</ele><time>2026-05-01T14:26:34Z</time></trkpt><trkpt lat="39.647045302597355" lon="9.140595933624454"><ele>461.33333333333337</ele><time>2026-05-01T14:26:35Z</time></trkpt><trkpt lat="39.64685570748111" lon="9.140676302073455"><ele>460.6666666666667</ele><time>2026-05-01T14:26:36Z</time></trkpt><trkpt lat="39.646662147248264" lon="9.140775332836707"><ele>460.0</ele><time>2026-05-01T14:26:37Z</time></trkpt><trkpt lat="39.64647040529457" lon="9.140874914510846"><ele>460.0</ele><time>2026-05-01T14:26:38Z</time></trkpt><trkpt lat="39.64628177942431" lon="9.140976852177984"><ele>460.0</ele><time>2026-05-01T14:26:39Z</time></trkpt><trkpt lat="39.646095771596556" lon="9.141083523766163"><ele>460.0</ele><time>2026-05-01T14:26:40Z</time></trkpt><trkpt lat="39.645914014818906" lon="9.14119787233468"><ele>460.0</ele><time>2026-05-01T14:26:41Z</time></trkpt><trkpt lat="39.64573982590304" lon="9.141336902242465"><ele>460.0</ele><time>2026-05-01T14:26:42Z</time></trkpt><trkpt lat="39.64558236055874" lon="9.141500100679735"><ele>460.0</ele><time>2026-05-01T14:26:43Z</time></trkpt><trkpt lat="39.64542965119481" lon="9.141677308149188"><ele>460.0</ele><time>2026-05-01T14:26:44Z</time></trkpt><trkpt lat="39.64527678813298" lon="9.141853289567104"><ele>460.0</ele><time>2026-05-01T14:26:45Z</time></trkpt><trkpt lat="39.64512626246649" lon="9.142038327892479"><ele>460.0</ele><time>2026-05-01T14:26:46Z</time></trkpt><trkpt lat="39.64497882217357" lon="9.142230493297976"><ele>459.33333333333337</ele><time>2026-05-01T14:26:47Z</time></trkpt><trkpt lat="39.64482786569536" lon="9.1424256294588"><ele>458.66666666666663</ele><time>2026-05-01T14:26:48Z</time></trkpt><trkpt lat="39.64467499366757" lon="9.142621321819442"><ele>458.0</ele><time>2026-05-01T14:26:49Z</time></trkpt><trkpt lat="39.64452051500948" lon="9.14282029314838"><ele>458.0</ele><time>2026-05-01T14:26:50Z</time></trkpt><trkpt lat="39.644367708134865" lon="9.143027621361355"><ele>458.0</ele><time>2026-05-01T14:26:51Z</time></trkpt><trkpt lat="39.64421991714794" lon="9.14324389849718"><ele>458.0</ele><time>2026-05-01T14:26:52Z</time></trkpt><trkpt lat="39.644080630386235" lon="9.143472435660737"><ele>458.3333333333333</ele><time>2026-05-01T14:26:53Z</time></trkpt><trkpt lat="39.64395522723659" lon="9.143711248081834"><ele>458.66666666666663</ele><time>2026-05-01T14:26:54Z</time></trkpt><trkpt lat="39.64383800129994" lon="9.14395508858687"><ele>459.0</ele><time>2026-05-01T14:26:55Z</time></trkpt><trkpt lat="39.64372693455061" lon="9.144193100587488"><ele>459.33333333333337</ele><time>2026-05-01T14:26:56Z</time></trkpt><trkpt lat="39.643615280258444" lon="9.144420241637697"><ele>459.6666666666667</ele><time>2026-05-01T14:26:57Z</time></trkpt><trkpt lat="39.64350234471897" lon="9.144648976206529"><ele>460.0</ele><time>2026-05-01T14:26:58Z</time></trkpt><trkpt lat="39.643393299998806" lon="9.144882449651258"><ele>460.0</ele><time>2026-05-01T14:26:59Z</time></trkpt><trkpt lat="39.64328568220882" lon="9.145114549461939"><ele>460.0</ele><time>2026-05-01T14:27:00Z</time></trkpt><trkpt lat="39.643175745108266" lon="9.14534547081475"><ele>460.0</ele><time>2026-05-01T14:27:01Z</time></trkpt><trkpt lat="39.643064058492286" lon="9.14557539119872"><ele>460.33333333333337</ele><time>2026-05-01T14:27:02Z</time></trkpt><trkpt lat="39.64295155460718" lon="9.145804555180407"><ele>460.66666666666663</ele><time>2026-05-01T14:27:03Z</time></trkpt><trkpt lat="39.64283846142799" lon="9.146035926965308"><ele>461.0</ele><time>2026-05-01T14:27:04Z</time></trkpt><trkpt lat="39.642727463459586" lon="9.146269560975487"><ele>461.0</ele><time>2026-05-01T14:27:05Z</time></trkpt><trkpt lat="39.64261659098455" lon="9.146501867289464"><ele>461.0</ele><time>2026-05-01T14:27:06Z</time></trkpt><trkpt lat="39.64250539759043" lon="9.146733863923805"><ele>461.0</ele><time>2026-05-01T14:27:07Z</time></trkpt><trkpt lat="39.64239079101342" lon="9.146964079714481"><ele>461.3333333333333</ele><time>2026-05-01T14:27:08Z</time></trkpt><trkpt lat="39.64227873352951" lon="9.14720075221161"><ele>461.66666666666663</ele><time>2026-05-01T14:27:09Z</time></trkpt><trkpt lat="39.6421626004529" lon="9.147438308174944"><ele>462.0</ele><time>2026-05-01T14:27:10Z</time></trkpt><trkpt lat="39.64205057532068" lon="9.147682933063496"><ele>462.0</ele><time>2026-05-01T14:27:11Z</time></trkpt><trkpt lat="39.641931275787805" lon="9.14792299076567"><ele>462.0</ele><time>2026-05-01T14:27:12Z</time></trkpt><trkpt lat="39.64181202999725" lon="9.148163605806726"><ele>462.0</ele><time>2026-05-01T14:27:13Z</time></trkpt><trkpt lat="39.641694567310175" lon="9.148409482928917"><ele>462.0</ele><time>2026-05-01T14:27:14Z</time></trkpt><trkpt lat="39.641575143593144" lon="9.148650669313383"><ele>462.0</ele><time>2026-05-01T14:27:15Z</time></trkpt><trkpt lat="39.641451130883965" lon="9.14889068019349"><ele>462.0</ele><time>2026-05-01T14:27:16Z</time></trkpt><trkpt lat="39.64131571493928" lon="9.149118102831789"><ele>463.0</ele><time>2026-05-01T14:27:17Z</time></trkpt><trkpt lat="39.64117454371656" lon="9.149332074974966"><ele>464.0</ele><time>2026-05-01T14:27:18Z</time></trkpt><trkpt lat="39.641026724695465" lon="9.149541654810479"><ele>465.0</ele><time>2026-05-01T14:27:19Z</time></trkpt><trkpt lat="39.640878421756256" lon="9.149746514135172"><ele>464.66666666666663</ele><time>2026-05-01T14:27:20Z</time></trkpt><trkpt lat="39.64072697376909" lon="9.14994945871906"><ele>464.3333333333333</ele><time>2026-05-01T14:27:21Z</time></trkpt><trkpt lat="39.64056850631452" lon="9.150144842112274"><ele>464.0</ele><time>2026-05-01T14:27:22Z</time></trkpt><trkpt lat="39.64040376940828" lon="9.15032190106492"><ele>464.0</ele><time>2026-05-01T14:27:23Z</time></trkpt><trkpt lat="39.64023302867627" lon="9.150489992889964"><ele>464.0</ele><time>2026-05-01T14:27:24Z</time></trkpt><trkpt lat="39.640056938898155" lon="9.150657276744134"><ele>464.0</ele><time>2026-05-01T14:27:25Z</time></trkpt><trkpt lat="39.639881330888045" lon="9.150817351113004"><ele>464.0</ele><time>2026-05-01T14:27:26Z</time></trkpt><trkpt lat="39.639697246078896" lon="9.150970592257341"><ele>464.0</ele><time>2026-05-01T14:27:27Z</time></trkpt><trkpt lat="39.639515859885186" lon="9.15112733498823"><ele>464.0</ele><time>2026-05-01T14:27:28Z</time></trkpt><trkpt lat="39.63933152982047" lon="9.151279164889122"><ele>463.66666666666663</ele><time>2026-05-01T14:27:29Z</time></trkpt><trkpt lat="39.63914791763241" lon="9.151432210574836"><ele>463.33333333333337</ele><time>2026-05-01T14:27:30Z</time></trkpt><trkpt lat="39.63896487035307" lon="9.151587258408062"><ele>463.0</ele><time>2026-05-01T14:27:31Z</time></trkpt><trkpt lat="39.638783935745884" lon="9.15174138590347"><ele>463.0</ele><time>2026-05-01T14:27:32Z</time></trkpt><trkpt lat="39.638602178041175" lon="9.15189288966651"><ele>463.0</ele><time>2026-05-01T14:27:33Z</time></trkpt><trkpt lat="39.63842051248427" lon="9.152047124670226"><ele>463.0</ele><time>2026-05-01T14:27:34Z</time></trkpt><trkpt lat="39.638240761922916" lon="9.152193713182765"><ele>463.0</ele><time>2026-05-01T14:27:35Z</time></trkpt><trkpt lat="39.63805998241805" lon="9.152336696686351"><ele>463.0</ele><time>2026-05-01T14:27:36Z</time></trkpt><trkpt lat="39.637878630258555" lon="9.152478743899291"><ele>463.0</ele><time>2026-05-01T14:27:37Z</time></trkpt><trkpt lat="39.63769903197551" lon="9.152635035938252"><ele>463.0</ele><time>2026-05-01T14:27:38Z</time></trkpt><trkpt lat="39.637517791777185" lon="9.152782197031547"><ele>463.0</ele><time>2026-05-01T14:27:39Z</time></trkpt><trkpt lat="39.637338147863" lon="9.152933139703801"><ele>463.0</ele><time>2026-05-01T14:27:40Z</time></trkpt><trkpt lat="39.63715896645908" lon="9.153081832268375"><ele>463.33333333333337</ele><time>2026-05-01T14:27:41Z</time></trkpt><trkpt lat="39.636978163970085" lon="9.153233434227564"><ele>463.66666666666663</ele><time>2026-05-01T14:27:42Z</time></trkpt><trkpt lat="39.63679653986753" lon="9.153383322495829"><ele>464.0</ele><time>2026-05-01T14:27:43Z</time></trkpt><trkpt lat="39.63661558504566" lon="9.153534724663789"><ele>462.3333333333333</ele><time>2026-05-01T14:27:44Z</time></trkpt><trkpt lat="39.63643394996495" lon="9.153686305455755"><ele>460.66666666666663</ele><time>2026-05-01T14:27:45Z</time></trkpt><trkpt lat="39.636255323712575" lon="9.153833153585133"><ele>459.0</ele><time>2026-05-01T14:27:46Z</time></trkpt><trkpt lat="39.63607251634305" lon="9.153984106658438"><ele>458.66666666666663</ele><time>2026-05-01T14:27:47Z</time></trkpt><trkpt lat="39.63589122610979" lon="9.154140734579524"><ele>458.3333333333333</ele><time>2026-05-01T14:27:48Z</time></trkpt><trkpt lat="39.63570976452646" lon="9.154292661397566"><ele>458.0</ele><time>2026-05-01T14:27:49Z</time></trkpt><trkpt lat="39.635526449743644" lon="9.154442471942565"><ele>458.0</ele><time>2026-05-01T14:27:50Z</time></trkpt><trkpt lat="39.63534496678201" lon="9.15458871624071"><ele>458.0</ele><time>2026-05-01T14:27:51Z</time></trkpt><trkpt lat="39.63516479082806" lon="9.154738937212935"><ele>458.0</ele><time>2026-05-01T14:27:52Z</time></trkpt><trkpt lat="39.63498635373887" lon="9.154891010601421"><ele>458.0</ele><time>2026-05-01T14:27:53Z</time></trkpt><trkpt lat="39.63480823500683" lon="9.155048334614419"><ele>458.0</ele><time>2026-05-01T14:27:54Z</time></trkpt><trkpt lat="39.63463716544697" lon="9.155210101364121"><ele>458.0</ele><time>2026-05-01T14:27:55Z</time></trkpt><trkpt lat="39.63447035262249" lon="9.155380298186977"><ele>457.3333333333333</ele><time>2026-05-01T14:27:56Z</time></trkpt><trkpt lat="39.63431268675109" lon="9.155563876965472"><ele>456.66666666666663</ele><time>2026-05-01T14:27:57Z</time></trkpt><trkpt lat="39.634157303606216" lon="9.155750744798452"><ele>456.0</ele><time>2026-05-01T14:27:58Z</time></trkpt><trkpt lat="39.633996712114524" lon="9.155940039172556"><ele>456.0</ele><time>2026-05-01T14:27:59Z</time></trkpt><trkpt lat="39.63384392299289" lon="9.15613659969418"><ele>456.0</ele><time>2026-05-01T14:28:00Z</time></trkpt><trkpt lat="39.63369742598184" lon="9.15634226076538"><ele>456.0</ele><time>2026-05-01T14:28:01Z</time></trkpt><trkpt lat="39.63355640793433" lon="9.156552301157515"><ele>456.0</ele><time>2026-05-01T14:28:02Z</time></trkpt><trkpt lat="39.633417722638974" lon="9.156768246236357"><ele>456.0</ele><time>2026-05-01T14:28:03Z</time></trkpt><trkpt lat="39.63328255849954" lon="9.156983127531117"><ele>456.0</ele><time>2026-05-01T14:28:04Z</time></trkpt><trkpt lat="39.6331471965517" lon="9.157199226942554"><ele>456.0</ele><time>2026-05-01T14:28:05Z</time></trkpt><trkpt lat="39.633016716703665" lon="9.157419914395474"><ele>456.0</ele><time>2026-05-01T14:28:06Z</time></trkpt><trkpt lat="39.63288811027832" lon="9.157640378093465"><ele>456.0</ele><time>2026-05-01T14:28:07Z</time></trkpt><trkpt lat="39.63275232957757" lon="9.157860886927487"><ele>456.0</ele><time>2026-05-01T14:28:08Z</time></trkpt><trkpt lat="39.63261611113657" lon="9.158078494179728"><ele>456.0</ele><time>2026-05-01T14:28:09Z</time></trkpt><trkpt lat="39.63248171290004" lon="9.15829831317191"><ele>456.0</ele><time>2026-05-01T14:28:10Z</time></trkpt><trkpt lat="39.63234368334717" lon="9.158517279602059"><ele>456.0</ele><time>2026-05-01T14:28:11Z</time></trkpt><trkpt lat="39.632209128794635" lon="9.158738193116921"><ele>456.0</ele><time>2026-05-01T14:28:12Z</time></trkpt><trkpt lat="39.63206800805528" lon="9.158946572888592"><ele>456.0</ele><time>2026-05-01T14:28:13Z</time></trkpt><trkpt lat="39.63193143070764" lon="9.159166461506315"><ele>456.33333333333337</ele><time>2026-05-01T14:28:14Z</time></trkpt><trkpt lat="39.631792756761776" lon="9.159391221121757"><ele>456.6666666666667</ele><time>2026-05-01T14:28:15Z</time></trkpt><trkpt lat="39.63166716013802" lon="9.159627726241135"><ele>457.0</ele><time>2026-05-01T14:28:16Z</time></trkpt><trkpt lat="39.63151485587696" lon="9.159842721531676"><ele>457.33333333333337</ele><time>2026-05-01T14:28:17Z</time></trkpt><trkpt lat="39.63137610091866" lon="9.160064271506965"><ele>457.66666666666663</ele><time>2026-05-01T14:28:18Z</time></trkpt><trkpt lat="39.63123646285262" lon="9.160287231536973"><ele>458.0</ele><time>2026-05-01T14:28:19Z</time></trkpt><trkpt lat="39.63109644511324" lon="9.16051079781916"><ele>458.0</ele><time>2026-05-01T14:28:20Z</time></trkpt><trkpt lat="39.6309593390235" lon="9.16073053056638"><ele>458.0</ele><time>2026-05-01T14:28:21Z</time></trkpt><trkpt lat="39.63082029214155" lon="9.160951782735383"><ele>458.0</ele><time>2026-05-01T14:28:22Z</time></trkpt><trkpt lat="39.630675928655464" lon="9.161165124868187"><ele>458.0</ele><time>2026-05-01T14:28:23Z</time></trkpt><trkpt lat="39.63052006189821" lon="9.161356594969417"><ele>458.0</ele><time>2026-05-01T14:28:24Z</time></trkpt><trkpt lat="39.630352740961165" lon="9.161530125041512"><ele>458.0</ele><time>2026-05-01T14:28:25Z</time></trkpt><trkpt lat="39.63017424848658" lon="9.16169255449602"><ele>457.0</ele><time>2026-05-01T14:28:26Z</time></trkpt><trkpt lat="39.629988838443225" lon="9.161841585087936"><ele>456.0</ele><time>2026-05-01T14:28:27Z</time></trkpt><trkpt lat="39.62979588185693" lon="9.161969305853106"><ele>455.0</ele><time>2026-05-01T14:28:28Z</time></trkpt><trkpt lat="39.629600187048034" lon="9.162078855704127"><ele>455.3333333333333</ele><time>2026-05-01T14:28:29Z</time></trkpt><trkpt lat="39.62939847719984" lon="9.162172260077455"><ele>455.66666666666663</ele><time>2026-05-01T14:28:30Z</time></trkpt><trkpt lat="39.62919228988216" lon="9.162259995632711"><ele>456.0</ele><time>2026-05-01T14:28:31Z</time></trkpt><trkpt lat="39.628989627983565" lon="9.162369578464931"><ele>457.0</ele><time>2026-05-01T14:28:32Z</time></trkpt><trkpt lat="39.628779019012235" lon="9.16246071633328"><ele>458.0</ele><time>2026-05-01T14:28:33Z</time></trkpt><trkpt lat="39.62856105824627" lon="9.162539400302082"><ele>459.0</ele><time>2026-05-01T14:28:34Z</time></trkpt><trkpt lat="39.62834651673019" lon="9.162634254961294"><ele>459.0</ele><time>2026-05-01T14:28:35Z</time></trkpt><trkpt lat="39.628129458183864" lon="9.162730149275825"><ele>459.0</ele><time>2026-05-01T14:28:36Z</time></trkpt><trkpt lat="39.62791121110264" lon="9.162827272563973"><ele>461.0</ele><time>2026-05-01T14:28:37Z</time></trkpt><trkpt lat="39.627699035027426" lon="9.162941901537776"><ele>463.0</ele><time>2026-05-01T14:28:38Z</time></trkpt><trkpt lat="39.62748237080621" lon="9.163037369779522"><ele>463.0</ele><time>2026-05-01T14:28:39Z</time></trkpt><trkpt lat="39.62726788936723" lon="9.163134738332838"><ele>463.0</ele><time>2026-05-01T14:28:40Z</time></trkpt><trkpt lat="39.62705245079714" lon="9.163229996625091"><ele>463.0</ele><time>2026-05-01T14:28:41Z</time></trkpt><trkpt lat="39.62683200652468" lon="9.163306435959838"><ele>463.0</ele><time>2026-05-01T14:28:42Z</time></trkpt><trkpt lat="39.62662020896711" lon="9.163399006813497"><ele>463.0</ele><time>2026-05-01T14:28:43Z</time></trkpt><trkpt lat="39.626415359020186" lon="9.163485187607604"><ele>463.0</ele><time>2026-05-01T14:28:44Z</time></trkpt><trkpt lat="39.62621277362" lon="9.16355473394046"><ele>463.0</ele><time>2026-05-01T14:28:45Z</time></trkpt><trkpt lat="39.62600710241133" lon="9.163609123005115"><ele>462.6666666666667</ele><time>2026-05-01T14:28:46Z</time></trkpt><trkpt lat="39.62579989319272" lon="9.163646435592174"><ele>462.33333333333337</ele><time>2026-05-01T14:28:47Z</time></trkpt><trkpt lat="39.625586576446715" lon="9.163671798631539"><ele>462.0</ele><time>2026-05-01T14:28:48Z</time></trkpt><trkpt lat="39.625378376659086" lon="9.163675372436908"><ele>462.33333333333337</ele><time>2026-05-01T14:28:49Z</time></trkpt><trkpt lat="39.62516948808299" lon="9.163669063442166"><ele>462.6666666666667</ele><time>2026-05-01T14:28:50Z</time></trkpt><trkpt lat="39.624965308112465" lon="9.163643535067479"><ele>463.0</ele><time>2026-05-01T14:28:51Z</time></trkpt><trkpt lat="39.624765678455155" lon="9.16360414741099"><ele>463.0</ele><time>2026-05-01T14:28:52Z</time></trkpt><trkpt lat="39.62456726773138" lon="9.16355007950847"><ele>463.0</ele><time>2026-05-01T14:28:53Z</time></trkpt><trkpt lat="39.62436126673524" lon="9.163496771756837"><ele>463.0</ele><time>2026-05-01T14:28:54Z</time></trkpt><trkpt lat="39.624163389988844" lon="9.163389269694617"><ele>462.0</ele><time>2026-05-01T14:28:55Z</time></trkpt><trkpt lat="39.623957413642515" lon="9.163282679958892"><ele>461.0</ele><time>2026-05-01T14:28:56Z</time></trkpt><trkpt lat="39.623745786876064" lon="9.16317096809985"><ele>459.0</ele><time>2026-05-01T14:28:57Z</time></trkpt><trkpt lat="39.62353520227682" lon="9.1630584979189"><ele>457.0</ele><time>2026-05-01T14:28:58Z</time></trkpt><trkpt lat="39.62332370027585" lon="9.162945537592659"><ele>457.0</ele><time>2026-05-01T14:28:59Z</time></trkpt><trkpt lat="39.623112789900844" lon="9.162832893377159"><ele>457.0</ele><time>2026-05-01T14:29:00Z</time></trkpt><trkpt lat="39.622903030295475" lon="9.16272086386628"><ele>457.5</ele><time>2026-05-01T14:29:01Z</time></trkpt><trkpt lat="39.622691990729" lon="9.162608150560047"><ele>458.0</ele><time>2026-05-01T14:29:02Z</time></trkpt><trkpt lat="39.62248046270133" lon="9.16251145821769"><ele>458.0</ele><time>2026-05-01T14:29:03Z</time></trkpt><trkpt lat="39.622270374499806" lon="9.162398794216815"><ele>458.0</ele><time>2026-05-01T14:29:04Z</time></trkpt><trkpt lat="39.62206250148985" lon="9.16228168583325"><ele>458.5</ele><time>2026-05-01T14:29:05Z</time></trkpt><trkpt lat="39.62185417650576" lon="9.16216850391347"><ele>459.0</ele><time>2026-05-01T14:29:06Z</time></trkpt><trkpt lat="39.62164391755897" lon="9.162060418147115"><ele>459.0</ele><time>2026-05-01T14:29:07Z</time></trkpt><trkpt lat="39.62143746204656" lon="9.161954497648365"><ele>459.0</ele><time>2026-05-01T14:29:08Z</time></trkpt><trkpt lat="39.62123389785645" lon="9.161845248890039"><ele>459.0</ele><time>2026-05-01T14:29:09Z</time></trkpt><trkpt lat="39.62102806841268" lon="9.161748119697597"><ele>458.33333333333337</ele><time>2026-05-01T14:29:10Z</time></trkpt><trkpt lat="39.62081226599346" lon="9.161672678245761"><ele>457.6666666666667</ele><time>2026-05-01T14:29:11Z</time></trkpt><trkpt lat="39.62059282211722" lon="9.161627846430177"><ele>457.0</ele><time>2026-05-01T14:29:12Z</time></trkpt><trkpt lat="39.62037224578179" lon="9.161609382393783"><ele>456.6666666666667</ele><time>2026-05-01T14:29:13Z</time></trkpt><trkpt lat="39.62015180637158" lon="9.161609846959584"><ele>456.33333333333337</ele><time>2026-05-01T14:29:14Z</time></trkpt><trkpt lat="39.61992937508035" lon="9.161620232829437"><ele>456.0</ele><time>2026-05-01T14:29:15Z</time></trkpt><trkpt lat="39.61971064635709" lon="9.161643696730662"><ele>456.0</ele><time>2026-05-01T14:29:16Z</time></trkpt><trkpt lat="39.61949228833193" lon="9.161695519705201"><ele>456.0</ele><time>2026-05-01T14:29:17Z</time></trkpt><trkpt lat="39.619281214232224" lon="9.161774263122995"><ele>456.0</ele><time>2026-05-01T14:29:18Z</time></trkpt><trkpt lat="39.61907634747808" lon="9.161878436778347"><ele>455.33333333333337</ele><time>2026-05-01T14:29:19Z</time></trkpt><trkpt lat="39.6188771647044" lon="9.162000075434623"><ele>454.6666666666667</ele><time>2026-05-01T14:29:20Z</time></trkpt><trkpt lat="39.618685215793896" lon="9.162135438198298"><ele>454.0</ele><time>2026-05-01T14:29:21Z</time></trkpt><trkpt lat="39.61850009652808" lon="9.162283040493875"><ele>453.0</ele><time>2026-05-01T14:29:22Z</time></trkpt><trkpt lat="39.61831815691042" lon="9.162446575930078"><ele>452.0</ele><time>2026-05-01T14:29:23Z</time></trkpt><trkpt lat="39.61814395851778" lon="9.162624629338465"><ele>451.0</ele><time>2026-05-01T14:29:24Z</time></trkpt><trkpt lat="39.61797080009574" lon="9.162809266478895"><ele>450.6666666666667</ele><time>2026-05-01T14:29:25Z</time></trkpt><trkpt lat="39.61779824236153" lon="9.162988130816137"><ele>450.33333333333337</ele><time>2026-05-01T14:29:26Z</time></trkpt><trkpt lat="39.61762652588394" lon="9.16316252223183"><ele>450.0</ele><time>2026-05-01T14:29:27Z</time></trkpt><trkpt lat="39.61745650769852" lon="9.163337303527666"><ele>449.66666666666663</ele><time>2026-05-01T14:29:28Z</time></trkpt><trkpt lat="39.6172904139113" lon="9.16350721769661"><ele>449.3333333333333</ele><time>2026-05-01T14:29:29Z</time></trkpt><trkpt lat="39.617123308624834" lon="9.163675535155953"><ele>449.0</ele><time>2026-05-01T14:29:30Z</time></trkpt><trkpt lat="39.61695678722817" lon="9.163846550515302"><ele>449.0</ele><time>2026-05-01T14:29:31Z</time></trkpt><trkpt lat="39.61678802438124" lon="9.164025429544505"><ele>449.0</ele><time>2026-05-01T14:29:32Z</time></trkpt><trkpt lat="39.616616605012304" lon="9.164204649634344"><ele>449.0</ele><time>2026-05-01T14:29:33Z</time></trkpt><trkpt lat="39.61644337416268" lon="9.164383971060206"><ele>450.0</ele><time>2026-05-01T14:29:34Z</time></trkpt><trkpt lat="39.616267872273" lon="9.164562671684623"><ele>451.0</ele><time>2026-05-01T14:29:35Z</time></trkpt><trkpt lat="39.61609092960643" lon="9.164735291445757"><ele>452.0</ele><time>2026-05-01T14:29:36Z</time></trkpt><trkpt lat="39.615914979726625" lon="9.164905618333366"><ele>452.66666666666663</ele><time>2026-05-01T14:29:37Z</time></trkpt><trkpt lat="39.61574586611023" lon="9.165083639646253"><ele>453.33333333333337</ele><time>2026-05-01T14:29:38Z</time></trkpt><trkpt lat="39.61558952491099" lon="9.165275929273301"><ele>454.0</ele><time>2026-05-01T14:29:39Z</time></trkpt><trkpt lat="39.6154463426717" lon="9.165491328526727"><ele>454.0</ele><time>2026-05-01T14:29:40Z</time></trkpt><trkpt lat="39.61531882582135" lon="9.165726928133004"><ele>454.0</ele><time>2026-05-01T14:29:41Z</time></trkpt><trkpt lat="39.615205619553265" lon="9.165970866045186"><ele>454.0</ele><time>2026-05-01T14:29:42Z</time></trkpt><trkpt lat="39.615101310425906" lon="9.16621909798462"><ele>454.0</ele><time>2026-05-01T14:29:43Z</time></trkpt><trkpt lat="39.61500926927871" lon="9.16647078301071"><ele>454.0</ele><time>2026-05-01T14:29:44Z</time></trkpt><trkpt lat="39.6149344253315" lon="9.166724359399685"><ele>454.0</ele><time>2026-05-01T14:29:45Z</time></trkpt><trkpt lat="39.61487915436879" lon="9.166979910118679"><ele>454.33333333333337</ele><time>2026-05-01T14:29:46Z</time></trkpt><trkpt lat="39.614830866423326" lon="9.167239110968215"><ele>454.66666666666663</ele><time>2026-05-01T14:29:47Z</time></trkpt><trkpt lat="39.61479681042687" lon="9.167507502030796"><ele>455.0</ele><time>2026-05-01T14:29:48Z</time></trkpt><trkpt lat="39.61476880731898" lon="9.167777146779011"><ele>453.3333333333333</ele><time>2026-05-01T14:29:49Z</time></trkpt><trkpt lat="39.614744139154865" lon="9.168050001757976"><ele>451.66666666666663</ele><time>2026-05-01T14:29:50Z</time></trkpt><trkpt lat="39.61471373565326" lon="9.168321035318646"><ele>450.0</ele><time>2026-05-01T14:29:51Z</time></trkpt><trkpt lat="39.614684864012595" lon="9.168593245933483"><ele>450.0</ele><time>2026-05-01T14:29:52Z</time></trkpt><trkpt lat="39.61465517277021" lon="9.168864088030451"><ele>450.0</ele><time>2026-05-01T14:29:53Z</time></trkpt><trkpt lat="39.61462378024065" lon="9.169135734481165"><ele>450.0</ele><time>2026-05-01T14:29:54Z</time></trkpt><trkpt lat="39.61459036314791" lon="9.169406530268935"><ele>450.0</ele><time>2026-05-01T14:29:55Z</time></trkpt><trkpt lat="39.61455679190075" lon="9.169676972039765"><ele>450.0</ele><time>2026-05-01T14:29:56Z</time></trkpt><trkpt lat="39.61449794824041" lon="9.169936925337453"><ele>450.0</ele><time>2026-05-01T14:29:57Z</time></trkpt><trkpt lat="39.614443169933594" lon="9.170197236949308"><ele>450.66666666666663</ele><time>2026-05-01T14:29:58Z</time></trkpt><trkpt lat="39.61439287518794" lon="9.17045908206589"><ele>451.3333333333333</ele><time>2026-05-01T14:29:59Z</time></trkpt><trkpt lat="39.61431591929722" lon="9.170709737495365"><ele>452.0</ele><time>2026-05-01T14:30:00Z</time></trkpt><trkpt lat="39.61424187803676" lon="9.170962057159826"><ele>452.66666666666663</ele><time>2026-05-01T14:30:01Z</time></trkpt><trkpt lat="39.614141068179755" lon="9.171198878985843"><ele>453.33333333333337</ele><time>2026-05-01T14:30:02Z</time></trkpt><trkpt lat="39.61404742918702" lon="9.171440690977379"><ele>454.0</ele><time>2026-05-01T14:30:03Z</time></trkpt><trkpt lat="39.61395111023452" lon="9.171683923562155"><ele>454.33333333333337</ele><time>2026-05-01T14:30:04Z</time></trkpt><trkpt lat="39.61386599365785" lon="9.171934549810024"><ele>454.66666666666663</ele><time>2026-05-01T14:30:05Z</time></trkpt><trkpt lat="39.6137686407301" lon="9.17217820580341"><ele>455.0</ele><time>2026-05-01T14:30:06Z</time></trkpt><trkpt lat="39.61365944554119" lon="9.172405981497304"><ele>454.0</ele><time>2026-05-01T14:30:07Z</time></trkpt><trkpt lat="39.61355747125186" lon="9.172628069709477"><ele>453.0</ele><time>2026-05-01T14:30:08Z</time></trkpt><trkpt lat="39.613450898450296" lon="9.172837201668134"><ele>452.0</ele><time>2026-05-01T14:30:09Z</time></trkpt><trkpt lat="39.613337786617834" lon="9.173043370757023"><ele>452.66666666666663</ele><time>2026-05-01T14:30:10Z</time></trkpt><trkpt lat="39.613213579307775" lon="9.17323913369414"><ele>453.33333333333337</ele><time>2026-05-01T14:30:11Z</time></trkpt><trkpt lat="39.613080374840905" lon="9.17342902540394"><ele>454.0</ele><time>2026-05-01T14:30:12Z</time></trkpt><trkpt lat="39.61294094248684" lon="9.173610694269087"><ele>454.33333333333337</ele><time>2026-05-01T14:30:13Z</time></trkpt><trkpt lat="39.61279532159654" lon="9.173786270404998"><ele>454.66666666666663</ele><time>2026-05-01T14:30:14Z</time></trkpt><trkpt lat="39.61263997823201" lon="9.17395008475928"><ele>455.0</ele><time>2026-05-01T14:30:15Z</time></trkpt><trkpt lat="39.61247381324651" lon="9.174104281848395"><ele>455.66666666666663</ele><time>2026-05-01T14:30:16Z</time></trkpt><trkpt lat="39.61230742996919" lon="9.17426985272155"><ele>456.33333333333337</ele><time>2026-05-01T14:30:17Z</time></trkpt><trkpt lat="39.61211654902894" lon="9.174391958126494"><ele>457.0</ele><time>2026-05-01T14:30:18Z</time></trkpt><trkpt lat="39.611925563097905" lon="9.174516860736539"><ele>457.0</ele><time>2026-05-01T14:30:19Z</time></trkpt><trkpt lat="39.61172960308905" lon="9.174638403021746"><ele>457.0</ele><time>2026-05-01T14:30:20Z</time></trkpt><trkpt lat="39.61154017856677" lon="9.174779708843923"><ele>457.0</ele><time>2026-05-01T14:30:21Z</time></trkpt><trkpt lat="39.61133882405634" lon="9.174893999887546"><ele>455.0</ele><time>2026-05-01T14:30:22Z</time></trkpt><trkpt lat="39.61113863813543" lon="9.175010761361843"><ele>453.0</ele><time>2026-05-01T14:30:23Z</time></trkpt><trkpt lat="39.61093957671556" lon="9.175129213996215"><ele>451.0</ele><time>2026-05-01T14:30:24Z</time></trkpt><trkpt lat="39.610745943928414" lon="9.175245614105888"><ele>451.0</ele><time>2026-05-01T14:30:25Z</time></trkpt><trkpt lat="39.61054925985525" lon="9.175361896436565"><ele>451.0</ele><time>2026-05-01T14:30:26Z</time></trkpt><trkpt lat="39.61035344382986" lon="9.175480738852418"><ele>451.0</ele><time>2026-05-01T14:30:27Z</time></trkpt><trkpt lat="39.6101599674898" lon="9.175599697838027"><ele>449.33333333333337</ele><time>2026-05-01T14:30:28Z</time></trkpt><trkpt lat="39.60996195152265" lon="9.175724781077772"><ele>447.66666666666663</ele><time>2026-05-01T14:30:29Z</time></trkpt><trkpt lat="39.60976980693199" lon="9.17584619861595"><ele>446.0</ele><time>2026-05-01T14:30:30Z</time></trkpt><trkpt lat="39.60957647909215" lon="9.175963842012314"><ele>444.66666666666663</ele><time>2026-05-01T14:30:31Z</time></trkpt><trkpt lat="39.60938766528278" lon="9.176076401833594"><ele>443.33333333333337</ele><time>2026-05-01T14:30:32Z</time></trkpt><trkpt lat="39.609176688043284" lon="9.17620008434631"><ele>442.0</ele><time>2026-05-01T14:30:33Z</time></trkpt><trkpt lat="39.60898269128381" lon="9.176313322930747"><ele>442.0</ele><time>2026-05-01T14:30:34Z</time></trkpt><trkpt lat="39.60878666368228" lon="9.17643154415343"><ele>442.0</ele><time>2026-05-01T14:30:35Z</time></trkpt><trkpt lat="39.60859107567796" lon="9.1765543486143"><ele>442.0</ele><time>2026-05-01T14:30:36Z</time></trkpt><trkpt lat="39.60839912625435" lon="9.176676756782038"><ele>442.0</ele><time>2026-05-01T14:30:37Z</time></trkpt><trkpt lat="39.60820604811097" lon="9.176800607767012"><ele>442.0</ele><time>2026-05-01T14:30:38Z</time></trkpt><trkpt lat="39.60801782569707" lon="9.176934452000408"><ele>442.0</ele><time>2026-05-01T14:30:39Z</time></trkpt><trkpt lat="39.60783504957218" lon="9.17707584111717"><ele>442.0</ele><time>2026-05-01T14:30:40Z</time></trkpt><trkpt lat="39.60764538046746" lon="9.177208031422657"><ele>442.0</ele><time>2026-05-01T14:30:41Z</time></trkpt><trkpt lat="39.60747357627684" lon="9.177365384825938"><ele>442.0</ele><time>2026-05-01T14:30:42Z</time></trkpt><trkpt lat="39.60730755450879" lon="9.17752830689052"><ele>442.0</ele><time>2026-05-01T14:30:43Z</time></trkpt><trkpt lat="39.60712911752912" lon="9.177735694923923"><ele>442.0</ele><time>2026-05-01T14:30:44Z</time></trkpt><trkpt lat="39.60694155007945" lon="9.177903041707598"><ele>443.5</ele><time>2026-05-01T14:30:45Z</time></trkpt><trkpt lat="39.60675880870175" lon="9.17809198889598"><ele>445.0</ele><time>2026-05-01T14:30:46Z</time></trkpt><trkpt lat="39.6065729921091" lon="9.17828411571553"><ele>445.0</ele><time>2026-05-01T14:30:47Z</time></trkpt><trkpt lat="39.606443494164594" lon="9.17843073308891"><ele>445.0</ele><time>2026-05-01T14:30:48Z</time></trkpt><trkpt lat="39.606277350151686" lon="9.178608173448428"><ele>445.0</ele><time>2026-05-01T14:30:49Z</time></trkpt><trkpt lat="39.60610649524373" lon="9.17878093292688"><ele>444.33333333333337</ele><time>2026-05-01T14:30:50Z</time></trkpt><trkpt lat="39.60593320748739" lon="9.1789540753949"><ele>443.66666666666663</ele><time>2026-05-01T14:30:51Z</time></trkpt><trkpt lat="39.60576133424515" lon="9.179138502193101"><ele>443.0</ele><time>2026-05-01T14:30:52Z</time></trkpt><trkpt lat="39.60559078930119" lon="9.17932629217014"><ele>443.0</ele><time>2026-05-01T14:30:53Z</time></trkpt><trkpt lat="39.60541888231616" lon="9.179515996539111"><ele>443.0</ele><time>2026-05-01T14:30:54Z</time></trkpt><trkpt lat="39.60524458435121" lon="9.179704715430814"><ele>442.5</ele><time>2026-05-01T14:30:55Z</time></trkpt><trkpt lat="39.60507455249417" lon="9.179903129081726"><ele>442.0</ele><time>2026-05-01T14:30:56Z</time></trkpt><trkpt lat="39.60490591534549" lon="9.180104052012274"><ele>442.0</ele><time>2026-05-01T14:30:57Z</time></trkpt><trkpt lat="39.604737688643276" lon="9.18030249984997"><ele>442.0</ele><time>2026-05-01T14:30:58Z</time></trkpt><trkpt lat="39.604570082142494" lon="9.180505799112227"><ele>442.0</ele><time>2026-05-01T14:30:59Z</time></trkpt><trkpt lat="39.60440736707447" lon="9.180711245623764"><ele>442.0</ele><time>2026-05-01T14:31:00Z</time></trkpt><trkpt lat="39.604251366518405" lon="9.180919858286991"><ele>442.0</ele><time>2026-05-01T14:31:01Z</time></trkpt><trkpt lat="39.60409632120706" lon="9.181122259626779"><ele>442.0</ele><time>2026-05-01T14:31:02Z</time></trkpt><trkpt lat="39.60394388893737" lon="9.181318876188643"><ele>442.0</ele><time>2026-05-01T14:31:03Z</time></trkpt><trkpt lat="39.603790300004086" lon="9.181506228604013"><ele>441.6666666666667</ele><time>2026-05-01T14:31:04Z</time></trkpt><trkpt lat="39.60363980190104" lon="9.181695531896212"><ele>441.33333333333337</ele><time>2026-05-01T14:31:05Z</time></trkpt><trkpt lat="39.603496658547776" lon="9.181887321787002"><ele>441.0</ele><time>2026-05-01T14:31:06Z</time></trkpt><trkpt lat="39.60335437918749" lon="9.182070439968953"><ele>441.0</ele><time>2026-05-01T14:31:07Z</time></trkpt><trkpt lat="39.603213087891255" lon="9.182247780555704"><ele>441.0</ele><time>2026-05-01T14:31:08Z</time></trkpt><trkpt lat="39.60307273047591" lon="9.182418864192892"><ele>441.0</ele><time>2026-05-01T14:31:09Z</time></trkpt><trkpt lat="39.60293554447646" lon="9.182582684986444"><ele>440.0</ele><time>2026-05-01T14:31:10Z</time></trkpt><trkpt lat="39.602801211349934" lon="9.18275596705745"><ele>439.0</ele><time>2026-05-01T14:31:11Z</time></trkpt><trkpt lat="39.60267910078068" lon="9.182940425783675"><ele>438.0</ele><time>2026-05-01T14:31:12Z</time></trkpt><trkpt lat="39.60257153585682" lon="9.183144738955843"><ele>435.0</ele><time>2026-05-01T14:31:13Z</time></trkpt><trkpt lat="39.60247673541035" lon="9.183358707599263"><ele>432.0</ele><time>2026-05-01T14:31:14Z</time></trkpt><trkpt lat="39.60239603356994" lon="9.183574683355474"><ele>429.0</ele><time>2026-05-01T14:31:15Z</time></trkpt><trkpt lat="39.60232996407432" lon="9.183792556379684"><ele>429.0</ele><time>2026-05-01T14:31:16Z</time></trkpt><trkpt lat="39.60228304526165" lon="9.184007453082312"><ele>429.0</ele><time>2026-05-01T14:31:17Z</time></trkpt><trkpt lat="39.60224897984237" lon="9.184221079695712"><ele>429.0</ele><time>2026-05-01T14:31:18Z</time></trkpt><trkpt lat="39.60223060830393" lon="9.184432168211032"><ele>428.0</ele><time>2026-05-01T14:31:19Z</time></trkpt><trkpt lat="39.602222115535106" lon="9.18464335453247"><ele>427.0</ele><time>2026-05-01T14:31:20Z</time></trkpt><trkpt lat="39.6022147894918" lon="9.184850632020174"><ele>426.0</ele><time>2026-05-01T14:31:21Z</time></trkpt><trkpt lat="39.60221231861348" lon="9.185060345639075"><ele>426.0</ele><time>2026-05-01T14:31:22Z</time></trkpt><trkpt lat="39.60221669486697" lon="9.185271562066882"><ele>426.0</ele><time>2026-05-01T14:31:23Z</time></trkpt><trkpt lat="39.60221552604563" lon="9.185482251592509"><ele>426.0</ele><time>2026-05-01T14:31:24Z</time></trkpt><trkpt lat="39.602208518616635" lon="9.185692868933502"><ele>428.0</ele><time>2026-05-01T14:31:25Z</time></trkpt><trkpt lat="39.60220279138241" lon="9.185904312615783"><ele>430.0</ele><time>2026-05-01T14:31:26Z</time></trkpt><trkpt lat="39.60220045223016" lon="9.186114163419587"><ele>432.0</ele><time>2026-05-01T14:31:27Z</time></trkpt><trkpt lat="39.60220117142641" lon="9.18632080261075"><ele>433.66666666666663</ele><time>2026-05-01T14:31:28Z</time></trkpt><trkpt lat="39.6022020825612" lon="9.186521031630779"><ele>435.3333333333333</ele><time>2026-05-01T14:31:29Z</time></trkpt><trkpt lat="39.602200088520696" lon="9.186716107063166"><ele>437.0</ele><time>2026-05-01T14:31:30Z</time></trkpt><trkpt lat="39.602195072814176" lon="9.186906453781479"><ele>437.0</ele><time>2026-05-01T14:31:31Z</time></trkpt><trkpt lat="39.60219335088468" lon="9.187087983771095"><ele>437.0</ele><time>2026-05-01T14:31:32Z</time></trkpt><trkpt lat="39.602191169491554" lon="9.18725430214079"><ele>437.0</ele><time>2026-05-01T14:31:33Z</time></trkpt><trkpt lat="39.602185473668854" lon="9.187405454258908"><ele>437.0</ele><time>2026-05-01T14:31:34Z</time></trkpt><trkpt lat="39.60218509794806" lon="9.187542482209523"><ele>437.3333333333333</ele><time>2026-05-01T14:31:35Z</time></trkpt><trkpt lat="39.60218735540943" lon="9.187667788457093"><ele>437.66666666666663</ele><time>2026-05-01T14:31:36Z</time></trkpt><trkpt lat="39.60217047189544" lon="9.187783679803939"><ele>438.0</ele><time>2026-05-01T14:31:37Z</time></trkpt><trkpt lat="39.60218456578989" lon="9.187895407786652"><ele>438.33333333333337</ele><time>2026-05-01T14:31:38Z</time></trkpt><trkpt lat="39.60218209457516" lon="9.188003079488444"><ele>438.6666666666667</ele><time>2026-05-01T14:31:39Z</time></trkpt><trkpt lat="39.602178371157656" lon="9.18810520644625"><ele>439.0</ele><time>2026-05-01T14:31:40Z</time></trkpt><trkpt lat="39.60217159086903" lon="9.188209561414492"><ele>439.00000000000006</ele><time>2026-05-01T14:31:41Z</time></trkpt><trkpt lat="39.60217116506218" lon="9.188308984612053"><ele>439.0</ele><time>2026-05-01T14:31:42Z</time></trkpt><trkpt lat="39.60216949447379" lon="9.188400905578682"><ele>439.0</ele><time>2026-05-01T14:31:43Z</time></trkpt><trkpt lat="39.60215373486716" lon="9.188520609988803"><ele>439.0</ele><time>2026-05-01T14:31:45Z</time></trkpt><trkpt lat="39.60215471698095" lon="9.188611357999898"><ele>439.00000000000006</ele><time>2026-05-01T14:31:59Z</time></trkpt><trkpt lat="39.602239924144115" lon="9.188713737007514"><ele>439.0</ele><time>2026-05-01T14:32:01Z</time></trkpt><trkpt lat="39.60230033845779" lon="9.188759516552558"><ele>439.00000000000006</ele><time>2026-05-01T14:32:02Z</time></trkpt><trkpt lat="39.60236537148813" lon="9.188800179377372"><ele>439.0</ele><time>2026-05-01T14:32:03Z</time></trkpt><trkpt lat="39.60242513486813" lon="9.188848227807451"><ele>439.0</ele><time>2026-05-01T14:32:04Z</time></trkpt><trkpt lat="39.60248678790955" lon="9.188904029077365"><ele>439.0</ele><time>2026-05-01T14:32:05Z</time></trkpt><trkpt lat="39.60255233325637" lon="9.188972885147246"><ele>439.00000000000006</ele><time>2026-05-01T14:32:06Z</time></trkpt><trkpt lat="39.60261712319714" lon="9.189042224770573"><ele>439.0</ele><time>2026-05-01T14:32:07Z</time></trkpt><trkpt lat="39.60268145528984" lon="9.189104562764335"><ele>439.00000000000006</ele><time>2026-05-01T14:32:08Z</time></trkpt><trkpt lat="39.60274242566038" lon="9.189169815211258"><ele>439.0</ele><time>2026-05-01T14:32:09Z</time></trkpt><trkpt lat="39.60280271193927" lon="9.189229777359913"><ele>439.0</ele><time>2026-05-01T14:32:10Z</time></trkpt><trkpt lat="39.60286735989311" lon="9.189283469001984"><ele>439.0</ele><time>2026-05-01T14:32:11Z</time></trkpt><trkpt lat="39.60293598942017" lon="9.189324339196444"><ele>439.00000000000006</ele><time>2026-05-01T14:32:12Z</time></trkpt><trkpt lat="39.60301427988701" lon="9.18934691069159"><ele>439.0</ele><time>2026-05-01T14:32:13Z</time></trkpt><trkpt lat="39.60309485008517" lon="9.189360304149668"><ele>438.50000000000006</ele><time>2026-05-01T14:32:14Z</time></trkpt><trkpt lat="39.603177062749594" lon="9.189366236780046"><ele>438.0</ele><time>2026-05-01T14:32:15Z</time></trkpt><trkpt lat="39.60326355267532" lon="9.189371458444729"><ele>437.5</ele><time>2026-05-01T14:32:16Z</time></trkpt><trkpt lat="39.603348697907705" lon="9.189368877524497"><ele>437.0</ele><time>2026-05-01T14:32:17Z</time></trkpt><trkpt lat="39.60343304017811" lon="9.189343488252357"><ele>436.50000000000006</ele><time>2026-05-01T14:32:18Z</time></trkpt><trkpt lat="39.60351517221939" lon="9.189331073559593"><ele>436.0</ele><time>2026-05-01T14:32:19Z</time></trkpt><trkpt lat="39.60358604150484" lon="9.189280580658131"><ele>436.0</ele><time>2026-05-01T14:32:20Z</time></trkpt><trkpt lat="39.60365367526052" lon="9.189262303233436"><ele>436.0</ele><time>2026-05-01T14:32:21Z</time></trkpt><trkpt lat="39.6037188096176" lon="9.189241657233913"><ele>436.0</ele><time>2026-05-01T14:32:22Z</time></trkpt><trkpt lat="39.603778320145516" lon="9.189208294140197"><ele>436.0</ele><time>2026-05-01T14:32:23Z</time></trkpt><trkpt lat="39.60383070983879" lon="9.189160214965813"><ele>436.0</ele><time>2026-05-01T14:32:24Z</time></trkpt><trkpt lat="39.603876653227104" lon="9.18910206034759"><ele>436.0</ele><time>2026-05-01T14:32:25Z</time></trkpt><trkpt lat="39.603935603363205" lon="9.189054425131422"><ele>436.0</ele><time>2026-05-01T14:32:26Z</time></trkpt><trkpt lat="39.60399140614099" lon="9.188983380502004"><ele>435.1666666666667</ele><time>2026-05-01T14:32:27Z</time></trkpt><trkpt lat="39.604048056145075" lon="9.18890511040172"><ele>434.33333333333337</ele><time>2026-05-01T14:32:28Z</time></trkpt><trkpt lat="39.60410077233995" lon="9.188811951577776"><ele>433.5</ele><time>2026-05-01T14:32:29Z</time></trkpt><trkpt lat="39.60415637696845" lon="9.188727807560385"><ele>432.66666666666663</ele><time>2026-05-01T14:32:30Z</time></trkpt><trkpt lat="39.604205642100965" lon="9.188632176331847"><ele>431.8333333333333</ele><time>2026-05-01T14:32:31Z</time></trkpt><trkpt lat="39.604252185027796" lon="9.1885238976185"><ele>431.0</ele><time>2026-05-01T14:32:32Z</time></trkpt><trkpt lat="39.604296395487026" lon="9.188409414733883"><ele>431.0</ele><time>2026-05-01T14:32:33Z</time></trkpt><trkpt lat="39.60434292586031" lon="9.18829951359309"><ele>431.0</ele><time>2026-05-01T14:32:34Z</time></trkpt><trkpt lat="39.604405545825195" lon="9.188198412999983"><ele>431.0</ele><time>2026-05-01T14:32:35Z</time></trkpt><trkpt lat="39.60447459765379" lon="9.188087566646919"><ele>431.0</ele><time>2026-05-01T14:32:36Z</time></trkpt><trkpt lat="39.604562320313484" lon="9.18798391375065"><ele>431.0</ele><time>2026-05-01T14:32:37Z</time></trkpt><trkpt lat="39.60466793098268" lon="9.187894500988534"><ele>429.25</ele><time>2026-05-01T14:32:38Z</time></trkpt><trkpt lat="39.60478614767465" lon="9.187821609958549"><ele>427.5</ele><time>2026-05-01T14:32:39Z</time></trkpt><trkpt lat="39.60491634486976" lon="9.187747403848785"><ele>425.75</ele><time>2026-05-01T14:32:40Z</time></trkpt><trkpt lat="39.60505409764506" lon="9.187666229456706"><ele>424.0</ele><time>2026-05-01T14:32:41Z</time></trkpt><trkpt lat="39.60520164372594" lon="9.187583770682666"><ele>423.0</ele><time>2026-05-01T14:32:42Z</time></trkpt><trkpt lat="39.60536420631563" lon="9.18749306863448"><ele>422.0</ele><time>2026-05-01T14:32:43Z</time></trkpt><trkpt lat="39.6055141975858" lon="9.187409180874235"><ele>421.0</ele><time>2026-05-01T14:32:44Z</time></trkpt><trkpt lat="39.60568222104392" lon="9.187319893459044"><ele>420.0</ele><time>2026-05-01T14:32:45Z</time></trkpt><trkpt lat="39.60584920055009" lon="9.187227300465763"><ele>419.0</ele><time>2026-05-01T14:32:46Z</time></trkpt><trkpt lat="39.60602545682127" lon="9.18713270026423"><ele>418.0</ele><time>2026-05-01T14:32:47Z</time></trkpt><trkpt lat="39.60620410289786" lon="9.187034329689943"><ele>415.6666666666667</ele><time>2026-05-01T14:32:48Z</time></trkpt><trkpt lat="39.606386572822906" lon="9.186934170023166"><ele>413.33333333333337</ele><time>2026-05-01T14:32:49Z</time></trkpt><trkpt lat="39.60657159123065" lon="9.186833029298592"><ele>411.0</ele><time>2026-05-01T14:32:50Z</time></trkpt><trkpt lat="39.60675103459143" lon="9.186733680989256"><ele>411.0</ele><time>2026-05-01T14:32:51Z</time></trkpt><trkpt lat="39.606923940298316" lon="9.186635764448956"><ele>411.0</ele><time>2026-05-01T14:32:52Z</time></trkpt><trkpt lat="39.607081980317986" lon="9.186545315776904"><ele>411.0</ele><time>2026-05-01T14:32:53Z</time></trkpt><trkpt lat="39.607224626056244" lon="9.186470721093649"><ele>408.5</ele><time>2026-05-01T14:32:54Z</time></trkpt><trkpt lat="39.607362534113655" lon="9.186417868075814"><ele>406.0</ele><time>2026-05-01T14:32:55Z</time></trkpt><trkpt lat="39.60749545256047" lon="9.186389031795262"><ele>403.5</ele><time>2026-05-01T14:32:56Z</time></trkpt><trkpt lat="39.6076163267129" lon="9.186422212994387"><ele>401.0</ele><time>2026-05-01T14:32:57Z</time></trkpt><trkpt lat="39.6077086293584" lon="9.18648836542844"><ele>401.99999999999994</ele><time>2026-05-01T14:32:58Z</time></trkpt><trkpt lat="39.60778418879505" lon="9.186564721699495"><ele>403.0</ele><time>2026-05-01T14:32:59Z</time></trkpt><trkpt lat="39.60782579687895" lon="9.186641537737744"><ele>404.0</ele><time>2026-05-01T14:33:00Z</time></trkpt><trkpt lat="39.60787811496639" lon="9.186786393807205"><ele>405.0</ele><time>2026-05-01T14:33:02Z</time></trkpt><trkpt lat="39.60791276836683" lon="9.186866985273797"><ele>405.99999999999994</ele><time>2026-05-01T14:33:03Z</time></trkpt><trkpt lat="39.60791295675324" lon="9.186977418430807"><ele>407.0</ele><time>2026-05-01T14:33:04Z</time></trkpt><trkpt lat="39.607927596253894" lon="9.187099847517242"><ele>404.40000000000003</ele><time>2026-05-01T14:33:05Z</time></trkpt><trkpt lat="39.60794248895769" lon="9.187238349634331"><ele>401.8</ele><time>2026-05-01T14:33:06Z</time></trkpt><trkpt lat="39.60795822391133" lon="9.187381207712289"><ele>399.2</ele><time>2026-05-01T14:33:07Z</time></trkpt><trkpt lat="39.607986712237704" lon="9.187513185785162"><ele>396.6</ele><time>2026-05-01T14:33:08Z</time></trkpt><trkpt lat="39.60799542382509" lon="9.187636254421788"><ele>394.0</ele><time>2026-05-01T14:33:09Z</time></trkpt><trkpt lat="39.60800943073422" lon="9.187753903051462"><ele>393.4</ele><time>2026-05-01T14:33:10Z</time></trkpt><trkpt lat="39.608024378704705" lon="9.187877303371312"><ele>392.79999999999995</ele><time>2026-05-01T14:33:11Z</time></trkpt><trkpt lat="39.608042711361094" lon="9.188011126520049"><ele>392.20000000000005</ele><time>2026-05-01T14:33:12Z</time></trkpt><trkpt lat="39.60806309275114" lon="9.188154941826552"><ele>391.6</ele><time>2026-05-01T14:33:13Z</time></trkpt><trkpt lat="39.60807763415299" lon="9.188294853894533"><ele>391.0</ele><time>2026-05-01T14:33:14Z</time></trkpt><trkpt lat="39.608086852915854" lon="9.188433349094566"><ele>390.6</ele><time>2026-05-01T14:33:15Z</time></trkpt><trkpt lat="39.608098956552986" lon="9.188566673596737"><ele>390.20000000000005</ele><time>2026-05-01T14:33:16Z</time></trkpt><trkpt lat="39.60811295971117" lon="9.188694754963441"><ele>389.79999999999995</ele><time>2026-05-01T14:33:17Z</time></trkpt><trkpt lat="39.6081261562886" lon="9.188803364112186"><ele>389.4</ele><time>2026-05-01T14:33:18Z</time></trkpt><trkpt lat="39.60813514301588" lon="9.18893969571536"><ele>389.0</ele><time>2026-05-01T14:33:20Z</time></trkpt><trkpt lat="39.60813985504823" lon="9.189034226695417"><ele>389.0</ele><time>2026-05-01T14:33:24Z</time></trkpt><trkpt lat="39.60810737717486" lon="9.18910928738892"><ele>389.0</ele><time>2026-05-01T14:33:37Z</time></trkpt><trkpt lat="39.60802168539871" lon="9.18913013339337"><ele>389.0</ele><time>2026-05-01T14:33:38Z</time></trkpt><trkpt lat="39.608070642234026" lon="9.189076502463779"><ele>389.0</ele><time>2026-05-01T14:33:50Z</time></trkpt><trkpt lat="39.60814050074342" lon="9.189052912415328"><ele>389.0</ele><time>2026-05-01T14:33:53Z</time></trkpt><trkpt lat="39.60815837235813" lon="9.188785867462617"><ele>389.0</ele><time>2026-05-01T14:33:56Z</time></trkpt><trkpt lat="39.60814040267359" lon="9.188655190340784"><ele>389.0</ele><time>2026-05-01T14:33:57Z</time></trkpt><trkpt lat="39.60811691877103" lon="9.188498975601938"><ele>389.0</ele><time>2026-05-01T14:33:58Z</time></trkpt><trkpt lat="39.60809958158145" lon="9.188331297757356"><ele>389.0</ele><time>2026-05-01T14:33:59Z</time></trkpt><trkpt lat="39.608080229763196" lon="9.18815343876517"><ele>389.66666666666663</ele><time>2026-05-01T14:34:00Z</time></trkpt><trkpt lat="39.60805626553511" lon="9.187967206163743"><ele>390.33333333333337</ele><time>2026-05-01T14:34:01Z</time></trkpt><trkpt lat="39.60803104304677" lon="9.187765713871327"><ele>391.0</ele><time>2026-05-01T14:34:02Z</time></trkpt><trkpt lat="39.60800566858784" lon="9.187539522913948"><ele>392.0</ele><time>2026-05-01T14:34:03Z</time></trkpt><trkpt lat="39.607984400824684" lon="9.187317331567249"><ele>393.0</ele><time>2026-05-01T14:34:04Z</time></trkpt><trkpt lat="39.607964824230926" lon="9.18711370511818"><ele>394.0</ele><time>2026-05-01T14:34:05Z</time></trkpt><trkpt lat="39.60794377966727" lon="9.186927372365561"><ele>394.0</ele><time>2026-05-01T14:34:06Z</time></trkpt><trkpt lat="39.60791939520961" lon="9.186756815383584"><ele>394.0</ele><time>2026-05-01T14:34:07Z</time></trkpt><trkpt lat="39.60787310532147" lon="9.1866129215605"><ele>394.0</ele><time>2026-05-01T14:34:08Z</time></trkpt><trkpt lat="39.60778923956984" lon="9.186492490233295"><ele>394.0</ele><time>2026-05-01T14:34:09Z</time></trkpt><trkpt lat="39.607666918814346" lon="9.18639887096141"><ele>395.75</ele><time>2026-05-01T14:34:10Z</time></trkpt><trkpt lat="39.60752567050895" lon="9.186342360777713"><ele>397.5</ele><time>2026-05-01T14:34:11Z</time></trkpt><trkpt lat="39.60738531370556" lon="9.186344582727347"><ele>399.25</ele><time>2026-05-01T14:34:12Z</time></trkpt><trkpt lat="39.607244154637414" lon="9.186407117732328"><ele>401.0</ele><time>2026-05-01T14:34:13Z</time></trkpt><trkpt lat="39.60711077142823" lon="9.186498798860457"><ele>404.3333333333333</ele><time>2026-05-01T14:34:14Z</time></trkpt><trkpt lat="39.60697598402223" lon="9.186577490593042"><ele>407.66666666666663</ele><time>2026-05-01T14:34:15Z</time></trkpt><trkpt lat="39.60683368848054" lon="9.186658709943458"><ele>411.0</ele><time>2026-05-01T14:34:16Z</time></trkpt><trkpt lat="39.60668655755911" lon="9.18674428546305"><ele>411.0</ele><time>2026-05-01T14:34:17Z</time></trkpt><trkpt lat="39.60653557098897" lon="9.18683275703664"><ele>411.0</ele><time>2026-05-01T14:34:18Z</time></trkpt><trkpt lat="39.606380204522104" lon="9.186917430663367"><ele>411.0</ele><time>2026-05-01T14:34:19Z</time></trkpt><trkpt lat="39.60621866932067" lon="9.18700624039281"><ele>413.33333333333337</ele><time>2026-05-01T14:34:20Z</time></trkpt><trkpt lat="39.60605101409666" lon="9.187098615074873"><ele>415.6666666666667</ele><time>2026-05-01T14:34:21Z</time></trkpt><trkpt lat="39.605882413253894" lon="9.18718836829202"><ele>418.0</ele><time>2026-05-01T14:34:22Z</time></trkpt><trkpt lat="39.605710830533695" lon="9.18727306259109"><ele>419.0</ele><time>2026-05-01T14:34:23Z</time></trkpt><trkpt lat="39.60554946936317" lon="9.187361665097967"><ele>420.0</ele><time>2026-05-01T14:34:24Z</time></trkpt><trkpt lat="39.60540075000578" lon="9.187446727813006"><ele>421.0</ele><time>2026-05-01T14:34:25Z</time></trkpt><trkpt lat="39.60525724481914" lon="9.18752684778723"><ele>421.75</ele><time>2026-05-01T14:34:26Z</time></trkpt><trkpt lat="39.60511755175561" lon="9.187601085119537"><ele>422.5</ele><time>2026-05-01T14:34:27Z</time></trkpt><trkpt lat="39.60497878512728" lon="9.187673705394914"><ele>423.25</ele><time>2026-05-01T14:34:28Z</time></trkpt><trkpt lat="39.60484630596407" lon="9.187746018906834"><ele>424.0</ele><time>2026-05-01T14:34:29Z</time></trkpt><trkpt lat="39.60472189407183" lon="9.18782009584226"><ele>424.0</ele><time>2026-05-01T14:34:30Z</time></trkpt><trkpt lat="39.60460563223586" lon="9.187906286495803"><ele>424.0</ele><time>2026-05-01T14:34:31Z</time></trkpt><trkpt lat="39.604501413991514" lon="9.18801090155643"><ele>424.0</ele><time>2026-05-01T14:34:32Z</time></trkpt><trkpt lat="39.60439942364125" lon="9.1881153821989"><ele>424.0</ele><time>2026-05-01T14:34:33Z</time></trkpt><trkpt lat="39.60432690704177" lon="9.188266008506313"><ele>425.75</ele><time>2026-05-01T14:34:34Z</time></trkpt><trkpt lat="39.60427114672716" lon="9.188412483850827"><ele>427.5</ele><time>2026-05-01T14:34:35Z</time></trkpt><trkpt lat="39.60422514682308" lon="9.188556278750713"><ele>429.25</ele><time>2026-05-01T14:34:36Z</time></trkpt><trkpt lat="39.60416375680046" lon="9.188680352298407"><ele>431.0</ele><time>2026-05-01T14:34:37Z</time></trkpt><trkpt lat="39.60410310183066" lon="9.188784514110427"><ele>431.0</ele><time>2026-05-01T14:34:38Z</time></trkpt><trkpt lat="39.60403427670723" lon="9.188877686106544"><ele>431.0</ele><time>2026-05-01T14:34:39Z</time></trkpt><trkpt lat="39.60396293703279" lon="9.188970846667926"><ele>431.0</ele><time>2026-05-01T14:34:40Z</time></trkpt><trkpt lat="39.6038898572293" lon="9.18906780022043"><ele>431.0</ele><time>2026-05-01T14:34:41Z</time></trkpt><trkpt lat="39.603816250184614" lon="9.189138890760436"><ele>431.0</ele><time>2026-05-01T14:34:42Z</time></trkpt><trkpt lat="39.60373819734575" lon="9.18920195392793"><ele>431.8333333333333</ele><time>2026-05-01T14:34:43Z</time></trkpt><trkpt lat="39.60365906240912" lon="9.189226007314106"><ele>432.66666666666663</ele><time>2026-05-01T14:34:44Z</time></trkpt><trkpt lat="39.603585193223175" lon="9.189257517322496"><ele>433.5</ele><time>2026-05-01T14:34:45Z</time></trkpt><trkpt lat="39.60352060383744" lon="9.189297345911399"><ele>434.33333333333337</ele><time>2026-05-01T14:34:46Z</time></trkpt><trkpt lat="39.603455786565696" lon="9.189311860593675"><ele>435.1666666666667</ele><time>2026-05-01T14:34:47Z</time></trkpt><trkpt lat="39.60338121150535" lon="9.189333041156926"><ele>436.0</ele><time>2026-05-01T14:34:48Z</time></trkpt><trkpt lat="39.603302284362755" lon="9.189317593571769"><ele>436.00000000000006</ele><time>2026-05-01T14:34:49Z</time></trkpt><trkpt lat="39.603217040417285" lon="9.189334928919076"><ele>436.0</ele><time>2026-05-01T14:34:50Z</time></trkpt><trkpt lat="39.60312473310291" lon="9.189326067551459"><ele>436.0</ele><time>2026-05-01T14:34:51Z</time></trkpt><trkpt lat="39.60303475544419" lon="9.18931981843967"><ele>436.0</ele><time>2026-05-01T14:34:52Z</time></trkpt><trkpt lat="39.60294683759211" lon="9.189285802344246"><ele>436.00000000000006</ele><time>2026-05-01T14:34:53Z</time></trkpt><trkpt lat="39.60287270352927" lon="9.18922849574354"><ele>436.0</ele><time>2026-05-01T14:34:54Z</time></trkpt><trkpt lat="39.60279910527864" lon="9.189163973577433"><ele>436.6</ele><time>2026-05-01T14:34:55Z</time></trkpt><trkpt lat="39.60272015168064" lon="9.189088428993744"><ele>437.20000000000005</ele><time>2026-05-01T14:34:56Z</time></trkpt><trkpt lat="39.60264626328584" lon="9.189008341802973"><ele>437.79999999999995</ele><time>2026-05-01T14:34:57Z</time></trkpt><trkpt lat="39.602571262656" lon="9.188927405865403"><ele>438.4</ele><time>2026-05-01T14:34:58Z</time></trkpt><trkpt lat="39.60250471377367" lon="9.188858393351572"><ele>439.0</ele><time>2026-05-01T14:34:59Z</time></trkpt><trkpt lat="39.60244200752435" lon="9.188798132808802"><ele>439.00000000000006</ele><time>2026-05-01T14:35:00Z</time></trkpt><trkpt lat="39.602354947468555" lon="9.188747272206895"><ele>439.0</ele><time>2026-05-01T14:35:02Z</time></trkpt><trkpt lat="39.60230500788965" lon="9.188885348734692"><ele>439.0</ele><time>2026-05-01T14:35:06Z</time></trkpt><trkpt lat="39.60229547699182" lon="9.188968500685174"><ele>439.0</ele><time>2026-05-01T14:35:07Z</time></trkpt><trkpt lat="39.60229276210968" lon="9.189061759243467"><ele>439.00000000000006</ele><time>2026-05-01T14:35:08Z</time></trkpt><trkpt lat="39.60228752750947" lon="9.189181585642473"><ele>439.0</ele><time>2026-05-01T14:35:09Z</time></trkpt><trkpt lat="39.6022807275168" lon="9.189305904841142"><ele>439.0</ele><time>2026-05-01T14:35:10Z</time></trkpt><trkpt lat="39.60229400620364" lon="9.189434701700797"><ele>439.0</ele><time>2026-05-01T14:35:11Z</time></trkpt><trkpt lat="39.602310750523" lon="9.189546320758708"><ele>439.0</ele><time>2026-05-01T14:35:12Z</time></trkpt><trkpt lat="39.602365027547286" lon="9.189642767324804"><ele>439.0</ele><time>2026-05-01T14:35:13Z</time></trkpt><trkpt lat="39.6024393432644" lon="9.18973373438735"><ele>439.0</ele><time>2026-05-01T14:35:14Z</time></trkpt><trkpt lat="39.60251380776544" lon="9.189824100159042"><ele>438.83333333333337</ele><time>2026-05-01T14:35:15Z</time></trkpt><trkpt lat="39.602580141343026" lon="9.189911350040843"><ele>438.6666666666667</ele><time>2026-05-01T14:35:16Z</time></trkpt><trkpt lat="39.602651422782884" lon="9.18998281112194"><ele>438.5</ele><time>2026-05-01T14:35:17Z</time></trkpt><trkpt lat="39.602717441441754" lon="9.190059255503526"><ele>438.33333333333337</ele><time>2026-05-01T14:35:18Z</time></trkpt><trkpt lat="39.60278192964463" lon="9.190133013140647"><ele>438.1666666666667</ele><time>2026-05-01T14:35:19Z</time></trkpt><trkpt lat="39.60284606126705" lon="9.190191228540762"><ele>438.0</ele><time>2026-05-01T14:35:20Z</time></trkpt><trkpt lat="39.602903955876535" lon="9.190231384846333"><ele>437.79999999999995</ele><time>2026-05-01T14:35:21Z</time></trkpt><trkpt lat="39.6030114055032" lon="9.190283274416673"><ele>437.59999999999997</ele><time>2026-05-01T14:35:23Z</time></trkpt><trkpt lat="39.60312264486244" lon="9.190323609687008"><ele>437.40000000000003</ele><time>2026-05-01T14:35:25Z</time></trkpt><trkpt lat="39.60323261986601" lon="9.190348392496539"><ele>437.20000000000005</ele><time>2026-05-01T14:35:27Z</time></trkpt><trkpt lat="39.60329603811882" lon="9.190349836631897"><ele>437.0</ele><time>2026-05-01T14:35:28Z</time></trkpt><trkpt lat="39.60336123060742" lon="9.190349643495221"><ele>437.0</ele><time>2026-05-01T14:35:29Z</time></trkpt><trkpt lat="39.603470979668366" lon="9.190380239445878"><ele>437.00000000000006</ele><time>2026-05-01T14:35:31Z</time></trkpt><trkpt lat="39.60353491177687" lon="9.19043029551987"><ele>437.00000000000006</ele><time>2026-05-01T14:35:33Z</time></trkpt><trkpt lat="39.603511645038914" lon="9.190615390449949"><ele>437.0</ele><time>2026-05-01T14:35:34Z</time></trkpt><trkpt lat="39.603527458953685" lon="9.190717232026527"><ele>437.0</ele><time>2026-05-01T14:35:35Z</time></trkpt><trkpt lat="39.60356101106255" lon="9.19080736456274"><ele>436.57142857142856</ele><time>2026-05-01T14:35:36Z</time></trkpt><trkpt lat="39.603572727603044" lon="9.190893743597243"><ele>436.14285714285717</ele><time>2026-05-01T14:35:37Z</time></trkpt><trkpt lat="39.60359709623842" lon="9.19096942149266"><ele>435.7142857142857</ele><time>2026-05-01T14:35:38Z</time></trkpt><trkpt lat="39.603624756379254" lon="9.191058694463392"><ele>435.2857142857143</ele><time>2026-05-01T14:35:39Z</time></trkpt><trkpt lat="39.603697967925626" lon="9.191112461165016"><ele>434.8571428571429</ele><time>2026-05-01T14:35:40Z</time></trkpt><trkpt lat="39.60373293989078" lon="9.19118658602301"><ele>434.42857142857144</ele><time>2026-05-01T14:35:41Z</time></trkpt><trkpt lat="39.603774396560325" lon="9.191248836572406"><ele>434.0</ele><time>2026-05-01T14:35:42Z</time></trkpt><trkpt lat="39.603828584698114" lon="9.191298412433778"><ele>433.6</ele><time>2026-05-01T14:35:43Z</time></trkpt><trkpt lat="39.60385619075856" lon="9.191427416562306"><ele>433.2</ele><time>2026-05-01T14:35:45Z</time></trkpt><trkpt lat="39.603823599449186" lon="9.191577685863312"><ele>432.80000000000007</ele><time>2026-05-01T14:35:47Z</time></trkpt><trkpt lat="39.6037994499634" lon="9.191668511603027"><ele>432.40000000000003</ele><time>2026-05-01T14:35:48Z</time></trkpt><trkpt lat="39.60377295527904" lon="9.191760967371593"><ele>432.0</ele><time>2026-05-01T14:35:49Z</time></trkpt><trkpt lat="39.6037465370335" lon="9.191865204689439"><ele>432.0</ele><time>2026-05-01T14:35:50Z</time></trkpt><trkpt lat="39.60371845542116" lon="9.191962682241844"><ele>432.0</ele><time>2026-05-01T14:35:51Z</time></trkpt><trkpt lat="39.603685967098556" lon="9.192049116258536"><ele>432.0</ele><time>2026-05-01T14:35:52Z</time></trkpt><trkpt lat="39.603663429584756" lon="9.192144530572223"><ele>432.0</ele><time>2026-05-01T14:35:53Z</time></trkpt><trkpt lat="39.60364221958207" lon="9.192245641033914"><ele>432.0</ele><time>2026-05-01T14:35:54Z</time></trkpt><trkpt lat="39.603634484545644" lon="9.192357894566493"><ele>432.0</ele><time>2026-05-01T14:35:55Z</time></trkpt><trkpt lat="39.60359988658331" lon="9.192468809529316"><ele>432.1666666666667</ele><time>2026-05-01T14:35:56Z</time></trkpt><trkpt lat="39.6035533687296" lon="9.192567198565458"><ele>432.33333333333337</ele><time>2026-05-01T14:35:57Z</time></trkpt><trkpt lat="39.60349086961332" lon="9.192644795766068"><ele>432.5</ele><time>2026-05-01T14:35:58Z</time></trkpt><trkpt lat="39.60342606356194" lon="9.192709922379986"><ele>432.6666666666667</ele><time>2026-05-01T14:35:59Z</time></trkpt><trkpt lat="39.60335958842911" lon="9.192777120766232"><ele>432.83333333333337</ele><time>2026-05-01T14:36:00Z</time></trkpt><trkpt lat="39.60329122126392" lon="9.192853609859272"><ele>433.0</ele><time>2026-05-01T14:36:01Z</time></trkpt><trkpt lat="39.60321858784523" lon="9.19292762292256"><ele>433.0</ele><time>2026-05-01T14:36:02Z</time></trkpt><trkpt lat="39.603143544441735" lon="9.193003899421207"><ele>432.99999999999994</ele><time>2026-05-01T14:36:03Z</time></trkpt><trkpt lat="39.60308250171939" lon="9.193099407509152"><ele>432.99999999999994</ele><time>2026-05-01T14:36:04Z</time></trkpt><trkpt lat="39.60301207154918" lon="9.19319155298632"><ele>433.0</ele><time>2026-05-01T14:36:05Z</time></trkpt><trkpt lat="39.602946709360616" lon="9.193291868890615"><ele>433.0</ele><time>2026-05-01T14:36:06Z</time></trkpt><trkpt lat="39.60288121298135" lon="9.193394392632817"><ele>433.4</ele><time>2026-05-01T14:36:07Z</time></trkpt><trkpt lat="39.60281509672019" lon="9.193501841510384"><ele>433.79999999999995</ele><time>2026-05-01T14:36:08Z</time></trkpt><trkpt lat="39.60275010605505" lon="9.193621333961474"><ele>434.2</ele><time>2026-05-01T14:36:09Z</time></trkpt><trkpt lat="39.60268610999327" lon="9.193743315415453"><ele>434.6</ele><time>2026-05-01T14:36:10Z</time></trkpt><trkpt lat="39.60262307963904" lon="9.1938662416583"><ele>435.0</ele><time>2026-05-01T14:36:11Z</time></trkpt><trkpt lat="39.6025655587131" lon="9.194004528063182"><ele>434.75</ele><time>2026-05-01T14:36:12Z</time></trkpt><trkpt lat="39.60250445364308" lon="9.194139775887933"><ele>434.5</ele><time>2026-05-01T14:36:13Z</time></trkpt><trkpt lat="39.602450269882894" lon="9.194272783520574"><ele>434.25</ele><time>2026-05-01T14:36:14Z</time></trkpt><trkpt lat="39.60240428546989" lon="9.19440827076"><ele>434.0</ele><time>2026-05-01T14:36:15Z</time></trkpt><trkpt lat="39.60236120284808" lon="9.194546346070242"><ele>434.0</ele><time>2026-05-01T14:36:16Z</time></trkpt><trkpt lat="39.60231643907892" lon="9.194680152926821"><ele>434.0</ele><time>2026-05-01T14:36:17Z</time></trkpt><trkpt lat="39.60226460714028" lon="9.19480374643158"><ele>434.0</ele><time>2026-05-01T14:36:18Z</time></trkpt><trkpt lat="39.60223271615494" lon="9.194958810001376"><ele>434.0</ele><time>2026-05-01T14:36:19Z</time></trkpt><trkpt lat="39.602188247501616" lon="9.195104710099823"><ele>434.0</ele><time>2026-05-01T14:36:20Z</time></trkpt><trkpt lat="39.60213849264118" lon="9.195256428166264"><ele>434.0</ele><time>2026-05-01T14:36:21Z</time></trkpt><trkpt lat="39.602085412622934" lon="9.19541363488129"><ele>434.0</ele><time>2026-05-01T14:36:22Z</time></trkpt><trkpt lat="39.602032164810446" lon="9.195575319576163"><ele>434.0</ele><time>2026-05-01T14:36:23Z</time></trkpt><trkpt lat="39.60197988315457" lon="9.195734301988514"><ele>434.25</ele><time>2026-05-01T14:36:24Z</time></trkpt><trkpt lat="39.60192778908667" lon="9.195899304496645"><ele>434.5</ele><time>2026-05-01T14:36:25Z</time></trkpt><trkpt lat="39.60187065222234" lon="9.196066302895323"><ele>434.75</ele><time>2026-05-01T14:36:26Z</time></trkpt><trkpt lat="39.60182079947498" lon="9.196246831605508"><ele>435.0</ele><time>2026-05-01T14:36:27Z</time></trkpt><trkpt lat="39.601766572271" lon="9.196423222177227"><ele>435.0</ele><time>2026-05-01T14:36:28Z</time></trkpt><trkpt lat="39.601710531572444" lon="9.196607309207005"><ele>435.0</ele><time>2026-05-01T14:36:29Z</time></trkpt><trkpt lat="39.60165574539103" lon="9.196792331503053"><ele>435.0</ele><time>2026-05-01T14:36:30Z</time></trkpt><trkpt lat="39.601596552528825" lon="9.196978328506809"><ele>435.0</ele><time>2026-05-01T14:36:31Z</time></trkpt><trkpt lat="39.60153574083146" lon="9.197162701341384"><ele>435.0</ele><time>2026-05-01T14:36:32Z</time></trkpt><trkpt lat="39.601479120493735" lon="9.197354099344759"><ele>435.0</ele><time>2026-05-01T14:36:33Z</time></trkpt><trkpt lat="39.601423613820224" lon="9.197542249847686"><ele>435.0</ele><time>2026-05-01T14:36:34Z</time></trkpt><trkpt lat="39.601368777554875" lon="9.197735864517254"><ele>435.0</ele><time>2026-05-01T14:36:35Z</time></trkpt><trkpt lat="39.601311770786374" lon="9.197924494350598"><ele>435.0</ele><time>2026-05-01T14:36:36Z</time></trkpt><trkpt lat="39.601251992383226" lon="9.198115225312186"><ele>435.25</ele><time>2026-05-01T14:36:37Z</time></trkpt><trkpt lat="39.601194734964125" lon="9.198298183384791"><ele>435.5</ele><time>2026-05-01T14:36:38Z</time></trkpt><trkpt lat="39.60113335212429" lon="9.198479027970468"><ele>435.75</ele><time>2026-05-01T14:36:39Z</time></trkpt><trkpt lat="39.601072260750215" lon="9.198645679653756"><ele>436.0</ele><time>2026-05-01T14:36:40Z</time></trkpt><trkpt lat="39.600997462976714" lon="9.19880011398904"><ele>435.75</ele><time>2026-05-01T14:36:41Z</time></trkpt><trkpt lat="39.60091671716451" lon="9.198949378496286"><ele>435.5</ele><time>2026-05-01T14:36:42Z</time></trkpt><trkpt lat="39.60083546601695" lon="9.199097805634741"><ele>435.25</ele><time>2026-05-01T14:36:43Z</time></trkpt><trkpt lat="39.60074674753152" lon="9.199243169672048"><ele>435.0</ele><time>2026-05-01T14:36:44Z</time></trkpt><trkpt lat="39.600659493953636" lon="9.199395743605425"><ele>435.0</ele><time>2026-05-01T14:36:45Z</time></trkpt><trkpt lat="39.6005681090503" lon="9.199549774697532"><ele>435.0</ele><time>2026-05-01T14:36:46Z</time></trkpt><trkpt lat="39.60046984408727" lon="9.199702222986671"><ele>435.0</ele><time>2026-05-01T14:36:47Z</time></trkpt><trkpt lat="39.600359921516876" lon="9.199841545145587"><ele>435.66666666666663</ele><time>2026-05-01T14:36:48Z</time></trkpt><trkpt lat="39.60023546504612" lon="9.19996612054333"><ele>436.3333333333333</ele><time>2026-05-01T14:36:49Z</time></trkpt><trkpt lat="39.600101336165814" lon="9.200083386532933"><ele>437.0</ele><time>2026-05-01T14:36:50Z</time></trkpt><trkpt lat="39.599964211036564" lon="9.200203077765476"><ele>437.0</ele><time>2026-05-01T14:36:51Z</time></trkpt><trkpt lat="39.59982301343721" lon="9.200326553856767"><ele>437.0</ele><time>2026-05-01T14:36:52Z</time></trkpt><trkpt lat="39.59968181753215" lon="9.20044420202556"><ele>437.0</ele><time>2026-05-01T14:36:53Z</time></trkpt><trkpt lat="39.59953669588662" lon="9.200568867769034"><ele>436.3333333333333</ele><time>2026-05-01T14:36:54Z</time></trkpt><trkpt lat="39.59939265101284" lon="9.2006963428288"><ele>435.66666666666663</ele><time>2026-05-01T14:36:55Z</time></trkpt><trkpt lat="39.599252128566974" lon="9.200834556759409"><ele>435.0</ele><time>2026-05-01T14:36:56Z</time></trkpt><trkpt lat="39.59911572957288" lon="9.200998947316153"><ele>435.0</ele><time>2026-05-01T14:36:57Z</time></trkpt><trkpt lat="39.59898222278774" lon="9.201179578804815"><ele>435.0</ele><time>2026-05-01T14:36:58Z</time></trkpt><trkpt lat="39.598850999621604" lon="9.201367170483469"><ele>435.0</ele><time>2026-05-01T14:36:59Z</time></trkpt><trkpt lat="39.598713092353975" lon="9.201566891000079"><ele>432.0</ele><time>2026-05-01T14:37:00Z</time></trkpt><trkpt lat="39.59857749215755" lon="9.201761892223686"><ele>429.0</ele><time>2026-05-01T14:37:01Z</time></trkpt><trkpt lat="39.59843569470948" lon="9.201954314082911"><ele>426.0</ele><time>2026-05-01T14:37:02Z</time></trkpt><trkpt lat="39.598287265042075" lon="9.202156389999425"><ele>425.33333333333337</ele><time>2026-05-01T14:37:03Z</time></trkpt><trkpt lat="39.59813506393111" lon="9.202363597982709"><ele>424.6666666666667</ele><time>2026-05-01T14:37:04Z</time></trkpt><trkpt lat="39.597969439552216" lon="9.202559080992526"><ele>424.0</ele><time>2026-05-01T14:37:05Z</time></trkpt><trkpt lat="39.597812084306184" lon="9.202762448363165"><ele>421.0</ele><time>2026-05-01T14:37:06Z</time></trkpt><trkpt lat="39.59766878496309" lon="9.202974863456765"><ele>418.0</ele><time>2026-05-01T14:37:07Z</time></trkpt><trkpt lat="39.59751173976729" lon="9.203170232299247"><ele>415.0</ele><time>2026-05-01T14:37:08Z</time></trkpt><trkpt lat="39.59735422703108" lon="9.203368379133423"><ele>415.0</ele><time>2026-05-01T14:37:09Z</time></trkpt><trkpt lat="39.597204313788495" lon="9.203575510551971"><ele>415.0</ele><time>2026-05-01T14:37:10Z</time></trkpt><trkpt lat="39.59707256974668" lon="9.20379497515177"><ele>415.0</ele><time>2026-05-01T14:37:11Z</time></trkpt><trkpt lat="39.59696744442056" lon="9.204017864967312"><ele>414.0</ele><time>2026-05-01T14:37:12Z</time></trkpt><trkpt lat="39.59688012552956" lon="9.204257000858288"><ele>413.0</ele><time>2026-05-01T14:37:13Z</time></trkpt><trkpt lat="39.59679022762038" lon="9.204509799109152"><ele>412.0</ele><time>2026-05-01T14:37:14Z</time></trkpt><trkpt lat="39.5966880865291" lon="9.204758571082962"><ele>410.6666666666667</ele><time>2026-05-01T14:37:15Z</time></trkpt><trkpt lat="39.59659464208274" lon="9.205016779573505"><ele>409.33333333333337</ele><time>2026-05-01T14:37:16Z</time></trkpt><trkpt lat="39.596502585106364" lon="9.205279379324175"><ele>408.0</ele><time>2026-05-01T14:37:17Z</time></trkpt><trkpt lat="39.59641096322421" lon="9.205540738015344"><ele>407.33333333333337</ele><time>2026-05-01T14:37:18Z</time></trkpt><trkpt lat="39.596332634433914" lon="9.20580207020177"><ele>406.6666666666667</ele><time>2026-05-01T14:37:19Z</time></trkpt><trkpt lat="39.59625839519961" lon="9.206056310117228"><ele>406.0</ele><time>2026-05-01T14:37:20Z</time></trkpt><trkpt lat="39.59620847307605" lon="9.20631191104102"><ele>404.6666666666667</ele><time>2026-05-01T14:37:21Z</time></trkpt><trkpt lat="39.59616368543311" lon="9.206593783852243"><ele>403.33333333333337</ele><time>2026-05-01T14:37:22Z</time></trkpt><trkpt lat="39.596126025031154" lon="9.206854266424449"><ele>402.0</ele><time>2026-05-01T14:37:23Z</time></trkpt><trkpt lat="39.59608490876621" lon="9.207106997784622"><ele>400.66666666666663</ele><time>2026-05-01T14:37:24Z</time></trkpt><trkpt lat="39.59604155075652" lon="9.207348735325752"><ele>399.3333333333333</ele><time>2026-05-01T14:37:25Z</time></trkpt><trkpt lat="39.59598128932423" lon="9.207575863268707"><ele>398.0</ele><time>2026-05-01T14:37:26Z</time></trkpt><trkpt lat="39.59589698459915" lon="9.207781189364841"><ele>398.0</ele><time>2026-05-01T14:37:27Z</time></trkpt><trkpt lat="39.59578461703323" lon="9.20794463559043"><ele>398.0</ele><time>2026-05-01T14:37:28Z</time></trkpt><trkpt lat="39.59565280004903" lon="9.20808184996468"><ele>398.0</ele><time>2026-05-01T14:37:29Z</time></trkpt><trkpt lat="39.59549193149335" lon="9.20818628311487"><ele>395.66666666666663</ele><time>2026-05-01T14:37:30Z</time></trkpt><trkpt lat="39.595314110485724" lon="9.20827255788237"><ele>393.33333333333337</ele><time>2026-05-01T14:37:31Z</time></trkpt><trkpt lat="39.59515216139468" lon="9.208425963507572"><ele>391.0</ele><time>2026-05-01T14:37:32Z</time></trkpt><trkpt lat="39.59498308233473" lon="9.208581709016908"><ele>391.0</ele><time>2026-05-01T14:37:33Z</time></trkpt><trkpt lat="39.594807119521825" lon="9.208748041904236"><ele>391.0</ele><time>2026-05-01T14:37:34Z</time></trkpt><trkpt lat="39.59462634388435" lon="9.20891474508019"><ele>391.0</ele><time>2026-05-01T14:37:35Z</time></trkpt><trkpt lat="39.59444367307785" lon="9.209085820276856"><ele>391.0</ele><time>2026-05-01T14:37:36Z</time></trkpt><trkpt lat="39.59425662237583" lon="9.209261263867889"><ele>391.0</ele><time>2026-05-01T14:37:37Z</time></trkpt><trkpt lat="39.594067822790755" lon="9.209442856890838"><ele>391.0</ele><time>2026-05-01T14:37:38Z</time></trkpt><trkpt lat="39.59387579166603" lon="9.209624850903467"><ele>391.0</ele><time>2026-05-01T14:37:39Z</time></trkpt><trkpt lat="39.59367763151861" lon="9.209812248078885"><ele>392.0</ele><time>2026-05-01T14:37:40Z</time></trkpt><trkpt lat="39.593480921463225" lon="9.209994585728921"><ele>393.0</ele><time>2026-05-01T14:37:41Z</time></trkpt><trkpt lat="39.59327860611371" lon="9.210148030164909"><ele>393.0</ele><time>2026-05-01T14:37:42Z</time></trkpt><trkpt lat="39.59309054491951" lon="9.210304648030132"><ele>393.0</ele><time>2026-05-01T14:37:43Z</time></trkpt><trkpt lat="39.592907288196606" lon="9.21045579961278"><ele>393.0</ele><time>2026-05-01T14:37:44Z</time></trkpt><trkpt lat="39.59273407205032" lon="9.210620937975586"><ele>395.33333333333337</ele><time>2026-05-01T14:37:45Z</time></trkpt><trkpt lat="39.592562756793484" lon="9.210768199144496"><ele>397.6666666666667</ele><time>2026-05-01T14:37:46Z</time></trkpt><trkpt lat="39.59239607424217" lon="9.210901805583548"><ele>400.0</ele><time>2026-05-01T14:37:47Z</time></trkpt><trkpt lat="39.59225806453447" lon="9.21104789407042"><ele>400.0</ele><time>2026-05-01T14:37:48Z</time></trkpt><trkpt lat="39.59214675677671" lon="9.211193035461127"><ele>400.0</ele><time>2026-05-01T14:37:49Z</time></trkpt><trkpt lat="39.59202599135263" lon="9.21130258887272"><ele>400.0</ele><time>2026-05-01T14:37:50Z</time></trkpt><trkpt lat="39.5918864845325" lon="9.211377052411242"><ele>401.6666666666667</ele><time>2026-05-01T14:37:51Z</time></trkpt><trkpt lat="39.59172965439606" lon="9.21140624831471"><ele>403.33333333333337</ele><time>2026-05-01T14:37:52Z</time></trkpt><trkpt lat="39.59156535588631" lon="9.21139875605689"><ele>405.0</ele><time>2026-05-01T14:37:53Z</time></trkpt><trkpt lat="39.591407624973215" lon="9.211347230820635"><ele>405.0</ele><time>2026-05-01T14:37:54Z</time></trkpt><trkpt lat="39.591264505732624" lon="9.21124975913046"><ele>405.0</ele><time>2026-05-01T14:37:55Z</time></trkpt><trkpt lat="39.591142791526586" lon="9.21110797094199"><ele>405.0</ele><time>2026-05-01T14:37:56Z</time></trkpt><trkpt lat="39.59103432184755" lon="9.210934864701256"><ele>405.0</ele><time>2026-05-01T14:37:57Z</time></trkpt><trkpt lat="39.590929565094065" lon="9.21074866948593"><ele>405.0</ele><time>2026-05-01T14:37:58Z</time></trkpt><trkpt lat="39.59083140996325" lon="9.210548204072587"><ele>405.0</ele><time>2026-05-01T14:37:59Z</time></trkpt><trkpt lat="39.59074282015635" lon="9.210331854538012"><ele>407.0</ele><time>2026-05-01T14:38:00Z</time></trkpt><trkpt lat="39.590662277493195" lon="9.210109929241229"><ele>409.0</ele><time>2026-05-01T14:38:01Z</time></trkpt><trkpt lat="39.59058957350666" lon="9.209891942227742"><ele>411.0</ele><time>2026-05-01T14:38:02Z</time></trkpt><trkpt lat="39.590515223971465" lon="9.209654637210654"><ele>412.0</ele><time>2026-05-01T14:38:03Z</time></trkpt><trkpt lat="39.59045556477991" lon="9.209413988369358"><ele>413.0</ele><time>2026-05-01T14:38:04Z</time></trkpt><trkpt lat="39.590391335391146" lon="9.209176462869342"><ele>414.0</ele><time>2026-05-01T14:38:05Z</time></trkpt><trkpt lat="39.590321427645435" lon="9.208933812601545"><ele>414.0</ele><time>2026-05-01T14:38:06Z</time></trkpt><trkpt lat="39.59032290719334" lon="9.208661632303643"><ele>414.0</ele><time>2026-05-01T14:38:07Z</time></trkpt><trkpt lat="39.590289021177284" lon="9.208422423394635"><ele>414.0</ele><time>2026-05-01T14:38:08Z</time></trkpt><trkpt lat="39.59029189590957" lon="9.208189260430052"><ele>415.33333333333337</ele><time>2026-05-01T14:38:09Z</time></trkpt><trkpt lat="39.590333572044905" lon="9.207949513857844"><ele>416.6666666666667</ele><time>2026-05-01T14:38:10Z</time></trkpt><trkpt lat="39.590390572051135" lon="9.20770904416308"><ele>418.0</ele><time>2026-05-01T14:38:11Z</time></trkpt><trkpt lat="39.59046001029608" lon="9.207470477105016"><ele>421.33333333333337</ele><time>2026-05-01T14:38:12Z</time></trkpt><trkpt lat="39.590535269836565" lon="9.207231894324838"><ele>424.66666666666663</ele><time>2026-05-01T14:38:13Z</time></trkpt><trkpt lat="39.590609888553445" lon="9.206988196524865"><ele>428.0</ele><time>2026-05-01T14:38:14Z</time></trkpt><trkpt lat="39.590676118077035" lon="9.206734876245257"><ele>427.3333333333333</ele><time>2026-05-01T14:38:15Z</time></trkpt><trkpt lat="39.59072364866123" lon="9.206469257249138"><ele>426.66666666666663</ele><time>2026-05-01T14:38:16Z</time></trkpt><trkpt lat="39.59076068090991" lon="9.206195659738102"><ele>426.0</ele><time>2026-05-01T14:38:17Z</time></trkpt><trkpt lat="39.59079608152688" lon="9.205922750797443"><ele>427.0</ele><time>2026-05-01T14:38:18Z</time></trkpt><trkpt lat="39.59082995271282" lon="9.20565917833736"><ele>428.0</ele><time>2026-05-01T14:38:19Z</time></trkpt><trkpt lat="39.59087691787133" lon="9.20539185821648"><ele>429.0</ele><time>2026-05-01T14:38:20Z</time></trkpt><trkpt lat="39.590942202494006" lon="9.205147268235978"><ele>429.0</ele><time>2026-05-01T14:38:21Z</time></trkpt><trkpt lat="39.591037830221005" lon="9.204926569740952"><ele>429.0</ele><time>2026-05-01T14:38:22Z</time></trkpt><trkpt lat="39.59114253169884" lon="9.204721308959364"><ele>429.0</ele><time>2026-05-01T14:38:23Z</time></trkpt><trkpt lat="39.5912334423046" lon="9.204508131035386"><ele>430.33333333333337</ele><time>2026-05-01T14:38:24Z</time></trkpt><trkpt lat="39.59128934719843" lon="9.204279665550994"><ele>431.6666666666667</ele><time>2026-05-01T14:38:25Z</time></trkpt><trkpt lat="39.59131187240129" lon="9.204045109583804"><ele>433.0</ele><time>2026-05-01T14:38:26Z</time></trkpt><trkpt lat="39.59132662317913" lon="9.203827868756175"><ele>433.0</ele><time>2026-05-01T14:38:27Z</time></trkpt><trkpt lat="39.59136322178558" lon="9.203621326629362"><ele>433.0</ele><time>2026-05-01T14:38:28Z</time></trkpt><trkpt lat="39.591434509790325" lon="9.203421276395686"><ele>433.0</ele><time>2026-05-01T14:38:29Z</time></trkpt><trkpt lat="39.591521924421116" lon="9.203222171117346"><ele>435.33333333333337</ele><time>2026-05-01T14:38:30Z</time></trkpt><trkpt lat="39.59162021586727" lon="9.203022756813036"><ele>437.66666666666663</ele><time>2026-05-01T14:38:31Z</time></trkpt><trkpt lat="39.59172979987266" lon="9.202828784053683"><ele>440.0</ele><time>2026-05-01T14:38:32Z</time></trkpt><trkpt lat="39.59184892252187" lon="9.202639568903216"><ele>440.0</ele><time>2026-05-01T14:38:33Z</time></trkpt><trkpt lat="39.59197103914393" lon="9.202452476258623"><ele>440.0</ele><time>2026-05-01T14:38:34Z</time></trkpt><trkpt lat="39.592076386100054" lon="9.202255711689483"><ele>440.0</ele><time>2026-05-01T14:38:35Z</time></trkpt><trkpt lat="39.5921671559564" lon="9.202037001624342"><ele>438.66666666666663</ele><time>2026-05-01T14:38:36Z</time></trkpt><trkpt lat="39.59223890819295" lon="9.201801025662267"><ele>437.33333333333337</ele><time>2026-05-01T14:38:37Z</time></trkpt><trkpt lat="39.59229804428613" lon="9.201572947498526"><ele>436.0</ele><time>2026-05-01T14:38:38Z</time></trkpt><trkpt lat="39.59234747197786" lon="9.201348197330168"><ele>433.6666666666667</ele><time>2026-05-01T14:38:39Z</time></trkpt><trkpt lat="39.592383868618676" lon="9.20112044312701"><ele>431.33333333333337</ele><time>2026-05-01T14:38:40Z</time></trkpt><trkpt lat="39.592405353426194" lon="9.200891282587998"><ele>429.0</ele><time>2026-05-01T14:38:41Z</time></trkpt><trkpt lat="39.59241024588399" lon="9.200660698324807"><ele>426.0</ele><time>2026-05-01T14:38:42Z</time></trkpt><trkpt lat="39.59239814375653" lon="9.200431158457194"><ele>423.0</ele><time>2026-05-01T14:38:43Z</time></trkpt><trkpt lat="39.59236514429969" lon="9.200203045390946"><ele>420.0</ele><time>2026-05-01T14:38:44Z</time></trkpt><trkpt lat="39.59231534925705" lon="9.199984870464945"><ele>418.33333333333337</ele><time>2026-05-01T14:38:45Z</time></trkpt><trkpt lat="39.59225054157673" lon="9.199765944471952"><ele>416.6666666666667</ele><time>2026-05-01T14:38:46Z</time></trkpt><trkpt lat="39.59217552317288" lon="9.19954889410024"><ele>415.0</ele><time>2026-05-01T14:38:47Z</time></trkpt><trkpt lat="39.59209067751767" lon="9.199327455547948"><ele>415.33333333333337</ele><time>2026-05-01T14:38:48Z</time></trkpt><trkpt lat="39.592004311724" lon="9.199111477579004"><ele>415.66666666666663</ele><time>2026-05-01T14:38:49Z</time></trkpt><trkpt lat="39.591916776503076" lon="9.19889812188032"><ele>416.0</ele><time>2026-05-01T14:38:50Z</time></trkpt><trkpt lat="39.59183208223486" lon="9.198691582197874"><ele>416.0</ele><time>2026-05-01T14:38:51Z</time></trkpt><trkpt lat="39.59174577733662" lon="9.198488302017427"><ele>416.0</ele><time>2026-05-01T14:38:52Z</time></trkpt><trkpt lat="39.59163781092369" lon="9.198311615941918"><ele>416.0</ele><time>2026-05-01T14:38:53Z</time></trkpt><trkpt lat="39.591506046904954" lon="9.198162520596261"><ele>414.66666666666663</ele><time>2026-05-01T14:38:54Z</time></trkpt><trkpt lat="39.59135837603958" lon="9.198030790413"><ele>413.33333333333337</ele><time>2026-05-01T14:38:55Z</time></trkpt><trkpt lat="39.59119731662838" lon="9.19792290545192"><ele>412.0</ele><time>2026-05-01T14:38:56Z</time></trkpt><trkpt lat="39.59102189321602" lon="9.19784066092852"><ele>411.33333333333337</ele><time>2026-05-01T14:38:57Z</time></trkpt><trkpt lat="39.59083792768516" lon="9.19777459408541"><ele>410.66666666666663</ele><time>2026-05-01T14:38:58Z</time></trkpt><trkpt lat="39.590653490660785" lon="9.19770741194024"><ele>410.0</ele><time>2026-05-01T14:38:59Z</time></trkpt><trkpt lat="39.5904693988938" lon="9.19763894633431"><ele>410.0</ele><time>2026-05-01T14:39:00Z</time></trkpt><trkpt lat="39.590281146498434" lon="9.19759119917184"><ele>410.0</ele><time>2026-05-01T14:39:01Z</time></trkpt><trkpt lat="39.5900859888818" lon="9.19758995927432"><ele>410.0</ele><time>2026-05-01T14:39:02Z</time></trkpt><trkpt lat="39.58989214308467" lon="9.197629549618366"><ele>410.0</ele><time>2026-05-01T14:39:03Z</time></trkpt><trkpt lat="39.589705587015104" lon="9.197649602532051"><ele>410.0</ele><time>2026-05-01T14:39:04Z</time></trkpt><trkpt lat="39.589516605484135" lon="9.19768888896346"><ele>410.0</ele><time>2026-05-01T14:39:05Z</time></trkpt><trkpt lat="39.58933424779532" lon="9.19774864236727"><ele>411.3333333333333</ele><time>2026-05-01T14:39:06Z</time></trkpt><trkpt lat="39.58914939638535" lon="9.197778218247553"><ele>412.66666666666663</ele><time>2026-05-01T14:39:07Z</time></trkpt><trkpt lat="39.588964773474736" lon="9.19778991663621"><ele>414.0</ele><time>2026-05-01T14:39:08Z</time></trkpt><trkpt lat="39.58878277664512" lon="9.197744857568916"><ele>416.33333333333337</ele><time>2026-05-01T14:39:09Z</time></trkpt><trkpt lat="39.588594420002565" lon="9.197730636228497"><ele>418.6666666666667</ele><time>2026-05-01T14:39:10Z</time></trkpt><trkpt lat="39.58840847611317" lon="9.19769465841547"><ele>421.0</ele><time>2026-05-01T14:39:11Z</time></trkpt><trkpt lat="39.588215897879586" lon="9.197673990324862"><ele>421.0</ele><time>2026-05-01T14:39:12Z</time></trkpt><trkpt lat="39.58802177120619" lon="9.197662765803727"><ele>421.0</ele><time>2026-05-01T14:39:13Z</time></trkpt><trkpt lat="39.58782791207843" lon="9.197650607642052"><ele>421.0</ele><time>2026-05-01T14:39:14Z</time></trkpt><trkpt lat="39.5876329827154" lon="9.197640108768466"><ele>423.6666666666667</ele><time>2026-05-01T14:39:15Z</time></trkpt><trkpt lat="39.587435259152116" lon="9.197637818245788"><ele>426.33333333333337</ele><time>2026-05-01T14:39:16Z</time></trkpt><trkpt lat="39.587233421684694" lon="9.19764522356234"><ele>429.0</ele><time>2026-05-01T14:39:17Z</time></trkpt><trkpt lat="39.58702888084375" lon="9.197640087067011"><ele>431.33333333333337</ele><time>2026-05-01T14:39:18Z</time></trkpt><trkpt lat="39.5868221467613" lon="9.19769398946"><ele>433.6666666666667</ele><time>2026-05-01T14:39:19Z</time></trkpt><trkpt lat="39.586611690941474" lon="9.19773575835132"><ele>436.0</ele><time>2026-05-01T14:39:20Z</time></trkpt><trkpt lat="39.58640745500424" lon="9.19778594773964"><ele>436.0</ele><time>2026-05-01T14:39:21Z</time></trkpt><trkpt lat="39.58621189660386" lon="9.197837349837812"><ele>436.0</ele><time>2026-05-01T14:39:22Z</time></trkpt><trkpt lat="39.586020719325674" lon="9.197882812207338"><ele>436.0</ele><time>2026-05-01T14:39:23Z</time></trkpt><trkpt lat="39.58583763555908" lon="9.19792376518088"><ele>438.0</ele><time>2026-05-01T14:39:24Z</time></trkpt><trkpt lat="39.58565091474436" lon="9.197963410527256"><ele>440.0</ele><time>2026-05-01T14:39:25Z</time></trkpt><trkpt lat="39.585457675228504" lon="9.197997265032084"><ele>442.0</ele><time>2026-05-01T14:39:26Z</time></trkpt><trkpt lat="39.58526408569029" lon="9.197994296243891"><ele>443.6666666666667</ele><time>2026-05-01T14:39:27Z</time></trkpt><trkpt lat="39.585066512052585" lon="9.198003511999433"><ele>445.33333333333337</ele><time>2026-05-01T14:39:28Z</time></trkpt><trkpt lat="39.58486710028629" lon="9.198030984659844"><ele>447.0</ele><time>2026-05-01T14:39:29Z</time></trkpt><trkpt lat="39.58467248664843" lon="9.198037151978639"><ele>449.33333333333337</ele><time>2026-05-01T14:39:30Z</time></trkpt><trkpt lat="39.584474030540584" lon="9.198047757452034"><ele>451.6666666666667</ele><time>2026-05-01T14:39:31Z</time></trkpt><trkpt lat="39.58427320161858" lon="9.1980734438197"><ele>454.0</ele><time>2026-05-01T14:39:32Z</time></trkpt><trkpt lat="39.584069837663066" lon="9.198118390146366"><ele>456.0</ele><time>2026-05-01T14:39:33Z</time></trkpt><trkpt lat="39.58386273773965" lon="9.198175528305331"><ele>458.0</ele><time>2026-05-01T14:39:34Z</time></trkpt><trkpt lat="39.58365547910426" lon="9.198235996464797"><ele>460.0</ele><time>2026-05-01T14:39:35Z</time></trkpt><trkpt lat="39.58344460449998" lon="9.198295626127003"><ele>461.6666666666667</ele><time>2026-05-01T14:39:36Z</time></trkpt><trkpt lat="39.5832289907846" lon="9.19835241718087"><ele>463.33333333333337</ele><time>2026-05-01T14:39:37Z</time></trkpt><trkpt lat="39.58300731767066" lon="9.198411911828414"><ele>465.0</ele><time>2026-05-01T14:39:38Z</time></trkpt><trkpt lat="39.58281838578024" lon="9.198475658012699"><ele>466.33333333333337</ele><time>2026-05-01T14:39:39Z</time></trkpt><trkpt lat="39.58261577794922" lon="9.198583336176215"><ele>467.6666666666667</ele><time>2026-05-01T14:39:40Z</time></trkpt><trkpt lat="39.582421203849336" lon="9.198719206431813"><ele>469.0</ele><time>2026-05-01T14:39:41Z</time></trkpt><trkpt lat="39.58223232753125" lon="9.198862101773138"><ele>469.0</ele><time>2026-05-01T14:39:42Z</time></trkpt><trkpt lat="39.58204489807139" lon="9.19899914417716"><ele>469.0</ele><time>2026-05-01T14:39:43Z</time></trkpt><trkpt lat="39.581857472378765" lon="9.199132028079758"><ele>469.0</ele><time>2026-05-01T14:39:44Z</time></trkpt><trkpt lat="39.5816703293181" lon="9.199261673071472"><ele>472.0</ele><time>2026-05-01T14:39:45Z</time></trkpt><trkpt lat="39.58148190186581" lon="9.199392736387479"><ele>475.0</ele><time>2026-05-01T14:39:46Z</time></trkpt><trkpt lat="39.581293724073404" lon="9.199525276947366"><ele>478.0</ele><time>2026-05-01T14:39:47Z</time></trkpt><trkpt lat="39.58110282831026" lon="9.199651035678892"><ele>480.33333333333337</ele><time>2026-05-01T14:39:48Z</time></trkpt><trkpt lat="39.580902002260494" lon="9.199722039659946"><ele>482.66666666666663</ele><time>2026-05-01T14:39:49Z</time></trkpt><trkpt lat="39.580702125371964" lon="9.199800761353773"><ele>485.0</ele><time>2026-05-01T14:39:50Z</time></trkpt><trkpt lat="39.58050343425371" lon="9.199886704197215"><ele>486.0</ele><time>2026-05-01T14:39:51Z</time></trkpt><trkpt lat="39.58030095285038" lon="9.199974286379849"><ele>487.0</ele><time>2026-05-01T14:39:52Z</time></trkpt><trkpt lat="39.58010272927003" lon="9.200086548705308"><ele>488.0</ele><time>2026-05-01T14:39:53Z</time></trkpt><trkpt lat="39.579897945232425" lon="9.200192996535435"><ele>488.0</ele><time>2026-05-01T14:39:54Z</time></trkpt><trkpt lat="39.57969675926836" lon="9.200322631232355"><ele>488.0</ele><time>2026-05-01T14:39:55Z</time></trkpt><trkpt lat="39.57949919139164" lon="9.200460011227833"><ele>488.0</ele><time>2026-05-01T14:39:56Z</time></trkpt><trkpt lat="39.57930019274831" lon="9.20058993940411"><ele>488.66666666666663</ele><time>2026-05-01T14:39:57Z</time></trkpt><trkpt lat="39.5791030485251" lon="9.200722852561222"><ele>489.33333333333337</ele><time>2026-05-01T14:39:58Z</time></trkpt><trkpt lat="39.578907090323305" lon="9.200857181969356"><ele>490.0</ele><time>2026-05-01T14:39:59Z</time></trkpt><trkpt lat="39.5787089254783" lon="9.200980007212321"><ele>490.33333333333337</ele><time>2026-05-01T14:40:00Z</time></trkpt><trkpt lat="39.578518323377345" lon="9.201078380541212"><ele>490.66666666666663</ele><time>2026-05-01T14:40:01Z</time></trkpt><trkpt lat="39.578308134358466" lon="9.20113418657684"><ele>491.0</ele><time>2026-05-01T14:40:02Z</time></trkpt><trkpt lat="39.57812036834871" lon="9.201218647827535"><ele>491.0</ele><time>2026-05-01T14:40:03Z</time></trkpt><trkpt lat="39.577936419161" lon="9.201301963097391"><ele>491.0</ele><time>2026-05-01T14:40:04Z</time></trkpt><trkpt lat="39.577775514962084" lon="9.2014392733573"><ele>491.0</ele><time>2026-05-01T14:40:05Z</time></trkpt><trkpt lat="39.57762031293157" lon="9.20161559990762"><ele>494.3333333333333</ele><time>2026-05-01T14:40:06Z</time></trkpt><trkpt lat="39.577469086944916" lon="9.201804513285529"><ele>497.66666666666663</ele><time>2026-05-01T14:40:07Z</time></trkpt><trkpt lat="39.57733391796587" lon="9.202013499634486"><ele>501.0</ele><time>2026-05-01T14:40:08Z</time></trkpt><trkpt lat="39.57722039056384" lon="9.202252448197411"><ele>503.33333333333337</ele><time>2026-05-01T14:40:09Z</time></trkpt><trkpt lat="39.5771220521678" lon="9.202510085213978"><ele>505.6666666666667</ele><time>2026-05-01T14:40:10Z</time></trkpt><trkpt lat="39.577026650501935" lon="9.202764369553993"><ele>508.0</ele><time>2026-05-01T14:40:11Z</time></trkpt><trkpt lat="39.57693543694571" lon="9.203014257066"><ele>510.0</ele><time>2026-05-01T14:40:12Z</time></trkpt><trkpt lat="39.57684545240184" lon="9.2032643946467"><ele>512.0</ele><time>2026-05-01T14:40:13Z</time></trkpt><trkpt lat="39.57673929578282" lon="9.203503580297062"><ele>514.0</ele><time>2026-05-01T14:40:14Z</time></trkpt><trkpt lat="39.57665972282564" lon="9.203759275837356"><ele>516.3333333333334</ele><time>2026-05-01T14:40:15Z</time></trkpt><trkpt lat="39.57656299087328" lon="9.204001927121887"><ele>518.6666666666666</ele><time>2026-05-01T14:40:16Z</time></trkpt><trkpt lat="39.57646789202659" lon="9.204238478539546"><ele>521.0</ele><time>2026-05-01T14:40:17Z</time></trkpt><trkpt lat="39.57637872024282" lon="9.204459725174015"><ele>521.0</ele><time>2026-05-01T14:40:18Z</time></trkpt><trkpt lat="39.57629779609825" lon="9.204656644326299"><ele>521.0</ele><time>2026-05-01T14:40:19Z</time></trkpt><trkpt lat="39.576215439948996" lon="9.204833971409979"><ele>521.0</ele><time>2026-05-01T14:40:20Z</time></trkpt><trkpt lat="39.576101666603414" lon="9.204960662215473"><ele>522.6666666666666</ele><time>2026-05-01T14:40:21Z</time></trkpt><trkpt lat="39.57598108122752" lon="9.205076823078869"><ele>524.3333333333334</ele><time>2026-05-01T14:40:22Z</time></trkpt><trkpt lat="39.57583817585879" lon="9.205153931512237"><ele>526.0</ele><time>2026-05-01T14:40:23Z</time></trkpt><trkpt lat="39.57568392070614" lon="9.205205170702458"><ele>526.0</ele><time>2026-05-01T14:40:24Z</time></trkpt><trkpt lat="39.57551321050237" lon="9.205214765624131"><ele>526.0</ele><time>2026-05-01T14:40:25Z</time></trkpt><trkpt lat="39.575326034650374" lon="9.205215069966016"><ele>526.0</ele><time>2026-05-01T14:40:26Z</time></trkpt><trkpt lat="39.57512794165027" lon="9.205210312648058"><ele>524.0</ele><time>2026-05-01T14:40:27Z</time></trkpt><trkpt lat="39.57492241154996" lon="9.205224048793847"><ele>522.0</ele><time>2026-05-01T14:40:28Z</time></trkpt><trkpt lat="39.57471265687683" lon="9.20522033793958"><ele>520.0</ele><time>2026-05-01T14:40:29Z</time></trkpt><trkpt lat="39.57450042220892" lon="9.205195239667596"><ele>517.3333333333334</ele><time>2026-05-01T14:40:30Z</time></trkpt><trkpt lat="39.57428245715483" lon="9.20522201470388"><ele>514.6666666666666</ele><time>2026-05-01T14:40:31Z</time></trkpt><trkpt lat="39.57406043509962" lon="9.20523344224741"><ele>512.0</ele><time>2026-05-01T14:40:32Z</time></trkpt><trkpt lat="39.573839310836796" lon="9.205267898601472"><ele>513.0</ele><time>2026-05-01T14:40:33Z</time></trkpt><trkpt lat="39.57362363617478" lon="9.205311762721927"><ele>514.0</ele><time>2026-05-01T14:40:34Z</time></trkpt><trkpt lat="39.57341307587039" lon="9.205355325407208"><ele>515.0</ele><time>2026-05-01T14:40:35Z</time></trkpt><trkpt lat="39.57320579427794" lon="9.20539405955003"><ele>515.0</ele><time>2026-05-01T14:40:36Z</time></trkpt><trkpt lat="39.57300399354429" lon="9.205420535066807"><ele>515.0</ele><time>2026-05-01T14:40:37Z</time></trkpt><trkpt lat="39.57280310711025" lon="9.20541391890135"><ele>515.0</ele><time>2026-05-01T14:40:38Z</time></trkpt><trkpt lat="39.57260829675615" lon="9.205363816844688"><ele>515.3333333333333</ele><time>2026-05-01T14:40:39Z</time></trkpt><trkpt lat="39.572414151211944" lon="9.20530591180352"><ele>515.6666666666666</ele><time>2026-05-01T14:40:40Z</time></trkpt><trkpt lat="39.57221369233534" lon="9.205263510574682"><ele>516.0</ele><time>2026-05-01T14:40:41Z</time></trkpt><trkpt lat="39.57201089922594" lon="9.205241092823236"><ele>513.6666666666666</ele><time>2026-05-01T14:40:42Z</time></trkpt><trkpt lat="39.57180648051879" lon="9.205234412144836"><ele>511.3333333333333</ele><time>2026-05-01T14:40:43Z</time></trkpt><trkpt lat="39.571594683538585" lon="9.205231549232469"><ele>509.0</ele><time>2026-05-01T14:40:44Z</time></trkpt><trkpt lat="39.5713837973017" lon="9.20522646455824"><ele>510.0</ele><time>2026-05-01T14:40:45Z</time></trkpt><trkpt lat="39.57117410565343" lon="9.205221475801025"><ele>511.0</ele><time>2026-05-01T14:40:46Z</time></trkpt><trkpt lat="39.570965174631446" lon="9.205219607440073"><ele>512.0</ele><time>2026-05-01T14:40:47Z</time></trkpt><trkpt lat="39.57076425019351" lon="9.205212240705595"><ele>512.0</ele><time>2026-05-01T14:40:48Z</time></trkpt><trkpt lat="39.570578774760115" lon="9.205180965811103"><ele>512.0</ele><time>2026-05-01T14:40:49Z</time></trkpt><trkpt lat="39.5704124415715" lon="9.20510099555756"><ele>512.0</ele><time>2026-05-01T14:40:50Z</time></trkpt><trkpt lat="39.57026096575895" lon="9.204959838186854"><ele>512.0</ele><time>2026-05-01T14:40:51Z</time></trkpt><trkpt lat="39.57012636394784" lon="9.204798755444722"><ele>512.0</ele><time>2026-05-01T14:40:52Z</time></trkpt><trkpt lat="39.5699752099239" lon="9.20466138670626"><ele>512.0</ele><time>2026-05-01T14:40:53Z</time></trkpt><trkpt lat="39.56980310859258" lon="9.20455617736539"><ele>512.0</ele><time>2026-05-01T14:40:54Z</time></trkpt><trkpt lat="39.56961365710002" lon="9.204468907161722"><ele>512.0</ele><time>2026-05-01T14:40:55Z</time></trkpt><trkpt lat="39.56942316667797" lon="9.20438037999214"><ele>512.0</ele><time>2026-05-01T14:40:56Z</time></trkpt><trkpt lat="39.56922704739608" lon="9.204287948811853"><ele>513.0</ele><time>2026-05-01T14:40:57Z</time></trkpt><trkpt lat="39.56902742219282" lon="9.204195359285444"><ele>514.0</ele><time>2026-05-01T14:40:58Z</time></trkpt><trkpt lat="39.568826783272534" lon="9.20410260693917"><ele>515.0</ele><time>2026-05-01T14:40:59Z</time></trkpt><trkpt lat="39.56862664745247" lon="9.204007675644784"><ele>511.3333333333333</ele><time>2026-05-01T14:41:00Z</time></trkpt><trkpt lat="39.56842485227003" lon="9.203918633575853"><ele>507.66666666666663</ele><time>2026-05-01T14:41:01Z</time></trkpt><trkpt lat="39.568214719610744" lon="9.203856598154974"><ele>504.0</ele><time>2026-05-01T14:41:02Z</time></trkpt><trkpt lat="39.56799487477643" lon="9.203824179963403"><ele>506.33333333333337</ele><time>2026-05-01T14:41:03Z</time></trkpt><trkpt lat="39.56777180782074" lon="9.20380470434173"><ele>508.6666666666667</ele><time>2026-05-01T14:41:04Z</time></trkpt><trkpt lat="39.56755169029302" lon="9.203775711527793"><ele>511.0</ele><time>2026-05-01T14:41:05Z</time></trkpt><trkpt lat="39.56733780281094" lon="9.203738320382556"><ele>511.0</ele><time>2026-05-01T14:41:06Z</time></trkpt><trkpt lat="39.567123278706205" lon="9.203700218037746"><ele>511.0</ele><time>2026-05-01T14:41:07Z</time></trkpt><trkpt lat="39.56690761957927" lon="9.203670266926297"><ele>511.0</ele><time>2026-05-01T14:41:08Z</time></trkpt><trkpt lat="39.56668984574322" lon="9.203655618616287"><ele>514.3333333333334</ele><time>2026-05-01T14:41:09Z</time></trkpt><trkpt lat="39.56647087223295" lon="9.203659219029008"><ele>517.6666666666666</ele><time>2026-05-01T14:41:10Z</time></trkpt><trkpt lat="39.5662575228856" lon="9.203695381153063"><ele>521.0</ele><time>2026-05-01T14:41:11Z</time></trkpt><trkpt lat="39.56606218684008" lon="9.203783376970447"><ele>521.6666666666666</ele><time>2026-05-01T14:41:12Z</time></trkpt><trkpt lat="39.56587890557837" lon="9.203914027141217"><ele>522.3333333333334</ele><time>2026-05-01T14:41:13Z</time></trkpt><trkpt lat="39.56570445574587" lon="9.204065557414786"><ele>523.0</ele><time>2026-05-01T14:41:14Z</time></trkpt><trkpt lat="39.56553490114837" lon="9.204215890264338"><ele>523.0</ele><time>2026-05-01T14:41:15Z</time></trkpt><trkpt lat="39.56536360306219" lon="9.20436194627586"><ele>523.0</ele><time>2026-05-01T14:41:16Z</time></trkpt><trkpt lat="39.565193491610856" lon="9.204503974168395"><ele>523.0</ele><time>2026-05-01T14:41:17Z</time></trkpt><trkpt lat="39.565018611260655" lon="9.204641351087973"><ele>524.6666666666667</ele><time>2026-05-01T14:41:18Z</time></trkpt><trkpt lat="39.564840478505765" lon="9.20476160817823"><ele>526.3333333333334</ele><time>2026-05-01T14:41:19Z</time></trkpt><trkpt lat="39.56465111897005" lon="9.204865080838902"><ele>528.0</ele><time>2026-05-01T14:41:20Z</time></trkpt><trkpt lat="39.56446656253939" lon="9.204971371379715"><ele>534.6666666666666</ele><time>2026-05-01T14:41:21Z</time></trkpt><trkpt lat="39.564289348109824" lon="9.205107078027151"><ele>541.3333333333333</ele><time>2026-05-01T14:41:22Z</time></trkpt><trkpt lat="39.564126993288724" lon="9.205278853674406"><ele>548.0</ele><time>2026-05-01T14:41:23Z</time></trkpt><trkpt lat="39.563984551083685" lon="9.205479927819832"><ele>545.0</ele><time>2026-05-01T14:41:24Z</time></trkpt><trkpt lat="39.56386424900953" lon="9.205703504727843"><ele>542.0</ele><time>2026-05-01T14:41:25Z</time></trkpt><trkpt lat="39.56375731162352" lon="9.205937696549874"><ele>539.0</ele><time>2026-05-01T14:41:26Z</time></trkpt><trkpt lat="39.563647009733764" lon="9.206138459445201"><ele>545.0</ele><time>2026-05-01T14:41:27Z</time></trkpt><trkpt lat="39.56350829978167" lon="9.206298757508366"><ele>551.0</ele><time>2026-05-01T14:41:28Z</time></trkpt><trkpt lat="39.5633507165684" lon="9.206414435492235"><ele>557.0</ele><time>2026-05-01T14:41:29Z</time></trkpt><trkpt lat="39.563185562413054" lon="9.206511423656579"><ele>557.0</ele><time>2026-05-01T14:41:30Z</time></trkpt><trkpt lat="39.563006870529215" lon="9.206559795140215"><ele>557.0</ele><time>2026-05-01T14:41:31Z</time></trkpt><trkpt lat="39.562823233975756" lon="9.206597150849424"><ele>557.0</ele><time>2026-05-01T14:41:32Z</time></trkpt><trkpt lat="39.562634709601156" lon="9.206605472239762"><ele>558.6666666666666</ele><time>2026-05-01T14:41:33Z</time></trkpt><trkpt lat="39.56244008680277" lon="9.206612794532667"><ele>560.3333333333334</ele><time>2026-05-01T14:41:34Z</time></trkpt><trkpt lat="39.56223998389676" lon="9.206581764412388"><ele>562.0</ele><time>2026-05-01T14:41:35Z</time></trkpt><trkpt lat="39.56203846541536" lon="9.20655459979555"><ele>562.3333333333334</ele><time>2026-05-01T14:41:36Z</time></trkpt><trkpt lat="39.56183412112293" lon="9.206532748056281"><ele>562.6666666666666</ele><time>2026-05-01T14:41:37Z</time></trkpt><trkpt lat="39.56163591598624" lon="9.206487399066788"><ele>563.0</ele><time>2026-05-01T14:41:38Z</time></trkpt><trkpt lat="39.56144085085162" lon="9.206486477975211"><ele>563.0</ele><time>2026-05-01T14:41:39Z</time></trkpt><trkpt lat="39.561247037373526" lon="9.206460000576005"><ele>563.0</ele><time>2026-05-01T14:41:40Z</time></trkpt><trkpt lat="39.56104841373095" lon="9.20646647368475"><ele>563.0</ele><time>2026-05-01T14:41:41Z</time></trkpt><trkpt lat="39.560847698949885" lon="9.206485544792288"><ele>562.6666666666666</ele><time>2026-05-01T14:41:42Z</time></trkpt><trkpt lat="39.56064685068795" lon="9.206512739197485"><ele>562.3333333333334</ele><time>2026-05-01T14:41:43Z</time></trkpt><trkpt lat="39.560445068232305" lon="9.206515122937908"><ele>562.0</ele><time>2026-05-01T14:41:44Z</time></trkpt><trkpt lat="39.56025063795758" lon="9.20655202031787"><ele>559.3333333333334</ele><time>2026-05-01T14:41:45Z</time></trkpt><trkpt lat="39.56005480613293" lon="9.206563439500075"><ele>556.6666666666666</ele><time>2026-05-01T14:41:46Z</time></trkpt><trkpt lat="39.55985997041182" lon="9.206578935242373"><ele>554.0</ele><time>2026-05-01T14:41:47Z</time></trkpt><trkpt lat="39.559665001923605" lon="9.206604174005284"><ele>550.6666666666666</ele><time>2026-05-01T14:41:48Z</time></trkpt><trkpt lat="39.55946781120386" lon="9.206641296709089"><ele>547.3333333333334</ele><time>2026-05-01T14:41:49Z</time></trkpt><trkpt lat="39.5592727881518" lon="9.206694798710116"><ele>544.0</ele><time>2026-05-01T14:41:50Z</time></trkpt><trkpt lat="39.55907241826665" lon="9.206773458509923"><ele>544.0</ele><time>2026-05-01T14:41:51Z</time></trkpt><trkpt lat="39.55887517841293" lon="9.206873922721174"><ele>544.0</ele><time>2026-05-01T14:41:52Z</time></trkpt><trkpt lat="39.55867890535241" lon="9.206988613251497"><ele>544.0</ele><time>2026-05-01T14:41:53Z</time></trkpt><trkpt lat="39.55847955028238" lon="9.207104057592716"><ele>542.6666666666667</ele><time>2026-05-01T14:41:54Z</time></trkpt><trkpt lat="39.558277988737466" lon="9.207220831943612"><ele>541.3333333333334</ele><time>2026-05-01T14:41:55Z</time></trkpt><trkpt lat="39.55807892798392" lon="9.207337661787877"><ele>540.0</ele><time>2026-05-01T14:41:56Z</time></trkpt><trkpt lat="39.55787961909504" lon="9.20745411024182"><ele>539.0</ele><time>2026-05-01T14:41:57Z</time></trkpt><trkpt lat="39.55767983940388" lon="9.207567263174386"><ele>538.0</ele><time>2026-05-01T14:41:58Z</time></trkpt><trkpt lat="39.55748099132929" lon="9.207681684510662"><ele>537.0</ele><time>2026-05-01T14:41:59Z</time></trkpt><trkpt lat="39.55728465205545" lon="9.207794967277088"><ele>537.0</ele><time>2026-05-01T14:42:00Z</time></trkpt><trkpt lat="39.55709068412768" lon="9.207907239047985"><ele>537.0</ele><time>2026-05-01T14:42:01Z</time></trkpt><trkpt lat="39.55689651413295" lon="9.208017856294866"><ele>537.0</ele><time>2026-05-01T14:42:02Z</time></trkpt><trkpt lat="39.55670358715578" lon="9.20813406459607"><ele>536.6666666666666</ele><time>2026-05-01T14:42:03Z</time></trkpt><trkpt lat="39.556514839716336" lon="9.208256828432043"><ele>536.3333333333333</ele><time>2026-05-01T14:42:04Z</time></trkpt><trkpt lat="39.55632994790628" lon="9.208376558543279"><ele>536.0</ele><time>2026-05-01T14:42:05Z</time></trkpt><trkpt lat="39.5561669150341" lon="9.208547690796266"><ele>536.0</ele><time>2026-05-01T14:42:06Z</time></trkpt><trkpt lat="39.555992150885835" lon="9.208700061336321"><ele>536.0</ele><time>2026-05-01T14:42:07Z</time></trkpt><trkpt lat="39.555833783080914" lon="9.208884096868626"><ele>536.0</ele><time>2026-05-01T14:42:08Z</time></trkpt><trkpt lat="39.55568282295828" lon="9.209082235618645"><ele>536.6666666666666</ele><time>2026-05-01T14:42:09Z</time></trkpt><trkpt lat="39.55555692302008" lon="9.209305485587153"><ele>537.3333333333334</ele><time>2026-05-01T14:42:10Z</time></trkpt><trkpt lat="39.55541814209171" lon="9.209511962639112"><ele>538.0</ele><time>2026-05-01T14:42:11Z</time></trkpt><trkpt lat="39.55531851333042" lon="9.209755079720583"><ele>539.6666666666667</ele><time>2026-05-01T14:42:12Z</time></trkpt><trkpt lat="39.55520321758235" lon="9.209991119050567"><ele>541.3333333333334</ele><time>2026-05-01T14:42:13Z</time></trkpt><trkpt lat="39.55511709341636" lon="9.210239375331113"><ele>543.0</ele><time>2026-05-01T14:42:14Z</time></trkpt><trkpt lat="39.555033962847986" lon="9.210497951430622"><ele>542.3333333333334</ele><time>2026-05-01T14:42:15Z</time></trkpt><trkpt lat="39.55495221249374" lon="9.210757237400536"><ele>541.6666666666667</ele><time>2026-05-01T14:42:16Z</time></trkpt><trkpt lat="39.55486891467677" lon="9.2110214314204"><ele>541.0</ele><time>2026-05-01T14:42:17Z</time></trkpt><trkpt lat="39.554801964872304" lon="9.211289290073484"><ele>542.6666666666667</ele><time>2026-05-01T14:42:18Z</time></trkpt><trkpt lat="39.55471865409753" lon="9.211550638273273"><ele>544.3333333333334</ele><time>2026-05-01T14:42:19Z</time></trkpt><trkpt lat="39.55463491832511" lon="9.211810642324915"><ele>546.0</ele><time>2026-05-01T14:42:20Z</time></trkpt><trkpt lat="39.55455092704191" lon="9.212070624165777"><ele>547.3333333333334</ele><time>2026-05-01T14:42:21Z</time></trkpt><trkpt lat="39.55447196750648" lon="9.212327193397137"><ele>548.6666666666667</ele><time>2026-05-01T14:42:22Z</time></trkpt><trkpt lat="39.55439341987123" lon="9.21258281845875"><ele>550.0</ele><time>2026-05-01T14:42:23Z</time></trkpt><trkpt lat="39.55431463248679" lon="9.212843742258105"><ele>550.0</ele><time>2026-05-01T14:42:24Z</time></trkpt><trkpt lat="39.55423279143044" lon="9.213103883856114"><ele>550.0</ele><time>2026-05-01T14:42:25Z</time></trkpt><trkpt lat="39.554150771100176" lon="9.213364890124605"><ele>550.0</ele><time>2026-05-01T14:42:26Z</time></trkpt><trkpt lat="39.55405306366002" lon="9.21362468019038"><ele>552.5</ele><time>2026-05-01T14:42:27Z</time></trkpt><trkpt lat="39.55396793661777" lon="9.213894545815558"><ele>555.0</ele><time>2026-05-01T14:42:28Z</time></trkpt><trkpt lat="39.55388433440059" lon="9.214165289392346"><ele>555.6666666666666</ele><time>2026-05-01T14:42:29Z</time></trkpt><trkpt lat="39.55380075568865" lon="9.214434888162664"><ele>556.3333333333333</ele><time>2026-05-01T14:42:30Z</time></trkpt><trkpt lat="39.55373264440714" lon="9.214705044125509"><ele>557.0</ele><time>2026-05-01T14:42:31Z</time></trkpt><trkpt lat="39.553641344718066" lon="9.214959033082406"><ele>557.0</ele><time>2026-05-01T14:42:32Z</time></trkpt><trkpt lat="39.55351337221036" lon="9.21517836018314"><ele>557.0</ele><time>2026-05-01T14:42:33Z</time></trkpt><trkpt lat="39.553376332115946" lon="9.215396064141459"><ele>557.0</ele><time>2026-05-01T14:42:34Z</time></trkpt><trkpt lat="39.55320996202775" lon="9.215587462559066"><ele>559.0</ele><time>2026-05-01T14:42:35Z</time></trkpt><trkpt lat="39.55303136057586" lon="9.215769421128522"><ele>561.0</ele><time>2026-05-01T14:42:36Z</time></trkpt><trkpt lat="39.55285075112103" lon="9.215949095923108"><ele>562.0</ele><time>2026-05-01T14:42:37Z</time></trkpt><trkpt lat="39.55268452704616" lon="9.216139793544778"><ele>563.0</ele><time>2026-05-01T14:42:38Z</time></trkpt><trkpt lat="39.55250998367432" lon="9.216311413081634"><ele>564.0</ele><time>2026-05-01T14:42:39Z</time></trkpt><trkpt lat="39.5523166704932" lon="9.216467845097554"><ele>567.6666666666666</ele><time>2026-05-01T14:42:40Z</time></trkpt><trkpt lat="39.552134306385035" lon="9.216616691487712"><ele>571.3333333333333</ele><time>2026-05-01T14:42:41Z</time></trkpt><trkpt lat="39.551942852257916" lon="9.21674542233294"><ele>575.0</ele><time>2026-05-01T14:42:42Z</time></trkpt><trkpt lat="39.55174068507529" lon="9.216865638239891"><ele>575.5</ele><time>2026-05-01T14:42:43Z</time></trkpt><trkpt lat="39.551537625668196" lon="9.216996380631386"><ele>576.0</ele><time>2026-05-01T14:42:44Z</time></trkpt><trkpt lat="39.55132615638826" lon="9.217097313143041"><ele>577.6666666666666</ele><time>2026-05-01T14:42:45Z</time></trkpt><trkpt lat="39.55111973995" lon="9.21719738066953"><ele>579.3333333333333</ele><time>2026-05-01T14:42:46Z</time></trkpt><trkpt lat="39.55092359486783" lon="9.217309798021352"><ele>581.0</ele><time>2026-05-01T14:42:47Z</time></trkpt><trkpt lat="39.55072292596486" lon="9.217402113192653"><ele>582.6666666666666</ele><time>2026-05-01T14:42:48Z</time></trkpt><trkpt lat="39.55053337918063" lon="9.217502371519437"><ele>584.3333333333334</ele><time>2026-05-01T14:42:49Z</time></trkpt><trkpt lat="39.55035450465411" lon="9.217629048527323"><ele>586.0</ele><time>2026-05-01T14:42:50Z</time></trkpt><trkpt lat="39.55018970077665" lon="9.217793815876513"><ele>586.6666666666667</ele><time>2026-05-01T14:42:51Z</time></trkpt><trkpt lat="39.55003982182403" lon="9.217995643966521"><ele>587.3333333333334</ele><time>2026-05-01T14:42:52Z</time></trkpt><trkpt lat="39.549902370302945" lon="9.218220528754301"><ele>588.0</ele><time>2026-05-01T14:42:53Z</time></trkpt><trkpt lat="39.5497707077019" lon="9.218459976582578"><ele>588.0</ele><time>2026-05-01T14:42:54Z</time></trkpt><trkpt lat="39.549635911400316" lon="9.218695496883525"><ele>588.0</ele><time>2026-05-01T14:42:55Z</time></trkpt><trkpt lat="39.54949466010004" lon="9.218928508528194"><ele>586.0</ele><time>2026-05-01T14:42:56Z</time></trkpt><trkpt lat="39.54935119765782" lon="9.219157179240295"><ele>584.0</ele><time>2026-05-01T14:42:57Z</time></trkpt><trkpt lat="39.549206834331464" lon="9.219385711919145"><ele>584.0</ele><time>2026-05-01T14:42:58Z</time></trkpt><trkpt lat="39.54906330743046" lon="9.219612315727066"><ele>584.0</ele><time>2026-05-01T14:42:59Z</time></trkpt><trkpt lat="39.54890997089895" lon="9.219821693398922"><ele>584.0</ele><time>2026-05-01T14:43:00Z</time></trkpt><trkpt lat="39.54877333251238" lon="9.220038327383966"><ele>583.3333333333333</ele><time>2026-05-01T14:43:01Z</time></trkpt><trkpt lat="39.54865964346457" lon="9.220248917072619"><ele>582.6666666666666</ele><time>2026-05-01T14:43:02Z</time></trkpt><trkpt lat="39.54853504802982" lon="9.220445609462718"><ele>582.0</ele><time>2026-05-01T14:43:03Z</time></trkpt><trkpt lat="39.54841502979366" lon="9.220639783663247"><ele>583.6666666666666</ele><time>2026-05-01T14:43:04Z</time></trkpt><trkpt lat="39.54829957888791" lon="9.22083129034223"><ele>585.3333333333333</ele><time>2026-05-01T14:43:05Z</time></trkpt><trkpt lat="39.54819121988162" lon="9.221021539064342"><ele>587.0</ele><time>2026-05-01T14:43:06Z</time></trkpt><trkpt lat="39.54809115093729" lon="9.221211317068269"><ele>587.0</ele><time>2026-05-01T14:43:07Z</time></trkpt><trkpt lat="39.54799553999128" lon="9.221412577325644"><ele>587.0</ele><time>2026-05-01T14:43:08Z</time></trkpt><trkpt lat="39.54789048906591" lon="9.2216126440044"><ele>587.0</ele><time>2026-05-01T14:43:09Z</time></trkpt><trkpt lat="39.54780176472886" lon="9.221819276116284"><ele>583.6666666666666</ele><time>2026-05-01T14:43:10Z</time></trkpt><trkpt lat="39.54771247241323" lon="9.222027230954037"><ele>580.3333333333334</ele><time>2026-05-01T14:43:11Z</time></trkpt><trkpt lat="39.54763686940529" lon="9.222243280505923"><ele>577.0</ele><time>2026-05-01T14:43:12Z</time></trkpt><trkpt lat="39.547549950856286" lon="9.222434908345512"><ele>576.25</ele><time>2026-05-01T14:43:13Z</time></trkpt><trkpt lat="39.547459763261976" lon="9.222598061293287"><ele>575.5</ele><time>2026-05-01T14:43:14Z</time></trkpt><trkpt lat="39.547377253256855" lon="9.222736772710364"><ele>574.75</ele><time>2026-05-01T14:43:15Z</time></trkpt><trkpt lat="39.547293477147846" lon="9.222814921250958"><ele>574.0</ele><time>2026-05-01T14:43:16Z</time></trkpt><trkpt lat="39.547224620273674" lon="9.22281701321526"><ele>574.0</ele><time>2026-05-01T14:43:17Z</time></trkpt><trkpt lat="39.547108170604744" lon="9.22280209977363"><ele>574.0</ele><time>2026-05-01T14:43:19Z</time></trkpt><trkpt lat="39.54703713722435" lon="9.222799551624151"><ele>574.0</ele><time>2026-05-01T14:43:20Z</time></trkpt><trkpt lat="39.54697106586543" lon="9.222777113119093"><ele>574.0</ele><time>2026-05-01T14:43:22Z</time></trkpt><trkpt lat="39.54688205169577" lon="9.22289961433554"><ele>574.0</ele><time>2026-05-01T14:43:24Z</time></trkpt><trkpt lat="39.546860615320135" lon="9.223014020579015"><ele>573.25</ele><time>2026-05-01T14:43:25Z</time></trkpt><trkpt lat="39.546852676346084" lon="9.223147233575524"><ele>572.5</ele><time>2026-05-01T14:43:26Z</time></trkpt><trkpt lat="39.546826110405924" lon="9.223301779609423"><ele>571.75</ele><time>2026-05-01T14:43:27Z</time></trkpt><trkpt lat="39.54678164905879" lon="9.223454451708427"><ele>571.0</ele><time>2026-05-01T14:43:28Z</time></trkpt><trkpt lat="39.54675172803974" lon="9.223613766491194"><ele>571.0</ele><time>2026-05-01T14:43:29Z</time></trkpt><trkpt lat="39.54673148914732" lon="9.223783931447917"><ele>571.0</ele><time>2026-05-01T14:43:30Z</time></trkpt><trkpt lat="39.546678686341465" lon="9.223952655963725"><ele>571.0</ele><time>2026-05-01T14:43:31Z</time></trkpt><trkpt lat="39.54658312322887" lon="9.224086690450713"><ele>571.0</ele><time>2026-05-01T14:43:32Z</time></trkpt><trkpt lat="39.546478567556186" lon="9.224202212921792"><ele>573.0</ele><time>2026-05-01T14:43:33Z</time></trkpt><trkpt lat="39.54635387720966" lon="9.224304480101077"><ele>575.0</ele><time>2026-05-01T14:43:34Z</time></trkpt><trkpt lat="39.54620712617856" lon="9.22435470677963"><ele>577.0</ele><time>2026-05-01T14:43:35Z</time></trkpt><trkpt lat="39.54603985059956" lon="9.224377799118594"><ele>578.0</ele><time>2026-05-01T14:43:36Z</time></trkpt><trkpt lat="39.54586542540107" lon="9.224379874932966"><ele>579.0</ele><time>2026-05-01T14:43:37Z</time></trkpt><trkpt lat="39.54567906973497" lon="9.224396192223066"><ele>580.0</ele><time>2026-05-01T14:43:38Z</time></trkpt><trkpt lat="39.545495184364114" lon="9.224401154616416"><ele>581.0</ele><time>2026-05-01T14:43:39Z</time></trkpt><trkpt lat="39.54531372405257" lon="9.224415524875452"><ele>582.0</ele><time>2026-05-01T14:43:40Z</time></trkpt><trkpt lat="39.545132518600624" lon="9.224460602345147"><ele>583.0</ele><time>2026-05-01T14:43:41Z</time></trkpt><trkpt lat="39.54497982510002" lon="9.224566268712906"><ele>583.0</ele><time>2026-05-01T14:43:42Z</time></trkpt><trkpt lat="39.54482803703374" lon="9.224719948650545"><ele>583.0</ele><time>2026-05-01T14:43:43Z</time></trkpt><trkpt lat="39.544680023209374" lon="9.224872396601786"><ele>583.0</ele><time>2026-05-01T14:43:44Z</time></trkpt><trkpt lat="39.54452594323918" lon="9.22500998761657"><ele>586.3333333333334</ele><time>2026-05-01T14:43:45Z</time></trkpt><trkpt lat="39.544365980613826" lon="9.2251327783149"><ele>589.6666666666666</ele><time>2026-05-01T14:43:46Z</time></trkpt><trkpt lat="39.54418983772741" lon="9.225241642691913"><ele>593.0</ele><time>2026-05-01T14:43:47Z</time></trkpt><trkpt lat="39.54399639964036" lon="9.225340175074596"><ele>593.0</ele><time>2026-05-01T14:43:48Z</time></trkpt><trkpt lat="39.54379406689993" lon="9.225440493898347"><ele>593.0</ele><time>2026-05-01T14:43:49Z</time></trkpt><trkpt lat="39.543584504109276" lon="9.225547208234016"><ele>593.0</ele><time>2026-05-01T14:43:50Z</time></trkpt><trkpt lat="39.54337155527546" lon="9.225657012185856"><ele>597.6666666666666</ele><time>2026-05-01T14:43:51Z</time></trkpt><trkpt lat="39.54316159235885" lon="9.225762238110583"><ele>602.3333333333334</ele><time>2026-05-01T14:43:52Z</time></trkpt><trkpt lat="39.54295706059145" lon="9.2258626934356"><ele>607.0</ele><time>2026-05-01T14:43:53Z</time></trkpt><trkpt lat="39.54275887591634" lon="9.225959567944836"><ele>608.0</ele><time>2026-05-01T14:43:54Z</time></trkpt><trkpt lat="39.54256730578188" lon="9.226052751087355"><ele>609.0</ele><time>2026-05-01T14:43:55Z</time></trkpt><trkpt lat="39.54238295394803" lon="9.226144282012504"><ele>610.0</ele><time>2026-05-01T14:43:56Z</time></trkpt><trkpt lat="39.54220788604689" lon="9.226246064964986"><ele>611.6666666666667</ele><time>2026-05-01T14:43:57Z</time></trkpt><trkpt lat="39.542039187813835" lon="9.22637678148167"><ele>613.3333333333334</ele><time>2026-05-01T14:43:58Z</time></trkpt><trkpt lat="39.5418818771927" lon="9.226552812553782"><ele>615.0</ele><time>2026-05-01T14:43:59Z</time></trkpt><trkpt lat="39.54173689825297" lon="9.226765356339985"><ele>616.3333333333334</ele><time>2026-05-01T14:44:00Z</time></trkpt><trkpt lat="39.541590440275534" lon="9.226980748055297"><ele>617.6666666666667</ele><time>2026-05-01T14:44:01Z</time></trkpt><trkpt lat="39.54144296182846" lon="9.22718459290691"><ele>619.0</ele><time>2026-05-01T14:44:02Z</time></trkpt><trkpt lat="39.54129415035913" lon="9.22737949155505"><ele>621.3333333333334</ele><time>2026-05-01T14:44:03Z</time></trkpt><trkpt lat="39.54115506995236" lon="9.227568367376222"><ele>623.6666666666666</ele><time>2026-05-01T14:44:04Z</time></trkpt><trkpt lat="39.54103019083218" lon="9.227752569464466"><ele>626.0</ele><time>2026-05-01T14:44:05Z</time></trkpt><trkpt lat="39.540929978352295" lon="9.227939389353335"><ele>627.3333333333333</ele><time>2026-05-01T14:44:06Z</time></trkpt><trkpt lat="39.54086023926077" lon="9.228152758864736"><ele>628.6666666666666</ele><time>2026-05-01T14:44:07Z</time></trkpt><trkpt lat="39.540819819962884" lon="9.228395038239233"><ele>630.0</ele><time>2026-05-01T14:44:08Z</time></trkpt><trkpt lat="39.540801078630835" lon="9.228651372085087"><ele>630.0</ele><time>2026-05-01T14:44:09Z</time></trkpt><trkpt lat="39.54077924286762" lon="9.228906183142001"><ele>630.0</ele><time>2026-05-01T14:44:10Z</time></trkpt><trkpt lat="39.54074640582306" lon="9.229166306851619"><ele>630.0</ele><time>2026-05-01T14:44:11Z</time></trkpt><trkpt lat="39.54067711002076" lon="9.229423530312422"><ele>632.3333333333334</ele><time>2026-05-01T14:44:12Z</time></trkpt><trkpt lat="39.5406024230769" lon="9.229681084230664"><ele>634.6666666666667</ele><time>2026-05-01T14:44:13Z</time></trkpt><trkpt lat="39.54054114918254" lon="9.229948048320654"><ele>637.0</ele><time>2026-05-01T14:44:14Z</time></trkpt><trkpt lat="39.5404592783309" lon="9.230203693562325"><ele>637.6666666666667</ele><time>2026-05-01T14:44:15Z</time></trkpt><trkpt lat="39.54038187240191" lon="9.230454455333538"><ele>638.3333333333334</ele><time>2026-05-01T14:44:16Z</time></trkpt><trkpt lat="39.540309889641705" lon="9.23069601535285"><ele>639.0</ele><time>2026-05-01T14:44:17Z</time></trkpt><trkpt lat="39.54025669458119" lon="9.230946652815797"><ele>639.0</ele><time>2026-05-01T14:44:18Z</time></trkpt><trkpt lat="39.54022612974119" lon="9.231202305865791"><ele>639.0</ele><time>2026-05-01T14:44:19Z</time></trkpt><trkpt lat="39.5401862137878" lon="9.23144643612712"><ele>639.0</ele><time>2026-05-01T14:44:20Z</time></trkpt><trkpt lat="39.54015138680631" lon="9.231688959810675"><ele>641.3333333333334</ele><time>2026-05-01T14:44:21Z</time></trkpt><trkpt lat="39.5401323991354" lon="9.231918429123816"><ele>643.6666666666667</ele><time>2026-05-01T14:44:22Z</time></trkpt><trkpt lat="39.54007210030966" lon="9.232123801918458"><ele>646.0</ele><time>2026-05-01T14:44:23Z</time></trkpt><trkpt lat="39.53995532248098" lon="9.232272986426162"><ele>646.3333333333334</ele><time>2026-05-01T14:44:24Z</time></trkpt><trkpt lat="39.53982155604427" lon="9.232395803130613"><ele>646.6666666666666</ele><time>2026-05-01T14:44:25Z</time></trkpt><trkpt lat="39.53967020821439" lon="9.232523914840543"><ele>647.0</ele><time>2026-05-01T14:44:26Z</time></trkpt><trkpt lat="39.53953226209002" lon="9.232662807312229"><ele>647.0</ele><time>2026-05-01T14:44:27Z</time></trkpt><trkpt lat="39.53941970517237" lon="9.23283309714976"><ele>647.0</ele><time>2026-05-01T14:44:28Z</time></trkpt><trkpt lat="39.53934924369338" lon="9.233050198795572"><ele>647.0</ele><time>2026-05-01T14:44:29Z</time></trkpt><trkpt lat="39.539303155467564" lon="9.233288656718136"><ele>649.3333333333333</ele><time>2026-05-01T14:44:30Z</time></trkpt><trkpt lat="39.53926409140562" lon="9.233530552497296"><ele>651.6666666666666</ele><time>2026-05-01T14:44:31Z</time></trkpt><trkpt lat="39.539229519969446" lon="9.23377444154787"><ele>654.0</ele><time>2026-05-01T14:44:32Z</time></trkpt><trkpt lat="39.53921711303557" lon="9.234028044003315"><ele>655.6666666666666</ele><time>2026-05-01T14:44:33Z</time></trkpt><trkpt lat="39.539226441715314" lon="9.234287014029666"><ele>657.3333333333333</ele><time>2026-05-01T14:44:34Z</time></trkpt><trkpt lat="39.53925838373483" lon="9.23455182640647"><ele>659.0</ele><time>2026-05-01T14:44:35Z</time></trkpt><trkpt lat="39.539295688823785" lon="9.23482154880795"><ele>660.0</ele><time>2026-05-01T14:44:36Z</time></trkpt><trkpt lat="39.53933019323732" lon="9.23509882236857"><ele>661.0</ele><time>2026-05-01T14:44:37Z</time></trkpt><trkpt lat="39.539363474055065" lon="9.23538149569671"><ele>662.0</ele><time>2026-05-01T14:44:38Z</time></trkpt><trkpt lat="39.53939646324024" lon="9.23567037171519"><ele>664.0</ele><time>2026-05-01T14:44:39Z</time></trkpt><trkpt lat="39.5394288224005" lon="9.235963897577728"><ele>666.0</ele><time>2026-05-01T14:44:40Z</time></trkpt><trkpt lat="39.53945966890762" lon="9.236260157339363"><ele>667.0</ele><time>2026-05-01T14:44:41Z</time></trkpt><trkpt lat="39.53949066657717" lon="9.236561184473958"><ele>668.0</ele><time>2026-05-01T14:44:42Z</time></trkpt><trkpt lat="39.539523351875424" lon="9.236861454709572"><ele>671.0</ele><time>2026-05-01T14:44:43Z</time></trkpt><trkpt lat="39.53955888523466" lon="9.237165484456039"><ele>674.0</ele><time>2026-05-01T14:44:44Z</time></trkpt><trkpt lat="39.53959714742705" lon="9.237469522664359"><ele>675.0</ele><time>2026-05-01T14:44:45Z</time></trkpt><trkpt lat="39.53963673981735" lon="9.237773911406153"><ele>676.0</ele><time>2026-05-01T14:44:46Z</time></trkpt><trkpt lat="39.539675176670784" lon="9.238076696580116"><ele>677.0</ele><time>2026-05-01T14:44:47Z</time></trkpt><trkpt lat="39.539707909796384" lon="9.238366261748164"><ele>678.0</ele><time>2026-05-01T14:44:48Z</time></trkpt><trkpt lat="39.53973761453571" lon="9.238658072103384"><ele>678.0</ele><time>2026-05-01T14:44:49Z</time></trkpt><trkpt lat="39.53976586077669" lon="9.238941098913655"><ele>678.0</ele><time>2026-05-01T14:44:50Z</time></trkpt><trkpt lat="39.539796269583526" lon="9.239210404381627"><ele>678.0</ele><time>2026-05-01T14:44:51Z</time></trkpt><trkpt lat="39.53982730553294" lon="9.239469474534186"><ele>678.0</ele><time>2026-05-01T14:44:52Z</time></trkpt><trkpt lat="39.53986078764705" lon="9.239719939791101"><ele>678.0</ele><time>2026-05-01T14:44:53Z</time></trkpt><trkpt lat="39.53990903028118" lon="9.239951482175503"><ele>678.0</ele><time>2026-05-01T14:44:54Z</time></trkpt><trkpt lat="39.53999049366577" lon="9.240166118184138"><ele>677.6666666666666</ele><time>2026-05-01T14:44:55Z</time></trkpt><trkpt lat="39.54010474262467" lon="9.240375006234277"><ele>677.3333333333333</ele><time>2026-05-01T14:44:56Z</time></trkpt><trkpt lat="39.54023936902003" lon="9.240576091888023"><ele>677.0</ele><time>2026-05-01T14:44:57Z</time></trkpt><trkpt lat="39.5403825242608" lon="9.240764053311791"><ele>676.0</ele><time>2026-05-01T14:44:58Z</time></trkpt><trkpt lat="39.54051933151705" lon="9.24094614504899"><ele>675.0</ele><time>2026-05-01T14:44:59Z</time></trkpt><trkpt lat="39.54064604056483" lon="9.241137339287224"><ele>674.0</ele><time>2026-05-01T14:45:00Z</time></trkpt><trkpt lat="39.54076238360682" lon="9.241328595405484"><ele>671.0</ele><time>2026-05-01T14:45:01Z</time></trkpt><trkpt lat="39.54086327420104" lon="9.24151663800694"><ele>668.0</ele><time>2026-05-01T14:45:02Z</time></trkpt><trkpt lat="39.540912014603904" lon="9.241724409346551"><ele>665.0</ele><time>2026-05-01T14:45:03Z</time></trkpt><trkpt lat="39.540955544578964" lon="9.241942434883672"><ele>665.0</ele><time>2026-05-01T14:45:04Z</time></trkpt><trkpt lat="39.54092470610667" lon="9.242173895000386"><ele>665.0</ele><time>2026-05-01T14:45:05Z</time></trkpt><trkpt lat="39.54088805480063" lon="9.242398717604281"><ele>665.0</ele><time>2026-05-01T14:45:06Z</time></trkpt><trkpt lat="39.540854968917046" lon="9.242640764828598"><ele>662.3333333333333</ele><time>2026-05-01T14:45:07Z</time></trkpt><trkpt lat="39.54079845879306" lon="9.242881592522439"><ele>659.6666666666666</ele><time>2026-05-01T14:45:08Z</time></trkpt><trkpt lat="39.54074808079972" lon="9.243131638782213"><ele>657.0</ele><time>2026-05-01T14:45:09Z</time></trkpt><trkpt lat="39.54070121971968" lon="9.243386391250093"><ele>655.3333333333334</ele><time>2026-05-01T14:45:10Z</time></trkpt><trkpt lat="39.540653084032854" lon="9.243639932860642"><ele>653.6666666666667</ele><time>2026-05-01T14:45:11Z</time></trkpt><trkpt lat="39.540603174399685" lon="9.243883507991228"><ele>652.0</ele><time>2026-05-01T14:45:12Z</time></trkpt><trkpt lat="39.54056492816439" lon="9.244114525353776"><ele>651.3333333333334</ele><time>2026-05-01T14:45:13Z</time></trkpt><trkpt lat="39.540553858524746" lon="9.24434323747114"><ele>650.6666666666666</ele><time>2026-05-01T14:45:14Z</time></trkpt><trkpt lat="39.54058633461862" lon="9.244565912054213"><ele>650.0</ele><time>2026-05-01T14:45:15Z</time></trkpt><trkpt lat="39.54066758267956" lon="9.244784790362493"><ele>646.6666666666666</ele><time>2026-05-01T14:45:16Z</time></trkpt><trkpt lat="39.5407824485124" lon="9.245000559290919"><ele>643.3333333333334</ele><time>2026-05-01T14:45:17Z</time></trkpt><trkpt lat="39.54089305427119" lon="9.24522202611683"><ele>640.0</ele><time>2026-05-01T14:45:18Z</time></trkpt><trkpt lat="39.54099862919748" lon="9.245460692403661"><ele>637.3333333333334</ele><time>2026-05-01T14:45:19Z</time></trkpt><trkpt lat="39.54109028340354" lon="9.245715178194846"><ele>634.6666666666666</ele><time>2026-05-01T14:45:20Z</time></trkpt><trkpt lat="39.54115873425288" lon="9.24599371076343"><ele>632.0</ele><time>2026-05-01T14:45:21Z</time></trkpt><trkpt lat="39.54120877496617" lon="9.24629138780563"><ele>630.0</ele><time>2026-05-01T14:45:22Z</time></trkpt><trkpt lat="39.54124901094729" lon="9.246595463077817"><ele>628.0</ele><time>2026-05-01T14:45:23Z</time></trkpt><trkpt lat="39.54128661405062" lon="9.246895928841685"><ele>628.0</ele><time>2026-05-01T14:45:24Z</time></trkpt><trkpt lat="39.541325559517915" lon="9.247197169221138"><ele>628.0</ele><time>2026-05-01T14:45:25Z</time></trkpt><trkpt lat="39.54136459010855" lon="9.247487236766592"><ele>626.5</ele><time>2026-05-01T14:45:26Z</time></trkpt><trkpt lat="39.541405064289044" lon="9.247782302751036"><ele>625.0</ele><time>2026-05-01T14:45:27Z</time></trkpt><trkpt lat="39.54144502689161" lon="9.248067151579267"><ele>625.3333333333334</ele><time>2026-05-01T14:45:28Z</time></trkpt><trkpt lat="39.54148358074909" lon="9.248340882941829"><ele>625.6666666666666</ele><time>2026-05-01T14:45:29Z</time></trkpt><trkpt lat="39.54152187109413" lon="9.248598883551704"><ele>626.0</ele><time>2026-05-01T14:45:30Z</time></trkpt><trkpt lat="39.5415554012786" lon="9.248835963519063"><ele>626.6666666666666</ele><time>2026-05-01T14:45:31Z</time></trkpt><trkpt lat="39.541580566186106" lon="9.24906006729424"><ele>627.3333333333334</ele><time>2026-05-01T14:45:32Z</time></trkpt><trkpt lat="39.541590610132495" lon="9.249272712041204"><ele>628.0</ele><time>2026-05-01T14:45:33Z</time></trkpt><trkpt lat="39.54157907792892" lon="9.249489532939718"><ele>628.0</ele><time>2026-05-01T14:45:34Z</time></trkpt><trkpt lat="39.541530699210284" lon="9.249700561811304"><ele>628.0</ele><time>2026-05-01T14:45:35Z</time></trkpt><trkpt lat="39.54145478550056" lon="9.249897928437262"><ele>628.0</ele><time>2026-05-01T14:45:36Z</time></trkpt><trkpt lat="39.541362751057356" lon="9.250084228921391"><ele>629.3333333333334</ele><time>2026-05-01T14:45:37Z</time></trkpt><trkpt lat="39.54122969912155" lon="9.250236803030942"><ele>630.6666666666666</ele><time>2026-05-01T14:45:38Z</time></trkpt><trkpt lat="39.54111079315688" lon="9.25041084941087"><ele>632.0</ele><time>2026-05-01T14:45:39Z</time></trkpt><trkpt lat="39.54098981659658" lon="9.25058844169481"><ele>632.6666666666666</ele><time>2026-05-01T14:45:40Z</time></trkpt><trkpt lat="39.54087960265753" lon="9.250782980273009"><ele>633.3333333333334</ele><time>2026-05-01T14:45:41Z</time></trkpt><trkpt lat="39.54075189065225" lon="9.250960272528857"><ele>634.0</ele><time>2026-05-01T14:45:42Z</time></trkpt><trkpt lat="39.54062650135122" lon="9.251129342560608"><ele>634.0</ele><time>2026-05-01T14:45:43Z</time></trkpt><trkpt lat="39.540492789561505" lon="9.251278087763685"><ele>634.0</ele><time>2026-05-01T14:45:44Z</time></trkpt><trkpt lat="39.54033312506234" lon="9.25137432934299"><ele>634.0</ele><time>2026-05-01T14:45:45Z</time></trkpt><trkpt lat="39.54016996376733" lon="9.25147000821401"><ele>632.0</ele><time>2026-05-01T14:45:46Z</time></trkpt><trkpt lat="39.54000613099926" lon="9.251580520965916"><ele>630.0</ele><time>2026-05-01T14:45:47Z</time></trkpt><trkpt lat="39.539836879499966" lon="9.251676580428457"><ele>628.0</ele><time>2026-05-01T14:45:48Z</time></trkpt><trkpt lat="39.539668479027114" lon="9.251778885279082"><ele>626.0</ele><time>2026-05-01T14:45:49Z</time></trkpt><trkpt lat="39.53951389945198" lon="9.251881121018176"><ele>624.0</ele><time>2026-05-01T14:45:50Z</time></trkpt><trkpt lat="39.5393819838343" lon="9.251994175792348"><ele>622.0</ele><time>2026-05-01T14:45:51Z</time></trkpt><trkpt lat="39.53927172759448" lon="9.252130838869066"><ele>619.3333333333334</ele><time>2026-05-01T14:45:52Z</time></trkpt><trkpt lat="39.53920558704311" lon="9.252301229181276"><ele>616.6666666666666</ele><time>2026-05-01T14:45:53Z</time></trkpt><trkpt lat="39.539166644193116" lon="9.252497701318894"><ele>614.0</ele><time>2026-05-01T14:45:54Z</time></trkpt><trkpt lat="39.53917957946151" lon="9.252703298965965"><ele>614.0</ele><time>2026-05-01T14:45:55Z</time></trkpt><trkpt lat="39.53921775647869" lon="9.252906340959477"><ele>614.0</ele><time>2026-05-01T14:45:56Z</time></trkpt><trkpt lat="39.53924738812285" lon="9.253113607971082"><ele>614.0</ele><time>2026-05-01T14:45:57Z</time></trkpt><trkpt lat="39.53926558895539" lon="9.253330256226468"><ele>612.6666666666666</ele><time>2026-05-01T14:45:58Z</time></trkpt><trkpt lat="39.539261664495726" lon="9.253555495165807"><ele>611.3333333333334</ele><time>2026-05-01T14:45:59Z</time></trkpt><trkpt lat="39.539230014930475" lon="9.253781570339015"><ele>610.0</ele><time>2026-05-01T14:46:00Z</time></trkpt><trkpt lat="39.53917723710907" lon="9.253990298195593"><ele>609.5</ele><time>2026-05-01T14:46:01Z</time></trkpt><trkpt lat="39.539128389137154" lon="9.254182979455747"><ele>609.0</ele><time>2026-05-01T14:46:02Z</time></trkpt><trkpt lat="39.5391018158392" lon="9.254369177294512"><ele>608.5</ele><time>2026-05-01T14:46:03Z</time></trkpt><trkpt lat="39.53910590097107" lon="9.254549283975068"><ele>608.0</ele><time>2026-05-01T14:46:04Z</time></trkpt><trkpt lat="39.53914442699759" lon="9.254709753447319"><ele>608.0</ele><time>2026-05-01T14:46:05Z</time></trkpt><trkpt lat="39.53921340395684" lon="9.254859411360817"><ele>608.0</ele><time>2026-05-01T14:46:06Z</time></trkpt><trkpt lat="39.539298940542324" lon="9.255004784387618"><ele>608.0</ele><time>2026-05-01T14:46:07Z</time></trkpt><trkpt lat="39.53938090562709" lon="9.255149504931671"><ele>608.0</ele><time>2026-05-01T14:46:08Z</time></trkpt><trkpt lat="39.5394293813148" lon="9.255305731872276"><ele>608.0</ele><time>2026-05-01T14:46:09Z</time></trkpt><trkpt lat="39.53942803175482" lon="9.255465211147962"><ele>608.0</ele><time>2026-05-01T14:46:10Z</time></trkpt><trkpt lat="39.53936963457742" lon="9.25560914329551"><ele>608.0</ele><time>2026-05-01T14:46:11Z</time></trkpt><trkpt lat="39.53929344618773" lon="9.255747307072703"><ele>608.0</ele><time>2026-05-01T14:46:12Z</time></trkpt><trkpt lat="39.539197429204854" lon="9.255888020153428"><ele>607.3333333333333</ele><time>2026-05-01T14:46:13Z</time></trkpt><trkpt lat="39.53909627283574" lon="9.256034502588752"><ele>606.6666666666666</ele><time>2026-05-01T14:46:14Z</time></trkpt><trkpt lat="39.538998429115054" lon="9.256196254975956"><ele>606.0</ele><time>2026-05-01T14:46:15Z</time></trkpt><trkpt lat="39.53892303061263" lon="9.256381044618426"><ele>604.6666666666666</ele><time>2026-05-01T14:46:16Z</time></trkpt><trkpt lat="39.53886190652464" lon="9.256580385569078"><ele>603.3333333333333</ele><time>2026-05-01T14:46:17Z</time></trkpt><trkpt lat="39.53884108122593" lon="9.256805988193141"><ele>602.0</ele><time>2026-05-01T14:46:18Z</time></trkpt><trkpt lat="39.5388466875979" lon="9.257044249748544"><ele>602.0</ele><time>2026-05-01T14:46:19Z</time></trkpt><trkpt lat="39.53886391178662" lon="9.257283483213662"><ele>602.0</ele><time>2026-05-01T14:46:20Z</time></trkpt><trkpt lat="39.5388743654384" lon="9.257522726805798"><ele>602.0</ele><time>2026-05-01T14:46:21Z</time></trkpt><trkpt lat="39.53888178236983" lon="9.257757933338794"><ele>601.6666666666666</ele><time>2026-05-01T14:46:22Z</time></trkpt><trkpt lat="39.5388889660662" lon="9.25798805258307"><ele>601.3333333333334</ele><time>2026-05-01T14:46:23Z</time></trkpt><trkpt lat="39.53887857368162" lon="9.258206247914478"><ele>601.0</ele><time>2026-05-01T14:46:24Z</time></trkpt><trkpt lat="39.53880144964015" lon="9.258398665128718"><ele>600.3333333333334</ele><time>2026-05-01T14:46:25Z</time></trkpt><trkpt lat="39.538719571362506" lon="9.258594810439245"><ele>599.6666666666666</ele><time>2026-05-01T14:46:26Z</time></trkpt><trkpt lat="39.538626823121874" lon="9.258783512408998"><ele>599.0</ele><time>2026-05-01T14:46:27Z</time></trkpt><trkpt lat="39.53853603713331" lon="9.258977313324749"><ele>602.6666666666666</ele><time>2026-05-01T14:46:28Z</time></trkpt><trkpt lat="39.53844042919098" lon="9.259177926777658"><ele>606.3333333333334</ele><time>2026-05-01T14:46:29Z</time></trkpt><trkpt lat="39.538360592196945" lon="9.259393751304218"><ele>610.0</ele><time>2026-05-01T14:46:30Z</time></trkpt><trkpt lat="39.5382727493258" lon="9.259611612783061"><ele>606.0</ele><time>2026-05-01T14:46:31Z</time></trkpt><trkpt lat="39.53819928400745" lon="9.259846057850435"><ele>602.0</ele><time>2026-05-01T14:46:32Z</time></trkpt><trkpt lat="39.53814425307573" lon="9.260086332519649"><ele>598.0</ele><time>2026-05-01T14:46:33Z</time></trkpt><trkpt lat="39.53807784729943" lon="9.260325614946506"><ele>598.0</ele><time>2026-05-01T14:46:34Z</time></trkpt><trkpt lat="39.53799508492196" lon="9.260554843088043"><ele>598.0</ele><time>2026-05-01T14:46:35Z</time></trkpt><trkpt lat="39.53792573409949" lon="9.260789512211934"><ele>598.0</ele><time>2026-05-01T14:46:36Z</time></trkpt><trkpt lat="39.53785657756281" lon="9.261021461940594"><ele>596.3333333333334</ele><time>2026-05-01T14:46:37Z</time></trkpt><trkpt lat="39.53779226740982" lon="9.26125280496408"><ele>594.6666666666666</ele><time>2026-05-01T14:46:38Z</time></trkpt><trkpt lat="39.53771608019028" lon="9.261478541660143"><ele>593.0</ele><time>2026-05-01T14:46:39Z</time></trkpt><trkpt lat="39.53762618119777" lon="9.261695923441176"><ele>593.0</ele><time>2026-05-01T14:46:40Z</time></trkpt><trkpt lat="39.537517896511005" lon="9.261901320916884"><ele>593.0</ele><time>2026-05-01T14:46:41Z</time></trkpt><trkpt lat="39.53742345429309" lon="9.262116539674288"><ele>593.0</ele><time>2026-05-01T14:46:42Z</time></trkpt><trkpt lat="39.53734035831044" lon="9.262340932641537"><ele>588.6666666666666</ele><time>2026-05-01T14:46:43Z</time></trkpt><trkpt lat="39.53724611097352" lon="9.262552517345526"><ele>584.3333333333334</ele><time>2026-05-01T14:46:44Z</time></trkpt><trkpt lat="39.537153414764525" lon="9.262765312381239"><ele>580.0</ele><time>2026-05-01T14:46:45Z</time></trkpt><trkpt lat="39.53706059828396" lon="9.262972971800933"><ele>579.0</ele><time>2026-05-01T14:46:46Z</time></trkpt><trkpt lat="39.5369581971593" lon="9.263172696861382"><ele>578.0</ele><time>2026-05-01T14:46:47Z</time></trkpt><trkpt lat="39.536815973677584" lon="9.263331111920206"><ele>577.0</ele><time>2026-05-01T14:46:48Z</time></trkpt><trkpt lat="39.536666597707445" lon="9.26348278868897"><ele>577.0</ele><time>2026-05-01T14:46:49Z</time></trkpt><trkpt lat="39.536519051757395" lon="9.263645078436621"><ele>577.0</ele><time>2026-05-01T14:46:50Z</time></trkpt><trkpt lat="39.53636414137258" lon="9.263792531663883"><ele>577.0</ele><time>2026-05-01T14:46:51Z</time></trkpt><trkpt lat="39.53621558761726" lon="9.263947414131817"><ele>574.3333333333334</ele><time>2026-05-01T14:46:52Z</time></trkpt><trkpt lat="39.53607853660695" lon="9.26412108754281"><ele>571.6666666666666</ele><time>2026-05-01T14:46:53Z</time></trkpt><trkpt lat="39.53596171043782" lon="9.264317921066437"><ele>569.0</ele><time>2026-05-01T14:46:54Z</time></trkpt><trkpt lat="39.53586962435756" lon="9.264538409869258"><ele>569.0</ele><time>2026-05-01T14:46:55Z</time></trkpt><trkpt lat="39.53579297805651" lon="9.264778008945974"><ele>569.0</ele><time>2026-05-01T14:46:56Z</time></trkpt><trkpt lat="39.535714376099264" lon="9.265019114637521"><ele>569.0</ele><time>2026-05-01T14:46:57Z</time></trkpt><trkpt lat="39.53561536344938" lon="9.265251491335754"><ele>566.0</ele><time>2026-05-01T14:46:58Z</time></trkpt><trkpt lat="39.53552676847769" lon="9.265489289233352"><ele>563.0</ele><time>2026-05-01T14:46:59Z</time></trkpt><trkpt lat="39.53543844734632" lon="9.265726385442628"><ele>560.0</ele><time>2026-05-01T14:47:00Z</time></trkpt><trkpt lat="39.535352187491775" lon="9.265957948216341"><ele>558.0</ele><time>2026-05-01T14:47:01Z</time></trkpt><trkpt lat="39.53526938932951" lon="9.266180218082644"><ele>556.0</ele><time>2026-05-01T14:47:02Z</time></trkpt><trkpt lat="39.53518658201123" lon="9.266402512603703"><ele>554.0</ele><time>2026-05-01T14:47:03Z</time></trkpt><trkpt lat="39.53510448756337" lon="9.266622893390178"><ele>553.3333333333333</ele><time>2026-05-01T14:47:04Z</time></trkpt><trkpt lat="39.53503408861985" lon="9.266852340593946"><ele>552.6666666666666</ele><time>2026-05-01T14:47:05Z</time></trkpt><trkpt lat="39.534950773900775" lon="9.267072482568853"><ele>552.0</ele><time>2026-05-01T14:47:06Z</time></trkpt><trkpt lat="39.53485826689347" lon="9.267315772672116"><ele>550.5</ele><time>2026-05-01T14:47:07Z</time></trkpt><trkpt lat="39.534761450575914" lon="9.267580731080928"><ele>549.0</ele><time>2026-05-01T14:47:08Z</time></trkpt><trkpt lat="39.53465944524117" lon="9.26785651576259"><ele>553.5</ele><time>2026-05-01T14:47:09Z</time></trkpt><trkpt lat="39.53455269445561" lon="9.26813850312579"><ele>558.0</ele><time>2026-05-01T14:47:10Z</time></trkpt><trkpt lat="39.534445678311464" lon="9.268417509534453"><ele>558.0</ele><time>2026-05-01T14:47:11Z</time></trkpt><trkpt lat="39.53434539079843" lon="9.2686791557108"><ele>558.0</ele><time>2026-05-01T14:47:12Z</time></trkpt><trkpt lat="39.534257430018044" lon="9.26891859262314"><ele>558.0</ele><time>2026-05-01T14:47:13Z</time></trkpt><trkpt lat="39.53418308699147" lon="9.26915290514552"><ele>559.3333333333334</ele><time>2026-05-01T14:47:14Z</time></trkpt><trkpt lat="39.534133823022565" lon="9.269387315338419"><ele>560.6666666666667</ele><time>2026-05-01T14:47:15Z</time></trkpt><trkpt lat="39.53412430270234" lon="9.269643978139094"><ele>562.0</ele><time>2026-05-01T14:47:16Z</time></trkpt><trkpt lat="39.53414402370761" lon="9.26992015212107"><ele>563.3333333333334</ele><time>2026-05-01T14:47:17Z</time></trkpt><trkpt lat="39.53414851571999" lon="9.270204030722107"><ele>564.6666666666666</ele><time>2026-05-01T14:47:18Z</time></trkpt><trkpt lat="39.53415639813892" lon="9.270488791203553"><ele>566.0</ele><time>2026-05-01T14:47:19Z</time></trkpt><trkpt lat="39.53416938645635" lon="9.270773619895158"><ele>566.5</ele><time>2026-05-01T14:47:20Z</time></trkpt><trkpt lat="39.53417151056281" lon="9.271068032237308"><ele>567.0</ele><time>2026-05-01T14:47:21Z</time></trkpt><trkpt lat="39.53418193990651" lon="9.271364040399922"><ele>569.0</ele><time>2026-05-01T14:47:22Z</time></trkpt><trkpt lat="39.5341959708149" lon="9.271658395113544"><ele>571.0</ele><time>2026-05-01T14:47:23Z</time></trkpt><trkpt lat="39.53420748179142" lon="9.271946983681744"><ele>571.0</ele><time>2026-05-01T14:47:24Z</time></trkpt><trkpt lat="39.53421394279347" lon="9.272215061399079"><ele>571.0</ele><time>2026-05-01T14:47:25Z</time></trkpt><trkpt lat="39.534190579137224" lon="9.272462974689523"><ele>571.0</ele><time>2026-05-01T14:47:26Z</time></trkpt><trkpt lat="39.53417081059325" lon="9.272717549507735"><ele>572.3333333333334</ele><time>2026-05-01T14:47:27Z</time></trkpt><trkpt lat="39.53410011191166" lon="9.272978244789636"><ele>573.6666666666666</ele><time>2026-05-01T14:47:28Z</time></trkpt><trkpt lat="39.534064922129325" lon="9.273248953338786"><ele>575.0</ele><time>2026-05-01T14:47:29Z</time></trkpt><trkpt lat="39.53392004692936" lon="9.27350412753836"><ele>577.3333333333333</ele><time>2026-05-01T14:47:30Z</time></trkpt><trkpt lat="39.53383074941711" lon="9.273767715495316"><ele>579.6666666666666</ele><time>2026-05-01T14:47:31Z</time></trkpt><trkpt lat="39.533745468047776" lon="9.27402849913253"><ele>582.0</ele><time>2026-05-01T14:47:32Z</time></trkpt><trkpt lat="39.533658194066845" lon="9.274290353574013"><ele>587.0</ele><time>2026-05-01T14:47:33Z</time></trkpt><trkpt lat="39.53357111928022" lon="9.274555523928917"><ele>592.0</ele><time>2026-05-01T14:47:34Z</time></trkpt><trkpt lat="39.53348117548384" lon="9.274830186167335"><ele>592.0</ele><time>2026-05-01T14:47:35Z</time></trkpt><trkpt lat="39.53339102444838" lon="9.275107682686732"><ele>592.0</ele><time>2026-05-01T14:47:36Z</time></trkpt><trkpt lat="39.53330154364496" lon="9.275389230385839"><ele>592.5</ele><time>2026-05-01T14:47:37Z</time></trkpt><trkpt lat="39.533211047803285" lon="9.2756699490945"><ele>593.0</ele><time>2026-05-01T14:47:38Z</time></trkpt><trkpt lat="39.53311920166932" lon="9.275951690043076"><ele>593.0</ele><time>2026-05-01T14:47:39Z</time></trkpt><trkpt lat="39.53302710102351" lon="9.276232185287096"><ele>593.0</ele><time>2026-05-01T14:47:40Z</time></trkpt><trkpt lat="39.53293302096416" lon="9.276518032388433"><ele>595.0</ele><time>2026-05-01T14:47:41Z</time></trkpt><trkpt lat="39.53283946894403" lon="9.276804922974701"><ele>597.0</ele><time>2026-05-01T14:47:42Z</time></trkpt><trkpt lat="39.53274714839042" lon="9.277095250637442"><ele>597.0</ele><time>2026-05-01T14:47:43Z</time></trkpt><trkpt lat="39.53265435946108" lon="9.277386769552354"><ele>597.0</ele><time>2026-05-01T14:47:44Z</time></trkpt><trkpt lat="39.53255875297368" lon="9.277678621265869"><ele>597.0</ele><time>2026-05-01T14:47:45Z</time></trkpt><trkpt lat="39.53246219036467" lon="9.277966489488284"><ele>597.0</ele><time>2026-05-01T14:47:46Z</time></trkpt><trkpt lat="39.53236575171336" lon="9.278256355152868"><ele>593.5</ele><time>2026-05-01T14:47:47Z</time></trkpt><trkpt lat="39.53227050991126" lon="9.278550201221488"><ele>590.0</ele><time>2026-05-01T14:47:48Z</time></trkpt><trkpt lat="39.5321761596511" lon="9.278846706762645"><ele>588.0</ele><time>2026-05-01T14:47:49Z</time></trkpt><trkpt lat="39.53208025949114" lon="9.27913961103384"><ele>586.0</ele><time>2026-05-01T14:47:50Z</time></trkpt><trkpt lat="39.53198364186919" lon="9.279428980066283"><ele>593.5</ele><time>2026-05-01T14:47:51Z</time></trkpt><trkpt lat="39.53188870256476" lon="9.279714342087075"><ele>601.0</ele><time>2026-05-01T14:47:52Z</time></trkpt><trkpt lat="39.531797133975324" lon="9.279997578975388"><ele>601.0</ele><time>2026-05-01T14:47:53Z</time></trkpt><trkpt lat="39.53170382372967" lon="9.280282067618442"><ele>601.0</ele><time>2026-05-01T14:47:54Z</time></trkpt><trkpt lat="39.5316110722844" lon="9.280564886491815"><ele>601.0</ele><time>2026-05-01T14:47:55Z</time></trkpt><trkpt lat="39.531520101808795" lon="9.280848346671235"><ele>601.0</ele><time>2026-05-01T14:47:56Z</time></trkpt><trkpt lat="39.531428651733265" lon="9.281129324717545"><ele>601.0</ele><time>2026-05-01T14:47:57Z</time></trkpt><trkpt lat="39.531335275393516" lon="9.281412179709926"><ele>601.0</ele><time>2026-05-01T14:47:58Z</time></trkpt><trkpt lat="39.53124386008755" lon="9.281695880296216"><ele>607.5</ele><time>2026-05-01T14:47:59Z</time></trkpt><trkpt lat="39.531153755807026" lon="9.281977964341182"><ele>614.0</ele><time>2026-05-01T14:48:00Z</time></trkpt><trkpt lat="39.531059758335005" lon="9.282259254075884"><ele>611.5</ele><time>2026-05-01T14:48:01Z</time></trkpt><trkpt lat="39.53096782508573" lon="9.28253764167205"><ele>609.0</ele><time>2026-05-01T14:48:02Z</time></trkpt><trkpt lat="39.53087403471656" lon="9.282820942864841"><ele>609.0</ele><time>2026-05-01T14:48:03Z</time></trkpt><trkpt lat="39.5307842899597" lon="9.283097068254262"><ele>609.0</ele><time>2026-05-01T14:48:04Z</time></trkpt><trkpt lat="39.530697652207586" lon="9.283369058641647"><ele>608.5</ele><time>2026-05-01T14:48:05Z</time></trkpt><trkpt lat="39.530609794958" lon="9.283643456849605"><ele>608.0</ele><time>2026-05-01T14:48:06Z</time></trkpt><trkpt lat="39.53051911493814" lon="9.283917629372763"><ele>605.0</ele><time>2026-05-01T14:48:07Z</time></trkpt><trkpt lat="39.53042397745538" lon="9.28420009413138"><ele>602.0</ele><time>2026-05-01T14:48:08Z</time></trkpt><trkpt lat="39.53033497866739" lon="9.284471027276497"><ele>605.3333333333333</ele><time>2026-05-01T14:48:09Z</time></trkpt><trkpt lat="39.530250609725144" lon="9.284734211897804"><ele>608.6666666666666</ele><time>2026-05-01T14:48:10Z</time></trkpt><trkpt lat="39.53017111638761" lon="9.284983318684318"><ele>612.0</ele><time>2026-05-01T14:48:11Z</time></trkpt><trkpt lat="39.53008706839617" lon="9.285231898103028"><ele>612.0</ele><time>2026-05-01T14:48:12Z</time></trkpt><trkpt lat="39.52998914390713" lon="9.285464856791156"><ele>612.0</ele><time>2026-05-01T14:48:13Z</time></trkpt><trkpt lat="39.52986335866599" lon="9.285666000272943"><ele>612.0</ele><time>2026-05-01T14:48:14Z</time></trkpt><trkpt lat="39.529711708403205" lon="9.285821868864204"><ele>613.6666666666666</ele><time>2026-05-01T14:48:15Z</time></trkpt><trkpt lat="39.529534086147144" lon="9.285933607804639"><ele>615.3333333333333</ele><time>2026-05-01T14:48:16Z</time></trkpt><trkpt lat="39.52934245174586" lon="9.286013603117869"><ele>617.0</ele><time>2026-05-01T14:48:17Z</time></trkpt><trkpt lat="39.52915022508601" lon="9.286035201631737"><ele>617.0</ele><time>2026-05-01T14:48:18Z</time></trkpt><trkpt lat="39.52895939582865" lon="9.2860111039871"><ele>617.0</ele><time>2026-05-01T14:48:19Z</time></trkpt><trkpt lat="39.52876875611352" lon="9.285937046754082"><ele>617.0</ele><time>2026-05-01T14:48:20Z</time></trkpt><trkpt lat="39.528583496958014" lon="9.285810033944296"><ele>619.0</ele><time>2026-05-01T14:48:21Z</time></trkpt><trkpt lat="39.528397025567074" lon="9.285660526520054"><ele>621.0</ele><time>2026-05-01T14:48:22Z</time></trkpt><trkpt lat="39.52819929072574" lon="9.285520885714238"><ele>623.0</ele><time>2026-05-01T14:48:23Z</time></trkpt><trkpt lat="39.52799623437525" lon="9.285385334959026"><ele>626.0</ele><time>2026-05-01T14:48:24Z</time></trkpt><trkpt lat="39.52779328176418" lon="9.285251077356751"><ele>629.0</ele><time>2026-05-01T14:48:25Z</time></trkpt><trkpt lat="39.52759230332132" lon="9.285118089441573"><ele>629.0</ele><time>2026-05-01T14:48:26Z</time></trkpt><trkpt lat="39.52739135055991" lon="9.284985045633524"><ele>629.0</ele><time>2026-05-01T14:48:27Z</time></trkpt><trkpt lat="39.527193359194825" lon="9.28485259988327"><ele>629.0</ele><time>2026-05-01T14:48:28Z</time></trkpt><trkpt lat="39.52699717284434" lon="9.284722185522416"><ele>632.0</ele><time>2026-05-01T14:48:29Z</time></trkpt><trkpt lat="39.52680555934274" lon="9.284598497067458"><ele>635.0</ele><time>2026-05-01T14:48:30Z</time></trkpt><trkpt lat="39.52662103890135" lon="9.284479833180121"><ele>638.0</ele><time>2026-05-01T14:48:31Z</time></trkpt><trkpt lat="39.52644517767888" lon="9.284362718806209"><ele>638.0</ele><time>2026-05-01T14:48:32Z</time></trkpt><trkpt lat="39.526285040084204" lon="9.284239659930085"><ele>638.0</ele><time>2026-05-01T14:48:33Z</time></trkpt><trkpt lat="39.52613710961841" lon="9.284088204762357"><ele>638.0</ele><time>2026-05-01T14:48:34Z</time></trkpt><trkpt lat="39.52602583703403" lon="9.283875226130125"><ele>638.3333333333333</ele><time>2026-05-01T14:48:35Z</time></trkpt><trkpt lat="39.52590345773122" lon="9.283671122151103"><ele>638.6666666666666</ele><time>2026-05-01T14:48:36Z</time></trkpt><trkpt lat="39.525773270753426" lon="9.28347724937029"><ele>639.0</ele><time>2026-05-01T14:48:37Z</time></trkpt><trkpt lat="39.525655550527055" lon="9.283273745851538"><ele>641.3333333333334</ele><time>2026-05-01T14:48:38Z</time></trkpt><trkpt lat="39.52553176124052" lon="9.283073826175986"><ele>643.6666666666667</ele><time>2026-05-01T14:48:39Z</time></trkpt><trkpt lat="39.5254087003638" lon="9.282878905262427"><ele>646.0</ele><time>2026-05-01T14:48:40Z</time></trkpt><trkpt lat="39.5252957166568" lon="9.282692353534326"><ele>640.3333333333334</ele><time>2026-05-01T14:48:41Z</time></trkpt><trkpt lat="39.525185845355615" lon="9.282505975493237"><ele>634.6666666666666</ele><time>2026-05-01T14:48:42Z</time></trkpt><trkpt lat="39.52508696646015" lon="9.282322036210335"><ele>629.0</ele><time>2026-05-01T14:48:43Z</time></trkpt><trkpt lat="39.525004945443094" lon="9.282124662920907"><ele>629.0</ele><time>2026-05-01T14:48:44Z</time></trkpt><trkpt lat="39.52493615345627" lon="9.281910027808637"><ele>629.0</ele><time>2026-05-01T14:48:45Z</time></trkpt><trkpt lat="39.52487375437841" lon="9.28167427291759"><ele>629.0</ele><time>2026-05-01T14:48:46Z</time></trkpt><trkpt lat="39.524819173823495" lon="9.281436180025306"><ele>630.0</ele><time>2026-05-01T14:48:47Z</time></trkpt><trkpt lat="39.524754484529836" lon="9.281183592055338"><ele>631.0</ele><time>2026-05-01T14:48:48Z</time></trkpt><trkpt lat="39.5246889226318" lon="9.280926787831044"><ele>632.0</ele><time>2026-05-01T14:48:49Z</time></trkpt><trkpt lat="39.52462228878166" lon="9.28067019773066"><ele>630.0</ele><time>2026-05-01T14:48:50Z</time></trkpt><trkpt lat="39.52455589280291" lon="9.280408648088514"><ele>628.0</ele><time>2026-05-01T14:48:51Z</time></trkpt><trkpt lat="39.52450199179427" lon="9.280169642919864"><ele>626.0</ele><time>2026-05-01T14:48:52Z</time></trkpt><trkpt lat="39.52444684757491" lon="9.279937261220846"><ele>628.6666666666666</ele><time>2026-05-01T14:48:53Z</time></trkpt><trkpt lat="39.52439518953708" lon="9.279720244757172"><ele>631.3333333333334</ele><time>2026-05-01T14:48:54Z</time></trkpt><trkpt lat="39.52434702549195" lon="9.279515973049367"><ele>634.0</ele><time>2026-05-01T14:48:55Z</time></trkpt><trkpt lat="39.52429864549688" lon="9.279332616825064"><ele>634.0</ele><time>2026-05-01T14:48:56Z</time></trkpt><trkpt lat="39.52423521021032" lon="9.279179534049739"><ele>634.0</ele><time>2026-05-01T14:48:57Z</time></trkpt><trkpt lat="39.52416306960791" lon="9.279042699979318"><ele>634.0</ele><time>2026-05-01T14:48:58Z</time></trkpt><trkpt lat="39.5240948946637" lon="9.278914899689218"><ele>634.0</ele><time>2026-05-01T14:48:59Z</time></trkpt><trkpt lat="39.52401101859359" lon="9.278838560326674"><ele>634.4</ele><time>2026-05-01T14:49:00Z</time></trkpt><trkpt lat="39.523922027391336" lon="9.278792522708493"><ele>634.8</ele><time>2026-05-01T14:49:01Z</time></trkpt><trkpt lat="39.52382490327639" lon="9.278772162594226"><ele>635.2</ele><time>2026-05-01T14:49:02Z</time></trkpt><trkpt lat="39.52371702812604" lon="9.278770830029469"><ele>635.6</ele><time>2026-05-01T14:49:03Z</time></trkpt><trkpt lat="39.52360185256616" lon="9.278792435095307"><ele>636.0</ele><time>2026-05-01T14:49:04Z</time></trkpt><trkpt lat="39.52348614296181" lon="9.278839957697548"><ele>636.0</ele><time>2026-05-01T14:49:05Z</time></trkpt><trkpt lat="39.52337216203121" lon="9.278913613393403"><ele>636.0</ele><time>2026-05-01T14:49:06Z</time></trkpt><trkpt lat="39.52326631984273" lon="9.279013440019918"><ele>636.0</ele><time>2026-05-01T14:49:07Z</time></trkpt><trkpt lat="39.523181815158864" lon="9.279136042980456"><ele>636.0</ele><time>2026-05-01T14:49:08Z</time></trkpt><trkpt lat="39.52312939655937" lon="9.279291532591404"><ele>634.75</ele><time>2026-05-01T14:49:09Z</time></trkpt><trkpt lat="39.52310120671875" lon="9.279470200393458"><ele>633.5</ele><time>2026-05-01T14:49:10Z</time></trkpt><trkpt lat="39.52308098469883" lon="9.279662321126752"><ele>632.25</ele><time>2026-05-01T14:49:11Z</time></trkpt><trkpt lat="39.52305376241665" lon="9.279864507835564"><ele>631.0</ele><time>2026-05-01T14:49:12Z</time></trkpt><trkpt lat="39.52302181073615" lon="9.280070466751733"><ele>629.0</ele><time>2026-05-01T14:49:13Z</time></trkpt><trkpt lat="39.522989717467496" lon="9.280278828734074"><ele>627.0</ele><time>2026-05-01T14:49:14Z</time></trkpt><trkpt lat="39.52295251710967" lon="9.280491313412465"><ele>625.0</ele><time>2026-05-01T14:49:15Z</time></trkpt><trkpt lat="39.52292610723027" lon="9.280713664191442"><ele>628.3333333333334</ele><time>2026-05-01T14:49:16Z</time></trkpt><trkpt lat="39.52289528618191" lon="9.280941447886466"><ele>631.6666666666666</ele><time>2026-05-01T14:49:17Z</time></trkpt><trkpt lat="39.522862511995065" lon="9.28117000759108"><ele>635.0</ele><time>2026-05-01T14:49:18Z</time></trkpt><trkpt lat="39.52282848338522" lon="9.281398858729867"><ele>631.3333333333333</ele><time>2026-05-01T14:49:19Z</time></trkpt><trkpt lat="39.52279331209824" lon="9.281627553937081"><ele>627.6666666666666</ele><time>2026-05-01T14:49:20Z</time></trkpt><trkpt lat="39.522758703343825" lon="9.281848296363817"><ele>624.0</ele><time>2026-05-01T14:49:21Z</time></trkpt><trkpt lat="39.522718942937566" lon="9.28206030232657"><ele>624.0</ele><time>2026-05-01T14:49:22Z</time></trkpt><trkpt lat="39.52265161231836" lon="9.282245397527566"><ele>624.0</ele><time>2026-05-01T14:49:23Z</time></trkpt><trkpt lat="39.522583800785014" lon="9.282413153631436"><ele>624.0</ele><time>2026-05-01T14:49:24Z</time></trkpt><trkpt lat="39.52247438391997" lon="9.282526477551452"><ele>624.0</ele><time>2026-05-01T14:49:25Z</time></trkpt><trkpt lat="39.5223408281141" lon="9.28260634495686"><ele>619.6666666666666</ele><time>2026-05-01T14:49:26Z</time></trkpt><trkpt lat="39.522194438831" lon="9.282646156653156"><ele>615.3333333333333</ele><time>2026-05-01T14:49:27Z</time></trkpt><trkpt lat="39.52203871510649" lon="9.282587499124917"><ele>611.0</ele><time>2026-05-01T14:49:28Z</time></trkpt><trkpt lat="39.52187179078185" lon="9.282558276056314"><ele>610.0</ele><time>2026-05-01T14:49:29Z</time></trkpt><trkpt lat="39.521697005791346" lon="9.282524253424533"><ele>609.0</ele><time>2026-05-01T14:49:30Z</time></trkpt><trkpt lat="39.521518498041125" lon="9.282484757698525"><ele>608.0</ele><time>2026-05-01T14:49:31Z</time></trkpt><trkpt lat="39.521336340783456" lon="9.282438452360399"><ele>604.6666666666666</ele><time>2026-05-01T14:49:32Z</time></trkpt><trkpt lat="39.52114882496698" lon="9.282383381625232"><ele>601.3333333333334</ele><time>2026-05-01T14:49:33Z</time></trkpt><trkpt lat="39.520949881549086" lon="9.282352459787866"><ele>598.0</ele><time>2026-05-01T14:49:34Z</time></trkpt><trkpt lat="39.520755408097244" lon="9.282277990978535"><ele>598.0</ele><time>2026-05-01T14:49:35Z</time></trkpt><trkpt lat="39.52056057826996" lon="9.282204732631733"><ele>598.0</ele><time>2026-05-01T14:49:36Z</time></trkpt><trkpt lat="39.520365950968944" lon="9.28213002357316"><ele>598.0</ele><time>2026-05-01T14:49:37Z</time></trkpt><trkpt lat="39.52017692816846" lon="9.2820187108827"><ele>598.0</ele><time>2026-05-01T14:49:38Z</time></trkpt><trkpt lat="39.519979345956116" lon="9.281940366829193"><ele>598.0</ele><time>2026-05-01T14:49:39Z</time></trkpt><trkpt lat="39.519780393965945" lon="9.281861479639154"><ele>598.0</ele><time>2026-05-01T14:49:40Z</time></trkpt><trkpt lat="39.51958180202879" lon="9.281782706167784"><ele>596.3333333333334</ele><time>2026-05-01T14:49:41Z</time></trkpt><trkpt lat="39.51938749358766" lon="9.281705583248831"><ele>594.6666666666666</ele><time>2026-05-01T14:49:42Z</time></trkpt><trkpt lat="39.519189170144145" lon="9.281651328256036"><ele>593.0</ele><time>2026-05-01T14:49:43Z</time></trkpt><trkpt lat="39.519001025066636" lon="9.28157263501245"><ele>593.0</ele><time>2026-05-01T14:49:44Z</time></trkpt><trkpt lat="39.51881545012585" lon="9.28149573105041"><ele>593.0</ele><time>2026-05-01T14:49:45Z</time></trkpt><trkpt lat="39.518633592825175" lon="9.281420802329542"><ele>593.0</ele><time>2026-05-01T14:49:46Z</time></trkpt><trkpt lat="39.518458028211704" lon="9.281350371960535"><ele>594.3333333333333</ele><time>2026-05-01T14:49:47Z</time></trkpt><trkpt lat="39.518292434928135" lon="9.281289693893083"><ele>595.6666666666666</ele><time>2026-05-01T14:49:48Z</time></trkpt><trkpt lat="39.518142713438486" lon="9.281251551322836"><ele>597.0</ele><time>2026-05-01T14:49:49Z</time></trkpt><trkpt lat="39.518004575200834" lon="9.281250022908553"><ele>596.25</ele><time>2026-05-01T14:49:50Z</time></trkpt><trkpt lat="39.51788181033725" lon="9.28130340720487"><ele>595.5</ele><time>2026-05-01T14:49:51Z</time></trkpt><trkpt lat="39.51777178263526" lon="9.281421201257539"><ele>594.75</ele><time>2026-05-01T14:49:52Z</time></trkpt><trkpt lat="39.51767106133817" lon="9.281582936324568"><ele>594.0</ele><time>2026-05-01T14:49:53Z</time></trkpt><trkpt lat="39.517581162958" lon="9.281760614307148"><ele>590.0</ele><time>2026-05-01T14:49:54Z</time></trkpt><trkpt lat="39.51751879433617" lon="9.281960068942436"><ele>586.0</ele><time>2026-05-01T14:49:55Z</time></trkpt><trkpt lat="39.517498600004224" lon="9.282172303430347"><ele>582.0</ele><time>2026-05-01T14:49:56Z</time></trkpt><trkpt lat="39.5175137590325" lon="9.282378898825739"><ele>580.25</ele><time>2026-05-01T14:49:57Z</time></trkpt><trkpt lat="39.51753246356452" lon="9.282572667537552"><ele>578.5</ele><time>2026-05-01T14:49:58Z</time></trkpt><trkpt lat="39.517542836756355" lon="9.282758931014522"><ele>576.75</ele><time>2026-05-01T14:49:59Z</time></trkpt><trkpt lat="39.51753418023478" lon="9.282944825814097"><ele>575.0</ele><time>2026-05-01T14:50:00Z</time></trkpt><trkpt lat="39.517537571673124" lon="9.283137458253698"><ele>575.0</ele><time>2026-05-01T14:50:01Z</time></trkpt><trkpt lat="39.51755678142025" lon="9.283338202505066"><ele>575.0</ele><time>2026-05-01T14:50:02Z</time></trkpt><trkpt lat="39.51754956203245" lon="9.283549544531926"><ele>575.0</ele><time>2026-05-01T14:50:03Z</time></trkpt><trkpt lat="39.51755345014121" lon="9.283772829556657"><ele>577.3333333333333</ele><time>2026-05-01T14:50:04Z</time></trkpt><trkpt lat="39.517561023808746" lon="9.28400241270627"><ele>579.6666666666666</ele><time>2026-05-01T14:50:05Z</time></trkpt><trkpt lat="39.517567162695734" lon="9.284234104056655"><ele>582.0</ele><time>2026-05-01T14:50:06Z</time></trkpt><trkpt lat="39.51756664472461" lon="9.284473945647632"><ele>582.0</ele><time>2026-05-01T14:50:07Z</time></trkpt><trkpt lat="39.51756730981269" lon="9.284716921350787"><ele>582.0</ele><time>2026-05-01T14:50:08Z</time></trkpt><trkpt lat="39.51757404318755" lon="9.284954672574202"><ele>582.0</ele><time>2026-05-01T14:50:09Z</time></trkpt><trkpt lat="39.517592967237334" lon="9.285178902897803"><ele>584.3333333333334</ele><time>2026-05-01T14:50:10Z</time></trkpt><trkpt lat="39.51764358921515" lon="9.285379649293189"><ele>586.6666666666667</ele><time>2026-05-01T14:50:11Z</time></trkpt><trkpt lat="39.517742906719064" lon="9.285553163253761"><ele>589.0</ele><time>2026-05-01T14:50:12Z</time></trkpt><trkpt lat="39.517869070794475" lon="9.285714212026924"><ele>584.3333333333334</ele><time>2026-05-01T14:50:13Z</time></trkpt><trkpt lat="39.517997413466794" lon="9.28587937084669"><ele>579.6666666666666</ele><time>2026-05-01T14:50:14Z</time></trkpt><trkpt lat="39.51812144426955" lon="9.286054484772711"><ele>575.0</ele><time>2026-05-01T14:50:15Z</time></trkpt><trkpt lat="39.518245835049456" lon="9.286245714189858"><ele>582.6666666666666</ele><time>2026-05-01T14:50:16Z</time></trkpt><trkpt lat="39.51836984837101" lon="9.28643683257557"><ele>590.3333333333334</ele><time>2026-05-01T14:50:17Z</time></trkpt><trkpt lat="39.51849337632489" lon="9.286627126717436"><ele>598.0</ele><time>2026-05-01T14:50:18Z</time></trkpt><trkpt lat="39.51861859060771" lon="9.286816824490078"><ele>596.3333333333334</ele><time>2026-05-01T14:50:19Z</time></trkpt><trkpt lat="39.51874354693867" lon="9.286999773994491"><ele>594.6666666666666</ele><time>2026-05-01T14:50:20Z</time></trkpt><trkpt lat="39.51885751424397" lon="9.287171609201772"><ele>593.0</ele><time>2026-05-01T14:50:21Z</time></trkpt><trkpt lat="39.51894299048205" lon="9.287339531633505"><ele>593.0</ele><time>2026-05-01T14:50:22Z</time></trkpt><trkpt lat="39.5189668322617" lon="9.28752576308464"><ele>593.0</ele><time>2026-05-01T14:50:23Z</time></trkpt><trkpt lat="39.51896943872281" lon="9.287708490202712"><ele>593.0</ele><time>2026-05-01T14:50:24Z</time></trkpt><trkpt lat="39.51895131038988" lon="9.287901895718258"><ele>593.0</ele><time>2026-05-01T14:50:25Z</time></trkpt><trkpt lat="39.518947714028506" lon="9.288110538631738"><ele>592.6666666666666</ele><time>2026-05-01T14:50:26Z</time></trkpt><trkpt lat="39.51892323299989" lon="9.288308319710717"><ele>592.3333333333334</ele><time>2026-05-01T14:50:27Z</time></trkpt><trkpt lat="39.51890426261103" lon="9.288507684079045"><ele>592.0</ele><time>2026-05-01T14:50:28Z</time></trkpt><trkpt lat="39.51888843385194" lon="9.288709623033498"><ele>592.0</ele><time>2026-05-01T14:50:29Z</time></trkpt><trkpt lat="39.51887185320073" lon="9.288912059560662"><ele>592.0</ele><time>2026-05-01T14:50:30Z</time></trkpt><trkpt lat="39.51885191740777" lon="9.289107790958099"><ele>592.0</ele><time>2026-05-01T14:50:31Z</time></trkpt><trkpt lat="39.51881630866959" lon="9.289292854021424"><ele>594.25</ele><time>2026-05-01T14:50:32Z</time></trkpt><trkpt lat="39.5187278648479" lon="9.289438067572803"><ele>596.5</ele><time>2026-05-01T14:50:33Z</time></trkpt><trkpt lat="39.518624931125416" lon="9.289551405935484"><ele>598.75</ele><time>2026-05-01T14:50:34Z</time></trkpt><trkpt lat="39.5185092540935" lon="9.289630087321424"><ele>601.0</ele><time>2026-05-01T14:50:35Z</time></trkpt><trkpt lat="39.51838781170185" lon="9.289687320284981"><ele>598.8</ele><time>2026-05-01T14:50:36Z</time></trkpt><trkpt lat="39.518281217719654" lon="9.289758738021975"><ele>596.6</ele><time>2026-05-01T14:50:37Z</time></trkpt><trkpt lat="39.5181763004133" lon="9.289817328131706"><ele>594.4</ele><time>2026-05-01T14:50:38Z</time></trkpt><trkpt lat="39.51808909754156" lon="9.289897541911039"><ele>592.2</ele><time>2026-05-01T14:50:39Z</time></trkpt><trkpt lat="39.518026360986084" lon="9.290006461111298"><ele>590.0</ele><time>2026-05-01T14:50:40Z</time></trkpt><trkpt lat="39.51799829152061" lon="9.290145645638091"><ele>590.0</ele><time>2026-05-01T14:50:41Z</time></trkpt><trkpt lat="39.51800520034048" lon="9.290298257089685"><ele>590.0</ele><time>2026-05-01T14:50:42Z</time></trkpt><trkpt lat="39.51804073228297" lon="9.29044780367369"><ele>590.0</ele><time>2026-05-01T14:50:43Z</time></trkpt><trkpt lat="39.518096104787176" lon="9.290587093307392"><ele>590.0</ele><time>2026-05-01T14:50:44Z</time></trkpt><trkpt lat="39.51817034943101" lon="9.29071817750576"><ele>590.5</ele><time>2026-05-01T14:50:45Z</time></trkpt><trkpt lat="39.5182546008528" lon="9.290843518857598"><ele>591.0</ele><time>2026-05-01T14:50:46Z</time></trkpt><trkpt lat="39.518337007214924" lon="9.29097165912331"><ele>591.5</ele><time>2026-05-01T14:50:47Z</time></trkpt><trkpt lat="39.51841834675126" lon="9.291104416676701"><ele>592.0</ele><time>2026-05-01T14:50:48Z</time></trkpt><trkpt lat="39.51848008150805" lon="9.291235085227308"><ele>592.0</ele><time>2026-05-01T14:50:49Z</time></trkpt><trkpt lat="39.51853936670647" lon="9.291354095033736"><ele>592.0</ele><time>2026-05-01T14:50:50Z</time></trkpt><trkpt lat="39.518611337630304" lon="9.29146125809634"><ele>592.0</ele><time>2026-05-01T14:50:51Z</time></trkpt><trkpt lat="39.51868556250987" lon="9.291574691889792"><ele>592.0</ele><time>2026-05-01T14:50:52Z</time></trkpt><trkpt lat="39.518750169564726" lon="9.291699109617934"><ele>592.0</ele><time>2026-05-01T14:50:53Z</time></trkpt><trkpt lat="39.51882282673479" lon="9.291820470272674"><ele>590.5</ele><time>2026-05-01T14:50:54Z</time></trkpt><trkpt lat="39.518894674408635" lon="9.291948487156068"><ele>589.0</ele><time>2026-05-01T14:50:55Z</time></trkpt><trkpt lat="39.51896621194284" lon="9.29207825630957"><ele>587.5</ele><time>2026-05-01T14:50:56Z</time></trkpt><trkpt lat="39.51903731464789" lon="9.292208750011257"><ele>586.0</ele><time>2026-05-01T14:50:57Z</time></trkpt><trkpt lat="39.519093259511024" lon="9.292351397010707"><ele>585.75</ele><time>2026-05-01T14:50:58Z</time></trkpt><trkpt lat="39.51910456754273" lon="9.29251726096221"><ele>585.5</ele><time>2026-05-01T14:50:59Z</time></trkpt><trkpt lat="39.5191098659925" lon="9.292689401830193"><ele>585.25</ele><time>2026-05-01T14:51:00Z</time></trkpt><trkpt lat="39.51911745690035" lon="9.292863183087363"><ele>585.0</ele><time>2026-05-01T14:51:01Z</time></trkpt><trkpt lat="39.519140184668316" lon="9.293029338359574"><ele>583.5</ele><time>2026-05-01T14:51:02Z</time></trkpt><trkpt lat="39.51913936102219" lon="9.293185760350251"><ele>582.0</ele><time>2026-05-01T14:51:03Z</time></trkpt><trkpt lat="39.51914232528744" lon="9.293333628004126"><ele>580.5</ele><time>2026-05-01T14:51:04Z</time></trkpt><trkpt lat="39.51915708712406" lon="9.293483907466278"><ele>579.0</ele><time>2026-05-01T14:51:05Z</time></trkpt><trkpt lat="39.51915149285557" lon="9.29363687305945"><ele>579.0</ele><time>2026-05-01T14:51:06Z</time></trkpt><trkpt lat="39.51915872066093" lon="9.293800070817495"><ele>579.0</ele><time>2026-05-01T14:51:07Z</time></trkpt><trkpt lat="39.51916532041185" lon="9.29396548755387"><ele>579.0</ele><time>2026-05-01T14:51:08Z</time></trkpt><trkpt lat="39.519185153211865" lon="9.294131976977411"><ele>579.0</ele><time>2026-05-01T14:51:09Z</time></trkpt><trkpt lat="39.51919033162763" lon="9.294294819192453"><ele>578.75</ele><time>2026-05-01T14:51:10Z</time></trkpt><trkpt lat="39.519195848262946" lon="9.294455046954065"><ele>578.5</ele><time>2026-05-01T14:51:11Z</time></trkpt><trkpt lat="39.51919191204167" lon="9.294606575486156"><ele>578.25</ele><time>2026-05-01T14:51:12Z</time></trkpt><trkpt lat="39.519198411704515" lon="9.29475407946455"><ele>578.0</ele><time>2026-05-01T14:51:13Z</time></trkpt><trkpt lat="39.519206250258904" lon="9.294894008715378"><ele>578.0</ele><time>2026-05-01T14:51:14Z</time></trkpt><trkpt lat="39.519211904106086" lon="9.29502340373222"><ele>578.0</ele><time>2026-05-01T14:51:15Z</time></trkpt><trkpt lat="39.51921409887687" lon="9.295124154198177"><ele>578.0</ele><time>2026-05-01T14:51:16Z</time></trkpt><trkpt lat="39.519211744577085" lon="9.295225853688754"><ele>578.0</ele><time>2026-05-01T14:51:18Z</time></trkpt><trkpt lat="39.51922224871764" lon="9.295326415450342"><ele>578.0</ele><time>2026-05-01T14:51:21Z</time></trkpt><trkpt lat="39.519270095733205" lon="9.295401800909827"><ele>578.0</ele><time>2026-05-01T14:51:22Z</time></trkpt><trkpt lat="39.51935143265723" lon="9.295482938368112"><ele>578.0</ele><time>2026-05-01T14:51:23Z</time></trkpt><trkpt lat="39.51943674236622" lon="9.29556681222989"><ele>578.0</ele><time>2026-05-01T14:51:24Z</time></trkpt><trkpt lat="39.51953425931074" lon="9.295660143960653"><ele>578.0</ele><time>2026-05-01T14:51:25Z</time></trkpt><trkpt lat="39.51963456667963" lon="9.295756115897948"><ele>578.0</ele><time>2026-05-01T14:51:26Z</time></trkpt><trkpt lat="39.51973950848376" lon="9.29585922729188"><ele>576.5</ele><time>2026-05-01T14:51:27Z</time></trkpt><trkpt lat="39.51984972456009" lon="9.295963425140478"><ele>575.0</ele><time>2026-05-01T14:51:28Z</time></trkpt><trkpt lat="39.51996572297172" lon="9.29606779781374"><ele>573.5</ele><time>2026-05-01T14:51:29Z</time></trkpt><trkpt lat="39.52007696691198" lon="9.296163737243816"><ele>572.0</ele><time>2026-05-01T14:51:30Z</time></trkpt><trkpt lat="39.520188583555594" lon="9.296238594315552"><ele>572.0</ele><time>2026-05-01T14:51:31Z</time></trkpt><trkpt lat="39.52030817890239" lon="9.296287622619984"><ele>572.0</ele><time>2026-05-01T14:51:32Z</time></trkpt><trkpt lat="39.520425573063214" lon="9.296333865335521"><ele>572.0</ele><time>2026-05-01T14:51:33Z</time></trkpt><trkpt lat="39.52054329666662" lon="9.296390539446"><ele>572.0</ele><time>2026-05-01T14:51:34Z</time></trkpt><trkpt lat="39.52066323388469" lon="9.296439628922291"><ele>570.0</ele><time>2026-05-01T14:51:35Z</time></trkpt><trkpt lat="39.52078973661053" lon="9.296483424339497"><ele>568.0</ele><time>2026-05-01T14:51:36Z</time></trkpt><trkpt lat="39.520919493888115" lon="9.296527032093893"><ele>566.0</ele><time>2026-05-01T14:51:37Z</time></trkpt><trkpt lat="39.521050095595335" lon="9.296602940016637"><ele>564.0</ele><time>2026-05-01T14:51:38Z</time></trkpt><trkpt lat="39.52117896812207" lon="9.29668413584641"><ele>561.5</ele><time>2026-05-01T14:51:39Z</time></trkpt><trkpt lat="39.521298451535415" lon="9.296783082909519"><ele>559.0</ele><time>2026-05-01T14:51:40Z</time></trkpt><trkpt lat="39.52141286106383" lon="9.2968867574012"><ele>556.5</ele><time>2026-05-01T14:51:41Z</time></trkpt><trkpt lat="39.52152426462072" lon="9.29699143808551"><ele>554.0</ele><time>2026-05-01T14:51:42Z</time></trkpt><trkpt lat="39.521634677381435" lon="9.297093356536669"><ele>554.0</ele><time>2026-05-01T14:51:43Z</time></trkpt><trkpt lat="39.521743686573245" lon="9.297197248446505"><ele>554.0</ele><time>2026-05-01T14:51:44Z</time></trkpt><trkpt lat="39.521851128413616" lon="9.29729681314154"><ele>554.0</ele><time>2026-05-01T14:51:45Z</time></trkpt><trkpt lat="39.52195349849394" lon="9.297400434373941"><ele>554.0</ele><time>2026-05-01T14:51:46Z</time></trkpt><trkpt lat="39.522054261610045" lon="9.297510998373177"><ele>553.75</ele><time>2026-05-01T14:51:47Z</time></trkpt><trkpt lat="39.522149637593564" lon="9.297631657227448"><ele>553.5</ele><time>2026-05-01T14:51:48Z</time></trkpt><trkpt lat="39.522225940781404" lon="9.297767219285317"><ele>553.25</ele><time>2026-05-01T14:51:49Z</time></trkpt><trkpt lat="39.522318491264784" lon="9.297895344055144"><ele>553.0</ele><time>2026-05-01T14:51:50Z</time></trkpt><trkpt lat="39.52243262286739" lon="9.298003661341857"><ele>552.25</ele><time>2026-05-01T14:51:51Z</time></trkpt><trkpt lat="39.52254616783828" lon="9.298096134513441"><ele>551.5</ele><time>2026-05-01T14:51:52Z</time></trkpt><trkpt lat="39.52265103100873" lon="9.298191552801617"><ele>550.75</ele><time>2026-05-01T14:51:53Z</time></trkpt><trkpt lat="39.522738620701425" lon="9.29830173763121"><ele>550.0</ele><time>2026-05-01T14:51:54Z</time></trkpt><trkpt lat="39.52280736204593" lon="9.298431657994879"><ele>550.0</ele><time>2026-05-01T14:51:55Z</time></trkpt><trkpt lat="39.52282573623597" lon="9.298591756259585"><ele>550.0</ele><time>2026-05-01T14:51:56Z</time></trkpt><trkpt lat="39.52280418376131" lon="9.29873517925728"><ele>550.0</ele><time>2026-05-01T14:51:57Z</time></trkpt><trkpt lat="39.522772345342226" lon="9.298878313063476"><ele>550.0</ele><time>2026-05-01T14:51:58Z</time></trkpt><trkpt lat="39.52274413270547" lon="9.299040016438838"><ele>549.5</ele><time>2026-05-01T14:51:59Z</time></trkpt><trkpt lat="39.52271850729858" lon="9.299203372638889"><ele>549.0</ele><time>2026-05-01T14:52:00Z</time></trkpt><trkpt lat="39.52269395256293" lon="9.299350604082491"><ele>548.5</ele><time>2026-05-01T14:52:01Z</time></trkpt><trkpt lat="39.522663284283865" lon="9.299506620962392"><ele>548.0</ele><time>2026-05-01T14:52:02Z</time></trkpt><trkpt lat="39.522597389181726" lon="9.29965292879125"><ele>547.5</ele><time>2026-05-01T14:52:03Z</time></trkpt><trkpt lat="39.52252922370434" lon="9.299788177905654"><ele>547.0</ele><time>2026-05-01T14:52:04Z</time></trkpt><trkpt lat="39.522451245152496" lon="9.299903898922237"><ele>546.5</ele><time>2026-05-01T14:52:05Z</time></trkpt><trkpt lat="39.522352970186624" lon="9.299987994603423"><ele>546.0</ele><time>2026-05-01T14:52:06Z</time></trkpt><trkpt lat="39.52224818977207" lon="9.300090828896131"><ele>546.0</ele><time>2026-05-01T14:52:07Z</time></trkpt><trkpt lat="39.52215289116502" lon="9.300224755760281"><ele>546.0</ele><time>2026-05-01T14:52:08Z</time></trkpt><trkpt lat="39.52205183924299" lon="9.300356296713673"><ele>546.0</ele><time>2026-05-01T14:52:09Z</time></trkpt><trkpt lat="39.52195176569018" lon="9.3004972970647"><ele>546.0</ele><time>2026-05-01T14:52:10Z</time></trkpt><trkpt lat="39.52184799515919" lon="9.300639398683586"><ele>543.5</ele><time>2026-05-01T14:52:11Z</time></trkpt><trkpt lat="39.52174239206581" lon="9.300779677265803"><ele>541.0</ele><time>2026-05-01T14:52:12Z</time></trkpt><trkpt lat="39.52163871014466" lon="9.300919752710406"><ele>538.5</ele><time>2026-05-01T14:52:13Z</time></trkpt><trkpt lat="39.52154231295926" lon="9.301057899610173"><ele>536.0</ele><time>2026-05-01T14:52:14Z</time></trkpt><trkpt lat="39.52145774532926" lon="9.301199478662886"><ele>536.0</ele><time>2026-05-01T14:52:15Z</time></trkpt><trkpt lat="39.52139878159936" lon="9.301363517744937"><ele>536.0</ele><time>2026-05-01T14:52:16Z</time></trkpt><trkpt lat="39.521381124472065" lon="9.30155825685607"><ele>536.0</ele><time>2026-05-01T14:52:17Z</time></trkpt><trkpt lat="39.521375876672224" lon="9.301755815953758"><ele>536.0</ele><time>2026-05-01T14:52:18Z</time></trkpt><trkpt lat="39.52137312473616" lon="9.301963574011516"><ele>536.5</ele><time>2026-05-01T14:52:19Z</time></trkpt><trkpt lat="39.52143005289083" lon="9.302136341408866"><ele>537.0</ele><time>2026-05-01T14:52:20Z</time></trkpt><trkpt lat="39.52153017614026" lon="9.302221768379656"><ele>537.5</ele><time>2026-05-01T14:52:21Z</time></trkpt><trkpt lat="39.521647294109755" lon="9.302301229623517"><ele>538.0</ele><time>2026-05-01T14:52:22Z</time></trkpt><trkpt lat="39.52177082365201" lon="9.302384799817972"><ele>535.25</ele><time>2026-05-01T14:52:23Z</time></trkpt><trkpt lat="39.52190049203646" lon="9.302456538225488"><ele>532.5</ele><time>2026-05-01T14:52:24Z</time></trkpt><trkpt lat="39.52202824991154" lon="9.302541651418224"><ele>529.75</ele><time>2026-05-01T14:52:25Z</time></trkpt><trkpt lat="39.522156660739775" lon="9.302636483554537"><ele>527.0</ele><time>2026-05-01T14:52:26Z</time></trkpt><trkpt lat="39.52228025478753" lon="9.302740156362514"><ele>527.0</ele><time>2026-05-01T14:52:27Z</time></trkpt><trkpt lat="39.522394154271666" lon="9.302847009652092"><ele>527.0</ele><time>2026-05-01T14:52:28Z</time></trkpt><trkpt lat="39.52249255242592" lon="9.3029370117164"><ele>527.0</ele><time>2026-05-01T14:52:29Z</time></trkpt><trkpt lat="39.522587517241995" lon="9.30300466516862"><ele>527.0</ele><time>2026-05-01T14:52:30Z</time></trkpt><trkpt lat="39.5226860885824" lon="9.303044204800484"><ele>527.0</ele><time>2026-05-01T14:52:31Z</time></trkpt><trkpt lat="39.5227970628566" lon="9.303036636864462"><ele>527.0</ele><time>2026-05-01T14:52:32Z</time></trkpt><trkpt lat="39.52291365972016" lon="9.302985029318092"><ele>527.0</ele><time>2026-05-01T14:52:33Z</time></trkpt><trkpt lat="39.52303299822551" lon="9.302909714989346"><ele>527.0</ele><time>2026-05-01T14:52:34Z</time></trkpt><trkpt lat="39.52315266067974" lon="9.302843705204195"><ele>525.0</ele><time>2026-05-01T14:52:35Z</time></trkpt><trkpt lat="39.5232708146661" lon="9.302801360325583"><ele>523.0</ele><time>2026-05-01T14:52:36Z</time></trkpt><trkpt lat="39.52338707521671" lon="9.30279989287076"><ele>521.0</ele><time>2026-05-01T14:52:37Z</time></trkpt><trkpt lat="39.52350630096521" lon="9.302827249281455"><ele>519.0</ele><time>2026-05-01T14:52:38Z</time></trkpt><trkpt lat="39.5236221955486" lon="9.302879504115817"><ele>516.5</ele><time>2026-05-01T14:52:39Z</time></trkpt><trkpt lat="39.52373302433502" lon="9.302946699507899"><ele>514.0</ele><time>2026-05-01T14:52:40Z</time></trkpt><trkpt lat="39.523843439257476" lon="9.303013773772525"><ele>511.5</ele><time>2026-05-01T14:52:41Z</time></trkpt><trkpt lat="39.523952848101" lon="9.303080112509411"><ele>509.0</ele><time>2026-05-01T14:52:42Z</time></trkpt><trkpt lat="39.5240597554468" lon="9.30315469181583"><ele>507.25</ele><time>2026-05-01T14:52:43Z</time></trkpt><trkpt lat="39.5241601362694" lon="9.3032450576526"><ele>505.5</ele><time>2026-05-01T14:52:44Z</time></trkpt><trkpt lat="39.52425126924472" lon="9.30334895474567"><ele>503.75</ele><time>2026-05-01T14:52:45Z</time></trkpt><trkpt lat="39.524336513091015" lon="9.303459420761556"><ele>502.0</ele><time>2026-05-01T14:52:46Z</time></trkpt><trkpt lat="39.524412239596785" lon="9.303576900133722"><ele>502.0</ele><time>2026-05-01T14:52:47Z</time></trkpt><trkpt lat="39.52447748465245" lon="9.30370347847899"><ele>502.0</ele><time>2026-05-01T14:52:48Z</time></trkpt><trkpt lat="39.524532664991064" lon="9.303837494469107"><ele>502.0</ele><time>2026-05-01T14:52:49Z</time></trkpt><trkpt lat="39.52458572402618" lon="9.303972170111814"><ele>502.0</ele><time>2026-05-01T14:52:50Z</time></trkpt><trkpt lat="39.52463599444576" lon="9.304109758922383"><ele>500.25</ele><time>2026-05-01T14:52:51Z</time></trkpt><trkpt lat="39.52467737780036" lon="9.304252229377491"><ele>498.5</ele><time>2026-05-01T14:52:52Z</time></trkpt><trkpt lat="39.524718666785404" lon="9.30439576561646"><ele>496.75</ele><time>2026-05-01T14:52:53Z</time></trkpt><trkpt lat="39.5247695203009" lon="9.304535101701529"><ele>495.0</ele><time>2026-05-01T14:52:54Z</time></trkpt><trkpt lat="39.52483483305828" lon="9.304665868964008"><ele>492.75</ele><time>2026-05-01T14:52:55Z</time></trkpt><trkpt lat="39.52491706933364" lon="9.304781470423526"><ele>490.5</ele><time>2026-05-01T14:52:56Z</time></trkpt><trkpt lat="39.5250056847215" lon="9.304891208631497"><ele>488.25</ele><time>2026-05-01T14:52:57Z</time></trkpt><trkpt lat="39.52509800191378" lon="9.30499856347901"><ele>486.0</ele><time>2026-05-01T14:52:58Z</time></trkpt><trkpt lat="39.525186048902285" lon="9.305107848376371"><ele>486.0</ele><time>2026-05-01T14:52:59Z</time></trkpt><trkpt lat="39.52526693701164" lon="9.305224531158139"><ele>486.0</ele><time>2026-05-01T14:53:00Z</time></trkpt><trkpt lat="39.525343398193655" lon="9.30534423576145"><ele>486.0</ele><time>2026-05-01T14:53:01Z</time></trkpt><trkpt lat="39.525415397823245" lon="9.305460736515911"><ele>486.0</ele><time>2026-05-01T14:53:02Z</time></trkpt><trkpt lat="39.52548480386226" lon="9.305574700097322"><ele>486.5</ele><time>2026-05-01T14:53:03Z</time></trkpt><trkpt lat="39.525547072121604" lon="9.305683901228553"><ele>487.0</ele><time>2026-05-01T14:53:04Z</time></trkpt><trkpt lat="39.52558634643133" lon="9.305792139108497"><ele>487.5</ele><time>2026-05-01T14:53:05Z</time></trkpt><trkpt lat="39.52562241940542" lon="9.30587380591222"><ele>488.0</ele><time>2026-05-01T14:53:06Z</time></trkpt><trkpt lat="39.52566307491207" lon="9.305947494691557"><ele>488.5</ele><time>2026-05-01T14:53:07Z</time></trkpt><trkpt lat="39.52568327318099" lon="9.30603918104553"><ele>489.0</ele><time>2026-05-01T14:53:08Z</time></trkpt><trkpt lat="39.52569319846724" lon="9.306137294986696"><ele>489.0</ele><time>2026-05-01T14:53:09Z</time></trkpt><trkpt lat="39.52568128096065" lon="9.30623613993301"><ele>489.0</ele><time>2026-05-01T14:53:10Z</time></trkpt><trkpt lat="39.52565365884523" lon="9.30634846699815"><ele>489.0</ele><time>2026-05-01T14:53:11Z</time></trkpt><trkpt lat="39.525612777068375" lon="9.306465024740447"><ele>489.0</ele><time>2026-05-01T14:53:12Z</time></trkpt><trkpt lat="39.52557069013204" lon="9.306589968922143"><ele>489.0</ele><time>2026-05-01T14:53:13Z</time></trkpt><trkpt lat="39.525536048681765" lon="9.30672001023662"><ele>488.14285714285717</ele><time>2026-05-01T14:53:14Z</time></trkpt><trkpt lat="39.52551988512902" lon="9.306826906732535"><ele>487.28571428571433</ele><time>2026-05-01T14:53:15Z</time></trkpt><trkpt lat="39.52551783446513" lon="9.306915793549049"><ele>486.42857142857144</ele><time>2026-05-01T14:53:16Z</time></trkpt><trkpt lat="39.52552834397866" lon="9.306997250378343"><ele>485.57142857142856</ele><time>2026-05-01T14:53:17Z</time></trkpt><trkpt lat="39.52555133746092" lon="9.307080815228685"><ele>484.7142857142857</ele><time>2026-05-01T14:53:18Z</time></trkpt><trkpt lat="39.525584536320785" lon="9.307170021977637"><ele>483.8571428571429</ele><time>2026-05-01T14:53:19Z</time></trkpt><trkpt lat="39.525618230648206" lon="9.307268328400108"><ele>483.0</ele><time>2026-05-01T14:53:20Z</time></trkpt><trkpt lat="39.525648280384324" lon="9.307358832509815"><ele>481.0</ele><time>2026-05-01T14:53:21Z</time></trkpt><trkpt lat="39.52568476238121" lon="9.307454712165702"><ele>478.99999999999994</ele><time>2026-05-01T14:53:22Z</time></trkpt><trkpt lat="39.525724270351965" lon="9.30755439981357"><ele>476.99999999999994</ele><time>2026-05-01T14:53:23Z</time></trkpt><trkpt lat="39.52577289857606" lon="9.307659415755268"><ele>475.0</ele><time>2026-05-01T14:53:24Z</time></trkpt><trkpt lat="39.52582506383404" lon="9.307770280324707"><ele>473.0</ele><time>2026-05-01T14:53:25Z</time></trkpt><trkpt lat="39.525878047105046" lon="9.307878775067586"><ele>472.99999999999994</ele><time>2026-05-01T14:53:26Z</time></trkpt><trkpt lat="39.525935841218974" lon="9.307985416558076"><ele>473.0</ele><time>2026-05-01T14:53:27Z</time></trkpt><trkpt lat="39.525995155192064" lon="9.308092116732748"><ele>473.0</ele><time>2026-05-01T14:53:28Z</time></trkpt><trkpt lat="39.526053118323844" lon="9.308184547628363"><ele>473.0</ele><time>2026-05-01T14:53:29Z</time></trkpt><trkpt lat="39.52609992719436" lon="9.308265256871989"><ele>472.99999999999994</ele><time>2026-05-01T14:53:30Z</time></trkpt><trkpt lat="39.52612258524127" lon="9.308358013598882"><ele>473.0</ele><time>2026-05-01T14:53:31Z</time></trkpt><trkpt lat="39.52620927822192" lon="9.308521634871425"><ele>472.0</ele><time>2026-05-01T14:53:33Z</time></trkpt><trkpt lat="39.5262482464938" lon="9.3086405485768"><ele>471.0</ele><time>2026-05-01T14:53:34Z</time></trkpt><trkpt lat="39.526267604820845" lon="9.308775062725365"><ele>470.0</ele><time>2026-05-01T14:53:35Z</time></trkpt><trkpt lat="39.52629352857485" lon="9.308944695330101"><ele>469.0</ele><time>2026-05-01T14:53:36Z</time></trkpt><trkpt lat="39.52630727074575" lon="9.30913363266141"><ele>460.6666666666667</ele><time>2026-05-01T14:53:37Z</time></trkpt><trkpt lat="39.526320262905166" lon="9.309335510113995"><ele>452.33333333333337</ele><time>2026-05-01T14:53:38Z</time></trkpt><trkpt lat="39.52633277817733" lon="9.309536627123913"><ele>444.0</ele><time>2026-05-01T14:53:39Z</time></trkpt><trkpt lat="39.526349469592645" lon="9.309733138098577"><ele>442.0</ele><time>2026-05-01T14:53:40Z</time></trkpt><trkpt lat="39.52637293375115" lon="9.309927053525943"><ele>440.0</ele><time>2026-05-01T14:53:41Z</time></trkpt><trkpt lat="39.526412409376086" lon="9.310110165957001"><ele>438.0</ele><time>2026-05-01T14:53:42Z</time></trkpt><trkpt lat="39.526470015678676" lon="9.31027693052627"><ele>436.0</ele><time>2026-05-01T14:53:43Z</time></trkpt><trkpt lat="39.52651902867246" lon="9.3104252482426"><ele>436.0</ele><time>2026-05-01T14:53:44Z</time></trkpt><trkpt lat="39.526526578126195" lon="9.310561827892816"><ele>436.0</ele><time>2026-05-01T14:53:45Z</time></trkpt><trkpt lat="39.526462169934284" lon="9.310665831122058"><ele>436.0</ele><time>2026-05-01T14:53:46Z</time></trkpt><trkpt lat="39.52639979602452" lon="9.310774608939319"><ele>436.0</ele><time>2026-05-01T14:53:47Z</time></trkpt><trkpt lat="39.526321494838875" lon="9.310895323974808"><ele>436.0</ele><time>2026-05-01T14:53:48Z</time></trkpt><trkpt lat="39.52625038142411" lon="9.311014993187156"><ele>436.25</ele><time>2026-05-01T14:53:49Z</time></trkpt><trkpt lat="39.52621115899244" lon="9.311146892052982"><ele>436.5</ele><time>2026-05-01T14:53:50Z</time></trkpt><trkpt lat="39.52622388891923" lon="9.311303265898184"><ele>436.75</ele><time>2026-05-01T14:53:51Z</time></trkpt><trkpt lat="39.5262673011579" lon="9.311471215240045"><ele>437.0</ele><time>2026-05-01T14:53:52Z</time></trkpt><trkpt lat="39.52631516259757" lon="9.31166772518109"><ele>434.3333333333333</ele><time>2026-05-01T14:53:53Z</time></trkpt><trkpt lat="39.52635258727838" lon="9.311863138719247"><ele>431.66666666666663</ele><time>2026-05-01T14:53:54Z</time></trkpt><trkpt lat="39.526374797797644" lon="9.312078817320094"><ele>429.0</ele><time>2026-05-01T14:53:55Z</time></trkpt><trkpt lat="39.526369867926185" lon="9.312311389069386"><ele>429.0</ele><time>2026-05-01T14:53:56Z</time></trkpt><trkpt lat="39.52634613364963" lon="9.312552618124714"><ele>429.0</ele><time>2026-05-01T14:53:57Z</time></trkpt><trkpt lat="39.52632931176337" lon="9.312784125907772"><ele>429.0</ele><time>2026-05-01T14:53:58Z</time></trkpt><trkpt lat="39.52633115481782" lon="9.313013375424363"><ele>431.0</ele><time>2026-05-01T14:53:59Z</time></trkpt><trkpt lat="39.526363225433684" lon="9.313247485387276"><ele>433.0</ele><time>2026-05-01T14:54:00Z</time></trkpt><trkpt lat="39.526415914841515" lon="9.313478375608467"><ele>435.0</ele><time>2026-05-01T14:54:01Z</time></trkpt><trkpt lat="39.52649616953407" lon="9.313701122633688"><ele>433.33333333333337</ele><time>2026-05-01T14:54:02Z</time></trkpt><trkpt lat="39.526584584894486" lon="9.313912652672522"><ele>431.6666666666667</ele><time>2026-05-01T14:54:03Z</time></trkpt><trkpt lat="39.52665239247194" lon="9.314138967708999"><ele>430.0</ele><time>2026-05-01T14:54:04Z</time></trkpt><trkpt lat="39.52670287906428" lon="9.314363117191897"><ele>430.0</ele><time>2026-05-01T14:54:05Z</time></trkpt><trkpt lat="39.52675266791166" lon="9.314551651919224"><ele>430.0</ele><time>2026-05-01T14:54:06Z</time></trkpt><trkpt lat="39.52681003834994" lon="9.31469228427374"><ele>430.0</ele><time>2026-05-01T14:54:07Z</time></trkpt><trkpt lat="39.5268891606525" lon="9.314805534932537"><ele>430.0</ele><time>2026-05-01T14:54:08Z</time></trkpt><trkpt lat="39.526991182484146" lon="9.314898366811526"><ele>430.75</ele><time>2026-05-01T14:54:09Z</time></trkpt><trkpt lat="39.52708106264604" lon="9.314995653911945"><ele>431.5</ele><time>2026-05-01T14:54:10Z</time></trkpt><trkpt lat="39.52714296788654" lon="9.315128178117936"><ele>432.25</ele><time>2026-05-01T14:54:11Z</time></trkpt><trkpt lat="39.52719538368432" lon="9.315297712200541"><ele>433.0</ele><time>2026-05-01T14:54:12Z</time></trkpt><trkpt lat="39.52724298964893" lon="9.315486622125913"><ele>431.25</ele><time>2026-05-01T14:54:13Z</time></trkpt><trkpt lat="39.5272899219408" lon="9.315676392982683"><ele>429.5</ele><time>2026-05-01T14:54:14Z</time></trkpt><trkpt lat="39.52732997564275" lon="9.315844129515638"><ele>427.75</ele><time>2026-05-01T14:54:15Z</time></trkpt><trkpt lat="39.52735566016133" lon="9.31599536219337"><ele>426.0</ele><time>2026-05-01T14:54:16Z</time></trkpt><trkpt lat="39.527348723904645" lon="9.316136683046489"><ele>426.0</ele><time>2026-05-01T14:54:17Z</time></trkpt><trkpt lat="39.52731235117455" lon="9.316297313334614"><ele>426.0</ele><time>2026-05-01T14:54:18Z</time></trkpt><trkpt lat="39.52724177714219" lon="9.316434249299702"><ele>426.0</ele><time>2026-05-01T14:54:19Z</time></trkpt><trkpt lat="39.52718732014294" lon="9.31659796032762"><ele>426.0</ele><time>2026-05-01T14:54:20Z</time></trkpt><trkpt lat="39.52710899064618" lon="9.31675570877066"><ele>424.0</ele><time>2026-05-01T14:54:21Z</time></trkpt><trkpt lat="39.527037110502555" lon="9.316913365832832"><ele>422.0</ele><time>2026-05-01T14:54:22Z</time></trkpt><trkpt lat="39.52698441511923" lon="9.317064031788643"><ele>420.0</ele><time>2026-05-01T14:54:23Z</time></trkpt><trkpt lat="39.5269708858204" lon="9.317223557199096"><ele>418.0</ele><time>2026-05-01T14:54:24Z</time></trkpt><trkpt lat="39.52699893604207" lon="9.317376416965477"><ele>418.0</ele><time>2026-05-01T14:54:25Z</time></trkpt><trkpt lat="39.52706002692307" lon="9.31751310550672"><ele>418.0</ele><time>2026-05-01T14:54:26Z</time></trkpt><trkpt lat="39.52715551380336" lon="9.317646921448503"><ele>418.0</ele><time>2026-05-01T14:54:27Z</time></trkpt><trkpt lat="39.52720665362918" lon="9.317801162621686"><ele>418.0</ele><time>2026-05-01T14:54:28Z</time></trkpt><trkpt lat="39.527232231162685" lon="9.317989027232734"><ele>416.6666666666667</ele><time>2026-05-01T14:54:29Z</time></trkpt><trkpt lat="39.52725439485819" lon="9.318185001907807"><ele>415.33333333333337</ele><time>2026-05-01T14:54:30Z</time></trkpt><trkpt lat="39.527280620966835" lon="9.318376258952341"><ele>414.0</ele><time>2026-05-01T14:54:31Z</time></trkpt><trkpt lat="39.52732587219502" lon="9.318561120399972"><ele>414.0</ele><time>2026-05-01T14:54:32Z</time></trkpt><trkpt lat="39.52739499647041" lon="9.318737873475582"><ele>414.0</ele><time>2026-05-01T14:54:33Z</time></trkpt><trkpt lat="39.52747705960381" lon="9.318907284451605"><ele>414.0</ele><time>2026-05-01T14:54:34Z</time></trkpt><trkpt lat="39.52756109907687" lon="9.319074709723905"><ele>412.33333333333337</ele><time>2026-05-01T14:54:35Z</time></trkpt><trkpt lat="39.52764579816109" lon="9.319242495601387"><ele>410.6666666666667</ele><time>2026-05-01T14:54:36Z</time></trkpt><trkpt lat="39.52775010157019" lon="9.319407297275855"><ele>409.0</ele><time>2026-05-01T14:54:37Z</time></trkpt><trkpt lat="39.527875286550085" lon="9.31956037554994"><ele>407.25</ele><time>2026-05-01T14:54:38Z</time></trkpt><trkpt lat="39.527997345684966" lon="9.319703133307922"><ele>405.5</ele><time>2026-05-01T14:54:39Z</time></trkpt><trkpt lat="39.52810230076186" lon="9.319843217293537"><ele>403.75</ele><time>2026-05-01T14:54:40Z</time></trkpt><trkpt lat="39.528170617733544" lon="9.319971332772914"><ele>402.0</ele><time>2026-05-01T14:54:41Z</time></trkpt><trkpt lat="39.528214572828944" lon="9.320082174891933"><ele>401.6</ele><time>2026-05-01T14:54:42Z</time></trkpt><trkpt lat="39.52827263812031" lon="9.320163660318235"><ele>401.20000000000005</ele><time>2026-05-01T14:54:43Z</time></trkpt><trkpt lat="39.528364289162376" lon="9.320212697599224"><ele>400.8</ele><time>2026-05-01T14:54:44Z</time></trkpt><trkpt lat="39.528484660366296" lon="9.320223650297853"><ele>400.4</ele><time>2026-05-01T14:54:45Z</time></trkpt><trkpt lat="39.528618185222655" lon="9.320223224769151"><ele>400.0</ele><time>2026-05-01T14:54:46Z</time></trkpt><trkpt lat="39.528757935373655" lon="9.320216056348537"><ele>399.0</ele><time>2026-05-01T14:54:47Z</time></trkpt><trkpt lat="39.52890484096192" lon="9.320199323838217"><ele>398.0</ele><time>2026-05-01T14:54:48Z</time></trkpt><trkpt lat="39.52905852334272" lon="9.32017069912363"><ele>397.0</ele><time>2026-05-01T14:54:49Z</time></trkpt><trkpt lat="39.52922030215009" lon="9.32012812747019"><ele>397.0</ele><time>2026-05-01T14:54:50Z</time></trkpt><trkpt lat="39.52938086228911" lon="9.32007731441813"><ele>397.0</ele><time>2026-05-01T14:54:51Z</time></trkpt><trkpt lat="39.52953593094135" lon="9.320029164641992"><ele>397.0</ele><time>2026-05-01T14:54:52Z</time></trkpt><trkpt lat="39.52968266556591" lon="9.31996520475086"><ele>394.5</ele><time>2026-05-01T14:54:53Z</time></trkpt><trkpt lat="39.529824735568525" lon="9.319915741451105"><ele>392.0</ele><time>2026-05-01T14:54:54Z</time></trkpt><trkpt lat="39.5299573555788" lon="9.319880852410487"><ele>389.5</ele><time>2026-05-01T14:54:55Z</time></trkpt><trkpt lat="39.53008749495159" lon="9.319868735570083"><ele>387.0</ele><time>2026-05-01T14:54:56Z</time></trkpt><trkpt lat="39.5302142153999" lon="9.319884036064588"><ele>387.0</ele><time>2026-05-01T14:54:57Z</time></trkpt><trkpt lat="39.530345843827355" lon="9.319932162824333"><ele>387.0</ele><time>2026-05-01T14:54:58Z</time></trkpt><trkpt lat="39.53047996123159" lon="9.319993181840974"><ele>387.0</ele><time>2026-05-01T14:54:59Z</time></trkpt><trkpt lat="39.530591647302586" lon="9.320047921474442"><ele>387.0</ele><time>2026-05-01T14:55:00Z</time></trkpt><trkpt lat="39.530663575561206" lon="9.32013058526022"><ele>383.20000000000005</ele><time>2026-05-01T14:55:01Z</time></trkpt><trkpt lat="39.53070069479301" lon="9.320250917049204"><ele>379.4</ele><time>2026-05-01T14:55:02Z</time></trkpt><trkpt lat="39.530685266937326" lon="9.320383434682407"><ele>375.6</ele><time>2026-05-01T14:55:03Z</time></trkpt><trkpt lat="39.53060187235804" lon="9.32049988248918"><ele>371.79999999999995</ele><time>2026-05-01T14:55:04Z</time></trkpt><trkpt lat="39.53057251947596" lon="9.320626342283763"><ele>368.0</ele><time>2026-05-01T14:55:05Z</time></trkpt><trkpt lat="39.53056038740212" lon="9.320752281473531"><ele>367.5</ele><time>2026-05-01T14:55:06Z</time></trkpt><trkpt lat="39.53058610109356" lon="9.320907511118095"><ele>367.0</ele><time>2026-05-01T14:55:07Z</time></trkpt><trkpt lat="39.53061549365585" lon="9.321039471921955"><ele>366.5</ele><time>2026-05-01T14:55:08Z</time></trkpt><trkpt lat="39.53067993953596" lon="9.321170814161356"><ele>366.0</ele><time>2026-05-01T14:55:09Z</time></trkpt><trkpt lat="39.530754081788224" lon="9.32128805840614"><ele>366.0</ele><time>2026-05-01T14:55:10Z</time></trkpt><trkpt lat="39.53082821234028" lon="9.321381909207055"><ele>366.0</ele><time>2026-05-01T14:55:11Z</time></trkpt><trkpt lat="39.53087615356529" lon="9.321487199209653"><ele>366.0</ele><time>2026-05-01T14:55:12Z</time></trkpt><trkpt lat="39.5309463186391" lon="9.321569745960252"><ele>366.0</ele><time>2026-05-01T14:55:13Z</time></trkpt><trkpt lat="39.5310113798611" lon="9.321653413546994"><ele>366.0</ele><time>2026-05-01T14:55:14Z</time></trkpt><trkpt lat="39.531095633976676" lon="9.3217219814812"><ele>368.25</ele><time>2026-05-01T14:55:15Z</time></trkpt><trkpt lat="39.53119332997205" lon="9.321781269045921"><ele>370.5</ele><time>2026-05-01T14:55:16Z</time></trkpt><trkpt lat="39.53130466810866" lon="9.321833938782426"><ele>372.75</ele><time>2026-05-01T14:55:17Z</time></trkpt><trkpt lat="39.53142338629606" lon="9.321877904299914"><ele>375.0</ele><time>2026-05-01T14:55:18Z</time></trkpt><trkpt lat="39.53154473157762" lon="9.321928152289289"><ele>375.5</ele><time>2026-05-01T14:55:19Z</time></trkpt><trkpt lat="39.5316657202626" lon="9.321988891612733"><ele>376.0</ele><time>2026-05-01T14:55:20Z</time></trkpt><trkpt lat="39.53178488581294" lon="9.322049259123522"><ele>376.5</ele><time>2026-05-01T14:55:21Z</time></trkpt><trkpt lat="39.53187529397873" lon="9.322152214136736"><ele>377.0</ele><time>2026-05-01T14:55:22Z</time></trkpt><trkpt lat="39.531951860698946" lon="9.322279449073562"><ele>377.0</ele><time>2026-05-01T14:55:23Z</time></trkpt><trkpt lat="39.53204445599652" lon="9.322417759623717"><ele>377.0</ele><time>2026-05-01T14:55:24Z</time></trkpt><trkpt lat="39.53211293457609" lon="9.322577909533894"><ele>377.0</ele><time>2026-05-01T14:55:25Z</time></trkpt><trkpt lat="39.53219862952733" lon="9.322718028881095"><ele>377.0</ele><time>2026-05-01T14:55:26Z</time></trkpt><trkpt lat="39.53230573335037" lon="9.32281993069176"><ele>373.25</ele><time>2026-05-01T14:55:27Z</time></trkpt><trkpt lat="39.53241227998172" lon="9.322889394798462"><ele>369.5</ele><time>2026-05-01T14:55:28Z</time></trkpt><trkpt lat="39.53252430434142" lon="9.322944794022842"><ele>365.75</ele><time>2026-05-01T14:55:29Z</time></trkpt><trkpt lat="39.532616992350974" lon="9.323021674181108"><ele>362.0</ele><time>2026-05-01T14:55:30Z</time></trkpt><trkpt lat="39.53268439724351" lon="9.323128234044136"><ele>362.0</ele><time>2026-05-01T14:55:31Z</time></trkpt><trkpt lat="39.532742543523234" lon="9.323265989451414"><ele>362.0</ele><time>2026-05-01T14:55:32Z</time></trkpt><trkpt lat="39.53278848754639" lon="9.323405242903757"><ele>362.0</ele><time>2026-05-01T14:55:33Z</time></trkpt><trkpt lat="39.53283989843442" lon="9.32354877863638"><ele>362.0</ele><time>2026-05-01T14:55:34Z</time></trkpt><trkpt lat="39.53289328308114" lon="9.323695621034748"><ele>354.6</ele><time>2026-05-01T14:55:35Z</time></trkpt><trkpt lat="39.53292529793825" lon="9.323848913150439"><ele>347.20000000000005</ele><time>2026-05-01T14:55:36Z</time></trkpt><trkpt lat="39.53294525115929" lon="9.32400106493342"><ele>339.8</ele><time>2026-05-01T14:55:37Z</time></trkpt><trkpt lat="39.53295278087149" lon="9.324128561181116"><ele>332.4</ele><time>2026-05-01T14:55:38Z</time></trkpt><trkpt lat="39.53297042461102" lon="9.324231581782378"><ele>325.0</ele><time>2026-05-01T14:55:39Z</time></trkpt><trkpt lat="39.53300713087351" lon="9.324323509448405"><ele>325.0</ele><time>2026-05-01T14:55:40Z</time></trkpt><trkpt lat="39.53308627533035" lon="9.324399107410096"><ele>325.0</ele><time>2026-05-01T14:55:41Z</time></trkpt><trkpt lat="39.53318693168165" lon="9.324450147573163"><ele>325.0</ele><time>2026-05-01T14:55:42Z</time></trkpt><trkpt lat="39.53328557245239" lon="9.3244945930546"><ele>325.0</ele><time>2026-05-01T14:55:43Z</time></trkpt><trkpt lat="39.53337492016659" lon="9.32455284458623"><ele>325.0</ele><time>2026-05-01T14:55:44Z</time></trkpt><trkpt lat="39.533444964415075" lon="9.324642584012327"><ele>327.4</ele><time>2026-05-01T14:55:45Z</time></trkpt><trkpt lat="39.53348738285914" lon="9.324761646281045"><ele>329.8</ele><time>2026-05-01T14:55:46Z</time></trkpt><trkpt lat="39.53350914159993" lon="9.32489435207724"><ele>332.20000000000005</ele><time>2026-05-01T14:55:47Z</time></trkpt><trkpt lat="39.533526323411024" lon="9.3250343609053"><ele>334.6</ele><time>2026-05-01T14:55:48Z</time></trkpt><trkpt lat="39.53355807719331" lon="9.325180413688972"><ele>337.0</ele><time>2026-05-01T14:55:49Z</time></trkpt><trkpt lat="39.533601725657604" lon="9.325331213181888"><ele>337.0</ele><time>2026-05-01T14:55:50Z</time></trkpt><trkpt lat="39.53365309592282" lon="9.325484972947152"><ele>337.0</ele><time>2026-05-01T14:55:51Z</time></trkpt><trkpt lat="39.53370497014499" lon="9.32563560563348"><ele>337.0</ele><time>2026-05-01T14:55:52Z</time></trkpt><trkpt lat="39.53375190599735" lon="9.325770136214617"><ele>337.0</ele><time>2026-05-01T14:55:53Z</time></trkpt><trkpt lat="39.53378976414301" lon="9.325887489980973"><ele>337.0</ele><time>2026-05-01T14:55:54Z</time></trkpt><trkpt lat="39.53378218312108" lon="9.326002268039794"><ele>337.0</ele><time>2026-05-01T14:55:55Z</time></trkpt><trkpt lat="39.53377320816653" lon="9.32612018779838"><ele>337.0</ele><time>2026-05-01T14:55:56Z</time></trkpt><trkpt lat="39.533717764628314" lon="9.326235416854862"><ele>337.0</ele><time>2026-05-01T14:55:57Z</time></trkpt><trkpt lat="39.53363872578104" lon="9.326345472245963"><ele>337.0</ele><time>2026-05-01T14:55:58Z</time></trkpt><trkpt lat="39.53354525311722" lon="9.326455611087775"><ele>332.5</ele><time>2026-05-01T14:55:59Z</time></trkpt><trkpt lat="39.53346518988728" lon="9.32658088102384"><ele>328.0</ele><time>2026-05-01T14:56:00Z</time></trkpt><trkpt lat="39.53338209413742" lon="9.326693789469598"><ele>323.5</ele><time>2026-05-01T14:56:01Z</time></trkpt><trkpt lat="39.53329357443389" lon="9.32679743336508"><ele>319.0</ele><time>2026-05-01T14:56:02Z</time></trkpt><trkpt lat="39.53320613987882" lon="9.32689727205032"><ele>319.0</ele><time>2026-05-01T14:56:03Z</time></trkpt><trkpt lat="39.53312271350491" lon="9.326975626806963"><ele>319.0</ele><time>2026-05-01T14:56:04Z</time></trkpt><trkpt lat="39.53306092615172" lon="9.327058157283622"><ele>319.0</ele><time>2026-05-01T14:56:05Z</time></trkpt><trkpt lat="39.533029600275356" lon="9.3271861562148"><ele>319.0</ele><time>2026-05-01T14:56:06Z</time></trkpt><trkpt lat="39.533016137370794" lon="9.327308436624682"><ele>319.0</ele><time>2026-05-01T14:56:07Z</time></trkpt><trkpt lat="39.53304077485257" lon="9.32742657577793"><ele>322.4</ele><time>2026-05-01T14:56:08Z</time></trkpt><trkpt lat="39.53304849832814" lon="9.327557333120676"><ele>325.79999999999995</ele><time>2026-05-01T14:56:09Z</time></trkpt><trkpt lat="39.533036941436656" lon="9.32768494547672"><ele>329.20000000000005</ele><time>2026-05-01T14:56:10Z</time></trkpt><trkpt lat="39.53300030141124" lon="9.327804640959478"><ele>332.6</ele><time>2026-05-01T14:56:11Z</time></trkpt><trkpt lat="39.53294810058672" lon="9.327913262781157"><ele>336.0</ele><time>2026-05-01T14:56:12Z</time></trkpt><trkpt lat="39.5328791137335" lon="9.328006129220261"><ele>332.2</ele><time>2026-05-01T14:56:13Z</time></trkpt><trkpt lat="39.53279768976447" lon="9.328092210492452"><ele>328.40000000000003</ele><time>2026-05-01T14:56:14Z</time></trkpt><trkpt lat="39.532708644291695" lon="9.328186283575661"><ele>324.6</ele><time>2026-05-01T14:56:15Z</time></trkpt><trkpt lat="39.53263012881537" lon="9.328279207022177"><ele>320.8</ele><time>2026-05-01T14:56:16Z</time></trkpt><trkpt lat="39.53258476289" lon="9.328386760746533"><ele>317.0</ele><time>2026-05-01T14:56:17Z</time></trkpt><trkpt lat="39.53255463041561" lon="9.328505950599329"><ele>317.0</ele><time>2026-05-01T14:56:18Z</time></trkpt><trkpt lat="39.53254629123432" lon="9.328637486885514"><ele>317.0</ele><time>2026-05-01T14:56:19Z</time></trkpt><trkpt lat="39.53255003006586" lon="9.328774650314028"><ele>317.0</ele><time>2026-05-01T14:56:20Z</time></trkpt><trkpt lat="39.53256756701122" lon="9.328924194452409"><ele>317.0</ele><time>2026-05-01T14:56:21Z</time></trkpt><trkpt lat="39.532571185113824" lon="9.329080196467919"><ele>317.0</ele><time>2026-05-01T14:56:22Z</time></trkpt><trkpt lat="39.53258488160154" lon="9.329246233985844"><ele>314.5</ele><time>2026-05-01T14:56:23Z</time></trkpt><trkpt lat="39.532601111388665" lon="9.32941686359116"><ele>312.0</ele><time>2026-05-01T14:56:24Z</time></trkpt><trkpt lat="39.532616479392544" lon="9.329591462653314"><ele>309.5</ele><time>2026-05-01T14:56:25Z</time></trkpt><trkpt lat="39.532619983909704" lon="9.329769945877151"><ele>307.0</ele><time>2026-05-01T14:56:26Z</time></trkpt><trkpt lat="39.53263460305311" lon="9.329941007871414"><ele>305.25</ele><time>2026-05-01T14:56:27Z</time></trkpt><trkpt lat="39.532655825851144" lon="9.330116110716823"><ele>303.5</ele><time>2026-05-01T14:56:28Z</time></trkpt><trkpt lat="39.53266821322614" lon="9.330276123423543"><ele>301.75</ele><time>2026-05-01T14:56:29Z</time></trkpt><trkpt lat="39.53268679647371" lon="9.330432800635139"><ele>300.0</ele><time>2026-05-01T14:56:30Z</time></trkpt><trkpt lat="39.532693906207875" lon="9.330588977828084"><ele>297.8</ele><time>2026-05-01T14:56:31Z</time></trkpt><trkpt lat="39.532665795729436" lon="9.330734819659625"><ele>295.6</ele><time>2026-05-01T14:56:32Z</time></trkpt><trkpt lat="39.532644184475934" lon="9.330879120579043"><ele>293.4</ele><time>2026-05-01T14:56:33Z</time></trkpt><trkpt lat="39.532611083666076" lon="9.331017856087"><ele>291.2</ele><time>2026-05-01T14:56:34Z</time></trkpt><trkpt lat="39.53256571954955" lon="9.331143347577983"><ele>289.0</ele><time>2026-05-01T14:56:35Z</time></trkpt><trkpt lat="39.532507415976504" lon="9.331253819426419"><ele>289.0</ele><time>2026-05-01T14:56:36Z</time></trkpt><trkpt lat="39.53243759877685" lon="9.331374452014064"><ele>289.0</ele><time>2026-05-01T14:56:37Z</time></trkpt><trkpt lat="39.53235921635709" lon="9.331502449584598"><ele>289.0</ele><time>2026-05-01T14:56:38Z</time></trkpt><trkpt lat="39.53227917616699" lon="9.331640534613642"><ele>289.0</ele><time>2026-05-01T14:56:39Z</time></trkpt><trkpt lat="39.532197256475456" lon="9.331783860811848"><ele>285.0</ele><time>2026-05-01T14:56:40Z</time></trkpt><trkpt lat="39.53213344265817" lon="9.331915980869757"><ele>281.0</ele><time>2026-05-01T14:56:41Z</time></trkpt><trkpt lat="39.5320846735608" lon="9.332032053655436"><ele>277.0</ele><time>2026-05-01T14:56:42Z</time></trkpt><trkpt lat="39.532069180673965" lon="9.332140839973535"><ele>273.0</ele><time>2026-05-01T14:56:43Z</time></trkpt><trkpt lat="39.5321048294657" lon="9.332250871212572"><ele>269.0</ele><time>2026-05-01T14:56:44Z</time></trkpt><trkpt lat="39.53218642655848" lon="9.332345262806552"><ele>267.25</ele><time>2026-05-01T14:56:45Z</time></trkpt><trkpt lat="39.53228312732709" lon="9.332423999228563"><ele>265.5</ele><time>2026-05-01T14:56:46Z</time></trkpt><trkpt lat="39.53236872203559" lon="9.332535165390471"><ele>263.75</ele><time>2026-05-01T14:56:47Z</time></trkpt><trkpt lat="39.53244385487471" lon="9.33266567238338"><ele>262.0</ele><time>2026-05-01T14:56:48Z</time></trkpt><trkpt lat="39.53250409604257" lon="9.332816523930974"><ele>262.0</ele><time>2026-05-01T14:56:49Z</time></trkpt><trkpt lat="39.5325364615594" lon="9.332980549523318"><ele>262.0</ele><time>2026-05-01T14:56:50Z</time></trkpt><trkpt lat="39.53254723069738" lon="9.333149028834567"><ele>262.0</ele><time>2026-05-01T14:56:51Z</time></trkpt><trkpt lat="39.532529455294195" lon="9.333313165084764"><ele>262.0</ele><time>2026-05-01T14:56:52Z</time></trkpt><trkpt lat="39.532536693382646" lon="9.333482174633035"><ele>262.0</ele><time>2026-05-01T14:56:53Z</time></trkpt><trkpt lat="39.53252450480005" lon="9.333652846375948"><ele>262.0</ele><time>2026-05-01T14:56:54Z</time></trkpt><trkpt lat="39.5325179908612" lon="9.333819120933693"><ele>262.0</ele><time>2026-05-01T14:56:55Z</time></trkpt><trkpt lat="39.53250447040768" lon="9.333959494300725"><ele>262.0</ele><time>2026-05-01T14:56:56Z</time></trkpt><trkpt lat="39.53246812141347" lon="9.33407685829231"><ele>261.2</ele><time>2026-05-01T14:56:57Z</time></trkpt><trkpt lat="39.532402000219726" lon="9.334156453752016"><ele>260.4</ele><time>2026-05-01T14:56:58Z</time></trkpt><trkpt lat="39.53229942799338" lon="9.33416683582654"><ele>259.6</ele><time>2026-05-01T14:56:59Z</time></trkpt><trkpt lat="39.532208541926884" lon="9.334239798805225"><ele>258.8</ele><time>2026-05-01T14:57:00Z</time></trkpt><trkpt lat="39.532096389804444" lon="9.334311558667913"><ele>258.0</ele><time>2026-05-01T14:57:01Z</time></trkpt><trkpt lat="39.53198073941311" lon="9.33438943393928"><ele>258.0</ele><time>2026-05-01T14:57:02Z</time></trkpt><trkpt lat="39.53185294043741" lon="9.334413539958302"><ele>258.0</ele><time>2026-05-01T14:57:03Z</time></trkpt><trkpt lat="39.531719195697626" lon="9.334429021949443"><ele>258.0</ele><time>2026-05-01T14:57:04Z</time></trkpt><trkpt lat="39.53156869683935" lon="9.334439745623122"><ele>258.0</ele><time>2026-05-01T14:57:05Z</time></trkpt><trkpt lat="39.53141088404772" lon="9.334449410270985"><ele>258.0</ele><time>2026-05-01T14:57:06Z</time></trkpt><trkpt lat="39.531258998762084" lon="9.334457786822114"><ele>258.0</ele><time>2026-05-01T14:57:07Z</time></trkpt><trkpt lat="39.53111230740179" lon="9.33446928651583"><ele>258.0</ele><time>2026-05-01T14:57:08Z</time></trkpt><trkpt lat="39.5309681292557" lon="9.334502237353"><ele>258.0</ele><time>2026-05-01T14:57:09Z</time></trkpt><trkpt lat="39.53082888242477" lon="9.334548704359724"><ele>257.0</ele><time>2026-05-01T14:57:10Z</time></trkpt><trkpt lat="39.53069449721477" lon="9.33458993316665"><ele>256.0</ele><time>2026-05-01T14:57:11Z</time></trkpt><trkpt lat="39.53057192126475" lon="9.334638825338443"><ele>255.0</ele><time>2026-05-01T14:57:12Z</time></trkpt><trkpt lat="39.530449187131936" lon="9.33462401270569"><ele>254.0</ele><time>2026-05-01T14:57:13Z</time></trkpt><trkpt lat="39.53032623387975" lon="9.334620898161937"><ele>254.0</ele><time>2026-05-01T14:57:14Z</time></trkpt><trkpt lat="39.53022109852729" lon="9.334635122503991"><ele>254.0</ele><time>2026-05-01T14:57:15Z</time></trkpt><trkpt lat="39.53011081657645" lon="9.334679332087548"><ele>254.0</ele><time>2026-05-01T14:57:16Z</time></trkpt><trkpt lat="39.53000714937679" lon="9.334761834094454"><ele>254.0</ele><time>2026-05-01T14:57:17Z</time></trkpt><trkpt lat="39.52990535956393" lon="9.334861661871761"><ele>247.5</ele><time>2026-05-01T14:57:18Z</time></trkpt><trkpt lat="39.529804532464084" lon="9.334971513943165"><ele>241.0</ele><time>2026-05-01T14:57:19Z</time></trkpt><trkpt lat="39.529731252999476" lon="9.3351110756361"><ele>234.5</ele><time>2026-05-01T14:57:20Z</time></trkpt><trkpt lat="39.52968219115899" lon="9.33526428620068"><ele>228.0</ele><time>2026-05-01T14:57:21Z</time></trkpt><trkpt lat="39.52962756980429" lon="9.335387128096514"><ele>228.0</ele><time>2026-05-01T14:57:22Z</time></trkpt><trkpt lat="39.52958598517569" lon="9.335499587749863"><ele>228.0</ele><time>2026-05-01T14:57:23Z</time></trkpt><trkpt lat="39.52950176441146" lon="9.335567313730595"><ele>228.0</ele><time>2026-05-01T14:57:24Z</time></trkpt><trkpt lat="39.52939845183359" lon="9.335557218564652"><ele>228.0</ele><time>2026-05-01T14:57:25Z</time></trkpt><trkpt lat="39.529306214883796" lon="9.335528765576049"><ele>228.0</ele><time>2026-05-01T14:57:26Z</time></trkpt><trkpt lat="39.529202625466816" lon="9.335466673326337"><ele>229.25</ele><time>2026-05-01T14:57:27Z</time></trkpt><trkpt lat="39.52910791627214" lon="9.33537448665555"><ele>230.5</ele><time>2026-05-01T14:57:28Z</time></trkpt><trkpt lat="39.52899746754064" lon="9.33528601956398"><ele>231.75</ele><time>2026-05-01T14:57:29Z</time></trkpt><trkpt lat="39.52888913958222" lon="9.335176718210455"><ele>233.0</ele><time>2026-05-01T14:57:30Z</time></trkpt><trkpt lat="39.52876913178716" lon="9.335085145400587"><ele>229.25</ele><time>2026-05-01T14:57:31Z</time></trkpt><trkpt lat="39.52863458629057" lon="9.335015087259997"><ele>225.5</ele><time>2026-05-01T14:57:32Z</time></trkpt><trkpt lat="39.528512923955894" lon="9.334944033219333"><ele>221.75</ele><time>2026-05-01T14:57:33Z</time></trkpt><trkpt lat="39.52839785348014" lon="9.334847425989514"><ele>218.0</ele><time>2026-05-01T14:57:34Z</time></trkpt><trkpt lat="39.528304990764454" lon="9.334750406707183"><ele>218.00000000000003</ele><time>2026-05-01T14:57:35Z</time></trkpt><trkpt lat="39.528228372719745" lon="9.334678285584934"><ele>218.0</ele><time>2026-05-01T14:57:36Z</time></trkpt><trkpt lat="39.52816416395827" lon="9.334647568580227"><ele>218.0</ele><time>2026-05-01T14:57:37Z</time></trkpt><trkpt lat="39.52809964166737" lon="9.334678989552863"><ele>218.0</ele><time>2026-05-01T14:57:38Z</time></trkpt><trkpt lat="39.52806394510672" lon="9.334755146107137"><ele>218.00000000000003</ele><time>2026-05-01T14:57:39Z</time></trkpt><trkpt lat="39.52805309919627" lon="9.33486316193608"><ele>218.0</ele><time>2026-05-01T14:57:41Z</time></trkpt><trkpt lat="39.5281519218219" lon="9.334959576063767"><ele>218.0</ele><time>2026-05-01T14:57:43Z</time></trkpt><trkpt lat="39.528244505581284" lon="9.334994726098115"><ele>218.0</ele><time>2026-05-01T14:57:44Z</time></trkpt><trkpt lat="39.528362574028996" lon="9.335037702670355"><ele>218.0</ele><time>2026-05-01T14:57:45Z</time></trkpt><trkpt lat="39.52848325799103" lon="9.33511241580421"><ele>218.0</ele><time>2026-05-01T14:57:46Z</time></trkpt><trkpt lat="39.528610242081996" lon="9.335218699398403"><ele>215.0</ele><time>2026-05-01T14:57:47Z</time></trkpt><trkpt lat="39.52874440966815" lon="9.33534071201626"><ele>212.0</ele><time>2026-05-01T14:57:48Z</time></trkpt><trkpt lat="39.52888039667337" lon="9.33549539639837"><ele>209.0</ele><time>2026-05-01T14:57:49Z</time></trkpt><trkpt lat="39.52900578553829" lon="9.335668051758997"><ele>209.0</ele><time>2026-05-01T14:57:50Z</time></trkpt><trkpt lat="39.529144993661845" lon="9.335840589002919"><ele>209.0</ele><time>2026-05-01T14:57:51Z</time></trkpt><trkpt lat="39.52925792124109" lon="9.336022412023972"><ele>209.0</ele><time>2026-05-01T14:57:52Z</time></trkpt><trkpt lat="39.52936763220957" lon="9.336161052123822"><ele>209.0</ele><time>2026-05-01T14:57:53Z</time></trkpt><trkpt lat="39.52948484055604" lon="9.336234232784596"><ele>209.0</ele><time>2026-05-01T14:57:54Z</time></trkpt><trkpt lat="39.52961546569466" lon="9.336239699125128"><ele>209.0</ele><time>2026-05-01T14:57:55Z</time></trkpt><trkpt lat="39.52975701907967" lon="9.336161868581966"><ele>209.0</ele><time>2026-05-01T14:57:56Z</time></trkpt><trkpt lat="39.52988410002675" lon="9.336010778135803"><ele>208.0</ele><time>2026-05-01T14:57:57Z</time></trkpt><trkpt lat="39.53000000181614" lon="9.335847557446108"><ele>207.0</ele><time>2026-05-01T14:57:58Z</time></trkpt><trkpt lat="39.53013407625699" lon="9.335715414605755"><ele>206.0</ele><time>2026-05-01T14:57:59Z</time></trkpt><trkpt lat="39.53027786041929" lon="9.335639137285817"><ele>202.33333333333334</ele><time>2026-05-01T14:58:00Z</time></trkpt><trkpt lat="39.530454990291496" lon="9.335577013587905"><ele>198.66666666666669</ele><time>2026-05-01T14:58:01Z</time></trkpt><trkpt lat="39.530644965916025" lon="9.33553975296821"><ele>195.0</ele><time>2026-05-01T14:58:02Z</time></trkpt><trkpt lat="39.5308398815692" lon="9.335543698928715"><ele>195.66666666666669</ele><time>2026-05-01T14:58:03Z</time></trkpt><trkpt lat="39.53103909868831" lon="9.335549532171303"><ele>196.33333333333334</ele><time>2026-05-01T14:58:04Z</time></trkpt><trkpt lat="39.5312175128795" lon="9.33554139681171"><ele>197.0</ele><time>2026-05-01T14:58:05Z</time></trkpt><trkpt lat="39.53136772447702" lon="9.335619226698432"><ele>197.0</ele><time>2026-05-01T14:58:06Z</time></trkpt><trkpt lat="39.5314984874728" lon="9.335733821997266"><ele>197.0</ele><time>2026-05-01T14:58:07Z</time></trkpt><trkpt lat="39.53164896975712" lon="9.335869368033118"><ele>197.0</ele><time>2026-05-01T14:58:08Z</time></trkpt><trkpt lat="39.53181473251822" lon="9.336004340024317"><ele>197.0</ele><time>2026-05-01T14:58:09Z</time></trkpt><trkpt lat="39.531963039082335" lon="9.33617568199734"><ele>197.0</ele><time>2026-05-01T14:58:10Z</time></trkpt><trkpt lat="39.53211589043709" lon="9.336334672380854"><ele>197.0</ele><time>2026-05-01T14:58:11Z</time></trkpt><trkpt lat="39.5322718872212" lon="9.336482676842463"><ele>195.66666666666669</ele><time>2026-05-01T14:58:12Z</time></trkpt><trkpt lat="39.532404679076" lon="9.336657133289053"><ele>194.33333333333331</ele><time>2026-05-01T14:58:13Z</time></trkpt><trkpt lat="39.53252266078786" lon="9.33683529917874"><ele>193.0</ele><time>2026-05-01T14:58:14Z</time></trkpt><trkpt lat="39.53263323437604" lon="9.337003796491555"><ele>193.0</ele><time>2026-05-01T14:58:15Z</time></trkpt><trkpt lat="39.53274028523552" lon="9.337128506403985"><ele>193.0</ele><time>2026-05-01T14:58:16Z</time></trkpt><trkpt lat="39.53285321552745" lon="9.33717721269185"><ele>193.0</ele><time>2026-05-01T14:58:17Z</time></trkpt><trkpt lat="39.53297251359358" lon="9.337123244411792"><ele>193.0</ele><time>2026-05-01T14:58:18Z</time></trkpt><trkpt lat="39.53307107617225" lon="9.336992081091678"><ele>191.33333333333331</ele><time>2026-05-01T14:58:19Z</time></trkpt><trkpt lat="39.53315185790034" lon="9.336809251673472"><ele>189.66666666666666</ele><time>2026-05-01T14:58:20Z</time></trkpt><trkpt lat="39.533283049143414" lon="9.336686157874986"><ele>188.0</ele><time>2026-05-01T14:58:21Z</time></trkpt><trkpt lat="39.53343880515779" lon="9.336589118975185"><ele>188.0</ele><time>2026-05-01T14:58:22Z</time></trkpt><trkpt lat="39.53361923792393" lon="9.336518812814464"><ele>188.0</ele><time>2026-05-01T14:58:23Z</time></trkpt><trkpt lat="39.5337975323589" lon="9.336508848976068"><ele>188.0</ele><time>2026-05-01T14:58:24Z</time></trkpt><trkpt lat="39.53397584902354" lon="9.33655697634959"><ele>185.0</ele><time>2026-05-01T14:58:25Z</time></trkpt><trkpt lat="39.53414380288689" lon="9.336588511239988"><ele>182.0</ele><time>2026-05-01T14:58:26Z</time></trkpt><trkpt lat="39.53427402037103" lon="9.336618888741372"><ele>179.0</ele><time>2026-05-01T14:58:27Z</time></trkpt><trkpt lat="39.53438524517339" lon="9.336566629166128"><ele>176.0</ele><time>2026-05-01T14:58:28Z</time></trkpt><trkpt lat="39.53447182875233" lon="9.336430435285125"><ele>175.66666666666666</ele><time>2026-05-01T14:58:29Z</time></trkpt><trkpt lat="39.53453285512322" lon="9.336236568727843"><ele>175.33333333333334</ele><time>2026-05-01T14:58:30Z</time></trkpt><trkpt lat="39.534595740921674" lon="9.336035688534297"><ele>175.0</ele><time>2026-05-01T14:58:31Z</time></trkpt><trkpt lat="39.53471949171051" lon="9.335891836538146"><ele>175.0</ele><time>2026-05-01T14:58:32Z</time></trkpt><trkpt lat="39.53484784305859" lon="9.335737881487061"><ele>175.0</ele><time>2026-05-01T14:58:33Z</time></trkpt><trkpt lat="39.53499814955466" lon="9.335602664842808"><ele>175.0</ele><time>2026-05-01T14:58:34Z</time></trkpt><trkpt lat="39.535171680990594" lon="9.335516180341587"><ele>172.66666666666669</ele><time>2026-05-01T14:58:35Z</time></trkpt><trkpt lat="39.53536517112265" lon="9.335426644007793"><ele>170.33333333333334</ele><time>2026-05-01T14:58:36Z</time></trkpt><trkpt lat="39.53555425109921" lon="9.335323306906773"><ele>168.0</ele><time>2026-05-01T14:58:37Z</time></trkpt><trkpt lat="39.53573921615341" lon="9.335240471198999"><ele>168.0</ele><time>2026-05-01T14:58:38Z</time></trkpt><trkpt lat="39.535920160628656" lon="9.335180703099958"><ele>168.0</ele><time>2026-05-01T14:58:39Z</time></trkpt><trkpt lat="39.53607491172628" lon="9.335090262920307"><ele>168.0</ele><time>2026-05-01T14:58:40Z</time></trkpt><trkpt lat="39.53620692252733" lon="9.335059286579098"><ele>171.5</ele><time>2026-05-01T14:58:41Z</time></trkpt><trkpt lat="39.53630477000221" lon="9.335021889367844"><ele>175.0</ele><time>2026-05-01T14:58:42Z</time></trkpt><trkpt lat="39.536387790828144" lon="9.335111954054254"><ele>178.5</ele><time>2026-05-01T14:58:43Z</time></trkpt><trkpt lat="39.53644985979445" lon="9.335255892472054"><ele>182.0</ele><time>2026-05-01T14:58:44Z</time></trkpt><trkpt lat="39.53654620196669" lon="9.335414308448318"><ele>177.0</ele><time>2026-05-01T14:58:45Z</time></trkpt><trkpt lat="39.53664353297652" lon="9.335602821402558"><ele>172.0</ele><time>2026-05-01T14:58:46Z</time></trkpt><trkpt lat="39.53675756863254" lon="9.335801561525871"><ele>167.0</ele><time>2026-05-01T14:58:47Z</time></trkpt><trkpt lat="39.53688047909525" lon="9.33601490726202"><ele>167.0</ele><time>2026-05-01T14:58:48Z</time></trkpt><trkpt lat="39.53700964130991" lon="9.336247810526025"><ele>167.0</ele><time>2026-05-01T14:58:49Z</time></trkpt><trkpt lat="39.537141177504914" lon="9.336488283987293"><ele>167.0</ele><time>2026-05-01T14:58:50Z</time></trkpt><trkpt lat="39.53725860607681" lon="9.336699046611699"><ele>168.33333333333331</ele><time>2026-05-01T14:58:51Z</time></trkpt><trkpt lat="39.53738486383821" lon="9.33688414084074"><ele>169.66666666666666</ele><time>2026-05-01T14:58:52Z</time></trkpt><trkpt lat="39.5375419359506" lon="9.337021344167132"><ele>171.0</ele><time>2026-05-01T14:58:53Z</time></trkpt><trkpt lat="39.537709831555084" lon="9.337154257362508"><ele>168.66666666666666</ele><time>2026-05-01T14:58:54Z</time></trkpt><trkpt lat="39.53786067069576" lon="9.337314529803274"><ele>166.33333333333331</ele><time>2026-05-01T14:58:55Z</time></trkpt><trkpt lat="39.537986737855164" lon="9.337517759568705"><ele>164.0</ele><time>2026-05-01T14:58:56Z</time></trkpt><trkpt lat="39.538098392942416" lon="9.337756409966845"><ele>169.0</ele><time>2026-05-01T14:58:57Z</time></trkpt><trkpt lat="39.53819538414755" lon="9.337995281421152"><ele>174.0</ele><time>2026-05-01T14:58:58Z</time></trkpt><trkpt lat="39.538273728646715" lon="9.338219137530402"><ele>179.0</ele><time>2026-05-01T14:58:59Z</time></trkpt><trkpt lat="39.53832457229452" lon="9.338457919345704"><ele>179.0</ele><time>2026-05-01T14:59:00Z</time></trkpt><trkpt lat="39.53837771269248" lon="9.33872170735672"><ele>179.0</ele><time>2026-05-01T14:59:01Z</time></trkpt><trkpt lat="39.53842619551066" lon="9.33899077799174"><ele>179.0</ele><time>2026-05-01T14:59:02Z</time></trkpt><trkpt lat="39.538470114251375" lon="9.339242706105022"><ele>174.66666666666666</ele><time>2026-05-01T14:59:03Z</time></trkpt><trkpt lat="39.53852927982686" lon="9.339475601879084"><ele>170.33333333333334</ele><time>2026-05-01T14:59:04Z</time></trkpt><trkpt lat="39.53857234474949" lon="9.339703896301423"><ele>166.0</ele><time>2026-05-01T14:59:05Z</time></trkpt><trkpt lat="39.53864068659704" lon="9.339931292252492"><ele>166.0</ele><time>2026-05-01T14:59:06Z</time></trkpt><trkpt lat="39.53873989080134" lon="9.340167922194231"><ele>166.0</ele><time>2026-05-01T14:59:07Z</time></trkpt><trkpt lat="39.53885116707216" lon="9.340396359308688"><ele>166.0</ele><time>2026-05-01T14:59:08Z</time></trkpt><trkpt lat="39.53896261005527" lon="9.34062100553453"><ele>166.0</ele><time>2026-05-01T14:59:09Z</time></trkpt><trkpt lat="39.539089511231815" lon="9.340838406736024"><ele>166.0</ele><time>2026-05-01T14:59:10Z</time></trkpt><trkpt lat="39.539234067686984" lon="9.341044677377402"><ele>166.0</ele><time>2026-05-01T14:59:11Z</time></trkpt><trkpt lat="39.5393961491022" lon="9.341227877347153"><ele>166.66666666666669</ele><time>2026-05-01T14:59:12Z</time></trkpt><trkpt lat="39.5395716934188" lon="9.341388162390983"><ele>167.33333333333334</ele><time>2026-05-01T14:59:13Z</time></trkpt><trkpt lat="39.53974608989958" lon="9.341536298998976"><ele>168.0</ele><time>2026-05-01T14:59:14Z</time></trkpt><trkpt lat="39.53991127318733" lon="9.341679724364008"><ele>168.0</ele><time>2026-05-01T14:59:15Z</time></trkpt><trkpt lat="39.540063611851096" lon="9.341816831280699"><ele>168.0</ele><time>2026-05-01T14:59:16Z</time></trkpt><trkpt lat="39.540198614012525" lon="9.341942838046467"><ele>168.0</ele><time>2026-05-01T14:59:17Z</time></trkpt><trkpt lat="39.540307513365235" lon="9.342089999638697"><ele>164.66666666666666</ele><time>2026-05-01T14:59:18Z</time></trkpt><trkpt lat="39.54038212581877" lon="9.34225184030611"><ele>161.33333333333331</ele><time>2026-05-01T14:59:19Z</time></trkpt><trkpt lat="39.540428354914454" lon="9.34242688764328"><ele>158.0</ele><time>2026-05-01T14:59:20Z</time></trkpt><trkpt lat="39.54043842336724" lon="9.342640645054232"><ele>158.0</ele><time>2026-05-01T14:59:21Z</time></trkpt><trkpt lat="39.540442683878695" lon="9.342875921552112"><ele>158.0</ele><time>2026-05-01T14:59:22Z</time></trkpt><trkpt lat="39.540483417758466" lon="9.343086074546276"><ele>158.0</ele><time>2026-05-01T14:59:23Z</time></trkpt><trkpt lat="39.54056966415923" lon="9.343261069307394"><ele>156.0</ele><time>2026-05-01T14:59:24Z</time></trkpt><trkpt lat="39.540684063511144" lon="9.343397212485197"><ele>154.0</ele><time>2026-05-01T14:59:25Z</time></trkpt><trkpt lat="39.540787657902136" lon="9.343452667600166"><ele>152.0</ele><time>2026-05-01T14:59:26Z</time></trkpt><trkpt lat="39.540896335641435" lon="9.343434427191973"><ele>150.0</ele><time>2026-05-01T14:59:27Z</time></trkpt><trkpt lat="39.54100238768601" lon="9.343341798266021"><ele>150.0</ele><time>2026-05-01T14:59:28Z</time></trkpt><trkpt lat="39.541108172750484" lon="9.343219767393844"><ele>150.0</ele><time>2026-05-01T14:59:29Z</time></trkpt><trkpt lat="39.5412374566692" lon="9.343145830504437"><ele>150.0</ele><time>2026-05-01T14:59:30Z</time></trkpt><trkpt lat="39.54139555071477" lon="9.34315390083929"><ele>150.0</ele><time>2026-05-01T14:59:31Z</time></trkpt><trkpt lat="39.54154017570207" lon="9.34317358994334"><ele>149.33333333333334</ele><time>2026-05-01T14:59:32Z</time></trkpt><trkpt lat="39.54164176369027" lon="9.343182178280962"><ele>148.66666666666666</ele><time>2026-05-01T14:59:33Z</time></trkpt><trkpt lat="39.54172359334575" lon="9.343204140635242"><ele>148.0</ele><time>2026-05-01T14:59:34Z</time></trkpt><trkpt lat="39.541786836605695" lon="9.34326757428991"><ele>147.33333333333331</ele><time>2026-05-01T14:59:35Z</time></trkpt><trkpt lat="39.54182524501723" lon="9.343333083776852"><ele>146.66666666666666</ele><time>2026-05-01T14:59:36Z</time></trkpt><trkpt lat="39.54185023837043" lon="9.343473796437307"><ele>146.0</ele><time>2026-05-01T14:59:38Z</time></trkpt><trkpt lat="39.54183085320419" lon="9.34355719189738"><ele>146.0</ele><time>2026-05-01T14:59:39Z</time></trkpt><trkpt lat="39.54178834958669" lon="9.343626824990176"><ele>146.0</ele><time>2026-05-01T14:59:40Z</time></trkpt><trkpt lat="39.54178300639588" lon="9.343714849018694"><ele>146.0</ele><time>2026-05-01T14:59:41Z</time></trkpt><trkpt lat="39.54175640066333" lon="9.34381135582497"><ele>146.0</ele><time>2026-05-01T14:59:42Z</time></trkpt><trkpt lat="39.54174457112228" lon="9.343928070670179"><ele>146.0</ele><time>2026-05-01T14:59:43Z</time></trkpt><trkpt lat="39.54175864256691" lon="9.344043979047091"><ele>146.0</ele><time>2026-05-01T14:59:44Z</time></trkpt><trkpt lat="39.54177917723573" lon="9.344159686382703"><ele>147.4</ele><time>2026-05-01T14:59:45Z</time></trkpt><trkpt lat="39.541795266093665" lon="9.344269823853722"><ele>148.8</ele><time>2026-05-01T14:59:46Z</time></trkpt><trkpt lat="39.54181894345822" lon="9.344378070108984"><ele>150.20000000000002</ele><time>2026-05-01T14:59:47Z</time></trkpt><trkpt lat="39.541852042569346" lon="9.344482139909415"><ele>151.6</ele><time>2026-05-01T14:59:48Z</time></trkpt><trkpt lat="39.54191521777189" lon="9.34457248997917"><ele>153.0</ele><time>2026-05-01T14:59:49Z</time></trkpt><trkpt lat="39.54200011371682" lon="9.34463221481834"><ele>150.5</ele><time>2026-05-01T14:59:50Z</time></trkpt><trkpt lat="39.54208851960907" lon="9.344637695617521"><ele>148.0</ele><time>2026-05-01T14:59:51Z</time></trkpt><trkpt lat="39.54216817001297" lon="9.344624616504758"><ele>145.5</ele><time>2026-05-01T14:59:52Z</time></trkpt><trkpt lat="39.542241960467024" lon="9.344615463023386"><ele>143.0</ele><time>2026-05-01T14:59:53Z</time></trkpt><trkpt lat="39.542313459038354" lon="9.3446002479855"><ele>140.5</ele><time>2026-05-01T14:59:54Z</time></trkpt><trkpt lat="39.5423845872345" lon="9.344579177882602"><ele>138.0</ele><time>2026-05-01T14:59:55Z</time></trkpt><trkpt lat="39.542455065312254" lon="9.344554706715718"><ele>138.0</ele><time>2026-05-01T14:59:56Z</time></trkpt><trkpt lat="39.542523972888404" lon="9.34453668600006"><ele>138.0</ele><time>2026-05-01T14:59:57Z</time></trkpt><trkpt lat="39.542593457968884" lon="9.344534489782209"><ele>138.0</ele><time>2026-05-01T14:59:58Z</time></trkpt><trkpt lat="39.54265953395221" lon="9.344556760305583"><ele>138.0</ele><time>2026-05-01T14:59:59Z</time></trkpt><trkpt lat="39.54271746910289" lon="9.344621687457686"><ele>138.0</ele><time>2026-05-01T15:00:00Z</time></trkpt><trkpt lat="39.54273496060165" lon="9.34473737465154"><ele>138.0</ele><time>2026-05-01T15:00:01Z</time></trkpt><trkpt lat="39.542779963551766" lon="9.344839283976377"><ele>138.5</ele><time>2026-05-01T15:00:02Z</time></trkpt><trkpt lat="39.542846049636644" lon="9.34494585148361"><ele>139.0</ele><time>2026-05-01T15:00:03Z</time></trkpt><trkpt lat="39.54290886461429" lon="9.345090936781952"><ele>139.5</ele><time>2026-05-01T15:00:04Z</time></trkpt><trkpt lat="39.5430048702668" lon="9.345287882510666"><ele>140.0</ele><time>2026-05-01T15:00:05Z</time></trkpt><trkpt lat="39.543146845909014" lon="9.345498228936384"><ele>141.0</ele><time>2026-05-01T15:00:06Z</time></trkpt><trkpt lat="39.54330948481246" lon="9.345738331061536"><ele>142.0</ele><time>2026-05-01T15:00:07Z</time></trkpt><trkpt lat="39.543472745948705" lon="9.345980472644854"><ele>142.0</ele><time>2026-05-01T15:00:08Z</time></trkpt><trkpt lat="39.543634972528906" lon="9.34621680707385"><ele>142.0</ele><time>2026-05-01T15:00:09Z</time></trkpt><trkpt lat="39.5437815728341" lon="9.346436296766695"><ele>137.0</ele><time>2026-05-01T15:00:10Z</time></trkpt><trkpt lat="39.543917046311634" lon="9.346635067099593"><ele>132.0</ele><time>2026-05-01T15:00:11Z</time></trkpt><trkpt lat="39.54400492241583" lon="9.346845432884164"><ele>127.0</ele><time>2026-05-01T15:00:12Z</time></trkpt><trkpt lat="39.5440805426321" lon="9.347024588278245"><ele>127.0</ele><time>2026-05-01T15:00:13Z</time></trkpt><trkpt lat="39.54417824381554" lon="9.347167691638875"><ele>127.0</ele><time>2026-05-01T15:00:14Z</time></trkpt><trkpt lat="39.54430161549905" lon="9.347305379218882"><ele>127.0</ele><time>2026-05-01T15:00:15Z</time></trkpt><trkpt lat="39.54445000755014" lon="9.34743853294407"><ele>126.0</ele><time>2026-05-01T15:00:16Z</time></trkpt><trkpt lat="39.544599058733375" lon="9.347574358019257"><ele>125.0</ele><time>2026-05-01T15:00:17Z</time></trkpt><trkpt lat="39.544702862814866" lon="9.34776330282588"><ele>124.0</ele><time>2026-05-01T15:00:18Z</time></trkpt><trkpt lat="39.544809294794646" lon="9.347945127144984"><ele>123.66666666666667</ele><time>2026-05-01T15:00:19Z</time></trkpt><trkpt lat="39.54491643897943" lon="9.348095072617607"><ele>123.33333333333334</ele><time>2026-05-01T15:00:20Z</time></trkpt><trkpt lat="39.54496321347985" lon="9.348278530571676"><ele>123.0</ele><time>2026-05-01T15:00:21Z</time></trkpt><trkpt lat="39.54497223929362" lon="9.348463899952014"><ele>123.0</ele><time>2026-05-01T15:00:22Z</time></trkpt><trkpt lat="39.54499098012082" lon="9.348686139524569"><ele>123.0</ele><time>2026-05-01T15:00:23Z</time></trkpt><trkpt lat="39.54506431707152" lon="9.348903346115039"><ele>123.0</ele><time>2026-05-01T15:00:24Z</time></trkpt><trkpt lat="39.54515026057649" lon="9.349126585592698"><ele>125.33333333333334</ele><time>2026-05-01T15:00:25Z</time></trkpt><trkpt lat="39.54522956783468" lon="9.34934117893385"><ele>127.66666666666667</ele><time>2026-05-01T15:00:26Z</time></trkpt><trkpt lat="39.545297837871225" lon="9.349575862288775"><ele>130.0</ele><time>2026-05-01T15:00:27Z</time></trkpt><trkpt lat="39.54531971718859" lon="9.349836002655548"><ele>125.33333333333334</ele><time>2026-05-01T15:00:28Z</time></trkpt><trkpt lat="39.545378992477595" lon="9.350098710999376"><ele>120.66666666666666</ele><time>2026-05-01T15:00:29Z</time></trkpt><trkpt lat="39.545446009258185" lon="9.350379292925798"><ele>116.0</ele><time>2026-05-01T15:00:30Z</time></trkpt><trkpt lat="39.54554343011383" lon="9.350657512979621"><ele>116.0</ele><time>2026-05-01T15:00:31Z</time></trkpt><trkpt lat="39.54564662808655" lon="9.350906791234465"><ele>116.0</ele><time>2026-05-01T15:00:32Z</time></trkpt><trkpt lat="39.545750258282396" lon="9.351132592906406"><ele>116.0</ele><time>2026-05-01T15:00:33Z</time></trkpt><trkpt lat="39.54584519645107" lon="9.351346411031605"><ele>117.0</ele><time>2026-05-01T15:00:34Z</time></trkpt><trkpt lat="39.54592649923001" lon="9.351563663397062"><ele>118.0</ele><time>2026-05-01T15:00:35Z</time></trkpt><trkpt lat="39.54596278996514" lon="9.351808511746489"><ele>119.0</ele><time>2026-05-01T15:00:36Z</time></trkpt><trkpt lat="39.54600231105658" lon="9.352045214136403"><ele>119.66666666666666</ele><time>2026-05-01T15:00:37Z</time></trkpt><trkpt lat="39.54602052802819" lon="9.352279586166421"><ele>120.33333333333334</ele><time>2026-05-01T15:00:38Z</time></trkpt><trkpt lat="39.5460110665581" lon="9.352528692868352"><ele>121.0</ele><time>2026-05-01T15:00:39Z</time></trkpt><trkpt lat="39.54599645928831" lon="9.352799391075939"><ele>119.66666666666667</ele><time>2026-05-01T15:00:40Z</time></trkpt><trkpt lat="39.546009436158855" lon="9.353082489722809"><ele>118.33333333333334</ele><time>2026-05-01T15:00:41Z</time></trkpt><trkpt lat="39.54602511386623" lon="9.353363443977969"><ele>117.0</ele><time>2026-05-01T15:00:42Z</time></trkpt><trkpt lat="39.546058840113176" lon="9.353638845997244"><ele>116.33333333333334</ele><time>2026-05-01T15:00:43Z</time></trkpt><trkpt lat="39.54609252602062" lon="9.353901561488854"><ele>115.66666666666667</ele><time>2026-05-01T15:00:44Z</time></trkpt><trkpt lat="39.546126399280986" lon="9.354148485245588"><ele>115.0</ele><time>2026-05-01T15:00:45Z</time></trkpt><trkpt lat="39.546160863319884" lon="9.35438240693284"><ele>115.0</ele><time>2026-05-01T15:00:46Z</time></trkpt><trkpt lat="39.54620277734999" lon="9.35460359160432"><ele>115.0</ele><time>2026-05-01T15:00:47Z</time></trkpt><trkpt lat="39.54622044852474" lon="9.354823751998975"><ele>115.0</ele><time>2026-05-01T15:00:48Z</time></trkpt><trkpt lat="39.54623879022392" lon="9.35503874935079"><ele>111.0</ele><time>2026-05-01T15:00:49Z</time></trkpt><trkpt lat="39.54625746235602" lon="9.355255517104023"><ele>107.0</ele><time>2026-05-01T15:00:50Z</time></trkpt><trkpt lat="39.546253373566415" lon="9.355464686006755"><ele>103.0</ele><time>2026-05-01T15:00:51Z</time></trkpt><trkpt lat="39.546252777301405" lon="9.355659060812242"><ele>102.75</ele><time>2026-05-01T15:00:52Z</time></trkpt><trkpt lat="39.54625342621061" lon="9.355850571017571"><ele>102.5</ele><time>2026-05-01T15:00:53Z</time></trkpt><trkpt lat="39.54625484855987" lon="9.35603888985364"><ele>102.25</ele><time>2026-05-01T15:00:54Z</time></trkpt><trkpt lat="39.54626534926953" lon="9.356224356270495"><ele>102.0</ele><time>2026-05-01T15:00:55Z</time></trkpt><trkpt lat="39.54629938727562" lon="9.356402771070531"><ele>102.0</ele><time>2026-05-01T15:00:56Z</time></trkpt><trkpt lat="39.54635491981891" lon="9.356585919375798"><ele>102.0</ele><time>2026-05-01T15:00:57Z</time></trkpt><trkpt lat="39.546414564464634" lon="9.356772175049228"><ele>102.0</ele><time>2026-05-01T15:00:58Z</time></trkpt><trkpt lat="39.54647078999774" lon="9.356960171986902"><ele>102.0</ele><time>2026-05-01T15:00:59Z</time></trkpt><trkpt lat="39.54652423071099" lon="9.35714499271201"><ele>102.0</ele><time>2026-05-01T15:01:00Z</time></trkpt><trkpt lat="39.546571333062836" lon="9.357323629593633"><ele>102.0</ele><time>2026-05-01T15:01:01Z</time></trkpt><trkpt lat="39.54662166746685" lon="9.357496846890369"><ele>102.0</ele><time>2026-05-01T15:01:02Z</time></trkpt><trkpt lat="39.546674671790406" lon="9.357663839243516"><ele>102.0</ele><time>2026-05-01T15:01:03Z</time></trkpt><trkpt lat="39.54673655244786" lon="9.357821001453562"><ele>102.0</ele><time>2026-05-01T15:01:04Z</time></trkpt><trkpt lat="39.54681085957852" lon="9.35796261180771"><ele>102.0</ele><time>2026-05-01T15:01:05Z</time></trkpt><trkpt lat="39.54689778346501" lon="9.358091960234399"><ele>102.0</ele><time>2026-05-01T15:01:06Z</time></trkpt><trkpt lat="39.54699296497287" lon="9.358206949235425"><ele>100.5</ele><time>2026-05-01T15:01:07Z</time></trkpt><trkpt lat="39.54709109212426" lon="9.358315150609192"><ele>99.0</ele><time>2026-05-01T15:01:08Z</time></trkpt><trkpt lat="39.547187676682306" lon="9.358419613930957"><ele>97.5</ele><time>2026-05-01T15:01:09Z</time></trkpt><trkpt lat="39.54727742746761" lon="9.358524710669085"><ele>96.0</ele><time>2026-05-01T15:01:10Z</time></trkpt><trkpt lat="39.54736405378065" lon="9.358629867345577"><ele>96.0</ele><time>2026-05-01T15:01:11Z</time></trkpt><trkpt lat="39.54744868728996" lon="9.35872874112823"><ele>96.0</ele><time>2026-05-01T15:01:12Z</time></trkpt><trkpt lat="39.54753378461427" lon="9.358819087557984"><ele>96.0</ele><time>2026-05-01T15:01:13Z</time></trkpt><trkpt lat="39.5476144576318" lon="9.358907470259943"><ele>96.0</ele><time>2026-05-01T15:01:14Z</time></trkpt><trkpt lat="39.54769060109983" lon="9.358992940239212"><ele>96.0</ele><time>2026-05-01T15:01:15Z</time></trkpt><trkpt lat="39.54776176090307" lon="9.359073592267745"><ele>96.0</ele><time>2026-05-01T15:01:16Z</time></trkpt><trkpt lat="39.54782869461767" lon="9.359148425043806"><ele>96.0</ele><time>2026-05-01T15:01:17Z</time></trkpt><trkpt lat="39.54789250562632" lon="9.359217293220475"><ele>96.0</ele><time>2026-05-01T15:01:18Z</time></trkpt><trkpt lat="39.54795312147936" lon="9.35928365431064"><ele>96.0</ele><time>2026-05-01T15:01:19Z</time></trkpt><trkpt lat="39.54800306877151" lon="9.35934109346747"><ele>96.0</ele><time>2026-05-01T15:01:20Z</time></trkpt><trkpt lat="39.54805220094814" lon="9.359480648035456"><ele>96.0</ele><time>2026-05-01T15:01:22Z</time></trkpt><trkpt lat="39.54796342345965" lon="9.359609441470168"><ele>96.19999999999999</ele><time>2026-05-01T15:01:24Z</time></trkpt><trkpt lat="39.54793926946263" lon="9.359699786310463"><ele>96.39999999999999</ele><time>2026-05-01T15:01:25Z</time></trkpt><trkpt lat="39.547883061833375" lon="9.359802235355017"><ele>96.6</ele><time>2026-05-01T15:01:26Z</time></trkpt><trkpt lat="39.547921654510496" lon="9.359960427735896"><ele>96.8</ele><time>2026-05-01T15:01:27Z</time></trkpt><trkpt lat="39.54799003468576" lon="9.360080714465447"><ele>97.0</ele><time>2026-05-01T15:01:28Z</time></trkpt><trkpt lat="39.548097845276935" lon="9.360187436354146"><ele>97.0</ele><time>2026-05-01T15:01:29Z</time></trkpt><trkpt lat="39.54822205273566" lon="9.360246716148536"><ele>97.0</ele><time>2026-05-01T15:01:30Z</time></trkpt><trkpt lat="39.548348889640494" lon="9.36027079807492"><ele>97.0</ele><time>2026-05-01T15:01:31Z</time></trkpt><trkpt lat="39.548471159962226" lon="9.360280851264672"><ele>97.0</ele><time>2026-05-01T15:01:32Z</time></trkpt><trkpt lat="39.54858625098975" lon="9.360327727202622"><ele>97.0</ele><time>2026-05-01T15:01:33Z</time></trkpt><trkpt lat="39.54867695120683" lon="9.360433166765711"><ele>97.0</ele><time>2026-05-01T15:01:34Z</time></trkpt><trkpt lat="39.54874111502095" lon="9.36056373359629"><ele>97.0</ele><time>2026-05-01T15:01:35Z</time></trkpt><trkpt lat="39.54878945885142" lon="9.36069914577136"><ele>97.0</ele><time>2026-05-01T15:01:36Z</time></trkpt><trkpt lat="39.54882929410757" lon="9.360822529694934"><ele>96.75</ele><time>2026-05-01T15:01:37Z</time></trkpt><trkpt lat="39.54883051379855" lon="9.36094888654623"><ele>96.5</ele><time>2026-05-01T15:01:38Z</time></trkpt><trkpt lat="39.54879955182475" lon="9.361098535653703"><ele>96.25</ele><time>2026-05-01T15:01:39Z</time></trkpt><trkpt lat="39.54877669035825" lon="9.361246745775837"><ele>96.0</ele><time>2026-05-01T15:01:40Z</time></trkpt><trkpt lat="39.548743824230236" lon="9.361396947767206"><ele>100.0</ele><time>2026-05-01T15:01:41Z</time></trkpt><trkpt lat="39.54870285493377" lon="9.36153854957568"><ele>104.0</ele><time>2026-05-01T15:01:42Z</time></trkpt><trkpt lat="39.5486363011128" lon="9.361675991318602"><ele>108.0</ele><time>2026-05-01T15:01:43Z</time></trkpt><trkpt lat="39.548539607896394" lon="9.361783258303669"><ele>112.0</ele><time>2026-05-01T15:01:44Z</time></trkpt><trkpt lat="39.54846620472345" lon="9.36189903470342"><ele>112.0</ele><time>2026-05-01T15:01:45Z</time></trkpt><trkpt lat="39.54836428247033" lon="9.361967629127243"><ele>112.0</ele><time>2026-05-01T15:01:46Z</time></trkpt><trkpt lat="39.54824571462502" lon="9.361986973177059"><ele>112.0</ele><time>2026-05-01T15:01:47Z</time></trkpt><trkpt lat="39.548122497375815" lon="9.361974585356412"><ele>112.0</ele><time>2026-05-01T15:01:48Z</time></trkpt><trkpt lat="39.548000813997355" lon="9.361930405988108"><ele>114.25</ele><time>2026-05-01T15:01:49Z</time></trkpt><trkpt lat="39.547875044904366" lon="9.361886437565936"><ele>116.5</ele><time>2026-05-01T15:01:50Z</time></trkpt><trkpt lat="39.5477515690647" lon="9.361831832125777"><ele>118.75</ele><time>2026-05-01T15:01:51Z</time></trkpt><trkpt lat="39.54762378486547" lon="9.3618215774728"><ele>121.0</ele><time>2026-05-01T15:01:52Z</time></trkpt><trkpt lat="39.54749875845029" lon="9.361841646583512"><ele>121.0</ele><time>2026-05-01T15:01:53Z</time></trkpt><trkpt lat="39.5473849925582" lon="9.361890185197344"><ele>121.0</ele><time>2026-05-01T15:01:54Z</time></trkpt><trkpt lat="39.54730563693586" lon="9.361999192786165"><ele>121.0</ele><time>2026-05-01T15:01:55Z</time></trkpt><trkpt lat="39.5472455701209" lon="9.362096410795923"><ele>121.0</ele><time>2026-05-01T15:01:56Z</time></trkpt><trkpt lat="39.54724644271458" lon="9.36225039204977"><ele>118.75</ele><time>2026-05-01T15:01:57Z</time></trkpt><trkpt lat="39.547234668116076" lon="9.362405855343946"><ele>116.5</ele><time>2026-05-01T15:01:58Z</time></trkpt><trkpt lat="39.547210588811254" lon="9.362560664989948"><ele>114.25</ele><time>2026-05-01T15:01:59Z</time></trkpt><trkpt lat="39.54717889667909" lon="9.362720713841032"><ele>112.0</ele><time>2026-05-01T15:02:00Z</time></trkpt><trkpt lat="39.547146603648244" lon="9.362880604975194"><ele>111.39999999999999</ele><time>2026-05-01T15:02:01Z</time></trkpt><trkpt lat="39.54711217506383" lon="9.36303350358822"><ele>110.79999999999998</ele><time>2026-05-01T15:02:02Z</time></trkpt><trkpt lat="39.54707525375091" lon="9.363161935852201"><ele>110.2</ele><time>2026-05-01T15:02:03Z</time></trkpt><trkpt lat="39.547026070751336" lon="9.363279190511024"><ele>109.6</ele><time>2026-05-01T15:02:04Z</time></trkpt><trkpt lat="39.5469591852593" lon="9.363387794561667"><ele>109.0</ele><time>2026-05-01T15:02:05Z</time></trkpt><trkpt lat="39.546869715985245" lon="9.363463593691403"><ele>114.0</ele><time>2026-05-01T15:02:06Z</time></trkpt><trkpt lat="39.54677647766021" lon="9.363525772856676"><ele>119.0</ele><time>2026-05-01T15:02:07Z</time></trkpt><trkpt lat="39.54667517545995" lon="9.36359426869005"><ele>124.0</ele><time>2026-05-01T15:02:08Z</time></trkpt><trkpt lat="39.54657080885439" lon="9.363665115233179"><ele>129.0</ele><time>2026-05-01T15:02:09Z</time></trkpt><trkpt lat="39.5464673433141" lon="9.363758304046788"><ele>129.0</ele><time>2026-05-01T15:02:10Z</time></trkpt><trkpt lat="39.54635359785652" lon="9.363836779996008"><ele>129.0</ele><time>2026-05-01T15:02:11Z</time></trkpt><trkpt lat="39.54623412787611" lon="9.363915754942525"><ele>129.0</ele><time>2026-05-01T15:02:12Z</time></trkpt><trkpt lat="39.54611088395095" lon="9.363995998439924"><ele>129.0</ele><time>2026-05-01T15:02:13Z</time></trkpt><trkpt lat="39.54598455714726" lon="9.364081146560338"><ele>131.0</ele><time>2026-05-01T15:02:14Z</time></trkpt><trkpt lat="39.54585264397381" lon="9.364164072871223"><ele>133.0</ele><time>2026-05-01T15:02:15Z</time></trkpt><trkpt lat="39.54570988201737" lon="9.364239942122401"><ele>135.0</ele><time>2026-05-01T15:02:16Z</time></trkpt><trkpt lat="39.545561677277774" lon="9.364294183245448"><ele>135.0</ele><time>2026-05-01T15:02:17Z</time></trkpt><trkpt lat="39.54540132875003" lon="9.364327159185276"><ele>135.0</ele><time>2026-05-01T15:02:18Z</time></trkpt><trkpt lat="39.54523389578281" lon="9.364324982508112"><ele>135.0</ele><time>2026-05-01T15:02:19Z</time></trkpt><trkpt lat="39.54506880862183" lon="9.364286085764796"><ele>140.0</ele><time>2026-05-01T15:02:20Z</time></trkpt><trkpt lat="39.54489705857793" lon="9.364214996720532"><ele>145.0</ele><time>2026-05-01T15:02:21Z</time></trkpt><trkpt lat="39.54472138193977" lon="9.36415077779284"><ele>150.0</ele><time>2026-05-01T15:02:22Z</time></trkpt><trkpt lat="39.54453549818152" lon="9.364095809544988"><ele>151.0</ele><time>2026-05-01T15:02:23Z</time></trkpt><trkpt lat="39.544342684736684" lon="9.36406826487988"><ele>152.0</ele><time>2026-05-01T15:02:24Z</time></trkpt><trkpt lat="39.54414578844584" lon="9.364080222764375"><ele>153.0</ele><time>2026-05-01T15:02:25Z</time></trkpt><trkpt lat="39.54395494558769" lon="9.36413730672118"><ele>153.0</ele><time>2026-05-01T15:02:26Z</time></trkpt><trkpt lat="39.543773945898685" lon="9.364242619251748"><ele>153.0</ele><time>2026-05-01T15:02:27Z</time></trkpt><trkpt lat="39.54360632334772" lon="9.364393850529103"><ele>153.0</ele><time>2026-05-01T15:02:28Z</time></trkpt><trkpt lat="39.54346640858938" lon="9.364577202882309"><ele>155.33333333333334</ele><time>2026-05-01T15:02:29Z</time></trkpt><trkpt lat="39.543346998669925" lon="9.36478343076046"><ele>157.66666666666669</ele><time>2026-05-01T15:02:30Z</time></trkpt><trkpt lat="39.54325621659596" lon="9.365013527971696"><ele>160.0</ele><time>2026-05-01T15:02:31Z</time></trkpt><trkpt lat="39.54319688208501" lon="9.365267732936575"><ele>158.66666666666669</ele><time>2026-05-01T15:02:32Z</time></trkpt><trkpt lat="39.54316289263908" lon="9.365536161984723"><ele>157.33333333333334</ele><time>2026-05-01T15:02:33Z</time></trkpt><trkpt lat="39.543127548103" lon="9.365797866835704"><ele>156.0</ele><time>2026-05-01T15:02:34Z</time></trkpt><trkpt lat="39.54308564533815" lon="9.36605641980642"><ele>156.0</ele><time>2026-05-01T15:02:35Z</time></trkpt><trkpt lat="39.54304289474655" lon="9.366307572209056"><ele>156.0</ele><time>2026-05-01T15:02:36Z</time></trkpt><trkpt lat="39.54300043978622" lon="9.366558086072136"><ele>156.0</ele><time>2026-05-01T15:02:37Z</time></trkpt><trkpt lat="39.54296005378618" lon="9.366807569310005"><ele>156.33333333333334</ele><time>2026-05-01T15:02:38Z</time></trkpt><trkpt lat="39.54291717517614" lon="9.367053429215584"><ele>156.66666666666669</ele><time>2026-05-01T15:02:39Z</time></trkpt><trkpt lat="39.54286419286013" lon="9.367287688281964"><ele>157.0</ele><time>2026-05-01T15:02:40Z</time></trkpt><trkpt lat="39.54278867591281" lon="9.36751573266637"><ele>157.66666666666669</ele><time>2026-05-01T15:02:41Z</time></trkpt><trkpt lat="39.542690242258374" lon="9.367736443691864"><ele>158.33333333333334</ele><time>2026-05-01T15:02:42Z</time></trkpt><trkpt lat="39.54256603790688" lon="9.367936581010046"><ele>159.0</ele><time>2026-05-01T15:02:43Z</time></trkpt><trkpt lat="39.54241411053221" lon="9.36810555775748"><ele>159.0</ele><time>2026-05-01T15:02:44Z</time></trkpt><trkpt lat="39.54224334033629" lon="9.368242350778807"><ele>159.0</ele><time>2026-05-01T15:02:45Z</time></trkpt><trkpt lat="39.54206459772396" lon="9.368350452327544"><ele>159.0</ele><time>2026-05-01T15:02:46Z</time></trkpt><trkpt lat="39.54187579678165" lon="9.368423362464446"><ele>162.33333333333334</ele><time>2026-05-01T15:02:47Z</time></trkpt><trkpt lat="39.54167821991721" lon="9.368470951414611"><ele>165.66666666666669</ele><time>2026-05-01T15:02:48Z</time></trkpt><trkpt lat="39.541474648160325" lon="9.368505995701328"><ele>169.0</ele><time>2026-05-01T15:02:49Z</time></trkpt><trkpt lat="39.541274156712205" lon="9.368554419669234"><ele>175.66666666666669</ele><time>2026-05-01T15:02:50Z</time></trkpt><trkpt lat="39.54108119717344" lon="9.36861322586788"><ele>182.33333333333334</ele><time>2026-05-01T15:02:51Z</time></trkpt><trkpt lat="39.54089583012646" lon="9.368684514637165"><ele>189.0</ele><time>2026-05-01T15:02:52Z</time></trkpt><trkpt lat="39.540725821880294" lon="9.368781487543801"><ele>194.33333333333331</ele><time>2026-05-01T15:02:53Z</time></trkpt><trkpt lat="39.540577216350265" lon="9.3689140105053"><ele>199.66666666666666</ele><time>2026-05-01T15:02:54Z</time></trkpt><trkpt lat="39.54044713856304" lon="9.369075670580257"><ele>205.0</ele><time>2026-05-01T15:02:55Z</time></trkpt><trkpt lat="39.54033447526043" lon="9.369265385688678"><ele>205.0</ele><time>2026-05-01T15:02:56Z</time></trkpt><trkpt lat="39.540242635613545" lon="9.369477481809081"><ele>205.0</ele><time>2026-05-01T15:02:57Z</time></trkpt><trkpt lat="39.5401785725792" lon="9.369711463901346"><ele>205.0</ele><time>2026-05-01T15:02:58Z</time></trkpt><trkpt lat="39.54014513413843" lon="9.369959582572033"><ele>199.66666666666666</ele><time>2026-05-01T15:02:59Z</time></trkpt><trkpt lat="39.54014219544517" lon="9.370212724977836"><ele>194.33333333333331</ele><time>2026-05-01T15:03:00Z</time></trkpt><trkpt lat="39.540172765062906" lon="9.370467928785658"><ele>189.0</ele><time>2026-05-01T15:03:01Z</time></trkpt><trkpt lat="39.540223076473126" lon="9.370715806684583"><ele>189.0</ele><time>2026-05-01T15:03:02Z</time></trkpt><trkpt lat="39.54027740740357" lon="9.370967039230813"><ele>189.0</ele><time>2026-05-01T15:03:03Z</time></trkpt><trkpt lat="39.54033154032148" lon="9.371215450381001"><ele>189.0</ele><time>2026-05-01T15:03:04Z</time></trkpt><trkpt lat="39.540382540211745" lon="9.371474781502263"><ele>179.0</ele><time>2026-05-01T15:03:05Z</time></trkpt><trkpt lat="39.54043187761312" lon="9.371735362546024"><ele>169.0</ele><time>2026-05-01T15:03:06Z</time></trkpt><trkpt lat="39.54048245632217" lon="9.371994988561132"><ele>159.0</ele><time>2026-05-01T15:03:07Z</time></trkpt><trkpt lat="39.540534195786165" lon="9.372258300766994"><ele>158.66666666666666</ele><time>2026-05-01T15:03:08Z</time></trkpt><trkpt lat="39.54058758769407" lon="9.372522308214224"><ele>158.33333333333331</ele><time>2026-05-01T15:03:09Z</time></trkpt><trkpt lat="39.54064189466882" lon="9.372785367073343"><ele>158.0</ele><time>2026-05-01T15:03:10Z</time></trkpt><trkpt lat="39.54069196225993" lon="9.373041522162719"><ele>160.33333333333331</ele><time>2026-05-01T15:03:11Z</time></trkpt><trkpt lat="39.540732477672805" lon="9.373305509586839"><ele>162.66666666666666</ele><time>2026-05-01T15:03:12Z</time></trkpt><trkpt lat="39.540744620355106" lon="9.373568343465138"><ele>165.0</ele><time>2026-05-01T15:03:13Z</time></trkpt><trkpt lat="39.54072598075366" lon="9.373828305943904"><ele>164.0</ele><time>2026-05-01T15:03:14Z</time></trkpt><trkpt lat="39.54067861183939" lon="9.374079820326417"><ele>163.0</ele><time>2026-05-01T15:03:15Z</time></trkpt><trkpt lat="39.54060818513723" lon="9.374318932509624"><ele>162.0</ele><time>2026-05-01T15:03:16Z</time></trkpt><trkpt lat="39.540535309615514" lon="9.374557901701193"><ele>159.33333333333334</ele><time>2026-05-01T15:03:17Z</time></trkpt><trkpt lat="39.540473238137466" lon="9.37480612087722"><ele>156.66666666666669</ele><time>2026-05-01T15:03:18Z</time></trkpt><trkpt lat="39.54042931085173" lon="9.375052681646698"><ele>154.0</ele><time>2026-05-01T15:03:19Z</time></trkpt><trkpt lat="39.54041565294397" lon="9.375292109770752"><ele>156.66666666666669</ele><time>2026-05-01T15:03:20Z</time></trkpt><trkpt lat="39.54042596523937" lon="9.375521372598564"><ele>159.33333333333334</ele><time>2026-05-01T15:03:21Z</time></trkpt><trkpt lat="39.54046827828129" lon="9.375745369530456"><ele>162.0</ele><time>2026-05-01T15:03:22Z</time></trkpt><trkpt lat="39.540547824189204" lon="9.375964052887392"><ele>162.0</ele><time>2026-05-01T15:03:23Z</time></trkpt><trkpt lat="39.54065378740887" lon="9.3761610190806"><ele>162.0</ele><time>2026-05-01T15:03:24Z</time></trkpt><trkpt lat="39.54077796616054" lon="9.376339781926466"><ele>162.0</ele><time>2026-05-01T15:03:25Z</time></trkpt><trkpt lat="39.54092508674213" lon="9.37648508117837"><ele>159.66666666666666</ele><time>2026-05-01T15:03:26Z</time></trkpt><trkpt lat="39.541091432906754" lon="9.376606847480355"><ele>157.33333333333331</ele><time>2026-05-01T15:03:27Z</time></trkpt><trkpt lat="39.54126674897215" lon="9.376710648195917"><ele>155.0</ele><time>2026-05-01T15:03:28Z</time></trkpt><trkpt lat="39.5414369525104" lon="9.376817552151477"><ele>155.0</ele><time>2026-05-01T15:03:29Z</time></trkpt><trkpt lat="39.541606570501386" lon="9.376931481243563"><ele>155.0</ele><time>2026-05-01T15:03:30Z</time></trkpt><trkpt lat="39.541763911008005" lon="9.377065879093964"><ele>155.0</ele><time>2026-05-01T15:03:31Z</time></trkpt><trkpt lat="39.54190178481858" lon="9.377222599231896"><ele>151.0</ele><time>2026-05-01T15:03:32Z</time></trkpt><trkpt lat="39.542019266508625" lon="9.377399924260622"><ele>147.0</ele><time>2026-05-01T15:03:33Z</time></trkpt><trkpt lat="39.542114147313896" lon="9.37759360916121"><ele>143.0</ele><time>2026-05-01T15:03:34Z</time></trkpt><trkpt lat="39.54218540185701" lon="9.377806801990506"><ele>146.0</ele><time>2026-05-01T15:03:35Z</time></trkpt><trkpt lat="39.542233577223065" lon="9.378037881399733"><ele>149.0</ele><time>2026-05-01T15:03:36Z</time></trkpt><trkpt lat="39.54225558840857" lon="9.378277811645596"><ele>152.0</ele><time>2026-05-01T15:03:37Z</time></trkpt><trkpt lat="39.54225537828603" lon="9.378520700746346"><ele>152.0</ele><time>2026-05-01T15:03:38Z</time></trkpt><trkpt lat="39.542230089715446" lon="9.378765999122495"><ele>152.0</ele><time>2026-05-01T15:03:39Z</time></trkpt><trkpt lat="39.5421720539489" lon="9.378999713712709"><ele>152.0</ele><time>2026-05-01T15:03:40Z</time></trkpt><trkpt lat="39.542081214577784" lon="9.379215704491953"><ele>154.66666666666666</ele><time>2026-05-01T15:03:41Z</time></trkpt><trkpt lat="39.54196783025445" lon="9.379410921191145"><ele>157.33333333333334</ele><time>2026-05-01T15:03:42Z</time></trkpt><trkpt lat="39.54182930329587" lon="9.379594933410084"><ele>160.0</ele><time>2026-05-01T15:03:43Z</time></trkpt><trkpt lat="39.54167638905217" lon="9.379753499198427"><ele>160.0</ele><time>2026-05-01T15:03:44Z</time></trkpt><trkpt lat="39.541506893496226" lon="9.379887678465817"><ele>160.0</ele><time>2026-05-01T15:03:45Z</time></trkpt><trkpt lat="39.54132942701086" lon="9.380001491714632"><ele>160.0</ele><time>2026-05-01T15:03:46Z</time></trkpt><trkpt lat="39.54115955858524" lon="9.380109152631036"><ele>158.0</ele><time>2026-05-01T15:03:47Z</time></trkpt><trkpt lat="39.54098918049524" lon="9.380233348798276"><ele>156.0</ele><time>2026-05-01T15:03:48Z</time></trkpt><trkpt lat="39.540831665752805" lon="9.380377649458415"><ele>154.0</ele><time>2026-05-01T15:03:49Z</time></trkpt><trkpt lat="39.540692797712595" lon="9.380549810016216"><ele>154.0</ele><time>2026-05-01T15:03:50Z</time></trkpt><trkpt lat="39.54057578652463" lon="9.380752966841214"><ele>154.0</ele><time>2026-05-01T15:03:51Z</time></trkpt><trkpt lat="39.54048099735471" lon="9.380973236461077"><ele>154.0</ele><time>2026-05-01T15:03:52Z</time></trkpt><trkpt lat="39.54042125849824" lon="9.381219876675472"><ele>150.33333333333334</ele><time>2026-05-01T15:03:53Z</time></trkpt><trkpt lat="39.54039444056599" lon="9.381481291077701"><ele>146.66666666666666</ele><time>2026-05-01T15:03:54Z</time></trkpt><trkpt lat="39.54038837216485" lon="9.38174407988506"><ele>143.0</ele><time>2026-05-01T15:03:55Z</time></trkpt><trkpt lat="39.54039246122586" lon="9.38201029988534"><ele>139.66666666666666</ele><time>2026-05-01T15:03:56Z</time></trkpt><trkpt lat="39.54039015270487" lon="9.382280566858258"><ele>136.33333333333334</ele><time>2026-05-01T15:03:57Z</time></trkpt><trkpt lat="39.540381333982445" lon="9.382548901228366"><ele>133.0</ele><time>2026-05-01T15:03:58Z</time></trkpt><trkpt lat="39.54036497469574" lon="9.382818419549476"><ele>150.33333333333334</ele><time>2026-05-01T15:03:59Z</time></trkpt><trkpt lat="39.540344941597695" lon="9.383083152453372"><ele>167.66666666666666</ele><time>2026-05-01T15:04:00Z</time></trkpt><trkpt lat="39.54033546928533" lon="9.383350467482405"><ele>185.0</ele><time>2026-05-01T15:04:01Z</time></trkpt><trkpt lat="39.540324101641566" lon="9.383605278183099"><ele>180.66666666666666</ele><time>2026-05-01T15:04:02Z</time></trkpt><trkpt lat="39.540298774951594" lon="9.38384957238436"><ele>176.33333333333334</ele><time>2026-05-01T15:04:03Z</time></trkpt><trkpt lat="39.540227426303545" lon="9.384078698732877"><ele>172.0</ele><time>2026-05-01T15:04:04Z</time></trkpt><trkpt lat="39.54014347125232" lon="9.384295277704606"><ele>172.0</ele><time>2026-05-01T15:04:05Z</time></trkpt><trkpt lat="39.54004473826938" lon="9.384519260522875"><ele>172.0</ele><time>2026-05-01T15:04:06Z</time></trkpt><trkpt lat="39.53994737191832" lon="9.384735332419929"><ele>172.0</ele><time>2026-05-01T15:04:07Z</time></trkpt><trkpt lat="39.53984862614902" lon="9.384953137041446"><ele>166.0</ele><time>2026-05-01T15:04:08Z</time></trkpt><trkpt lat="39.53975066732263" lon="9.385172011784041"><ele>160.0</ele><time>2026-05-01T15:04:09Z</time></trkpt><trkpt lat="39.539665592573726" lon="9.385398918825736"><ele>154.0</ele><time>2026-05-01T15:04:10Z</time></trkpt><trkpt lat="39.53957113030298" lon="9.385625415047757"><ele>161.33333333333334</ele><time>2026-05-01T15:04:11Z</time></trkpt><trkpt lat="39.539493047207216" lon="9.385861480330881"><ele>168.66666666666666</ele><time>2026-05-01T15:04:12Z</time></trkpt><trkpt lat="39.53944063207657" lon="9.386108008453657"><ele>176.0</ele><time>2026-05-01T15:04:13Z</time></trkpt><trkpt lat="39.53941802346004" lon="9.386373573730028"><ele>176.0</ele><time>2026-05-01T15:04:14Z</time></trkpt><trkpt lat="39.539415564692014" lon="9.386642722951128"><ele>176.0</ele><time>2026-05-01T15:04:15Z</time></trkpt><trkpt lat="39.53940866686743" lon="9.38691611585885"><ele>176.0</ele><time>2026-05-01T15:04:16Z</time></trkpt><trkpt lat="39.53941028355089" lon="9.38719491688744"><ele>174.0</ele><time>2026-05-01T15:04:17Z</time></trkpt><trkpt lat="39.53942273451437" lon="9.38745509858553"><ele>172.0</ele><time>2026-05-01T15:04:18Z</time></trkpt><trkpt lat="39.53939441059608" lon="9.38772339070179"><ele>170.0</ele><time>2026-05-01T15:04:19Z</time></trkpt><trkpt lat="39.53939965542814" lon="9.388001011615623"><ele>169.33333333333331</ele><time>2026-05-01T15:04:20Z</time></trkpt><trkpt lat="39.539433427311586" lon="9.388287009510034"><ele>168.66666666666666</ele><time>2026-05-01T15:04:21Z</time></trkpt><trkpt lat="39.5394167341159" lon="9.388572938836534"><ele>168.0</ele><time>2026-05-01T15:04:22Z</time></trkpt><trkpt lat="39.539417016928525" lon="9.388847114201697"><ele>164.0</ele><time>2026-05-01T15:04:23Z</time></trkpt><trkpt lat="39.53938119524283" lon="9.389127848543335"><ele>160.0</ele><time>2026-05-01T15:04:24Z</time></trkpt><trkpt lat="39.53933077107016" lon="9.389400992037643"><ele>156.0</ele><time>2026-05-01T15:04:25Z</time></trkpt><trkpt lat="39.53927694951908" lon="9.389662426066602"><ele>148.66666666666666</ele><time>2026-05-01T15:04:26Z</time></trkpt><trkpt lat="39.53924045775789" lon="9.389945171354075"><ele>141.33333333333331</ele><time>2026-05-01T15:04:27Z</time></trkpt><trkpt lat="39.539189891552056" lon="9.390226759019452"><ele>134.0</ele><time>2026-05-01T15:04:28Z</time></trkpt><trkpt lat="39.53914013399996" lon="9.390507568227406"><ele>131.0</ele><time>2026-05-01T15:04:29Z</time></trkpt><trkpt lat="39.539092274718485" lon="9.390792684727705"><ele>128.0</ele><time>2026-05-01T15:04:30Z</time></trkpt><trkpt lat="39.539045015471295" lon="9.391084293289408"><ele>126.5</ele><time>2026-05-01T15:04:31Z</time></trkpt><trkpt lat="39.538993004926525" lon="9.39137463414328"><ele>125.0</ele><time>2026-05-01T15:04:32Z</time></trkpt><trkpt lat="39.53893727574238" lon="9.391668222020602"><ele>125.0</ele><time>2026-05-01T15:04:33Z</time></trkpt><trkpt lat="39.53888870100468" lon="9.391963370389343"><ele>125.0</ele><time>2026-05-01T15:04:34Z</time></trkpt><trkpt lat="39.53883876042669" lon="9.392257892460746"><ele>124.0</ele><time>2026-05-01T15:04:35Z</time></trkpt><trkpt lat="39.53879024363424" lon="9.392550854287874"><ele>123.0</ele><time>2026-05-01T15:04:36Z</time></trkpt><trkpt lat="39.53872400354448" lon="9.392844787643638"><ele>130.0</ele><time>2026-05-01T15:04:37Z</time></trkpt><trkpt lat="39.5386321826994" lon="9.393117791563872"><ele>137.0</ele><time>2026-05-01T15:04:38Z</time></trkpt><trkpt lat="39.53850489781451" lon="9.393354786077731"><ele>137.0</ele><time>2026-05-01T15:04:39Z</time></trkpt><trkpt lat="39.53837166218045" lon="9.393537893026995"><ele>137.0</ele><time>2026-05-01T15:04:40Z</time></trkpt><trkpt lat="39.53819833519939" lon="9.39371737318588"><ele>137.0</ele><time>2026-05-01T15:04:41Z</time></trkpt><trkpt lat="39.5380018284868" lon="9.39389383274529"><ele>130.0</ele><time>2026-05-01T15:04:42Z</time></trkpt><trkpt lat="39.53779982228158" lon="9.394063498226505"><ele>123.0</ele><time>2026-05-01T15:04:43Z</time></trkpt><trkpt lat="39.53760277853763" lon="9.394229589991523"><ele>123.0</ele><time>2026-05-01T15:04:44Z</time></trkpt><trkpt lat="39.53740974883304" lon="9.39439303998098"><ele>123.0</ele><time>2026-05-01T15:04:45Z</time></trkpt><trkpt lat="39.53721436255565" lon="9.394557618821292"><ele>121.0</ele><time>2026-05-01T15:04:46Z</time></trkpt><trkpt lat="39.537018332683886" lon="9.394722683708906"><ele>119.0</ele><time>2026-05-01T15:04:47Z</time></trkpt><trkpt lat="39.53682382500709" lon="9.394884877735635"><ele>119.0</ele><time>2026-05-01T15:04:48Z</time></trkpt><trkpt lat="39.53663175071087" lon="9.395047807533254"><ele>119.0</ele><time>2026-05-01T15:04:49Z</time></trkpt><trkpt lat="39.536445338586425" lon="9.395213697623264"><ele>119.0</ele><time>2026-05-01T15:04:50Z</time></trkpt><trkpt lat="39.53627939437974" lon="9.395415566415878"><ele>119.0</ele><time>2026-05-01T15:04:51Z</time></trkpt><trkpt lat="39.536122196482374" lon="9.395622901914445"><ele>109.0</ele><time>2026-05-01T15:04:52Z</time></trkpt><trkpt lat="39.535979133965675" lon="9.395851819230408"><ele>99.0</ele><time>2026-05-01T15:04:53Z</time></trkpt><trkpt lat="39.5358348226951" lon="9.396078401266195"><ele>99.0</ele><time>2026-05-01T15:04:54Z</time></trkpt><trkpt lat="39.535678017424786" lon="9.396302427540084"><ele>99.0</ele><time>2026-05-01T15:04:55Z</time></trkpt><trkpt lat="39.53552687387684" lon="9.396531384548103"><ele>88.5</ele><time>2026-05-01T15:04:56Z</time></trkpt><trkpt lat="39.53538682626833" lon="9.396773489362822"><ele>78.0</ele><time>2026-05-01T15:04:57Z</time></trkpt><trkpt lat="39.53523428527054" lon="9.39700730369924"><ele>73.0</ele><time>2026-05-01T15:04:58Z</time></trkpt><trkpt lat="39.53508250849825" lon="9.397243690860192"><ele>68.0</ele><time>2026-05-01T15:04:59Z</time></trkpt><trkpt lat="39.53492421034954" lon="9.397478363879705"><ele>68.0</ele><time>2026-05-01T15:05:00Z</time></trkpt><trkpt lat="39.53476254666389" lon="9.397713606386176"><ele>68.0</ele><time>2026-05-01T15:05:01Z</time></trkpt><trkpt lat="39.53460270389427" lon="9.397954296323375"><ele>68.0</ele><time>2026-05-01T15:05:02Z</time></trkpt><trkpt lat="39.53444659618418" lon="9.398199839081885"><ele>68.0</ele><time>2026-05-01T15:05:03Z</time></trkpt><trkpt lat="39.534286747105895" lon="9.398447443740249"><ele>68.0</ele><time>2026-05-01T15:05:04Z</time></trkpt><trkpt lat="39.53412391541031" lon="9.39869160709282"><ele>68.0</ele><time>2026-05-01T15:05:05Z</time></trkpt><trkpt lat="39.533960580046795" lon="9.39893844005968"><ele>70.0</ele><time>2026-05-01T15:05:06Z</time></trkpt><trkpt lat="39.533797294235214" lon="9.399186456027662"><ele>72.0</ele><time>2026-05-01T15:05:07Z</time></trkpt><trkpt lat="39.53363216676935" lon="9.399435594157476"><ele>78.0</ele><time>2026-05-01T15:05:08Z</time></trkpt><trkpt lat="39.533467553772034" lon="9.399687307699558"><ele>84.0</ele><time>2026-05-01T15:05:09Z</time></trkpt><trkpt lat="39.533301347999384" lon="9.399941854847262"><ele>84.0</ele><time>2026-05-01T15:05:10Z</time></trkpt><trkpt lat="39.533134662615815" lon="9.400193727855903"><ele>84.0</ele><time>2026-05-01T15:05:11Z</time></trkpt><trkpt lat="39.53296705396392" lon="9.400449087523077"><ele>81.5</ele><time>2026-05-01T15:05:12Z</time></trkpt><trkpt lat="39.532799011086844" lon="9.400701025773667"><ele>79.0</ele><time>2026-05-01T15:05:13Z</time></trkpt><trkpt lat="39.532630440327786" lon="9.400951490612101"><ele>79.0</ele><time>2026-05-01T15:05:14Z</time></trkpt><trkpt lat="39.532462995108986" lon="9.401198161516064"><ele>79.0</ele><time>2026-05-01T15:05:15Z</time></trkpt><trkpt lat="39.5322954507302" lon="9.401438380524773"><ele>80.0</ele><time>2026-05-01T15:05:16Z</time></trkpt><trkpt lat="39.53212173379232" lon="9.401660951453685"><ele>81.0</ele><time>2026-05-01T15:05:17Z</time></trkpt><trkpt lat="39.531941337026275" lon="9.401875196251028"><ele>78.5</ele><time>2026-05-01T15:05:18Z</time></trkpt><trkpt lat="39.53175920628443" lon="9.402084617610837"><ele>76.0</ele><time>2026-05-01T15:05:19Z</time></trkpt><trkpt lat="39.531562937699775" lon="9.40227146903211"><ele>76.0</ele><time>2026-05-01T15:05:20Z</time></trkpt><trkpt lat="39.5313651206723" lon="9.402455979972386"><ele>76.0</ele><time>2026-05-01T15:05:21Z</time></trkpt><trkpt lat="39.53116299699067" lon="9.402631132126526"><ele>73.0</ele><time>2026-05-01T15:05:22Z</time></trkpt><trkpt lat="39.530954970730356" lon="9.402794281078773"><ele>70.0</ele><time>2026-05-01T15:05:23Z</time></trkpt><trkpt lat="39.53074042333434" lon="9.402944400814969"><ele>67.5</ele><time>2026-05-01T15:05:24Z</time></trkpt><trkpt lat="39.53052459573986" lon="9.403102476463124"><ele>65.0</ele><time>2026-05-01T15:05:25Z</time></trkpt><trkpt lat="39.53029389852889" lon="9.40322763401306"><ele>77.0</ele><time>2026-05-01T15:05:26Z</time></trkpt><trkpt lat="39.53005759359573" lon="9.403337701146594"><ele>89.0</ele><time>2026-05-01T15:05:27Z</time></trkpt><trkpt lat="39.52981808269322" lon="9.40343395373316"><ele>89.0</ele><time>2026-05-01T15:05:28Z</time></trkpt><trkpt lat="39.52957573134315" lon="9.403518128982432"><ele>89.0</ele><time>2026-05-01T15:05:29Z</time></trkpt><trkpt lat="39.52933214296608" lon="9.403589658432526"><ele>93.5</ele><time>2026-05-01T15:05:30Z</time></trkpt><trkpt lat="39.52908402704112" lon="9.40362302161583"><ele>98.0</ele><time>2026-05-01T15:05:31Z</time></trkpt><trkpt lat="39.528834927989415" lon="9.40366341347518"><ele>94.5</ele><time>2026-05-01T15:05:32Z</time></trkpt><trkpt lat="39.52858768829565" lon="9.403712310370176"><ele>91.0</ele><time>2026-05-01T15:05:33Z</time></trkpt><trkpt lat="39.52833895573699" lon="9.403704702504266"><ele>91.0</ele><time>2026-05-01T15:05:34Z</time></trkpt><trkpt lat="39.528093085495485" lon="9.403705283317686"><ele>91.0</ele><time>2026-05-01T15:05:35Z</time></trkpt><trkpt lat="39.52785131636856" lon="9.403691566706602"><ele>89.5</ele><time>2026-05-01T15:05:36Z</time></trkpt><trkpt lat="39.52761214295769" lon="9.40366121343739"><ele>88.0</ele><time>2026-05-01T15:05:37Z</time></trkpt><trkpt lat="39.52737259907305" lon="9.403619415673496"><ele>88.0</ele><time>2026-05-01T15:05:38Z</time></trkpt><trkpt lat="39.52713945923655" lon="9.403570085154195"><ele>88.0</ele><time>2026-05-01T15:05:39Z</time></trkpt><trkpt lat="39.52689941447274" lon="9.403529931012557"><ele>87.0</ele><time>2026-05-01T15:05:40Z</time></trkpt><trkpt lat="39.52664912916854" lon="9.403472153009838"><ele>86.0</ele><time>2026-05-01T15:05:41Z</time></trkpt><trkpt lat="39.526382599127" lon="9.403422259295562"><ele>84.0</ele><time>2026-05-01T15:05:42Z</time></trkpt><trkpt lat="39.5261028118395" lon="9.403364017384181"><ele>82.0</ele><time>2026-05-01T15:05:43Z</time></trkpt><trkpt lat="39.525817400758044" lon="9.403296553252337"><ele>82.0</ele><time>2026-05-01T15:05:44Z</time></trkpt><trkpt lat="39.525534411134466" lon="9.403230231843512"><ele>82.0</ele><time>2026-05-01T15:05:45Z</time></trkpt><trkpt lat="39.525256734154524" lon="9.403175987259042"><ele>80.5</ele><time>2026-05-01T15:05:46Z</time></trkpt><trkpt lat="39.52498068673154" lon="9.403140324614345"><ele>79.0</ele><time>2026-05-01T15:05:47Z</time></trkpt><trkpt lat="39.524705519077095" lon="9.403121947939818"><ele>76.5</ele><time>2026-05-01T15:05:48Z</time></trkpt><trkpt lat="39.524431202479576" lon="9.403121289126615"><ele>74.0</ele><time>2026-05-01T15:05:49Z</time></trkpt><trkpt lat="39.52415209796145" lon="9.403133271533315"><ele>74.0</ele><time>2026-05-01T15:05:50Z</time></trkpt><trkpt lat="39.52387496604435" lon="9.403168053435284"><ele>74.0</ele><time>2026-05-01T15:05:51Z</time></trkpt><trkpt lat="39.52359976977782" lon="9.4032006471999"><ele>72.5</ele><time>2026-05-01T15:05:52Z</time></trkpt><trkpt lat="39.52332682749638" lon="9.403238039393639"><ele>71.0</ele><time>2026-05-01T15:05:53Z</time></trkpt><trkpt lat="39.523057612064186" lon="9.403282815372776"><ele>73.0</ele><time>2026-05-01T15:05:54Z</time></trkpt><trkpt lat="39.52279200430742" lon="9.40333638872538"><ele>75.0</ele><time>2026-05-01T15:05:55Z</time></trkpt><trkpt lat="39.5225266372102" lon="9.403389341413186"><ele>75.0</ele><time>2026-05-01T15:05:56Z</time></trkpt><trkpt lat="39.52226401456008" lon="9.40343716461914"><ele>75.0</ele><time>2026-05-01T15:05:57Z</time></trkpt><trkpt lat="39.522000056510635" lon="9.403480889822967"><ele>77.5</ele><time>2026-05-01T15:05:58Z</time></trkpt><trkpt lat="39.521737094974284" lon="9.403526010775664"><ele>80.0</ele><time>2026-05-01T15:05:59Z</time></trkpt><trkpt lat="39.521472741993364" lon="9.403574150832615"><ele>77.0</ele><time>2026-05-01T15:06:00Z</time></trkpt><trkpt lat="39.52120467195135" lon="9.403622283445742"><ele>74.0</ele><time>2026-05-01T15:06:01Z</time></trkpt><trkpt lat="39.52093536851262" lon="9.403670638864337"><ele>74.0</ele><time>2026-05-01T15:06:02Z</time></trkpt><trkpt lat="39.520667432505604" lon="9.403719758837083"><ele>74.0</ele><time>2026-05-01T15:06:03Z</time></trkpt><trkpt lat="39.520408177567575" lon="9.403767031638173"><ele>69.5</ele><time>2026-05-01T15:06:04Z</time></trkpt><trkpt lat="39.52015583358756" lon="9.403811393118673"><ele>65.0</ele><time>2026-05-01T15:06:05Z</time></trkpt><trkpt lat="39.5199054292605" lon="9.403863106559978"><ele>65.0</ele><time>2026-05-01T15:06:06Z</time></trkpt><trkpt lat="39.51965818978032" lon="9.403926909769217"><ele>65.0</ele><time>2026-05-01T15:06:07Z</time></trkpt><trkpt lat="39.51941060601408" lon="9.404011289317118"><ele>65.0</ele><time>2026-05-01T15:06:08Z</time></trkpt><trkpt lat="39.51916502935897" lon="9.404113316816417"><ele>65.0</ele><time>2026-05-01T15:06:09Z</time></trkpt><trkpt lat="39.51891813058475" lon="9.404230609516075"><ele>73.5</ele><time>2026-05-01T15:06:10Z</time></trkpt><trkpt lat="39.51866699577238" lon="9.40435063906696"><ele>82.0</ele><time>2026-05-01T15:06:11Z</time></trkpt><trkpt lat="39.51841914025125" lon="9.40447771723054"><ele>82.0</ele><time>2026-05-01T15:06:12Z</time></trkpt><trkpt lat="39.51818326690219" lon="9.404616594838032"><ele>82.0</ele><time>2026-05-01T15:06:13Z</time></trkpt><trkpt lat="39.51795798615611" lon="9.404765860275354"><ele>93.5</ele><time>2026-05-01T15:06:14Z</time></trkpt><trkpt lat="39.51773905024921" lon="9.404925603436622"><ele>105.0</ele><time>2026-05-01T15:06:15Z</time></trkpt><trkpt lat="39.51753029237494" lon="9.405092526713286"><ele>105.0</ele><time>2026-05-01T15:06:16Z</time></trkpt><trkpt lat="39.51731366709467" lon="9.40525805080687"><ele>105.0</ele><time>2026-05-01T15:06:17Z</time></trkpt><trkpt lat="39.517092527756645" lon="9.405419417946534"><ele>121.0</ele><time>2026-05-01T15:06:18Z</time></trkpt><trkpt lat="39.51686532371351" lon="9.405581809069973"><ele>137.0</ele><time>2026-05-01T15:06:19Z</time></trkpt><trkpt lat="39.516643389687154" lon="9.40574145321046"><ele>137.0</ele><time>2026-05-01T15:06:20Z</time></trkpt><trkpt lat="39.516417251108756" lon="9.405904371911724"><ele>137.0</ele><time>2026-05-01T15:06:21Z</time></trkpt><trkpt lat="39.51620121429043" lon="9.406058128932127"><ele>139.5</ele><time>2026-05-01T15:06:22.025Z</time></trkpt><trkpt lat="39.51597425994021" lon="9.406226606698507"><ele>142.0</ele><time>2026-05-01T15:06:23.026Z</time></trkpt><trkpt lat="39.515748194332346" lon="9.406394379862517"><ele>97.0</ele><time>2026-05-01T15:06:24.026Z</time></trkpt><trkpt lat="39.514909356353385" lon="9.407096282002891"><ele>96.0</ele><time>2026-05-01T15:06:28.6Z</time></trkpt><trkpt lat="39.514718097632056" lon="9.40725173646011"><ele>95.0</ele><time>2026-05-01T15:06:29.55Z</time></trkpt><trkpt lat="39.51452918865131" lon="9.407424926610847"><ele>95.0</ele><time>2026-05-01T15:06:30.5Z</time></trkpt><trkpt lat="39.51433533054418" lon="9.407592053638538"><ele>95.0</ele><time>2026-05-01T15:06:31.45Z</time></trkpt><trkpt lat="39.51415781667487" lon="9.407797930579385"><ele>89.0</ele><time>2026-05-01T15:06:32.4Z</time></trkpt><trkpt lat="39.513986088598834" lon="9.408005005317428"><ele>83.0</ele><time>2026-05-01T15:06:33.35Z</time></trkpt><trkpt lat="39.5138190407825" lon="9.408204722291108"><ele>87.33333333333334</ele><time>2026-05-01T15:06:34.3Z</time></trkpt><trkpt lat="39.5136526239832" lon="9.40839690167945"><ele>91.66666666666667</ele><time>2026-05-01T15:06:35.25Z</time></trkpt><trkpt lat="39.513478925287735" lon="9.408571010591945"><ele>96.0</ele><time>2026-05-01T15:06:36.2Z</time></trkpt><trkpt lat="39.51329251860943" lon="9.40872695505772"><ele>94.0</ele><time>2026-05-01T15:06:37.15Z</time></trkpt><trkpt lat="39.51309079160438" lon="9.408867875731332"><ele>92.0</ele><time>2026-05-01T15:06:38.1Z</time></trkpt><trkpt lat="39.51288633082279" lon="9.409011016985689"><ele>92.0</ele><time>2026-05-01T15:06:39.05Z</time></trkpt><trkpt lat="39.512673123733855" lon="9.409128926189995"><ele>92.0</ele><time>2026-05-01T15:06:40Z</time></trkpt><trkpt lat="39.51245021284651" lon="9.40926097169194"><ele>92.0</ele><time>2026-05-01T15:06:41Z</time></trkpt><trkpt lat="39.51222225414855" lon="9.409380552474229"><ele>92.0</ele><time>2026-05-01T15:06:42Z</time></trkpt><trkpt lat="39.51201782389909" lon="9.409550102593142"><ele>88.0</ele><time>2026-05-01T15:06:43Z</time></trkpt><trkpt lat="39.511814474966435" lon="9.40974293134224"><ele>84.0</ele><time>2026-05-01T15:06:44Z</time></trkpt><trkpt lat="39.51163562522923" lon="9.409976929480969"><ele>84.0</ele><time>2026-05-01T15:06:45Z</time></trkpt><trkpt lat="39.511485064217574" lon="9.410244176980324"><ele>84.0</ele><time>2026-05-01T15:06:46Z</time></trkpt><trkpt lat="39.51136326424022" lon="9.410539635105808"><ele>81.0</ele><time>2026-05-01T15:06:47Z</time></trkpt><trkpt lat="39.51126871480536" lon="9.410853257156498"><ele>78.0</ele><time>2026-05-01T15:06:48Z</time></trkpt><trkpt lat="39.511201193734145" lon="9.411174842011917"><ele>86.0</ele><time>2026-05-01T15:06:49Z</time></trkpt><trkpt lat="39.5111526291619" lon="9.41150379058483"><ele>94.0</ele><time>2026-05-01T15:06:50Z</time></trkpt><trkpt lat="39.511110083399096" lon="9.41183294129954"><ele>94.0</ele><time>2026-05-01T15:06:51Z</time></trkpt><trkpt lat="39.511059788012474" lon="9.412152874675385"><ele>94.0</ele><time>2026-05-01T15:06:52Z</time></trkpt><trkpt lat="39.51100033607034" lon="9.412462825632192"><ele>93.0</ele><time>2026-05-01T15:06:53Z</time></trkpt><trkpt lat="39.51093642760639" lon="9.41276577318189"><ele>92.0</ele><time>2026-05-01T15:06:54Z</time></trkpt><trkpt lat="39.51086801701159" lon="9.413062294211272"><ele>89.0</ele><time>2026-05-01T15:06:55Z</time></trkpt><trkpt lat="39.51079101836079" lon="9.41335346025509"><ele>86.0</ele><time>2026-05-01T15:06:56Z</time></trkpt><trkpt lat="39.51070828753736" lon="9.41363201448646"><ele>83.5</ele><time>2026-05-01T15:06:57Z</time></trkpt><trkpt lat="39.51061914277392" lon="9.413912572665943"><ele>81.0</ele><time>2026-05-01T15:06:58Z</time></trkpt><trkpt lat="39.510526400382915" lon="9.414190816674864"><ele>81.0</ele><time>2026-05-01T15:06:59Z</time></trkpt><trkpt lat="39.51042413077142" lon="9.414466480516845"><ele>81.0</ele><time>2026-05-01T15:07:00Z</time></trkpt><trkpt lat="39.51031506306704" lon="9.414737154819033"><ele>103.5</ele><time>2026-05-01T15:07:01Z</time></trkpt><trkpt lat="39.51020521651309" lon="9.415008542613203"><ele>126.0</ele><time>2026-05-01T15:07:02Z</time></trkpt><trkpt lat="39.510095973956965" lon="9.415280475658417"><ele>138.5</ele><time>2026-05-01T15:07:03Z</time></trkpt><trkpt lat="39.509988244917444" lon="9.415552250765963"><ele>151.0</ele><time>2026-05-01T15:07:04Z</time></trkpt><trkpt lat="39.50987992390588" lon="9.415826129880747"><ele>151.0</ele><time>2026-05-01T15:07:05Z</time></trkpt><trkpt lat="39.50976621476468" lon="9.416106884539165"><ele>151.0</ele><time>2026-05-01T15:07:06.025Z</time></trkpt><trkpt lat="39.50965297148182" lon="9.416381394760686"><ele>144.0</ele><time>2026-05-01T15:07:07.025Z</time></trkpt><trkpt lat="39.509538999411156" lon="9.416653198836633"><ele>137.0</ele><time>2026-05-01T15:07:08.025Z</time></trkpt><trkpt lat="39.50942537714318" lon="9.41692145956236"><ele>110.0</ele><time>2026-05-01T15:07:09.026Z</time></trkpt><trkpt lat="39.50859075792272" lon="9.417936079429706"><ele>98.0</ele><time>2026-05-01T15:07:14.5Z</time></trkpt><trkpt lat="39.50840511601342" lon="9.418056466794027"><ele>86.0</ele><time>2026-05-01T15:07:15.45Z</time></trkpt><trkpt lat="39.508211384472595" lon="9.418150339374439"><ele>74.0</ele><time>2026-05-01T15:07:16.4Z</time></trkpt><trkpt lat="39.5080072671416" lon="9.41819945857879"><ele>75.66666666666667</ele><time>2026-05-01T15:07:17.35Z</time></trkpt><trkpt lat="39.5078132014271" lon="9.418291823394739"><ele>77.33333333333333</ele><time>2026-05-01T15:07:18.3Z</time></trkpt><trkpt lat="39.5076109231127" lon="9.418375591221347"><ele>79.0</ele><time>2026-05-01T15:07:19.25Z</time></trkpt><trkpt lat="39.50741788234237" lon="9.418494988185289"><ele>79.0</ele><time>2026-05-01T15:07:20.2Z</time></trkpt><trkpt lat="39.50723621456321" lon="9.418645021446908"><ele>79.0</ele><time>2026-05-01T15:07:21.15Z</time></trkpt><trkpt lat="39.507066129768425" lon="9.41881993891664"><ele>79.0</ele><time>2026-05-01T15:07:22.1Z</time></trkpt><trkpt lat="39.50691252092929" lon="9.419019866732913"><ele>83.0</ele><time>2026-05-01T15:07:23.05Z</time></trkpt><trkpt lat="39.50677501572359" lon="9.419244580741655"><ele>87.0</ele><time>2026-05-01T15:07:24Z</time></trkpt><trkpt lat="39.5066478698293" lon="9.419498305509867"><ele>79.0</ele><time>2026-05-01T15:07:25Z</time></trkpt><trkpt lat="39.50652488471513" lon="9.419754537495331"><ele>71.0</ele><time>2026-05-01T15:07:26Z</time></trkpt><trkpt lat="39.50640141333193" lon="9.420007932150988"><ele>71.0</ele><time>2026-05-01T15:07:27Z</time></trkpt><trkpt lat="39.50627977650674" lon="9.420266172646812"><ele>71.0</ele><time>2026-05-01T15:07:28Z</time></trkpt><trkpt lat="39.506167139144374" lon="9.420541120381344"><ele>83.5</ele><time>2026-05-01T15:07:29Z</time></trkpt><trkpt lat="39.50606283563853" lon="9.420823327938256"><ele>96.0</ele><time>2026-05-01T15:07:30Z</time></trkpt><trkpt lat="39.50596255291671" lon="9.42110980435917"><ele>85.5</ele><time>2026-05-01T15:07:31Z</time></trkpt><trkpt lat="39.50584977478716" lon="9.421386579079353"><ele>75.0</ele><time>2026-05-01T15:07:32Z</time></trkpt><trkpt lat="39.50574427177592" lon="9.421667629772704"><ele>75.0</ele><time>2026-05-01T15:07:33Z</time></trkpt><trkpt lat="39.505679193200756" lon="9.421972996598669"><ele>75.0</ele><time>2026-05-01T15:07:34Z</time></trkpt><trkpt lat="39.505583155014754" lon="9.422254550742558"><ele>73.0</ele><time>2026-05-01T15:07:35Z</time></trkpt><trkpt lat="39.50548459835778" lon="9.42253395623766"><ele>71.0</ele><time>2026-05-01T15:07:36Z</time></trkpt><trkpt lat="39.50538727426578" lon="9.422809848991152"><ele>83.5</ele><time>2026-05-01T15:07:37Z</time></trkpt><trkpt lat="39.50528743662648" lon="9.423086115442837"><ele>96.0</ele><time>2026-05-01T15:07:38Z</time></trkpt><trkpt lat="39.50518431390534" lon="9.42335875927557"><ele>96.0</ele><time>2026-05-01T15:07:39Z</time></trkpt><trkpt lat="39.50507717695273" lon="9.423626570923986"><ele>96.0</ele><time>2026-05-01T15:07:40Z</time></trkpt><trkpt lat="39.50496603166454" lon="9.42388990189504"><ele>88.0</ele><time>2026-05-01T15:07:41Z</time></trkpt><trkpt lat="39.50485106760198" lon="9.424153499798875"><ele>80.0</ele><time>2026-05-01T15:07:42Z</time></trkpt><trkpt lat="39.50472681436031" lon="9.424435760671372"><ele>71.0</ele><time>2026-05-01T15:07:43Z</time></trkpt><trkpt lat="39.50460112515497" lon="9.424726873939687"><ele>62.0</ele><time>2026-05-01T15:07:44Z</time></trkpt><trkpt lat="39.50448260106267" lon="9.425000476820445"><ele>61.0</ele><time>2026-05-01T15:07:45Z</time></trkpt><trkpt lat="39.50437194941965" lon="9.425261272517588"><ele>60.0</ele><time>2026-05-01T15:07:46Z</time></trkpt><trkpt lat="39.504253810443004" lon="9.425538362956075"><ele>62.0</ele><time>2026-05-01T15:07:47Z</time></trkpt><trkpt lat="39.50413582655408" lon="9.425814241059172"><ele>64.0</ele><time>2026-05-01T15:07:48Z</time></trkpt><trkpt lat="39.50401619567658" lon="9.42609125791984"><ele>65.0</ele><time>2026-05-01T15:07:49Z</time></trkpt><trkpt lat="39.50389877504258" lon="9.4263657057651"><ele>66.0</ele><time>2026-05-01T15:07:50Z</time></trkpt><trkpt lat="39.50378110694877" lon="9.426641463881964"><ele>74.0</ele><time>2026-05-01T15:07:51Z</time></trkpt><trkpt lat="39.503669568510695" lon="9.426919313813904"><ele>82.0</ele><time>2026-05-01T15:07:52Z</time></trkpt><trkpt lat="39.503571717095674" lon="9.427200356782356"><ele>85.0</ele><time>2026-05-01T15:07:53Z</time></trkpt><trkpt lat="39.50349224398223" lon="9.42748822075395"><ele>88.0</ele><time>2026-05-01T15:07:54Z</time></trkpt><trkpt lat="39.50343460935223" lon="9.427785490451095"><ele>87.5</ele><time>2026-05-01T15:07:55Z</time></trkpt><trkpt lat="39.50340718411229" lon="9.42808829275567"><ele>87.0</ele><time>2026-05-01T15:07:56Z</time></trkpt><trkpt lat="39.50340748634985" lon="9.428402846846291"><ele>87.0</ele><time>2026-05-01T15:07:57Z</time></trkpt><trkpt lat="39.50342434208883" lon="9.42871556745653"><ele>87.0</ele><time>2026-05-01T15:07:58Z</time></trkpt><trkpt lat="39.503445974757696" lon="9.42903110039168"><ele>83.5</ele><time>2026-05-01T15:07:59Z</time></trkpt><trkpt lat="39.50346876625589" lon="9.42934730636833"><ele>80.0</ele><time>2026-05-01T15:08:00Z</time></trkpt><trkpt lat="39.503492352147155" lon="9.42966520194726"><ele>77.5</ele><time>2026-05-01T15:08:01Z</time></trkpt><trkpt lat="39.50351645433334" lon="9.429984023657548"><ele>75.0</ele><time>2026-05-01T15:08:02Z</time></trkpt><trkpt lat="39.503541492704805" lon="9.430301133919407"><ele>76.5</ele><time>2026-05-01T15:08:03Z</time></trkpt><trkpt lat="39.503566319771444" lon="9.430620518887713"><ele>78.0</ele><time>2026-05-01T15:08:04Z</time></trkpt><trkpt lat="39.50359002855772" lon="9.43093592766431"><ele>78.0</ele><time>2026-05-01T15:08:05Z</time></trkpt><trkpt lat="39.503611565762796" lon="9.431254287086311"><ele>78.0</ele><time>2026-05-01T15:08:06Z</time></trkpt><trkpt lat="39.503633381271776" lon="9.431569040757784"><ele>84.0</ele><time>2026-05-01T15:08:07Z</time></trkpt><trkpt lat="39.50364989568063" lon="9.431881612700082"><ele>90.0</ele><time>2026-05-01T15:08:08Z</time></trkpt><trkpt lat="39.503653058370176" lon="9.432198963868363"><ele>92.5</ele><time>2026-05-01T15:08:09Z</time></trkpt><trkpt lat="39.50362921367655" lon="9.43251577517391"><ele>95.0</ele><time>2026-05-01T15:08:10Z</time></trkpt><trkpt lat="39.50357325998548" lon="9.432820707257632"><ele>91.0</ele><time>2026-05-01T15:08:11Z</time></trkpt><trkpt lat="39.50349718333685" lon="9.433124172827819"><ele>87.0</ele><time>2026-05-01T15:08:12Z</time></trkpt><trkpt lat="39.50340538595414" lon="9.433423083885119"><ele>87.0</ele><time>2026-05-01T15:08:13Z</time></trkpt><trkpt lat="39.50331420224079" lon="9.43371876459497"><ele>87.0</ele><time>2026-05-01T15:08:14Z</time></trkpt><trkpt lat="39.503226251973125" lon="9.434010351825826"><ele>82.0</ele><time>2026-05-01T15:08:15Z</time></trkpt><trkpt lat="39.503146472946185" lon="9.434306083346788"><ele>77.0</ele><time>2026-05-01T15:08:16Z</time></trkpt><trkpt lat="39.50307588677477" lon="9.434602883600476"><ele>75.0</ele><time>2026-05-01T15:08:17Z</time></trkpt><trkpt lat="39.50303978430658" lon="9.434910606207724"><ele>73.0</ele><time>2026-05-01T15:08:18Z</time></trkpt><trkpt lat="39.503036231795015" lon="9.435224243896092"><ele>75.0</ele><time>2026-05-01T15:08:19Z</time></trkpt><trkpt lat="39.50306209831578" lon="9.435538111585387"><ele>77.0</ele><time>2026-05-01T15:08:20Z</time></trkpt><trkpt lat="39.5031243449768" lon="9.435846480931085"><ele>77.0</ele><time>2026-05-01T15:08:21Z</time></trkpt><trkpt lat="39.50320059321561" lon="9.436144792662715"><ele>77.0</ele><time>2026-05-01T15:08:22Z</time></trkpt><trkpt lat="39.50326974986769" lon="9.436441766347254"><ele>85.0</ele><time>2026-05-01T15:08:23Z</time></trkpt><trkpt lat="39.50331255767053" lon="9.436737505989793"><ele>93.0</ele><time>2026-05-01T15:08:24Z</time></trkpt><trkpt lat="39.50333009677231" lon="9.437034846118875"><ele>99.0</ele><time>2026-05-01T15:08:25Z</time></trkpt><trkpt lat="39.50331886846183" lon="9.437322957864748"><ele>105.0</ele><time>2026-05-01T15:08:26Z</time></trkpt><trkpt lat="39.50327376186931" lon="9.437600879641764"><ele>111.0</ele><time>2026-05-01T15:08:27Z</time></trkpt><trkpt lat="39.503204326205584" lon="9.437875394912785"><ele>106.5</ele><time>2026-05-01T15:08:28Z</time></trkpt><trkpt lat="39.50313168261171" lon="9.43815063686151"><ele>102.0</ele><time>2026-05-01T15:08:29Z</time></trkpt><trkpt lat="39.503061648475615" lon="9.438428860211443"><ele>102.0</ele><time>2026-05-01T15:08:30Z</time></trkpt><trkpt lat="39.502991994775265" lon="9.438707460178753"><ele>102.0</ele><time>2026-05-01T15:08:31Z</time></trkpt><trkpt lat="39.50292300177035" lon="9.438987763527354"><ele>101.66666666666666</ele><time>2026-05-01T15:08:32Z</time></trkpt><trkpt lat="39.50286713548432" lon="9.439253935740158"><ele>101.33333333333333</ele><time>2026-05-01T15:08:33Z</time></trkpt><trkpt lat="39.502823179939966" lon="9.439540316895465"><ele>101.0</ele><time>2026-05-01T15:08:34Z</time></trkpt><trkpt lat="39.50277773967972" lon="9.439831479264635"><ele>97.5</ele><time>2026-05-01T15:08:35Z</time></trkpt><trkpt lat="39.50272368604135" lon="9.44012305787836"><ele>94.0</ele><time>2026-05-01T15:08:36Z</time></trkpt><trkpt lat="39.502669991372514" lon="9.440416811890557"><ele>94.5</ele><time>2026-05-01T15:08:37Z</time></trkpt><trkpt lat="39.502620150058085" lon="9.440714788033013"><ele>95.0</ele><time>2026-05-01T15:08:38Z</time></trkpt><trkpt lat="39.502577592367054" lon="9.441013242092378"><ele>94.0</ele><time>2026-05-01T15:08:39Z</time></trkpt><trkpt lat="39.50254205166839" lon="9.44131100717814"><ele>93.0</ele><time>2026-05-01T15:08:40Z</time></trkpt><trkpt lat="39.502513152476794" lon="9.441612089642618"><ele>93.0</ele><time>2026-05-01T15:08:41Z</time></trkpt><trkpt lat="39.502484794619" lon="9.441918183185432"><ele>93.0</ele><time>2026-05-01T15:08:42Z</time></trkpt><trkpt lat="39.50245208470487" lon="9.442222517063765"><ele>89.5</ele><time>2026-05-01T15:08:43Z</time></trkpt><trkpt lat="39.50241429236368" lon="9.442526408513409"><ele>86.0</ele><time>2026-05-01T15:08:44Z</time></trkpt><trkpt lat="39.50237879702695" lon="9.44283036278351"><ele>85.0</ele><time>2026-05-01T15:08:45Z</time></trkpt><trkpt lat="39.5023459182232" lon="9.44313734039604"><ele>84.0</ele><time>2026-05-01T15:08:46Z</time></trkpt><trkpt lat="39.50231117570412" lon="9.443447709816436"><ele>84.0</ele><time>2026-05-01T15:08:47Z</time></trkpt><trkpt lat="39.502274714337986" lon="9.443759940192411"><ele>84.0</ele><time>2026-05-01T15:08:48Z</time></trkpt><trkpt lat="39.502239615715446" lon="9.444073099101695"><ele>83.0</ele><time>2026-05-01T15:08:49Z</time></trkpt><trkpt lat="39.50220398960177" lon="9.444390010037392"><ele>82.0</ele><time>2026-05-01T15:08:50Z</time></trkpt><trkpt lat="39.502168198833736" lon="9.444711373193464"><ele>78.5</ele><time>2026-05-01T15:08:51Z</time></trkpt><trkpt lat="39.50213243921351" lon="9.445033765209141"><ele>75.0</ele><time>2026-05-01T15:08:52Z</time></trkpt><trkpt lat="39.50209771755425" lon="9.445358264397726"><ele>86.0</ele><time>2026-05-01T15:08:53Z</time></trkpt><trkpt lat="39.50206068437918" lon="9.445692187361216"><ele>97.0</ele><time>2026-05-01T15:08:54Z</time></trkpt><trkpt lat="39.50202010387578" lon="9.446037226850786"><ele>96.0</ele><time>2026-05-01T15:08:55Z</time></trkpt><trkpt lat="39.50197798470649" lon="9.446389499508962"><ele>95.0</ele><time>2026-05-01T15:08:56Z</time></trkpt><trkpt lat="39.50193629611595" lon="9.446743095918661"><ele>95.0</ele><time>2026-05-01T15:08:57Z</time></trkpt><trkpt lat="39.50190220587217" lon="9.44707176422031"><ele>95.0</ele><time>2026-05-01T15:08:58Z</time></trkpt><trkpt lat="39.50186012310774" lon="9.447423121793722"><ele>92.0</ele><time>2026-05-01T15:08:59Z</time></trkpt><trkpt lat="39.501819552684324" lon="9.447775469771525"><ele>89.0</ele><time>2026-05-01T15:09:00Z</time></trkpt><trkpt lat="39.50178046640553" lon="9.448121815620503"><ele>87.5</ele><time>2026-05-01T15:09:01Z</time></trkpt><trkpt lat="39.50174045195725" lon="9.448456885226182"><ele>86.0</ele><time>2026-05-01T15:09:02Z</time></trkpt><trkpt lat="39.5016964234357" lon="9.448778797452029"><ele>79.5</ele><time>2026-05-01T15:09:03Z</time></trkpt><trkpt lat="39.50164258131503" lon="9.449094667802806"><ele>73.0</ele><time>2026-05-01T15:09:04Z</time></trkpt><trkpt lat="39.50157878303327" lon="9.449410289725808"><ele>68.0</ele><time>2026-05-01T15:09:05Z</time></trkpt><trkpt lat="39.50149216180105" lon="9.449709232562977"><ele>63.0</ele><time>2026-05-01T15:09:06Z</time></trkpt><trkpt lat="39.50138225901234" lon="9.449998263706167"><ele>63.0</ele><time>2026-05-01T15:09:07Z</time></trkpt><trkpt lat="39.501263078119635" lon="9.450272280923825"><ele>63.0</ele><time>2026-05-01T15:09:08Z</time></trkpt><trkpt lat="39.5011315326975" lon="9.45053238385233"><ele>68.5</ele><time>2026-05-01T15:09:09Z</time></trkpt><trkpt lat="39.500977675033546" lon="9.450775394014283"><ele>74.0</ele><time>2026-05-01T15:09:10Z</time></trkpt><trkpt lat="39.50080050175746" lon="9.451004226225194"><ele>74.0</ele><time>2026-05-01T15:09:11Z</time></trkpt><trkpt lat="39.500610466586124" lon="9.451213600454247"><ele>74.0</ele><time>2026-05-01T15:09:12Z</time></trkpt><trkpt lat="39.50040924142598" lon="9.45141499115732"><ele>71.0</ele><time>2026-05-01T15:09:13Z</time></trkpt><trkpt lat="39.500191714984915" lon="9.451602702699395"><ele>68.0</ele><time>2026-05-01T15:09:14Z</time></trkpt><trkpt lat="39.49996576929821" lon="9.451765589070039"><ele>68.0</ele><time>2026-05-01T15:09:15Z</time></trkpt><trkpt lat="39.49972872392193" lon="9.45189861786248"><ele>68.0</ele><time>2026-05-01T15:09:16Z</time></trkpt><trkpt lat="39.49948274088955" lon="9.452003861637822"><ele>69.5</ele><time>2026-05-01T15:09:17Z</time></trkpt><trkpt lat="39.499233437452176" lon="9.452082257785284"><ele>71.0</ele><time>2026-05-01T15:09:18Z</time></trkpt><trkpt lat="39.49897691839964" lon="9.452130852504055"><ele>61.5</ele><time>2026-05-01T15:09:19Z</time></trkpt><trkpt lat="39.49871664193433" lon="9.452155033335348"><ele>52.0</ele><time>2026-05-01T15:09:20Z</time></trkpt><trkpt lat="39.498454523174466" lon="9.452159880760105"><ele>52.0</ele><time>2026-05-01T15:09:21Z</time></trkpt><trkpt lat="39.498194453541956" lon="9.452152465455807"><ele>52.0</ele><time>2026-05-01T15:09:22Z</time></trkpt><trkpt lat="39.49793438107108" lon="9.452142680828485"><ele>50.5</ele><time>2026-05-01T15:09:23Z</time></trkpt><trkpt lat="39.497675575882106" lon="9.452126420199987"><ele>49.0</ele><time>2026-05-01T15:09:24Z</time></trkpt><trkpt lat="39.49741851825274" lon="9.452099300253662"><ele>53.5</ele><time>2026-05-01T15:09:25Z</time></trkpt><trkpt lat="39.497159380128416" lon="9.452058727993164"><ele>58.0</ele><time>2026-05-01T15:09:26Z</time></trkpt><trkpt lat="39.49690181722265" lon="9.452002044052984"><ele>58.0</ele><time>2026-05-01T15:09:27Z</time></trkpt><trkpt lat="39.49664374534771" lon="9.451929915263847"><ele>58.0</ele><time>2026-05-01T15:09:28Z</time></trkpt><trkpt lat="39.496382143315536" lon="9.451845945685495"><ele>53.5</ele><time>2026-05-01T15:09:29Z</time></trkpt><trkpt lat="39.496121527765744" lon="9.451758097050455"><ele>49.0</ele><time>2026-05-01T15:09:30Z</time></trkpt><trkpt lat="39.495860627070265" lon="9.451673622961474"><ele>49.0</ele><time>2026-05-01T15:09:31Z</time></trkpt><trkpt lat="39.4955949720018" lon="9.4516090040757"><ele>49.0</ele><time>2026-05-01T15:09:32Z</time></trkpt><trkpt lat="39.49532373443765" lon="9.451569264908558"><ele>48.5</ele><time>2026-05-01T15:09:33Z</time></trkpt><trkpt lat="39.49505924561499" lon="9.451548560850945"><ele>48.0</ele><time>2026-05-01T15:09:34Z</time></trkpt><trkpt lat="39.49480152347702" lon="9.451542676498587"><ele>45.0</ele><time>2026-05-01T15:09:35Z</time></trkpt><trkpt lat="39.49454556650791" lon="9.451554301795007"><ele>42.0</ele><time>2026-05-01T15:09:36Z</time></trkpt><trkpt lat="39.49429341131866" lon="9.451593419771095"><ele>42.0</ele><time>2026-05-01T15:09:37Z</time></trkpt><trkpt lat="39.49404746489444" lon="9.451664513736958"><ele>42.0</ele><time>2026-05-01T15:09:38Z</time></trkpt><trkpt lat="39.49380747211266" lon="9.451757920772414"><ele>47.0</ele><time>2026-05-01T15:09:39Z</time></trkpt><trkpt lat="39.49356210495109" lon="9.451844588040691"><ele>52.0</ele><time>2026-05-01T15:09:40Z</time></trkpt><trkpt lat="39.49331999961221" lon="9.451914144578575"><ele>52.0</ele><time>2026-05-01T15:09:41Z</time></trkpt><trkpt lat="39.49309862553169" lon="9.451969074430021"><ele>52.0</ele><time>2026-05-01T15:09:42Z</time></trkpt><trkpt lat="39.4928812898731" lon="9.452011885303456"><ele>52.0</ele><time>2026-05-01T15:09:43Z</time></trkpt><trkpt lat="39.49266851241426" lon="9.452036560492948"><ele>56.0</ele><time>2026-05-01T15:09:44Z</time></trkpt><trkpt lat="39.49245182607225" lon="9.45205528282316"><ele>60.0</ele><time>2026-05-01T15:09:45Z</time></trkpt><trkpt lat="39.4922341425144" lon="9.452079907070365"><ele>64.0</ele><time>2026-05-01T15:09:46Z</time></trkpt><trkpt lat="39.49201515333716" lon="9.452106726766893"><ele>56.33333333333333</ele><time>2026-05-01T15:09:47Z</time></trkpt><trkpt lat="39.49179573354215" lon="9.452132200864831"><ele>48.666666666666664</ele><time>2026-05-01T15:09:48Z</time></trkpt><trkpt lat="39.49157220049051" lon="9.452161909710698"><ele>41.0</ele><time>2026-05-01T15:09:49Z</time></trkpt><trkpt lat="39.49134889537523" lon="9.45220285724399"><ele>42.5</ele><time>2026-05-01T15:09:50Z</time></trkpt><trkpt lat="39.49112489064634" lon="9.452261092546317"><ele>44.0</ele><time>2026-05-01T15:09:51Z</time></trkpt><trkpt lat="39.49089911467463" lon="9.452334552999076"><ele>44.0</ele><time>2026-05-01T15:09:52Z</time></trkpt><trkpt lat="39.49067128861835" lon="9.452417628636788"><ele>44.0</ele><time>2026-05-01T15:09:53Z</time></trkpt><trkpt lat="39.490442776561956" lon="9.452506357781584"><ele>47.0</ele><time>2026-05-01T15:09:54Z</time></trkpt><trkpt lat="39.490215333977304" lon="9.452590644009813"><ele>50.0</ele><time>2026-05-01T15:09:55Z</time></trkpt><trkpt lat="39.48998930782673" lon="9.4526725626244"><ele>50.0</ele><time>2026-05-01T15:09:56Z</time></trkpt><trkpt lat="39.489765043101016" lon="9.452756638695295"><ele>50.0</ele><time>2026-05-01T15:09:57Z</time></trkpt><trkpt lat="39.48954191436606" lon="9.452832198530462"><ele>50.5</ele><time>2026-05-01T15:09:58Z</time></trkpt><trkpt lat="39.489318264302284" lon="9.452883845011016"><ele>51.0</ele><time>2026-05-01T15:09:59Z</time></trkpt><trkpt lat="39.48908840979753" lon="9.452909175931387"><ele>51.0</ele><time>2026-05-01T15:10:00Z</time></trkpt><trkpt lat="39.488856996017326" lon="9.452916890541504"><ele>51.0</ele><time>2026-05-01T15:10:01Z</time></trkpt><trkpt lat="39.48862477563545" lon="9.452907608020256"><ele>51.0</ele><time>2026-05-01T15:10:02Z</time></trkpt><trkpt lat="39.48839109832144" lon="9.452881157954083"><ele>51.0</ele><time>2026-05-01T15:10:03Z</time></trkpt><trkpt lat="39.4881564855507" lon="9.452846624577733"><ele>50.5</ele><time>2026-05-01T15:10:04Z</time></trkpt><trkpt lat="39.48792528920131" lon="9.45281282180723"><ele>50.0</ele><time>2026-05-01T15:10:05Z</time></trkpt><trkpt lat="39.487697590897795" lon="9.452780199603374"><ele>50.0</ele><time>2026-05-01T15:10:06Z</time></trkpt><trkpt lat="39.4874744959488" lon="9.452755832988185"><ele>50.0</ele><time>2026-05-01T15:10:07Z</time></trkpt><trkpt lat="39.487262189863145" lon="9.452750634805454"><ele>50.0</ele><time>2026-05-01T15:10:08Z</time></trkpt><trkpt lat="39.487059896948665" lon="9.45277353929609"><ele>49.333333333333336</ele><time>2026-05-01T15:10:09Z</time></trkpt><trkpt lat="39.48686756439052" lon="9.452836847366667"><ele>48.66666666666667</ele><time>2026-05-01T15:10:10Z</time></trkpt><trkpt lat="39.48667820869854" lon="9.452939954366322"><ele>48.0</ele><time>2026-05-01T15:10:11Z</time></trkpt><trkpt lat="39.48650431344357" lon="9.453073839576271"><ele>45.666666666666664</ele><time>2026-05-01T15:10:12Z</time></trkpt><trkpt lat="39.48635294199365" lon="9.453227598288635"><ele>43.33333333333333</ele><time>2026-05-01T15:10:13Z</time></trkpt><trkpt lat="39.48622204013963" lon="9.453414412473073"><ele>41.0</ele><time>2026-05-01T15:10:14Z</time></trkpt><trkpt lat="39.48611230063605" lon="9.453631631057569"><ele>41.0</ele><time>2026-05-01T15:10:15Z</time></trkpt><trkpt lat="39.48602149894948" lon="9.453872158276406"><ele>41.0</ele><time>2026-05-01T15:10:16Z</time></trkpt><trkpt lat="39.48595601058525" lon="9.454133389658582"><ele>41.0</ele><time>2026-05-01T15:10:17Z</time></trkpt><trkpt lat="39.48591830758195" lon="9.454408992825305"><ele>41.5</ele><time>2026-05-01T15:10:18Z</time></trkpt><trkpt lat="39.48591553976694" lon="9.45469865261551"><ele>42.0</ele><time>2026-05-01T15:10:19Z</time></trkpt><trkpt lat="39.48593614726184" lon="9.454994162374884"><ele>42.0</ele><time>2026-05-01T15:10:20Z</time></trkpt><trkpt lat="39.485950053553" lon="9.455293546449665"><ele>42.0</ele><time>2026-05-01T15:10:21Z</time></trkpt><trkpt lat="39.48595626403428" lon="9.455594240770624"><ele>42.0</ele><time>2026-05-01T15:10:22Z</time></trkpt><trkpt lat="39.48595702595517" lon="9.455900530865598"><ele>42.0</ele><time>2026-05-01T15:10:23Z</time></trkpt><trkpt lat="39.48595957963543" lon="9.456209666610995"><ele>44.5</ele><time>2026-05-01T15:10:24Z</time></trkpt><trkpt lat="39.48596402625533" lon="9.456515234834622"><ele>47.0</ele><time>2026-05-01T15:10:25Z</time></trkpt><trkpt lat="39.485965155964074" lon="9.45681809726039"><ele>47.0</ele><time>2026-05-01T15:10:26Z</time></trkpt><trkpt lat="39.48595657734389" lon="9.45711382419313"><ele>47.0</ele><time>2026-05-01T15:10:27Z</time></trkpt><trkpt lat="39.48592929976541" lon="9.457404823346412"><ele>48.5</ele><time>2026-05-01T15:10:28Z</time></trkpt><trkpt lat="39.48587406697614" lon="9.457691028481998"><ele>50.0</ele><time>2026-05-01T15:10:29Z</time></trkpt><trkpt lat="39.485796699246066" lon="9.457969320222363"><ele>50.0</ele><time>2026-05-01T15:10:30Z</time></trkpt><trkpt lat="39.4856986124061" lon="9.45823911188449"><ele>50.0</ele><time>2026-05-01T15:10:31Z</time></trkpt><trkpt lat="39.485599868487" lon="9.458516105692034"><ele>45.5</ele><time>2026-05-01T15:10:32Z</time></trkpt><trkpt lat="39.485509410991284" lon="9.458794747799505"><ele>41.0</ele><time>2026-05-01T15:10:33Z</time></trkpt><trkpt lat="39.48541747528021" lon="9.459075442542188"><ele>45.0</ele><time>2026-05-01T15:10:34Z</time></trkpt><trkpt lat="39.48531786035666" lon="9.45935138821973"><ele>49.0</ele><time>2026-05-01T15:10:35Z</time></trkpt><trkpt lat="39.485210980440876" lon="9.459625156713669"><ele>49.0</ele><time>2026-05-01T15:10:36Z</time></trkpt><trkpt lat="39.48511589775161" lon="9.459904673974139"><ele>49.0</ele><time>2026-05-01T15:10:37Z</time></trkpt><trkpt lat="39.48503659816519" lon="9.460199156935456"><ele>47.0</ele><time>2026-05-01T15:10:38Z</time></trkpt><trkpt lat="39.484977656705475" lon="9.46050440421191"><ele>45.0</ele><time>2026-05-01T15:10:39Z</time></trkpt><trkpt lat="39.48494336006339" lon="9.460819524668564"><ele>45.0</ele><time>2026-05-01T15:10:40Z</time></trkpt><trkpt lat="39.48492617974568" lon="9.461137871681576"><ele>45.0</ele><time>2026-05-01T15:10:41Z</time></trkpt><trkpt lat="39.48491034694705" lon="9.461454839955291"><ele>46.0</ele><time>2026-05-01T15:10:42Z</time></trkpt><trkpt lat="39.48489053722717" lon="9.461772135218249"><ele>47.0</ele><time>2026-05-01T15:10:43Z</time></trkpt><trkpt lat="39.484872750557805" lon="9.462092158498217"><ele>45.0</ele><time>2026-05-01T15:10:44Z</time></trkpt><trkpt lat="39.48485566899034" lon="9.462413610648195"><ele>43.0</ele><time>2026-05-01T15:10:45Z</time></trkpt><trkpt lat="39.48483958735183" lon="9.46273310442823"><ele>44.0</ele><time>2026-05-01T15:10:46Z</time></trkpt><trkpt lat="39.48482436593242" lon="9.463054874123543"><ele>45.0</ele><time>2026-05-01T15:10:47Z</time></trkpt><trkpt lat="39.48481705133641" lon="9.463377631811616"><ele>45.0</ele><time>2026-05-01T15:10:48Z</time></trkpt><trkpt lat="39.48483014772485" lon="9.463697549210575"><ele>45.0</ele><time>2026-05-01T15:10:49Z</time></trkpt><trkpt lat="39.48486893739477" lon="9.464011099034071"><ele>47.5</ele><time>2026-05-01T15:10:50Z</time></trkpt><trkpt lat="39.484923309809886" lon="9.464317973753731"><ele>50.0</ele><time>2026-05-01T15:10:51Z</time></trkpt><trkpt lat="39.484982660072816" lon="9.464623153310178"><ele>52.5</ele><time>2026-05-01T15:10:52Z</time></trkpt><trkpt lat="39.48504087739303" lon="9.46492254523596"><ele>55.0</ele><time>2026-05-01T15:10:53Z</time></trkpt><trkpt lat="39.48509448578466" lon="9.465221753722265"><ele>59.0</ele><time>2026-05-01T15:10:54Z</time></trkpt><trkpt lat="39.48514395073812" lon="9.465523244300096"><ele>63.0</ele><time>2026-05-01T15:10:55Z</time></trkpt><trkpt lat="39.48519377801266" lon="9.465820597302502"><ele>63.0</ele><time>2026-05-01T15:10:56Z</time></trkpt><trkpt lat="39.485245828648715" lon="9.466115171174797"><ele>63.0</ele><time>2026-05-01T15:10:57Z</time></trkpt><trkpt lat="39.48529599897587" lon="9.46640756253136"><ele>70.5</ele><time>2026-05-01T15:10:58Z</time></trkpt><trkpt lat="39.485342433658516" lon="9.466696022813077"><ele>78.0</ele><time>2026-05-01T15:10:59Z</time></trkpt><trkpt lat="39.485381765928764" lon="9.466983543726299"><ele>82.66666666666667</ele><time>2026-05-01T15:11:00Z</time></trkpt><trkpt lat="39.48540780503106" lon="9.467273149486433"><ele>87.33333333333334</ele><time>2026-05-01T15:11:01Z</time></trkpt><trkpt lat="39.485422165466986" lon="9.467562827015472"><ele>92.0</ele><time>2026-05-01T15:11:02Z</time></trkpt><trkpt lat="39.485424644048145" lon="9.467850897552859"><ele>94.0</ele><time>2026-05-01T15:11:03Z</time></trkpt><trkpt lat="39.485419518544944" lon="9.46814305104433"><ele>96.0</ele><time>2026-05-01T15:11:04Z</time></trkpt><trkpt lat="39.48541127647517" lon="9.468435353107637"><ele>96.0</ele><time>2026-05-01T15:11:05Z</time></trkpt><trkpt lat="39.48540373875911" lon="9.46872606107549"><ele>96.0</ele><time>2026-05-01T15:11:06Z</time></trkpt><trkpt lat="39.485397710072434" lon="9.469008369068375"><ele>96.0</ele><time>2026-05-01T15:11:07Z</time></trkpt><trkpt lat="39.48538465758823" lon="9.469283795528309"><ele>95.33333333333333</ele><time>2026-05-01T15:11:08Z</time></trkpt><trkpt lat="39.48535407839751" lon="9.469548498133971"><ele>94.66666666666666</ele><time>2026-05-01T15:11:09Z</time></trkpt><trkpt lat="39.485304301144595" lon="9.469808431711169"><ele>94.0</ele><time>2026-05-01T15:11:10Z</time></trkpt><trkpt lat="39.48524172956668" lon="9.470070571111274"><ele>92.33333333333333</ele><time>2026-05-01T15:11:11Z</time></trkpt><trkpt lat="39.485167598362544" lon="9.470334542330711"><ele>90.66666666666667</ele><time>2026-05-01T15:11:12Z</time></trkpt><trkpt lat="39.48507783357568" lon="9.470592406671914"><ele>89.0</ele><time>2026-05-01T15:11:13Z</time></trkpt><trkpt lat="39.48498184424665" lon="9.470844436565123"><ele>89.0</ele><time>2026-05-01T15:11:14Z</time></trkpt><trkpt lat="39.48488799302342" lon="9.471097302705031"><ele>89.0</ele><time>2026-05-01T15:11:15Z</time></trkpt><trkpt lat="39.48482875199082" lon="9.47126017268"><ele>89.0</ele><time>2026-05-01T15:11:16Z</time></trkpt><trkpt lat="39.48477622098966" lon="9.471476108356944"><ele>89.0</ele><time>2026-05-01T15:11:17Z</time></trkpt><trkpt lat="39.484767066545864" lon="9.471698527552599"><ele>89.0</ele><time>2026-05-01T15:11:18Z</time></trkpt><trkpt lat="39.484797951631066" lon="9.471920945938585"><ele>89.0</ele><time>2026-05-01T15:11:19Z</time></trkpt><trkpt lat="39.48486036635052" lon="9.472139189823325"><ele>92.66666666666667</ele><time>2026-05-01T15:11:20Z</time></trkpt><trkpt lat="39.48495898741878" lon="9.472343683795978"><ele>96.33333333333334</ele><time>2026-05-01T15:11:21Z</time></trkpt><trkpt lat="39.48509044247183" lon="9.472506858203834"><ele>100.0</ele><time>2026-05-01T15:11:22Z</time></trkpt><trkpt lat="39.48524004714774" lon="9.472635483295397"><ele>100.0</ele><time>2026-05-01T15:11:23Z</time></trkpt><trkpt lat="39.48538407392091" lon="9.47275986751223"><ele>100.0</ele><time>2026-05-01T15:11:24Z</time></trkpt><trkpt lat="39.48549532868317" lon="9.47292273077021"><ele>100.0</ele><time>2026-05-01T15:11:25Z</time></trkpt><trkpt lat="39.48557360337118" lon="9.473112404827885"><ele>102.66666666666667</ele><time>2026-05-01T15:11:26Z</time></trkpt><trkpt lat="39.48561232379318" lon="9.473318352003036"><ele>105.33333333333334</ele><time>2026-05-01T15:11:27Z</time></trkpt><trkpt lat="39.48563596420464" lon="9.473522802891006"><ele>108.0</ele><time>2026-05-01T15:11:28Z</time></trkpt><trkpt lat="39.485641706092224" lon="9.473736527012933"><ele>105.66666666666666</ele><time>2026-05-01T15:11:29Z</time></trkpt><trkpt lat="39.485615734567936" lon="9.473956444926973"><ele>103.33333333333333</ele><time>2026-05-01T15:11:30Z</time></trkpt><trkpt lat="39.48555844788037" lon="9.474183950840624"><ele>101.0</ele><time>2026-05-01T15:11:31Z</time></trkpt><trkpt lat="39.4854847171969" lon="9.474373801645969"><ele>103.0</ele><time>2026-05-01T15:11:32Z</time></trkpt><trkpt lat="39.48538414455344" lon="9.474547338954263"><ele>105.0</ele><time>2026-05-01T15:11:33Z</time></trkpt><trkpt lat="39.48527037346151" lon="9.474730571136636"><ele>107.0</ele><time>2026-05-01T15:11:34Z</time></trkpt><trkpt lat="39.485154702917974" lon="9.474912539643928"><ele>107.0</ele><time>2026-05-01T15:11:35Z</time></trkpt><trkpt lat="39.48503292900978" lon="9.475104109730745"><ele>107.0</ele><time>2026-05-01T15:11:36Z</time></trkpt><trkpt lat="39.484910256057596" lon="9.47529709415207"><ele>107.0</ele><time>2026-05-01T15:11:37Z</time></trkpt><trkpt lat="39.48478315773257" lon="9.475498709373138"><ele>109.33333333333333</ele><time>2026-05-01T15:11:38Z</time></trkpt><trkpt lat="39.48466669629256" lon="9.475717291472309"><ele>111.66666666666666</ele><time>2026-05-01T15:11:39Z</time></trkpt><trkpt lat="39.48453273690253" lon="9.475924369123428"><ele>114.0</ele><time>2026-05-01T15:11:40Z</time></trkpt><trkpt lat="39.48439439359822" lon="9.476132635210478"><ele>108.66666666666666</ele><time>2026-05-01T15:11:41Z</time></trkpt><trkpt lat="39.48425190020314" lon="9.476350319215351"><ele>103.33333333333333</ele><time>2026-05-01T15:11:42Z</time></trkpt><trkpt lat="39.48411219022436" lon="9.476573787324435"><ele>98.0</ele><time>2026-05-01T15:11:43Z</time></trkpt><trkpt lat="39.48396707657996" lon="9.47681598807254"><ele>98.0</ele><time>2026-05-01T15:11:44Z</time></trkpt><trkpt lat="39.48384656824249" lon="9.477052397009565"><ele>98.0</ele><time>2026-05-01T15:11:45Z</time></trkpt><trkpt lat="39.48374515809841" lon="9.477315936526216"><ele>98.0</ele><time>2026-05-01T15:11:46Z</time></trkpt><trkpt lat="39.4837037949851" lon="9.477584133617569"><ele>94.0</ele><time>2026-05-01T15:11:47Z</time></trkpt><trkpt lat="39.48366380557217" lon="9.477865283089391"><ele>90.0</ele><time>2026-05-01T15:11:48Z</time></trkpt><trkpt lat="39.48365502460017" lon="9.478151433159775"><ele>86.0</ele><time>2026-05-01T15:11:49Z</time></trkpt><trkpt lat="39.48367581973163" lon="9.478432246545356"><ele>85.0</ele><time>2026-05-01T15:11:50Z</time></trkpt><trkpt lat="39.48372062062098" lon="9.47870449063371"><ele>84.0</ele><time>2026-05-01T15:11:51Z</time></trkpt><trkpt lat="39.48378503003834" lon="9.478971511596978"><ele>83.0</ele><time>2026-05-01T15:11:52Z</time></trkpt><trkpt lat="39.483863226195645" lon="9.479230152825645"><ele>81.33333333333334</ele><time>2026-05-01T15:11:53Z</time></trkpt><trkpt lat="39.48394376210059" lon="9.47949251259755"><ele>79.66666666666667</ele><time>2026-05-01T15:11:54Z</time></trkpt><trkpt lat="39.484016845409826" lon="9.479752932607186"><ele>78.0</ele><time>2026-05-01T15:11:55Z</time></trkpt><trkpt lat="39.48408068774892" lon="9.480018292694655"><ele>78.0</ele><time>2026-05-01T15:11:56Z</time></trkpt><trkpt lat="39.48413744104673" lon="9.480288639855154"><ele>78.0</ele><time>2026-05-01T15:11:57Z</time></trkpt><trkpt lat="39.48418074729746" lon="9.480565967372335"><ele>78.0</ele><time>2026-05-01T15:11:58Z</time></trkpt><trkpt lat="39.484203712461024" lon="9.48084824050292"><ele>78.66666666666667</ele><time>2026-05-01T15:11:59Z</time></trkpt><trkpt lat="39.48420412631869" lon="9.481134583449476"><ele>79.33333333333334</ele><time>2026-05-01T15:12:00Z</time></trkpt><trkpt lat="39.484186486558535" lon="9.481423502631758"><ele>80.0</ele><time>2026-05-01T15:12:01Z</time></trkpt><trkpt lat="39.48412502183483" lon="9.481701095368424"><ele>77.0</ele><time>2026-05-01T15:12:02Z</time></trkpt><trkpt lat="39.48406020598986" lon="9.481958574171708"><ele>74.0</ele><time>2026-05-01T15:12:03Z</time></trkpt><trkpt lat="39.48398721630423" lon="9.482186441433072"><ele>71.0</ele><time>2026-05-01T15:12:04Z</time></trkpt><trkpt lat="39.48389148569576" lon="9.482426706630678"><ele>67.5</ele><time>2026-05-01T15:12:05Z</time></trkpt><trkpt lat="39.4837485776236" lon="9.482695697041121"><ele>64.0</ele><time>2026-05-01T15:12:06Z</time></trkpt><trkpt lat="39.48356284043113" lon="9.48296504021666"><ele>64.0</ele><time>2026-05-01T15:12:07Z</time></trkpt><trkpt lat="39.48338208416186" lon="9.483186944660176"><ele>64.0</ele><time>2026-05-01T15:12:08Z</time></trkpt><trkpt lat="39.48321333800795" lon="9.483352167297385"><ele>64.0</ele><time>2026-05-01T15:12:09Z</time></trkpt><trkpt lat="39.48302168833337" lon="9.483510984397753"><ele>64.0</ele><time>2026-05-01T15:12:10Z</time></trkpt><trkpt lat="39.48282152906181" lon="9.483664575558898"><ele>60.0</ele><time>2026-05-01T15:12:11Z</time></trkpt><trkpt lat="39.48260026413518" lon="9.483816605517832"><ele>56.0</ele><time>2026-05-01T15:12:12Z</time></trkpt><trkpt lat="39.48237183212241" lon="9.483989925996346"><ele>56.0</ele><time>2026-05-01T15:12:13Z</time></trkpt><trkpt lat="39.48219445636408" lon="9.484132772856139"><ele>56.0</ele><time>2026-05-01T15:12:14Z</time></trkpt><trkpt lat="39.48201723479363" lon="9.484281420020093"><ele>56.0</ele><time>2026-05-01T15:12:15Z</time></trkpt><trkpt lat="39.481837264755605" lon="9.484477098471144"><ele>57.0</ele><time>2026-05-01T15:12:16Z</time></trkpt><trkpt lat="39.48166766867332" lon="9.484692192169648"><ele>58.0</ele><time>2026-05-01T15:12:17Z</time></trkpt><trkpt lat="39.48151448531804" lon="9.484925936510006"><ele>58.0</ele><time>2026-05-01T15:12:18Z</time></trkpt><trkpt lat="39.48137676526105" lon="9.485176103463743"><ele>58.0</ele><time>2026-05-01T15:12:19Z</time></trkpt><trkpt lat="39.481259362579195" lon="9.485438458528037"><ele>65.0</ele><time>2026-05-01T15:12:20Z</time></trkpt><trkpt lat="39.48116379078439" lon="9.485714978358557"><ele>72.0</ele><time>2026-05-01T15:12:21Z</time></trkpt><trkpt lat="39.481089269091974" lon="9.486002121022223"><ele>68.5</ele><time>2026-05-01T15:12:22Z</time></trkpt><trkpt lat="39.48103048754345" lon="9.486292695428663"><ele>65.0</ele><time>2026-05-01T15:12:23Z</time></trkpt><trkpt lat="39.48098557781184" lon="9.486583342885062"><ele>65.0</ele><time>2026-05-01T15:12:24Z</time></trkpt><trkpt lat="39.48094810017023" lon="9.486875848582663"><ele>65.0</ele><time>2026-05-01T15:12:25Z</time></trkpt><trkpt lat="39.480907505662366" lon="9.487162243369902"><ele>60.0</ele><time>2026-05-01T15:12:26Z</time></trkpt><trkpt lat="39.480849876694485" lon="9.487445509101546"><ele>55.0</ele><time>2026-05-01T15:12:27Z</time></trkpt><trkpt lat="39.48076565652385" lon="9.487716713383982"><ele>51.5</ele><time>2026-05-01T15:12:28Z</time></trkpt><trkpt lat="39.480659690063966" lon="9.487975727587985"><ele>48.0</ele><time>2026-05-01T15:12:29Z</time></trkpt><trkpt lat="39.48054147853015" lon="9.488222370429137"><ele>62.5</ele><time>2026-05-01T15:12:30Z</time></trkpt><trkpt lat="39.4804120181722" lon="9.488459097616055"><ele>77.0</ele><time>2026-05-01T15:12:31Z</time></trkpt><trkpt lat="39.480268258094696" lon="9.488684569082343"><ele>70.33333333333334</ele><time>2026-05-01T15:12:32Z</time></trkpt><trkpt lat="39.48011780752529" lon="9.488900447444523"><ele>63.66666666666667</ele><time>2026-05-01T15:12:33Z</time></trkpt><trkpt lat="39.479970998870165" lon="9.489114589500247"><ele>57.0</ele><time>2026-05-01T15:12:34Z</time></trkpt><trkpt lat="39.47983016892068" lon="9.48933641453621"><ele>57.0</ele><time>2026-05-01T15:12:35Z</time></trkpt><trkpt lat="39.47970526366458" lon="9.489573547332142"><ele>57.0</ele><time>2026-05-01T15:12:36Z</time></trkpt><trkpt lat="39.479597898018355" lon="9.489830369783453"><ele>57.0</ele><time>2026-05-01T15:12:37Z</time></trkpt><trkpt lat="39.47950952111569" lon="9.490109140709189"><ele>53.5</ele><time>2026-05-01T15:12:38Z</time></trkpt><trkpt lat="39.47944599914258" lon="9.49040284919697"><ele>50.0</ele><time>2026-05-01T15:12:39Z</time></trkpt><trkpt lat="39.479411187464834" lon="9.490699156682762"><ele>51.5</ele><time>2026-05-01T15:12:40Z</time></trkpt><trkpt lat="39.47941585973467" lon="9.491005094564288"><ele>53.0</ele><time>2026-05-01T15:12:41Z</time></trkpt><trkpt lat="39.47945044587131" lon="9.491307760196788"><ele>53.0</ele><time>2026-05-01T15:12:42Z</time></trkpt><trkpt lat="39.479511850383524" lon="9.491606406668772"><ele>53.0</ele><time>2026-05-01T15:12:43Z</time></trkpt><trkpt lat="39.47959637983552" lon="9.491899925905608"><ele>51.5</ele><time>2026-05-01T15:12:44Z</time></trkpt><trkpt lat="39.4796837606142" lon="9.492192182848274"><ele>50.0</ele><time>2026-05-01T15:12:45Z</time></trkpt><trkpt lat="39.47976103095094" lon="9.492483187529507"><ele>50.0</ele><time>2026-05-01T15:12:46Z</time></trkpt><trkpt lat="39.47982965117863" lon="9.492778237761609"><ele>50.0</ele><time>2026-05-01T15:12:47Z</time></trkpt><trkpt lat="39.47989498218437" lon="9.49307647289312"><ele>50.5</ele><time>2026-05-01T15:12:48Z</time></trkpt><trkpt lat="39.479943866493635" lon="9.493379723506575"><ele>51.0</ele><time>2026-05-01T15:12:49Z</time></trkpt><trkpt lat="39.4799413931937" lon="9.493690224984672"><ele>49.0</ele><time>2026-05-01T15:12:50Z</time></trkpt><trkpt lat="39.479922662550685" lon="9.494004479348048"><ele>47.0</ele><time>2026-05-01T15:12:51Z</time></trkpt><trkpt lat="39.47990676700417" lon="9.49431901795328"><ele>46.0</ele><time>2026-05-01T15:12:52Z</time></trkpt><trkpt lat="39.47987223531573" lon="9.494632454593923"><ele>45.0</ele><time>2026-05-01T15:12:53Z</time></trkpt><trkpt lat="39.47984185980019" lon="9.494944484572502"><ele>45.0</ele><time>2026-05-01T15:12:54Z</time></trkpt><trkpt lat="39.479814951335094" lon="9.495259817423792"><ele>45.0</ele><time>2026-05-01T15:12:55Z</time></trkpt><trkpt lat="39.47979017735419" lon="9.495573194595556"><ele>44.0</ele><time>2026-05-01T15:12:56Z</time></trkpt><trkpt lat="39.47976501739363" lon="9.495889215168662"><ele>43.0</ele><time>2026-05-01T15:12:57Z</time></trkpt><trkpt lat="39.479734561027755" lon="9.496205769341529"><ele>41.0</ele><time>2026-05-01T15:12:58Z</time></trkpt><trkpt lat="39.47970280239669" lon="9.496521795597387"><ele>39.0</ele><time>2026-05-01T15:12:59Z</time></trkpt><trkpt lat="39.479675169931745" lon="9.496839408732855"><ele>38.0</ele><time>2026-05-01T15:13:00Z</time></trkpt><trkpt lat="39.47965081673112" lon="9.497156905975908"><ele>37.0</ele><time>2026-05-01T15:13:01Z</time></trkpt><trkpt lat="39.47962899674354" lon="9.497477209426842"><ele>37.0</ele><time>2026-05-01T15:13:02Z</time></trkpt><trkpt lat="39.47961376732502" lon="9.49779861876352"><ele>37.0</ele><time>2026-05-01T15:13:03Z</time></trkpt><trkpt lat="39.47960892950021" lon="9.49812428292568"><ele>37.0</ele><time>2026-05-01T15:13:04Z</time></trkpt><trkpt lat="39.47962029448229" lon="9.498445093197281"><ele>37.0</ele><time>2026-05-01T15:13:05Z</time></trkpt><trkpt lat="39.479646866102215" lon="9.498758319263036"><ele>37.0</ele><time>2026-05-01T15:13:06Z</time></trkpt><trkpt lat="39.47968212140044" lon="9.499063281617275"><ele>37.0</ele><time>2026-05-01T15:13:07Z</time></trkpt><trkpt lat="39.47971433933143" lon="9.499365597985978"><ele>35.5</ele><time>2026-05-01T15:13:08Z</time></trkpt><trkpt lat="39.479724229677416" lon="9.49966599209164"><ele>34.0</ele><time>2026-05-01T15:13:09Z</time></trkpt><trkpt lat="39.47970175449531" lon="9.499968704755087"><ele>34.0</ele><time>2026-05-01T15:13:10Z</time></trkpt><trkpt lat="39.47964943860551" lon="9.500267286486263"><ele>34.0</ele><time>2026-05-01T15:13:11Z</time></trkpt><trkpt lat="39.47956621976303" lon="9.500555733850913"><ele>38.5</ele><time>2026-05-01T15:13:12Z</time></trkpt><trkpt lat="39.479460823773394" lon="9.50083299055642"><ele>43.0</ele><time>2026-05-01T15:13:13Z</time></trkpt><trkpt lat="39.47934783561051" lon="9.501104773638758"><ele>41.0</ele><time>2026-05-01T15:13:14Z</time></trkpt><trkpt lat="39.47923917328209" lon="9.501379263021763"><ele>39.0</ele><time>2026-05-01T15:13:15Z</time></trkpt><trkpt lat="39.479133977488296" lon="9.50165793550749"><ele>39.0</ele><time>2026-05-01T15:13:16Z</time></trkpt><trkpt lat="39.479030354657375" lon="9.501938394106526"><ele>39.0</ele><time>2026-05-01T15:13:17Z</time></trkpt><trkpt lat="39.47893293755244" lon="9.502214328995478"><ele>36.5</ele><time>2026-05-01T15:13:18Z</time></trkpt><trkpt lat="39.47884590053202" lon="9.50248734361648"><ele>34.0</ele><time>2026-05-01T15:13:19Z</time></trkpt><trkpt lat="39.478773519910746" lon="9.50276422712644"><ele>45.0</ele><time>2026-05-01T15:13:20Z</time></trkpt><trkpt lat="39.478719473001696" lon="9.503059856531904"><ele>56.0</ele><time>2026-05-01T15:13:21Z</time></trkpt><trkpt lat="39.478694239796525" lon="9.503374347893446"><ele>56.0</ele><time>2026-05-01T15:13:22Z</time></trkpt><trkpt lat="39.47869829938141" lon="9.503703028771424"><ele>56.0</ele><time>2026-05-01T15:13:23Z</time></trkpt><trkpt lat="39.478724319802325" lon="9.504030635509357"><ele>59.5</ele><time>2026-05-01T15:13:24Z</time></trkpt><trkpt lat="39.478751096140826" lon="9.50435994265222"><ele>63.0</ele><time>2026-05-01T15:13:25Z</time></trkpt><trkpt lat="39.47876961730753" lon="9.504691331520993"><ele>51.0</ele><time>2026-05-01T15:13:26Z</time></trkpt><trkpt lat="39.478787458154144" lon="9.505022166646757"><ele>39.0</ele><time>2026-05-01T15:13:27Z</time></trkpt><trkpt lat="39.478807625980515" lon="9.505354371361591"><ele>41.0</ele><time>2026-05-01T15:13:28Z</time></trkpt><trkpt lat="39.47882800113684" lon="9.505684622406365"><ele>43.0</ele><time>2026-05-01T15:13:29Z</time></trkpt><trkpt lat="39.478847394428904" lon="9.506015892073775"><ele>42.0</ele><time>2026-05-01T15:13:30Z</time></trkpt><trkpt lat="39.47886770889827" lon="9.506343864730363"><ele>41.0</ele><time>2026-05-01T15:13:31Z</time></trkpt><trkpt lat="39.47889634343352" lon="9.506676750998679"><ele>41.0</ele><time>2026-05-01T15:13:32Z</time></trkpt><trkpt lat="39.47894355639278" lon="9.50701536998243"><ele>41.0</ele><time>2026-05-01T15:13:33Z</time></trkpt><trkpt lat="39.47900246569227" lon="9.507351520717844"><ele>39.5</ele><time>2026-05-01T15:13:34Z</time></trkpt><trkpt lat="39.47906325134637" lon="9.507688099654448"><ele>38.0</ele><time>2026-05-01T15:13:35Z</time></trkpt><trkpt lat="39.47911858885985" lon="9.508022328424827"><ele>37.0</ele><time>2026-05-01T15:13:36Z</time></trkpt><trkpt lat="39.479169950159054" lon="9.50835639142578"><ele>36.0</ele><time>2026-05-01T15:13:37Z</time></trkpt><trkpt lat="39.479219086489294" lon="9.508689717586396"><ele>33.0</ele><time>2026-05-01T15:13:38Z</time></trkpt><trkpt lat="39.47927248692751" lon="9.509022249515152"><ele>30.0</ele><time>2026-05-01T15:13:39Z</time></trkpt><trkpt lat="39.47933719811905" lon="9.509351819415585"><ele>35.5</ele><time>2026-05-01T15:13:40Z</time></trkpt><trkpt lat="39.47941751740094" lon="9.50967653572725"><ele>41.0</ele><time>2026-05-01T15:13:41Z</time></trkpt><trkpt lat="39.47951885491616" lon="9.509993790652787"><ele>36.0</ele><time>2026-05-01T15:13:42Z</time></trkpt><trkpt lat="39.47964056819601" lon="9.51029559004022"><ele>31.0</ele><time>2026-05-01T15:13:43Z</time></trkpt><trkpt lat="39.47977182131761" lon="9.510581730299817"><ele>31.0</ele><time>2026-05-01T15:13:44Z</time></trkpt><trkpt lat="39.47989916094516" lon="9.510856746750287"><ele>31.0</ele><time>2026-05-01T15:13:45Z</time></trkpt><trkpt lat="39.48001581284261" lon="9.511127468585721"><ele>40.0</ele><time>2026-05-01T15:13:46Z</time></trkpt><trkpt lat="39.48011915440604" lon="9.51140350567025"><ele>49.0</ele><time>2026-05-01T15:13:47Z</time></trkpt><trkpt lat="39.48021106503721" lon="9.511672179800973"><ele>49.0</ele><time>2026-05-01T15:13:48Z</time></trkpt><trkpt lat="39.48029313758362" lon="9.511930070616517"><ele>49.0</ele><time>2026-05-01T15:13:49Z</time></trkpt><trkpt lat="39.480341189196736" lon="9.512186328465972"><ele>49.0</ele><time>2026-05-01T15:13:50Z</time></trkpt><trkpt lat="39.480357753974445" lon="9.512477945213783"><ele>50.0</ele><time>2026-05-01T15:13:51Z</time></trkpt><trkpt lat="39.4803690581287" lon="9.51277279782568"><ele>51.0</ele><time>2026-05-01T15:13:52Z</time></trkpt><trkpt lat="39.48038899867087" lon="9.51307650439316"><ele>51.0</ele><time>2026-05-01T15:13:53Z</time></trkpt><trkpt lat="39.48041939363242" lon="9.513382258417831"><ele>51.0</ele><time>2026-05-01T15:13:54Z</time></trkpt><trkpt lat="39.48044549107201" lon="9.513689844508999"><ele>39.0</ele><time>2026-05-01T15:13:55Z</time></trkpt><trkpt lat="39.48046232693246" lon="9.51399822224413"><ele>27.0</ele><time>2026-05-01T15:13:56Z</time></trkpt><trkpt lat="39.48046821798947" lon="9.514308844783828"><ele>24.5</ele><time>2026-05-01T15:13:57Z</time></trkpt><trkpt lat="39.480454248739484" lon="9.514617840531868"><ele>22.0</ele><time>2026-05-01T15:13:58Z</time></trkpt><trkpt lat="39.480432032463604" lon="9.514922938817026"><ele>32.5</ele><time>2026-05-01T15:13:59Z</time></trkpt><trkpt lat="39.480404409922336" lon="9.515227435640245"><ele>43.0</ele><time>2026-05-01T15:14:00Z</time></trkpt><trkpt lat="39.480374278499355" lon="9.51552693291844"><ele>43.0</ele><time>2026-05-01T15:14:01Z</time></trkpt><trkpt lat="39.48032847201305" lon="9.515823887210429"><ele>43.0</ele><time>2026-05-01T15:14:02Z</time></trkpt><trkpt lat="39.48025279272845" lon="9.516109773776195"><ele>38.5</ele><time>2026-05-01T15:14:03Z</time></trkpt><trkpt lat="39.480142455710165" lon="9.51638743850607"><ele>34.0</ele><time>2026-05-01T15:14:04Z</time></trkpt><trkpt lat="39.48001896942937" lon="9.51665931827172"><ele>34.0</ele><time>2026-05-01T15:14:05Z</time></trkpt><trkpt lat="39.47990024231293" lon="9.51693959754728"><ele>34.0</ele><time>2026-05-01T15:14:06Z</time></trkpt><trkpt lat="39.47979424210664" lon="9.517226613869527"><ele>29.0</ele><time>2026-05-01T15:14:07Z</time></trkpt><trkpt lat="39.47969445626717" lon="9.517523074674024"><ele>24.0</ele><time>2026-05-01T15:14:08Z</time></trkpt><trkpt lat="39.47960311109932" lon="9.51782908880499"><ele>26.0</ele><time>2026-05-01T15:14:09Z</time></trkpt><trkpt lat="39.479523528974696" lon="9.518134961436683"><ele>28.0</ele><time>2026-05-01T15:14:10Z</time></trkpt><trkpt lat="39.47945025446042" lon="9.518440937382302"><ele>28.0</ele><time>2026-05-01T15:14:11Z</time></trkpt><trkpt lat="39.47937795963541" lon="9.518748586108442"><ele>28.0</ele><time>2026-05-01T15:14:12Z</time></trkpt><trkpt lat="39.479304557633455" lon="9.51905469237552"><ele>28.0</ele><time>2026-05-01T15:14:13Z</time></trkpt><trkpt lat="39.47922956304208" lon="9.519359862815865"><ele>28.0</ele><time>2026-05-01T15:14:14Z</time></trkpt><trkpt lat="39.47915621423627" lon="9.51962687975727"><ele>28.666666666666668</ele><time>2026-05-01T15:14:15Z</time></trkpt><trkpt lat="39.47907145991448" lon="9.519896746296368"><ele>29.333333333333336</ele><time>2026-05-01T15:14:16Z</time></trkpt><trkpt lat="39.4789652723807" lon="9.520148278932995"><ele>30.0</ele><time>2026-05-01T15:14:17Z</time></trkpt><trkpt lat="39.47883451746517" lon="9.520379384501577"><ele>34.333333333333336</ele><time>2026-05-01T15:14:18Z</time></trkpt><trkpt lat="39.478690186739215" lon="9.52059865985895"><ele>38.66666666666667</ele><time>2026-05-01T15:14:19Z</time></trkpt><trkpt lat="39.47854655205329" lon="9.520812297486994"><ele>43.0</ele><time>2026-05-01T15:14:20Z</time></trkpt><trkpt lat="39.478413077382825" lon="9.521037223086347"><ele>39.0</ele><time>2026-05-01T15:14:21Z</time></trkpt><trkpt lat="39.47830253432813" lon="9.521286758041972"><ele>35.0</ele><time>2026-05-01T15:14:22Z</time></trkpt><trkpt lat="39.47821501688989" lon="9.521565698739005"><ele>35.0</ele><time>2026-05-01T15:14:23Z</time></trkpt><trkpt lat="39.47814286488056" lon="9.521855222608705"><ele>35.0</ele><time>2026-05-01T15:14:24Z</time></trkpt><trkpt lat="39.4780693082591" lon="9.522133047790538"><ele>30.5</ele><time>2026-05-01T15:14:25Z</time></trkpt><trkpt lat="39.477989461525276" lon="9.522409041937209"><ele>26.0</ele><time>2026-05-01T15:14:26Z</time></trkpt><trkpt lat="39.4779090050356" lon="9.522684290103859"><ele>38.33333333333333</ele><time>2026-05-01T15:14:27Z</time></trkpt><trkpt lat="39.47783413516138" lon="9.522958646304692"><ele>50.666666666666664</ele><time>2026-05-01T15:14:28Z</time></trkpt><trkpt lat="39.477763020233255" lon="9.52323178039208"><ele>63.0</ele><time>2026-05-01T15:14:29Z</time></trkpt><trkpt lat="39.47769279370134" lon="9.523510159679452"><ele>53.5</ele><time>2026-05-01T15:14:30Z</time></trkpt><trkpt lat="39.47761598834741" lon="9.523787164991393"><ele>44.0</ele><time>2026-05-01T15:14:31Z</time></trkpt><trkpt lat="39.477530347801526" lon="9.52406505103838"><ele>44.0</ele><time>2026-05-01T15:14:32Z</time></trkpt><trkpt lat="39.47743770576114" lon="9.524341110811429"><ele>44.0</ele><time>2026-05-01T15:14:33Z</time></trkpt><trkpt lat="39.47733822801142" lon="9.524619102238265"><ele>35.5</ele><time>2026-05-01T15:14:34Z</time></trkpt><trkpt lat="39.477244422093165" lon="9.524898475283319"><ele>27.0</ele><time>2026-05-01T15:14:35Z</time></trkpt><trkpt lat="39.477160775037916" lon="9.525186272813446"><ele>40.5</ele><time>2026-05-01T15:14:36Z</time></trkpt><trkpt lat="39.4770901493791" lon="9.525480275874523"><ele>54.0</ele><time>2026-05-01T15:14:37Z</time></trkpt><trkpt lat="39.477045585616914" lon="9.525786567872244"><ele>54.0</ele><time>2026-05-01T15:14:38Z</time></trkpt><trkpt lat="39.477026869918824" lon="9.52610143000996"><ele>54.0</ele><time>2026-05-01T15:14:39Z</time></trkpt><trkpt lat="39.47701825725759" lon="9.526416654200677"><ele>56.5</ele><time>2026-05-01T15:14:40Z</time></trkpt><trkpt lat="39.47701262173361" lon="9.526732159863252"><ele>59.0</ele><time>2026-05-01T15:14:41Z</time></trkpt><trkpt lat="39.477007504930725" lon="9.527052264653602"><ele>58.5</ele><time>2026-05-01T15:14:42Z</time></trkpt><trkpt lat="39.476993420610484" lon="9.527375451678408"><ele>58.0</ele><time>2026-05-01T15:14:43Z</time></trkpt><trkpt lat="39.47695590716942" lon="9.527691694760929"><ele>54.5</ele><time>2026-05-01T15:14:44Z</time></trkpt><trkpt lat="39.476897572287115" lon="9.528006593961857"><ele>51.0</ele><time>2026-05-01T15:14:45Z</time></trkpt><trkpt lat="39.476841801281566" lon="9.528324480709697"><ele>51.0</ele><time>2026-05-01T15:14:46Z</time></trkpt><trkpt lat="39.47681115695914" lon="9.528646315100785"><ele>51.0</ele><time>2026-05-01T15:14:47Z</time></trkpt><trkpt lat="39.476776171002975" lon="9.528998051523088"><ele>46.5</ele><time>2026-05-01T15:14:48Z</time></trkpt><trkpt lat="39.476745371941426" lon="9.52933624572089"><ele>42.0</ele><time>2026-05-01T15:14:49Z</time></trkpt><trkpt lat="39.47671230957188" lon="9.529667455278698"><ele>36.0</ele><time>2026-05-01T15:14:50Z</time></trkpt><trkpt lat="39.476670536636334" lon="9.529985010553911"><ele>30.0</ele><time>2026-05-01T15:14:51Z</time></trkpt><trkpt lat="39.476625435828616" lon="9.530305272084505"><ele>28.0</ele><time>2026-05-01T15:14:52Z</time></trkpt><trkpt lat="39.47657934314759" lon="9.53062578522245"><ele>26.0</ele><time>2026-05-01T15:14:53Z</time></trkpt><trkpt lat="39.47652590584257" lon="9.530937140292624"><ele>25.5</ele><time>2026-05-01T15:14:54Z</time></trkpt><trkpt lat="39.47645860953309" lon="9.531244756268427"><ele>25.0</ele><time>2026-05-01T15:14:55Z</time></trkpt><trkpt lat="39.47637040395005" lon="9.531542600515705"><ele>25.0</ele><time>2026-05-01T15:14:56Z</time></trkpt><trkpt lat="39.47627461959785" lon="9.531821317385605"><ele>25.0</ele><time>2026-05-01T15:14:57Z</time></trkpt><trkpt lat="39.4761795297866" lon="9.532096089596966"><ele>33.0</ele><time>2026-05-01T15:14:58Z</time></trkpt><trkpt lat="39.47608799638824" lon="9.53237243642252"><ele>41.0</ele><time>2026-05-01T15:14:59Z</time></trkpt><trkpt lat="39.47599381170298" lon="9.532653910950843"><ele>37.5</ele><time>2026-05-01T15:15:00Z</time></trkpt><trkpt lat="39.47589523020918" lon="9.532935390377066"><ele>34.0</ele><time>2026-05-01T15:15:01Z</time></trkpt><trkpt lat="39.475795596978344" lon="9.533218526971883"><ele>34.0</ele><time>2026-05-01T15:15:02Z</time></trkpt><trkpt lat="39.47569762515094" lon="9.533505000270267"><ele>34.0</ele><time>2026-05-01T15:15:03Z</time></trkpt><trkpt lat="39.475598311427326" lon="9.533792822266905"><ele>29.0</ele><time>2026-05-01T15:15:04Z</time></trkpt><trkpt lat="39.47549606580454" lon="9.534073167591398"><ele>24.0</ele><time>2026-05-01T15:15:05Z</time></trkpt><trkpt lat="39.47539133831307" lon="9.534348337955516"><ele>34.5</ele><time>2026-05-01T15:15:06Z</time></trkpt><trkpt lat="39.47528901484299" lon="9.534627633644565"><ele>45.0</ele><time>2026-05-01T15:15:07Z</time></trkpt><trkpt lat="39.47520297265936" lon="9.5349222055319"><ele>45.0</ele><time>2026-05-01T15:15:08Z</time></trkpt><trkpt lat="39.47513531570987" lon="9.535226166619317"><ele>45.0</ele><time>2026-05-01T15:15:09Z</time></trkpt><trkpt lat="39.47508391400104" lon="9.535537240618755"><ele>44.5</ele><time>2026-05-01T15:15:10Z</time></trkpt><trkpt lat="39.475052367026855" lon="9.535853129809679"><ele>44.0</ele><time>2026-05-01T15:15:11Z</time></trkpt><trkpt lat="39.475033123399896" lon="9.536170772100277"><ele>45.5</ele><time>2026-05-01T15:15:12Z</time></trkpt><trkpt lat="39.4750546508617" lon="9.536460019163064"><ele>47.0</ele><time>2026-05-01T15:15:13Z</time></trkpt><trkpt lat="39.47511179298175" lon="9.536767144368124"><ele>55.0</ele><time>2026-05-01T15:15:14Z</time></trkpt><trkpt lat="39.47519641551038" lon="9.537060723632449"><ele>63.0</ele><time>2026-05-01T15:15:15Z</time></trkpt><trkpt lat="39.47530600655365" lon="9.537333923543422"><ele>63.0</ele><time>2026-05-01T15:15:16Z</time></trkpt><trkpt lat="39.47543124213871" lon="9.537581593829835"><ele>63.0</ele><time>2026-05-01T15:15:17Z</time></trkpt><trkpt lat="39.47554673094851" lon="9.537822478420962"><ele>63.0</ele><time>2026-05-01T15:15:18Z</time></trkpt><trkpt lat="39.47564298714634" lon="9.53806851445753"><ele>56.333333333333336</ele><time>2026-05-01T15:15:19Z</time></trkpt><trkpt lat="39.475725626884724" lon="9.538318546344621"><ele>49.66666666666667</ele><time>2026-05-01T15:15:20Z</time></trkpt><trkpt lat="39.4757975424657" lon="9.538560467200128"><ele>43.0</ele><time>2026-05-01T15:15:21Z</time></trkpt><trkpt lat="39.47586073989643" lon="9.538787427815809"><ele>43.0</ele><time>2026-05-01T15:15:22Z</time></trkpt><trkpt lat="39.47588274094496" lon="9.539013208945363"><ele>43.0</ele><time>2026-05-01T15:15:23Z</time></trkpt><trkpt lat="39.47589766557788" lon="9.53922866932873"><ele>43.0</ele><time>2026-05-01T15:15:24Z</time></trkpt><trkpt lat="39.47590259149308" lon="9.539422107320227"><ele>42.8</ele><time>2026-05-01T15:15:25Z</time></trkpt><trkpt lat="39.47588604174133" lon="9.539591774442401"><ele>42.599999999999994</ele><time>2026-05-01T15:15:26Z</time></trkpt><trkpt lat="39.47582678329381" lon="9.539700653079306"><ele>42.400000000000006</ele><time>2026-05-01T15:15:27Z</time></trkpt><trkpt lat="39.475749623214604" lon="9.539764029092705"><ele>42.2</ele><time>2026-05-01T15:15:28Z</time></trkpt><trkpt lat="39.475646506628095" lon="9.539791631776843"><ele>42.0</ele><time>2026-05-01T15:15:29Z</time></trkpt><trkpt lat="39.475516363845664" lon="9.539764052742674"><ele>37.666666666666664</ele><time>2026-05-01T15:15:30Z</time></trkpt><trkpt lat="39.475354801752786" lon="9.539711100846327"><ele>33.33333333333333</ele><time>2026-05-01T15:15:31Z</time></trkpt><trkpt lat="39.47519100006039" lon="9.539614170973028"><ele>29.0</ele><time>2026-05-01T15:15:32Z</time></trkpt><trkpt lat="39.47502302924079" lon="9.539472143081797"><ele>42.0</ele><time>2026-05-01T15:15:33Z</time></trkpt><trkpt lat="39.47484044306241" lon="9.539314128510075"><ele>55.0</ele><time>2026-05-01T15:15:34Z</time></trkpt><trkpt lat="39.474633349981715" lon="9.539163818855375"><ele>46.5</ele><time>2026-05-01T15:15:35Z</time></trkpt><trkpt lat="39.47442759439404" lon="9.539043815321557"><ele>38.0</ele><time>2026-05-01T15:15:36Z</time></trkpt><trkpt lat="39.47420609172844" lon="9.53894351832986"><ele>38.0</ele><time>2026-05-01T15:15:37Z</time></trkpt><trkpt lat="39.4739773953368" lon="9.538850694555581"><ele>38.0</ele><time>2026-05-01T15:15:38Z</time></trkpt><trkpt lat="39.473754069473195" lon="9.538755127660096"><ele>49.0</ele><time>2026-05-01T15:15:39Z</time></trkpt><trkpt lat="39.47352741153654" lon="9.538662270525078"><ele>60.0</ele><time>2026-05-01T15:15:40Z</time></trkpt><trkpt lat="39.47329704192339" lon="9.538578162172628"><ele>60.0</ele><time>2026-05-01T15:15:41Z</time></trkpt><trkpt lat="39.47306254496523" lon="9.538509228555647"><ele>60.0</ele><time>2026-05-01T15:15:42Z</time></trkpt><trkpt lat="39.47282706646794" lon="9.538456569245454"><ele>50.5</ele><time>2026-05-01T15:15:43Z</time></trkpt><trkpt lat="39.47258990630763" lon="9.538412832841665"><ele>41.0</ele><time>2026-05-01T15:15:44Z</time></trkpt><trkpt lat="39.47235644679417" lon="9.538368524817882"><ele>41.0</ele><time>2026-05-01T15:15:45Z</time></trkpt><trkpt lat="39.47212752648597" lon="9.538313570370102"><ele>41.0</ele><time>2026-05-01T15:15:46Z</time></trkpt><trkpt lat="39.47190214435415" lon="9.538253256097965"><ele>37.5</ele><time>2026-05-01T15:15:47Z</time></trkpt><trkpt lat="39.47167951919996" lon="9.53821701116715"><ele>34.0</ele><time>2026-05-01T15:15:48Z</time></trkpt><trkpt lat="39.471453808588414" lon="9.538220786192673"><ele>35.0</ele><time>2026-05-01T15:15:49Z</time></trkpt><trkpt lat="39.47123290030189" lon="9.538263975520273"><ele>36.0</ele><time>2026-05-01T15:15:50Z</time></trkpt><trkpt lat="39.47101076733599" lon="9.538301421979563"><ele>37.0</ele><time>2026-05-01T15:15:51Z</time></trkpt><trkpt lat="39.47080133633836" lon="9.538298730410384"><ele>37.0</ele><time>2026-05-01T15:15:52Z</time></trkpt><trkpt lat="39.47058384957812" lon="9.538285643760414"><ele>37.0</ele><time>2026-05-01T15:15:53Z</time></trkpt><trkpt lat="39.47036245498802" lon="9.538305041015017"><ele>37.0</ele><time>2026-05-01T15:15:54Z</time></trkpt><trkpt lat="39.470143190050074" lon="9.538382266902103"><ele>38.0</ele><time>2026-05-01T15:15:55Z</time></trkpt><trkpt lat="39.46992436662006" lon="9.538488314787578"><ele>39.0</ele><time>2026-05-01T15:15:56Z</time></trkpt><trkpt lat="39.469698417090555" lon="9.538581311949091"><ele>43.5</ele><time>2026-05-01T15:15:57Z</time></trkpt><trkpt lat="39.46946529431646" lon="9.538650962676313"><ele>48.0</ele><time>2026-05-01T15:15:58Z</time></trkpt><trkpt lat="39.469227866399876" lon="9.538706635608944"><ele>38.0</ele><time>2026-05-01T15:15:59Z</time></trkpt><trkpt lat="39.46899286761016" lon="9.538756629572124"><ele>28.0</ele><time>2026-05-01T15:16:00Z</time></trkpt><trkpt lat="39.468765241389384" lon="9.538812246159473"><ele>28.0</ele><time>2026-05-01T15:16:01Z</time></trkpt><trkpt lat="39.468543138815996" lon="9.538878345593625"><ele>28.0</ele><time>2026-05-01T15:16:02Z</time></trkpt><trkpt lat="39.46833219189104" lon="9.538953814143163"><ele>28.0</ele><time>2026-05-01T15:16:03Z</time></trkpt><trkpt lat="39.468123448225334" lon="9.539032666780157"><ele>31.333333333333336</ele><time>2026-05-01T15:16:04Z</time></trkpt><trkpt lat="39.46791366829516" lon="9.539108354431935"><ele>34.666666666666664</ele><time>2026-05-01T15:16:05Z</time></trkpt><trkpt lat="39.46770390835831" lon="9.53918076618639"><ele>38.0</ele><time>2026-05-01T15:16:06Z</time></trkpt><trkpt lat="39.467489344000974" lon="9.539253279730055"><ele>38.0</ele><time>2026-05-01T15:16:07Z</time></trkpt><trkpt lat="39.46727209386841" lon="9.539297986952384"><ele>38.0</ele><time>2026-05-01T15:16:08Z</time></trkpt><trkpt lat="39.46705104219663" lon="9.539258485568114"><ele>38.0</ele><time>2026-05-01T15:16:09Z</time></trkpt><trkpt lat="39.46681926687188" lon="9.539218633827264"><ele>38.0</ele><time>2026-05-01T15:16:10Z</time></trkpt><trkpt lat="39.46658513590677" lon="9.539184557439729"><ele>38.0</ele><time>2026-05-01T15:16:11Z</time></trkpt><trkpt lat="39.46635454228673" lon="9.53913329610954"><ele>37.33333333333333</ele><time>2026-05-01T15:16:12Z</time></trkpt><trkpt lat="39.46613304476382" lon="9.539103727814826"><ele>36.666666666666664</ele><time>2026-05-01T15:16:13Z</time></trkpt><trkpt lat="39.465920054361526" lon="9.539091386255002"><ele>36.0</ele><time>2026-05-01T15:16:14Z</time></trkpt><trkpt lat="39.465707645472435" lon="9.539087631748423"><ele>36.0</ele><time>2026-05-01T15:16:15Z</time></trkpt><trkpt lat="39.4654993423774" lon="9.539090898293273"><ele>36.0</ele><time>2026-05-01T15:16:16Z</time></trkpt><trkpt lat="39.465296860842614" lon="9.539100070329452"><ele>36.0</ele><time>2026-05-01T15:16:17Z</time></trkpt><trkpt lat="39.46509229771312" lon="9.53910795174606"><ele>36.333333333333336</ele><time>2026-05-01T15:16:18Z</time></trkpt><trkpt lat="39.464887600264774" lon="9.53911073398091"><ele>36.66666666666667</ele><time>2026-05-01T15:16:19Z</time></trkpt><trkpt lat="39.46468087009609" lon="9.539109311469762"><ele>37.0</ele><time>2026-05-01T15:16:20Z</time></trkpt><trkpt lat="39.46447465746302" lon="9.539104853006771"><ele>37.66666666666667</ele><time>2026-05-01T15:16:21Z</time></trkpt><trkpt lat="39.46426785840068" lon="9.539099323660679"><ele>38.333333333333336</ele><time>2026-05-01T15:16:22Z</time></trkpt><trkpt lat="39.464061529733435" lon="9.539092501242468"><ele>39.0</ele><time>2026-05-01T15:16:23Z</time></trkpt><trkpt lat="39.46385427859883" lon="9.539082887999282"><ele>37.0</ele><time>2026-05-01T15:16:24Z</time></trkpt><trkpt lat="39.4636467069366" lon="9.539072791810208"><ele>35.0</ele><time>2026-05-01T15:16:25Z</time></trkpt><trkpt lat="39.46344197315157" lon="9.539077125623967"><ele>33.0</ele><time>2026-05-01T15:16:26Z</time></trkpt><trkpt lat="39.46324131669829" lon="9.539119617341813"><ele>33.0</ele><time>2026-05-01T15:16:27Z</time></trkpt><trkpt lat="39.463046606758134" lon="9.539214882034825"><ele>33.0</ele><time>2026-05-01T15:16:28Z</time></trkpt><trkpt lat="39.46287057711495" lon="9.539362435835605"><ele>33.0</ele><time>2026-05-01T15:16:29Z</time></trkpt><trkpt lat="39.46271447511092" lon="9.539544299564467"><ele>32.666666666666664</ele><time>2026-05-01T15:16:30Z</time></trkpt><trkpt lat="39.46256454108612" lon="9.53973667972511"><ele>32.33333333333333</ele><time>2026-05-01T15:16:31Z</time></trkpt><trkpt lat="39.462419864933835" lon="9.539924930773525"><ele>32.0</ele><time>2026-05-01T15:16:32Z</time></trkpt><trkpt lat="39.46227218768091" lon="9.540110632981886"><ele>32.0</ele><time>2026-05-01T15:16:33Z</time></trkpt><trkpt lat="39.462129960546655" lon="9.540298134218926"><ele>32.0</ele><time>2026-05-01T15:16:34Z</time></trkpt><trkpt lat="39.462007365850766" lon="9.540496297669732"><ele>32.0</ele><time>2026-05-01T15:16:35Z</time></trkpt><trkpt lat="39.4618909075042" lon="9.540698039370653"><ele>32.666666666666664</ele><time>2026-05-01T15:16:36Z</time></trkpt><trkpt lat="39.46175501952505" lon="9.540881280870192"><ele>33.333333333333336</ele><time>2026-05-01T15:16:37Z</time></trkpt><trkpt lat="39.46159633528767" lon="9.541024563493728"><ele>34.0</ele><time>2026-05-01T15:16:38Z</time></trkpt><trkpt lat="39.46142949944883" lon="9.54116173207919"><ele>31.0</ele><time>2026-05-01T15:16:39Z</time></trkpt><trkpt lat="39.461259594446815" lon="9.541298560714761"><ele>28.0</ele><time>2026-05-01T15:16:40Z</time></trkpt><trkpt lat="39.46108050110542" lon="9.541419776065515"><ele>25.0</ele><time>2026-05-01T15:16:41Z</time></trkpt><trkpt lat="39.46089135701484" lon="9.541524764017998"><ele>25.0</ele><time>2026-05-01T15:16:42Z</time></trkpt><trkpt lat="39.46070284085418" lon="9.541634758631016"><ele>25.0</ele><time>2026-05-01T15:16:43Z</time></trkpt><trkpt lat="39.460511304791325" lon="9.541735029178069"><ele>25.0</ele><time>2026-05-01T15:16:44Z</time></trkpt><trkpt lat="39.460314150815606" lon="9.541804189160866"><ele>29.666666666666668</ele><time>2026-05-01T15:16:45Z</time></trkpt><trkpt lat="39.460111379312146" lon="9.541870450631713"><ele>34.333333333333336</ele><time>2026-05-01T15:16:46Z</time></trkpt><trkpt lat="39.45990737116174" lon="9.541932350210827"><ele>39.0</ele><time>2026-05-01T15:16:47Z</time></trkpt><trkpt lat="39.4596996989056" lon="9.541959525738475"><ele>42.33333333333333</ele><time>2026-05-01T15:16:48Z</time></trkpt><trkpt lat="39.45949633355308" lon="9.541976061092628"><ele>45.666666666666664</ele><time>2026-05-01T15:16:49Z</time></trkpt><trkpt lat="39.45929601487549" lon="9.541982341556805"><ele>49.0</ele><time>2026-05-01T15:16:50Z</time></trkpt><trkpt lat="39.459097774044416" lon="9.541984303673267"><ele>49.0</ele><time>2026-05-01T15:16:51Z</time></trkpt><trkpt lat="39.45890243554258" lon="9.541980728579144"><ele>49.0</ele><time>2026-05-01T15:16:52Z</time></trkpt><trkpt lat="39.45870455198453" lon="9.541977356145383"><ele>49.0</ele><time>2026-05-01T15:16:53Z</time></trkpt><trkpt lat="39.458504797049734" lon="9.541964033781154"><ele>47.0</ele><time>2026-05-01T15:16:54Z</time></trkpt><trkpt lat="39.45830840630212" lon="9.54194040370015"><ele>45.0</ele><time>2026-05-01T15:16:55Z</time></trkpt><trkpt lat="39.45811585329323" lon="9.541913420711055"><ele>43.0</ele><time>2026-05-01T15:16:56Z</time></trkpt><trkpt lat="39.45792227735941" lon="9.541891186306085"><ele>41.333333333333336</ele><time>2026-05-01T15:16:57Z</time></trkpt><trkpt lat="39.45773493113578" lon="9.541882291593815"><ele>39.666666666666664</ele><time>2026-05-01T15:16:58Z</time></trkpt><trkpt lat="39.45755094999547" lon="9.541898488822465"><ele>38.0</ele><time>2026-05-01T15:16:59Z</time></trkpt><trkpt lat="39.45737367279579" lon="9.541936238784148"><ele>38.0</ele><time>2026-05-01T15:17:00Z</time></trkpt><trkpt lat="39.45719530115104" lon="9.541968896573385"><ele>38.0</ele><time>2026-05-01T15:17:01Z</time></trkpt><trkpt lat="39.45701692297347" lon="9.541977929509889"><ele>38.0</ele><time>2026-05-01T15:17:02Z</time></trkpt><trkpt lat="39.45683561413295" lon="9.541968782508835"><ele>35.33333333333333</ele><time>2026-05-01T15:17:03Z</time></trkpt><trkpt lat="39.45665183094915" lon="9.541937608683753"><ele>32.666666666666664</ele><time>2026-05-01T15:17:04Z</time></trkpt><trkpt lat="39.45647816633395" lon="9.541849112186727"><ele>30.0</ele><time>2026-05-01T15:17:05Z</time></trkpt><trkpt lat="39.45630117907986" lon="9.541764560013725"><ele>27.0</ele><time>2026-05-01T15:17:06Z</time></trkpt><trkpt lat="39.45615105585173" lon="9.541607691737228"><ele>24.0</ele><time>2026-05-01T15:17:07Z</time></trkpt><trkpt lat="39.45599821756191" lon="9.541453456232123"><ele>21.0</ele><time>2026-05-01T15:17:08Z</time></trkpt><trkpt lat="39.455839574734114" lon="9.54131058569452"><ele>20.666666666666668</ele><time>2026-05-01T15:17:09Z</time></trkpt><trkpt lat="39.45569476223794" lon="9.541145485266274"><ele>20.333333333333336</ele><time>2026-05-01T15:17:10Z</time></trkpt><trkpt lat="39.45554614507911" lon="9.540985666820022"><ele>20.0</ele><time>2026-05-01T15:17:11Z</time></trkpt><trkpt lat="39.4553905376545" lon="9.540837779295344"><ele>20.0</ele><time>2026-05-01T15:17:12Z</time></trkpt><trkpt lat="39.4552240036214" lon="9.540706310719171"><ele>20.0</ele><time>2026-05-01T15:17:13Z</time></trkpt><trkpt lat="39.455048734707454" lon="9.540603961906134"><ele>20.0</ele><time>2026-05-01T15:17:14Z</time></trkpt><trkpt lat="39.454861191095645" lon="9.540535441937404"><ele>20.0</ele><time>2026-05-01T15:17:15Z</time></trkpt><trkpt lat="39.45466439266281" lon="9.54050972140693"><ele>20.0</ele><time>2026-05-01T15:17:16Z</time></trkpt><trkpt lat="39.45446509751821" lon="9.540499402614367"><ele>20.0</ele><time>2026-05-01T15:17:17Z</time></trkpt><trkpt lat="39.45426071424552" lon="9.540503011444352"><ele>19.666666666666668</ele><time>2026-05-01T15:17:18Z</time></trkpt><trkpt lat="39.45405565619749" lon="9.540502652533528"><ele>19.333333333333332</ele><time>2026-05-01T15:17:19Z</time></trkpt><trkpt lat="39.4538501024275" lon="9.5404739265499"><ele>19.0</ele><time>2026-05-01T15:17:20Z</time></trkpt><trkpt lat="39.453645029955574" lon="9.540486232266518"><ele>18.0</ele><time>2026-05-01T15:17:21Z</time></trkpt><trkpt lat="39.45344867166172" lon="9.540477638058583"><ele>17.0</ele><time>2026-05-01T15:17:22Z</time></trkpt><trkpt lat="39.45326035668913" lon="9.540470709199953"><ele>16.0</ele><time>2026-05-01T15:17:23Z</time></trkpt><trkpt lat="39.45307730976359" lon="9.540467028565354"><ele>15.0</ele><time>2026-05-01T15:17:24Z</time></trkpt><trkpt lat="39.45290574668744" lon="9.540459921664821"><ele>14.0</ele><time>2026-05-01T15:17:25Z</time></trkpt><trkpt lat="39.45274153531404" lon="9.540451704843058"><ele>13.0</ele><time>2026-05-01T15:17:26Z</time></trkpt><trkpt lat="39.452585238802975" lon="9.540441707113997"><ele>13.0</ele><time>2026-05-01T15:17:27Z</time></trkpt><trkpt lat="39.452431167034305" lon="9.54043924540196"><ele>13.0</ele><time>2026-05-01T15:17:28Z</time></trkpt><trkpt lat="39.45228505105564" lon="9.540445283343516"><ele>13.0</ele><time>2026-05-01T15:17:29Z</time></trkpt><trkpt lat="39.45214630275839" lon="9.540468204430095"><ele>13.0</ele><time>2026-05-01T15:17:30Z</time></trkpt><trkpt lat="39.452012653704564" lon="9.54051710938969"><ele>13.75</ele><time>2026-05-01T15:17:31Z</time></trkpt><trkpt lat="39.45188227097359" lon="9.540575230780261"><ele>14.5</ele><time>2026-05-01T15:17:32Z</time></trkpt><trkpt lat="39.451755286457406" lon="9.54063655567757"><ele>15.25</ele><time>2026-05-01T15:17:33Z</time></trkpt><trkpt lat="39.451628634586015" lon="9.540695566298218"><ele>16.0</ele><time>2026-05-01T15:17:34Z</time></trkpt><trkpt lat="39.45149981029646" lon="9.540745361739821"><ele>16.0</ele><time>2026-05-01T15:17:35Z</time></trkpt><trkpt lat="39.45136898905377" lon="9.540782602868763"><ele>16.0</ele><time>2026-05-01T15:17:36Z</time></trkpt><trkpt lat="39.45123273806913" lon="9.540793468625028"><ele>16.0</ele><time>2026-05-01T15:17:37Z</time></trkpt><trkpt lat="39.45109890002766" lon="9.540800024153127"><ele>16.0</ele><time>2026-05-01T15:17:38Z</time></trkpt><trkpt lat="39.450962876671085" lon="9.540822299314634"><ele>16.0</ele><time>2026-05-01T15:17:39Z</time></trkpt><trkpt lat="39.450830713724486" lon="9.540845355136911"><ele>16.0</ele><time>2026-05-01T15:17:40Z</time></trkpt><trkpt lat="39.45068978127065" lon="9.540834705449136"><ele>16.0</ele><time>2026-05-01T15:17:41Z</time></trkpt><trkpt lat="39.45054869976047" lon="9.540803017182501"><ele>16.0</ele><time>2026-05-01T15:17:42Z</time></trkpt><trkpt lat="39.450402565389496" lon="9.540773566378649"><ele>16.25</ele><time>2026-05-01T15:17:43Z</time></trkpt><trkpt lat="39.45025425704006" lon="9.540749495608134"><ele>16.5</ele><time>2026-05-01T15:17:44Z</time></trkpt><trkpt lat="39.45010539162016" lon="9.540732314379403"><ele>16.75</ele><time>2026-05-01T15:17:45Z</time></trkpt><trkpt lat="39.44995688257027" lon="9.54072115891574"><ele>17.0</ele><time>2026-05-01T15:17:46Z</time></trkpt><trkpt lat="39.44980965095471" lon="9.5407188924663"><ele>17.0</ele><time>2026-05-01T15:17:47Z</time></trkpt><trkpt lat="39.44966431556534" lon="9.54072148488453"><ele>17.0</ele><time>2026-05-01T15:17:48Z</time></trkpt><trkpt lat="39.4495246375776" lon="9.540728279755626"><ele>17.0</ele><time>2026-05-01T15:17:49Z</time></trkpt><trkpt lat="39.449388635461084" lon="9.540734579825962"><ele>17.0</ele><time>2026-05-01T15:17:50Z</time></trkpt><trkpt lat="39.449256492781075" lon="9.540743920892936"><ele>17.5</ele><time>2026-05-01T15:17:51Z</time></trkpt><trkpt lat="39.44912786663078" lon="9.540750210577427"><ele>18.0</ele><time>2026-05-01T15:17:52Z</time></trkpt><trkpt lat="39.449001033478275" lon="9.540756997262596"><ele>18.5</ele><time>2026-05-01T15:17:53Z</time></trkpt><trkpt lat="39.44887634992947" lon="9.540744679721003"><ele>19.0</ele><time>2026-05-01T15:17:54Z</time></trkpt><trkpt lat="39.44875449658007" lon="9.54077950287353"><ele>19.0</ele><time>2026-05-01T15:17:55Z</time></trkpt><trkpt lat="39.44863080714504" lon="9.540794463672707"><ele>19.0</ele><time>2026-05-01T15:17:56Z</time></trkpt><trkpt lat="39.44850701633867" lon="9.540776642974052"><ele>19.0</ele><time>2026-05-01T15:17:57Z</time></trkpt><trkpt lat="39.448386693431026" lon="9.540771736639439"><ele>19.0</ele><time>2026-05-01T15:17:58Z</time></trkpt><trkpt lat="39.44827431146445" lon="9.540756773859789"><ele>19.0</ele><time>2026-05-01T15:17:59Z</time></trkpt><trkpt lat="39.44816935077062" lon="9.54072822941518"><ele>19.0</ele><time>2026-05-01T15:18:00Z</time></trkpt><trkpt lat="39.44806176052373" lon="9.540704301472136"><ele>19.0</ele><time>2026-05-01T15:18:01Z</time></trkpt><trkpt lat="39.44795248767697" lon="9.540679999308477"><ele>19.0</ele><time>2026-05-01T15:18:02Z</time></trkpt><trkpt lat="39.44784272062108" lon="9.54065634120133"><ele>19.0</ele><time>2026-05-01T15:18:03Z</time></trkpt><trkpt lat="39.44772743973239" lon="9.540634639637927"><ele>18.5</ele><time>2026-05-01T15:18:04Z</time></trkpt><trkpt lat="39.447617978408324" lon="9.540614982376061"><ele>18.0</ele><time>2026-05-01T15:18:05Z</time></trkpt><trkpt lat="39.44752251745281" lon="9.540616311888924"><ele>17.5</ele><time>2026-05-01T15:18:06Z</time></trkpt><trkpt lat="39.44744565538069" lon="9.540597601736474"><ele>17.0</ele><time>2026-05-01T15:18:07Z</time></trkpt><trkpt lat="39.44737775989052" lon="9.540606214870635"><ele>16.5</ele><time>2026-05-01T15:18:08Z</time></trkpt><trkpt lat="39.44728424419639" lon="9.540589221471247"><ele>16.0</ele><time>2026-05-01T15:18:10Z</time></trkpt><trkpt lat="39.44715987306221" lon="9.540594932940209"><ele>15.600000000000001</ele><time>2026-05-01T15:18:12Z</time></trkpt><trkpt lat="39.447086230589825" lon="9.540598314801521"><ele>15.200000000000001</ele><time>2026-05-01T15:18:13Z</time></trkpt><trkpt lat="39.44699308637261" lon="9.540600120128113"><ele>14.799999999999999</ele><time>2026-05-01T15:18:14Z</time></trkpt><trkpt lat="39.44689760542779" lon="9.54060129944533"><ele>14.399999999999999</ele><time>2026-05-01T15:18:15Z</time></trkpt><trkpt lat="39.446804428618215" lon="9.540600775899856"><ele>14.0</ele><time>2026-05-01T15:18:16Z</time></trkpt><trkpt lat="39.44670983394256" lon="9.54059681215369"><ele>14.0</ele><time>2026-05-01T15:18:17Z</time></trkpt><trkpt lat="39.4466128792712" lon="9.54058988674075"><ele>13.999999999999998</ele><time>2026-05-01T15:18:18Z</time></trkpt><trkpt lat="39.446518614319686" lon="9.540569412386281"><ele>13.999999999999998</ele><time>2026-05-01T15:18:19Z</time></trkpt><trkpt lat="39.446422972017736" lon="9.540535609941786"><ele>14.0</ele><time>2026-05-01T15:18:20Z</time></trkpt><trkpt lat="39.44633349848556" lon="9.540502861898766"><ele>14.0</ele><time>2026-05-01T15:18:21Z</time></trkpt><trkpt lat="39.44625019462467" lon="9.540472215563254"><ele>14.399999999999999</ele><time>2026-05-01T15:18:22Z</time></trkpt><trkpt lat="39.44616452658342" lon="9.540452515578561"><ele>14.799999999999999</ele><time>2026-05-01T15:18:23Z</time></trkpt><trkpt lat="39.446079072382076" lon="9.540405962900314"><ele>15.200000000000001</ele><time>2026-05-01T15:18:24Z</time></trkpt><trkpt lat="39.44599043637905" lon="9.540370302025256"><ele>15.600000000000001</ele><time>2026-05-01T15:18:25Z</time></trkpt><trkpt lat="39.44589699708637" lon="9.540338300497714"><ele>16.0</ele><time>2026-05-01T15:18:26Z</time></trkpt><trkpt lat="39.44580006343345" lon="9.540314402963377"><ele>16.400000000000002</ele><time>2026-05-01T15:18:27Z</time></trkpt><trkpt lat="39.4457014147919" lon="9.540294463033467"><ele>16.8</ele><time>2026-05-01T15:18:28Z</time></trkpt><trkpt lat="39.44559781235178" lon="9.540278479050114"><ele>17.200000000000003</ele><time>2026-05-01T15:18:29Z</time></trkpt><trkpt lat="39.445493361407166" lon="9.540264027389945"><ele>17.6</ele><time>2026-05-01T15:18:30Z</time></trkpt><trkpt lat="39.445386512880006" lon="9.540248479348064"><ele>18.0</ele><time>2026-05-01T15:18:31Z</time></trkpt><trkpt lat="39.4452835619002" lon="9.540229284299901"><ele>18.0</ele><time>2026-05-01T15:18:32Z</time></trkpt><trkpt lat="39.44518290883193" lon="9.540211426956768"><ele>18.0</ele><time>2026-05-01T15:18:33Z</time></trkpt><trkpt lat="39.44508980816643" lon="9.540200236391046"><ele>18.0</ele><time>2026-05-01T15:18:34Z</time></trkpt><trkpt lat="39.44499768077434" lon="9.54018906191556"><ele>18.0</ele><time>2026-05-01T15:18:35Z</time></trkpt><trkpt lat="39.44490343543117" lon="9.540186108435506"><ele>18.0</ele><time>2026-05-01T15:18:36Z</time></trkpt><trkpt lat="39.44481614103023" lon="9.540213065228432"><ele>18.0</ele><time>2026-05-01T15:18:37Z</time></trkpt><trkpt lat="39.444758709453204" lon="9.540325335288273"><ele>18.0</ele><time>2026-05-01T15:18:38Z</time></trkpt><trkpt lat="39.44469472661084" lon="9.540421060508503"><ele>18.0</ele><time>2026-05-01T15:18:39Z</time></trkpt><trkpt lat="39.444626328123555" lon="9.54051602157019"><ele>18.0</ele><time>2026-05-01T15:18:40Z</time></trkpt><trkpt lat="39.44455939072694" lon="9.5406133167614"><ele>18.0</ele><time>2026-05-01T15:18:41Z</time></trkpt><trkpt lat="39.44449356904989" lon="9.540709146078367"><ele>17.4</ele><time>2026-05-01T15:18:42Z</time></trkpt><trkpt lat="39.44443830504474" lon="9.540808347224116"><ele>16.8</ele><time>2026-05-01T15:18:43Z</time></trkpt><trkpt lat="39.44439203245716" lon="9.540915752206283"><ele>16.2</ele><time>2026-05-01T15:18:44Z</time></trkpt><trkpt lat="39.44434562341961" lon="9.541025067408668"><ele>15.6</ele><time>2026-05-01T15:18:45Z</time></trkpt><trkpt lat="39.44429773019653" lon="9.541117194714316"><ele>15.0</ele><time>2026-05-01T15:18:46Z</time></trkpt><trkpt lat="39.444237729370094" lon="9.541208177342218"><ele>15.0</ele><time>2026-05-01T15:18:47Z</time></trkpt><trkpt lat="39.444155916436976" lon="9.541273678727116"><ele>15.0</ele><time>2026-05-01T15:18:48Z</time></trkpt><trkpt lat="39.4440686324093" lon="9.54133113842705"><ele>15.0</ele><time>2026-05-01T15:18:49Z</time></trkpt><trkpt lat="39.44398152766894" lon="9.541393224175252"><ele>15.0</ele><time>2026-05-01T15:18:50Z</time></trkpt><trkpt lat="39.44388023988964" lon="9.541453404042477"><ele>15.0</ele><time>2026-05-01T15:18:51Z</time></trkpt><trkpt lat="39.443791903736766" lon="9.541527234034852"><ele>15.6</ele><time>2026-05-01T15:18:52Z</time></trkpt><trkpt lat="39.44369324098868" lon="9.541585915688717"><ele>16.2</ele><time>2026-05-01T15:18:53Z</time></trkpt><trkpt lat="39.443582297320994" lon="9.541595909670047"><ele>16.8</ele><time>2026-05-01T15:18:54Z</time></trkpt><trkpt lat="39.44348188636873" lon="9.541645509832097"><ele>17.4</ele><time>2026-05-01T15:18:55Z</time></trkpt><trkpt lat="39.44338232986669" lon="9.541690683364704"><ele>18.0</ele><time>2026-05-01T15:18:56Z</time></trkpt><trkpt lat="39.44328137976377" lon="9.541737498317037"><ele>18.0</ele><time>2026-05-01T15:18:57Z</time></trkpt><trkpt lat="39.44318314804556" lon="9.541786878590337"><ele>18.0</ele><time>2026-05-01T15:18:58Z</time></trkpt><trkpt lat="39.44308725294288" lon="9.541845599926981"><ele>18.0</ele><time>2026-05-01T15:18:59Z</time></trkpt><trkpt lat="39.44299845198502" lon="9.541912505045682"><ele>18.0</ele><time>2026-05-01T15:19:00Z</time></trkpt><trkpt lat="39.44292355994395" lon="9.541986315626598"><ele>18.0</ele><time>2026-05-01T15:19:01Z</time></trkpt><trkpt lat="39.442839836637674" lon="9.54202652742018"><ele>17.833333333333332</ele><time>2026-05-01T15:19:02Z</time></trkpt><trkpt lat="39.442766084141056" lon="9.542080183332784"><ele>17.666666666666668</ele><time>2026-05-01T15:19:03Z</time></trkpt><trkpt lat="39.44270074643948" lon="9.542142040535513"><ele>17.5</ele><time>2026-05-01T15:19:04Z</time></trkpt><trkpt lat="39.442631350940744" lon="9.542180200303692"><ele>17.333333333333336</ele><time>2026-05-01T15:19:05Z</time></trkpt><trkpt lat="39.44256084240374" lon="9.542222410935182"><ele>17.166666666666668</ele><time>2026-05-01T15:19:06Z</time></trkpt><trkpt lat="39.4424886589143" lon="9.542261588566902"><ele>17.0</ele><time>2026-05-01T15:19:07Z</time></trkpt><trkpt lat="39.44241725705143" lon="9.5423035441845"><ele>17.0</ele><time>2026-05-01T15:19:08Z</time></trkpt><trkpt lat="39.442346227250226" lon="9.542343319043715"><ele>17.0</ele><time>2026-05-01T15:19:09Z</time></trkpt><trkpt lat="39.442280725338364" lon="9.542400441273594"><ele>17.0</ele><time>2026-05-01T15:19:10Z</time></trkpt><trkpt lat="39.4422256831568" lon="9.542482858906139"><ele>17.0</ele><time>2026-05-01T15:19:11Z</time></trkpt><trkpt lat="39.44217531304268" lon="9.542556182397439"><ele>17.0</ele><time>2026-05-01T15:19:12Z</time></trkpt><trkpt lat="39.4421165262994" lon="9.542621083080443"><ele>17.0</ele><time>2026-05-01T15:19:13Z</time></trkpt><trkpt lat="39.442056342406964" lon="9.542667442559079"><ele>16.8</ele><time>2026-05-01T15:19:14Z</time></trkpt><trkpt lat="39.4419904612616" lon="9.542706357798155"><ele>16.6</ele><time>2026-05-01T15:19:15Z</time></trkpt><trkpt lat="39.441926351045495" lon="9.542749308116495"><ele>16.400000000000002</ele><time>2026-05-01T15:19:16Z</time></trkpt><trkpt lat="39.44181767028205" lon="9.542830039443087"><ele>16.2</ele><time>2026-05-01T15:19:18Z</time></trkpt><trkpt lat="39.44171217500719" lon="9.542896271396907"><ele>16.0</ele><time>2026-05-01T15:19:20Z</time></trkpt><trkpt lat="39.44161299933521" lon="9.542936708014594"><ele>15.999999999999998</ele><time>2026-05-01T15:19:22Z</time></trkpt><trkpt lat="39.4414905293567" lon="9.542908601366234"><ele>16.0</ele><time>2026-05-01T15:19:24Z</time></trkpt><trkpt lat="39.4414268181458" lon="9.542879829629953"><ele>16.0</ele><time>2026-05-01T15:19:25Z</time></trkpt><trkpt lat="39.44136104284275" lon="9.5428501962787"><ele>16.0</ele><time>2026-05-01T15:19:26Z</time></trkpt><trkpt lat="39.44129266019922" lon="9.54282002870568"><ele>15.999999999999998</ele><time>2026-05-01T15:19:27Z</time></trkpt><trkpt lat="39.4412329743344" lon="9.542767028340876"><ele>16.0</ele><time>2026-05-01T15:19:28Z</time></trkpt><trkpt lat="39.441159806960805" lon="9.542727619870355"><ele>15.857142857142856</ele><time>2026-05-01T15:19:29Z</time></trkpt><trkpt lat="39.44108617159515" lon="9.542687996525085"><ele>15.714285714285712</ele><time>2026-05-01T15:19:30Z</time></trkpt><trkpt lat="39.44100590973421" lon="9.542664748435168"><ele>15.571428571428571</ele><time>2026-05-01T15:19:31Z</time></trkpt><trkpt lat="39.44093565339808" lon="9.542621888013374"><ele>15.428571428571427</ele><time>2026-05-01T15:19:32Z</time></trkpt><trkpt lat="39.44086863397068" lon="9.542587593213625"><ele>15.285714285714285</ele><time>2026-05-01T15:19:33Z</time></trkpt><trkpt lat="39.44080341104346" lon="9.542553563129582"><ele>15.142857142857142</ele><time>2026-05-01T15:19:34Z</time></trkpt><trkpt lat="39.440741925558946" lon="9.542522662164615"><ele>15.0</ele><time>2026-05-01T15:19:35Z</time></trkpt><trkpt lat="39.440627895172454" lon="9.542459189429806"><ele>15.0</ele><time>2026-05-01T15:19:37Z</time></trkpt><trkpt lat="39.4405118379473" lon="9.542387443878798"><ele>15.0</ele><time>2026-05-01T15:19:39Z</time></trkpt><trkpt lat="39.440450631965014" lon="9.542355390741745"><ele>15.0</ele><time>2026-05-01T15:19:40Z</time></trkpt><trkpt lat="39.44039133543366" lon="9.542323192150366"><ele>15.0</ele><time>2026-05-01T15:19:41Z</time></trkpt><trkpt lat="39.44033073618387" lon="9.542288752988506"><ele>15.0</ele><time>2026-05-01T15:19:42Z</time></trkpt><trkpt lat="39.44026456802692" lon="9.542263389085837"><ele>15.0</ele><time>2026-05-01T15:19:43Z</time></trkpt><trkpt lat="39.440195601324646" lon="9.542246120016562"><ele>15.0</ele><time>2026-05-01T15:19:44Z</time></trkpt><trkpt lat="39.44012279530661" lon="9.542253446919755"><ele>15.0</ele><time>2026-05-01T15:19:45Z</time></trkpt><trkpt lat="39.440048960733115" lon="9.542261066876423"><ele>15.0</ele><time>2026-05-01T15:19:46Z</time></trkpt><trkpt lat="39.43997339838729" lon="9.542272742169853"><ele>15.0</ele><time>2026-05-01T15:19:47Z</time></trkpt><trkpt lat="39.4398992987517" lon="9.542285245308918"><ele>15.0</ele><time>2026-05-01T15:19:48Z</time></trkpt><trkpt lat="39.43982631504236" lon="9.542297692304382"><ele>15.0</ele><time>2026-05-01T15:19:49Z</time></trkpt><trkpt lat="39.4397543067049" lon="9.542308651005504"><ele>15.0</ele><time>2026-05-01T15:19:50Z</time></trkpt><trkpt lat="39.43968442394572" lon="9.542315356360927"><ele>15.0</ele><time>2026-05-01T15:19:51Z</time></trkpt><trkpt lat="39.43961571329793" lon="9.542321179508228"><ele>15.0</ele><time>2026-05-01T15:19:52Z</time></trkpt><trkpt lat="39.43954748695142" lon="9.542329741009791"><ele>15.0</ele><time>2026-05-01T15:19:53Z</time></trkpt><trkpt lat="39.439479867749796" lon="9.542339890942449"><ele>15.0</ele><time>2026-05-01T15:19:54Z</time></trkpt><trkpt lat="39.43941550781453" lon="9.542348846368377"><ele>15.0</ele><time>2026-05-01T15:19:55Z</time></trkpt><trkpt lat="39.439302224687566" lon="9.542364562380197"><ele>15.0</ele><time>2026-05-01T15:19:57Z</time></trkpt><trkpt lat="39.43922908456467" lon="9.542350370770691"><ele>15.0</ele><time>2026-05-01T15:19:59Z</time></trkpt><trkpt lat="39.43922378864497" lon="9.54223331354086"><ele>15.0</ele><time>2026-05-01T15:20:02Z</time></trkpt><trkpt lat="39.43922452409099" lon="9.542130173979235"><ele>15.0</ele><time>2026-05-01T15:20:05Z</time></trkpt></trkseg></trk></gpx>